<?xml version="1.0" encoding="UTF-8" standalone="no" ?>
<gpx xmlns="http://www.topografix.com/GPX/1/1" xmlns:xsi="http://www.w3.org/2001/XMLSchema-instance" xsi:schemaLocation="http://www.topografix.com/GPX/1/1 http://www.topografix.com/GPX/1/1/gpx.xsd" version="1.1" creator="VisuGPX - https://www.visugpx.com">
  <metadata>
    <name>Tour d'Europe: étape 047</name>
    <desc><![CDATA[Étape 047]]></desc>
  </metadata>
  <trk>
    <name><![CDATA[Tour d'Europe: étape 047]]></name>
    <trkseg>
      <trkpt lat="65.87249" lon="12.46596">
        <ele>48.650273</ele>
        <time>2020-08-14T07:05:26.927Z</time>
      </trkpt>
      <trkpt lat="65.87246" lon="12.46621">
        <ele>48.650273</ele>
        <time>2020-08-14T07:05:28.107Z</time>
      </trkpt>
      <trkpt lat="65.87242" lon="12.46601">
        <ele>48.650273</ele>
        <time>2020-08-14T07:05:29.105Z</time>
      </trkpt>
      <trkpt lat="65.87238" lon="12.46564">
        <ele>48.650273</ele>
        <time>2020-08-14T07:13:30.385Z</time>
      </trkpt>
      <trkpt lat="65.87228" lon="12.46572">
        <ele>48.650273</ele>
        <time>2020-08-14T07:13:34.349Z</time>
      </trkpt>
      <trkpt lat="65.87219" lon="12.46588">
        <ele>48.650273</ele>
        <time>2020-08-14T07:13:38.368Z</time>
      </trkpt>
      <trkpt lat="65.87213" lon="12.46605">
        <ele>48.650273</ele>
        <time>2020-08-14T07:13:42.349Z</time>
      </trkpt>
      <trkpt lat="65.87206" lon="12.46623">
        <ele>48.650273</ele>
        <time>2020-08-14T07:13:46.346Z</time>
      </trkpt>
      <trkpt lat="65.872" lon="12.46641">
        <ele>48.650273</ele>
        <time>2020-08-14T07:13:50.349Z</time>
      </trkpt>
      <trkpt lat="65.87194" lon="12.46658">
        <ele>48.620547</ele>
        <time>2020-08-14T07:13:53.342Z</time>
      </trkpt>
      <trkpt lat="65.87186" lon="12.46671">
        <ele>48.570382</ele>
        <time>2020-08-14T07:13:56.350Z</time>
      </trkpt>
      <trkpt lat="65.87175" lon="12.46688">
        <ele>48.499558</ele>
        <time>2020-08-14T07:13:59.353Z</time>
      </trkpt>
      <trkpt lat="65.87166" lon="12.46697">
        <ele>48.447965</ele>
        <time>2020-08-14T07:14:01.364Z</time>
      </trkpt>
      <trkpt lat="65.87158" lon="12.46707">
        <ele>48.399038</ele>
        <time>2020-08-14T07:14:03.367Z</time>
      </trkpt>
      <trkpt lat="65.8715" lon="12.46725">
        <ele>48.338136</ele>
        <time>2020-08-14T07:14:06.393Z</time>
      </trkpt>
      <trkpt lat="65.87144" lon="12.46747">
        <ele>48.280922</ele>
        <time>2020-08-14T07:14:09.341Z</time>
      </trkpt>
      <trkpt lat="65.87141" lon="12.4677">
        <ele>48.226967</ele>
        <time>2020-08-14T07:14:12.354Z</time>
      </trkpt>
      <trkpt lat="65.87139" lon="12.46792">
        <ele>48.17821</ele>
        <time>2020-08-14T07:14:16.343Z</time>
      </trkpt>
      <trkpt lat="65.87134" lon="12.46812">
        <ele>48.12569</ele>
        <time>2020-08-14T07:14:21.357Z</time>
      </trkpt>
      <trkpt lat="65.87129" lon="12.46834">
        <ele>48.070182</ele>
        <time>2020-08-14T07:14:25.347Z</time>
      </trkpt>
      <trkpt lat="65.87124" lon="12.4686">
        <ele>48.006696</ele>
        <time>2020-08-14T07:14:29.338Z</time>
      </trkpt>
      <trkpt lat="65.87118" lon="12.46883">
        <ele>47.947776</ele>
        <time>2020-08-14T07:14:33.363Z</time>
      </trkpt>
      <trkpt lat="65.87109" lon="12.46902">
        <ele>47.885407</ele>
        <time>2020-08-14T07:14:37.335Z</time>
      </trkpt>
      <trkpt lat="65.87098" lon="12.46911">
        <ele>47.824572</ele>
        <time>2020-08-14T07:14:40.356Z</time>
      </trkpt>
      <trkpt lat="65.87087" lon="12.46917">
        <ele>47.76142</ele>
        <time>2020-08-14T07:14:43.361Z</time>
      </trkpt>
      <trkpt lat="65.87077" lon="12.4692">
        <ele>47.705619</ele>
        <time>2020-08-14T07:14:46.355Z</time>
      </trkpt>
      <trkpt lat="65.87068" lon="12.46925">
        <ele>47.681824</ele>
        <time>2020-08-14T07:14:49.360Z</time>
      </trkpt>
      <trkpt lat="65.8706" lon="12.46943">
        <ele>47.681009</ele>
        <time>2020-08-14T07:14:53.337Z</time>
      </trkpt>
      <trkpt lat="65.87061" lon="12.46968">
        <ele>47.680151</ele>
        <time>2020-08-14T07:14:57.378Z</time>
      </trkpt>
      <trkpt lat="65.87063" lon="12.46993">
        <ele>47.679305</ele>
        <time>2020-08-14T07:15:00.353Z</time>
      </trkpt>
      <trkpt lat="65.87066" lon="12.47016">
        <ele>47.678516</ele>
        <time>2020-08-14T07:15:03.339Z</time>
      </trkpt>
      <trkpt lat="65.87069" lon="12.47039">
        <ele>47.677715</ele>
        <time>2020-08-14T07:15:06.371Z</time>
      </trkpt>
      <trkpt lat="65.87071" lon="12.47062">
        <ele>47.676917</ele>
        <time>2020-08-14T07:15:09.329Z</time>
      </trkpt>
      <trkpt lat="65.87075" lon="12.47087">
        <ele>47.676044</ele>
        <time>2020-08-14T07:15:12.351Z</time>
      </trkpt>
      <trkpt lat="65.87077" lon="12.47112">
        <ele>47.675203</ele>
        <time>2020-08-14T07:15:15.352Z</time>
      </trkpt>
      <trkpt lat="65.87079" lon="12.47138">
        <ele>47.674303</ele>
        <time>2020-08-14T07:15:18.347Z</time>
      </trkpt>
      <trkpt lat="65.87083" lon="12.47166">
        <ele>47.673339</ele>
        <time>2020-08-14T07:15:21.332Z</time>
      </trkpt>
      <trkpt lat="65.87087" lon="12.47194">
        <ele>47.672341</ele>
        <time>2020-08-14T07:15:24.337Z</time>
      </trkpt>
      <trkpt lat="65.87092" lon="12.47224">
        <ele>47.671276</ele>
        <time>2020-08-14T07:15:27.349Z</time>
      </trkpt>
      <trkpt lat="65.87097" lon="12.47254">
        <ele>47.670197</ele>
        <time>2020-08-14T07:15:30.355Z</time>
      </trkpt>
      <trkpt lat="65.871" lon="12.47275">
        <ele>47.669461</ele>
        <time>2020-08-14T07:15:32.386Z</time>
      </trkpt>
      <trkpt lat="65.87103" lon="12.47296">
        <ele>47.668712</ele>
        <time>2020-08-14T07:15:34.374Z</time>
      </trkpt>
      <trkpt lat="65.87107" lon="12.47327">
        <ele>47.667616</ele>
        <time>2020-08-14T07:15:37.363Z</time>
      </trkpt>
      <trkpt lat="65.87111" lon="12.47348">
        <ele>47.884594</ele>
        <time>2020-08-14T07:15:39.377Z</time>
      </trkpt>
      <trkpt lat="65.87116" lon="12.47378">
        <ele>48.203549</ele>
        <time>2020-08-14T07:15:42.351Z</time>
      </trkpt>
      <trkpt lat="65.8712" lon="12.47409">
        <ele>48.52525</ele>
        <time>2020-08-14T07:15:45.357Z</time>
      </trkpt>
      <trkpt lat="65.87124" lon="12.4744">
        <ele>48.847362</ele>
        <time>2020-08-14T07:15:48.341Z</time>
      </trkpt>
      <trkpt lat="65.87127" lon="12.47463">
        <ele>49.07655</ele>
        <time>2020-08-14T07:15:50.351Z</time>
      </trkpt>
      <trkpt lat="65.87129" lon="12.47485">
        <ele>49.299094</ele>
        <time>2020-08-14T07:15:52.349Z</time>
      </trkpt>
      <trkpt lat="65.87132" lon="12.47507">
        <ele>49.527003</ele>
        <time>2020-08-14T07:15:54.371Z</time>
      </trkpt>
      <trkpt lat="65.87134" lon="12.47529">
        <ele>49.754821</ele>
        <time>2020-08-14T07:15:56.342Z</time>
      </trkpt>
      <trkpt lat="65.87138" lon="12.47551">
        <ele>49.979315</ele>
        <time>2020-08-14T07:15:58.338Z</time>
      </trkpt>
      <trkpt lat="65.87141" lon="12.47572">
        <ele>50.200209</ele>
        <time>2020-08-14T07:16:00.369Z</time>
      </trkpt>
      <trkpt lat="65.87144" lon="12.47593">
        <ele>50.423711</ele>
        <time>2020-08-14T07:16:02.365Z</time>
      </trkpt>
      <trkpt lat="65.87148" lon="12.47615">
        <ele>50.652727</ele>
        <time>2020-08-14T07:16:04.329Z</time>
      </trkpt>
      <trkpt lat="65.87152" lon="12.47635">
        <ele>50.87098</ele>
        <time>2020-08-14T07:16:06.335Z</time>
      </trkpt>
      <trkpt lat="65.87155" lon="12.47655">
        <ele>51.092805</ele>
        <time>2020-08-14T07:16:08.336Z</time>
      </trkpt>
      <trkpt lat="65.8716" lon="12.47678">
        <ele>51.333797</ele>
        <time>2020-08-14T07:16:10.372Z</time>
      </trkpt>
      <trkpt lat="65.87163" lon="12.47699">
        <ele>51.557298</ele>
        <time>2020-08-14T07:16:12.337Z</time>
      </trkpt>
      <trkpt lat="65.87167" lon="12.47719">
        <ele>51.776442</ele>
        <time>2020-08-14T07:16:14.369Z</time>
      </trkpt>
      <trkpt lat="65.87171" lon="12.47741">
        <ele>51.965777</ele>
        <time>2020-08-14T07:16:16.377Z</time>
      </trkpt>
      <trkpt lat="65.87174" lon="12.47762">
        <ele>51.718428</ele>
        <time>2020-08-14T07:16:18.343Z</time>
      </trkpt>
      <trkpt lat="65.87178" lon="12.47785">
        <ele>51.455542</ele>
        <time>2020-08-14T07:16:20.350Z</time>
      </trkpt>
      <trkpt lat="65.87183" lon="12.47808">
        <ele>51.191336</ele>
        <time>2020-08-14T07:16:22.365Z</time>
      </trkpt>
      <trkpt lat="65.87187" lon="12.47831">
        <ele>50.92713</ele>
        <time>2020-08-14T07:16:24.351Z</time>
      </trkpt>
      <trkpt lat="65.87193" lon="12.47855">
        <ele>50.637245</ele>
        <time>2020-08-14T07:16:26.353Z</time>
      </trkpt>
      <trkpt lat="65.87199" lon="12.47878">
        <ele>50.349588</ele>
        <time>2020-08-14T07:16:28.340Z</time>
      </trkpt>
      <trkpt lat="65.87205" lon="12.47903">
        <ele>50.039116</ele>
        <time>2020-08-14T07:16:30.346Z</time>
      </trkpt>
      <trkpt lat="65.87213" lon="12.4793">
        <ele>49.69352</ele>
        <time>2020-08-14T07:16:32.343Z</time>
      </trkpt>
      <trkpt lat="65.87222" lon="12.47958">
        <ele>49.333787</ele>
        <time>2020-08-14T07:16:34.364Z</time>
      </trkpt>
      <trkpt lat="65.8723" lon="12.47986">
        <ele>48.970052</ele>
        <time>2020-08-14T07:16:36.358Z</time>
      </trkpt>
      <trkpt lat="65.87237" lon="12.48014">
        <ele>48.614691</ele>
        <time>2020-08-14T07:16:38.377Z</time>
      </trkpt>
      <trkpt lat="65.87245" lon="12.48042">
        <ele>48.259906</ele>
        <time>2020-08-14T07:16:40.368Z</time>
      </trkpt>
      <trkpt lat="65.87253" lon="12.48069">
        <ele>47.914314</ele>
        <time>2020-08-14T07:16:42.340Z</time>
      </trkpt>
      <trkpt lat="65.87261" lon="12.48095">
        <ele>47.571635</ele>
        <time>2020-08-14T07:16:44.342Z</time>
      </trkpt>
      <trkpt lat="65.87269" lon="12.48121">
        <ele>47.242394</ele>
        <time>2020-08-14T07:16:46.329Z</time>
      </trkpt>
      <trkpt lat="65.87277" lon="12.48147">
        <ele>46.934098</ele>
        <time>2020-08-14T07:16:48.360Z</time>
      </trkpt>
      <trkpt lat="65.87284" lon="12.48172">
        <ele>46.634514</ele>
        <time>2020-08-14T07:16:50.356Z</time>
      </trkpt>
      <trkpt lat="65.87291" lon="12.48197">
        <ele>46.332188</ele>
        <time>2020-08-14T07:16:52.358Z</time>
      </trkpt>
      <trkpt lat="65.87299" lon="12.48223">
        <ele>46.017721</ele>
        <time>2020-08-14T07:16:54.356Z</time>
      </trkpt>
      <trkpt lat="65.87306" lon="12.4825">
        <ele>45.697877</ele>
        <time>2020-08-14T07:16:56.352Z</time>
      </trkpt>
      <trkpt lat="65.87314" lon="12.48275">
        <ele>45.392569</ele>
        <time>2020-08-14T07:16:58.342Z</time>
      </trkpt>
      <trkpt lat="65.87321" lon="12.48301">
        <ele>45.079884</ele>
        <time>2020-08-14T07:17:00.337Z</time>
      </trkpt>
      <trkpt lat="65.87329" lon="12.48329">
        <ele>44.750375</ele>
        <time>2020-08-14T07:17:02.349Z</time>
      </trkpt>
      <trkpt lat="65.87337" lon="12.48356">
        <ele>44.417347</ele>
        <time>2020-08-14T07:17:04.361Z</time>
      </trkpt>
      <trkpt lat="65.87346" lon="12.48383">
        <ele>44.083076</ele>
        <time>2020-08-14T07:17:06.339Z</time>
      </trkpt>
      <trkpt lat="65.87354" lon="12.48411">
        <ele>43.748615</ele>
        <time>2020-08-14T07:17:08.368Z</time>
      </trkpt>
      <trkpt lat="65.87363" lon="12.48439">
        <ele>43.407233</ele>
        <time>2020-08-14T07:17:10.350Z</time>
      </trkpt>
      <trkpt lat="65.87371" lon="12.48465">
        <ele>43.075208</ele>
        <time>2020-08-14T07:17:12.350Z</time>
      </trkpt>
      <trkpt lat="65.8738" lon="12.48491">
        <ele>43.021143</ele>
        <time>2020-08-14T07:17:14.339Z</time>
      </trkpt>
      <trkpt lat="65.87387" lon="12.48516">
        <ele>42.975418</ele>
        <time>2020-08-14T07:17:16.352Z</time>
      </trkpt>
      <trkpt lat="65.87395" lon="12.4854">
        <ele>42.930641</ele>
        <time>2020-08-14T07:17:18.369Z</time>
      </trkpt>
      <trkpt lat="65.87403" lon="12.48564">
        <ele>42.886893</ele>
        <time>2020-08-14T07:17:20.348Z</time>
      </trkpt>
      <trkpt lat="65.8741" lon="12.48587">
        <ele>42.843821</ele>
        <time>2020-08-14T07:17:22.330Z</time>
      </trkpt>
      <trkpt lat="65.87417" lon="12.4861">
        <ele>42.799949</ele>
        <time>2020-08-14T07:17:24.342Z</time>
      </trkpt>
      <trkpt lat="65.87425" lon="12.48633">
        <ele>42.757107</ele>
        <time>2020-08-14T07:17:26.347Z</time>
      </trkpt>
      <trkpt lat="65.87432" lon="12.48656">
        <ele>42.715286</ele>
        <time>2020-08-14T07:17:28.337Z</time>
      </trkpt>
      <trkpt lat="65.87439" lon="12.48678">
        <ele>42.674523</ele>
        <time>2020-08-14T07:17:30.341Z</time>
      </trkpt>
      <trkpt lat="65.87445" lon="12.487">
        <ele>42.635101</ele>
        <time>2020-08-14T07:17:32.342Z</time>
      </trkpt>
      <trkpt lat="65.87452" lon="12.48722">
        <ele>42.594985</ele>
        <time>2020-08-14T07:17:34.336Z</time>
      </trkpt>
      <trkpt lat="65.87458" lon="12.48743">
        <ele>42.556109</ele>
        <time>2020-08-14T07:17:36.346Z</time>
      </trkpt>
      <trkpt lat="65.87465" lon="12.48764">
        <ele>42.517128</ele>
        <time>2020-08-14T07:17:38.369Z</time>
      </trkpt>
      <trkpt lat="65.87472" lon="12.48785">
        <ele>42.478214</ele>
        <time>2020-08-14T07:17:40.345Z</time>
      </trkpt>
      <trkpt lat="65.87478" lon="12.48807">
        <ele>42.43885</ele>
        <time>2020-08-14T07:17:42.355Z</time>
      </trkpt>
      <trkpt lat="65.87485" lon="12.48828">
        <ele>42.395172</ele>
        <time>2020-08-14T07:17:44.340Z</time>
      </trkpt>
      <trkpt lat="65.87492" lon="12.4885">
        <ele>42.348421</ele>
        <time>2020-08-14T07:17:46.339Z</time>
      </trkpt>
      <trkpt lat="65.87499" lon="12.48871">
        <ele>42.301799</ele>
        <time>2020-08-14T07:17:48.384Z</time>
      </trkpt>
      <trkpt lat="65.87506" lon="12.48892">
        <ele>42.256228</ele>
        <time>2020-08-14T07:17:50.343Z</time>
      </trkpt>
      <trkpt lat="65.87512" lon="12.48913">
        <ele>42.211438</ele>
        <time>2020-08-14T07:17:52.355Z</time>
      </trkpt>
      <trkpt lat="65.87519" lon="12.48933">
        <ele>42.167172</ele>
        <time>2020-08-14T07:17:54.374Z</time>
      </trkpt>
      <trkpt lat="65.87526" lon="12.48955">
        <ele>42.121334</ele>
        <time>2020-08-14T07:17:56.349Z</time>
      </trkpt>
      <trkpt lat="65.87532" lon="12.48976">
        <ele>42.076005</ele>
        <time>2020-08-14T07:17:58.376Z</time>
      </trkpt>
      <trkpt lat="65.87539" lon="12.48997">
        <ele>42.030692</ele>
        <time>2020-08-14T07:18:00.327Z</time>
      </trkpt>
      <trkpt lat="65.87546" lon="12.49017">
        <ele>41.98552</ele>
        <time>2020-08-14T07:18:02.331Z</time>
      </trkpt>
      <trkpt lat="65.87552" lon="12.49039">
        <ele>41.940691</ele>
        <time>2020-08-14T07:18:04.351Z</time>
      </trkpt>
      <trkpt lat="65.87558" lon="12.49059">
        <ele>41.897065</ele>
        <time>2020-08-14T07:18:06.391Z</time>
      </trkpt>
      <trkpt lat="65.87565" lon="12.49079">
        <ele>41.852816</ele>
        <time>2020-08-14T07:18:08.365Z</time>
      </trkpt>
      <trkpt lat="65.87572" lon="12.49099">
        <ele>41.808963</ele>
        <time>2020-08-14T07:18:10.328Z</time>
      </trkpt>
      <trkpt lat="65.87578" lon="12.49119">
        <ele>41.765234</ele>
        <time>2020-08-14T07:18:12.365Z</time>
      </trkpt>
      <trkpt lat="65.87585" lon="12.4914">
        <ele>41.721762</ele>
        <time>2020-08-14T07:18:14.339Z</time>
      </trkpt>
      <trkpt lat="65.87591" lon="12.49159">
        <ele>41.67935</ele>
        <time>2020-08-14T07:18:16.378Z</time>
      </trkpt>
      <trkpt lat="65.87597" lon="12.49179">
        <ele>41.779909</ele>
        <time>2020-08-14T07:18:18.353Z</time>
      </trkpt>
      <trkpt lat="65.87603" lon="12.49198">
        <ele>41.90083</ele>
        <time>2020-08-14T07:18:20.347Z</time>
      </trkpt>
      <trkpt lat="65.8761" lon="12.49217">
        <ele>42.02129</ele>
        <time>2020-08-14T07:18:22.364Z</time>
      </trkpt>
      <trkpt lat="65.87616" lon="12.49237">
        <ele>42.143648</ele>
        <time>2020-08-14T07:18:24.348Z</time>
      </trkpt>
      <trkpt lat="65.87622" lon="12.49257">
        <ele>42.263928</ele>
        <time>2020-08-14T07:18:26.336Z</time>
      </trkpt>
      <trkpt lat="65.87628" lon="12.49277">
        <ele>42.386807</ele>
        <time>2020-08-14T07:18:28.350Z</time>
      </trkpt>
      <trkpt lat="65.87634" lon="12.49296">
        <ele>42.504405</ele>
        <time>2020-08-14T07:18:30.356Z</time>
      </trkpt>
      <trkpt lat="65.87639" lon="12.49317">
        <ele>42.62182</ele>
        <time>2020-08-14T07:18:32.335Z</time>
      </trkpt>
      <trkpt lat="65.87644" lon="12.49337">
        <ele>42.738205</ele>
        <time>2020-08-14T07:18:34.372Z</time>
      </trkpt>
      <trkpt lat="65.87649" lon="12.49358">
        <ele>42.855662</ele>
        <time>2020-08-14T07:18:36.341Z</time>
      </trkpt>
      <trkpt lat="65.87654" lon="12.49378">
        <ele>42.968795</ele>
        <time>2020-08-14T07:18:38.376Z</time>
      </trkpt>
      <trkpt lat="65.87658" lon="12.49398">
        <ele>43.08178</ele>
        <time>2020-08-14T07:18:40.369Z</time>
      </trkpt>
      <trkpt lat="65.87663" lon="12.49418">
        <ele>43.193335</ele>
        <time>2020-08-14T07:18:42.330Z</time>
      </trkpt>
      <trkpt lat="65.87667" lon="12.49439">
        <ele>43.305322</ele>
        <time>2020-08-14T07:18:44.343Z</time>
      </trkpt>
      <trkpt lat="65.87672" lon="12.49459">
        <ele>43.419739</ele>
        <time>2020-08-14T07:18:46.344Z</time>
      </trkpt>
      <trkpt lat="65.87676" lon="12.4948">
        <ele>43.538895</ele>
        <time>2020-08-14T07:18:48.358Z</time>
      </trkpt>
      <trkpt lat="65.87681" lon="12.49501">
        <ele>43.656185</ele>
        <time>2020-08-14T07:18:50.352Z</time>
      </trkpt>
      <trkpt lat="65.87686" lon="12.49522">
        <ele>43.771536</ele>
        <time>2020-08-14T07:18:52.341Z</time>
      </trkpt>
      <trkpt lat="65.87691" lon="12.49543">
        <ele>43.833211</ele>
        <time>2020-08-14T07:18:54.342Z</time>
      </trkpt>
      <trkpt lat="65.87696" lon="12.49564">
        <ele>43.844605</ele>
        <time>2020-08-14T07:18:56.350Z</time>
      </trkpt>
      <trkpt lat="65.87701" lon="12.49584">
        <ele>43.855639</ele>
        <time>2020-08-14T07:18:58.383Z</time>
      </trkpt>
      <trkpt lat="65.87706" lon="12.49603">
        <ele>43.866316</ele>
        <time>2020-08-14T07:19:00.354Z</time>
      </trkpt>
      <trkpt lat="65.87711" lon="12.49622">
        <ele>43.877096</ele>
        <time>2020-08-14T07:19:02.352Z</time>
      </trkpt>
      <trkpt lat="65.87716" lon="12.49642">
        <ele>43.887809</ele>
        <time>2020-08-14T07:19:04.353Z</time>
      </trkpt>
      <trkpt lat="65.87721" lon="12.4966">
        <ele>43.898305</ele>
        <time>2020-08-14T07:19:06.340Z</time>
      </trkpt>
      <trkpt lat="65.87726" lon="12.49679">
        <ele>43.909061</ele>
        <time>2020-08-14T07:19:08.355Z</time>
      </trkpt>
      <trkpt lat="65.87731" lon="12.49698">
        <ele>43.919817</ele>
        <time>2020-08-14T07:19:10.351Z</time>
      </trkpt>
      <trkpt lat="65.87736" lon="12.49718">
        <ele>43.930469</ele>
        <time>2020-08-14T07:19:12.353Z</time>
      </trkpt>
      <trkpt lat="65.87741" lon="12.49737">
        <ele>43.941045</ele>
        <time>2020-08-14T07:19:14.351Z</time>
      </trkpt>
      <trkpt lat="65.87745" lon="12.49757">
        <ele>43.951605</ele>
        <time>2020-08-14T07:19:16.333Z</time>
      </trkpt>
      <trkpt lat="65.8775" lon="12.49776">
        <ele>43.962109</ele>
        <time>2020-08-14T07:19:18.379Z</time>
      </trkpt>
      <trkpt lat="65.87756" lon="12.49805">
        <ele>43.977304</ele>
        <time>2020-08-14T07:19:21.336Z</time>
      </trkpt>
      <trkpt lat="65.8776" lon="12.49825">
        <ele>43.987763</ele>
        <time>2020-08-14T07:19:23.383Z</time>
      </trkpt>
      <trkpt lat="65.87764" lon="12.49845">
        <ele>43.998322</ele>
        <time>2020-08-14T07:19:25.373Z</time>
      </trkpt>
      <trkpt lat="65.87771" lon="12.49873">
        <ele>44.013505</ele>
        <time>2020-08-14T07:19:28.365Z</time>
      </trkpt>
      <trkpt lat="65.87778" lon="12.49901">
        <ele>44.028867</ele>
        <time>2020-08-14T07:19:31.380Z</time>
      </trkpt>
      <trkpt lat="65.87784" lon="12.49929">
        <ele>43.959505</ele>
        <time>2020-08-14T07:19:34.351Z</time>
      </trkpt>
      <trkpt lat="65.8779" lon="12.49958">
        <ele>43.847655</ele>
        <time>2020-08-14T07:19:37.357Z</time>
      </trkpt>
      <trkpt lat="65.87795" lon="12.49977">
        <ele>43.771324</ele>
        <time>2020-08-14T07:19:39.383Z</time>
      </trkpt>
      <trkpt lat="65.87802" lon="12.50005">
        <ele>43.657556</ele>
        <time>2020-08-14T07:19:42.340Z</time>
      </trkpt>
      <trkpt lat="65.87808" lon="12.50024">
        <ele>43.579293</ele>
        <time>2020-08-14T07:19:44.361Z</time>
      </trkpt>
      <trkpt lat="65.87813" lon="12.50043">
        <ele>43.499343</ele>
        <time>2020-08-14T07:19:46.351Z</time>
      </trkpt>
      <trkpt lat="65.87819" lon="12.50061">
        <ele>43.420648</ele>
        <time>2020-08-14T07:19:48.352Z</time>
      </trkpt>
      <trkpt lat="65.87824" lon="12.5008">
        <ele>43.341896</ele>
        <time>2020-08-14T07:19:50.340Z</time>
      </trkpt>
      <trkpt lat="65.87829" lon="12.50099">
        <ele>43.262228</ele>
        <time>2020-08-14T07:19:52.350Z</time>
      </trkpt>
      <trkpt lat="65.87835" lon="12.50117">
        <ele>43.185174</ele>
        <time>2020-08-14T07:19:54.353Z</time>
      </trkpt>
      <trkpt lat="65.87841" lon="12.50135">
        <ele>43.106792</ele>
        <time>2020-08-14T07:19:56.336Z</time>
      </trkpt>
      <trkpt lat="65.87846" lon="12.50153">
        <ele>43.030198</ele>
        <time>2020-08-14T07:19:58.336Z</time>
      </trkpt>
      <trkpt lat="65.87852" lon="12.50171">
        <ele>42.952359</ele>
        <time>2020-08-14T07:20:00.346Z</time>
      </trkpt>
      <trkpt lat="65.87858" lon="12.50189">
        <ele>42.874009</ele>
        <time>2020-08-14T07:20:02.347Z</time>
      </trkpt>
      <trkpt lat="65.87864" lon="12.50206">
        <ele>42.793496</ele>
        <time>2020-08-14T07:20:04.335Z</time>
      </trkpt>
      <trkpt lat="65.87871" lon="12.50224">
        <ele>42.710739</ele>
        <time>2020-08-14T07:20:06.373Z</time>
      </trkpt>
      <trkpt lat="65.87877" lon="12.50241">
        <ele>42.63105</ele>
        <time>2020-08-14T07:20:08.343Z</time>
      </trkpt>
      <trkpt lat="65.87885" lon="12.50258">
        <ele>42.545386</ele>
        <time>2020-08-14T07:20:10.352Z</time>
      </trkpt>
      <trkpt lat="65.87892" lon="12.50275">
        <ele>42.523297</ele>
        <time>2020-08-14T07:20:12.339Z</time>
      </trkpt>
      <trkpt lat="65.87899" lon="12.50292">
        <ele>42.522095</ele>
        <time>2020-08-14T07:20:14.346Z</time>
      </trkpt>
      <trkpt lat="65.87906" lon="12.50308">
        <ele>42.520883</ele>
        <time>2020-08-14T07:20:16.343Z</time>
      </trkpt>
      <trkpt lat="65.87913" lon="12.50325">
        <ele>42.519672</ele>
        <time>2020-08-14T07:20:18.351Z</time>
      </trkpt>
      <trkpt lat="65.8792" lon="12.50341">
        <ele>42.51845</ele>
        <time>2020-08-14T07:20:20.331Z</time>
      </trkpt>
      <trkpt lat="65.87927" lon="12.50357">
        <ele>42.517253</ele>
        <time>2020-08-14T07:20:22.368Z</time>
      </trkpt>
      <trkpt lat="65.87934" lon="12.50373">
        <ele>42.516035</ele>
        <time>2020-08-14T07:20:24.351Z</time>
      </trkpt>
      <trkpt lat="65.87942" lon="12.50389">
        <ele>42.514756</ele>
        <time>2020-08-14T07:20:26.342Z</time>
      </trkpt>
      <trkpt lat="65.8795" lon="12.50405">
        <ele>42.513503</ele>
        <time>2020-08-14T07:20:28.369Z</time>
      </trkpt>
      <trkpt lat="65.87958" lon="12.5042">
        <ele>42.512225</ele>
        <time>2020-08-14T07:20:30.347Z</time>
      </trkpt>
      <trkpt lat="65.87966" lon="12.50436">
        <ele>42.510976</ele>
        <time>2020-08-14T07:20:32.382Z</time>
      </trkpt>
      <trkpt lat="65.87974" lon="12.50451">
        <ele>42.5097</ele>
        <time>2020-08-14T07:20:34.345Z</time>
      </trkpt>
      <trkpt lat="65.87982" lon="12.50466">
        <ele>42.508434</ele>
        <time>2020-08-14T07:20:36.341Z</time>
      </trkpt>
      <trkpt lat="65.8799" lon="12.50481">
        <ele>42.507147</ele>
        <time>2020-08-14T07:20:38.358Z</time>
      </trkpt>
      <trkpt lat="65.87999" lon="12.50495">
        <ele>42.505886</ele>
        <time>2020-08-14T07:20:40.348Z</time>
      </trkpt>
      <trkpt lat="65.88007" lon="12.50509">
        <ele>42.504629</ele>
        <time>2020-08-14T07:20:42.335Z</time>
      </trkpt>
      <trkpt lat="65.88015" lon="12.50522">
        <ele>42.503397</ele>
        <time>2020-08-14T07:20:44.370Z</time>
      </trkpt>
      <trkpt lat="65.88023" lon="12.50535">
        <ele>42.50218</ele>
        <time>2020-08-14T07:20:46.344Z</time>
      </trkpt>
      <trkpt lat="65.88031" lon="12.50548">
        <ele>42.589837</ele>
        <time>2020-08-14T07:20:48.331Z</time>
      </trkpt>
      <trkpt lat="65.88042" lon="12.50566">
        <ele>42.774374</ele>
        <time>2020-08-14T07:20:51.387Z</time>
      </trkpt>
      <trkpt lat="65.88053" lon="12.50585">
        <ele>42.961659</ele>
        <time>2020-08-14T07:20:54.331Z</time>
      </trkpt>
      <trkpt lat="65.88064" lon="12.50603">
        <ele>43.145208</ele>
        <time>2020-08-14T07:20:57.348Z</time>
      </trkpt>
      <trkpt lat="65.88071" lon="12.50617">
        <ele>43.270022</ele>
        <time>2020-08-14T07:20:59.343Z</time>
      </trkpt>
      <trkpt lat="65.88079" lon="12.5063">
        <ele>43.40127</ele>
        <time>2020-08-14T07:21:01.343Z</time>
      </trkpt>
      <trkpt lat="65.88087" lon="12.50643">
        <ele>43.536284</ele>
        <time>2020-08-14T07:21:03.368Z</time>
      </trkpt>
      <trkpt lat="65.88095" lon="12.50656">
        <ele>43.668046</ele>
        <time>2020-08-14T07:21:05.357Z</time>
      </trkpt>
      <trkpt lat="65.88103" lon="12.50669">
        <ele>43.801591</ele>
        <time>2020-08-14T07:21:07.346Z</time>
      </trkpt>
      <trkpt lat="65.88111" lon="12.50682">
        <ele>43.930235</ele>
        <time>2020-08-14T07:21:09.347Z</time>
      </trkpt>
      <trkpt lat="65.88118" lon="12.50696">
        <ele>44.061193</ele>
        <time>2020-08-14T07:21:11.338Z</time>
      </trkpt>
      <trkpt lat="65.88127" lon="12.5071">
        <ele>44.200727</ele>
        <time>2020-08-14T07:21:13.382Z</time>
      </trkpt>
      <trkpt lat="65.88134" lon="12.50721">
        <ele>44.325877</ele>
        <time>2020-08-14T07:21:15.344Z</time>
      </trkpt>
      <trkpt lat="65.88145" lon="12.50739">
        <ele>44.509373</ele>
        <time>2020-08-14T07:21:18.376Z</time>
      </trkpt>
      <trkpt lat="65.88153" lon="12.5075">
        <ele>44.633075</ele>
        <time>2020-08-14T07:21:20.338Z</time>
      </trkpt>
      <trkpt lat="65.88164" lon="12.50768">
        <ele>44.818905</ele>
        <time>2020-08-14T07:21:23.369Z</time>
      </trkpt>
      <trkpt lat="65.88175" lon="12.50786">
        <ele>45.003034</ele>
        <time>2020-08-14T07:21:26.338Z</time>
      </trkpt>
      <trkpt lat="65.88186" lon="12.50802">
        <ele>45.209062</ele>
        <time>2020-08-14T07:21:29.364Z</time>
      </trkpt>
      <trkpt lat="65.88196" lon="12.50817">
        <ele>45.410158</ele>
        <time>2020-08-14T07:21:32.353Z</time>
      </trkpt>
      <trkpt lat="65.88206" lon="12.50833">
        <ele>45.603894</ele>
        <time>2020-08-14T07:21:35.345Z</time>
      </trkpt>
      <trkpt lat="65.88216" lon="12.50847">
        <ele>45.795776</ele>
        <time>2020-08-14T07:21:38.361Z</time>
      </trkpt>
      <trkpt lat="65.88225" lon="12.50861">
        <ele>45.972137</ele>
        <time>2020-08-14T07:21:41.343Z</time>
      </trkpt>
      <trkpt lat="65.88236" lon="12.5088">
        <ele>46.193326</ele>
        <time>2020-08-14T07:21:44.338Z</time>
      </trkpt>
      <trkpt lat="65.88244" lon="12.50893">
        <ele>46.348435</ele>
        <time>2020-08-14T07:21:46.345Z</time>
      </trkpt>
      <trkpt lat="65.88251" lon="12.50906">
        <ele>46.503019</ele>
        <time>2020-08-14T07:21:48.344Z</time>
      </trkpt>
      <trkpt lat="65.8826" lon="12.50919">
        <ele>46.667112</ele>
        <time>2020-08-14T07:21:50.355Z</time>
      </trkpt>
      <trkpt lat="65.88268" lon="12.50932">
        <ele>46.830097</ele>
        <time>2020-08-14T07:21:52.338Z</time>
      </trkpt>
      <trkpt lat="65.88277" lon="12.50945">
        <ele>46.999764</ele>
        <time>2020-08-14T07:21:54.368Z</time>
      </trkpt>
      <trkpt lat="65.88285" lon="12.50959">
        <ele>47.172498</ele>
        <time>2020-08-14T07:21:56.344Z</time>
      </trkpt>
      <trkpt lat="65.88294" lon="12.50973">
        <ele>47.343978</ele>
        <time>2020-08-14T07:21:58.338Z</time>
      </trkpt>
      <trkpt lat="65.88302" lon="12.50986">
        <ele>47.502438</ele>
        <time>2020-08-14T07:22:00.358Z</time>
      </trkpt>
      <trkpt lat="65.8831" lon="12.51">
        <ele>47.663369</ele>
        <time>2020-08-14T07:22:02.358Z</time>
      </trkpt>
      <trkpt lat="65.88318" lon="12.51014">
        <ele>47.823358</ele>
        <time>2020-08-14T07:22:04.330Z</time>
      </trkpt>
      <trkpt lat="65.88325" lon="12.51028">
        <ele>47.969084</ele>
        <time>2020-08-14T07:22:06.338Z</time>
      </trkpt>
      <trkpt lat="65.88333" lon="12.51041">
        <ele>47.899097</ele>
        <time>2020-08-14T07:22:08.351Z</time>
      </trkpt>
      <trkpt lat="65.88341" lon="12.51054">
        <ele>47.828754</ele>
        <time>2020-08-14T07:22:10.361Z</time>
      </trkpt>
      <trkpt lat="65.88348" lon="12.51067">
        <ele>47.756553</ele>
        <time>2020-08-14T07:22:12.338Z</time>
      </trkpt>
      <trkpt lat="65.88356" lon="12.5108">
        <ele>47.684352</ele>
        <time>2020-08-14T07:22:14.342Z</time>
      </trkpt>
      <trkpt lat="65.88364" lon="12.51094">
        <ele>47.612325</ele>
        <time>2020-08-14T07:22:16.358Z</time>
      </trkpt>
      <trkpt lat="65.88372" lon="12.51106">
        <ele>47.542514</ele>
        <time>2020-08-14T07:22:18.391Z</time>
      </trkpt>
      <trkpt lat="65.8838" lon="12.5112">
        <ele>47.470759</ele>
        <time>2020-08-14T07:22:20.335Z</time>
      </trkpt>
      <trkpt lat="65.88388" lon="12.51132">
        <ele>47.397841</ele>
        <time>2020-08-14T07:22:22.364Z</time>
      </trkpt>
      <trkpt lat="65.88396" lon="12.51145">
        <ele>47.325086</ele>
        <time>2020-08-14T07:22:24.370Z</time>
      </trkpt>
      <trkpt lat="65.88404" lon="12.51158">
        <ele>47.25007</ele>
        <time>2020-08-14T07:22:26.361Z</time>
      </trkpt>
      <trkpt lat="65.88413" lon="12.5117">
        <ele>47.176185</ele>
        <time>2020-08-14T07:22:28.343Z</time>
      </trkpt>
      <trkpt lat="65.88421" lon="12.51182">
        <ele>47.107293</ele>
        <time>2020-08-14T07:22:30.386Z</time>
      </trkpt>
      <trkpt lat="65.88429" lon="12.51193">
        <ele>47.038071</ele>
        <time>2020-08-14T07:22:32.329Z</time>
      </trkpt>
      <trkpt lat="65.88437" lon="12.51204">
        <ele>46.9683</ele>
        <time>2020-08-14T07:22:34.337Z</time>
      </trkpt>
      <trkpt lat="65.88445" lon="12.51214">
        <ele>46.900213</ele>
        <time>2020-08-14T07:22:36.356Z</time>
      </trkpt>
      <trkpt lat="65.88453" lon="12.51224">
        <ele>46.831839</ele>
        <time>2020-08-14T07:22:38.371Z</time>
      </trkpt>
      <trkpt lat="65.88461" lon="12.51234">
        <ele>46.762547</ele>
        <time>2020-08-14T07:22:40.330Z</time>
      </trkpt>
      <trkpt lat="65.8847" lon="12.51243">
        <ele>46.690074</ele>
        <time>2020-08-14T07:22:42.336Z</time>
      </trkpt>
      <trkpt lat="65.88479" lon="12.51253">
        <ele>46.615399</ele>
        <time>2020-08-14T07:22:44.334Z</time>
      </trkpt>
      <trkpt lat="65.88488" lon="12.51262">
        <ele>46.438816</ele>
        <time>2020-08-14T07:22:46.342Z</time>
      </trkpt>
      <trkpt lat="65.88498" lon="12.51271">
        <ele>46.250389</ele>
        <time>2020-08-14T07:22:48.351Z</time>
      </trkpt>
      <trkpt lat="65.88509" lon="12.5128">
        <ele>46.057699</ele>
        <time>2020-08-14T07:22:50.398Z</time>
      </trkpt>
      <trkpt lat="65.88519" lon="12.51287">
        <ele>45.8655</ele>
        <time>2020-08-14T07:22:52.340Z</time>
      </trkpt>
      <trkpt lat="65.8853" lon="12.51293">
        <ele>45.672815</ele>
        <time>2020-08-14T07:22:54.435Z</time>
      </trkpt>
      <trkpt lat="65.88541" lon="12.51299">
        <ele>45.479467</ele>
        <time>2020-08-14T07:22:56.341Z</time>
      </trkpt>
      <trkpt lat="65.88552" lon="12.51303">
        <ele>45.283704</ele>
        <time>2020-08-14T07:22:58.339Z</time>
      </trkpt>
      <trkpt lat="65.88563" lon="12.51308">
        <ele>45.087317</ele>
        <time>2020-08-14T07:23:00.371Z</time>
      </trkpt>
      <trkpt lat="65.88574" lon="12.51313">
        <ele>44.888665</ele>
        <time>2020-08-14T07:23:02.350Z</time>
      </trkpt>
      <trkpt lat="65.88585" lon="12.51318">
        <ele>44.696118</ele>
        <time>2020-08-14T07:23:04.350Z</time>
      </trkpt>
      <trkpt lat="65.88595" lon="12.51324">
        <ele>44.507174</ele>
        <time>2020-08-14T07:23:06.335Z</time>
      </trkpt>
      <trkpt lat="65.88606" lon="12.51329">
        <ele>44.319546</ele>
        <time>2020-08-14T07:23:08.351Z</time>
      </trkpt>
      <trkpt lat="65.88616" lon="12.51333">
        <ele>44.127244</ele>
        <time>2020-08-14T07:23:10.369Z</time>
      </trkpt>
      <trkpt lat="65.88627" lon="12.51338">
        <ele>43.932714</ele>
        <time>2020-08-14T07:23:12.352Z</time>
      </trkpt>
      <trkpt lat="65.88638" lon="12.51344">
        <ele>43.737645</ele>
        <time>2020-08-14T07:23:14.362Z</time>
      </trkpt>
      <trkpt lat="65.8865" lon="12.5135">
        <ele>43.534372</ele>
        <time>2020-08-14T07:23:16.360Z</time>
      </trkpt>
      <trkpt lat="65.88661" lon="12.51356">
        <ele>43.457374</ele>
        <time>2020-08-14T07:23:18.355Z</time>
      </trkpt>
      <trkpt lat="65.88672" lon="12.51362">
        <ele>43.457395</ele>
        <time>2020-08-14T07:23:20.338Z</time>
      </trkpt>
      <trkpt lat="65.88683" lon="12.51368">
        <ele>43.457415</ele>
        <time>2020-08-14T07:23:22.344Z</time>
      </trkpt>
      <trkpt lat="65.88694" lon="12.51377">
        <ele>43.457435</ele>
        <time>2020-08-14T07:23:24.371Z</time>
      </trkpt>
      <trkpt lat="65.88704" lon="12.51386">
        <ele>43.457455</ele>
        <time>2020-08-14T07:23:26.355Z</time>
      </trkpt>
      <trkpt lat="65.88714" lon="12.51394">
        <ele>43.457474</ele>
        <time>2020-08-14T07:23:28.346Z</time>
      </trkpt>
      <trkpt lat="65.88723" lon="12.51402">
        <ele>43.457492</ele>
        <time>2020-08-14T07:23:30.338Z</time>
      </trkpt>
      <trkpt lat="65.88732" lon="12.51411">
        <ele>43.457509</ele>
        <time>2020-08-14T07:23:32.353Z</time>
      </trkpt>
      <trkpt lat="65.8874" lon="12.51421">
        <ele>43.457526</ele>
        <time>2020-08-14T07:23:34.351Z</time>
      </trkpt>
      <trkpt lat="65.88748" lon="12.51431">
        <ele>43.457542</ele>
        <time>2020-08-14T07:23:36.360Z</time>
      </trkpt>
      <trkpt lat="65.88756" lon="12.51442">
        <ele>43.457559</ele>
        <time>2020-08-14T07:23:38.334Z</time>
      </trkpt>
      <trkpt lat="65.88765" lon="12.51453">
        <ele>43.457576</ele>
        <time>2020-08-14T07:23:40.353Z</time>
      </trkpt>
      <trkpt lat="65.88773" lon="12.51463">
        <ele>43.457592</ele>
        <time>2020-08-14T07:23:42.367Z</time>
      </trkpt>
      <trkpt lat="65.88784" lon="12.51482">
        <ele>43.457617</ele>
        <time>2020-08-14T07:23:45.369Z</time>
      </trkpt>
      <trkpt lat="65.88791" lon="12.51494">
        <ele>43.457633</ele>
        <time>2020-08-14T07:23:47.355Z</time>
      </trkpt>
      <trkpt lat="65.88799" lon="12.51507">
        <ele>43.45765</ele>
        <time>2020-08-14T07:23:49.336Z</time>
      </trkpt>
      <trkpt lat="65.8881" lon="12.51526">
        <ele>43.457674</ele>
        <time>2020-08-14T07:23:52.352Z</time>
      </trkpt>
      <trkpt lat="65.8882" lon="12.51546">
        <ele>43.404516</ele>
        <time>2020-08-14T07:23:55.353Z</time>
      </trkpt>
      <trkpt lat="65.8883" lon="12.51566">
        <ele>43.295362</ele>
        <time>2020-08-14T07:23:58.336Z</time>
      </trkpt>
      <trkpt lat="65.8884" lon="12.51586">
        <ele>43.186892</ele>
        <time>2020-08-14T07:24:01.346Z</time>
      </trkpt>
      <trkpt lat="65.8885" lon="12.51606">
        <ele>43.080557</ele>
        <time>2020-08-14T07:24:04.394Z</time>
      </trkpt>
      <trkpt lat="65.8886" lon="12.51626">
        <ele>42.970336</ele>
        <time>2020-08-14T07:24:07.332Z</time>
      </trkpt>
      <trkpt lat="65.8887" lon="12.51646">
        <ele>42.863609</ele>
        <time>2020-08-14T07:24:10.357Z</time>
      </trkpt>
      <trkpt lat="65.88879" lon="12.51666">
        <ele>42.757854</ele>
        <time>2020-08-14T07:24:13.357Z</time>
      </trkpt>
      <trkpt lat="65.88888" lon="12.51687">
        <ele>42.648829</ele>
        <time>2020-08-14T07:24:16.353Z</time>
      </trkpt>
      <trkpt lat="65.88898" lon="12.51709">
        <ele>42.535673</ele>
        <time>2020-08-14T07:24:19.345Z</time>
      </trkpt>
      <trkpt lat="65.88905" lon="12.51724">
        <ele>42.458861</ele>
        <time>2020-08-14T07:24:21.343Z</time>
      </trkpt>
      <trkpt lat="65.88912" lon="12.5174">
        <ele>42.380345</ele>
        <time>2020-08-14T07:24:23.352Z</time>
      </trkpt>
      <trkpt lat="65.88919" lon="12.51756">
        <ele>42.300402</ele>
        <time>2020-08-14T07:24:25.360Z</time>
      </trkpt>
      <trkpt lat="65.88925" lon="12.51772">
        <ele>42.22177</ele>
        <time>2020-08-14T07:24:27.352Z</time>
      </trkpt>
      <trkpt lat="65.88932" lon="12.51788">
        <ele>42.14363</ele>
        <time>2020-08-14T07:24:29.339Z</time>
      </trkpt>
      <trkpt lat="65.88938" lon="12.51804">
        <ele>42.064775</ele>
        <time>2020-08-14T07:24:31.352Z</time>
      </trkpt>
      <trkpt lat="65.88945" lon="12.51821">
        <ele>41.981208</ele>
        <time>2020-08-14T07:24:33.330Z</time>
      </trkpt>
      <trkpt lat="65.88952" lon="12.51838">
        <ele>41.938394</ele>
        <time>2020-08-14T07:24:35.335Z</time>
      </trkpt>
      <trkpt lat="65.88959" lon="12.51855">
        <ele>41.939669</ele>
        <time>2020-08-14T07:24:37.351Z</time>
      </trkpt>
      <trkpt lat="65.88966" lon="12.51871">
        <ele>41.94093</ele>
        <time>2020-08-14T07:24:39.350Z</time>
      </trkpt>
      <trkpt lat="65.88972" lon="12.51889">
        <ele>41.942213</ele>
        <time>2020-08-14T07:24:41.344Z</time>
      </trkpt>
      <trkpt lat="65.88979" lon="12.51907">
        <ele>41.943486</ele>
        <time>2020-08-14T07:24:43.343Z</time>
      </trkpt>
      <trkpt lat="65.88984" lon="12.51925">
        <ele>41.944735</ele>
        <time>2020-08-14T07:24:45.354Z</time>
      </trkpt>
      <trkpt lat="65.8899" lon="12.51943">
        <ele>41.945975</ele>
        <time>2020-08-14T07:24:47.347Z</time>
      </trkpt>
      <trkpt lat="65.88996" lon="12.51962">
        <ele>41.947232</ele>
        <time>2020-08-14T07:24:49.361Z</time>
      </trkpt>
      <trkpt lat="65.89002" lon="12.51982">
        <ele>41.948562</ele>
        <time>2020-08-14T07:24:51.356Z</time>
      </trkpt>
      <trkpt lat="65.89008" lon="12.52001">
        <ele>41.949872</ele>
        <time>2020-08-14T07:24:53.335Z</time>
      </trkpt>
      <trkpt lat="65.89013" lon="12.52021">
        <ele>41.95114</ele>
        <time>2020-08-14T07:24:55.368Z</time>
      </trkpt>
      <trkpt lat="65.89019" lon="12.5204">
        <ele>41.952442</ele>
        <time>2020-08-14T07:24:57.347Z</time>
      </trkpt>
      <trkpt lat="65.89024" lon="12.52059">
        <ele>41.953708</ele>
        <time>2020-08-14T07:24:59.337Z</time>
      </trkpt>
      <trkpt lat="65.8903" lon="12.52079">
        <ele>41.954974</ele>
        <time>2020-08-14T07:25:01.346Z</time>
      </trkpt>
      <trkpt lat="65.89035" lon="12.52097">
        <ele>41.956222</ele>
        <time>2020-08-14T07:25:03.333Z</time>
      </trkpt>
      <trkpt lat="65.8904" lon="12.52116">
        <ele>41.957447</ele>
        <time>2020-08-14T07:25:05.350Z</time>
      </trkpt>
      <trkpt lat="65.89045" lon="12.52135">
        <ele>41.958637</ele>
        <time>2020-08-14T07:25:07.332Z</time>
      </trkpt>
      <trkpt lat="65.8905" lon="12.52153">
        <ele>41.95983</ele>
        <time>2020-08-14T07:25:09.390Z</time>
      </trkpt>
      <trkpt lat="65.89056" lon="12.52172">
        <ele>41.961072</ele>
        <time>2020-08-14T07:25:11.349Z</time>
      </trkpt>
      <trkpt lat="65.89062" lon="12.5219">
        <ele>42.00833</ele>
        <time>2020-08-14T07:25:13.340Z</time>
      </trkpt>
      <trkpt lat="65.89067" lon="12.52208">
        <ele>42.082515</ele>
        <time>2020-08-14T07:25:15.390Z</time>
      </trkpt>
      <trkpt lat="65.89073" lon="12.52227">
        <ele>42.158492</ele>
        <time>2020-08-14T07:25:17.334Z</time>
      </trkpt>
      <trkpt lat="65.89079" lon="12.52245">
        <ele>42.234177</ele>
        <time>2020-08-14T07:25:19.337Z</time>
      </trkpt>
      <trkpt lat="65.89084" lon="12.52263">
        <ele>42.308404</ele>
        <time>2020-08-14T07:25:21.335Z</time>
      </trkpt>
      <trkpt lat="65.8909" lon="12.52281">
        <ele>42.382896</ele>
        <time>2020-08-14T07:25:23.339Z</time>
      </trkpt>
      <trkpt lat="65.89095" lon="12.523">
        <ele>42.457865</ele>
        <time>2020-08-14T07:25:25.336Z</time>
      </trkpt>
      <trkpt lat="65.89101" lon="12.52318">
        <ele>42.531953</ele>
        <time>2020-08-14T07:25:27.381Z</time>
      </trkpt>
      <trkpt lat="65.89106" lon="12.52337">
        <ele>42.604858</ele>
        <time>2020-08-14T07:25:29.351Z</time>
      </trkpt>
      <trkpt lat="65.89113" lon="12.52363">
        <ele>42.710028</ele>
        <time>2020-08-14T07:25:32.355Z</time>
      </trkpt>
      <trkpt lat="65.89121" lon="12.52391">
        <ele>42.817806</ele>
        <time>2020-08-14T07:25:35.355Z</time>
      </trkpt>
      <trkpt lat="65.89126" lon="12.52409">
        <ele>42.891769</ele>
        <time>2020-08-14T07:25:37.338Z</time>
      </trkpt>
      <trkpt lat="65.89132" lon="12.52427">
        <ele>42.966789</ele>
        <time>2020-08-14T07:25:39.350Z</time>
      </trkpt>
      <trkpt lat="65.89137" lon="12.52445">
        <ele>43.039934</ele>
        <time>2020-08-14T07:25:41.356Z</time>
      </trkpt>
      <trkpt lat="65.89143" lon="12.52462">
        <ele>43.112049</ele>
        <time>2020-08-14T07:25:43.358Z</time>
      </trkpt>
      <trkpt lat="65.89148" lon="12.5248">
        <ele>43.185226</ele>
        <time>2020-08-14T07:25:45.373Z</time>
      </trkpt>
      <trkpt lat="65.89154" lon="12.52498">
        <ele>43.261144</ele>
        <time>2020-08-14T07:25:47.376Z</time>
      </trkpt>
      <trkpt lat="65.8916" lon="12.52516">
        <ele>43.337324</ele>
        <time>2020-08-14T07:25:49.338Z</time>
      </trkpt>
      <trkpt lat="65.89166" lon="12.52535">
        <ele>43.396059</ele>
        <time>2020-08-14T07:25:51.363Z</time>
      </trkpt>
      <trkpt lat="65.89173" lon="12.52554">
        <ele>43.330742</ele>
        <time>2020-08-14T07:25:53.354Z</time>
      </trkpt>
      <trkpt lat="65.89179" lon="12.52574">
        <ele>43.265551</ele>
        <time>2020-08-14T07:25:55.369Z</time>
      </trkpt>
      <trkpt lat="65.89185" lon="12.52596">
        <ele>43.196251</ele>
        <time>2020-08-14T07:25:57.343Z</time>
      </trkpt>
      <trkpt lat="65.89191" lon="12.52616">
        <ele>43.132027</ele>
        <time>2020-08-14T07:25:59.353Z</time>
      </trkpt>
      <trkpt lat="65.89196" lon="12.52636">
        <ele>43.067744</ele>
        <time>2020-08-14T07:26:01.355Z</time>
      </trkpt>
      <trkpt lat="65.89202" lon="12.52656">
        <ele>43.003186</ele>
        <time>2020-08-14T07:26:03.355Z</time>
      </trkpt>
      <trkpt lat="65.89208" lon="12.52675">
        <ele>42.938033</ele>
        <time>2020-08-14T07:26:05.367Z</time>
      </trkpt>
      <trkpt lat="65.89215" lon="12.52696">
        <ele>42.870665</ele>
        <time>2020-08-14T07:26:07.361Z</time>
      </trkpt>
      <trkpt lat="65.89222" lon="12.52716">
        <ele>42.801897</ele>
        <time>2020-08-14T07:26:09.334Z</time>
      </trkpt>
      <trkpt lat="65.89228" lon="12.52737">
        <ele>42.732112</ele>
        <time>2020-08-14T07:26:11.353Z</time>
      </trkpt>
      <trkpt lat="65.89235" lon="12.52758">
        <ele>42.663102</ele>
        <time>2020-08-14T07:26:13.346Z</time>
      </trkpt>
      <trkpt lat="65.89242" lon="12.5278">
        <ele>42.590047</ele>
        <time>2020-08-14T07:26:15.374Z</time>
      </trkpt>
      <trkpt lat="65.89249" lon="12.52802">
        <ele>42.514568</ele>
        <time>2020-08-14T07:26:17.334Z</time>
      </trkpt>
      <trkpt lat="65.89257" lon="12.52826">
        <ele>42.436378</ele>
        <time>2020-08-14T07:26:19.351Z</time>
      </trkpt>
      <trkpt lat="65.89264" lon="12.5285">
        <ele>42.357382</ele>
        <time>2020-08-14T07:26:21.340Z</time>
      </trkpt>
      <trkpt lat="65.89272" lon="12.52873">
        <ele>42.277621</ele>
        <time>2020-08-14T07:26:23.353Z</time>
      </trkpt>
      <trkpt lat="65.89279" lon="12.52898">
        <ele>42.231221</ele>
        <time>2020-08-14T07:26:25.332Z</time>
      </trkpt>
      <trkpt lat="65.89286" lon="12.52922">
        <ele>42.20537</ele>
        <time>2020-08-14T07:26:27.342Z</time>
      </trkpt>
      <trkpt lat="65.89293" lon="12.52945">
        <ele>42.179914</ele>
        <time>2020-08-14T07:26:29.329Z</time>
      </trkpt>
      <trkpt lat="65.893" lon="12.52967">
        <ele>42.155712</ele>
        <time>2020-08-14T07:26:31.355Z</time>
      </trkpt>
      <trkpt lat="65.89307" lon="12.5299">
        <ele>42.131206</ele>
        <time>2020-08-14T07:26:33.349Z</time>
      </trkpt>
      <trkpt lat="65.89314" lon="12.53013">
        <ele>42.105963</ele>
        <time>2020-08-14T07:26:35.335Z</time>
      </trkpt>
      <trkpt lat="65.89321" lon="12.53034">
        <ele>42.082037</ele>
        <time>2020-08-14T07:26:37.332Z</time>
      </trkpt>
      <trkpt lat="65.89327" lon="12.53057">
        <ele>42.056959</ele>
        <time>2020-08-14T07:26:39.336Z</time>
      </trkpt>
      <trkpt lat="65.89334" lon="12.5308">
        <ele>42.031882</ele>
        <time>2020-08-14T07:26:41.340Z</time>
      </trkpt>
      <trkpt lat="65.8934" lon="12.53103">
        <ele>42.008042</ele>
        <time>2020-08-14T07:26:43.356Z</time>
      </trkpt>
      <trkpt lat="65.89347" lon="12.53124">
        <ele>41.984728</ele>
        <time>2020-08-14T07:26:45.348Z</time>
      </trkpt>
      <trkpt lat="65.89353" lon="12.53144">
        <ele>41.962478</ele>
        <time>2020-08-14T07:26:47.354Z</time>
      </trkpt>
      <trkpt lat="65.89359" lon="12.53164">
        <ele>41.939916</ele>
        <time>2020-08-14T07:26:49.362Z</time>
      </trkpt>
      <trkpt lat="65.89366" lon="12.53184">
        <ele>41.917083</ele>
        <time>2020-08-14T07:26:51.340Z</time>
      </trkpt>
      <trkpt lat="65.89373" lon="12.53203">
        <ele>41.895333</ele>
        <time>2020-08-14T07:26:53.341Z</time>
      </trkpt>
      <trkpt lat="65.8938" lon="12.53222">
        <ele>41.872826</ele>
        <time>2020-08-14T07:26:55.358Z</time>
      </trkpt>
      <trkpt lat="65.89386" lon="12.5324">
        <ele>41.93402</ele>
        <time>2020-08-14T07:26:57.354Z</time>
      </trkpt>
      <trkpt lat="65.89393" lon="12.53259">
        <ele>42.105377</ele>
        <time>2020-08-14T07:26:59.340Z</time>
      </trkpt>
      <trkpt lat="65.894" lon="12.53278">
        <ele>42.273258</ele>
        <time>2020-08-14T07:27:01.353Z</time>
      </trkpt>
      <trkpt lat="65.89406" lon="12.53295">
        <ele>42.435361</ele>
        <time>2020-08-14T07:27:03.375Z</time>
      </trkpt>
      <trkpt lat="65.89413" lon="12.53312">
        <ele>42.599756</ele>
        <time>2020-08-14T07:27:05.340Z</time>
      </trkpt>
      <trkpt lat="65.8942" lon="12.53327">
        <ele>42.759458</ele>
        <time>2020-08-14T07:27:07.384Z</time>
      </trkpt>
      <trkpt lat="65.89428" lon="12.53342">
        <ele>42.923074</ele>
        <time>2020-08-14T07:27:09.336Z</time>
      </trkpt>
      <trkpt lat="65.89436" lon="12.53357">
        <ele>43.094155</ele>
        <time>2020-08-14T07:27:11.349Z</time>
      </trkpt>
      <trkpt lat="65.89445" lon="12.53372">
        <ele>43.27008</ele>
        <time>2020-08-14T07:27:13.333Z</time>
      </trkpt>
      <trkpt lat="65.89454" lon="12.53386">
        <ele>43.446154</ele>
        <time>2020-08-14T07:27:15.354Z</time>
      </trkpt>
      <trkpt lat="65.89463" lon="12.53399">
        <ele>43.624804</ele>
        <time>2020-08-14T07:27:17.358Z</time>
      </trkpt>
      <trkpt lat="65.89472" lon="12.5341">
        <ele>43.797763</ele>
        <time>2020-08-14T07:27:19.370Z</time>
      </trkpt>
      <trkpt lat="65.89486" lon="12.53427">
        <ele>44.060472</ele>
        <time>2020-08-14T07:27:22.362Z</time>
      </trkpt>
      <trkpt lat="65.89496" lon="12.53438">
        <ele>44.243036</ele>
        <time>2020-08-14T07:27:24.388Z</time>
      </trkpt>
      <trkpt lat="65.89506" lon="12.53449">
        <ele>44.419616</ele>
        <time>2020-08-14T07:27:26.345Z</time>
      </trkpt>
      <trkpt lat="65.89515" lon="12.53459">
        <ele>44.588413</ele>
        <time>2020-08-14T07:27:28.357Z</time>
      </trkpt>
      <trkpt lat="65.89525" lon="12.53468">
        <ele>44.757359</ele>
        <time>2020-08-14T07:27:30.356Z</time>
      </trkpt>
      <trkpt lat="65.89534" lon="12.53477">
        <ele>44.870915</ele>
        <time>2020-08-14T07:27:32.341Z</time>
      </trkpt>
      <trkpt lat="65.89544" lon="12.53485">
        <ele>44.881138</ele>
        <time>2020-08-14T07:27:34.349Z</time>
      </trkpt>
      <trkpt lat="65.89553" lon="12.53493">
        <ele>44.891632</ele>
        <time>2020-08-14T07:27:36.342Z</time>
      </trkpt>
      <trkpt lat="65.89562" lon="12.53503">
        <ele>44.901511</ele>
        <time>2020-08-14T07:27:38.339Z</time>
      </trkpt>
      <trkpt lat="65.89571" lon="12.53512">
        <ele>44.910901</ele>
        <time>2020-08-14T07:27:40.349Z</time>
      </trkpt>
      <trkpt lat="65.8958" lon="12.53521">
        <ele>44.921233</ele>
        <time>2020-08-14T07:27:42.340Z</time>
      </trkpt>
      <trkpt lat="65.8959" lon="12.53531">
        <ele>44.931897</ele>
        <time>2020-08-14T07:27:44.342Z</time>
      </trkpt>
      <trkpt lat="65.896" lon="12.53541">
        <ele>44.942698</ele>
        <time>2020-08-14T07:27:46.375Z</time>
      </trkpt>
      <trkpt lat="65.8961" lon="12.5355">
        <ele>44.95325</ele>
        <time>2020-08-14T07:27:48.353Z</time>
      </trkpt>
      <trkpt lat="65.89619" lon="12.53558">
        <ele>44.963238</ele>
        <time>2020-08-14T07:27:50.336Z</time>
      </trkpt>
      <trkpt lat="65.89628" lon="12.53566">
        <ele>44.973265</ele>
        <time>2020-08-14T07:27:52.363Z</time>
      </trkpt>
      <trkpt lat="65.89637" lon="12.53574">
        <ele>44.983076</ele>
        <time>2020-08-14T07:27:54.339Z</time>
      </trkpt>
      <trkpt lat="65.89646" lon="12.53581">
        <ele>44.992668</ele>
        <time>2020-08-14T07:27:56.343Z</time>
      </trkpt>
      <trkpt lat="65.89655" lon="12.53591">
        <ele>45.002247</ele>
        <time>2020-08-14T07:27:58.389Z</time>
      </trkpt>
      <trkpt lat="65.89664" lon="12.536">
        <ele>45.012126</ele>
        <time>2020-08-14T07:28:00.352Z</time>
      </trkpt>
      <trkpt lat="65.89672" lon="12.53608">
        <ele>45.021605</ele>
        <time>2020-08-14T07:28:02.353Z</time>
      </trkpt>
      <trkpt lat="65.89682" lon="12.53614">
        <ele>45.031483</ele>
        <time>2020-08-14T07:28:04.344Z</time>
      </trkpt>
      <trkpt lat="65.89691" lon="12.5362">
        <ele>45.041231</ele>
        <time>2020-08-14T07:28:06.375Z</time>
      </trkpt>
      <trkpt lat="65.89701" lon="12.53624">
        <ele>45.016793</ele>
        <time>2020-08-14T07:28:08.363Z</time>
      </trkpt>
      <trkpt lat="65.8971" lon="12.53627">
        <ele>44.771859</ele>
        <time>2020-08-14T07:28:10.332Z</time>
      </trkpt>
      <trkpt lat="65.8972" lon="12.5363">
        <ele>44.522279</ele>
        <time>2020-08-14T07:28:12.383Z</time>
      </trkpt>
      <trkpt lat="65.89729" lon="12.5363">
        <ele>44.269125</ele>
        <time>2020-08-14T07:28:14.339Z</time>
      </trkpt>
      <trkpt lat="65.89739" lon="12.53628">
        <ele>44.01802</ele>
        <time>2020-08-14T07:28:16.343Z</time>
      </trkpt>
      <trkpt lat="65.89749" lon="12.53626">
        <ele>43.763702</ele>
        <time>2020-08-14T07:28:18.359Z</time>
      </trkpt>
      <trkpt lat="65.89758" lon="12.53623">
        <ele>43.505252</ele>
        <time>2020-08-14T07:28:20.342Z</time>
      </trkpt>
      <trkpt lat="65.89768" lon="12.53617">
        <ele>43.247962</ele>
        <time>2020-08-14T07:28:22.352Z</time>
      </trkpt>
      <trkpt lat="65.89777" lon="12.5361">
        <ele>42.988444</ele>
        <time>2020-08-14T07:28:24.348Z</time>
      </trkpt>
      <trkpt lat="65.89787" lon="12.53601">
        <ele>42.722623</ele>
        <time>2020-08-14T07:28:26.340Z</time>
      </trkpt>
      <trkpt lat="65.89796" lon="12.5359">
        <ele>42.447933</ele>
        <time>2020-08-14T07:28:28.363Z</time>
      </trkpt>
      <trkpt lat="65.89806" lon="12.53579">
        <ele>42.183051</ele>
        <time>2020-08-14T07:28:30.374Z</time>
      </trkpt>
      <trkpt lat="65.89815" lon="12.53568">
        <ele>41.912594</ele>
        <time>2020-08-14T07:28:32.354Z</time>
      </trkpt>
      <trkpt lat="65.89824" lon="12.53556">
        <ele>41.644659</ele>
        <time>2020-08-14T07:28:34.351Z</time>
      </trkpt>
      <trkpt lat="65.89833" lon="12.53543">
        <ele>41.378637</ele>
        <time>2020-08-14T07:28:36.366Z</time>
      </trkpt>
      <trkpt lat="65.89841" lon="12.5353">
        <ele>41.112113</ele>
        <time>2020-08-14T07:28:38.342Z</time>
      </trkpt>
      <trkpt lat="65.8985" lon="12.53518">
        <ele>40.849484</ele>
        <time>2020-08-14T07:28:40.358Z</time>
      </trkpt>
      <trkpt lat="65.89858" lon="12.53505">
        <ele>40.592943</ele>
        <time>2020-08-14T07:28:42.343Z</time>
      </trkpt>
      <trkpt lat="65.89867" lon="12.53492">
        <ele>40.361463</ele>
        <time>2020-08-14T07:28:44.368Z</time>
      </trkpt>
      <trkpt lat="65.89875" lon="12.5348">
        <ele>40.4303</ele>
        <time>2020-08-14T07:28:46.335Z</time>
      </trkpt>
      <trkpt lat="65.89883" lon="12.53467">
        <ele>40.499288</ele>
        <time>2020-08-14T07:28:48.356Z</time>
      </trkpt>
      <trkpt lat="65.89891" lon="12.53455">
        <ele>40.567972</ele>
        <time>2020-08-14T07:28:50.361Z</time>
      </trkpt>
      <trkpt lat="65.89899" lon="12.53443">
        <ele>40.636507</ele>
        <time>2020-08-14T07:28:52.352Z</time>
      </trkpt>
      <trkpt lat="65.89907" lon="12.53431">
        <ele>40.705036</ele>
        <time>2020-08-14T07:28:54.382Z</time>
      </trkpt>
      <trkpt lat="65.89915" lon="12.53419">
        <ele>40.769885</ele>
        <time>2020-08-14T07:28:56.333Z</time>
      </trkpt>
      <trkpt lat="65.89927" lon="12.53403">
        <ele>40.865399</ele>
        <time>2020-08-14T07:28:59.362Z</time>
      </trkpt>
      <trkpt lat="65.89938" lon="12.53387">
        <ele>40.958778</ele>
        <time>2020-08-14T07:29:02.361Z</time>
      </trkpt>
      <trkpt lat="65.89949" lon="12.53371">
        <ele>41.050152</ele>
        <time>2020-08-14T07:29:05.339Z</time>
      </trkpt>
      <trkpt lat="65.8996" lon="12.53355">
        <ele>41.141845</ele>
        <time>2020-08-14T07:29:08.378Z</time>
      </trkpt>
      <trkpt lat="65.8997" lon="12.53339">
        <ele>41.230469</ele>
        <time>2020-08-14T07:29:11.341Z</time>
      </trkpt>
      <trkpt lat="65.89981" lon="12.53323">
        <ele>41.321097</ele>
        <time>2020-08-14T07:29:14.353Z</time>
      </trkpt>
      <trkpt lat="65.89992" lon="12.53307">
        <ele>41.41217</ele>
        <time>2020-08-14T07:29:17.344Z</time>
      </trkpt>
      <trkpt lat="65.90003" lon="12.5329">
        <ele>41.505993</ele>
        <time>2020-08-14T07:29:20.356Z</time>
      </trkpt>
      <trkpt lat="65.90014" lon="12.53275">
        <ele>41.597097</ele>
        <time>2020-08-14T07:29:23.349Z</time>
      </trkpt>
      <trkpt lat="65.90024" lon="12.5326">
        <ele>41.769295</ele>
        <time>2020-08-14T07:29:26.374Z</time>
      </trkpt>
      <trkpt lat="65.90034" lon="12.53245">
        <ele>42.072335</ele>
        <time>2020-08-14T07:29:29.351Z</time>
      </trkpt>
      <trkpt lat="65.90043" lon="12.53232">
        <ele>42.352709</ele>
        <time>2020-08-14T07:29:32.353Z</time>
      </trkpt>
      <trkpt lat="65.90052" lon="12.53219">
        <ele>42.606596</ele>
        <time>2020-08-14T07:29:35.334Z</time>
      </trkpt>
      <trkpt lat="65.9006" lon="12.53207">
        <ele>42.85109</ele>
        <time>2020-08-14T07:29:38.359Z</time>
      </trkpt>
      <trkpt lat="65.90067" lon="12.53194">
        <ele>43.087469</ele>
        <time>2020-08-14T07:29:41.346Z</time>
      </trkpt>
      <trkpt lat="65.90075" lon="12.53183">
        <ele>43.322581</ele>
        <time>2020-08-14T07:29:44.333Z</time>
      </trkpt>
      <trkpt lat="65.90083" lon="12.53171">
        <ele>43.556642</ele>
        <time>2020-08-14T07:29:47.349Z</time>
      </trkpt>
      <trkpt lat="65.90092" lon="12.53153">
        <ele>43.858168</ele>
        <time>2020-08-14T07:29:51.352Z</time>
      </trkpt>
      <trkpt lat="65.90099" lon="12.53138">
        <ele>44.102264</ele>
        <time>2020-08-14T07:29:54.343Z</time>
      </trkpt>
      <trkpt lat="65.90106" lon="12.53122">
        <ele>44.358474</ele>
        <time>2020-08-14T07:29:57.356Z</time>
      </trkpt>
      <trkpt lat="65.90114" lon="12.53105">
        <ele>44.612551</ele>
        <time>2020-08-14T07:30:00.407Z</time>
      </trkpt>
      <trkpt lat="65.9012" lon="12.53088">
        <ele>44.86415</ele>
        <time>2020-08-14T07:30:03.350Z</time>
      </trkpt>
      <trkpt lat="65.90126" lon="12.53067">
        <ele>45.130389</ele>
        <time>2020-08-14T07:30:06.344Z</time>
      </trkpt>
      <trkpt lat="65.90132" lon="12.53044">
        <ele>45.426009</ele>
        <time>2020-08-14T07:30:09.335Z</time>
      </trkpt>
      <trkpt lat="65.90137" lon="12.53019">
        <ele>45.713391</ele>
        <time>2020-08-14T07:30:12.381Z</time>
      </trkpt>
      <trkpt lat="65.90142" lon="12.52995">
        <ele>45.991547</ele>
        <time>2020-08-14T07:30:15.394Z</time>
      </trkpt>
      <trkpt lat="65.90146" lon="12.52971">
        <ele>46.278369</ele>
        <time>2020-08-14T07:30:18.348Z</time>
      </trkpt>
      <trkpt lat="65.9015" lon="12.52945">
        <ele>46.779446</ele>
        <time>2020-08-14T07:30:21.357Z</time>
      </trkpt>
      <trkpt lat="65.90153" lon="12.52921">
        <ele>47.294328</ele>
        <time>2020-08-14T07:30:24.339Z</time>
      </trkpt>
      <trkpt lat="65.90157" lon="12.52896">
        <ele>47.802339</ele>
        <time>2020-08-14T07:30:27.355Z</time>
      </trkpt>
      <trkpt lat="65.9016" lon="12.52871">
        <ele>48.323049</ele>
        <time>2020-08-14T07:30:30.333Z</time>
      </trkpt>
      <trkpt lat="65.90163" lon="12.52847">
        <ele>48.813492</ele>
        <time>2020-08-14T07:30:33.349Z</time>
      </trkpt>
      <trkpt lat="65.90167" lon="12.52824">
        <ele>49.29721</ele>
        <time>2020-08-14T07:30:36.366Z</time>
      </trkpt>
      <trkpt lat="65.9017" lon="12.52797">
        <ele>49.851477</ele>
        <time>2020-08-14T07:30:40.345Z</time>
      </trkpt>
      <trkpt lat="65.90174" lon="12.52772">
        <ele>50.373526</ele>
        <time>2020-08-14T07:30:44.353Z</time>
      </trkpt>
      <trkpt lat="65.90177" lon="12.52748">
        <ele>50.876279</ele>
        <time>2020-08-14T07:30:48.340Z</time>
      </trkpt>
      <trkpt lat="65.90181" lon="12.52723">
        <ele>51.395826</ele>
        <time>2020-08-14T07:30:52.335Z</time>
      </trkpt>
      <trkpt lat="65.90184" lon="12.52699">
        <ele>51.891479</ele>
        <time>2020-08-14T07:30:56.379Z</time>
      </trkpt>
      <trkpt lat="65.90187" lon="12.52674">
        <ele>52.410327</ele>
        <time>2020-08-14T07:31:00.356Z</time>
      </trkpt>
      <trkpt lat="65.90191" lon="12.52652">
        <ele>52.875686</ele>
        <time>2020-08-14T07:31:04.391Z</time>
      </trkpt>
      <trkpt lat="65.90194" lon="12.5263">
        <ele>53.332127</ele>
        <time>2020-08-14T07:31:08.374Z</time>
      </trkpt>
      <trkpt lat="65.90198" lon="12.52604">
        <ele>53.879227</ele>
        <time>2020-08-14T07:31:13.339Z</time>
      </trkpt>
      <trkpt lat="65.90201" lon="12.52582">
        <ele>54.338303</ele>
        <time>2020-08-14T07:31:17.351Z</time>
      </trkpt>
      <trkpt lat="65.90205" lon="12.5256">
        <ele>54.79864</ele>
        <time>2020-08-14T07:31:21.338Z</time>
      </trkpt>
      <trkpt lat="65.90207" lon="12.52538">
        <ele>55.053392</ele>
        <time>2020-08-14T07:31:25.351Z</time>
      </trkpt>
      <trkpt lat="65.90211" lon="12.52516">
        <ele>55.218811</ele>
        <time>2020-08-14T07:31:29.348Z</time>
      </trkpt>
      <trkpt lat="65.90215" lon="12.52494">
        <ele>55.379813</ele>
        <time>2020-08-14T07:31:33.343Z</time>
      </trkpt>
      <trkpt lat="65.90218" lon="12.52472">
        <ele>55.546002</ele>
        <time>2020-08-14T07:31:37.351Z</time>
      </trkpt>
      <trkpt lat="65.90221" lon="12.52448">
        <ele>55.718468</ele>
        <time>2020-08-14T07:31:41.348Z</time>
      </trkpt>
      <trkpt lat="65.90225" lon="12.52423">
        <ele>55.901222</ele>
        <time>2020-08-14T07:31:45.356Z</time>
      </trkpt>
      <trkpt lat="65.90229" lon="12.52398">
        <ele>56.088728</ele>
        <time>2020-08-14T07:31:49.351Z</time>
      </trkpt>
      <trkpt lat="65.90233" lon="12.52371">
        <ele>56.286674</ele>
        <time>2020-08-14T07:31:53.345Z</time>
      </trkpt>
      <trkpt lat="65.90236" lon="12.5235">
        <ele>56.438818</ele>
        <time>2020-08-14T07:31:56.361Z</time>
      </trkpt>
      <trkpt lat="65.90239" lon="12.52329">
        <ele>56.594704</ele>
        <time>2020-08-14T07:31:59.362Z</time>
      </trkpt>
      <trkpt lat="65.90243" lon="12.52308">
        <ele>56.75178</ele>
        <time>2020-08-14T07:32:02.350Z</time>
      </trkpt>
      <trkpt lat="65.90246" lon="12.52286">
        <ele>56.911881</ele>
        <time>2020-08-14T07:32:05.345Z</time>
      </trkpt>
      <trkpt lat="65.90249" lon="12.52264">
        <ele>57.073473</ele>
        <time>2020-08-14T07:32:08.342Z</time>
      </trkpt>
      <trkpt lat="65.90252" lon="12.5224">
        <ele>57.244981</ele>
        <time>2020-08-14T07:32:11.353Z</time>
      </trkpt>
      <trkpt lat="65.90255" lon="12.52216">
        <ele>57.42386</ele>
        <time>2020-08-14T07:32:14.380Z</time>
      </trkpt>
      <trkpt lat="65.90258" lon="12.52188">
        <ele>57.623089</ele>
        <time>2020-08-14T07:32:17.337Z</time>
      </trkpt>
      <trkpt lat="65.90261" lon="12.5216">
        <ele>57.82041</ele>
        <time>2020-08-14T07:32:20.376Z</time>
      </trkpt>
      <trkpt lat="65.90263" lon="12.52132">
        <ele>57.9572</ele>
        <time>2020-08-14T07:32:23.352Z</time>
      </trkpt>
      <trkpt lat="65.90265" lon="12.52102">
        <ele>57.695729</ele>
        <time>2020-08-14T07:32:26.358Z</time>
      </trkpt>
      <trkpt lat="65.90266" lon="12.52071">
        <ele>57.41898</ele>
        <time>2020-08-14T07:32:29.362Z</time>
      </trkpt>
      <trkpt lat="65.90266" lon="12.52049">
        <ele>57.219083</ele>
        <time>2020-08-14T07:32:31.373Z</time>
      </trkpt>
      <trkpt lat="65.90266" lon="12.52025">
        <ele>57.008037</ele>
        <time>2020-08-14T07:32:33.357Z</time>
      </trkpt>
      <trkpt lat="65.90266" lon="12.52001">
        <ele>56.794276</ele>
        <time>2020-08-14T07:32:35.331Z</time>
      </trkpt>
      <trkpt lat="65.90266" lon="12.51979">
        <ele>56.591947</ele>
        <time>2020-08-14T07:32:37.375Z</time>
      </trkpt>
      <trkpt lat="65.90265" lon="12.51956">
        <ele>56.387748</ele>
        <time>2020-08-14T07:32:39.352Z</time>
      </trkpt>
      <trkpt lat="65.90263" lon="12.51933">
        <ele>56.1801</ele>
        <time>2020-08-14T07:32:41.350Z</time>
      </trkpt>
      <trkpt lat="65.90262" lon="12.5191">
        <ele>55.97598</ele>
        <time>2020-08-14T07:32:43.352Z</time>
      </trkpt>
      <trkpt lat="65.9026" lon="12.51887">
        <ele>55.771727</ele>
        <time>2020-08-14T07:32:45.368Z</time>
      </trkpt>
      <trkpt lat="65.90258" lon="12.51865">
        <ele>55.567998</ele>
        <time>2020-08-14T07:32:47.338Z</time>
      </trkpt>
      <trkpt lat="65.90256" lon="12.51843">
        <ele>55.365073</ele>
        <time>2020-08-14T07:32:49.365Z</time>
      </trkpt>
      <trkpt lat="65.90254" lon="12.51821">
        <ele>55.160267</ele>
        <time>2020-08-14T07:32:51.382Z</time>
      </trkpt>
      <trkpt lat="65.90251" lon="12.51797">
        <ele>54.942273</ele>
        <time>2020-08-14T07:32:53.371Z</time>
      </trkpt>
      <trkpt lat="65.90248" lon="12.51774">
        <ele>54.727743</ele>
        <time>2020-08-14T07:32:55.356Z</time>
      </trkpt>
      <trkpt lat="65.90246" lon="12.51752">
        <ele>54.519985</ele>
        <time>2020-08-14T07:32:57.350Z</time>
      </trkpt>
      <trkpt lat="65.90242" lon="12.51728">
        <ele>54.297697</ele>
        <time>2020-08-14T07:32:59.362Z</time>
      </trkpt>
      <trkpt lat="65.90239" lon="12.51704">
        <ele>54.070778</ele>
        <time>2020-08-14T07:33:01.360Z</time>
      </trkpt>
      <trkpt lat="65.90236" lon="12.51679">
        <ele>53.771874</ele>
        <time>2020-08-14T07:33:03.364Z</time>
      </trkpt>
      <trkpt lat="65.90234" lon="12.51653">
        <ele>53.47358</ele>
        <time>2020-08-14T07:33:05.347Z</time>
      </trkpt>
      <trkpt lat="65.90231" lon="12.5163">
        <ele>53.188533</ele>
        <time>2020-08-14T07:33:07.335Z</time>
      </trkpt>
      <trkpt lat="65.90228" lon="12.51605">
        <ele>52.901922</ele>
        <time>2020-08-14T07:33:09.365Z</time>
      </trkpt>
      <trkpt lat="65.90226" lon="12.51581">
        <ele>52.61434</ele>
        <time>2020-08-14T07:33:11.357Z</time>
      </trkpt>
      <trkpt lat="65.90224" lon="12.51555">
        <ele>52.316673</ele>
        <time>2020-08-14T07:33:13.344Z</time>
      </trkpt>
      <trkpt lat="65.90222" lon="12.51529">
        <ele>52.011412</ele>
        <time>2020-08-14T07:33:15.448Z</time>
      </trkpt>
      <trkpt lat="65.90221" lon="12.51504">
        <ele>51.721156</ele>
        <time>2020-08-14T07:33:17.352Z</time>
      </trkpt>
      <trkpt lat="65.9022" lon="12.5148">
        <ele>51.444359</ele>
        <time>2020-08-14T07:33:19.334Z</time>
      </trkpt>
      <trkpt lat="65.90219" lon="12.51455">
        <ele>51.153817</ele>
        <time>2020-08-14T07:33:21.388Z</time>
      </trkpt>
      <trkpt lat="65.90218" lon="12.51429">
        <ele>50.857575</ele>
        <time>2020-08-14T07:33:23.348Z</time>
      </trkpt>
      <trkpt lat="65.90216" lon="12.51403">
        <ele>50.553053</ele>
        <time>2020-08-14T07:33:25.341Z</time>
      </trkpt>
      <trkpt lat="65.90215" lon="12.51376">
        <ele>50.246818</ele>
        <time>2020-08-14T07:33:27.353Z</time>
      </trkpt>
      <trkpt lat="65.90214" lon="12.5135">
        <ele>49.947217</ele>
        <time>2020-08-14T07:33:29.339Z</time>
      </trkpt>
      <trkpt lat="65.90212" lon="12.51325">
        <ele>49.654523</ele>
        <time>2020-08-14T07:33:31.355Z</time>
      </trkpt>
      <trkpt lat="65.90211" lon="12.513">
        <ele>49.36253</ele>
        <time>2020-08-14T07:33:33.352Z</time>
      </trkpt>
      <trkpt lat="65.9021" lon="12.51275">
        <ele>49.078684</ele>
        <time>2020-08-14T07:33:35.349Z</time>
      </trkpt>
      <trkpt lat="65.90209" lon="12.5125">
        <ele>49.052225</ele>
        <time>2020-08-14T07:33:37.327Z</time>
      </trkpt>
      <trkpt lat="65.90208" lon="12.51224">
        <ele>49.098081</ele>
        <time>2020-08-14T07:33:39.395Z</time>
      </trkpt>
      <trkpt lat="65.90208" lon="12.51196">
        <ele>49.146313</ele>
        <time>2020-08-14T07:33:41.353Z</time>
      </trkpt>
      <trkpt lat="65.90206" lon="12.51169">
        <ele>49.1935</ele>
        <time>2020-08-14T07:33:43.344Z</time>
      </trkpt>
      <trkpt lat="65.90205" lon="12.51142">
        <ele>49.240817</ele>
        <time>2020-08-14T07:33:45.351Z</time>
      </trkpt>
      <trkpt lat="65.90204" lon="12.51115">
        <ele>49.288263</ele>
        <time>2020-08-14T07:33:47.329Z</time>
      </trkpt>
      <trkpt lat="65.90202" lon="12.51087">
        <ele>49.336096</ele>
        <time>2020-08-14T07:33:49.361Z</time>
      </trkpt>
      <trkpt lat="65.90202" lon="12.51061">
        <ele>49.381881</ele>
        <time>2020-08-14T07:33:51.341Z</time>
      </trkpt>
      <trkpt lat="65.90201" lon="12.51035">
        <ele>49.426429</ele>
        <time>2020-08-14T07:33:53.360Z</time>
      </trkpt>
      <trkpt lat="65.902" lon="12.51009">
        <ele>49.470805</ele>
        <time>2020-08-14T07:33:55.343Z</time>
      </trkpt>
      <trkpt lat="65.902" lon="12.50984">
        <ele>49.514663</ele>
        <time>2020-08-14T07:33:57.342Z</time>
      </trkpt>
      <trkpt lat="65.90199" lon="12.50959">
        <ele>49.55893</ele>
        <time>2020-08-14T07:33:59.356Z</time>
      </trkpt>
      <trkpt lat="65.90198" lon="12.50934">
        <ele>49.602221</ele>
        <time>2020-08-14T07:34:01.339Z</time>
      </trkpt>
      <trkpt lat="65.90198" lon="12.50909">
        <ele>49.644257</ele>
        <time>2020-08-14T07:34:03.368Z</time>
      </trkpt>
      <trkpt lat="65.90198" lon="12.50885">
        <ele>49.685942</ele>
        <time>2020-08-14T07:34:05.337Z</time>
      </trkpt>
      <trkpt lat="65.90198" lon="12.50861">
        <ele>49.727113</ele>
        <time>2020-08-14T07:34:07.345Z</time>
      </trkpt>
      <trkpt lat="65.90198" lon="12.50837">
        <ele>49.768625</ele>
        <time>2020-08-14T07:34:09.344Z</time>
      </trkpt>
      <trkpt lat="65.90199" lon="12.50813">
        <ele>49.833664</ele>
        <time>2020-08-14T07:34:11.361Z</time>
      </trkpt>
      <trkpt lat="65.90199" lon="12.5079">
        <ele>49.904719</ele>
        <time>2020-08-14T07:34:13.351Z</time>
      </trkpt>
      <trkpt lat="65.902" lon="12.50767">
        <ele>49.974857</ele>
        <time>2020-08-14T07:34:15.375Z</time>
      </trkpt>
      <trkpt lat="65.90201" lon="12.50744">
        <ele>50.046955</ele>
        <time>2020-08-14T07:34:17.332Z</time>
      </trkpt>
      <trkpt lat="65.90202" lon="12.50721">
        <ele>50.117222</ele>
        <time>2020-08-14T07:34:19.353Z</time>
      </trkpt>
      <trkpt lat="65.90202" lon="12.50699">
        <ele>50.186442</ele>
        <time>2020-08-14T07:34:21.331Z</time>
      </trkpt>
      <trkpt lat="65.90203" lon="12.50676">
        <ele>50.256483</ele>
        <time>2020-08-14T07:34:23.377Z</time>
      </trkpt>
      <trkpt lat="65.90203" lon="12.50653">
        <ele>50.327749</ele>
        <time>2020-08-14T07:34:25.373Z</time>
      </trkpt>
      <trkpt lat="65.90204" lon="12.5063">
        <ele>50.398447</ele>
        <time>2020-08-14T07:34:27.358Z</time>
      </trkpt>
      <trkpt lat="65.90204" lon="12.50606">
        <ele>50.471152</ele>
        <time>2020-08-14T07:34:29.361Z</time>
      </trkpt>
      <trkpt lat="65.90204" lon="12.5058">
        <ele>50.549713</ele>
        <time>2020-08-14T07:34:31.341Z</time>
      </trkpt>
      <trkpt lat="65.90203" lon="12.50554">
        <ele>50.629833</ele>
        <time>2020-08-14T07:34:33.354Z</time>
      </trkpt>
      <trkpt lat="65.90203" lon="12.50528">
        <ele>50.711293</ele>
        <time>2020-08-14T07:34:35.351Z</time>
      </trkpt>
      <trkpt lat="65.90202" lon="12.50501">
        <ele>50.794087</ele>
        <time>2020-08-14T07:34:37.342Z</time>
      </trkpt>
      <trkpt lat="65.90201" lon="12.50473">
        <ele>50.880837</ele>
        <time>2020-08-14T07:34:39.364Z</time>
      </trkpt>
      <trkpt lat="65.90199" lon="12.50446">
        <ele>50.96463</ele>
        <time>2020-08-14T07:34:41.359Z</time>
      </trkpt>
      <trkpt lat="65.90197" lon="12.50418">
        <ele>51.04946</ele>
        <time>2020-08-14T07:34:43.337Z</time>
      </trkpt>
      <trkpt lat="65.90196" lon="12.50393">
        <ele>51.12975</ele>
        <time>2020-08-14T07:34:45.367Z</time>
      </trkpt>
      <trkpt lat="65.90194" lon="12.50367">
        <ele>51.055542</ele>
        <time>2020-08-14T07:34:47.351Z</time>
      </trkpt>
      <trkpt lat="65.90192" lon="12.50344">
        <ele>50.982336</ele>
        <time>2020-08-14T07:34:49.349Z</time>
      </trkpt>
      <trkpt lat="65.90191" lon="12.50319">
        <ele>50.90355</ele>
        <time>2020-08-14T07:34:51.344Z</time>
      </trkpt>
      <trkpt lat="65.90189" lon="12.50292">
        <ele>50.821045</ele>
        <time>2020-08-14T07:34:53.350Z</time>
      </trkpt>
      <trkpt lat="65.90187" lon="12.50266">
        <ele>50.73823</ele>
        <time>2020-08-14T07:34:55.344Z</time>
      </trkpt>
      <trkpt lat="65.90186" lon="12.50239">
        <ele>50.657132</ele>
        <time>2020-08-14T07:34:57.366Z</time>
      </trkpt>
      <trkpt lat="65.90184" lon="12.50215">
        <ele>50.58036</ele>
        <time>2020-08-14T07:34:59.341Z</time>
      </trkpt>
      <trkpt lat="65.90183" lon="12.5019">
        <ele>50.503835</ele>
        <time>2020-08-14T07:35:01.384Z</time>
      </trkpt>
      <trkpt lat="65.90182" lon="12.50165">
        <ele>50.426413</ele>
        <time>2020-08-14T07:35:03.371Z</time>
      </trkpt>
      <trkpt lat="65.90181" lon="12.5014">
        <ele>50.350371</ele>
        <time>2020-08-14T07:35:05.350Z</time>
      </trkpt>
      <trkpt lat="65.90179" lon="12.50116">
        <ele>50.27537</ele>
        <time>2020-08-14T07:35:07.338Z</time>
      </trkpt>
      <trkpt lat="65.90178" lon="12.50092">
        <ele>50.19955</ele>
        <time>2020-08-14T07:35:09.338Z</time>
      </trkpt>
      <trkpt lat="65.90177" lon="12.50067">
        <ele>50.12272</ele>
        <time>2020-08-14T07:35:11.378Z</time>
      </trkpt>
      <trkpt lat="65.90175" lon="12.50042">
        <ele>50.044762</ele>
        <time>2020-08-14T07:35:13.345Z</time>
      </trkpt>
      <trkpt lat="65.90174" lon="12.50017">
        <ele>49.967498</ele>
        <time>2020-08-14T07:35:15.355Z</time>
      </trkpt>
      <trkpt lat="65.90173" lon="12.49993">
        <ele>49.893289</ele>
        <time>2020-08-14T07:35:17.349Z</time>
      </trkpt>
      <trkpt lat="65.90172" lon="12.4997">
        <ele>49.821217</ele>
        <time>2020-08-14T07:35:19.330Z</time>
      </trkpt>
      <trkpt lat="65.90171" lon="12.49947">
        <ele>49.888112</ele>
        <time>2020-08-14T07:35:21.343Z</time>
      </trkpt>
      <trkpt lat="65.9017" lon="12.49925">
        <ele>50.154644</ele>
        <time>2020-08-14T07:35:23.337Z</time>
      </trkpt>
      <trkpt lat="65.90168" lon="12.49893">
        <ele>50.548985</ele>
        <time>2020-08-14T07:35:26.354Z</time>
      </trkpt>
      <trkpt lat="65.90166" lon="12.49862">
        <ele>50.925985</ele>
        <time>2020-08-14T07:35:29.356Z</time>
      </trkpt>
      <trkpt lat="65.90165" lon="12.49833">
        <ele>51.278775</ele>
        <time>2020-08-14T07:35:32.333Z</time>
      </trkpt>
      <trkpt lat="65.90163" lon="12.49806">
        <ele>51.607887</ele>
        <time>2020-08-14T07:35:35.351Z</time>
      </trkpt>
      <trkpt lat="65.90162" lon="12.4978">
        <ele>51.935143</ele>
        <time>2020-08-14T07:35:38.363Z</time>
      </trkpt>
      <trkpt lat="65.90161" lon="12.49755">
        <ele>52.238568</ele>
        <time>2020-08-14T07:35:41.344Z</time>
      </trkpt>
      <trkpt lat="65.9016" lon="12.49728">
        <ele>52.560702</ele>
        <time>2020-08-14T07:35:44.342Z</time>
      </trkpt>
      <trkpt lat="65.90159" lon="12.49703">
        <ele>52.876546</ele>
        <time>2020-08-14T07:35:47.344Z</time>
      </trkpt>
      <trkpt lat="65.90157" lon="12.49677">
        <ele>53.185157</ele>
        <time>2020-08-14T07:35:50.352Z</time>
      </trkpt>
      <trkpt lat="65.90156" lon="12.49655">
        <ele>53.459275</ele>
        <time>2020-08-14T07:35:53.353Z</time>
      </trkpt>
      <trkpt lat="65.90155" lon="12.49631">
        <ele>53.757222</ele>
        <time>2020-08-14T07:35:56.340Z</time>
      </trkpt>
      <trkpt lat="65.90155" lon="12.49608">
        <ele>54.025998</ele>
        <time>2020-08-14T07:35:59.338Z</time>
      </trkpt>
      <trkpt lat="65.90154" lon="12.49582">
        <ele>54.352698</ele>
        <time>2020-08-14T07:36:03.334Z</time>
      </trkpt>
      <trkpt lat="65.90153" lon="12.49559">
        <ele>54.624684</ele>
        <time>2020-08-14T07:36:06.361Z</time>
      </trkpt>
      <trkpt lat="65.90152" lon="12.49537">
        <ele>54.896426</ele>
        <time>2020-08-14T07:36:09.346Z</time>
      </trkpt>
      <trkpt lat="65.90151" lon="12.49515">
        <ele>55.163071</ele>
        <time>2020-08-14T07:36:12.373Z</time>
      </trkpt>
      <trkpt lat="65.9015" lon="12.49493">
        <ele>55.433098</ele>
        <time>2020-08-14T07:36:15.366Z</time>
      </trkpt>
      <trkpt lat="65.90149" lon="12.49466">
        <ele>55.765415</ele>
        <time>2020-08-14T07:36:19.381Z</time>
      </trkpt>
      <trkpt lat="65.90148" lon="12.49438">
        <ele>56.108953</ele>
        <time>2020-08-14T07:36:23.361Z</time>
      </trkpt>
      <trkpt lat="65.90147" lon="12.49411">
        <ele>56.449535</ele>
        <time>2020-08-14T07:36:27.362Z</time>
      </trkpt>
      <trkpt lat="65.90146" lon="12.49385">
        <ele>56.767878</ele>
        <time>2020-08-14T07:36:31.351Z</time>
      </trkpt>
      <trkpt lat="65.90144" lon="12.49357">
        <ele>57.105974</ele>
        <time>2020-08-14T07:36:35.358Z</time>
      </trkpt>
      <trkpt lat="65.90143" lon="12.4933">
        <ele>57.444374</ele>
        <time>2020-08-14T07:36:39.364Z</time>
      </trkpt>
      <trkpt lat="65.90142" lon="12.49302">
        <ele>57.786697</ele>
        <time>2020-08-14T07:36:43.350Z</time>
      </trkpt>
      <trkpt lat="65.90141" lon="12.4928">
        <ele>58.0591</ele>
        <time>2020-08-14T07:36:46.350Z</time>
      </trkpt>
      <trkpt lat="65.9014" lon="12.49258">
        <ele>58.329443</ele>
        <time>2020-08-14T07:36:49.350Z</time>
      </trkpt>
      <trkpt lat="65.90139" lon="12.49235">
        <ele>58.604642</ele>
        <time>2020-08-14T07:36:52.359Z</time>
      </trkpt>
      <trkpt lat="65.90138" lon="12.49207">
        <ele>58.948481</ele>
        <time>2020-08-14T07:36:56.355Z</time>
      </trkpt>
      <trkpt lat="65.90136" lon="12.49178">
        <ele>59.302696</ele>
        <time>2020-08-14T07:37:00.360Z</time>
      </trkpt>
      <trkpt lat="65.90135" lon="12.49155">
        <ele>59.595598</ele>
        <time>2020-08-14T07:37:03.341Z</time>
      </trkpt>
      <trkpt lat="65.90133" lon="12.49129">
        <ele>59.909445</ele>
        <time>2020-08-14T07:37:06.359Z</time>
      </trkpt>
      <trkpt lat="65.90131" lon="12.491">
        <ele>60.26815</ele>
        <time>2020-08-14T07:37:09.344Z</time>
      </trkpt>
      <trkpt lat="65.9013" lon="12.49079">
        <ele>60.507029</ele>
        <time>2020-08-14T07:37:11.360Z</time>
      </trkpt>
      <trkpt lat="65.90128" lon="12.49046">
        <ele>60.46044</ele>
        <time>2020-08-14T07:37:14.351Z</time>
      </trkpt>
      <trkpt lat="65.90126" lon="12.49024">
        <ele>60.428297</ele>
        <time>2020-08-14T07:37:16.356Z</time>
      </trkpt>
      <trkpt lat="65.90124" lon="12.49002">
        <ele>60.396649</ele>
        <time>2020-08-14T07:37:18.355Z</time>
      </trkpt>
      <trkpt lat="65.90122" lon="12.4897">
        <ele>60.350618</ele>
        <time>2020-08-14T07:37:21.357Z</time>
      </trkpt>
      <trkpt lat="65.90119" lon="12.48937">
        <ele>60.303616</ele>
        <time>2020-08-14T07:37:24.348Z</time>
      </trkpt>
      <trkpt lat="65.90118" lon="12.48914">
        <ele>60.27077</ele>
        <time>2020-08-14T07:37:26.358Z</time>
      </trkpt>
      <trkpt lat="65.90116" lon="12.4889">
        <ele>60.237443</ele>
        <time>2020-08-14T07:37:28.348Z</time>
      </trkpt>
      <trkpt lat="65.90115" lon="12.48868">
        <ele>60.205949</ele>
        <time>2020-08-14T07:37:30.358Z</time>
      </trkpt>
      <trkpt lat="65.90114" lon="12.48846">
        <ele>60.174488</ele>
        <time>2020-08-14T07:37:32.341Z</time>
      </trkpt>
      <trkpt lat="65.90112" lon="12.48824">
        <ele>60.143044</ele>
        <time>2020-08-14T07:37:34.353Z</time>
      </trkpt>
      <trkpt lat="65.90109" lon="12.48794">
        <ele>60.098749</ele>
        <time>2020-08-14T07:37:37.339Z</time>
      </trkpt>
      <trkpt lat="65.90107" lon="12.48762">
        <ele>60.053071</ele>
        <time>2020-08-14T07:37:40.342Z</time>
      </trkpt>
      <trkpt lat="65.90105" lon="12.4874">
        <ele>60.021246</ele>
        <time>2020-08-14T07:37:42.353Z</time>
      </trkpt>
      <trkpt lat="65.90104" lon="12.48717">
        <ele>59.989506</ele>
        <time>2020-08-14T07:37:44.371Z</time>
      </trkpt>
      <trkpt lat="65.90102" lon="12.48687">
        <ele>59.946652</ele>
        <time>2020-08-14T07:37:47.369Z</time>
      </trkpt>
      <trkpt lat="65.90099" lon="12.48657">
        <ele>59.903531</ele>
        <time>2020-08-14T07:37:50.352Z</time>
      </trkpt>
      <trkpt lat="65.90097" lon="12.48627">
        <ele>59.964643</ele>
        <time>2020-08-14T07:37:53.336Z</time>
      </trkpt>
      <trkpt lat="65.90095" lon="12.48598">
        <ele>60.075669</ele>
        <time>2020-08-14T07:37:56.332Z</time>
      </trkpt>
      <trkpt lat="65.90092" lon="12.48566">
        <ele>60.194761</ele>
        <time>2020-08-14T07:37:59.339Z</time>
      </trkpt>
      <trkpt lat="65.90091" lon="12.48544">
        <ele>60.278427</ele>
        <time>2020-08-14T07:38:01.360Z</time>
      </trkpt>
      <trkpt lat="65.90089" lon="12.48511">
        <ele>60.399809</ele>
        <time>2020-08-14T07:38:04.372Z</time>
      </trkpt>
      <trkpt lat="65.90087" lon="12.48479">
        <ele>60.521193</ele>
        <time>2020-08-14T07:38:07.360Z</time>
      </trkpt>
      <trkpt lat="65.90085" lon="12.48457">
        <ele>60.603697</ele>
        <time>2020-08-14T07:38:09.365Z</time>
      </trkpt>
      <trkpt lat="65.90083" lon="12.48425">
        <ele>60.726174</ele>
        <time>2020-08-14T07:38:12.354Z</time>
      </trkpt>
      <trkpt lat="65.90081" lon="12.48393">
        <ele>60.844758</ele>
        <time>2020-08-14T07:38:15.346Z</time>
      </trkpt>
      <trkpt lat="65.90079" lon="12.48361">
        <ele>60.964583</ele>
        <time>2020-08-14T07:38:18.355Z</time>
      </trkpt>
      <trkpt lat="65.90077" lon="12.48329">
        <ele>61.084619</ele>
        <time>2020-08-14T07:38:21.350Z</time>
      </trkpt>
      <trkpt lat="65.90075" lon="12.48299">
        <ele>61.196357</ele>
        <time>2020-08-14T07:38:24.339Z</time>
      </trkpt>
      <trkpt lat="65.90074" lon="12.4827">
        <ele>61.305386</ele>
        <time>2020-08-14T07:38:27.354Z</time>
      </trkpt>
      <trkpt lat="65.90072" lon="12.48245">
        <ele>61.398862</ele>
        <time>2020-08-14T07:38:30.371Z</time>
      </trkpt>
      <trkpt lat="65.9007" lon="12.48217">
        <ele>61.506412</ele>
        <time>2020-08-14T07:38:34.349Z</time>
      </trkpt>
      <trkpt lat="65.90068" lon="12.48193">
        <ele>61.632961</ele>
        <time>2020-08-14T07:38:37.355Z</time>
      </trkpt>
      <trkpt lat="65.90066" lon="12.48171">
        <ele>61.753463</ele>
        <time>2020-08-14T07:38:40.376Z</time>
      </trkpt>
      <trkpt lat="65.90065" lon="12.48149">
        <ele>61.875032</ele>
        <time>2020-08-14T07:38:43.353Z</time>
      </trkpt>
      <trkpt lat="65.90062" lon="12.48124">
        <ele>62.013695</ele>
        <time>2020-08-14T07:38:46.356Z</time>
      </trkpt>
      <trkpt lat="65.9006" lon="12.48102">
        <ele>62.141222</ele>
        <time>2020-08-14T07:38:49.347Z</time>
      </trkpt>
      <trkpt lat="65.90058" lon="12.48078">
        <ele>62.275136</ele>
        <time>2020-08-14T07:38:52.344Z</time>
      </trkpt>
      <trkpt lat="65.90054" lon="12.48049">
        <ele>62.436514</ele>
        <time>2020-08-14T07:38:56.352Z</time>
      </trkpt>
      <trkpt lat="65.90051" lon="12.48028">
        <ele>62.560292</ele>
        <time>2020-08-14T07:38:59.342Z</time>
      </trkpt>
      <trkpt lat="65.90048" lon="12.48007">
        <ele>62.681709</ele>
        <time>2020-08-14T07:39:02.366Z</time>
      </trkpt>
      <trkpt lat="65.90045" lon="12.47984">
        <ele>62.815061</ele>
        <time>2020-08-14T07:39:05.363Z</time>
      </trkpt>
      <trkpt lat="65.9004" lon="12.47961">
        <ele>62.95457</ele>
        <time>2020-08-14T07:39:08.373Z</time>
      </trkpt>
      <trkpt lat="65.90036" lon="12.47935">
        <ele>63.10304</ele>
        <time>2020-08-14T07:39:11.354Z</time>
      </trkpt>
      <trkpt lat="65.90032" lon="12.47909">
        <ele>63.261086</ele>
        <time>2020-08-14T07:39:14.354Z</time>
      </trkpt>
      <trkpt lat="65.90026" lon="12.4788">
        <ele>63.433578</ele>
        <time>2020-08-14T07:39:17.353Z</time>
      </trkpt>
      <trkpt lat="65.90022" lon="12.47859">
        <ele>63.56039</ele>
        <time>2020-08-14T07:39:19.384Z</time>
      </trkpt>
      <trkpt lat="65.90018" lon="12.47838">
        <ele>63.686082</ele>
        <time>2020-08-14T07:39:21.343Z</time>
      </trkpt>
      <trkpt lat="65.90013" lon="12.47812">
        <ele>63.848483</ele>
        <time>2020-08-14T07:39:23.378Z</time>
      </trkpt>
      <trkpt lat="65.90008" lon="12.47788">
        <ele>63.693961</ele>
        <time>2020-08-14T07:39:25.346Z</time>
      </trkpt>
      <trkpt lat="65.90003" lon="12.47764">
        <ele>63.167274</ele>
        <time>2020-08-14T07:39:27.340Z</time>
      </trkpt>
      <trkpt lat="65.89998" lon="12.47736">
        <ele>62.568437</ele>
        <time>2020-08-14T07:39:29.374Z</time>
      </trkpt>
      <trkpt lat="65.89993" lon="12.47709">
        <ele>61.99772</ele>
        <time>2020-08-14T07:39:31.377Z</time>
      </trkpt>
      <trkpt lat="65.89987" lon="12.47682">
        <ele>61.40374</ele>
        <time>2020-08-14T07:39:33.351Z</time>
      </trkpt>
      <trkpt lat="65.89981" lon="12.47652">
        <ele>60.760564</ele>
        <time>2020-08-14T07:39:35.352Z</time>
      </trkpt>
      <trkpt lat="65.89975" lon="12.47619">
        <ele>60.049323</ele>
        <time>2020-08-14T07:39:37.355Z</time>
      </trkpt>
      <trkpt lat="65.89969" lon="12.47586">
        <ele>59.354161</ele>
        <time>2020-08-14T07:39:39.349Z</time>
      </trkpt>
      <trkpt lat="65.89962" lon="12.47553">
        <ele>58.631652</ele>
        <time>2020-08-14T07:39:41.341Z</time>
      </trkpt>
      <trkpt lat="65.89956" lon="12.47519">
        <ele>57.911572</ele>
        <time>2020-08-14T07:39:43.356Z</time>
      </trkpt>
      <trkpt lat="65.8995" lon="12.47484">
        <ele>57.169916</ele>
        <time>2020-08-14T07:39:45.342Z</time>
      </trkpt>
      <trkpt lat="65.89943" lon="12.4745">
        <ele>56.451175</ele>
        <time>2020-08-14T07:39:47.345Z</time>
      </trkpt>
      <trkpt lat="65.89938" lon="12.47417">
        <ele>55.756481</ele>
        <time>2020-08-14T07:39:49.338Z</time>
      </trkpt>
      <trkpt lat="65.89932" lon="12.47385">
        <ele>55.214601</ele>
        <time>2020-08-14T07:39:51.379Z</time>
      </trkpt>
      <trkpt lat="65.89926" lon="12.47353">
        <ele>54.850073</ele>
        <time>2020-08-14T07:39:53.352Z</time>
      </trkpt>
      <trkpt lat="65.8992" lon="12.47321">
        <ele>54.49156</ele>
        <time>2020-08-14T07:39:55.370Z</time>
      </trkpt>
      <trkpt lat="65.89916" lon="12.47288">
        <ele>54.129596</ele>
        <time>2020-08-14T07:39:57.365Z</time>
      </trkpt>
      <trkpt lat="65.8991" lon="12.47258">
        <ele>53.787269</ele>
        <time>2020-08-14T07:39:59.351Z</time>
      </trkpt>
      <trkpt lat="65.89905" lon="12.47227">
        <ele>53.445887</ele>
        <time>2020-08-14T07:40:01.371Z</time>
      </trkpt>
      <trkpt lat="65.89899" lon="12.47198">
        <ele>53.10428</ele>
        <time>2020-08-14T07:40:03.391Z</time>
      </trkpt>
      <trkpt lat="65.89893" lon="12.47167">
        <ele>52.754093</ele>
        <time>2020-08-14T07:40:05.383Z</time>
      </trkpt>
      <trkpt lat="65.89888" lon="12.47136">
        <ele>52.408991</ele>
        <time>2020-08-14T07:40:07.340Z</time>
      </trkpt>
      <trkpt lat="65.89882" lon="12.47107">
        <ele>52.071129</ele>
        <time>2020-08-14T07:40:09.340Z</time>
      </trkpt>
      <trkpt lat="65.89877" lon="12.47078">
        <ele>51.745869</ele>
        <time>2020-08-14T07:40:11.351Z</time>
      </trkpt>
      <trkpt lat="65.89871" lon="12.47051">
        <ele>51.430285</ele>
        <time>2020-08-14T07:40:13.344Z</time>
      </trkpt>
      <trkpt lat="65.89866" lon="12.47025">
        <ele>51.128518</ele>
        <time>2020-08-14T07:40:15.352Z</time>
      </trkpt>
      <trkpt lat="65.8986" lon="12.46999">
        <ele>50.822541</ele>
        <time>2020-08-14T07:40:17.353Z</time>
      </trkpt>
      <trkpt lat="65.89854" lon="12.46974">
        <ele>50.653644</ele>
        <time>2020-08-14T07:40:19.351Z</time>
      </trkpt>
      <trkpt lat="65.89848" lon="12.46948">
        <ele>50.473498</ele>
        <time>2020-08-14T07:40:21.380Z</time>
      </trkpt>
      <trkpt lat="65.89842" lon="12.46922">
        <ele>50.290146</ele>
        <time>2020-08-14T07:40:23.349Z</time>
      </trkpt>
      <trkpt lat="65.89836" lon="12.46894">
        <ele>50.105537</ele>
        <time>2020-08-14T07:40:25.346Z</time>
      </trkpt>
      <trkpt lat="65.89829" lon="12.46868">
        <ele>49.917135</ele>
        <time>2020-08-14T07:40:27.349Z</time>
      </trkpt>
      <trkpt lat="65.89824" lon="12.46841">
        <ele>49.733982</ele>
        <time>2020-08-14T07:40:29.364Z</time>
      </trkpt>
      <trkpt lat="65.89817" lon="12.46813">
        <ele>49.543436</ele>
        <time>2020-08-14T07:40:31.350Z</time>
      </trkpt>
      <trkpt lat="65.89811" lon="12.46786">
        <ele>49.354273</ele>
        <time>2020-08-14T07:40:33.354Z</time>
      </trkpt>
      <trkpt lat="65.89804" lon="12.4676">
        <ele>49.169956</ele>
        <time>2020-08-14T07:40:35.365Z</time>
      </trkpt>
      <trkpt lat="65.89798" lon="12.46734">
        <ele>48.98949</ele>
        <time>2020-08-14T07:40:37.372Z</time>
      </trkpt>
      <trkpt lat="65.89792" lon="12.46709">
        <ele>48.818831</ele>
        <time>2020-08-14T07:40:39.351Z</time>
      </trkpt>
      <trkpt lat="65.89786" lon="12.46683">
        <ele>48.641494</ele>
        <time>2020-08-14T07:40:41.349Z</time>
      </trkpt>
      <trkpt lat="65.8978" lon="12.46657">
        <ele>48.46292</ele>
        <time>2020-08-14T07:40:43.370Z</time>
      </trkpt>
      <trkpt lat="65.89774" lon="12.46631">
        <ele>48.282581</ele>
        <time>2020-08-14T07:40:45.352Z</time>
      </trkpt>
      <trkpt lat="65.89768" lon="12.46604">
        <ele>48.144439</ele>
        <time>2020-08-14T07:40:47.362Z</time>
      </trkpt>
      <trkpt lat="65.89762" lon="12.46577">
        <ele>48.062394</ele>
        <time>2020-08-14T07:40:49.354Z</time>
      </trkpt>
      <trkpt lat="65.89756" lon="12.4655">
        <ele>47.978776</ele>
        <time>2020-08-14T07:40:51.359Z</time>
      </trkpt>
      <trkpt lat="65.89749" lon="12.46525">
        <ele>47.899162</ele>
        <time>2020-08-14T07:40:53.346Z</time>
      </trkpt>
      <trkpt lat="65.89744" lon="12.465">
        <ele>47.823268</ele>
        <time>2020-08-14T07:40:55.372Z</time>
      </trkpt>
      <trkpt lat="65.89738" lon="12.46475">
        <ele>47.748096</ele>
        <time>2020-08-14T07:40:57.353Z</time>
      </trkpt>
      <trkpt lat="65.89732" lon="12.46452">
        <ele>47.675749</ele>
        <time>2020-08-14T07:40:59.351Z</time>
      </trkpt>
      <trkpt lat="65.89727" lon="12.46429">
        <ele>47.607203</ele>
        <time>2020-08-14T07:41:01.358Z</time>
      </trkpt>
      <trkpt lat="65.89722" lon="12.46408">
        <ele>47.540281</ele>
        <time>2020-08-14T07:41:03.362Z</time>
      </trkpt>
      <trkpt lat="65.89717" lon="12.46386">
        <ele>47.474051</ele>
        <time>2020-08-14T07:41:05.339Z</time>
      </trkpt>
      <trkpt lat="65.89712" lon="12.46363">
        <ele>47.402688</ele>
        <time>2020-08-14T07:41:07.357Z</time>
      </trkpt>
      <trkpt lat="65.89707" lon="12.46341">
        <ele>47.33539</ele>
        <time>2020-08-14T07:41:09.348Z</time>
      </trkpt>
      <trkpt lat="65.89702" lon="12.46317">
        <ele>47.265876</ele>
        <time>2020-08-14T07:41:11.389Z</time>
      </trkpt>
      <trkpt lat="65.89698" lon="12.46294">
        <ele>47.199007</ele>
        <time>2020-08-14T07:41:13.393Z</time>
      </trkpt>
      <trkpt lat="65.89694" lon="12.46272">
        <ele>47.133109</ele>
        <time>2020-08-14T07:41:15.363Z</time>
      </trkpt>
      <trkpt lat="65.8969" lon="12.46249">
        <ele>47.067262</ele>
        <time>2020-08-14T07:41:17.352Z</time>
      </trkpt>
      <trkpt lat="65.89687" lon="12.46225">
        <ele>47.003604</ele>
        <time>2020-08-14T07:41:19.385Z</time>
      </trkpt>
      <trkpt lat="65.89684" lon="12.46201">
        <ele>46.962862</ele>
        <time>2020-08-14T07:41:21.353Z</time>
      </trkpt>
      <trkpt lat="65.89681" lon="12.46176">
        <ele>46.922542</ele>
        <time>2020-08-14T07:41:23.352Z</time>
      </trkpt>
      <trkpt lat="65.89679" lon="12.46152">
        <ele>46.882558</ele>
        <time>2020-08-14T07:41:25.347Z</time>
      </trkpt>
      <trkpt lat="65.89677" lon="12.46127">
        <ele>46.842946</ele>
        <time>2020-08-14T07:41:27.357Z</time>
      </trkpt>
      <trkpt lat="65.89676" lon="12.46103">
        <ele>46.80403</ele>
        <time>2020-08-14T07:41:29.339Z</time>
      </trkpt>
      <trkpt lat="65.89675" lon="12.4608">
        <ele>46.765699</ele>
        <time>2020-08-14T07:41:31.402Z</time>
      </trkpt>
      <trkpt lat="65.89674" lon="12.46048">
        <ele>46.715006</ele>
        <time>2020-08-14T07:41:34.352Z</time>
      </trkpt>
      <trkpt lat="65.89674" lon="12.46016">
        <ele>46.664269</ele>
        <time>2020-08-14T07:41:37.348Z</time>
      </trkpt>
      <trkpt lat="65.89674" lon="12.45984">
        <ele>46.613052</ele>
        <time>2020-08-14T07:41:40.374Z</time>
      </trkpt>
      <trkpt lat="65.89674" lon="12.45962">
        <ele>46.577631</ele>
        <time>2020-08-14T07:41:42.368Z</time>
      </trkpt>
      <trkpt lat="65.89675" lon="12.4594">
        <ele>46.541838</ele>
        <time>2020-08-14T07:41:44.362Z</time>
      </trkpt>
      <trkpt lat="65.89677" lon="12.45907">
        <ele>46.488701</ele>
        <time>2020-08-14T07:41:47.363Z</time>
      </trkpt>
      <trkpt lat="65.89678" lon="12.45884">
        <ele>46.451208</ele>
        <time>2020-08-14T07:41:49.337Z</time>
      </trkpt>
      <trkpt lat="65.89679" lon="12.4586">
        <ele>46.412622</ele>
        <time>2020-08-14T07:41:51.356Z</time>
      </trkpt>
      <trkpt lat="65.8968" lon="12.45834">
        <ele>46.37171</ele>
        <time>2020-08-14T07:41:53.373Z</time>
      </trkpt>
      <trkpt lat="65.89682" lon="12.45809">
        <ele>46.330693</ele>
        <time>2020-08-14T07:41:55.355Z</time>
      </trkpt>
      <trkpt lat="65.89683" lon="12.45783">
        <ele>46.289779</ele>
        <time>2020-08-14T07:41:57.373Z</time>
      </trkpt>
      <trkpt lat="65.89685" lon="12.45756">
        <ele>46.249784</ele>
        <time>2020-08-14T07:41:59.351Z</time>
      </trkpt>
      <trkpt lat="65.89687" lon="12.45729">
        <ele>46.209747</ele>
        <time>2020-08-14T07:42:01.396Z</time>
      </trkpt>
      <trkpt lat="65.89688" lon="12.45701">
        <ele>46.169421</ele>
        <time>2020-08-14T07:42:03.360Z</time>
      </trkpt>
      <trkpt lat="65.8969" lon="12.45673">
        <ele>46.127893</ele>
        <time>2020-08-14T07:42:05.363Z</time>
      </trkpt>
      <trkpt lat="65.89692" lon="12.45645">
        <ele>46.086889</ele>
        <time>2020-08-14T07:42:07.360Z</time>
      </trkpt>
      <trkpt lat="65.89694" lon="12.45617">
        <ele>46.044131</ele>
        <time>2020-08-14T07:42:09.347Z</time>
      </trkpt>
      <trkpt lat="65.89696" lon="12.45588">
        <ele>46.001229</ele>
        <time>2020-08-14T07:42:11.350Z</time>
      </trkpt>
      <trkpt lat="65.89698" lon="12.4556">
        <ele>45.960052</ele>
        <time>2020-08-14T07:42:13.331Z</time>
      </trkpt>
      <trkpt lat="65.897" lon="12.45532">
        <ele>45.918904</ele>
        <time>2020-08-14T07:42:15.348Z</time>
      </trkpt>
      <trkpt lat="65.89701" lon="12.45504">
        <ele>45.878376</ele>
        <time>2020-08-14T07:42:17.357Z</time>
      </trkpt>
      <trkpt lat="65.89702" lon="12.45478">
        <ele>45.839376</ele>
        <time>2020-08-14T07:42:19.356Z</time>
      </trkpt>
      <trkpt lat="65.89703" lon="12.45452">
        <ele>45.802069</ele>
        <time>2020-08-14T07:42:21.351Z</time>
      </trkpt>
      <trkpt lat="65.89703" lon="12.45427">
        <ele>45.76537</ele>
        <time>2020-08-14T07:42:23.365Z</time>
      </trkpt>
      <trkpt lat="65.89704" lon="12.45402">
        <ele>45.728895</ele>
        <time>2020-08-14T07:42:25.352Z</time>
      </trkpt>
      <trkpt lat="65.89704" lon="12.45377">
        <ele>45.69228</ele>
        <time>2020-08-14T07:42:27.361Z</time>
      </trkpt>
      <trkpt lat="65.89703" lon="12.4535">
        <ele>45.644395</ele>
        <time>2020-08-14T07:42:29.343Z</time>
      </trkpt>
      <trkpt lat="65.89702" lon="12.45326">
        <ele>45.566804</ele>
        <time>2020-08-14T07:42:31.359Z</time>
      </trkpt>
      <trkpt lat="65.89701" lon="12.45303">
        <ele>45.490408</ele>
        <time>2020-08-14T07:42:33.396Z</time>
      </trkpt>
      <trkpt lat="65.897" lon="12.45281">
        <ele>45.41966</ele>
        <time>2020-08-14T07:42:35.342Z</time>
      </trkpt>
      <trkpt lat="65.89699" lon="12.45259">
        <ele>45.347268</ele>
        <time>2020-08-14T07:42:37.343Z</time>
      </trkpt>
      <trkpt lat="65.89698" lon="12.45236">
        <ele>45.274288</ele>
        <time>2020-08-14T07:42:39.344Z</time>
      </trkpt>
      <trkpt lat="65.89697" lon="12.45213">
        <ele>45.199726</ele>
        <time>2020-08-14T07:42:41.381Z</time>
      </trkpt>
      <trkpt lat="65.89696" lon="12.4519">
        <ele>45.125334</ele>
        <time>2020-08-14T07:42:43.369Z</time>
      </trkpt>
      <trkpt lat="65.89696" lon="12.45167">
        <ele>45.050972</ele>
        <time>2020-08-14T07:42:45.352Z</time>
      </trkpt>
      <trkpt lat="65.89695" lon="12.45144">
        <ele>44.977282</ele>
        <time>2020-08-14T07:42:47.343Z</time>
      </trkpt>
      <trkpt lat="65.89695" lon="12.45121">
        <ele>44.902982</ele>
        <time>2020-08-14T07:42:49.354Z</time>
      </trkpt>
      <trkpt lat="65.89695" lon="12.45098">
        <ele>44.829004</ele>
        <time>2020-08-14T07:42:51.358Z</time>
      </trkpt>
      <trkpt lat="65.89696" lon="12.45076">
        <ele>44.75707</ele>
        <time>2020-08-14T07:42:53.335Z</time>
      </trkpt>
      <trkpt lat="65.89697" lon="12.45053">
        <ele>44.684174</ele>
        <time>2020-08-14T07:42:55.342Z</time>
      </trkpt>
      <trkpt lat="65.89698" lon="12.45029">
        <ele>44.60833</ele>
        <time>2020-08-14T07:42:57.370Z</time>
      </trkpt>
      <trkpt lat="65.89699" lon="12.45006">
        <ele>44.533539</ele>
        <time>2020-08-14T07:42:59.349Z</time>
      </trkpt>
      <trkpt lat="65.89701" lon="12.44984">
        <ele>44.461352</ele>
        <time>2020-08-14T07:43:01.338Z</time>
      </trkpt>
      <trkpt lat="65.89702" lon="12.44963">
        <ele>44.390602</ele>
        <time>2020-08-14T07:43:03.410Z</time>
      </trkpt>
      <trkpt lat="65.89706" lon="12.44931">
        <ele>44.285698</ele>
        <time>2020-08-14T07:43:06.396Z</time>
      </trkpt>
      <trkpt lat="65.8971" lon="12.44901">
        <ele>44.437197</ele>
        <time>2020-08-14T07:43:09.357Z</time>
      </trkpt>
      <trkpt lat="65.89714" lon="12.4487">
        <ele>44.757519</ele>
        <time>2020-08-14T07:43:12.350Z</time>
      </trkpt>
      <trkpt lat="65.89718" lon="12.44842">
        <ele>45.065047</ele>
        <time>2020-08-14T07:43:15.350Z</time>
      </trkpt>
      <trkpt lat="65.89723" lon="12.44815">
        <ele>45.35584</ele>
        <time>2020-08-14T07:43:18.341Z</time>
      </trkpt>
      <trkpt lat="65.89727" lon="12.44789">
        <ele>45.642089</ele>
        <time>2020-08-14T07:43:21.355Z</time>
      </trkpt>
      <trkpt lat="65.89732" lon="12.44765">
        <ele>45.905416</ele>
        <time>2020-08-14T07:43:24.355Z</time>
      </trkpt>
      <trkpt lat="65.89737" lon="12.44742">
        <ele>46.164615</ele>
        <time>2020-08-14T07:43:27.343Z</time>
      </trkpt>
      <trkpt lat="65.89741" lon="12.44721">
        <ele>46.401469</ele>
        <time>2020-08-14T07:43:30.338Z</time>
      </trkpt>
      <trkpt lat="65.89746" lon="12.44694">
        <ele>46.693236</ele>
        <time>2020-08-14T07:43:34.342Z</time>
      </trkpt>
      <trkpt lat="65.89752" lon="12.44668">
        <ele>46.988211</ele>
        <time>2020-08-14T07:43:38.364Z</time>
      </trkpt>
      <trkpt lat="65.89756" lon="12.44649">
        <ele>47.213253</ele>
        <time>2020-08-14T07:43:41.354Z</time>
      </trkpt>
      <trkpt lat="65.89761" lon="12.44623">
        <ele>47.499487</ele>
        <time>2020-08-14T07:43:45.353Z</time>
      </trkpt>
      <trkpt lat="65.89766" lon="12.44597">
        <ele>47.79165</ele>
        <time>2020-08-14T07:43:49.375Z</time>
      </trkpt>
      <trkpt lat="65.89771" lon="12.44572">
        <ele>48.06692</ele>
        <time>2020-08-14T07:43:53.367Z</time>
      </trkpt>
      <trkpt lat="65.89776" lon="12.44546">
        <ele>48.35336</ele>
        <time>2020-08-14T07:43:57.349Z</time>
      </trkpt>
      <trkpt lat="65.8978" lon="12.44519">
        <ele>48.646936</ele>
        <time>2020-08-14T07:44:01.339Z</time>
      </trkpt>
      <trkpt lat="65.89784" lon="12.44496">
        <ele>48.839251</ele>
        <time>2020-08-14T07:44:04.351Z</time>
      </trkpt>
      <trkpt lat="65.89787" lon="12.44474">
        <ele>49.01605</ele>
        <time>2020-08-14T07:44:07.354Z</time>
      </trkpt>
      <trkpt lat="65.89789" lon="12.44452">
        <ele>49.187644</ele>
        <time>2020-08-14T07:44:10.346Z</time>
      </trkpt>
      <trkpt lat="65.89792" lon="12.4443">
        <ele>49.357081</ele>
        <time>2020-08-14T07:44:13.354Z</time>
      </trkpt>
      <trkpt lat="65.89794" lon="12.44407">
        <ele>49.53938</ele>
        <time>2020-08-14T07:44:16.364Z</time>
      </trkpt>
      <trkpt lat="65.89795" lon="12.44383">
        <ele>49.721125</ele>
        <time>2020-08-14T07:44:19.349Z</time>
      </trkpt>
      <trkpt lat="65.89797" lon="12.44358">
        <ele>49.910362</ele>
        <time>2020-08-14T07:44:22.382Z</time>
      </trkpt>
      <trkpt lat="65.89798" lon="12.44332">
        <ele>50.109773</ele>
        <time>2020-08-14T07:44:25.350Z</time>
      </trkpt>
      <trkpt lat="65.89798" lon="12.44306">
        <ele>50.311012</ele>
        <time>2020-08-14T07:44:28.345Z</time>
      </trkpt>
      <trkpt lat="65.89798" lon="12.44277">
        <ele>50.529268</ele>
        <time>2020-08-14T07:44:31.351Z</time>
      </trkpt>
      <trkpt lat="65.89798" lon="12.44247">
        <ele>50.754406</ele>
        <time>2020-08-14T07:44:34.336Z</time>
      </trkpt>
      <trkpt lat="65.89798" lon="12.44215">
        <ele>50.995646</ele>
        <time>2020-08-14T07:44:37.382Z</time>
      </trkpt>
      <trkpt lat="65.89796" lon="12.44183">
        <ele>51.241793</ele>
        <time>2020-08-14T07:44:40.339Z</time>
      </trkpt>
      <trkpt lat="65.89794" lon="12.44151">
        <ele>51.488614</ele>
        <time>2020-08-14T07:44:43.343Z</time>
      </trkpt>
      <trkpt lat="65.89792" lon="12.44129">
        <ele>51.65978</ele>
        <time>2020-08-14T07:44:45.350Z</time>
      </trkpt>
      <trkpt lat="65.8979" lon="12.44107">
        <ele>51.831424</ele>
        <time>2020-08-14T07:44:47.349Z</time>
      </trkpt>
      <trkpt lat="65.89788" lon="12.44084">
        <ele>51.997487</ele>
        <time>2020-08-14T07:44:49.346Z</time>
      </trkpt>
      <trkpt lat="65.89785" lon="12.44061">
        <ele>51.861164</ele>
        <time>2020-08-14T07:44:51.349Z</time>
      </trkpt>
      <trkpt lat="65.89782" lon="12.44039">
        <ele>51.725392</ele>
        <time>2020-08-14T07:44:53.349Z</time>
      </trkpt>
      <trkpt lat="65.89779" lon="12.44018">
        <ele>51.594756</ele>
        <time>2020-08-14T07:44:55.408Z</time>
      </trkpt>
      <trkpt lat="65.89776" lon="12.43998">
        <ele>51.463603</ele>
        <time>2020-08-14T07:44:57.353Z</time>
      </trkpt>
      <trkpt lat="65.89772" lon="12.43978">
        <ele>51.334473</ele>
        <time>2020-08-14T07:44:59.339Z</time>
      </trkpt>
      <trkpt lat="65.89768" lon="12.43958">
        <ele>51.205263</ele>
        <time>2020-08-14T07:45:01.359Z</time>
      </trkpt>
      <trkpt lat="65.89763" lon="12.43938">
        <ele>51.073975</ele>
        <time>2020-08-14T07:45:03.354Z</time>
      </trkpt>
      <trkpt lat="65.89758" lon="12.43918">
        <ele>50.940736</ele>
        <time>2020-08-14T07:45:05.362Z</time>
      </trkpt>
      <trkpt lat="65.89753" lon="12.43899">
        <ele>50.806421</ele>
        <time>2020-08-14T07:45:07.373Z</time>
      </trkpt>
      <trkpt lat="65.89748" lon="12.43881">
        <ele>50.673848</ele>
        <time>2020-08-14T07:45:09.353Z</time>
      </trkpt>
      <trkpt lat="65.89742" lon="12.43863">
        <ele>50.540995</ele>
        <time>2020-08-14T07:45:11.361Z</time>
      </trkpt>
      <trkpt lat="65.89737" lon="12.43845">
        <ele>50.413176</ele>
        <time>2020-08-14T07:45:13.394Z</time>
      </trkpt>
      <trkpt lat="65.89731" lon="12.43828">
        <ele>50.281679</ele>
        <time>2020-08-14T07:45:15.358Z</time>
      </trkpt>
      <trkpt lat="65.89725" lon="12.43812">
        <ele>50.152874</ele>
        <time>2020-08-14T07:45:17.338Z</time>
      </trkpt>
      <trkpt lat="65.89715" lon="12.43789">
        <ele>49.967658</ele>
        <time>2020-08-14T07:45:20.360Z</time>
      </trkpt>
      <trkpt lat="65.89706" lon="12.43768">
        <ele>49.781142</ele>
        <time>2020-08-14T07:45:23.340Z</time>
      </trkpt>
      <trkpt lat="65.89696" lon="12.43748">
        <ele>49.595338</ele>
        <time>2020-08-14T07:45:26.381Z</time>
      </trkpt>
      <trkpt lat="65.89685" lon="12.43728">
        <ele>49.402603</ele>
        <time>2020-08-14T07:45:29.361Z</time>
      </trkpt>
      <trkpt lat="65.89678" lon="12.43713">
        <ele>49.262454</ele>
        <time>2020-08-14T07:45:31.341Z</time>
      </trkpt>
      <trkpt lat="65.8967" lon="12.43699">
        <ele>49.11324</ele>
        <time>2020-08-14T07:45:33.369Z</time>
      </trkpt>
      <trkpt lat="65.89661" lon="12.43684">
        <ele>48.959927</ele>
        <time>2020-08-14T07:45:35.373Z</time>
      </trkpt>
      <trkpt lat="65.89653" lon="12.4367">
        <ele>48.809811</ele>
        <time>2020-08-14T07:45:37.346Z</time>
      </trkpt>
      <trkpt lat="65.89645" lon="12.43656">
        <ele>48.657821</ele>
        <time>2020-08-14T07:45:39.362Z</time>
      </trkpt>
      <trkpt lat="65.89636" lon="12.43641">
        <ele>48.501634</ele>
        <time>2020-08-14T07:45:41.347Z</time>
      </trkpt>
      <trkpt lat="65.89627" lon="12.43625">
        <ele>48.33377</ele>
        <time>2020-08-14T07:45:43.381Z</time>
      </trkpt>
      <trkpt lat="65.89618" lon="12.43609">
        <ele>48.162416</ele>
        <time>2020-08-14T07:45:45.341Z</time>
      </trkpt>
      <trkpt lat="65.89608" lon="12.43592">
        <ele>47.987386</ele>
        <time>2020-08-14T07:45:47.351Z</time>
      </trkpt>
      <trkpt lat="65.89598" lon="12.43576">
        <ele>47.812891</ele>
        <time>2020-08-14T07:45:49.359Z</time>
      </trkpt>
      <trkpt lat="65.89589" lon="12.43559">
        <ele>47.63436</ele>
        <time>2020-08-14T07:45:51.353Z</time>
      </trkpt>
      <trkpt lat="65.89579" lon="12.43541">
        <ele>47.454026</ele>
        <time>2020-08-14T07:45:53.347Z</time>
      </trkpt>
      <trkpt lat="65.89569" lon="12.43523">
        <ele>47.274054</ele>
        <time>2020-08-14T07:45:55.396Z</time>
      </trkpt>
      <trkpt lat="65.89559" lon="12.43507">
        <ele>47.096761</ele>
        <time>2020-08-14T07:45:57.341Z</time>
      </trkpt>
      <trkpt lat="65.8955" lon="12.43491">
        <ele>46.926246</ele>
        <time>2020-08-14T07:45:59.383Z</time>
      </trkpt>
      <trkpt lat="65.8954" lon="12.43475">
        <ele>46.753336</ele>
        <time>2020-08-14T07:46:01.362Z</time>
      </trkpt>
      <trkpt lat="65.89531" lon="12.43458">
        <ele>46.817405</ele>
        <time>2020-08-14T07:46:03.361Z</time>
      </trkpt>
      <trkpt lat="65.89522" lon="12.43442">
        <ele>46.87998</ele>
        <time>2020-08-14T07:46:05.352Z</time>
      </trkpt>
      <trkpt lat="65.89513" lon="12.43426">
        <ele>46.94116</ele>
        <time>2020-08-14T07:46:07.352Z</time>
      </trkpt>
      <trkpt lat="65.89504" lon="12.43412">
        <ele>46.998636</ele>
        <time>2020-08-14T07:46:09.393Z</time>
      </trkpt>
      <trkpt lat="65.89496" lon="12.43397">
        <ele>47.052779</ele>
        <time>2020-08-14T07:46:11.359Z</time>
      </trkpt>
      <trkpt lat="65.89489" lon="12.43382">
        <ele>47.104661</ele>
        <time>2020-08-14T07:46:13.351Z</time>
      </trkpt>
      <trkpt lat="65.89482" lon="12.43367">
        <ele>47.155522</ele>
        <time>2020-08-14T07:46:15.375Z</time>
      </trkpt>
      <trkpt lat="65.89473" lon="12.43345">
        <ele>47.227259</ele>
        <time>2020-08-14T07:46:18.343Z</time>
      </trkpt>
      <trkpt lat="65.89464" lon="12.43325">
        <ele>47.292528</ele>
        <time>2020-08-14T07:46:21.360Z</time>
      </trkpt>
      <trkpt lat="65.89457" lon="12.43304">
        <ele>47.355579</ele>
        <time>2020-08-14T07:46:24.360Z</time>
      </trkpt>
      <trkpt lat="65.89449" lon="12.43281">
        <ele>47.421727</ele>
        <time>2020-08-14T07:46:27.355Z</time>
      </trkpt>
      <trkpt lat="65.89443" lon="12.43256">
        <ele>47.490085</ele>
        <time>2020-08-14T07:46:30.350Z</time>
      </trkpt>
      <trkpt lat="65.89436" lon="12.4323">
        <ele>47.559838</ele>
        <time>2020-08-14T07:46:33.375Z</time>
      </trkpt>
      <trkpt lat="65.89429" lon="12.43203">
        <ele>47.631814</ele>
        <time>2020-08-14T07:46:36.360Z</time>
      </trkpt>
      <trkpt lat="65.89423" lon="12.43175">
        <ele>47.70272</ele>
        <time>2020-08-14T07:46:39.375Z</time>
      </trkpt>
      <trkpt lat="65.89416" lon="12.43149">
        <ele>47.711681</ele>
        <time>2020-08-14T07:46:42.350Z</time>
      </trkpt>
      <trkpt lat="65.89412" lon="12.43121">
        <ele>47.625771</ele>
        <time>2020-08-14T07:46:45.341Z</time>
      </trkpt>
      <trkpt lat="65.89408" lon="12.43094">
        <ele>47.543389</ele>
        <time>2020-08-14T07:46:48.349Z</time>
      </trkpt>
      <trkpt lat="65.89404" lon="12.43066">
        <ele>47.456691</ele>
        <time>2020-08-14T07:46:51.352Z</time>
      </trkpt>
      <trkpt lat="65.89399" lon="12.43037">
        <ele>47.365708</ele>
        <time>2020-08-14T07:46:54.352Z</time>
      </trkpt>
      <trkpt lat="65.89394" lon="12.43008">
        <ele>47.277174</ele>
        <time>2020-08-14T07:46:57.356Z</time>
      </trkpt>
      <trkpt lat="65.89391" lon="12.4298">
        <ele>47.191652</ele>
        <time>2020-08-14T07:47:00.370Z</time>
      </trkpt>
      <trkpt lat="65.89387" lon="12.42952">
        <ele>47.105032</ele>
        <time>2020-08-14T07:47:03.392Z</time>
      </trkpt>
      <trkpt lat="65.89382" lon="12.42922">
        <ele>47.014565</ele>
        <time>2020-08-14T07:47:06.351Z</time>
      </trkpt>
      <trkpt lat="65.89378" lon="12.42894">
        <ele>46.927075</ele>
        <time>2020-08-14T07:47:09.340Z</time>
      </trkpt>
      <trkpt lat="65.89373" lon="12.42865">
        <ele>46.837984</ele>
        <time>2020-08-14T07:47:12.342Z</time>
      </trkpt>
      <trkpt lat="65.89369" lon="12.42836">
        <ele>46.747842</ele>
        <time>2020-08-14T07:47:15.359Z</time>
      </trkpt>
      <trkpt lat="65.89363" lon="12.42808">
        <ele>46.654806</ele>
        <time>2020-08-14T07:47:18.403Z</time>
      </trkpt>
      <trkpt lat="65.89357" lon="12.42778">
        <ele>46.560992</ele>
        <time>2020-08-14T07:47:21.356Z</time>
      </trkpt>
      <trkpt lat="65.89352" lon="12.4276">
        <ele>46.496799</ele>
        <time>2020-08-14T07:47:23.350Z</time>
      </trkpt>
      <trkpt lat="65.89345" lon="12.42732">
        <ele>46.343596</ele>
        <time>2020-08-14T07:47:26.347Z</time>
      </trkpt>
      <trkpt lat="65.8934" lon="12.42713">
        <ele>46.225085</ele>
        <time>2020-08-14T07:47:28.362Z</time>
      </trkpt>
      <trkpt lat="65.89335" lon="12.42694">
        <ele>46.102784</ele>
        <time>2020-08-14T07:47:30.352Z</time>
      </trkpt>
      <trkpt lat="65.89328" lon="12.42676">
        <ele>45.976243</ele>
        <time>2020-08-14T07:47:32.393Z</time>
      </trkpt>
      <trkpt lat="65.89322" lon="12.42658">
        <ele>45.852639</ele>
        <time>2020-08-14T07:47:34.366Z</time>
      </trkpt>
      <trkpt lat="65.89316" lon="12.4264">
        <ele>45.72449</ele>
        <time>2020-08-14T07:47:36.366Z</time>
      </trkpt>
      <trkpt lat="65.89309" lon="12.4262">
        <ele>45.588152</ele>
        <time>2020-08-14T07:47:38.375Z</time>
      </trkpt>
      <trkpt lat="65.89302" lon="12.426">
        <ele>45.445193</ele>
        <time>2020-08-14T07:47:40.328Z</time>
      </trkpt>
      <trkpt lat="65.89294" lon="12.42579">
        <ele>45.29847</ele>
        <time>2020-08-14T07:47:42.349Z</time>
      </trkpt>
      <trkpt lat="65.89287" lon="12.42558">
        <ele>45.151003</ele>
        <time>2020-08-14T07:47:44.379Z</time>
      </trkpt>
      <trkpt lat="65.8928" lon="12.42537">
        <ele>45.008888</ele>
        <time>2020-08-14T07:47:46.355Z</time>
      </trkpt>
      <trkpt lat="65.89273" lon="12.42518">
        <ele>44.870287</ele>
        <time>2020-08-14T07:47:48.335Z</time>
      </trkpt>
      <trkpt lat="65.89266" lon="12.42497">
        <ele>44.72779</ele>
        <time>2020-08-14T07:47:50.341Z</time>
      </trkpt>
      <trkpt lat="65.89259" lon="12.42476">
        <ele>44.586932</ele>
        <time>2020-08-14T07:47:52.353Z</time>
      </trkpt>
      <trkpt lat="65.89253" lon="12.42456">
        <ele>44.449964</ele>
        <time>2020-08-14T07:47:54.354Z</time>
      </trkpt>
      <trkpt lat="65.89247" lon="12.42436">
        <ele>44.322261</ele>
        <time>2020-08-14T07:47:56.360Z</time>
      </trkpt>
      <trkpt lat="65.89242" lon="12.42416">
        <ele>44.197619</ele>
        <time>2020-08-14T07:47:58.342Z</time>
      </trkpt>
      <trkpt lat="65.89237" lon="12.42397">
        <ele>44.20062</ele>
        <time>2020-08-14T07:48:00.366Z</time>
      </trkpt>
      <trkpt lat="65.89231" lon="12.42368">
        <ele>44.385228</ele>
        <time>2020-08-14T07:48:03.341Z</time>
      </trkpt>
      <trkpt lat="65.89225" lon="12.4234">
        <ele>44.564883</ele>
        <time>2020-08-14T07:48:06.379Z</time>
      </trkpt>
      <trkpt lat="65.8922" lon="12.42313">
        <ele>44.73699</ele>
        <time>2020-08-14T07:48:09.358Z</time>
      </trkpt>
      <trkpt lat="65.89215" lon="12.42285">
        <ele>44.906421</ele>
        <time>2020-08-14T07:48:12.362Z</time>
      </trkpt>
      <trkpt lat="65.89211" lon="12.42258">
        <ele>45.070603</ele>
        <time>2020-08-14T07:48:15.371Z</time>
      </trkpt>
      <trkpt lat="65.89207" lon="12.42231">
        <ele>45.233814</ele>
        <time>2020-08-14T07:48:18.343Z</time>
      </trkpt>
      <trkpt lat="65.89203" lon="12.42203">
        <ele>45.398303</ele>
        <time>2020-08-14T07:48:21.361Z</time>
      </trkpt>
      <trkpt lat="65.89199" lon="12.42178">
        <ele>45.552165</ele>
        <time>2020-08-14T07:48:24.358Z</time>
      </trkpt>
      <trkpt lat="65.89195" lon="12.42153">
        <ele>45.703265</ele>
        <time>2020-08-14T07:48:27.364Z</time>
      </trkpt>
      <trkpt lat="65.89192" lon="12.42127">
        <ele>45.858661</ele>
        <time>2020-08-14T07:48:30.353Z</time>
      </trkpt>
      <trkpt lat="65.89188" lon="12.42101">
        <ele>46.015065</ele>
        <time>2020-08-14T07:48:33.402Z</time>
      </trkpt>
      <trkpt lat="65.89184" lon="12.42075">
        <ele>46.17169</ele>
        <time>2020-08-14T07:48:36.374Z</time>
      </trkpt>
      <trkpt lat="65.8918" lon="12.42049">
        <ele>46.326554</ele>
        <time>2020-08-14T07:48:39.354Z</time>
      </trkpt>
      <trkpt lat="65.89176" lon="12.42025">
        <ele>46.474998</ele>
        <time>2020-08-14T07:48:42.358Z</time>
      </trkpt>
      <trkpt lat="65.89173" lon="12.42001">
        <ele>46.615355</ele>
        <time>2020-08-14T07:48:45.353Z</time>
      </trkpt>
      <trkpt lat="65.89169" lon="12.41978">
        <ele>46.865589</ele>
        <time>2020-08-14T07:48:48.351Z</time>
      </trkpt>
      <trkpt lat="65.89166" lon="12.41954">
        <ele>47.133694</ele>
        <time>2020-08-14T07:48:51.361Z</time>
      </trkpt>
      <trkpt lat="65.89162" lon="12.4193">
        <ele>47.39734</ele>
        <time>2020-08-14T07:48:54.384Z</time>
      </trkpt>
      <trkpt lat="65.89159" lon="12.41905">
        <ele>47.676167</ele>
        <time>2020-08-14T07:48:57.364Z</time>
      </trkpt>
      <trkpt lat="65.89155" lon="12.41882">
        <ele>47.935597</ele>
        <time>2020-08-14T07:49:00.349Z</time>
      </trkpt>
      <trkpt lat="65.89152" lon="12.41858">
        <ele>48.200939</ele>
        <time>2020-08-14T07:49:03.352Z</time>
      </trkpt>
      <trkpt lat="65.89148" lon="12.41834">
        <ele>48.469046</ele>
        <time>2020-08-14T07:49:06.343Z</time>
      </trkpt>
      <trkpt lat="65.89144" lon="12.4181">
        <ele>48.746001</ele>
        <time>2020-08-14T07:49:09.353Z</time>
      </trkpt>
      <trkpt lat="65.89141" lon="12.41786">
        <ele>49.011242</ele>
        <time>2020-08-14T07:49:12.349Z</time>
      </trkpt>
      <trkpt lat="65.89137" lon="12.41763">
        <ele>49.266958</ele>
        <time>2020-08-14T07:49:15.374Z</time>
      </trkpt>
      <trkpt lat="65.89134" lon="12.41741">
        <ele>49.518484</ele>
        <time>2020-08-14T07:49:18.356Z</time>
      </trkpt>
      <trkpt lat="65.8913" lon="12.41716">
        <ele>49.791899</ele>
        <time>2020-08-14T07:49:21.356Z</time>
      </trkpt>
      <trkpt lat="65.89126" lon="12.41692">
        <ele>50.064982</ele>
        <time>2020-08-14T07:49:24.343Z</time>
      </trkpt>
      <trkpt lat="65.89122" lon="12.41668">
        <ele>50.34008</ele>
        <time>2020-08-14T07:49:27.348Z</time>
      </trkpt>
      <trkpt lat="65.89118" lon="12.41644">
        <ele>50.603255</ele>
        <time>2020-08-14T07:49:30.341Z</time>
      </trkpt>
      <trkpt lat="65.89115" lon="12.41621">
        <ele>50.857984</ele>
        <time>2020-08-14T07:49:33.364Z</time>
      </trkpt>
      <trkpt lat="65.89112" lon="12.41598">
        <ele>51.119648</ele>
        <time>2020-08-14T07:49:36.355Z</time>
      </trkpt>
      <trkpt lat="65.89108" lon="12.41574">
        <ele>51.614584</ele>
        <time>2020-08-14T07:49:39.343Z</time>
      </trkpt>
      <trkpt lat="65.89105" lon="12.41549">
        <ele>52.316779</ele>
        <time>2020-08-14T07:49:42.396Z</time>
      </trkpt>
      <trkpt lat="65.89103" lon="12.41527">
        <ele>52.970702</ele>
        <time>2020-08-14T07:49:45.366Z</time>
      </trkpt>
      <trkpt lat="65.891" lon="12.41504">
        <ele>53.611283</ele>
        <time>2020-08-14T07:49:48.372Z</time>
      </trkpt>
      <trkpt lat="65.89097" lon="12.41478">
        <ele>54.366889</ele>
        <time>2020-08-14T07:49:52.395Z</time>
      </trkpt>
      <trkpt lat="65.89095" lon="12.41453">
        <ele>55.083245</ele>
        <time>2020-08-14T07:49:56.350Z</time>
      </trkpt>
      <trkpt lat="65.89093" lon="12.41427">
        <ele>55.819821</ele>
        <time>2020-08-14T07:50:00.343Z</time>
      </trkpt>
      <trkpt lat="65.89091" lon="12.414">
        <ele>56.570431</ele>
        <time>2020-08-14T07:50:04.388Z</time>
      </trkpt>
      <trkpt lat="65.8909" lon="12.41376">
        <ele>57.238347</ele>
        <time>2020-08-14T07:50:08.429Z</time>
      </trkpt>
      <trkpt lat="65.89089" lon="12.41354">
        <ele>57.868882</ele>
        <time>2020-08-14T07:50:12.365Z</time>
      </trkpt>
      <trkpt lat="65.89088" lon="12.41329">
        <ele>58.548432</ele>
        <time>2020-08-14T07:50:16.347Z</time>
      </trkpt>
      <trkpt lat="65.89087" lon="12.41305">
        <ele>59.215379</ele>
        <time>2020-08-14T07:50:20.349Z</time>
      </trkpt>
      <trkpt lat="65.89087" lon="12.41279">
        <ele>59.956096</ele>
        <time>2020-08-14T07:50:25.372Z</time>
      </trkpt>
      <trkpt lat="65.89088" lon="12.41256">
        <ele>60.577751</ele>
        <time>2020-08-14T07:50:29.361Z</time>
      </trkpt>
      <trkpt lat="65.89088" lon="12.41231">
        <ele>61.293669</ele>
        <time>2020-08-14T07:50:34.342Z</time>
      </trkpt>
      <trkpt lat="65.89089" lon="12.41206">
        <ele>61.98535</ele>
        <time>2020-08-14T07:50:39.344Z</time>
      </trkpt>
      <trkpt lat="65.8909" lon="12.41183">
        <ele>62.625745</ele>
        <time>2020-08-14T07:50:43.357Z</time>
      </trkpt>
      <trkpt lat="65.89092" lon="12.41161">
        <ele>63.234646</ele>
        <time>2020-08-14T07:50:47.348Z</time>
      </trkpt>
      <trkpt lat="65.89094" lon="12.41137">
        <ele>63.62982</ele>
        <time>2020-08-14T07:50:51.359Z</time>
      </trkpt>
      <trkpt lat="65.89097" lon="12.41113">
        <ele>63.882193</ele>
        <time>2020-08-14T07:50:55.365Z</time>
      </trkpt>
      <trkpt lat="65.89101" lon="12.4109">
        <ele>64.125732</ele>
        <time>2020-08-14T07:50:59.346Z</time>
      </trkpt>
      <trkpt lat="65.89105" lon="12.41066">
        <ele>64.377192</ele>
        <time>2020-08-14T07:51:03.375Z</time>
      </trkpt>
      <trkpt lat="65.89109" lon="12.41045">
        <ele>64.61342</ele>
        <time>2020-08-14T07:51:07.351Z</time>
      </trkpt>
      <trkpt lat="65.89114" lon="12.41024">
        <ele>64.847392</ele>
        <time>2020-08-14T07:51:11.357Z</time>
      </trkpt>
      <trkpt lat="65.89119" lon="12.41001">
        <ele>65.114085</ele>
        <time>2020-08-14T07:51:15.358Z</time>
      </trkpt>
      <trkpt lat="65.89126" lon="12.40978">
        <ele>65.394358</ele>
        <time>2020-08-14T07:51:19.347Z</time>
      </trkpt>
      <trkpt lat="65.89132" lon="12.40958">
        <ele>65.639944</ele>
        <time>2020-08-14T07:51:23.361Z</time>
      </trkpt>
      <trkpt lat="65.89138" lon="12.40937">
        <ele>65.895646</ele>
        <time>2020-08-14T07:51:27.381Z</time>
      </trkpt>
      <trkpt lat="65.89145" lon="12.40917">
        <ele>66.162089</ele>
        <time>2020-08-14T07:51:31.342Z</time>
      </trkpt>
      <trkpt lat="65.89152" lon="12.40898">
        <ele>66.410285</ele>
        <time>2020-08-14T07:51:35.357Z</time>
      </trkpt>
      <trkpt lat="65.8916" lon="12.40881">
        <ele>66.663927</ele>
        <time>2020-08-14T07:51:39.356Z</time>
      </trkpt>
      <trkpt lat="65.89167" lon="12.40865">
        <ele>66.90536</ele>
        <time>2020-08-14T07:51:43.364Z</time>
      </trkpt>
      <trkpt lat="65.89175" lon="12.40849">
        <ele>67.149828</ele>
        <time>2020-08-14T07:51:47.369Z</time>
      </trkpt>
      <trkpt lat="65.89183" lon="12.40835">
        <ele>67.376798</ele>
        <time>2020-08-14T07:51:51.363Z</time>
      </trkpt>
      <trkpt lat="65.89191" lon="12.40821">
        <ele>67.636471</ele>
        <time>2020-08-14T07:51:55.364Z</time>
      </trkpt>
      <trkpt lat="65.89201" lon="12.40806">
        <ele>67.803528</ele>
        <time>2020-08-14T07:51:59.382Z</time>
      </trkpt>
      <trkpt lat="65.8921" lon="12.40793">
        <ele>67.706673</ele>
        <time>2020-08-14T07:52:03.374Z</time>
      </trkpt>
      <trkpt lat="65.89219" lon="12.40783">
        <ele>67.61629</ele>
        <time>2020-08-14T07:52:07.384Z</time>
      </trkpt>
      <trkpt lat="65.89229" lon="12.40774">
        <ele>67.523164</ele>
        <time>2020-08-14T07:52:11.343Z</time>
      </trkpt>
      <trkpt lat="65.8924" lon="12.40763">
        <ele>67.413246</ele>
        <time>2020-08-14T07:52:15.353Z</time>
      </trkpt>
      <trkpt lat="65.89249" lon="12.40757">
        <ele>67.328726</ele>
        <time>2020-08-14T07:52:18.350Z</time>
      </trkpt>
      <trkpt lat="65.89258" lon="12.40752">
        <ele>67.246379</ele>
        <time>2020-08-14T07:52:21.340Z</time>
      </trkpt>
      <trkpt lat="65.89268" lon="12.40745">
        <ele>67.149714</ele>
        <time>2020-08-14T07:52:24.338Z</time>
      </trkpt>
      <trkpt lat="65.89278" lon="12.40742">
        <ele>67.055489</ele>
        <time>2020-08-14T07:52:27.336Z</time>
      </trkpt>
      <trkpt lat="65.8929" lon="12.40738">
        <ele>66.950915</ele>
        <time>2020-08-14T07:52:30.375Z</time>
      </trkpt>
      <trkpt lat="65.89302" lon="12.40732">
        <ele>66.842339</ele>
        <time>2020-08-14T07:52:33.352Z</time>
      </trkpt>
      <trkpt lat="65.89314" lon="12.4073">
        <ele>66.730471</ele>
        <time>2020-08-14T07:52:36.371Z</time>
      </trkpt>
      <trkpt lat="65.89327" lon="12.40726">
        <ele>66.608059</ele>
        <time>2020-08-14T07:52:39.352Z</time>
      </trkpt>
      <trkpt lat="65.89337" lon="12.40723">
        <ele>66.522299</ele>
        <time>2020-08-14T07:52:41.339Z</time>
      </trkpt>
      <trkpt lat="65.89347" lon="12.40721">
        <ele>66.429516</ele>
        <time>2020-08-14T07:52:43.364Z</time>
      </trkpt>
      <trkpt lat="65.89358" lon="12.40718">
        <ele>66.329226</ele>
        <time>2020-08-14T07:52:45.354Z</time>
      </trkpt>
      <trkpt lat="65.89369" lon="12.40715">
        <ele>66.223676</ele>
        <time>2020-08-14T07:52:47.347Z</time>
      </trkpt>
      <trkpt lat="65.89382" lon="12.40712">
        <ele>65.604617</ele>
        <time>2020-08-14T07:52:49.375Z</time>
      </trkpt>
      <trkpt lat="65.89395" lon="12.40708">
        <ele>64.779678</ele>
        <time>2020-08-14T07:52:51.374Z</time>
      </trkpt>
      <trkpt lat="65.8941" lon="12.40704">
        <ele>63.905427</ele>
        <time>2020-08-14T07:52:53.366Z</time>
      </trkpt>
      <trkpt lat="65.89425" lon="12.40702">
        <ele>63.010496</ele>
        <time>2020-08-14T07:52:55.345Z</time>
      </trkpt>
      <trkpt lat="65.8944" lon="12.40698">
        <ele>62.046281</ele>
        <time>2020-08-14T07:52:57.341Z</time>
      </trkpt>
      <trkpt lat="65.89456" lon="12.40691">
        <ele>61.121404</ele>
        <time>2020-08-14T07:52:59.342Z</time>
      </trkpt>
      <trkpt lat="65.89471" lon="12.40684">
        <ele>60.146418</ele>
        <time>2020-08-14T07:53:01.373Z</time>
      </trkpt>
      <trkpt lat="65.89487" lon="12.40676">
        <ele>59.207487</ele>
        <time>2020-08-14T07:53:03.366Z</time>
      </trkpt>
      <trkpt lat="65.89501" lon="12.40666">
        <ele>58.286459</ele>
        <time>2020-08-14T07:53:05.361Z</time>
      </trkpt>
      <trkpt lat="65.89516" lon="12.40652">
        <ele>57.338776</ele>
        <time>2020-08-14T07:53:07.365Z</time>
      </trkpt>
      <trkpt lat="65.89532" lon="12.40636">
        <ele>56.323179</ele>
        <time>2020-08-14T07:53:09.410Z</time>
      </trkpt>
      <trkpt lat="65.89547" lon="12.40618">
        <ele>55.317021</ele>
        <time>2020-08-14T07:53:11.354Z</time>
      </trkpt>
      <trkpt lat="65.89562" lon="12.40599">
        <ele>54.563671</ele>
        <time>2020-08-14T07:53:13.391Z</time>
      </trkpt>
      <trkpt lat="65.89577" lon="12.40582">
        <ele>53.818169</ele>
        <time>2020-08-14T07:53:15.348Z</time>
      </trkpt>
      <trkpt lat="65.89592" lon="12.40563">
        <ele>53.095062</ele>
        <time>2020-08-14T07:53:17.359Z</time>
      </trkpt>
      <trkpt lat="65.89606" lon="12.40545">
        <ele>52.391531</ele>
        <time>2020-08-14T07:53:19.422Z</time>
      </trkpt>
      <trkpt lat="65.89619" lon="12.40528">
        <ele>51.735453</ele>
        <time>2020-08-14T07:53:21.352Z</time>
      </trkpt>
      <trkpt lat="65.89632" lon="12.40512">
        <ele>51.10309</ele>
        <time>2020-08-14T07:53:23.380Z</time>
      </trkpt>
      <trkpt lat="65.89644" lon="12.40496">
        <ele>50.513394</ele>
        <time>2020-08-14T07:53:25.373Z</time>
      </trkpt>
      <trkpt lat="65.89654" lon="12.40481">
        <ele>49.966033</ele>
        <time>2020-08-14T07:53:27.347Z</time>
      </trkpt>
      <trkpt lat="65.89664" lon="12.40467">
        <ele>49.454194</ele>
        <time>2020-08-14T07:53:29.370Z</time>
      </trkpt>
      <trkpt lat="65.89674" lon="12.40454">
        <ele>48.961304</ele>
        <time>2020-08-14T07:53:31.350Z</time>
      </trkpt>
      <trkpt lat="65.89684" lon="12.40442">
        <ele>48.467001</ele>
        <time>2020-08-14T07:53:33.356Z</time>
      </trkpt>
      <trkpt lat="65.89694" lon="12.40431">
        <ele>47.994045</ele>
        <time>2020-08-14T07:53:35.378Z</time>
      </trkpt>
      <trkpt lat="65.89703" lon="12.4042">
        <ele>47.533759</ele>
        <time>2020-08-14T07:53:37.348Z</time>
      </trkpt>
      <trkpt lat="65.89712" lon="12.40408">
        <ele>47.410261</ele>
        <time>2020-08-14T07:53:39.353Z</time>
      </trkpt>
      <trkpt lat="65.89721" lon="12.40397">
        <ele>47.399375</ele>
        <time>2020-08-14T07:53:41.385Z</time>
      </trkpt>
      <trkpt lat="65.89731" lon="12.40387">
        <ele>47.388461</ele>
        <time>2020-08-14T07:53:43.346Z</time>
      </trkpt>
      <trkpt lat="65.8974" lon="12.40377">
        <ele>47.377357</ele>
        <time>2020-08-14T07:53:45.349Z</time>
      </trkpt>
      <trkpt lat="65.8975" lon="12.40366">
        <ele>47.365802</ele>
        <time>2020-08-14T07:53:47.352Z</time>
      </trkpt>
      <trkpt lat="65.89759" lon="12.40355">
        <ele>47.35403</ele>
        <time>2020-08-14T07:53:49.376Z</time>
      </trkpt>
      <trkpt lat="65.8977" lon="12.40347">
        <ele>47.341755</ele>
        <time>2020-08-14T07:53:51.374Z</time>
      </trkpt>
      <trkpt lat="65.89781" lon="12.40339">
        <ele>47.329806</ele>
        <time>2020-08-14T07:53:53.357Z</time>
      </trkpt>
      <trkpt lat="65.89792" lon="12.40331">
        <ele>47.316725</ele>
        <time>2020-08-14T07:53:55.391Z</time>
      </trkpt>
      <trkpt lat="65.89804" lon="12.40326">
        <ele>47.30364</ele>
        <time>2020-08-14T07:53:57.364Z</time>
      </trkpt>
      <trkpt lat="65.89817" lon="12.40321">
        <ele>47.289725</ele>
        <time>2020-08-14T07:53:59.372Z</time>
      </trkpt>
      <trkpt lat="65.8983" lon="12.40318">
        <ele>47.274758</ele>
        <time>2020-08-14T07:54:01.350Z</time>
      </trkpt>
      <trkpt lat="65.89846" lon="12.40316">
        <ele>47.257645</ele>
        <time>2020-08-14T07:54:03.348Z</time>
      </trkpt>
      <trkpt lat="65.89863" lon="12.40317">
        <ele>47.239581</ele>
        <time>2020-08-14T07:54:05.337Z</time>
      </trkpt>
      <trkpt lat="65.89881" lon="12.4032">
        <ele>47.207945</ele>
        <time>2020-08-14T07:54:07.356Z</time>
      </trkpt>
      <trkpt lat="65.89891" lon="12.40323">
        <ele>47.15762</ele>
        <time>2020-08-14T07:54:08.360Z</time>
      </trkpt>
      <trkpt lat="65.899" lon="12.40327">
        <ele>47.105886</ele>
        <time>2020-08-14T07:54:09.356Z</time>
      </trkpt>
      <trkpt lat="65.89911" lon="12.40332">
        <ele>47.051836</ele>
        <time>2020-08-14T07:54:10.391Z</time>
      </trkpt>
      <trkpt lat="65.89921" lon="12.40338">
        <ele>46.998587</ele>
        <time>2020-08-14T07:54:11.363Z</time>
      </trkpt>
      <trkpt lat="65.89931" lon="12.40344">
        <ele>46.944787</ele>
        <time>2020-08-14T07:54:12.351Z</time>
      </trkpt>
      <trkpt lat="65.8994" lon="12.40351">
        <ele>46.891936</ele>
        <time>2020-08-14T07:54:13.389Z</time>
      </trkpt>
      <trkpt lat="65.8995" lon="12.40358">
        <ele>46.839042</ele>
        <time>2020-08-14T07:54:14.353Z</time>
      </trkpt>
      <trkpt lat="65.89959" lon="12.40366">
        <ele>46.7875</ele>
        <time>2020-08-14T07:54:15.354Z</time>
      </trkpt>
      <trkpt lat="65.89969" lon="12.40374">
        <ele>46.735891</ele>
        <time>2020-08-14T07:54:16.362Z</time>
      </trkpt>
      <trkpt lat="65.89978" lon="12.40381">
        <ele>46.685266</ele>
        <time>2020-08-14T07:54:17.371Z</time>
      </trkpt>
      <trkpt lat="65.89987" lon="12.4039">
        <ele>46.635819</ele>
        <time>2020-08-14T07:54:18.355Z</time>
      </trkpt>
      <trkpt lat="65.89996" lon="12.40398">
        <ele>46.587009</ele>
        <time>2020-08-14T07:54:19.359Z</time>
      </trkpt>
      <trkpt lat="65.90004" lon="12.40405">
        <ele>46.540309</ele>
        <time>2020-08-14T07:54:20.350Z</time>
      </trkpt>
      <trkpt lat="65.90021" lon="12.40419">
        <ele>46.450059</ele>
        <time>2020-08-14T07:54:22.370Z</time>
      </trkpt>
      <trkpt lat="65.90036" lon="12.40433">
        <ele>46.366471</ele>
        <time>2020-08-14T07:54:24.412Z</time>
      </trkpt>
      <trkpt lat="65.9005" lon="12.40446">
        <ele>46.287348</ele>
        <time>2020-08-14T07:54:26.346Z</time>
      </trkpt>
      <trkpt lat="65.90064" lon="12.40458">
        <ele>46.266627</ele>
        <time>2020-08-14T07:54:28.353Z</time>
      </trkpt>
      <trkpt lat="65.90077" lon="12.4047">
        <ele>46.246543</ele>
        <time>2020-08-14T07:54:30.356Z</time>
      </trkpt>
      <trkpt lat="65.90089" lon="12.40482">
        <ele>46.227968</ele>
        <time>2020-08-14T07:54:32.351Z</time>
      </trkpt>
      <trkpt lat="65.90101" lon="12.40492">
        <ele>46.209848</ele>
        <time>2020-08-14T07:54:34.399Z</time>
      </trkpt>
      <trkpt lat="65.90112" lon="12.40504">
        <ele>46.192309</ele>
        <time>2020-08-14T07:54:36.352Z</time>
      </trkpt>
      <trkpt lat="65.90123" lon="12.40514">
        <ele>46.175957</ele>
        <time>2020-08-14T07:54:38.341Z</time>
      </trkpt>
      <trkpt lat="65.90133" lon="12.40524">
        <ele>46.160952</ele>
        <time>2020-08-14T07:54:40.344Z</time>
      </trkpt>
      <trkpt lat="65.90142" lon="12.40533">
        <ele>46.146473</ele>
        <time>2020-08-14T07:54:42.341Z</time>
      </trkpt>
      <trkpt lat="65.9015" lon="12.40543">
        <ele>46.133204</ele>
        <time>2020-08-14T07:54:44.342Z</time>
      </trkpt>
      <trkpt lat="65.90162" lon="12.40553">
        <ele>46.115638</ele>
        <time>2020-08-14T07:54:47.348Z</time>
      </trkpt>
      <trkpt lat="65.90171" lon="12.40564">
        <ele>46.101041</ele>
        <time>2020-08-14T07:54:50.382Z</time>
      </trkpt>
      <trkpt lat="65.9018" lon="12.40574">
        <ele>46.08773</ele>
        <time>2020-08-14T07:54:53.360Z</time>
      </trkpt>
      <trkpt lat="65.9019" lon="12.40585">
        <ele>46.071494</ele>
        <time>2020-08-14T07:54:57.370Z</time>
      </trkpt>
      <trkpt lat="65.902" lon="12.40599">
        <ele>46.054742</ele>
        <time>2020-08-14T07:55:01.364Z</time>
      </trkpt>
      <trkpt lat="65.90211" lon="12.40612">
        <ele>46.038297</ele>
        <time>2020-08-14T07:55:05.344Z</time>
      </trkpt>
      <trkpt lat="65.9022" lon="12.40625">
        <ele>46.34894</ele>
        <time>2020-08-14T07:55:09.368Z</time>
      </trkpt>
      <trkpt lat="65.90229" lon="12.4064">
        <ele>46.954268</ele>
        <time>2020-08-14T07:55:13.382Z</time>
      </trkpt>
      <trkpt lat="65.90239" lon="12.40655">
        <ele>47.574686</ele>
        <time>2020-08-14T07:55:17.402Z</time>
      </trkpt>
      <trkpt lat="65.90248" lon="12.40673">
        <ele>48.227009</ele>
        <time>2020-08-14T07:55:21.361Z</time>
      </trkpt>
      <trkpt lat="65.90255" lon="12.40686">
        <ele>48.727734</ele>
        <time>2020-08-14T07:55:24.387Z</time>
      </trkpt>
      <trkpt lat="65.90263" lon="12.407">
        <ele>49.256416</ele>
        <time>2020-08-14T07:55:27.349Z</time>
      </trkpt>
      <trkpt lat="65.90271" lon="12.40715">
        <ele>49.807081</ele>
        <time>2020-08-14T07:55:30.342Z</time>
      </trkpt>
      <trkpt lat="65.90278" lon="12.40729">
        <ele>50.302844</ele>
        <time>2020-08-14T07:55:33.371Z</time>
      </trkpt>
      <trkpt lat="65.90285" lon="12.40744">
        <ele>50.850052</ele>
        <time>2020-08-14T07:55:36.373Z</time>
      </trkpt>
      <trkpt lat="65.90294" lon="12.40761">
        <ele>51.458706</ele>
        <time>2020-08-14T07:55:39.368Z</time>
      </trkpt>
      <trkpt lat="65.90303" lon="12.40777">
        <ele>52.066456</ele>
        <time>2020-08-14T07:55:42.365Z</time>
      </trkpt>
      <trkpt lat="65.90311" lon="12.40793">
        <ele>52.646538</ele>
        <time>2020-08-14T07:55:45.345Z</time>
      </trkpt>
      <trkpt lat="65.9032" lon="12.40811">
        <ele>53.273725</ele>
        <time>2020-08-14T07:55:48.349Z</time>
      </trkpt>
      <trkpt lat="65.90329" lon="12.40829">
        <ele>53.950993</ele>
        <time>2020-08-14T07:55:51.368Z</time>
      </trkpt>
      <trkpt lat="65.9034" lon="12.40849">
        <ele>54.692038</ele>
        <time>2020-08-14T07:55:54.359Z</time>
      </trkpt>
      <trkpt lat="65.90348" lon="12.4086">
        <ele>55.209915</ele>
        <time>2020-08-14T07:55:56.376Z</time>
      </trkpt>
      <trkpt lat="65.90356" lon="12.40873">
        <ele>55.730152</ele>
        <time>2020-08-14T07:55:58.355Z</time>
      </trkpt>
      <trkpt lat="65.90366" lon="12.40887">
        <ele>56.025367</ele>
        <time>2020-08-14T07:56:00.368Z</time>
      </trkpt>
      <trkpt lat="65.90377" lon="12.40902">
        <ele>56.10009</ele>
        <time>2020-08-14T07:56:02.387Z</time>
      </trkpt>
      <trkpt lat="65.90388" lon="12.40915">
        <ele>56.175694</ele>
        <time>2020-08-14T07:56:04.349Z</time>
      </trkpt>
      <trkpt lat="65.90399" lon="12.40928">
        <ele>56.247415</ele>
        <time>2020-08-14T07:56:06.343Z</time>
      </trkpt>
      <trkpt lat="65.9041" lon="12.40941">
        <ele>56.319891</ele>
        <time>2020-08-14T07:56:08.396Z</time>
      </trkpt>
      <trkpt lat="65.90421" lon="12.40954">
        <ele>56.39258</ele>
        <time>2020-08-14T07:56:10.349Z</time>
      </trkpt>
      <trkpt lat="65.90432" lon="12.40968">
        <ele>56.468285</ele>
        <time>2020-08-14T07:56:12.364Z</time>
      </trkpt>
      <trkpt lat="65.90443" lon="12.40982">
        <ele>56.543368</ele>
        <time>2020-08-14T07:56:14.375Z</time>
      </trkpt>
      <trkpt lat="65.90454" lon="12.40997">
        <ele>56.617447</ele>
        <time>2020-08-14T07:56:16.366Z</time>
      </trkpt>
      <trkpt lat="65.90464" lon="12.41012">
        <ele>56.687626</ele>
        <time>2020-08-14T07:56:18.356Z</time>
      </trkpt>
      <trkpt lat="65.90474" lon="12.41028">
        <ele>56.75951</ele>
        <time>2020-08-14T07:56:20.351Z</time>
      </trkpt>
      <trkpt lat="65.90484" lon="12.41045">
        <ele>56.831369</ele>
        <time>2020-08-14T07:56:22.342Z</time>
      </trkpt>
      <trkpt lat="65.90493" lon="12.41062">
        <ele>56.899879</ele>
        <time>2020-08-14T07:56:24.371Z</time>
      </trkpt>
      <trkpt lat="65.90502" lon="12.41079">
        <ele>56.96521</ele>
        <time>2020-08-14T07:56:26.352Z</time>
      </trkpt>
      <trkpt lat="65.9051" lon="12.41096">
        <ele>57.02871</ele>
        <time>2020-08-14T07:56:28.336Z</time>
      </trkpt>
      <trkpt lat="65.90517" lon="12.41112">
        <ele>57.076862</ele>
        <time>2020-08-14T07:56:30.361Z</time>
      </trkpt>
      <trkpt lat="65.90524" lon="12.41128">
        <ele>57.110193</ele>
        <time>2020-08-14T07:56:32.357Z</time>
      </trkpt>
      <trkpt lat="65.90531" lon="12.41145">
        <ele>57.142251</ele>
        <time>2020-08-14T07:56:34.352Z</time>
      </trkpt>
      <trkpt lat="65.90538" lon="12.41161">
        <ele>57.174068</ele>
        <time>2020-08-14T07:56:36.338Z</time>
      </trkpt>
      <trkpt lat="65.90547" lon="12.41183">
        <ele>57.217992</ele>
        <time>2020-08-14T07:56:39.375Z</time>
      </trkpt>
      <trkpt lat="65.90556" lon="12.41206">
        <ele>57.261809</ele>
        <time>2020-08-14T07:56:42.383Z</time>
      </trkpt>
      <trkpt lat="65.90566" lon="12.41227">
        <ele>57.304489</ele>
        <time>2020-08-14T07:56:45.360Z</time>
      </trkpt>
      <trkpt lat="65.90575" lon="12.41246">
        <ele>57.344598</ele>
        <time>2020-08-14T07:56:48.358Z</time>
      </trkpt>
      <trkpt lat="65.90583" lon="12.41265">
        <ele>57.384524</ele>
        <time>2020-08-14T07:56:51.341Z</time>
      </trkpt>
      <trkpt lat="65.90592" lon="12.41284">
        <ele>57.423946</ele>
        <time>2020-08-14T07:56:54.380Z</time>
      </trkpt>
      <trkpt lat="65.90601" lon="12.413">
        <ele>57.46002</ele>
        <time>2020-08-14T07:56:57.375Z</time>
      </trkpt>
      <trkpt lat="65.90609" lon="12.41317">
        <ele>57.497837</ele>
        <time>2020-08-14T07:57:00.369Z</time>
      </trkpt>
      <trkpt lat="65.90619" lon="12.41334">
        <ele>57.537764</ele>
        <time>2020-08-14T07:57:03.364Z</time>
      </trkpt>
      <trkpt lat="65.90628" lon="12.41351">
        <ele>57.576484</ele>
        <time>2020-08-14T07:57:06.383Z</time>
      </trkpt>
      <trkpt lat="65.90638" lon="12.41368">
        <ele>57.616863</ele>
        <time>2020-08-14T07:57:09.344Z</time>
      </trkpt>
      <trkpt lat="65.90647" lon="12.41384">
        <ele>57.65371</ele>
        <time>2020-08-14T07:57:12.357Z</time>
      </trkpt>
      <trkpt lat="65.90656" lon="12.41398">
        <ele>57.813635</ele>
        <time>2020-08-14T07:57:15.355Z</time>
      </trkpt>
      <trkpt lat="65.90665" lon="12.41413">
        <ele>58.062523</ele>
        <time>2020-08-14T07:57:18.363Z</time>
      </trkpt>
      <trkpt lat="65.90675" lon="12.41428">
        <ele>58.315712</ele>
        <time>2020-08-14T07:57:21.347Z</time>
      </trkpt>
      <trkpt lat="65.90685" lon="12.41443">
        <ele>58.573605</ele>
        <time>2020-08-14T07:57:24.370Z</time>
      </trkpt>
      <trkpt lat="65.90695" lon="12.41458">
        <ele>58.837643</ele>
        <time>2020-08-14T07:57:27.345Z</time>
      </trkpt>
      <trkpt lat="65.90705" lon="12.41473">
        <ele>59.10635</ele>
        <time>2020-08-14T07:57:30.349Z</time>
      </trkpt>
      <trkpt lat="65.90716" lon="12.41487">
        <ele>59.362951</ele>
        <time>2020-08-14T07:57:33.355Z</time>
      </trkpt>
      <trkpt lat="65.90725" lon="12.41501">
        <ele>59.61561</ele>
        <time>2020-08-14T07:57:36.342Z</time>
      </trkpt>
      <trkpt lat="65.90735" lon="12.41515">
        <ele>59.858811</ele>
        <time>2020-08-14T07:57:39.345Z</time>
      </trkpt>
      <trkpt lat="65.90744" lon="12.4153">
        <ele>60.107675</ele>
        <time>2020-08-14T07:57:42.353Z</time>
      </trkpt>
      <trkpt lat="65.90755" lon="12.41544">
        <ele>60.368435</ele>
        <time>2020-08-14T07:57:45.359Z</time>
      </trkpt>
      <trkpt lat="65.90765" lon="12.41559">
        <ele>60.630103</ele>
        <time>2020-08-14T07:57:48.344Z</time>
      </trkpt>
      <trkpt lat="65.90775" lon="12.41573">
        <ele>60.88842</ele>
        <time>2020-08-14T07:57:51.357Z</time>
      </trkpt>
      <trkpt lat="65.90785" lon="12.41588">
        <ele>61.149566</ele>
        <time>2020-08-14T07:57:54.379Z</time>
      </trkpt>
      <trkpt lat="65.90796" lon="12.41603">
        <ele>61.424556</ele>
        <time>2020-08-14T07:57:57.373Z</time>
      </trkpt>
      <trkpt lat="65.90807" lon="12.41619">
        <ele>61.634618</ele>
        <time>2020-08-14T07:58:00.353Z</time>
      </trkpt>
      <trkpt lat="65.90817" lon="12.41635">
        <ele>61.548629</ele>
        <time>2020-08-14T07:58:03.387Z</time>
      </trkpt>
      <trkpt lat="65.90827" lon="12.41649">
        <ele>61.468059</ele>
        <time>2020-08-14T07:58:06.358Z</time>
      </trkpt>
      <trkpt lat="65.90837" lon="12.41665">
        <ele>61.381329</ele>
        <time>2020-08-14T07:58:09.372Z</time>
      </trkpt>
      <trkpt lat="65.90848" lon="12.4168">
        <ele>61.291426</ele>
        <time>2020-08-14T07:58:12.354Z</time>
      </trkpt>
      <trkpt lat="65.90859" lon="12.41697">
        <ele>61.200337</ele>
        <time>2020-08-14T07:58:15.373Z</time>
      </trkpt>
      <trkpt lat="65.9087" lon="12.41713">
        <ele>61.112706</ele>
        <time>2020-08-14T07:58:18.342Z</time>
      </trkpt>
      <trkpt lat="65.90881" lon="12.41729">
        <ele>61.023117</ele>
        <time>2020-08-14T07:58:21.367Z</time>
      </trkpt>
      <trkpt lat="65.90892" lon="12.41745">
        <ele>60.934132</ele>
        <time>2020-08-14T07:58:24.364Z</time>
      </trkpt>
      <trkpt lat="65.90903" lon="12.41761">
        <ele>60.84469</ele>
        <time>2020-08-14T07:58:27.341Z</time>
      </trkpt>
      <trkpt lat="65.90914" lon="12.41777">
        <ele>60.753135</ele>
        <time>2020-08-14T07:58:30.372Z</time>
      </trkpt>
      <trkpt lat="65.90925" lon="12.41795">
        <ele>60.657977</ele>
        <time>2020-08-14T07:58:33.381Z</time>
      </trkpt>
      <trkpt lat="65.90936" lon="12.41812">
        <ele>60.564485</ele>
        <time>2020-08-14T07:58:36.396Z</time>
      </trkpt>
      <trkpt lat="65.90947" lon="12.41828">
        <ele>60.473697</ele>
        <time>2020-08-14T07:58:39.355Z</time>
      </trkpt>
      <trkpt lat="65.90959" lon="12.41845">
        <ele>60.391238</ele>
        <time>2020-08-14T07:58:42.373Z</time>
      </trkpt>
      <trkpt lat="65.9097" lon="12.41863">
        <ele>60.525143</ele>
        <time>2020-08-14T07:58:45.356Z</time>
      </trkpt>
      <trkpt lat="65.90981" lon="12.4188">
        <ele>60.656957</ele>
        <time>2020-08-14T07:58:48.350Z</time>
      </trkpt>
      <trkpt lat="65.90992" lon="12.41898">
        <ele>60.789844</ele>
        <time>2020-08-14T07:58:51.356Z</time>
      </trkpt>
      <trkpt lat="65.91003" lon="12.41917">
        <ele>60.924361</ele>
        <time>2020-08-14T07:58:54.362Z</time>
      </trkpt>
      <trkpt lat="65.91013" lon="12.41936">
        <ele>61.058272</ele>
        <time>2020-08-14T07:58:57.377Z</time>
      </trkpt>
      <trkpt lat="65.91024" lon="12.41956">
        <ele>61.192818</ele>
        <time>2020-08-14T07:59:00.352Z</time>
      </trkpt>
      <trkpt lat="65.91031" lon="12.4197">
        <ele>61.286321</ele>
        <time>2020-08-14T07:59:02.364Z</time>
      </trkpt>
      <trkpt lat="65.91038" lon="12.41984">
        <ele>61.379827</ele>
        <time>2020-08-14T07:59:04.349Z</time>
      </trkpt>
      <trkpt lat="65.91045" lon="12.41997">
        <ele>61.471867</ele>
        <time>2020-08-14T07:59:06.354Z</time>
      </trkpt>
      <trkpt lat="65.91055" lon="12.42017">
        <ele>61.596584</ele>
        <time>2020-08-14T07:59:09.382Z</time>
      </trkpt>
      <trkpt lat="65.91064" lon="12.42038">
        <ele>61.722096</ele>
        <time>2020-08-14T07:59:12.346Z</time>
      </trkpt>
      <trkpt lat="65.91073" lon="12.42059">
        <ele>61.849482</ele>
        <time>2020-08-14T07:59:15.369Z</time>
      </trkpt>
      <trkpt lat="65.91082" lon="12.42081">
        <ele>61.975723</ele>
        <time>2020-08-14T07:59:18.374Z</time>
      </trkpt>
      <trkpt lat="65.9109" lon="12.42104">
        <ele>62.10308</ele>
        <time>2020-08-14T07:59:21.360Z</time>
      </trkpt>
      <trkpt lat="65.91097" lon="12.42128">
        <ele>62.197125</ele>
        <time>2020-08-14T07:59:24.370Z</time>
      </trkpt>
      <trkpt lat="65.91105" lon="12.42152">
        <ele>62.128903</ele>
        <time>2020-08-14T07:59:27.370Z</time>
      </trkpt>
      <trkpt lat="65.91113" lon="12.42178">
        <ele>62.058249</ele>
        <time>2020-08-14T07:59:30.371Z</time>
      </trkpt>
      <trkpt lat="65.91121" lon="12.42204">
        <ele>61.987977</ele>
        <time>2020-08-14T07:59:33.353Z</time>
      </trkpt>
      <trkpt lat="65.91128" lon="12.42229">
        <ele>61.919703</ele>
        <time>2020-08-14T07:59:36.349Z</time>
      </trkpt>
      <trkpt lat="65.91136" lon="12.42254">
        <ele>61.851133</ele>
        <time>2020-08-14T07:59:39.340Z</time>
      </trkpt>
      <trkpt lat="65.91143" lon="12.42279">
        <ele>61.783233</ele>
        <time>2020-08-14T07:59:42.377Z</time>
      </trkpt>
      <trkpt lat="65.9115" lon="12.42305">
        <ele>61.716245</ele>
        <time>2020-08-14T07:59:45.354Z</time>
      </trkpt>
      <trkpt lat="65.91157" lon="12.42328">
        <ele>61.652197</ele>
        <time>2020-08-14T07:59:48.371Z</time>
      </trkpt>
      <trkpt lat="65.91164" lon="12.42352">
        <ele>61.587476</ele>
        <time>2020-08-14T07:59:51.353Z</time>
      </trkpt>
      <trkpt lat="65.91171" lon="12.42377">
        <ele>61.520551</ele>
        <time>2020-08-14T07:59:54.354Z</time>
      </trkpt>
      <trkpt lat="65.91178" lon="12.42401">
        <ele>61.455209</ele>
        <time>2020-08-14T07:59:57.393Z</time>
      </trkpt>
      <trkpt lat="65.91186" lon="12.42423">
        <ele>61.392448</ele>
        <time>2020-08-14T08:00:00.363Z</time>
      </trkpt>
      <trkpt lat="65.91193" lon="12.42444">
        <ele>61.331037</ele>
        <time>2020-08-14T08:00:03.410Z</time>
      </trkpt>
      <trkpt lat="65.91201" lon="12.42467">
        <ele>61.263944</ele>
        <time>2020-08-14T08:00:06.341Z</time>
      </trkpt>
      <trkpt lat="65.9121" lon="12.42489">
        <ele>61.39234</ele>
        <time>2020-08-14T08:00:09.361Z</time>
      </trkpt>
      <trkpt lat="65.9122" lon="12.42511">
        <ele>61.634762</ele>
        <time>2020-08-14T08:00:12.351Z</time>
      </trkpt>
      <trkpt lat="65.91229" lon="12.42533">
        <ele>61.883264</ele>
        <time>2020-08-14T08:00:15.368Z</time>
      </trkpt>
      <trkpt lat="65.9124" lon="12.42554">
        <ele>62.13676</ele>
        <time>2020-08-14T08:00:18.359Z</time>
      </trkpt>
      <trkpt lat="65.91248" lon="12.42568">
        <ele>62.316319</ele>
        <time>2020-08-14T08:00:20.362Z</time>
      </trkpt>
      <trkpt lat="65.91255" lon="12.42583">
        <ele>62.503425</ele>
        <time>2020-08-14T08:00:22.362Z</time>
      </trkpt>
      <trkpt lat="65.91264" lon="12.42598">
        <ele>62.69722</ele>
        <time>2020-08-14T08:00:24.377Z</time>
      </trkpt>
      <trkpt lat="65.91272" lon="12.42612">
        <ele>62.882439</ele>
        <time>2020-08-14T08:00:26.370Z</time>
      </trkpt>
      <trkpt lat="65.9128" lon="12.42625">
        <ele>63.06877</ele>
        <time>2020-08-14T08:00:28.382Z</time>
      </trkpt>
      <trkpt lat="65.91289" lon="12.42639">
        <ele>63.25978</ele>
        <time>2020-08-14T08:00:30.347Z</time>
      </trkpt>
      <trkpt lat="65.91297" lon="12.42652">
        <ele>63.445895</ele>
        <time>2020-08-14T08:00:32.345Z</time>
      </trkpt>
      <trkpt lat="65.91306" lon="12.42665">
        <ele>63.636415</ele>
        <time>2020-08-14T08:00:34.359Z</time>
      </trkpt>
      <trkpt lat="65.91314" lon="12.42677">
        <ele>63.823365</ele>
        <time>2020-08-14T08:00:36.340Z</time>
      </trkpt>
      <trkpt lat="65.91323" lon="12.42689">
        <ele>64.012323</ele>
        <time>2020-08-14T08:00:38.348Z</time>
      </trkpt>
      <trkpt lat="65.91331" lon="12.42702">
        <ele>64.195648</ele>
        <time>2020-08-14T08:00:40.344Z</time>
      </trkpt>
      <trkpt lat="65.9134" lon="12.42714">
        <ele>64.382555</ele>
        <time>2020-08-14T08:00:42.371Z</time>
      </trkpt>
      <trkpt lat="65.91348" lon="12.42727">
        <ele>64.56346</ele>
        <time>2020-08-14T08:00:44.354Z</time>
      </trkpt>
      <trkpt lat="65.91356" lon="12.4274">
        <ele>64.628393</ele>
        <time>2020-08-14T08:00:46.401Z</time>
      </trkpt>
      <trkpt lat="65.91364" lon="12.42752">
        <ele>64.646364</ele>
        <time>2020-08-14T08:00:48.340Z</time>
      </trkpt>
      <trkpt lat="65.91372" lon="12.42765">
        <ele>64.664684</ele>
        <time>2020-08-14T08:00:50.391Z</time>
      </trkpt>
      <trkpt lat="65.9138" lon="12.42779">
        <ele>64.682853</ele>
        <time>2020-08-14T08:00:52.349Z</time>
      </trkpt>
      <trkpt lat="65.91387" lon="12.42792">
        <ele>64.700275</ele>
        <time>2020-08-14T08:00:54.341Z</time>
      </trkpt>
      <trkpt lat="65.91395" lon="12.42805">
        <ele>64.717786</ele>
        <time>2020-08-14T08:00:56.377Z</time>
      </trkpt>
      <trkpt lat="65.91402" lon="12.42818">
        <ele>64.735004</ele>
        <time>2020-08-14T08:00:58.369Z</time>
      </trkpt>
      <trkpt lat="65.91409" lon="12.42832">
        <ele>64.752516</ele>
        <time>2020-08-14T08:01:00.369Z</time>
      </trkpt>
      <trkpt lat="65.91416" lon="12.42847">
        <ele>64.770426</ele>
        <time>2020-08-14T08:01:02.393Z</time>
      </trkpt>
      <trkpt lat="65.91423" lon="12.42861">
        <ele>64.788034</ele>
        <time>2020-08-14T08:01:04.350Z</time>
      </trkpt>
      <trkpt lat="65.91433" lon="12.42883">
        <ele>64.813574</ele>
        <time>2020-08-14T08:01:07.394Z</time>
      </trkpt>
      <trkpt lat="65.91443" lon="12.42905">
        <ele>64.838532</ele>
        <time>2020-08-14T08:01:10.410Z</time>
      </trkpt>
      <trkpt lat="65.91451" lon="12.42927">
        <ele>64.862617</ele>
        <time>2020-08-14T08:01:13.400Z</time>
      </trkpt>
      <trkpt lat="65.9146" lon="12.4295">
        <ele>64.886555</ele>
        <time>2020-08-14T08:01:16.370Z</time>
      </trkpt>
      <trkpt lat="65.91468" lon="12.42973">
        <ele>64.910455</ele>
        <time>2020-08-14T08:01:19.398Z</time>
      </trkpt>
      <trkpt lat="65.91476" lon="12.42994">
        <ele>64.933464</ele>
        <time>2020-08-14T08:01:22.341Z</time>
      </trkpt>
      <trkpt lat="65.91484" lon="12.43015">
        <ele>64.956131</ele>
        <time>2020-08-14T08:01:25.361Z</time>
      </trkpt>
      <trkpt lat="65.91492" lon="12.43037">
        <ele>65.012502</ele>
        <time>2020-08-14T08:01:28.341Z</time>
      </trkpt>
      <trkpt lat="65.91501" lon="12.43057">
        <ele>65.074681</ele>
        <time>2020-08-14T08:01:31.342Z</time>
      </trkpt>
      <trkpt lat="65.91508" lon="12.43079">
        <ele>65.13448</ele>
        <time>2020-08-14T08:01:34.374Z</time>
      </trkpt>
      <trkpt lat="65.91516" lon="12.43099">
        <ele>65.192194</ele>
        <time>2020-08-14T08:01:37.350Z</time>
      </trkpt>
      <trkpt lat="65.91525" lon="12.43121">
        <ele>65.258164</ele>
        <time>2020-08-14T08:01:40.367Z</time>
      </trkpt>
      <trkpt lat="65.91533" lon="12.43144">
        <ele>65.322648</ele>
        <time>2020-08-14T08:01:43.350Z</time>
      </trkpt>
      <trkpt lat="65.91542" lon="12.43164">
        <ele>65.384235</ele>
        <time>2020-08-14T08:01:46.347Z</time>
      </trkpt>
      <trkpt lat="65.9155" lon="12.43185">
        <ele>65.44954</ele>
        <time>2020-08-14T08:01:49.361Z</time>
      </trkpt>
      <trkpt lat="65.91559" lon="12.43207">
        <ele>65.514314</ele>
        <time>2020-08-14T08:01:52.377Z</time>
      </trkpt>
      <trkpt lat="65.91569" lon="12.43228">
        <ele>65.583974</ele>
        <time>2020-08-14T08:01:55.345Z</time>
      </trkpt>
      <trkpt lat="65.91579" lon="12.4325">
        <ele>65.654053</ele>
        <time>2020-08-14T08:01:58.362Z</time>
      </trkpt>
      <trkpt lat="65.91586" lon="12.43264">
        <ele>65.70164</ele>
        <time>2020-08-14T08:02:00.363Z</time>
      </trkpt>
      <trkpt lat="65.91593" lon="12.43279">
        <ele>65.748955</ele>
        <time>2020-08-14T08:02:02.378Z</time>
      </trkpt>
      <trkpt lat="65.91601" lon="12.43292">
        <ele>65.795902</ele>
        <time>2020-08-14T08:02:04.393Z</time>
      </trkpt>
      <trkpt lat="65.91611" lon="12.4331">
        <ele>65.863599</ele>
        <time>2020-08-14T08:02:07.346Z</time>
      </trkpt>
      <trkpt lat="65.91623" lon="12.43329">
        <ele>66.043908</ele>
        <time>2020-08-14T08:02:10.373Z</time>
      </trkpt>
      <trkpt lat="65.91631" lon="12.43341">
        <ele>66.230966</ele>
        <time>2020-08-14T08:02:12.392Z</time>
      </trkpt>
      <trkpt lat="65.91638" lon="12.43353">
        <ele>66.414204</ele>
        <time>2020-08-14T08:02:14.373Z</time>
      </trkpt>
      <trkpt lat="65.91646" lon="12.43366">
        <ele>66.59987</ele>
        <time>2020-08-14T08:02:16.365Z</time>
      </trkpt>
      <trkpt lat="65.91654" lon="12.43378">
        <ele>66.780934</ele>
        <time>2020-08-14T08:02:18.354Z</time>
      </trkpt>
      <trkpt lat="65.91662" lon="12.4339">
        <ele>66.971437</ele>
        <time>2020-08-14T08:02:20.349Z</time>
      </trkpt>
      <trkpt lat="65.9167" lon="12.43402">
        <ele>67.162344</ele>
        <time>2020-08-14T08:02:22.368Z</time>
      </trkpt>
      <trkpt lat="65.91678" lon="12.43415">
        <ele>67.352968</ele>
        <time>2020-08-14T08:02:24.347Z</time>
      </trkpt>
      <trkpt lat="65.91686" lon="12.43428">
        <ele>67.544288</ele>
        <time>2020-08-14T08:02:26.396Z</time>
      </trkpt>
      <trkpt lat="65.91694" lon="12.4344">
        <ele>67.73091</ele>
        <time>2020-08-14T08:02:28.372Z</time>
      </trkpt>
      <trkpt lat="65.91702" lon="12.43452">
        <ele>67.925639</ele>
        <time>2020-08-14T08:02:30.355Z</time>
      </trkpt>
      <trkpt lat="65.9171" lon="12.43465">
        <ele>68.115355</ele>
        <time>2020-08-14T08:02:32.362Z</time>
      </trkpt>
      <trkpt lat="65.91718" lon="12.43478">
        <ele>68.310113</ele>
        <time>2020-08-14T08:02:34.361Z</time>
      </trkpt>
      <trkpt lat="65.91726" lon="12.4349">
        <ele>68.500614</ele>
        <time>2020-08-14T08:02:36.344Z</time>
      </trkpt>
      <trkpt lat="65.91734" lon="12.43502">
        <ele>68.685523</ele>
        <time>2020-08-14T08:02:38.356Z</time>
      </trkpt>
      <trkpt lat="65.91742" lon="12.43515">
        <ele>68.874028</ele>
        <time>2020-08-14T08:02:40.360Z</time>
      </trkpt>
      <trkpt lat="65.9175" lon="12.43528">
        <ele>69.072684</ele>
        <time>2020-08-14T08:02:42.362Z</time>
      </trkpt>
      <trkpt lat="65.91759" lon="12.43541">
        <ele>69.271263</ele>
        <time>2020-08-14T08:02:44.344Z</time>
      </trkpt>
      <trkpt lat="65.91766" lon="12.43553">
        <ele>69.458755</ele>
        <time>2020-08-14T08:02:46.368Z</time>
      </trkpt>
      <trkpt lat="65.91774" lon="12.43565">
        <ele>69.402011</ele>
        <time>2020-08-14T08:02:48.376Z</time>
      </trkpt>
      <trkpt lat="65.91782" lon="12.43578">
        <ele>69.270175</ele>
        <time>2020-08-14T08:02:50.343Z</time>
      </trkpt>
      <trkpt lat="65.91793" lon="12.43595">
        <ele>69.083387</ele>
        <time>2020-08-14T08:02:53.359Z</time>
      </trkpt>
      <trkpt lat="65.91801" lon="12.43608">
        <ele>68.955544</ele>
        <time>2020-08-14T08:02:55.364Z</time>
      </trkpt>
      <trkpt lat="65.91812" lon="12.43626">
        <ele>68.772055</ele>
        <time>2020-08-14T08:02:58.378Z</time>
      </trkpt>
      <trkpt lat="65.91823" lon="12.43646">
        <ele>68.584834</ele>
        <time>2020-08-14T08:03:01.369Z</time>
      </trkpt>
      <trkpt lat="65.91834" lon="12.43665">
        <ele>68.398619</ele>
        <time>2020-08-14T08:03:04.357Z</time>
      </trkpt>
      <trkpt lat="65.91844" lon="12.43686">
        <ele>68.211091</ele>
        <time>2020-08-14T08:03:07.386Z</time>
      </trkpt>
      <trkpt lat="65.91854" lon="12.43707">
        <ele>68.028574</ele>
        <time>2020-08-14T08:03:10.362Z</time>
      </trkpt>
      <trkpt lat="65.91863" lon="12.43729">
        <ele>67.855109</ele>
        <time>2020-08-14T08:03:13.363Z</time>
      </trkpt>
      <trkpt lat="65.91872" lon="12.43751">
        <ele>67.680837</ele>
        <time>2020-08-14T08:03:16.343Z</time>
      </trkpt>
      <trkpt lat="65.9188" lon="12.43774">
        <ele>67.505022</ele>
        <time>2020-08-14T08:03:19.354Z</time>
      </trkpt>
      <trkpt lat="65.91888" lon="12.438">
        <ele>67.320878</ele>
        <time>2020-08-14T08:03:22.362Z</time>
      </trkpt>
      <trkpt lat="65.91896" lon="12.43826">
        <ele>67.141225</ele>
        <time>2020-08-14T08:03:25.364Z</time>
      </trkpt>
      <trkpt lat="65.91903" lon="12.43853">
        <ele>66.969876</ele>
        <time>2020-08-14T08:03:28.356Z</time>
      </trkpt>
      <trkpt lat="65.91907" lon="12.43872">
        <ele>66.866047</ele>
        <time>2020-08-14T08:03:30.364Z</time>
      </trkpt>
      <trkpt lat="65.91912" lon="12.43893">
        <ele>66.755234</ele>
        <time>2020-08-14T08:03:32.358Z</time>
      </trkpt>
      <trkpt lat="65.91916" lon="12.43912">
        <ele>66.653096</ele>
        <time>2020-08-14T08:03:34.344Z</time>
      </trkpt>
      <trkpt lat="65.9192" lon="12.43933">
        <ele>66.549467</ele>
        <time>2020-08-14T08:03:36.372Z</time>
      </trkpt>
      <trkpt lat="65.91925" lon="12.43961">
        <ele>66.406271</ele>
        <time>2020-08-14T08:03:39.391Z</time>
      </trkpt>
      <trkpt lat="65.91929" lon="12.43981">
        <ele>66.304019</ele>
        <time>2020-08-14T08:03:41.359Z</time>
      </trkpt>
      <trkpt lat="65.91933" lon="12.4401">
        <ele>66.158037</ele>
        <time>2020-08-14T08:03:44.372Z</time>
      </trkpt>
      <trkpt lat="65.91938" lon="12.44038">
        <ele>66.020641</ele>
        <time>2020-08-14T08:03:47.380Z</time>
      </trkpt>
      <trkpt lat="65.91942" lon="12.44065">
        <ele>65.887916</ele>
        <time>2020-08-14T08:03:50.358Z</time>
      </trkpt>
      <trkpt lat="65.91946" lon="12.44092">
        <ele>65.754323</ele>
        <time>2020-08-14T08:03:53.370Z</time>
      </trkpt>
      <trkpt lat="65.9195" lon="12.4412">
        <ele>65.617048</ele>
        <time>2020-08-14T08:03:56.372Z</time>
      </trkpt>
      <trkpt lat="65.91956" lon="12.44145">
        <ele>65.482882</ele>
        <time>2020-08-14T08:03:59.370Z</time>
      </trkpt>
      <trkpt lat="65.9196" lon="12.44172">
        <ele>65.350212</ele>
        <time>2020-08-14T08:04:02.357Z</time>
      </trkpt>
      <trkpt lat="65.91965" lon="12.44195">
        <ele>65.228135</ele>
        <time>2020-08-14T08:04:05.356Z</time>
      </trkpt>
      <trkpt lat="65.91969" lon="12.44218">
        <ele>65.11349</ele>
        <time>2020-08-14T08:04:08.398Z</time>
      </trkpt>
      <trkpt lat="65.91973" lon="12.44241">
        <ele>64.997994</ele>
        <time>2020-08-14T08:04:11.359Z</time>
      </trkpt>
      <trkpt lat="65.91977" lon="12.44264">
        <ele>65.08316</ele>
        <time>2020-08-14T08:04:14.433Z</time>
      </trkpt>
      <trkpt lat="65.91981" lon="12.44286">
        <ele>65.245331</ele>
        <time>2020-08-14T08:04:17.357Z</time>
      </trkpt>
      <trkpt lat="65.91986" lon="12.44307">
        <ele>65.410161</ele>
        <time>2020-08-14T08:04:20.385Z</time>
      </trkpt>
      <trkpt lat="65.91989" lon="12.44331">
        <ele>65.58036</ele>
        <time>2020-08-14T08:04:23.343Z</time>
      </trkpt>
      <trkpt lat="65.91993" lon="12.44354">
        <ele>65.753069</ele>
        <time>2020-08-14T08:04:26.377Z</time>
      </trkpt>
      <trkpt lat="65.91997" lon="12.44377">
        <ele>65.921985</ele>
        <time>2020-08-14T08:04:29.346Z</time>
      </trkpt>
      <trkpt lat="65.92" lon="12.44401">
        <ele>66.094508</ele>
        <time>2020-08-14T08:04:32.357Z</time>
      </trkpt>
      <trkpt lat="65.92003" lon="12.44425">
        <ele>66.259031</ele>
        <time>2020-08-14T08:04:35.367Z</time>
      </trkpt>
      <trkpt lat="65.92005" lon="12.44449">
        <ele>66.428304</ele>
        <time>2020-08-14T08:04:38.361Z</time>
      </trkpt>
      <trkpt lat="65.92008" lon="12.44472">
        <ele>66.594137</ele>
        <time>2020-08-14T08:04:41.377Z</time>
      </trkpt>
      <trkpt lat="65.9201" lon="12.44495">
        <ele>66.752583</ele>
        <time>2020-08-14T08:04:44.361Z</time>
      </trkpt>
      <trkpt lat="65.92012" lon="12.44519">
        <ele>66.9184</ele>
        <time>2020-08-14T08:04:47.374Z</time>
      </trkpt>
      <trkpt lat="65.92012" lon="12.44545">
        <ele>67.097437</ele>
        <time>2020-08-14T08:04:50.361Z</time>
      </trkpt>
      <trkpt lat="65.92012" lon="12.44572">
        <ele>67.279465</ele>
        <time>2020-08-14T08:04:53.356Z</time>
      </trkpt>
      <trkpt lat="65.92013" lon="12.446">
        <ele>67.471627</ele>
        <time>2020-08-14T08:04:56.382Z</time>
      </trkpt>
      <trkpt lat="65.92014" lon="12.44629">
        <ele>67.669209</ele>
        <time>2020-08-14T08:04:59.348Z</time>
      </trkpt>
      <trkpt lat="65.92016" lon="12.44659">
        <ele>67.87357</ele>
        <time>2020-08-14T08:05:02.382Z</time>
      </trkpt>
      <trkpt lat="65.92017" lon="12.44689">
        <ele>67.830837</ele>
        <time>2020-08-14T08:05:05.356Z</time>
      </trkpt>
      <trkpt lat="65.92019" lon="12.44718">
        <ele>67.602772</ele>
        <time>2020-08-14T08:05:08.356Z</time>
      </trkpt>
      <trkpt lat="65.92021" lon="12.44749">
        <ele>67.360138</ele>
        <time>2020-08-14T08:05:11.350Z</time>
      </trkpt>
      <trkpt lat="65.92023" lon="12.44782">
        <ele>67.103974</ele>
        <time>2020-08-14T08:05:14.390Z</time>
      </trkpt>
      <trkpt lat="65.92025" lon="12.44804">
        <ele>66.928233</ele>
        <time>2020-08-14T08:05:16.367Z</time>
      </trkpt>
      <trkpt lat="65.92028" lon="12.44828">
        <ele>66.740319</ele>
        <time>2020-08-14T08:05:18.381Z</time>
      </trkpt>
      <trkpt lat="65.92031" lon="12.44853">
        <ele>66.542488</ele>
        <time>2020-08-14T08:05:20.352Z</time>
      </trkpt>
      <trkpt lat="65.92035" lon="12.44877">
        <ele>66.340606</ele>
        <time>2020-08-14T08:05:22.392Z</time>
      </trkpt>
      <trkpt lat="65.92039" lon="12.44903">
        <ele>66.126794</ele>
        <time>2020-08-14T08:05:24.372Z</time>
      </trkpt>
      <trkpt lat="65.92044" lon="12.44929">
        <ele>65.906438</ele>
        <time>2020-08-14T08:05:26.385Z</time>
      </trkpt>
      <trkpt lat="65.92049" lon="12.44955">
        <ele>65.682184</ele>
        <time>2020-08-14T08:05:28.360Z</time>
      </trkpt>
      <trkpt lat="65.92055" lon="12.44982">
        <ele>65.449586</ele>
        <time>2020-08-14T08:05:30.353Z</time>
      </trkpt>
      <trkpt lat="65.92062" lon="12.45008">
        <ele>65.210284</ele>
        <time>2020-08-14T08:05:32.378Z</time>
      </trkpt>
      <trkpt lat="65.92069" lon="12.45034">
        <ele>64.964572</ele>
        <time>2020-08-14T08:05:34.368Z</time>
      </trkpt>
      <trkpt lat="65.92078" lon="12.45061">
        <ele>64.700927</ele>
        <time>2020-08-14T08:05:36.397Z</time>
      </trkpt>
      <trkpt lat="65.92087" lon="12.45089">
        <ele>64.339073</ele>
        <time>2020-08-14T08:05:38.371Z</time>
      </trkpt>
      <trkpt lat="65.92096" lon="12.45118">
        <ele>63.881459</ele>
        <time>2020-08-14T08:05:40.381Z</time>
      </trkpt>
      <trkpt lat="65.92106" lon="12.45149">
        <ele>63.401833</ele>
        <time>2020-08-14T08:05:42.364Z</time>
      </trkpt>
      <trkpt lat="65.92116" lon="12.45181">
        <ele>62.898381</ele>
        <time>2020-08-14T08:05:44.369Z</time>
      </trkpt>
      <trkpt lat="65.92127" lon="12.45215">
        <ele>62.377618</ele>
        <time>2020-08-14T08:05:46.361Z</time>
      </trkpt>
      <trkpt lat="65.92138" lon="12.4525">
        <ele>61.832907</ele>
        <time>2020-08-14T08:05:48.379Z</time>
      </trkpt>
      <trkpt lat="65.92143" lon="12.45268">
        <ele>61.553518</ele>
        <time>2020-08-14T08:05:49.344Z</time>
      </trkpt>
      <trkpt lat="65.92149" lon="12.45286">
        <ele>61.266534</ele>
        <time>2020-08-14T08:05:50.376Z</time>
      </trkpt>
      <trkpt lat="65.92155" lon="12.45304">
        <ele>60.980509</ele>
        <time>2020-08-14T08:05:51.350Z</time>
      </trkpt>
      <trkpt lat="65.92162" lon="12.45321">
        <ele>60.700865</ele>
        <time>2020-08-14T08:05:52.364Z</time>
      </trkpt>
      <trkpt lat="65.92168" lon="12.45339">
        <ele>60.401725</ele>
        <time>2020-08-14T08:05:53.396Z</time>
      </trkpt>
      <trkpt lat="65.92176" lon="12.45356">
        <ele>60.097655</ele>
        <time>2020-08-14T08:05:54.373Z</time>
      </trkpt>
      <trkpt lat="65.92183" lon="12.45373">
        <ele>59.796509</ele>
        <time>2020-08-14T08:05:55.349Z</time>
      </trkpt>
      <trkpt lat="65.9219" lon="12.45389">
        <ele>59.489507</ele>
        <time>2020-08-14T08:05:56.372Z</time>
      </trkpt>
      <trkpt lat="65.92198" lon="12.45407">
        <ele>59.173088</ele>
        <time>2020-08-14T08:05:57.385Z</time>
      </trkpt>
      <trkpt lat="65.92206" lon="12.45423">
        <ele>58.564626</ele>
        <time>2020-08-14T08:05:58.388Z</time>
      </trkpt>
      <trkpt lat="65.92215" lon="12.45439">
        <ele>57.920637</ele>
        <time>2020-08-14T08:05:59.356Z</time>
      </trkpt>
      <trkpt lat="65.92223" lon="12.45457">
        <ele>57.23149</ele>
        <time>2020-08-14T08:06:00.362Z</time>
      </trkpt>
      <trkpt lat="65.92231" lon="12.45474">
        <ele>56.581321</ele>
        <time>2020-08-14T08:06:01.356Z</time>
      </trkpt>
      <trkpt lat="65.9224" lon="12.45488">
        <ele>55.920864</ele>
        <time>2020-08-14T08:06:02.361Z</time>
      </trkpt>
      <trkpt lat="65.92249" lon="12.45503">
        <ele>55.251958</ele>
        <time>2020-08-14T08:06:03.368Z</time>
      </trkpt>
      <trkpt lat="65.92259" lon="12.45517">
        <ele>54.568709</ele>
        <time>2020-08-14T08:06:04.389Z</time>
      </trkpt>
      <trkpt lat="65.92269" lon="12.4553">
        <ele>53.883477</ele>
        <time>2020-08-14T08:06:05.354Z</time>
      </trkpt>
      <trkpt lat="65.92279" lon="12.45542">
        <ele>53.203376</ele>
        <time>2020-08-14T08:06:06.373Z</time>
      </trkpt>
      <trkpt lat="65.92289" lon="12.45554">
        <ele>52.500056</ele>
        <time>2020-08-14T08:06:07.388Z</time>
      </trkpt>
      <trkpt lat="65.923" lon="12.45565">
        <ele>51.800324</ele>
        <time>2020-08-14T08:06:08.360Z</time>
      </trkpt>
      <trkpt lat="65.9231" lon="12.45574">
        <ele>51.112714</ele>
        <time>2020-08-14T08:06:09.384Z</time>
      </trkpt>
      <trkpt lat="65.92321" lon="12.45584">
        <ele>50.420238</ele>
        <time>2020-08-14T08:06:10.377Z</time>
      </trkpt>
      <trkpt lat="65.92331" lon="12.45593">
        <ele>49.736937</ele>
        <time>2020-08-14T08:06:11.400Z</time>
      </trkpt>
      <trkpt lat="65.92342" lon="12.45603">
        <ele>49.051076</ele>
        <time>2020-08-14T08:06:12.350Z</time>
      </trkpt>
      <trkpt lat="65.92352" lon="12.45611">
        <ele>48.366073</ele>
        <time>2020-08-14T08:06:13.352Z</time>
      </trkpt>
      <trkpt lat="65.92363" lon="12.4562">
        <ele>47.818937</ele>
        <time>2020-08-14T08:06:14.383Z</time>
      </trkpt>
      <trkpt lat="65.92374" lon="12.45629">
        <ele>47.345143</ele>
        <time>2020-08-14T08:06:15.357Z</time>
      </trkpt>
      <trkpt lat="65.92384" lon="12.45639">
        <ele>46.875127</ele>
        <time>2020-08-14T08:06:16.376Z</time>
      </trkpt>
      <trkpt lat="65.92394" lon="12.45649">
        <ele>46.423962</ele>
        <time>2020-08-14T08:06:17.359Z</time>
      </trkpt>
      <trkpt lat="65.92404" lon="12.45659">
        <ele>45.974468</ele>
        <time>2020-08-14T08:06:18.360Z</time>
      </trkpt>
      <trkpt lat="65.92413" lon="12.45671">
        <ele>45.528941</ele>
        <time>2020-08-14T08:06:19.397Z</time>
      </trkpt>
      <trkpt lat="65.92422" lon="12.45682">
        <ele>45.114143</ele>
        <time>2020-08-14T08:06:20.373Z</time>
      </trkpt>
      <trkpt lat="65.92431" lon="12.45694">
        <ele>44.697366</ele>
        <time>2020-08-14T08:06:21.353Z</time>
      </trkpt>
      <trkpt lat="65.92439" lon="12.45707">
        <ele>44.280935</ele>
        <time>2020-08-14T08:06:22.371Z</time>
      </trkpt>
      <trkpt lat="65.92448" lon="12.4572">
        <ele>43.874038</ele>
        <time>2020-08-14T08:06:23.395Z</time>
      </trkpt>
      <trkpt lat="65.92456" lon="12.45733">
        <ele>43.470618</ele>
        <time>2020-08-14T08:06:24.369Z</time>
      </trkpt>
      <trkpt lat="65.92463" lon="12.45746">
        <ele>43.075079</ele>
        <time>2020-08-14T08:06:25.377Z</time>
      </trkpt>
      <trkpt lat="65.92471" lon="12.4576">
        <ele>42.680043</ele>
        <time>2020-08-14T08:06:26.389Z</time>
      </trkpt>
      <trkpt lat="65.92478" lon="12.45774">
        <ele>42.290231</ele>
        <time>2020-08-14T08:06:27.348Z</time>
      </trkpt>
      <trkpt lat="65.92485" lon="12.45789">
        <ele>41.90016</ele>
        <time>2020-08-14T08:06:28.374Z</time>
      </trkpt>
      <trkpt lat="65.92492" lon="12.45804">
        <ele>41.517733</ele>
        <time>2020-08-14T08:06:29.372Z</time>
      </trkpt>
      <trkpt lat="65.92506" lon="12.45832">
        <ele>40.775858</ele>
        <time>2020-08-14T08:06:31.370Z</time>
      </trkpt>
      <trkpt lat="65.92518" lon="12.45858">
        <ele>40.506436</ele>
        <time>2020-08-14T08:06:33.357Z</time>
      </trkpt>
      <trkpt lat="65.9253" lon="12.45883">
        <ele>40.388101</ele>
        <time>2020-08-14T08:06:35.349Z</time>
      </trkpt>
      <trkpt lat="65.92542" lon="12.45906">
        <ele>40.276952</ele>
        <time>2020-08-14T08:06:37.383Z</time>
      </trkpt>
      <trkpt lat="65.92552" lon="12.45929">
        <ele>40.173644</ele>
        <time>2020-08-14T08:06:39.356Z</time>
      </trkpt>
      <trkpt lat="65.92562" lon="12.45951">
        <ele>40.073926</ele>
        <time>2020-08-14T08:06:41.341Z</time>
      </trkpt>
      <trkpt lat="65.92572" lon="12.45972">
        <ele>39.973104</ele>
        <time>2020-08-14T08:06:43.374Z</time>
      </trkpt>
      <trkpt lat="65.92582" lon="12.45992">
        <ele>39.875411</ele>
        <time>2020-08-14T08:06:45.344Z</time>
      </trkpt>
      <trkpt lat="65.92591" lon="12.46011">
        <ele>39.781806</ele>
        <time>2020-08-14T08:06:47.406Z</time>
      </trkpt>
      <trkpt lat="65.92601" lon="12.46032">
        <ele>39.687155</ele>
        <time>2020-08-14T08:06:49.356Z</time>
      </trkpt>
      <trkpt lat="65.92611" lon="12.46051">
        <ele>39.591409</ele>
        <time>2020-08-14T08:06:51.388Z</time>
      </trkpt>
      <trkpt lat="65.9262" lon="12.46071">
        <ele>39.497999</ele>
        <time>2020-08-14T08:06:53.349Z</time>
      </trkpt>
      <trkpt lat="65.9263" lon="12.46089">
        <ele>39.406462</ele>
        <time>2020-08-14T08:06:55.358Z</time>
      </trkpt>
      <trkpt lat="65.92639" lon="12.46107">
        <ele>39.317135</ele>
        <time>2020-08-14T08:06:57.346Z</time>
      </trkpt>
      <trkpt lat="65.92649" lon="12.46125">
        <ele>39.273078</ele>
        <time>2020-08-14T08:06:59.365Z</time>
      </trkpt>
      <trkpt lat="65.92658" lon="12.46143">
        <ele>39.4412</ele>
        <time>2020-08-14T08:07:01.372Z</time>
      </trkpt>
      <trkpt lat="65.92668" lon="12.46162">
        <ele>39.609938</ele>
        <time>2020-08-14T08:07:03.353Z</time>
      </trkpt>
      <trkpt lat="65.92677" lon="12.46179">
        <ele>39.771666</ele>
        <time>2020-08-14T08:07:05.352Z</time>
      </trkpt>
      <trkpt lat="65.92687" lon="12.46196">
        <ele>39.93328</ele>
        <time>2020-08-14T08:07:07.354Z</time>
      </trkpt>
      <trkpt lat="65.92697" lon="12.46214">
        <ele>40.100398</ele>
        <time>2020-08-14T08:07:09.342Z</time>
      </trkpt>
      <trkpt lat="65.92707" lon="12.46231">
        <ele>40.268902</ele>
        <time>2020-08-14T08:07:11.341Z</time>
      </trkpt>
      <trkpt lat="65.92717" lon="12.46249">
        <ele>40.436602</ele>
        <time>2020-08-14T08:07:13.358Z</time>
      </trkpt>
      <trkpt lat="65.92727" lon="12.46265">
        <ele>40.600946</ele>
        <time>2020-08-14T08:07:15.369Z</time>
      </trkpt>
      <trkpt lat="65.92737" lon="12.46281">
        <ele>40.765083</ele>
        <time>2020-08-14T08:07:17.369Z</time>
      </trkpt>
      <trkpt lat="65.92747" lon="12.46296">
        <ele>40.930404</ele>
        <time>2020-08-14T08:07:19.357Z</time>
      </trkpt>
      <trkpt lat="65.92757" lon="12.46312">
        <ele>41.093969</ele>
        <time>2020-08-14T08:07:21.352Z</time>
      </trkpt>
      <trkpt lat="65.92768" lon="12.46326">
        <ele>41.254691</ele>
        <time>2020-08-14T08:07:23.371Z</time>
      </trkpt>
      <trkpt lat="65.92778" lon="12.4634">
        <ele>41.419271</ele>
        <time>2020-08-14T08:07:25.347Z</time>
      </trkpt>
      <trkpt lat="65.92789" lon="12.46355">
        <ele>41.586519</ele>
        <time>2020-08-14T08:07:27.365Z</time>
      </trkpt>
      <trkpt lat="65.92799" lon="12.46369">
        <ele>41.739542</ele>
        <time>2020-08-14T08:07:29.399Z</time>
      </trkpt>
      <trkpt lat="65.9281" lon="12.46383">
        <ele>41.865437</ele>
        <time>2020-08-14T08:07:31.372Z</time>
      </trkpt>
      <trkpt lat="65.92821" lon="12.46395">
        <ele>41.98796</ele>
        <time>2020-08-14T08:07:33.375Z</time>
      </trkpt>
      <trkpt lat="65.92831" lon="12.46408">
        <ele>42.112395</ele>
        <time>2020-08-14T08:07:35.358Z</time>
      </trkpt>
      <trkpt lat="65.92842" lon="12.4642">
        <ele>42.237951</ele>
        <time>2020-08-14T08:07:37.420Z</time>
      </trkpt>
      <trkpt lat="65.92853" lon="12.46431">
        <ele>42.358609</ele>
        <time>2020-08-14T08:07:39.363Z</time>
      </trkpt>
      <trkpt lat="65.92864" lon="12.46442">
        <ele>42.478939</ele>
        <time>2020-08-14T08:07:41.367Z</time>
      </trkpt>
      <trkpt lat="65.92874" lon="12.46451">
        <ele>42.595024</ele>
        <time>2020-08-14T08:07:43.361Z</time>
      </trkpt>
      <trkpt lat="65.92885" lon="12.46461">
        <ele>42.711402</ele>
        <time>2020-08-14T08:07:45.380Z</time>
      </trkpt>
      <trkpt lat="65.92895" lon="12.4647">
        <ele>42.826917</ele>
        <time>2020-08-14T08:07:47.358Z</time>
      </trkpt>
      <trkpt lat="65.92906" lon="12.46478">
        <ele>42.943465</ele>
        <time>2020-08-14T08:07:49.351Z</time>
      </trkpt>
      <trkpt lat="65.92917" lon="12.46486">
        <ele>43.061385</ele>
        <time>2020-08-14T08:07:51.355Z</time>
      </trkpt>
      <trkpt lat="65.92928" lon="12.46493">
        <ele>43.179093</ele>
        <time>2020-08-14T08:07:53.352Z</time>
      </trkpt>
      <trkpt lat="65.92939" lon="12.46499">
        <ele>43.297321</ele>
        <time>2020-08-14T08:07:55.353Z</time>
      </trkpt>
      <trkpt lat="65.92951" lon="12.46505">
        <ele>43.420439</ele>
        <time>2020-08-14T08:07:57.351Z</time>
      </trkpt>
      <trkpt lat="65.92962" lon="12.4651">
        <ele>43.541805</ele>
        <time>2020-08-14T08:07:59.350Z</time>
      </trkpt>
      <trkpt lat="65.92974" lon="12.46516">
        <ele>43.609421</ele>
        <time>2020-08-14T08:08:01.372Z</time>
      </trkpt>
      <trkpt lat="65.92985" lon="12.4652">
        <ele>43.655951</ele>
        <time>2020-08-14T08:08:03.388Z</time>
      </trkpt>
      <trkpt lat="65.92997" lon="12.46524">
        <ele>43.703905</ele>
        <time>2020-08-14T08:08:05.392Z</time>
      </trkpt>
      <trkpt lat="65.93007" lon="12.46528">
        <ele>43.748633</ele>
        <time>2020-08-14T08:08:07.363Z</time>
      </trkpt>
      <trkpt lat="65.93019" lon="12.46531">
        <ele>43.794933</ele>
        <time>2020-08-14T08:08:09.401Z</time>
      </trkpt>
      <trkpt lat="65.9303" lon="12.46534">
        <ele>43.839908</ele>
        <time>2020-08-14T08:08:11.359Z</time>
      </trkpt>
      <trkpt lat="65.93041" lon="12.46536">
        <ele>43.88393</ele>
        <time>2020-08-14T08:08:13.362Z</time>
      </trkpt>
      <trkpt lat="65.93051" lon="12.46537">
        <ele>43.925507</ele>
        <time>2020-08-14T08:08:15.350Z</time>
      </trkpt>
      <trkpt lat="65.93061" lon="12.46539">
        <ele>43.966702</ele>
        <time>2020-08-14T08:08:17.362Z</time>
      </trkpt>
      <trkpt lat="65.9307" lon="12.4654">
        <ele>44.003763</ele>
        <time>2020-08-14T08:08:19.351Z</time>
      </trkpt>
      <trkpt lat="65.93079" lon="12.46541">
        <ele>44.039981</ele>
        <time>2020-08-14T08:08:21.348Z</time>
      </trkpt>
      <trkpt lat="65.93092" lon="12.46542">
        <ele>44.093273</ele>
        <time>2020-08-14T08:08:24.401Z</time>
      </trkpt>
      <trkpt lat="65.93104" lon="12.46542">
        <ele>44.140856</ele>
        <time>2020-08-14T08:08:27.380Z</time>
      </trkpt>
      <trkpt lat="65.93115" lon="12.46542">
        <ele>44.187218</ele>
        <time>2020-08-14T08:08:30.353Z</time>
      </trkpt>
      <trkpt lat="65.93126" lon="12.46541">
        <ele>44.23279</ele>
        <time>2020-08-14T08:08:33.381Z</time>
      </trkpt>
      <trkpt lat="65.93137" lon="12.4654">
        <ele>44.277946</ele>
        <time>2020-08-14T08:08:36.395Z</time>
      </trkpt>
      <trkpt lat="65.93147" lon="12.46548">
        <ele>44.316403</ele>
        <time>2020-08-14T08:08:39.352Z</time>
      </trkpt>
      <trkpt lat="65.93158" lon="12.46549">
        <ele>44.349877</ele>
        <time>2020-08-14T08:08:42.350Z</time>
      </trkpt>
      <trkpt lat="65.93168" lon="12.46548">
        <ele>44.383023</ele>
        <time>2020-08-14T08:08:45.356Z</time>
      </trkpt>
      <trkpt lat="65.93179" lon="12.46547">
        <ele>44.417709</ele>
        <time>2020-08-14T08:08:48.361Z</time>
      </trkpt>
      <trkpt lat="65.93191" lon="12.46545">
        <ele>44.453024</ele>
        <time>2020-08-14T08:08:51.385Z</time>
      </trkpt>
      <trkpt lat="65.93202" lon="12.46545">
        <ele>44.489558</ele>
        <time>2020-08-14T08:08:54.391Z</time>
      </trkpt>
      <trkpt lat="65.93214" lon="12.46543">
        <ele>44.524917</ele>
        <time>2020-08-14T08:08:57.366Z</time>
      </trkpt>
      <trkpt lat="65.93225" lon="12.46541">
        <ele>44.559371</ele>
        <time>2020-08-14T08:09:00.403Z</time>
      </trkpt>
      <trkpt lat="65.93235" lon="12.46538">
        <ele>44.592581</ele>
        <time>2020-08-14T08:09:03.367Z</time>
      </trkpt>
      <trkpt lat="65.93247" lon="12.46536">
        <ele>44.629213</ele>
        <time>2020-08-14T08:09:06.352Z</time>
      </trkpt>
      <trkpt lat="65.93258" lon="12.46535">
        <ele>44.664542</ele>
        <time>2020-08-14T08:09:09.395Z</time>
      </trkpt>
      <trkpt lat="65.93269" lon="12.46533">
        <ele>44.697363</ele>
        <time>2020-08-14T08:09:12.352Z</time>
      </trkpt>
      <trkpt lat="65.9328" lon="12.46531">
        <ele>44.733393</ele>
        <time>2020-08-14T08:09:15.363Z</time>
      </trkpt>
      <trkpt lat="65.93293" lon="12.46529">
        <ele>44.772517</ele>
        <time>2020-08-14T08:09:18.397Z</time>
      </trkpt>
      <trkpt lat="65.93305" lon="12.46527">
        <ele>44.809149</ele>
        <time>2020-08-14T08:09:21.391Z</time>
      </trkpt>
      <trkpt lat="65.93316" lon="12.46524">
        <ele>44.84555</ele>
        <time>2020-08-14T08:09:24.356Z</time>
      </trkpt>
      <trkpt lat="65.93329" lon="12.46522">
        <ele>44.782165</ele>
        <time>2020-08-14T08:09:27.357Z</time>
      </trkpt>
      <trkpt lat="65.93341" lon="12.4652">
        <ele>44.574904</ele>
        <time>2020-08-14T08:09:30.393Z</time>
      </trkpt>
      <trkpt lat="65.93353" lon="12.46517">
        <ele>44.374123</ele>
        <time>2020-08-14T08:09:33.375Z</time>
      </trkpt>
      <trkpt lat="65.93366" lon="12.46515">
        <ele>44.171921</ele>
        <time>2020-08-14T08:09:36.385Z</time>
      </trkpt>
      <trkpt lat="65.93377" lon="12.46511">
        <ele>43.977121</ele>
        <time>2020-08-14T08:09:39.372Z</time>
      </trkpt>
      <trkpt lat="65.9339" lon="12.4651">
        <ele>43.775054</ele>
        <time>2020-08-14T08:09:42.374Z</time>
      </trkpt>
      <trkpt lat="65.93402" lon="12.46507">
        <ele>43.574437</ele>
        <time>2020-08-14T08:09:45.365Z</time>
      </trkpt>
      <trkpt lat="65.93415" lon="12.46505">
        <ele>43.356042</ele>
        <time>2020-08-14T08:09:48.382Z</time>
      </trkpt>
      <trkpt lat="65.93428" lon="12.46503">
        <ele>43.147298</ele>
        <time>2020-08-14T08:09:51.370Z</time>
      </trkpt>
      <trkpt lat="65.93441" lon="12.46502">
        <ele>42.937161</ele>
        <time>2020-08-14T08:09:54.360Z</time>
      </trkpt>
      <trkpt lat="65.93454" lon="12.465">
        <ele>42.720326</ele>
        <time>2020-08-14T08:09:57.370Z</time>
      </trkpt>
      <trkpt lat="65.93467" lon="12.46497">
        <ele>42.500132</ele>
        <time>2020-08-14T08:10:00.372Z</time>
      </trkpt>
      <trkpt lat="65.93478" lon="12.46495">
        <ele>42.330728</ele>
        <time>2020-08-14T08:10:02.370Z</time>
      </trkpt>
      <trkpt lat="65.93489" lon="12.46494">
        <ele>42.146785</ele>
        <time>2020-08-14T08:10:04.421Z</time>
      </trkpt>
      <trkpt lat="65.935" lon="12.46492">
        <ele>41.957968</ele>
        <time>2020-08-14T08:10:06.349Z</time>
      </trkpt>
      <trkpt lat="65.93512" lon="12.46491">
        <ele>42.137626</ele>
        <time>2020-08-14T08:10:08.350Z</time>
      </trkpt>
      <trkpt lat="65.93524" lon="12.46489">
        <ele>42.414374</ele>
        <time>2020-08-14T08:10:10.356Z</time>
      </trkpt>
      <trkpt lat="65.93535" lon="12.46486">
        <ele>42.682438</ele>
        <time>2020-08-14T08:10:12.343Z</time>
      </trkpt>
      <trkpt lat="65.93546" lon="12.46482">
        <ele>42.932441</ele>
        <time>2020-08-14T08:10:14.371Z</time>
      </trkpt>
      <trkpt lat="65.93556" lon="12.46478">
        <ele>43.176901</ele>
        <time>2020-08-14T08:10:16.360Z</time>
      </trkpt>
      <trkpt lat="65.93566" lon="12.46475">
        <ele>43.401671</ele>
        <time>2020-08-14T08:10:18.368Z</time>
      </trkpt>
      <trkpt lat="65.93579" lon="12.46469">
        <ele>43.708189</ele>
        <time>2020-08-14T08:10:21.408Z</time>
      </trkpt>
      <trkpt lat="65.9359" lon="12.46463">
        <ele>43.971047</ele>
        <time>2020-08-14T08:10:24.344Z</time>
      </trkpt>
      <trkpt lat="65.936" lon="12.46456">
        <ele>44.219655</ele>
        <time>2020-08-14T08:10:27.351Z</time>
      </trkpt>
      <trkpt lat="65.93609" lon="12.4645">
        <ele>44.445915</ele>
        <time>2020-08-14T08:10:30.366Z</time>
      </trkpt>
      <trkpt lat="65.93618" lon="12.46443">
        <ele>44.672705</ele>
        <time>2020-08-14T08:10:33.370Z</time>
      </trkpt>
      <trkpt lat="65.93627" lon="12.46436">
        <ele>44.893908</ele>
        <time>2020-08-14T08:10:36.375Z</time>
      </trkpt>
      <trkpt lat="65.93637" lon="12.46429">
        <ele>45.123212</ele>
        <time>2020-08-14T08:10:39.374Z</time>
      </trkpt>
      <trkpt lat="65.93646" lon="12.46421">
        <ele>45.357621</ele>
        <time>2020-08-14T08:10:42.364Z</time>
      </trkpt>
      <trkpt lat="65.93655" lon="12.46412">
        <ele>45.573167</ele>
        <time>2020-08-14T08:10:45.364Z</time>
      </trkpt>
      <trkpt lat="65.93664" lon="12.46403">
        <ele>45.804198</ele>
        <time>2020-08-14T08:10:48.389Z</time>
      </trkpt>
      <trkpt lat="65.93674" lon="12.46392">
        <ele>46.069957</ele>
        <time>2020-08-14T08:10:51.354Z</time>
      </trkpt>
      <trkpt lat="65.93685" lon="12.46379">
        <ele>46.081362</ele>
        <time>2020-08-14T08:10:54.356Z</time>
      </trkpt>
      <trkpt lat="65.93693" lon="12.46357">
        <ele>46.022711</ele>
        <time>2020-08-14T08:10:57.395Z</time>
      </trkpt>
      <trkpt lat="65.93703" lon="12.4634">
        <ele>45.960115</ele>
        <time>2020-08-14T08:11:00.352Z</time>
      </trkpt>
      <trkpt lat="65.93714" lon="12.46325">
        <ele>45.897224</ele>
        <time>2020-08-14T08:11:03.367Z</time>
      </trkpt>
      <trkpt lat="65.93725" lon="12.46309">
        <ele>45.835308</ele>
        <time>2020-08-14T08:11:06.378Z</time>
      </trkpt>
      <trkpt lat="65.93736" lon="12.46292">
        <ele>45.770326</ele>
        <time>2020-08-14T08:11:09.349Z</time>
      </trkpt>
      <trkpt lat="65.93747" lon="12.46274">
        <ele>45.705707</ele>
        <time>2020-08-14T08:11:12.376Z</time>
      </trkpt>
      <trkpt lat="65.93757" lon="12.46256">
        <ele>45.644403</ele>
        <time>2020-08-14T08:11:15.380Z</time>
      </trkpt>
      <trkpt lat="65.93767" lon="12.4624">
        <ele>45.58513</ele>
        <time>2020-08-14T08:11:18.358Z</time>
      </trkpt>
      <trkpt lat="65.93776" lon="12.46224">
        <ele>45.530143</ele>
        <time>2020-08-14T08:11:21.369Z</time>
      </trkpt>
      <trkpt lat="65.93784" lon="12.46211">
        <ele>45.481519</ele>
        <time>2020-08-14T08:11:24.392Z</time>
      </trkpt>
      <trkpt lat="65.93791" lon="12.46197">
        <ele>45.435353</ele>
        <time>2020-08-14T08:11:27.366Z</time>
      </trkpt>
      <trkpt lat="65.938" lon="12.4618">
        <ele>45.381235</ele>
        <time>2020-08-14T08:11:30.358Z</time>
      </trkpt>
      <trkpt lat="65.93809" lon="12.46159">
        <ele>45.316788</ele>
        <time>2020-08-14T08:11:33.371Z</time>
      </trkpt>
      <trkpt lat="65.93821" lon="12.46141">
        <ele>45.250296</ele>
        <time>2020-08-14T08:11:36.372Z</time>
      </trkpt>
      <trkpt lat="65.93832" lon="12.46124">
        <ele>45.183988</ele>
        <time>2020-08-14T08:11:39.368Z</time>
      </trkpt>
      <trkpt lat="65.9384" lon="12.46112">
        <ele>45.13895</ele>
        <time>2020-08-14T08:11:41.374Z</time>
      </trkpt>
      <trkpt lat="65.93848" lon="12.461">
        <ele>45.094899</ele>
        <time>2020-08-14T08:11:43.349Z</time>
      </trkpt>
      <trkpt lat="65.93855" lon="12.46087">
        <ele>45.05004</ele>
        <time>2020-08-14T08:11:45.359Z</time>
      </trkpt>
      <trkpt lat="65.93866" lon="12.46067">
        <ele>44.984014</ele>
        <time>2020-08-14T08:11:48.358Z</time>
      </trkpt>
      <trkpt lat="65.93873" lon="12.46053">
        <ele>44.939725</ele>
        <time>2020-08-14T08:11:50.432Z</time>
      </trkpt>
      <trkpt lat="65.9388" lon="12.4604">
        <ele>44.895655</ele>
        <time>2020-08-14T08:11:52.346Z</time>
      </trkpt>
      <trkpt lat="65.93888" lon="12.46027">
        <ele>44.85</ele>
        <time>2020-08-14T08:11:54.432Z</time>
      </trkpt>
      <trkpt lat="65.93896" lon="12.46014">
        <ele>44.80273</ele>
        <time>2020-08-14T08:11:56.358Z</time>
      </trkpt>
      <trkpt lat="65.93904" lon="12.46001">
        <ele>44.754753</ele>
        <time>2020-08-14T08:11:58.355Z</time>
      </trkpt>
      <trkpt lat="65.93912" lon="12.45988">
        <ele>44.708113</ele>
        <time>2020-08-14T08:12:00.379Z</time>
      </trkpt>
      <trkpt lat="65.9392" lon="12.45975">
        <ele>44.660363</ele>
        <time>2020-08-14T08:12:02.365Z</time>
      </trkpt>
      <trkpt lat="65.93928" lon="12.45961">
        <ele>44.610979</ele>
        <time>2020-08-14T08:12:04.353Z</time>
      </trkpt>
      <trkpt lat="65.93937" lon="12.45949">
        <ele>44.560499</ele>
        <time>2020-08-14T08:12:06.331Z</time>
      </trkpt>
      <trkpt lat="65.93946" lon="12.45935">
        <ele>44.510134</ele>
        <time>2020-08-14T08:12:08.361Z</time>
      </trkpt>
      <trkpt lat="65.93955" lon="12.45923">
        <ele>44.460378</ele>
        <time>2020-08-14T08:12:10.343Z</time>
      </trkpt>
      <trkpt lat="65.93964" lon="12.4591">
        <ele>44.409868</ele>
        <time>2020-08-14T08:12:12.348Z</time>
      </trkpt>
      <trkpt lat="65.93973" lon="12.45899">
        <ele>44.361263</ele>
        <time>2020-08-14T08:12:14.367Z</time>
      </trkpt>
      <trkpt lat="65.93982" lon="12.45889">
        <ele>44.452274</ele>
        <time>2020-08-14T08:12:16.360Z</time>
      </trkpt>
      <trkpt lat="65.93991" lon="12.45878">
        <ele>44.569936</ele>
        <time>2020-08-14T08:12:18.360Z</time>
      </trkpt>
      <trkpt lat="65.94" lon="12.45869">
        <ele>44.687784</ele>
        <time>2020-08-14T08:12:20.362Z</time>
      </trkpt>
      <trkpt lat="65.94009" lon="12.4586">
        <ele>44.796804</ele>
        <time>2020-08-14T08:12:22.372Z</time>
      </trkpt>
      <trkpt lat="65.94017" lon="12.45851">
        <ele>44.90492</ele>
        <time>2020-08-14T08:12:24.351Z</time>
      </trkpt>
      <trkpt lat="65.94029" lon="12.4584">
        <ele>45.054545</ele>
        <time>2020-08-14T08:12:27.349Z</time>
      </trkpt>
      <trkpt lat="65.94042" lon="12.45832">
        <ele>45.204421</ele>
        <time>2020-08-14T08:12:30.367Z</time>
      </trkpt>
      <trkpt lat="65.94054" lon="12.45825">
        <ele>45.353474</ele>
        <time>2020-08-14T08:12:33.378Z</time>
      </trkpt>
      <trkpt lat="65.94067" lon="12.4582">
        <ele>45.503859</ele>
        <time>2020-08-14T08:12:36.351Z</time>
      </trkpt>
      <trkpt lat="65.94079" lon="12.45816">
        <ele>45.653409</ele>
        <time>2020-08-14T08:12:39.365Z</time>
      </trkpt>
      <trkpt lat="65.94093" lon="12.45813">
        <ele>45.806805</ele>
        <time>2020-08-14T08:12:42.361Z</time>
      </trkpt>
      <trkpt lat="65.94105" lon="12.45813">
        <ele>45.951671</ele>
        <time>2020-08-14T08:12:45.363Z</time>
      </trkpt>
      <trkpt lat="65.94117" lon="12.45813">
        <ele>46.092996</ele>
        <time>2020-08-14T08:12:48.388Z</time>
      </trkpt>
      <trkpt lat="65.94129" lon="12.45814">
        <ele>46.229702</ele>
        <time>2020-08-14T08:12:51.356Z</time>
      </trkpt>
      <trkpt lat="65.9414" lon="12.45816">
        <ele>46.365708</ele>
        <time>2020-08-14T08:12:54.342Z</time>
      </trkpt>
      <trkpt lat="65.94151" lon="12.45818">
        <ele>46.552709</ele>
        <time>2020-08-14T08:12:57.355Z</time>
      </trkpt>
      <trkpt lat="65.94162" lon="12.45819">
        <ele>46.863352</ele>
        <time>2020-08-14T08:13:00.364Z</time>
      </trkpt>
      <trkpt lat="65.94174" lon="12.45821">
        <ele>47.200058</ele>
        <time>2020-08-14T08:13:03.380Z</time>
      </trkpt>
      <trkpt lat="65.94185" lon="12.45822">
        <ele>47.533665</ele>
        <time>2020-08-14T08:13:06.358Z</time>
      </trkpt>
      <trkpt lat="65.94197" lon="12.45823">
        <ele>47.852686</ele>
        <time>2020-08-14T08:13:09.372Z</time>
      </trkpt>
      <trkpt lat="65.94207" lon="12.45824">
        <ele>48.146107</ele>
        <time>2020-08-14T08:13:12.387Z</time>
      </trkpt>
      <trkpt lat="65.94216" lon="12.45836">
        <ele>48.44696</ele>
        <time>2020-08-14T08:13:15.411Z</time>
      </trkpt>
      <trkpt lat="65.94228" lon="12.45841">
        <ele>48.789941</ele>
        <time>2020-08-14T08:13:18.362Z</time>
      </trkpt>
      <trkpt lat="65.94239" lon="12.45843">
        <ele>49.123778</ele>
        <time>2020-08-14T08:13:21.357Z</time>
      </trkpt>
      <trkpt lat="65.94251" lon="12.45845">
        <ele>49.460484</ele>
        <time>2020-08-14T08:13:24.356Z</time>
      </trkpt>
      <trkpt lat="65.94264" lon="12.45848">
        <ele>49.832811</ele>
        <time>2020-08-14T08:13:27.389Z</time>
      </trkpt>
      <trkpt lat="65.94273" lon="12.45849">
        <ele>50.095136</ele>
        <time>2020-08-14T08:13:29.350Z</time>
      </trkpt>
      <trkpt lat="65.94286" lon="12.45851">
        <ele>50.474681</ele>
        <time>2020-08-14T08:13:32.376Z</time>
      </trkpt>
      <trkpt lat="65.94299" lon="12.45853">
        <ele>50.848953</ele>
        <time>2020-08-14T08:13:35.349Z</time>
      </trkpt>
      <trkpt lat="65.94312" lon="12.45854">
        <ele>51.202814</ele>
        <time>2020-08-14T08:13:38.381Z</time>
      </trkpt>
      <trkpt lat="65.94324" lon="12.45856">
        <ele>51.548192</ele>
        <time>2020-08-14T08:13:41.349Z</time>
      </trkpt>
      <trkpt lat="65.94333" lon="12.45858">
        <ele>51.621785</ele>
        <time>2020-08-14T08:13:43.357Z</time>
      </trkpt>
      <trkpt lat="65.94342" lon="12.45861">
        <ele>51.620274</ele>
        <time>2020-08-14T08:13:45.371Z</time>
      </trkpt>
      <trkpt lat="65.94352" lon="12.45864">
        <ele>51.618743</ele>
        <time>2020-08-14T08:13:47.364Z</time>
      </trkpt>
      <trkpt lat="65.94362" lon="12.45869">
        <ele>51.61715</ele>
        <time>2020-08-14T08:13:49.361Z</time>
      </trkpt>
      <trkpt lat="65.94372" lon="12.45876">
        <ele>51.615472</ele>
        <time>2020-08-14T08:13:51.375Z</time>
      </trkpt>
      <trkpt lat="65.94383" lon="12.45884">
        <ele>51.613716</ele>
        <time>2020-08-14T08:13:53.369Z</time>
      </trkpt>
      <trkpt lat="65.94394" lon="12.45893">
        <ele>51.611982</ele>
        <time>2020-08-14T08:13:55.365Z</time>
      </trkpt>
      <trkpt lat="65.94403" lon="12.45903">
        <ele>51.610455</ele>
        <time>2020-08-14T08:13:57.371Z</time>
      </trkpt>
      <trkpt lat="65.94412" lon="12.45915">
        <ele>51.608752</ele>
        <time>2020-08-14T08:14:00.382Z</time>
      </trkpt>
      <trkpt lat="65.94421" lon="12.45925">
        <ele>51.607232</ele>
        <time>2020-08-14T08:14:03.356Z</time>
      </trkpt>
      <trkpt lat="65.94432" lon="12.45937">
        <ele>51.605315</ele>
        <time>2020-08-14T08:14:06.380Z</time>
      </trkpt>
      <trkpt lat="65.94441" lon="12.45944">
        <ele>51.603899</ele>
        <time>2020-08-14T08:14:08.371Z</time>
      </trkpt>
      <trkpt lat="65.9445" lon="12.45952">
        <ele>51.602376</ele>
        <time>2020-08-14T08:14:10.371Z</time>
      </trkpt>
      <trkpt lat="65.94461" lon="12.45961">
        <ele>51.600564</ele>
        <time>2020-08-14T08:14:12.356Z</time>
      </trkpt>
      <trkpt lat="65.94472" lon="12.4597">
        <ele>51.598745</ele>
        <time>2020-08-14T08:14:14.353Z</time>
      </trkpt>
      <trkpt lat="65.94483" lon="12.4598">
        <ele>51.596983</ele>
        <time>2020-08-14T08:14:16.440Z</time>
      </trkpt>
      <trkpt lat="65.94494" lon="12.4599">
        <ele>51.595185</ele>
        <time>2020-08-14T08:14:18.374Z</time>
      </trkpt>
      <trkpt lat="65.94505" lon="12.46">
        <ele>51.301866</ele>
        <time>2020-08-14T08:14:20.344Z</time>
      </trkpt>
      <trkpt lat="65.94516" lon="12.46009">
        <ele>50.920891</ele>
        <time>2020-08-14T08:14:22.353Z</time>
      </trkpt>
      <trkpt lat="65.94527" lon="12.46019">
        <ele>50.547979</ele>
        <time>2020-08-14T08:14:24.374Z</time>
      </trkpt>
      <trkpt lat="65.94537" lon="12.46029">
        <ele>50.176966</ele>
        <time>2020-08-14T08:14:26.362Z</time>
      </trkpt>
      <trkpt lat="65.94548" lon="12.46039">
        <ele>49.791179</ele>
        <time>2020-08-14T08:14:28.362Z</time>
      </trkpt>
      <trkpt lat="65.94559" lon="12.46049">
        <ele>49.414089</ele>
        <time>2020-08-14T08:14:30.366Z</time>
      </trkpt>
      <trkpt lat="65.9457" lon="12.46058">
        <ele>49.062413</ele>
        <time>2020-08-14T08:14:32.351Z</time>
      </trkpt>
      <trkpt lat="65.9458" lon="12.46067">
        <ele>48.718622</ele>
        <time>2020-08-14T08:14:34.366Z</time>
      </trkpt>
      <trkpt lat="65.94589" lon="12.46077">
        <ele>48.387032</ele>
        <time>2020-08-14T08:14:36.362Z</time>
      </trkpt>
      <trkpt lat="65.94598" lon="12.46087">
        <ele>48.076993</ele>
        <time>2020-08-14T08:14:38.350Z</time>
      </trkpt>
      <trkpt lat="65.94606" lon="12.46095">
        <ele>47.769673</ele>
        <time>2020-08-14T08:14:40.357Z</time>
      </trkpt>
      <trkpt lat="65.94619" lon="12.46099">
        <ele>47.370685</ele>
        <time>2020-08-14T08:14:43.368Z</time>
      </trkpt>
      <trkpt lat="65.9463" lon="12.4609">
        <ele>46.973505</ele>
        <time>2020-08-14T08:14:46.401Z</time>
      </trkpt>
      <trkpt lat="65.94643" lon="12.46099">
        <ele>46.539642</ele>
        <time>2020-08-14T08:14:49.386Z</time>
      </trkpt>
      <trkpt lat="65.94652" lon="12.46107">
        <ele>46.226468</ele>
        <time>2020-08-14T08:14:51.371Z</time>
      </trkpt>
      <trkpt lat="65.94661" lon="12.46115">
        <ele>45.903672</ele>
        <time>2020-08-14T08:14:53.373Z</time>
      </trkpt>
      <trkpt lat="65.94671" lon="12.46123">
        <ele>45.715728</ele>
        <time>2020-08-14T08:14:55.371Z</time>
      </trkpt>
      <trkpt lat="65.94682" lon="12.46132">
        <ele>45.635539</ele>
        <time>2020-08-14T08:14:57.355Z</time>
      </trkpt>
      <trkpt lat="65.94691" lon="12.4614">
        <ele>45.559992</ele>
        <time>2020-08-14T08:14:59.375Z</time>
      </trkpt>
      <trkpt lat="65.94701" lon="12.46149">
        <ele>45.482864</ele>
        <time>2020-08-14T08:15:01.362Z</time>
      </trkpt>
      <trkpt lat="65.94711" lon="12.46158">
        <ele>45.405147</ele>
        <time>2020-08-14T08:15:03.357Z</time>
      </trkpt>
      <trkpt lat="65.94721" lon="12.46167">
        <ele>45.328073</ele>
        <time>2020-08-14T08:15:05.402Z</time>
      </trkpt>
      <trkpt lat="65.94731" lon="12.46176">
        <ele>45.252217</ele>
        <time>2020-08-14T08:15:07.362Z</time>
      </trkpt>
      <trkpt lat="65.9474" lon="12.46186">
        <ele>45.176394</ele>
        <time>2020-08-14T08:15:09.352Z</time>
      </trkpt>
      <trkpt lat="65.94751" lon="12.46195">
        <ele>45.096895</ele>
        <time>2020-08-14T08:15:11.369Z</time>
      </trkpt>
      <trkpt lat="65.94761" lon="12.46205">
        <ele>45.017909</ele>
        <time>2020-08-14T08:15:13.357Z</time>
      </trkpt>
      <trkpt lat="65.9477" lon="12.46214">
        <ele>44.941262</ele>
        <time>2020-08-14T08:15:15.383Z</time>
      </trkpt>
      <trkpt lat="65.9478" lon="12.46223">
        <ele>44.864822</ele>
        <time>2020-08-14T08:15:17.378Z</time>
      </trkpt>
      <trkpt lat="65.94789" lon="12.46231">
        <ele>44.793967</ele>
        <time>2020-08-14T08:15:19.369Z</time>
      </trkpt>
      <trkpt lat="65.94798" lon="12.4624">
        <ele>44.725593</ele>
        <time>2020-08-14T08:15:21.389Z</time>
      </trkpt>
      <trkpt lat="65.94806" lon="12.46248">
        <ele>44.658118</ele>
        <time>2020-08-14T08:15:23.362Z</time>
      </trkpt>
      <trkpt lat="65.94815" lon="12.46255">
        <ele>44.591363</ele>
        <time>2020-08-14T08:15:25.382Z</time>
      </trkpt>
      <trkpt lat="65.94824" lon="12.46263">
        <ele>44.521832</ele>
        <time>2020-08-14T08:15:27.379Z</time>
      </trkpt>
      <trkpt lat="65.94833" lon="12.46271">
        <ele>44.453985</ele>
        <time>2020-08-14T08:15:29.383Z</time>
      </trkpt>
      <trkpt lat="65.94841" lon="12.46279">
        <ele>44.659458</ele>
        <time>2020-08-14T08:15:31.364Z</time>
      </trkpt>
      <trkpt lat="65.94851" lon="12.46287">
        <ele>44.93459</ele>
        <time>2020-08-14T08:15:33.371Z</time>
      </trkpt>
      <trkpt lat="65.9486" lon="12.46295">
        <ele>45.205484</ele>
        <time>2020-08-14T08:15:35.361Z</time>
      </trkpt>
      <trkpt lat="65.94868" lon="12.46302">
        <ele>45.468365</ele>
        <time>2020-08-14T08:15:37.361Z</time>
      </trkpt>
      <trkpt lat="65.94881" lon="12.46314">
        <ele>45.849501</ele>
        <time>2020-08-14T08:15:40.362Z</time>
      </trkpt>
      <trkpt lat="65.94889" lon="12.46322">
        <ele>46.107057</ele>
        <time>2020-08-14T08:15:42.370Z</time>
      </trkpt>
      <trkpt lat="65.94902" lon="12.46332">
        <ele>46.480882</ele>
        <time>2020-08-14T08:15:45.352Z</time>
      </trkpt>
      <trkpt lat="65.94914" lon="12.46343">
        <ele>46.845522</ele>
        <time>2020-08-14T08:15:48.367Z</time>
      </trkpt>
      <trkpt lat="65.94925" lon="12.46354">
        <ele>47.197643</ele>
        <time>2020-08-14T08:15:51.366Z</time>
      </trkpt>
      <trkpt lat="65.94937" lon="12.46365">
        <ele>47.552828</ele>
        <time>2020-08-14T08:15:54.374Z</time>
      </trkpt>
      <trkpt lat="65.94949" lon="12.46376">
        <ele>47.924377</ele>
        <time>2020-08-14T08:15:57.388Z</time>
      </trkpt>
      <trkpt lat="65.94962" lon="12.46388">
        <ele>48.300042</ele>
        <time>2020-08-14T08:16:00.366Z</time>
      </trkpt>
      <trkpt lat="65.94974" lon="12.46399">
        <ele>48.681177</ele>
        <time>2020-08-14T08:16:03.356Z</time>
      </trkpt>
      <trkpt lat="65.94983" lon="12.46408">
        <ele>48.946944</ele>
        <time>2020-08-14T08:16:05.353Z</time>
      </trkpt>
      <trkpt lat="65.94992" lon="12.46416">
        <ele>49.221478</ele>
        <time>2020-08-14T08:16:07.356Z</time>
      </trkpt>
      <trkpt lat="65.95001" lon="12.46425">
        <ele>49.491612</ele>
        <time>2020-08-14T08:16:09.386Z</time>
      </trkpt>
      <trkpt lat="65.9501" lon="12.46434">
        <ele>49.544549</ele>
        <time>2020-08-14T08:16:11.368Z</time>
      </trkpt>
      <trkpt lat="65.95019" lon="12.46442">
        <ele>49.54205</ele>
        <time>2020-08-14T08:16:13.361Z</time>
      </trkpt>
      <trkpt lat="65.95028" lon="12.46452">
        <ele>49.539502</ele>
        <time>2020-08-14T08:16:15.393Z</time>
      </trkpt>
      <trkpt lat="65.95037" lon="12.46461">
        <ele>49.536994</ele>
        <time>2020-08-14T08:16:17.357Z</time>
      </trkpt>
      <trkpt lat="65.95046" lon="12.4647">
        <ele>49.534442</ele>
        <time>2020-08-14T08:16:19.378Z</time>
      </trkpt>
      <trkpt lat="65.95054" lon="12.4648">
        <ele>49.531925</ele>
        <time>2020-08-14T08:16:21.390Z</time>
      </trkpt>
      <trkpt lat="65.95064" lon="12.46489">
        <ele>49.529292</ele>
        <time>2020-08-14T08:16:23.381Z</time>
      </trkpt>
      <trkpt lat="65.95073" lon="12.46499">
        <ele>49.526643</ele>
        <time>2020-08-14T08:16:25.381Z</time>
      </trkpt>
      <trkpt lat="65.95082" lon="12.46509">
        <ele>49.523953</ele>
        <time>2020-08-14T08:16:27.356Z</time>
      </trkpt>
      <trkpt lat="65.95092" lon="12.46519">
        <ele>49.521256</ele>
        <time>2020-08-14T08:16:29.373Z</time>
      </trkpt>
      <trkpt lat="65.95101" lon="12.46529">
        <ele>49.518574</ele>
        <time>2020-08-14T08:16:31.397Z</time>
      </trkpt>
      <trkpt lat="65.9511" lon="12.46539">
        <ele>49.515972</ele>
        <time>2020-08-14T08:16:33.363Z</time>
      </trkpt>
      <trkpt lat="65.95119" lon="12.46549">
        <ele>49.513399</ele>
        <time>2020-08-14T08:16:35.358Z</time>
      </trkpt>
      <trkpt lat="65.95129" lon="12.46559">
        <ele>49.510788</ele>
        <time>2020-08-14T08:16:37.397Z</time>
      </trkpt>
      <trkpt lat="65.95138" lon="12.46569">
        <ele>49.5082</ele>
        <time>2020-08-14T08:16:39.367Z</time>
      </trkpt>
      <trkpt lat="65.95147" lon="12.46579">
        <ele>49.505585</ele>
        <time>2020-08-14T08:16:41.387Z</time>
      </trkpt>
      <trkpt lat="65.95156" lon="12.46589">
        <ele>49.503005</ele>
        <time>2020-08-14T08:16:43.370Z</time>
      </trkpt>
      <trkpt lat="65.95165" lon="12.46599">
        <ele>49.500362</ele>
        <time>2020-08-14T08:16:45.382Z</time>
      </trkpt>
      <trkpt lat="65.95174" lon="12.4661">
        <ele>49.579444</ele>
        <time>2020-08-14T08:16:47.369Z</time>
      </trkpt>
      <trkpt lat="65.95183" lon="12.4662">
        <ele>49.693311</ele>
        <time>2020-08-14T08:16:49.371Z</time>
      </trkpt>
      <trkpt lat="65.95192" lon="12.4663">
        <ele>49.810695</ele>
        <time>2020-08-14T08:16:51.359Z</time>
      </trkpt>
      <trkpt lat="65.95202" lon="12.46639">
        <ele>49.924694</ele>
        <time>2020-08-14T08:16:53.364Z</time>
      </trkpt>
      <trkpt lat="65.95211" lon="12.46649">
        <ele>50.036092</ele>
        <time>2020-08-14T08:16:55.356Z</time>
      </trkpt>
      <trkpt lat="65.95219" lon="12.4666">
        <ele>50.148046</ele>
        <time>2020-08-14T08:16:57.361Z</time>
      </trkpt>
      <trkpt lat="65.95228" lon="12.46671">
        <ele>50.261211</ele>
        <time>2020-08-14T08:16:59.369Z</time>
      </trkpt>
      <trkpt lat="65.95237" lon="12.46681">
        <ele>50.375268</ele>
        <time>2020-08-14T08:17:01.384Z</time>
      </trkpt>
      <trkpt lat="65.95246" lon="12.46689">
        <ele>50.481677</ele>
        <time>2020-08-14T08:17:03.344Z</time>
      </trkpt>
      <trkpt lat="65.95254" lon="12.467">
        <ele>50.589513</ele>
        <time>2020-08-14T08:17:05.364Z</time>
      </trkpt>
      <trkpt lat="65.95263" lon="12.46709">
        <ele>50.701745</ele>
        <time>2020-08-14T08:17:07.347Z</time>
      </trkpt>
      <trkpt lat="65.95273" lon="12.46716">
        <ele>50.81439</ele>
        <time>2020-08-14T08:17:09.364Z</time>
      </trkpt>
      <trkpt lat="65.95282" lon="12.46724">
        <ele>50.927432</ele>
        <time>2020-08-14T08:17:11.369Z</time>
      </trkpt>
      <trkpt lat="65.95292" lon="12.46733">
        <ele>51.045325</ele>
        <time>2020-08-14T08:17:13.360Z</time>
      </trkpt>
      <trkpt lat="65.95301" lon="12.46743">
        <ele>51.161615</ele>
        <time>2020-08-14T08:17:15.358Z</time>
      </trkpt>
      <trkpt lat="65.9531" lon="12.46752">
        <ele>51.272787</ele>
        <time>2020-08-14T08:17:17.357Z</time>
      </trkpt>
      <trkpt lat="65.95319" lon="12.46762">
        <ele>51.38372</ele>
        <time>2020-08-14T08:17:19.387Z</time>
      </trkpt>
      <trkpt lat="65.95328" lon="12.46772">
        <ele>51.49303</ele>
        <time>2020-08-14T08:17:21.347Z</time>
      </trkpt>
      <trkpt lat="65.95336" lon="12.46783">
        <ele>51.689007</ele>
        <time>2020-08-14T08:17:23.391Z</time>
      </trkpt>
      <trkpt lat="65.95344" lon="12.46794">
        <ele>51.995196</ele>
        <time>2020-08-14T08:17:25.364Z</time>
      </trkpt>
      <trkpt lat="65.95356" lon="12.46808">
        <ele>52.432267</ele>
        <time>2020-08-14T08:17:28.368Z</time>
      </trkpt>
      <trkpt lat="65.95368" lon="12.46821">
        <ele>52.872406</ele>
        <time>2020-08-14T08:17:31.357Z</time>
      </trkpt>
      <trkpt lat="65.95376" lon="12.4683">
        <ele>53.194879</ele>
        <time>2020-08-14T08:17:33.381Z</time>
      </trkpt>
      <trkpt lat="65.95386" lon="12.46837">
        <ele>53.514625</ele>
        <time>2020-08-14T08:17:35.380Z</time>
      </trkpt>
      <trkpt lat="65.95397" lon="12.46848">
        <ele>53.914179</ele>
        <time>2020-08-14T08:17:38.362Z</time>
      </trkpt>
      <trkpt lat="65.95407" lon="12.4686">
        <ele>54.292953</ele>
        <time>2020-08-14T08:17:41.348Z</time>
      </trkpt>
      <trkpt lat="65.95418" lon="12.46873">
        <ele>54.70495</ele>
        <time>2020-08-14T08:17:44.357Z</time>
      </trkpt>
      <trkpt lat="65.95429" lon="12.46885">
        <ele>55.113333</ele>
        <time>2020-08-14T08:17:47.377Z</time>
      </trkpt>
      <trkpt lat="65.9544" lon="12.46897">
        <ele>55.510148</ele>
        <time>2020-08-14T08:17:50.368Z</time>
      </trkpt>
      <trkpt lat="65.9545" lon="12.4691">
        <ele>55.902125</ele>
        <time>2020-08-14T08:17:53.362Z</time>
      </trkpt>
      <trkpt lat="65.95461" lon="12.46923">
        <ele>56.287496</ele>
        <time>2020-08-14T08:17:56.403Z</time>
      </trkpt>
      <trkpt lat="65.95471" lon="12.46935">
        <ele>56.669872</ele>
        <time>2020-08-14T08:17:59.372Z</time>
      </trkpt>
      <trkpt lat="65.95481" lon="12.46948">
        <ele>57.06065</ele>
        <time>2020-08-14T08:18:02.366Z</time>
      </trkpt>
      <trkpt lat="65.95492" lon="12.46961">
        <ele>57.45924</ele>
        <time>2020-08-14T08:18:05.370Z</time>
      </trkpt>
      <trkpt lat="65.95503" lon="12.46974">
        <ele>57.946253</ele>
        <time>2020-08-14T08:18:08.393Z</time>
      </trkpt>
      <trkpt lat="65.95515" lon="12.46989">
        <ele>58.456159</ele>
        <time>2020-08-14T08:18:11.366Z</time>
      </trkpt>
      <trkpt lat="65.95526" lon="12.47003">
        <ele>58.954088</ele>
        <time>2020-08-14T08:18:14.359Z</time>
      </trkpt>
      <trkpt lat="65.95536" lon="12.47017">
        <ele>59.44222</ele>
        <time>2020-08-14T08:18:17.352Z</time>
      </trkpt>
      <trkpt lat="65.95547" lon="12.47031">
        <ele>59.92564</ele>
        <time>2020-08-14T08:18:20.362Z</time>
      </trkpt>
      <trkpt lat="65.95557" lon="12.47046">
        <ele>60.41086</ele>
        <time>2020-08-14T08:18:23.372Z</time>
      </trkpt>
      <trkpt lat="65.95568" lon="12.47061">
        <ele>60.918982</ele>
        <time>2020-08-14T08:18:26.382Z</time>
      </trkpt>
      <trkpt lat="65.95578" lon="12.47077">
        <ele>61.397263</ele>
        <time>2020-08-14T08:18:29.377Z</time>
      </trkpt>
      <trkpt lat="65.95588" lon="12.47092">
        <ele>61.866983</ele>
        <time>2020-08-14T08:18:32.397Z</time>
      </trkpt>
      <trkpt lat="65.95598" lon="12.47107">
        <ele>62.330785</ele>
        <time>2020-08-14T08:18:35.363Z</time>
      </trkpt>
      <trkpt lat="65.95608" lon="12.47123">
        <ele>62.796096</ele>
        <time>2020-08-14T08:18:38.364Z</time>
      </trkpt>
      <trkpt lat="65.95617" lon="12.47138">
        <ele>63.239466</ele>
        <time>2020-08-14T08:18:41.362Z</time>
      </trkpt>
      <trkpt lat="65.95626" lon="12.47154">
        <ele>63.694982</ele>
        <time>2020-08-14T08:18:44.357Z</time>
      </trkpt>
      <trkpt lat="65.95636" lon="12.4717">
        <ele>64.18243</ele>
        <time>2020-08-14T08:18:47.376Z</time>
      </trkpt>
      <trkpt lat="65.95646" lon="12.47187">
        <ele>64.661866</ele>
        <time>2020-08-14T08:18:50.363Z</time>
      </trkpt>
      <trkpt lat="65.95656" lon="12.47204">
        <ele>64.709531</ele>
        <time>2020-08-14T08:18:53.373Z</time>
      </trkpt>
      <trkpt lat="65.95666" lon="12.47224">
        <ele>64.5493</ele>
        <time>2020-08-14T08:18:56.353Z</time>
      </trkpt>
      <trkpt lat="65.95675" lon="12.47241">
        <ele>64.400149</ele>
        <time>2020-08-14T08:18:59.377Z</time>
      </trkpt>
      <trkpt lat="65.95685" lon="12.47257">
        <ele>64.252478</ele>
        <time>2020-08-14T08:19:02.352Z</time>
      </trkpt>
      <trkpt lat="65.95694" lon="12.47275">
        <ele>64.105281</ele>
        <time>2020-08-14T08:19:05.354Z</time>
      </trkpt>
      <trkpt lat="65.95703" lon="12.47292">
        <ele>63.955749</ele>
        <time>2020-08-14T08:19:08.400Z</time>
      </trkpt>
      <trkpt lat="65.95713" lon="12.4731">
        <ele>63.801826</ele>
        <time>2020-08-14T08:19:11.373Z</time>
      </trkpt>
      <trkpt lat="65.95723" lon="12.47327">
        <ele>63.647477</ele>
        <time>2020-08-14T08:19:14.371Z</time>
      </trkpt>
      <trkpt lat="65.95732" lon="12.47345">
        <ele>63.494359</ele>
        <time>2020-08-14T08:19:17.372Z</time>
      </trkpt>
      <trkpt lat="65.95742" lon="12.47362">
        <ele>63.340741</ele>
        <time>2020-08-14T08:19:20.369Z</time>
      </trkpt>
      <trkpt lat="65.95752" lon="12.4738">
        <ele>63.184878</ele>
        <time>2020-08-14T08:19:23.365Z</time>
      </trkpt>
      <trkpt lat="65.95762" lon="12.47398">
        <ele>63.025186</ele>
        <time>2020-08-14T08:19:26.380Z</time>
      </trkpt>
      <trkpt lat="65.95773" lon="12.47417">
        <ele>62.85889</ele>
        <time>2020-08-14T08:19:29.381Z</time>
      </trkpt>
      <trkpt lat="65.95783" lon="12.47436">
        <ele>62.697586</ele>
        <time>2020-08-14T08:19:32.364Z</time>
      </trkpt>
      <trkpt lat="65.95793" lon="12.47454">
        <ele>62.539165</ele>
        <time>2020-08-14T08:19:35.349Z</time>
      </trkpt>
      <trkpt lat="65.95802" lon="12.47472">
        <ele>62.716881</ele>
        <time>2020-08-14T08:19:38.348Z</time>
      </trkpt>
      <trkpt lat="65.95812" lon="12.4749">
        <ele>62.91806</ele>
        <time>2020-08-14T08:19:41.367Z</time>
      </trkpt>
      <trkpt lat="65.95821" lon="12.47506">
        <ele>63.110078</ele>
        <time>2020-08-14T08:19:44.350Z</time>
      </trkpt>
      <trkpt lat="65.9583" lon="12.47522">
        <ele>63.295986</ele>
        <time>2020-08-14T08:19:47.361Z</time>
      </trkpt>
      <trkpt lat="65.95839" lon="12.47538">
        <ele>63.493789</ele>
        <time>2020-08-14T08:19:50.395Z</time>
      </trkpt>
      <trkpt lat="65.95849" lon="12.47554">
        <ele>63.694002</ele>
        <time>2020-08-14T08:19:53.376Z</time>
      </trkpt>
      <trkpt lat="65.95859" lon="12.4757">
        <ele>63.891271</ele>
        <time>2020-08-14T08:19:56.396Z</time>
      </trkpt>
      <trkpt lat="65.95869" lon="12.47585">
        <ele>64.091667</ele>
        <time>2020-08-14T08:19:59.359Z</time>
      </trkpt>
      <trkpt lat="65.95879" lon="12.47601">
        <ele>64.299287</ele>
        <time>2020-08-14T08:20:02.368Z</time>
      </trkpt>
      <trkpt lat="65.9589" lon="12.47616">
        <ele>64.503342</ele>
        <time>2020-08-14T08:20:05.359Z</time>
      </trkpt>
      <trkpt lat="65.959" lon="12.47631">
        <ele>64.712487</ele>
        <time>2020-08-14T08:20:08.395Z</time>
      </trkpt>
      <trkpt lat="65.95909" lon="12.4764">
        <ele>64.868543</ele>
        <time>2020-08-14T08:20:10.407Z</time>
      </trkpt>
      <trkpt lat="65.95921" lon="12.47655">
        <ele>65.091899</ele>
        <time>2020-08-14T08:20:13.354Z</time>
      </trkpt>
      <trkpt lat="65.95932" lon="12.4767">
        <ele>65.318582</ele>
        <time>2020-08-14T08:20:16.363Z</time>
      </trkpt>
      <trkpt lat="65.9594" lon="12.4768">
        <ele>65.471025</ele>
        <time>2020-08-14T08:20:18.412Z</time>
      </trkpt>
      <trkpt lat="65.95952" lon="12.47695">
        <ele>65.54641</ele>
        <time>2020-08-14T08:20:21.372Z</time>
      </trkpt>
      <trkpt lat="65.95961" lon="12.47705">
        <ele>65.506312</ele>
        <time>2020-08-14T08:20:23.370Z</time>
      </trkpt>
      <trkpt lat="65.95969" lon="12.47714">
        <ele>65.464506</ele>
        <time>2020-08-14T08:20:25.400Z</time>
      </trkpt>
      <trkpt lat="65.95978" lon="12.47722">
        <ele>65.425005</ele>
        <time>2020-08-14T08:20:27.370Z</time>
      </trkpt>
      <trkpt lat="65.95987" lon="12.4773">
        <ele>65.383472</ele>
        <time>2020-08-14T08:20:29.361Z</time>
      </trkpt>
      <trkpt lat="65.95995" lon="12.47738">
        <ele>65.342815</ele>
        <time>2020-08-14T08:20:31.371Z</time>
      </trkpt>
      <trkpt lat="65.96004" lon="12.47746">
        <ele>65.303047</ele>
        <time>2020-08-14T08:20:33.362Z</time>
      </trkpt>
      <trkpt lat="65.96012" lon="12.47754">
        <ele>65.261914</ele>
        <time>2020-08-14T08:20:35.372Z</time>
      </trkpt>
      <trkpt lat="65.96021" lon="12.47764">
        <ele>65.220065</ele>
        <time>2020-08-14T08:20:37.375Z</time>
      </trkpt>
      <trkpt lat="65.96033" lon="12.47777">
        <ele>65.160761</ele>
        <time>2020-08-14T08:20:40.358Z</time>
      </trkpt>
      <trkpt lat="65.96042" lon="12.47785">
        <ele>65.120856</ele>
        <time>2020-08-14T08:20:42.373Z</time>
      </trkpt>
      <trkpt lat="65.9605" lon="12.47795">
        <ele>65.080911</ele>
        <time>2020-08-14T08:20:44.365Z</time>
      </trkpt>
      <trkpt lat="65.96062" lon="12.47809">
        <ele>65.022191</ele>
        <time>2020-08-14T08:20:47.382Z</time>
      </trkpt>
      <trkpt lat="65.96073" lon="12.47824">
        <ele>64.965705</ele>
        <time>2020-08-14T08:20:50.362Z</time>
      </trkpt>
      <trkpt lat="65.96084" lon="12.47839">
        <ele>64.909817</ele>
        <time>2020-08-14T08:20:53.407Z</time>
      </trkpt>
      <trkpt lat="65.96096" lon="12.47854">
        <ele>64.851864</ele>
        <time>2020-08-14T08:20:56.396Z</time>
      </trkpt>
      <trkpt lat="65.96104" lon="12.47864">
        <ele>64.81135</ele>
        <time>2020-08-14T08:20:58.382Z</time>
      </trkpt>
      <trkpt lat="65.96116" lon="12.47879">
        <ele>64.727162</ele>
        <time>2020-08-14T08:21:01.360Z</time>
      </trkpt>
      <trkpt lat="65.96124" lon="12.47888">
        <ele>64.65552</ele>
        <time>2020-08-14T08:21:03.407Z</time>
      </trkpt>
      <trkpt lat="65.96132" lon="12.47899">
        <ele>64.585507</ele>
        <time>2020-08-14T08:21:05.361Z</time>
      </trkpt>
      <trkpt lat="65.9614" lon="12.4791">
        <ele>64.512592</ele>
        <time>2020-08-14T08:21:07.433Z</time>
      </trkpt>
      <trkpt lat="65.96149" lon="12.4792">
        <ele>64.441788</ele>
        <time>2020-08-14T08:21:09.349Z</time>
      </trkpt>
      <trkpt lat="65.96157" lon="12.4793">
        <ele>64.370788</ele>
        <time>2020-08-14T08:21:11.389Z</time>
      </trkpt>
      <trkpt lat="65.96168" lon="12.47945">
        <ele>64.267109</ele>
        <time>2020-08-14T08:21:14.373Z</time>
      </trkpt>
      <trkpt lat="65.96176" lon="12.47956">
        <ele>64.196108</ele>
        <time>2020-08-14T08:21:16.369Z</time>
      </trkpt>
      <trkpt lat="65.96184" lon="12.47966">
        <ele>64.125999</ele>
        <time>2020-08-14T08:21:18.372Z</time>
      </trkpt>
      <trkpt lat="65.96196" lon="12.47981">
        <ele>64.021849</ele>
        <time>2020-08-14T08:21:21.355Z</time>
      </trkpt>
      <trkpt lat="65.96204" lon="12.47992">
        <ele>63.951743</ele>
        <time>2020-08-14T08:21:23.362Z</time>
      </trkpt>
      <trkpt lat="65.96212" lon="12.48003">
        <ele>63.880804</ele>
        <time>2020-08-14T08:21:25.353Z</time>
      </trkpt>
      <trkpt lat="65.96223" lon="12.4802">
        <ele>63.776021</ele>
        <time>2020-08-14T08:21:28.412Z</time>
      </trkpt>
      <trkpt lat="65.96234" lon="12.48038">
        <ele>63.674996</ele>
        <time>2020-08-14T08:21:31.360Z</time>
      </trkpt>
      <trkpt lat="65.96244" lon="12.48056">
        <ele>63.578606</ele>
        <time>2020-08-14T08:21:34.395Z</time>
      </trkpt>
      <trkpt lat="65.96254" lon="12.48075">
        <ele>63.482901</ele>
        <time>2020-08-14T08:21:37.365Z</time>
      </trkpt>
      <trkpt lat="65.96263" lon="12.48094">
        <ele>63.38779</ele>
        <time>2020-08-14T08:21:40.365Z</time>
      </trkpt>
      <trkpt lat="65.96271" lon="12.48116">
        <ele>64.366443</ele>
        <time>2020-08-14T08:21:43.372Z</time>
      </trkpt>
      <trkpt lat="65.96279" lon="12.48135">
        <ele>65.318048</ele>
        <time>2020-08-14T08:21:46.360Z</time>
      </trkpt>
      <trkpt lat="65.96286" lon="12.48153">
        <ele>66.174085</ele>
        <time>2020-08-14T08:21:49.353Z</time>
      </trkpt>
      <trkpt lat="65.96292" lon="12.48171">
        <ele>67.008207</ele>
        <time>2020-08-14T08:21:52.371Z</time>
      </trkpt>
      <trkpt lat="65.96299" lon="12.48191">
        <ele>67.888332</ele>
        <time>2020-08-14T08:21:55.365Z</time>
      </trkpt>
      <trkpt lat="65.96305" lon="12.48209">
        <ele>68.710736</ele>
        <time>2020-08-14T08:21:58.369Z</time>
      </trkpt>
      <trkpt lat="65.9631" lon="12.48227">
        <ele>69.50628</ele>
        <time>2020-08-14T08:22:01.357Z</time>
      </trkpt>
      <trkpt lat="65.96318" lon="12.48249">
        <ele>70.496781</ele>
        <time>2020-08-14T08:22:05.386Z</time>
      </trkpt>
      <trkpt lat="65.96325" lon="12.48272">
        <ele>71.495502</ele>
        <time>2020-08-14T08:22:09.363Z</time>
      </trkpt>
      <trkpt lat="65.96332" lon="12.48294">
        <ele>72.486161</ele>
        <time>2020-08-14T08:22:13.352Z</time>
      </trkpt>
      <trkpt lat="65.96338" lon="12.48311">
        <ele>73.262316</ele>
        <time>2020-08-14T08:22:16.375Z</time>
      </trkpt>
      <trkpt lat="65.96343" lon="12.48329">
        <ele>74.065852</ele>
        <time>2020-08-14T08:22:19.385Z</time>
      </trkpt>
      <trkpt lat="65.96349" lon="12.48346">
        <ele>74.844652</ele>
        <time>2020-08-14T08:22:22.378Z</time>
      </trkpt>
      <trkpt lat="65.96355" lon="12.48364">
        <ele>75.626184</ele>
        <time>2020-08-14T08:22:25.357Z</time>
      </trkpt>
      <trkpt lat="65.96362" lon="12.48387">
        <ele>76.645157</ele>
        <time>2020-08-14T08:22:29.357Z</time>
      </trkpt>
      <trkpt lat="65.96367" lon="12.48405">
        <ele>77.429922</ele>
        <time>2020-08-14T08:22:32.377Z</time>
      </trkpt>
      <trkpt lat="65.96373" lon="12.48423">
        <ele>78.204458</ele>
        <time>2020-08-14T08:22:35.375Z</time>
      </trkpt>
      <trkpt lat="65.96379" lon="12.4844">
        <ele>78.882842</ele>
        <time>2020-08-14T08:22:38.348Z</time>
      </trkpt>
      <trkpt lat="65.96385" lon="12.48458">
        <ele>79.088132</ele>
        <time>2020-08-14T08:22:41.368Z</time>
      </trkpt>
      <trkpt lat="65.9639" lon="12.48475">
        <ele>79.28921</ele>
        <time>2020-08-14T08:22:44.391Z</time>
      </trkpt>
      <trkpt lat="65.96396" lon="12.48493">
        <ele>79.489641</ele>
        <time>2020-08-14T08:22:47.397Z</time>
      </trkpt>
      <trkpt lat="65.96403" lon="12.48517">
        <ele>79.755458</ele>
        <time>2020-08-14T08:22:51.380Z</time>
      </trkpt>
      <trkpt lat="65.96408" lon="12.48534">
        <ele>79.955992</ele>
        <time>2020-08-14T08:22:54.373Z</time>
      </trkpt>
      <trkpt lat="65.96415" lon="12.48557">
        <ele>80.215942</ele>
        <time>2020-08-14T08:22:58.368Z</time>
      </trkpt>
      <trkpt lat="65.96421" lon="12.48574">
        <ele>80.4156</ele>
        <time>2020-08-14T08:23:01.380Z</time>
      </trkpt>
      <trkpt lat="65.96428" lon="12.48597">
        <ele>80.670923</ele>
        <time>2020-08-14T08:23:05.363Z</time>
      </trkpt>
      <trkpt lat="65.96435" lon="12.4862">
        <ele>80.926244</ele>
        <time>2020-08-14T08:23:09.376Z</time>
      </trkpt>
      <trkpt lat="65.96441" lon="12.4864">
        <ele>81.158182</ele>
        <time>2020-08-14T08:23:13.382Z</time>
      </trkpt>
      <trkpt lat="65.96447" lon="12.4866">
        <ele>81.378537</ele>
        <time>2020-08-14T08:23:17.371Z</time>
      </trkpt>
      <trkpt lat="65.96453" lon="12.4868">
        <ele>81.605151</ele>
        <time>2020-08-14T08:23:21.366Z</time>
      </trkpt>
      <trkpt lat="65.96459" lon="12.48699">
        <ele>81.814608</ele>
        <time>2020-08-14T08:23:25.360Z</time>
      </trkpt>
      <trkpt lat="65.96465" lon="12.48718">
        <ele>82.034809</ele>
        <time>2020-08-14T08:23:29.363Z</time>
      </trkpt>
      <trkpt lat="65.96471" lon="12.4874">
        <ele>82.283723</ele>
        <time>2020-08-14T08:23:33.410Z</time>
      </trkpt>
      <trkpt lat="65.96478" lon="12.48763">
        <ele>82.535544</ele>
        <time>2020-08-14T08:23:37.397Z</time>
      </trkpt>
      <trkpt lat="65.96484" lon="12.48781">
        <ele>82.745849</ele>
        <time>2020-08-14T08:23:41.376Z</time>
      </trkpt>
      <trkpt lat="65.96489" lon="12.48802">
        <ele>83.175861</ele>
        <time>2020-08-14T08:23:45.382Z</time>
      </trkpt>
      <trkpt lat="65.96494" lon="12.48824">
        <ele>83.757917</ele>
        <time>2020-08-14T08:23:49.360Z</time>
      </trkpt>
      <trkpt lat="65.96499" lon="12.48847">
        <ele>84.321769</ele>
        <time>2020-08-14T08:23:53.372Z</time>
      </trkpt>
      <trkpt lat="65.96502" lon="12.48867">
        <ele>84.829894</ele>
        <time>2020-08-14T08:23:57.392Z</time>
      </trkpt>
      <trkpt lat="65.96506" lon="12.48889">
        <ele>85.360945</ele>
        <time>2020-08-14T08:24:01.359Z</time>
      </trkpt>
      <trkpt lat="65.96509" lon="12.48911">
        <ele>85.892573</ele>
        <time>2020-08-14T08:24:05.376Z</time>
      </trkpt>
      <trkpt lat="65.96513" lon="12.48934">
        <ele>86.425888</ele>
        <time>2020-08-14T08:24:09.353Z</time>
      </trkpt>
      <trkpt lat="65.96515" lon="12.48956">
        <ele>86.942227</ele>
        <time>2020-08-14T08:24:13.396Z</time>
      </trkpt>
      <trkpt lat="65.96518" lon="12.48977">
        <ele>87.454454</ele>
        <time>2020-08-14T08:24:17.350Z</time>
      </trkpt>
      <trkpt lat="65.9652" lon="12.49001">
        <ele>87.988678</ele>
        <time>2020-08-14T08:24:21.397Z</time>
      </trkpt>
      <trkpt lat="65.96521" lon="12.49027">
        <ele>88.595686</ele>
        <time>2020-08-14T08:24:26.366Z</time>
      </trkpt>
      <trkpt lat="65.96523" lon="12.49053">
        <ele>89.19153</ele>
        <time>2020-08-14T08:24:31.374Z</time>
      </trkpt>
      <trkpt lat="65.96523" lon="12.49079">
        <ele>89.763107</ele>
        <time>2020-08-14T08:24:35.397Z</time>
      </trkpt>
      <trkpt lat="65.96523" lon="12.49105">
        <ele>90.352341</ele>
        <time>2020-08-14T08:24:40.389Z</time>
      </trkpt>
      <trkpt lat="65.96523" lon="12.4913">
        <ele>90.934801</ele>
        <time>2020-08-14T08:24:45.365Z</time>
      </trkpt>
      <trkpt lat="65.96523" lon="12.49154">
        <ele>91.456284</ele>
        <time>2020-08-14T08:24:50.375Z</time>
      </trkpt>
      <trkpt lat="65.96522" lon="12.4918">
        <ele>92.054835</ele>
        <time>2020-08-14T08:24:56.361Z</time>
      </trkpt>
      <trkpt lat="65.96521" lon="12.49203">
        <ele>92.573144</ele>
        <time>2020-08-14T08:25:01.360Z</time>
      </trkpt>
      <trkpt lat="65.9652" lon="12.49226">
        <ele>93.072534</ele>
        <time>2020-08-14T08:25:06.378Z</time>
      </trkpt>
      <trkpt lat="65.96519" lon="12.49248">
        <ele>93.550277</ele>
        <time>2020-08-14T08:25:11.371Z</time>
      </trkpt>
      <trkpt lat="65.96517" lon="12.49275">
        <ele>94.122725</ele>
        <time>2020-08-14T08:25:17.449Z</time>
      </trkpt>
      <trkpt lat="65.96515" lon="12.49298">
        <ele>94.613783</ele>
        <time>2020-08-14T08:25:22.405Z</time>
      </trkpt>
      <trkpt lat="65.96513" lon="12.49323">
        <ele>95.144924</ele>
        <time>2020-08-14T08:25:27.387Z</time>
      </trkpt>
      <trkpt lat="65.96511" lon="12.49347">
        <ele>95.652528</ele>
        <time>2020-08-14T08:25:32.392Z</time>
      </trkpt>
      <trkpt lat="65.9651" lon="12.49369">
        <ele>96.124996</ele>
        <time>2020-08-14T08:25:37.370Z</time>
      </trkpt>
      <trkpt lat="65.96508" lon="12.49392">
        <ele>96.630531</ele>
        <time>2020-08-14T08:25:42.404Z</time>
      </trkpt>
      <trkpt lat="65.96507" lon="12.49417">
        <ele>97.159854</ele>
        <time>2020-08-14T08:25:47.360Z</time>
      </trkpt>
      <trkpt lat="65.96506" lon="12.49444">
        <ele>97.722632</ele>
        <time>2020-08-14T08:25:52.352Z</time>
      </trkpt>
      <trkpt lat="65.96504" lon="12.4947">
        <ele>98.272515</ele>
        <time>2020-08-14T08:25:57.377Z</time>
      </trkpt>
      <trkpt lat="65.96502" lon="12.49495">
        <ele>98.799993</ele>
        <time>2020-08-14T08:26:02.362Z</time>
      </trkpt>
      <trkpt lat="65.965" lon="12.4952">
        <ele>99.346956</ele>
        <time>2020-08-14T08:26:07.382Z</time>
      </trkpt>
      <trkpt lat="65.96499" lon="12.49548">
        <ele>99.927734</ele>
        <time>2020-08-14T08:26:12.412Z</time>
      </trkpt>
      <trkpt lat="65.96498" lon="12.49571">
        <ele>100.422727</ele>
        <time>2020-08-14T08:26:16.356Z</time>
      </trkpt>
      <trkpt lat="65.96498" lon="12.49595">
        <ele>100.917073</ele>
        <time>2020-08-14T08:26:20.353Z</time>
      </trkpt>
      <trkpt lat="65.96498" lon="12.49622">
        <ele>101.484648</ele>
        <time>2020-08-14T08:26:25.374Z</time>
      </trkpt>
      <trkpt lat="65.96499" lon="12.49648">
        <ele>102.046138</ele>
        <time>2020-08-14T08:26:30.376Z</time>
      </trkpt>
      <trkpt lat="65.965" lon="12.49671">
        <ele>101.937108</ele>
        <time>2020-08-14T08:26:34.376Z</time>
      </trkpt>
      <trkpt lat="65.96502" lon="12.49697">
        <ele>101.773083</ele>
        <time>2020-08-14T08:26:38.357Z</time>
      </trkpt>
      <trkpt lat="65.96505" lon="12.49725">
        <ele>101.592765</ele>
        <time>2020-08-14T08:26:42.363Z</time>
      </trkpt>
      <trkpt lat="65.96508" lon="12.49752">
        <ele>101.409158</ele>
        <time>2020-08-14T08:26:46.411Z</time>
      </trkpt>
      <trkpt lat="65.96512" lon="12.49779">
        <ele>101.230467</ele>
        <time>2020-08-14T08:26:50.391Z</time>
      </trkpt>
      <trkpt lat="65.96516" lon="12.49805">
        <ele>101.05282</ele>
        <time>2020-08-14T08:26:54.379Z</time>
      </trkpt>
      <trkpt lat="65.9652" lon="12.49828">
        <ele>100.895685</ele>
        <time>2020-08-14T08:26:57.392Z</time>
      </trkpt>
      <trkpt lat="65.96525" lon="12.49851">
        <ele>100.736619</ele>
        <time>2020-08-14T08:27:00.349Z</time>
      </trkpt>
      <trkpt lat="65.96529" lon="12.49874">
        <ele>100.577331</ele>
        <time>2020-08-14T08:27:03.391Z</time>
      </trkpt>
      <trkpt lat="65.96534" lon="12.49899">
        <ele>100.401171</ele>
        <time>2020-08-14T08:27:06.347Z</time>
      </trkpt>
      <trkpt lat="65.9654" lon="12.49923">
        <ele>100.222811</ele>
        <time>2020-08-14T08:27:09.367Z</time>
      </trkpt>
      <trkpt lat="65.96546" lon="12.49944">
        <ele>100.059014</ele>
        <time>2020-08-14T08:27:12.370Z</time>
      </trkpt>
      <trkpt lat="65.96552" lon="12.49965">
        <ele>99.896168</ele>
        <time>2020-08-14T08:27:15.353Z</time>
      </trkpt>
      <trkpt lat="65.96559" lon="12.49985">
        <ele>99.730918</ele>
        <time>2020-08-14T08:27:18.392Z</time>
      </trkpt>
      <trkpt lat="65.96566" lon="12.50003">
        <ele>99.571255</ele>
        <time>2020-08-14T08:27:21.372Z</time>
      </trkpt>
      <trkpt lat="65.96574" lon="12.50023">
        <ele>99.400925</ele>
        <time>2020-08-14T08:27:24.369Z</time>
      </trkpt>
      <trkpt lat="65.96582" lon="12.50042">
        <ele>99.34485</ele>
        <time>2020-08-14T08:27:27.381Z</time>
      </trkpt>
      <trkpt lat="65.96589" lon="12.5006">
        <ele>99.494754</ele>
        <time>2020-08-14T08:27:30.357Z</time>
      </trkpt>
      <trkpt lat="65.96597" lon="12.50076">
        <ele>99.641698</ele>
        <time>2020-08-14T08:27:33.372Z</time>
      </trkpt>
      <trkpt lat="65.96605" lon="12.50094">
        <ele>99.791163</ele>
        <time>2020-08-14T08:27:36.359Z</time>
      </trkpt>
      <trkpt lat="65.96612" lon="12.50113">
        <ele>99.950163</ele>
        <time>2020-08-14T08:27:39.393Z</time>
      </trkpt>
      <trkpt lat="65.9662" lon="12.50134">
        <ele>100.114669</ele>
        <time>2020-08-14T08:27:42.371Z</time>
      </trkpt>
      <trkpt lat="65.96628" lon="12.50153">
        <ele>100.277244</ele>
        <time>2020-08-14T08:27:45.364Z</time>
      </trkpt>
      <trkpt lat="65.96636" lon="12.50173">
        <ele>100.43697</ele>
        <time>2020-08-14T08:27:48.389Z</time>
      </trkpt>
      <trkpt lat="65.96644" lon="12.50191">
        <ele>100.593857</ele>
        <time>2020-08-14T08:27:51.381Z</time>
      </trkpt>
      <trkpt lat="65.96651" lon="12.50208">
        <ele>100.739667</ele>
        <time>2020-08-14T08:27:54.353Z</time>
      </trkpt>
      <trkpt lat="65.96659" lon="12.50227">
        <ele>100.895892</ele>
        <time>2020-08-14T08:27:57.369Z</time>
      </trkpt>
      <trkpt lat="65.96667" lon="12.50246">
        <ele>101.052537</ele>
        <time>2020-08-14T08:28:00.364Z</time>
      </trkpt>
      <trkpt lat="65.96675" lon="12.50264">
        <ele>101.210873</ele>
        <time>2020-08-14T08:28:03.401Z</time>
      </trkpt>
      <trkpt lat="65.96683" lon="12.50282">
        <ele>101.365913</ele>
        <time>2020-08-14T08:28:06.350Z</time>
      </trkpt>
      <trkpt lat="65.96691" lon="12.50301">
        <ele>101.523772</ele>
        <time>2020-08-14T08:28:09.354Z</time>
      </trkpt>
      <trkpt lat="65.96698" lon="12.5032">
        <ele>101.676728</ele>
        <time>2020-08-14T08:28:12.384Z</time>
      </trkpt>
      <trkpt lat="65.96706" lon="12.50339">
        <ele>101.832951</ele>
        <time>2020-08-14T08:28:15.376Z</time>
      </trkpt>
      <trkpt lat="65.96715" lon="12.50357">
        <ele>102.002024</ele>
        <time>2020-08-14T08:28:18.400Z</time>
      </trkpt>
      <trkpt lat="65.96723" lon="12.50375">
        <ele>102.167979</ele>
        <time>2020-08-14T08:28:21.400Z</time>
      </trkpt>
      <trkpt lat="65.96731" lon="12.50395">
        <ele>102.337528</ele>
        <time>2020-08-14T08:28:24.356Z</time>
      </trkpt>
      <trkpt lat="65.9674" lon="12.50416">
        <ele>102.523464</ele>
        <time>2020-08-14T08:28:27.408Z</time>
      </trkpt>
      <trkpt lat="65.96749" lon="12.50438">
        <ele>102.719641</ele>
        <time>2020-08-14T08:28:30.374Z</time>
      </trkpt>
      <trkpt lat="65.96758" lon="12.50458">
        <ele>102.894946</ele>
        <time>2020-08-14T08:28:33.384Z</time>
      </trkpt>
      <trkpt lat="65.96767" lon="12.50479">
        <ele>103.073011</ele>
        <time>2020-08-14T08:28:36.421Z</time>
      </trkpt>
      <trkpt lat="65.96774" lon="12.50498">
        <ele>103.238997</ele>
        <time>2020-08-14T08:28:39.353Z</time>
      </trkpt>
      <trkpt lat="65.96782" lon="12.50518">
        <ele>103.408745</ele>
        <time>2020-08-14T08:28:42.380Z</time>
      </trkpt>
      <trkpt lat="65.9679" lon="12.50538">
        <ele>103.574283</ele>
        <time>2020-08-14T08:28:45.391Z</time>
      </trkpt>
      <trkpt lat="65.96797" lon="12.5056">
        <ele>103.74545</ele>
        <time>2020-08-14T08:28:48.384Z</time>
      </trkpt>
      <trkpt lat="65.96805" lon="12.50582">
        <ele>103.918903</ele>
        <time>2020-08-14T08:28:51.408Z</time>
      </trkpt>
      <trkpt lat="65.96812" lon="12.50604">
        <ele>104.099032</ele>
        <time>2020-08-14T08:28:54.363Z</time>
      </trkpt>
      <trkpt lat="65.9682" lon="12.50628">
        <ele>104.285238</ele>
        <time>2020-08-14T08:28:57.364Z</time>
      </trkpt>
      <trkpt lat="65.96827" lon="12.50653">
        <ele>104.471511</ele>
        <time>2020-08-14T08:29:00.375Z</time>
      </trkpt>
      <trkpt lat="65.96834" lon="12.50678">
        <ele>104.625995</ele>
        <time>2020-08-14T08:29:03.354Z</time>
      </trkpt>
      <trkpt lat="65.9684" lon="12.50703">
        <ele>104.754361</ele>
        <time>2020-08-14T08:29:06.361Z</time>
      </trkpt>
      <trkpt lat="65.96846" lon="12.50726">
        <ele>104.873903</ele>
        <time>2020-08-14T08:29:09.357Z</time>
      </trkpt>
      <trkpt lat="65.96852" lon="12.50748">
        <ele>104.991372</ele>
        <time>2020-08-14T08:29:12.392Z</time>
      </trkpt>
      <trkpt lat="65.96859" lon="12.50771">
        <ele>105.117995</ele>
        <time>2020-08-14T08:29:15.382Z</time>
      </trkpt>
      <trkpt lat="65.96865" lon="12.50793">
        <ele>105.237882</ele>
        <time>2020-08-14T08:29:18.440Z</time>
      </trkpt>
      <trkpt lat="65.96872" lon="12.50818">
        <ele>105.367574</ele>
        <time>2020-08-14T08:29:21.372Z</time>
      </trkpt>
      <trkpt lat="65.96878" lon="12.50844">
        <ele>105.501785</ele>
        <time>2020-08-14T08:29:24.383Z</time>
      </trkpt>
      <trkpt lat="65.96885" lon="12.5087">
        <ele>105.639608</ele>
        <time>2020-08-14T08:29:27.386Z</time>
      </trkpt>
      <trkpt lat="65.96892" lon="12.50895">
        <ele>105.770046</ele>
        <time>2020-08-14T08:29:30.373Z</time>
      </trkpt>
      <trkpt lat="65.96898" lon="12.50923">
        <ele>105.912953</ele>
        <time>2020-08-14T08:29:33.371Z</time>
      </trkpt>
      <trkpt lat="65.96905" lon="12.50951">
        <ele>106.057902</ele>
        <time>2020-08-14T08:29:36.363Z</time>
      </trkpt>
      <trkpt lat="65.9691" lon="12.5097">
        <ele>106.155345</ele>
        <time>2020-08-14T08:29:38.358Z</time>
      </trkpt>
      <trkpt lat="65.96915" lon="12.50989">
        <ele>106.257199</ele>
        <time>2020-08-14T08:29:40.410Z</time>
      </trkpt>
      <trkpt lat="65.9692" lon="12.51008">
        <ele>106.355588</ele>
        <time>2020-08-14T08:29:42.356Z</time>
      </trkpt>
      <trkpt lat="65.96927" lon="12.51035">
        <ele>106.500589</ele>
        <time>2020-08-14T08:29:45.365Z</time>
      </trkpt>
      <trkpt lat="65.96935" lon="12.51063">
        <ele>106.787941</ele>
        <time>2020-08-14T08:29:48.388Z</time>
      </trkpt>
      <trkpt lat="65.9694" lon="12.51081">
        <ele>106.986238</ele>
        <time>2020-08-14T08:29:50.358Z</time>
      </trkpt>
      <trkpt lat="65.96948" lon="12.51107">
        <ele>107.266257</ele>
        <time>2020-08-14T08:29:53.365Z</time>
      </trkpt>
      <trkpt lat="65.96956" lon="12.51131">
        <ele>107.541961</ele>
        <time>2020-08-14T08:29:56.356Z</time>
      </trkpt>
      <trkpt lat="65.96963" lon="12.51157">
        <ele>107.82158</ele>
        <time>2020-08-14T08:29:59.351Z</time>
      </trkpt>
      <trkpt lat="65.96971" lon="12.51181">
        <ele>108.092464</ele>
        <time>2020-08-14T08:30:02.377Z</time>
      </trkpt>
      <trkpt lat="65.9698" lon="12.51204">
        <ele>108.362007</ele>
        <time>2020-08-14T08:30:05.361Z</time>
      </trkpt>
      <trkpt lat="65.96987" lon="12.51225">
        <ele>108.612736</ele>
        <time>2020-08-14T08:30:08.380Z</time>
      </trkpt>
      <trkpt lat="65.96995" lon="12.51245">
        <ele>108.855038</ele>
        <time>2020-08-14T08:30:11.359Z</time>
      </trkpt>
      <trkpt lat="65.97003" lon="12.51262">
        <ele>109.076687</ele>
        <time>2020-08-14T08:30:14.357Z</time>
      </trkpt>
      <trkpt lat="65.9701" lon="12.51279">
        <ele>109.291646</ele>
        <time>2020-08-14T08:30:17.363Z</time>
      </trkpt>
      <trkpt lat="65.97018" lon="12.51295">
        <ele>109.507361</ele>
        <time>2020-08-14T08:30:20.361Z</time>
      </trkpt>
      <trkpt lat="65.97024" lon="12.51309">
        <ele>109.703575</ele>
        <time>2020-08-14T08:30:23.373Z</time>
      </trkpt>
      <trkpt lat="65.97032" lon="12.51324">
        <ele>109.913691</ele>
        <time>2020-08-14T08:30:26.381Z</time>
      </trkpt>
      <trkpt lat="65.97039" lon="12.51339">
        <ele>110.114874</ele>
        <time>2020-08-14T08:30:29.369Z</time>
      </trkpt>
      <trkpt lat="65.97046" lon="12.51352">
        <ele>110.309423</ele>
        <time>2020-08-14T08:30:32.372Z</time>
      </trkpt>
      <trkpt lat="65.97055" lon="12.51368">
        <ele>110.684845</ele>
        <time>2020-08-14T08:30:36.373Z</time>
      </trkpt>
      <trkpt lat="65.97065" lon="12.51383">
        <ele>111.139922</ele>
        <time>2020-08-14T08:30:40.368Z</time>
      </trkpt>
      <trkpt lat="65.97074" lon="12.514">
        <ele>111.623684</ele>
        <time>2020-08-14T08:30:44.357Z</time>
      </trkpt>
      <trkpt lat="65.97082" lon="12.51415">
        <ele>112.018593</ele>
        <time>2020-08-14T08:30:47.356Z</time>
      </trkpt>
      <trkpt lat="65.97091" lon="12.51432">
        <ele>112.47209</ele>
        <time>2020-08-14T08:30:51.388Z</time>
      </trkpt>
      <trkpt lat="65.97099" lon="12.51448">
        <ele>112.908869</ele>
        <time>2020-08-14T08:30:55.391Z</time>
      </trkpt>
      <trkpt lat="65.97107" lon="12.51464">
        <ele>113.327766</ele>
        <time>2020-08-14T08:30:59.361Z</time>
      </trkpt>
      <trkpt lat="65.97116" lon="12.51481">
        <ele>113.772926</ele>
        <time>2020-08-14T08:31:03.398Z</time>
      </trkpt>
      <trkpt lat="65.97125" lon="12.51497">
        <ele>114.215452</ele>
        <time>2020-08-14T08:31:07.373Z</time>
      </trkpt>
      <trkpt lat="65.97133" lon="12.51515">
        <ele>114.672022</ele>
        <time>2020-08-14T08:31:11.364Z</time>
      </trkpt>
      <trkpt lat="65.97142" lon="12.51533">
        <ele>115.149485</ele>
        <time>2020-08-14T08:31:15.362Z</time>
      </trkpt>
      <trkpt lat="65.9715" lon="12.51549">
        <ele>115.568314</ele>
        <time>2020-08-14T08:31:18.362Z</time>
      </trkpt>
      <trkpt lat="65.9716" lon="12.51571">
        <ele>116.093518</ele>
        <time>2020-08-14T08:31:21.400Z</time>
      </trkpt>
      <trkpt lat="65.9717" lon="12.51591">
        <ele>116.625502</ele>
        <time>2020-08-14T08:31:24.398Z</time>
      </trkpt>
      <trkpt lat="65.97179" lon="12.51608">
        <ele>117.07683</ele>
        <time>2020-08-14T08:31:27.376Z</time>
      </trkpt>
      <trkpt lat="65.97187" lon="12.51624">
        <ele>117.519048</ele>
        <time>2020-08-14T08:31:30.379Z</time>
      </trkpt>
      <trkpt lat="65.97196" lon="12.5164">
        <ele>117.706114</ele>
        <time>2020-08-14T08:31:33.392Z</time>
      </trkpt>
      <trkpt lat="65.97204" lon="12.51656">
        <ele>117.725642</ele>
        <time>2020-08-14T08:31:36.361Z</time>
      </trkpt>
      <trkpt lat="65.97212" lon="12.51671">
        <ele>117.745432</ele>
        <time>2020-08-14T08:31:39.396Z</time>
      </trkpt>
      <trkpt lat="65.97221" lon="12.51686">
        <ele>117.76533</ele>
        <time>2020-08-14T08:31:42.381Z</time>
      </trkpt>
      <trkpt lat="65.97229" lon="12.51702">
        <ele>117.784818</ele>
        <time>2020-08-14T08:31:45.371Z</time>
      </trkpt>
      <trkpt lat="65.97237" lon="12.51716">
        <ele>117.803829</ele>
        <time>2020-08-14T08:31:48.372Z</time>
      </trkpt>
      <trkpt lat="65.97246" lon="12.51733">
        <ele>117.826104</ele>
        <time>2020-08-14T08:31:52.364Z</time>
      </trkpt>
      <trkpt lat="65.97254" lon="12.51747">
        <ele>117.843931</ele>
        <time>2020-08-14T08:31:55.355Z</time>
      </trkpt>
      <trkpt lat="65.97262" lon="12.51762">
        <ele>117.863466</ele>
        <time>2020-08-14T08:31:58.375Z</time>
      </trkpt>
      <trkpt lat="65.97271" lon="12.51779">
        <ele>117.884417</ele>
        <time>2020-08-14T08:32:01.372Z</time>
      </trkpt>
      <trkpt lat="65.9728" lon="12.51794">
        <ele>117.904712</ele>
        <time>2020-08-14T08:32:04.348Z</time>
      </trkpt>
      <trkpt lat="65.97288" lon="12.51811">
        <ele>117.924821</ele>
        <time>2020-08-14T08:32:07.356Z</time>
      </trkpt>
      <trkpt lat="65.97296" lon="12.51827">
        <ele>117.944994</ele>
        <time>2020-08-14T08:32:10.353Z</time>
      </trkpt>
      <trkpt lat="65.97305" lon="12.51843">
        <ele>117.964813</ele>
        <time>2020-08-14T08:32:13.355Z</time>
      </trkpt>
      <trkpt lat="65.97313" lon="12.51857">
        <ele>117.983646</ele>
        <time>2020-08-14T08:32:16.365Z</time>
      </trkpt>
      <trkpt lat="65.97321" lon="12.51872">
        <ele>118.003498</ele>
        <time>2020-08-14T08:32:19.352Z</time>
      </trkpt>
      <trkpt lat="65.9733" lon="12.51889">
        <ele>118.025228</ele>
        <time>2020-08-14T08:32:22.349Z</time>
      </trkpt>
      <trkpt lat="65.97339" lon="12.51905">
        <ele>118.112447</ele>
        <time>2020-08-14T08:32:25.422Z</time>
      </trkpt>
      <trkpt lat="65.97347" lon="12.51922">
        <ele>118.264324</ele>
        <time>2020-08-14T08:32:28.364Z</time>
      </trkpt>
      <trkpt lat="65.97356" lon="12.51939">
        <ele>118.423352</ele>
        <time>2020-08-14T08:32:31.388Z</time>
      </trkpt>
      <trkpt lat="65.97365" lon="12.51956">
        <ele>118.577737</ele>
        <time>2020-08-14T08:32:34.359Z</time>
      </trkpt>
      <trkpt lat="65.97374" lon="12.51973">
        <ele>118.736158</ele>
        <time>2020-08-14T08:32:37.358Z</time>
      </trkpt>
      <trkpt lat="65.97383" lon="12.51991">
        <ele>118.894427</ele>
        <time>2020-08-14T08:32:40.364Z</time>
      </trkpt>
      <trkpt lat="65.97393" lon="12.52009">
        <ele>119.059877</ele>
        <time>2020-08-14T08:32:43.370Z</time>
      </trkpt>
      <trkpt lat="65.97403" lon="12.52028">
        <ele>119.231004</ele>
        <time>2020-08-14T08:32:46.351Z</time>
      </trkpt>
      <trkpt lat="65.97412" lon="12.52046">
        <ele>119.396057</ele>
        <time>2020-08-14T08:32:49.355Z</time>
      </trkpt>
      <trkpt lat="65.97422" lon="12.52064">
        <ele>119.562888</ele>
        <time>2020-08-14T08:32:52.367Z</time>
      </trkpt>
      <trkpt lat="65.97431" lon="12.52083">
        <ele>119.732236</ele>
        <time>2020-08-14T08:32:55.380Z</time>
      </trkpt>
      <trkpt lat="65.97442" lon="12.52102">
        <ele>119.911564</ele>
        <time>2020-08-14T08:32:58.349Z</time>
      </trkpt>
      <trkpt lat="65.97449" lon="12.52115">
        <ele>120.035246</ele>
        <time>2020-08-14T08:33:00.360Z</time>
      </trkpt>
      <trkpt lat="65.97456" lon="12.52129">
        <ele>120.163306</ele>
        <time>2020-08-14T08:33:02.371Z</time>
      </trkpt>
      <trkpt lat="65.97464" lon="12.52145">
        <ele>120.305646</ele>
        <time>2020-08-14T08:33:04.370Z</time>
      </trkpt>
      <trkpt lat="65.97472" lon="12.52161">
        <ele>120.448279</ele>
        <time>2020-08-14T08:33:06.391Z</time>
      </trkpt>
      <trkpt lat="65.97481" lon="12.52176">
        <ele>120.479497</ele>
        <time>2020-08-14T08:33:08.356Z</time>
      </trkpt>
      <trkpt lat="65.97489" lon="12.52194">
        <ele>120.407467</ele>
        <time>2020-08-14T08:33:10.403Z</time>
      </trkpt>
      <trkpt lat="65.97499" lon="12.52213">
        <ele>120.329832</ele>
        <time>2020-08-14T08:33:12.383Z</time>
      </trkpt>
      <trkpt lat="65.97509" lon="12.52232">
        <ele>120.248574</ele>
        <time>2020-08-14T08:33:14.352Z</time>
      </trkpt>
      <trkpt lat="65.97519" lon="12.52252">
        <ele>120.163316</ele>
        <time>2020-08-14T08:33:16.355Z</time>
      </trkpt>
      <trkpt lat="65.9753" lon="12.52273">
        <ele>120.077262</ele>
        <time>2020-08-14T08:33:18.374Z</time>
      </trkpt>
      <trkpt lat="65.9754" lon="12.52293">
        <ele>119.994029</ele>
        <time>2020-08-14T08:33:20.350Z</time>
      </trkpt>
      <trkpt lat="65.9755" lon="12.52312">
        <ele>119.91175</ele>
        <time>2020-08-14T08:33:22.352Z</time>
      </trkpt>
      <trkpt lat="65.9756" lon="12.52331">
        <ele>119.829976</ele>
        <time>2020-08-14T08:33:24.359Z</time>
      </trkpt>
      <trkpt lat="65.9757" lon="12.5235">
        <ele>119.749185</ele>
        <time>2020-08-14T08:33:26.369Z</time>
      </trkpt>
      <trkpt lat="65.9758" lon="12.52369">
        <ele>119.668553</ele>
        <time>2020-08-14T08:33:28.360Z</time>
      </trkpt>
      <trkpt lat="65.9759" lon="12.52389">
        <ele>119.586433</ele>
        <time>2020-08-14T08:33:30.372Z</time>
      </trkpt>
      <trkpt lat="65.976" lon="12.52407">
        <ele>119.506118</ele>
        <time>2020-08-14T08:33:32.368Z</time>
      </trkpt>
      <trkpt lat="65.97611" lon="12.52427">
        <ele>119.424024</ele>
        <time>2020-08-14T08:33:34.367Z</time>
      </trkpt>
      <trkpt lat="65.97621" lon="12.52447">
        <ele>119.222257</ele>
        <time>2020-08-14T08:33:36.358Z</time>
      </trkpt>
      <trkpt lat="65.97632" lon="12.52467">
        <ele>118.772718</ele>
        <time>2020-08-14T08:33:38.362Z</time>
      </trkpt>
      <trkpt lat="65.97643" lon="12.52487">
        <ele>118.321124</ele>
        <time>2020-08-14T08:33:40.358Z</time>
      </trkpt>
      <trkpt lat="65.97655" lon="12.52508">
        <ele>117.84558</ele>
        <time>2020-08-14T08:33:42.383Z</time>
      </trkpt>
      <trkpt lat="65.97666" lon="12.5253">
        <ele>117.35933</ele>
        <time>2020-08-14T08:33:44.363Z</time>
      </trkpt>
      <trkpt lat="65.97679" lon="12.52552">
        <ele>116.856038</ele>
        <time>2020-08-14T08:33:46.371Z</time>
      </trkpt>
      <trkpt lat="65.97691" lon="12.52574">
        <ele>116.358409</ele>
        <time>2020-08-14T08:33:48.351Z</time>
      </trkpt>
      <trkpt lat="65.97703" lon="12.52598">
        <ele>115.838893</ele>
        <time>2020-08-14T08:33:50.361Z</time>
      </trkpt>
      <trkpt lat="65.97716" lon="12.5262">
        <ele>115.325033</ele>
        <time>2020-08-14T08:33:52.390Z</time>
      </trkpt>
      <trkpt lat="65.97728" lon="12.52643">
        <ele>114.822561</ele>
        <time>2020-08-14T08:33:54.354Z</time>
      </trkpt>
      <trkpt lat="65.9774" lon="12.52666">
        <ele>114.320089</ele>
        <time>2020-08-14T08:33:56.375Z</time>
      </trkpt>
      <trkpt lat="65.97752" lon="12.52689">
        <ele>113.818721</ele>
        <time>2020-08-14T08:33:58.356Z</time>
      </trkpt>
      <trkpt lat="65.97763" lon="12.52711">
        <ele>113.412453</ele>
        <time>2020-08-14T08:34:00.352Z</time>
      </trkpt>
      <trkpt lat="65.97774" lon="12.52734">
        <ele>113.374783</ele>
        <time>2020-08-14T08:34:02.356Z</time>
      </trkpt>
      <trkpt lat="65.97784" lon="12.52758">
        <ele>113.336864</ele>
        <time>2020-08-14T08:34:04.363Z</time>
      </trkpt>
      <trkpt lat="65.97793" lon="12.52783">
        <ele>113.29764</ele>
        <time>2020-08-14T08:34:06.381Z</time>
      </trkpt>
      <trkpt lat="65.97803" lon="12.52811">
        <ele>113.257926</ele>
        <time>2020-08-14T08:34:08.360Z</time>
      </trkpt>
      <trkpt lat="65.97811" lon="12.52841">
        <ele>113.2178</ele>
        <time>2020-08-14T08:34:10.365Z</time>
      </trkpt>
      <trkpt lat="65.9782" lon="12.5287">
        <ele>113.177424</ele>
        <time>2020-08-14T08:34:12.389Z</time>
      </trkpt>
      <trkpt lat="65.97828" lon="12.52899">
        <ele>113.137954</ele>
        <time>2020-08-14T08:34:14.373Z</time>
      </trkpt>
      <trkpt lat="65.97837" lon="12.52929">
        <ele>113.097872</ele>
        <time>2020-08-14T08:34:16.369Z</time>
      </trkpt>
      <trkpt lat="65.97845" lon="12.52956">
        <ele>113.060111</ele>
        <time>2020-08-14T08:34:18.393Z</time>
      </trkpt>
      <trkpt lat="65.97853" lon="12.52983">
        <ele>113.023243</ele>
        <time>2020-08-14T08:34:20.365Z</time>
      </trkpt>
      <trkpt lat="65.97861" lon="12.53009">
        <ele>112.987393</ele>
        <time>2020-08-14T08:34:22.397Z</time>
      </trkpt>
      <trkpt lat="65.97868" lon="12.53032">
        <ele>112.954644</ele>
        <time>2020-08-14T08:34:24.373Z</time>
      </trkpt>
      <trkpt lat="65.97875" lon="12.53052">
        <ele>112.943406</ele>
        <time>2020-08-14T08:34:26.372Z</time>
      </trkpt>
      <trkpt lat="65.97881" lon="12.53072">
        <ele>113.06343</ele>
        <time>2020-08-14T08:34:28.357Z</time>
      </trkpt>
      <trkpt lat="65.97888" lon="12.53093">
        <ele>113.186692</ele>
        <time>2020-08-14T08:34:30.355Z</time>
      </trkpt>
      <trkpt lat="65.97896" lon="12.53114">
        <ele>113.317118</ele>
        <time>2020-08-14T08:34:32.392Z</time>
      </trkpt>
      <trkpt lat="65.97904" lon="12.53135">
        <ele>113.448452</ele>
        <time>2020-08-14T08:34:34.356Z</time>
      </trkpt>
      <trkpt lat="65.97912" lon="12.53156">
        <ele>113.580989</ele>
        <time>2020-08-14T08:34:36.393Z</time>
      </trkpt>
      <trkpt lat="65.9792" lon="12.53177">
        <ele>113.712519</ele>
        <time>2020-08-14T08:34:38.385Z</time>
      </trkpt>
      <trkpt lat="65.97927" lon="12.53197">
        <ele>113.843605</ele>
        <time>2020-08-14T08:34:40.391Z</time>
      </trkpt>
      <trkpt lat="65.97935" lon="12.53218">
        <ele>113.974257</ele>
        <time>2020-08-14T08:34:42.364Z</time>
      </trkpt>
      <trkpt lat="65.97943" lon="12.53239">
        <ele>114.105909</ele>
        <time>2020-08-14T08:34:44.380Z</time>
      </trkpt>
      <trkpt lat="65.97952" lon="12.53259">
        <ele>114.237374</ele>
        <time>2020-08-14T08:34:46.379Z</time>
      </trkpt>
      <trkpt lat="65.9796" lon="12.53279">
        <ele>114.367904</ele>
        <time>2020-08-14T08:34:48.429Z</time>
      </trkpt>
      <trkpt lat="65.97968" lon="12.53299">
        <ele>114.496937</ele>
        <time>2020-08-14T08:34:50.354Z</time>
      </trkpt>
      <trkpt lat="65.97976" lon="12.53319">
        <ele>114.628588</ele>
        <time>2020-08-14T08:34:52.367Z</time>
      </trkpt>
      <trkpt lat="65.97984" lon="12.5334">
        <ele>114.761694</ele>
        <time>2020-08-14T08:34:54.362Z</time>
      </trkpt>
      <trkpt lat="65.97992" lon="12.53361">
        <ele>114.899365</ele>
        <time>2020-08-14T08:34:56.357Z</time>
      </trkpt>
      <trkpt lat="65.98001" lon="12.53383">
        <ele>114.926481</ele>
        <time>2020-08-14T08:34:58.381Z</time>
      </trkpt>
      <trkpt lat="65.98009" lon="12.53403">
        <ele>114.839073</ele>
        <time>2020-08-14T08:35:00.368Z</time>
      </trkpt>
      <trkpt lat="65.98018" lon="12.53426">
        <ele>114.748433</ele>
        <time>2020-08-14T08:35:02.443Z</time>
      </trkpt>
      <trkpt lat="65.98026" lon="12.53447">
        <ele>114.660599</ele>
        <time>2020-08-14T08:35:04.349Z</time>
      </trkpt>
      <trkpt lat="65.98034" lon="12.5347">
        <ele>114.572371</ele>
        <time>2020-08-14T08:35:06.380Z</time>
      </trkpt>
      <trkpt lat="65.98042" lon="12.53491">
        <ele>114.485299</ele>
        <time>2020-08-14T08:35:08.363Z</time>
      </trkpt>
      <trkpt lat="65.9805" lon="12.53514">
        <ele>114.396625</ele>
        <time>2020-08-14T08:35:10.411Z</time>
      </trkpt>
      <trkpt lat="65.98058" lon="12.53533">
        <ele>114.311836</ele>
        <time>2020-08-14T08:35:12.366Z</time>
      </trkpt>
      <trkpt lat="65.98066" lon="12.53551">
        <ele>114.23353</ele>
        <time>2020-08-14T08:35:14.394Z</time>
      </trkpt>
      <trkpt lat="65.98073" lon="12.53571">
        <ele>114.153707</ele>
        <time>2020-08-14T08:35:16.406Z</time>
      </trkpt>
      <trkpt lat="65.9808" lon="12.53591">
        <ele>114.074765</ele>
        <time>2020-08-14T08:35:18.361Z</time>
      </trkpt>
      <trkpt lat="65.98087" lon="12.53612">
        <ele>113.994488</ele>
        <time>2020-08-14T08:35:20.360Z</time>
      </trkpt>
      <trkpt lat="65.98094" lon="12.53633">
        <ele>113.913516</ele>
        <time>2020-08-14T08:35:22.363Z</time>
      </trkpt>
      <trkpt lat="65.98101" lon="12.53654">
        <ele>113.832291</ele>
        <time>2020-08-14T08:35:24.418Z</time>
      </trkpt>
      <trkpt lat="65.98108" lon="12.53676">
        <ele>113.750803</ele>
        <time>2020-08-14T08:35:26.348Z</time>
      </trkpt>
      <trkpt lat="65.98115" lon="12.53698">
        <ele>113.667032</ele>
        <time>2020-08-14T08:35:28.355Z</time>
      </trkpt>
      <trkpt lat="65.98122" lon="12.5372">
        <ele>113.64148</ele>
        <time>2020-08-14T08:35:30.383Z</time>
      </trkpt>
      <trkpt lat="65.9813" lon="12.53743">
        <ele>113.628194</ele>
        <time>2020-08-14T08:35:32.350Z</time>
      </trkpt>
      <trkpt lat="65.98137" lon="12.53766">
        <ele>113.614905</ele>
        <time>2020-08-14T08:35:34.364Z</time>
      </trkpt>
      <trkpt lat="65.98144" lon="12.53789">
        <ele>113.601478</ele>
        <time>2020-08-14T08:35:36.364Z</time>
      </trkpt>
      <trkpt lat="65.98151" lon="12.53813">
        <ele>113.587713</ele>
        <time>2020-08-14T08:35:38.383Z</time>
      </trkpt>
      <trkpt lat="65.98158" lon="12.53837">
        <ele>113.574557</ele>
        <time>2020-08-14T08:35:40.365Z</time>
      </trkpt>
      <trkpt lat="65.98164" lon="12.53861">
        <ele>113.561254</ele>
        <time>2020-08-14T08:35:42.368Z</time>
      </trkpt>
      <trkpt lat="65.98172" lon="12.53885">
        <ele>113.547508</ele>
        <time>2020-08-14T08:35:44.387Z</time>
      </trkpt>
      <trkpt lat="65.9818" lon="12.53908">
        <ele>113.533975</ele>
        <time>2020-08-14T08:35:46.358Z</time>
      </trkpt>
      <trkpt lat="65.98187" lon="12.5393">
        <ele>113.520547</ele>
        <time>2020-08-14T08:35:48.357Z</time>
      </trkpt>
      <trkpt lat="65.98195" lon="12.53952">
        <ele>113.506933</ele>
        <time>2020-08-14T08:35:50.376Z</time>
      </trkpt>
      <trkpt lat="65.98203" lon="12.53974">
        <ele>113.493463</ele>
        <time>2020-08-14T08:35:52.398Z</time>
      </trkpt>
      <trkpt lat="65.98211" lon="12.53997">
        <ele>113.479965</ele>
        <time>2020-08-14T08:35:54.359Z</time>
      </trkpt>
      <trkpt lat="65.98219" lon="12.54019">
        <ele>113.466454</ele>
        <time>2020-08-14T08:35:56.372Z</time>
      </trkpt>
      <trkpt lat="65.98227" lon="12.54042">
        <ele>113.452486</ele>
        <time>2020-08-14T08:35:58.369Z</time>
      </trkpt>
      <trkpt lat="65.98235" lon="12.54065">
        <ele>113.552702</ele>
        <time>2020-08-14T08:36:00.372Z</time>
      </trkpt>
      <trkpt lat="65.98243" lon="12.54088">
        <ele>113.683038</ele>
        <time>2020-08-14T08:36:02.352Z</time>
      </trkpt>
      <trkpt lat="65.98252" lon="12.54112">
        <ele>113.81862</ele>
        <time>2020-08-14T08:36:04.374Z</time>
      </trkpt>
      <trkpt lat="65.98261" lon="12.54138">
        <ele>113.95867</ele>
        <time>2020-08-14T08:36:06.372Z</time>
      </trkpt>
      <trkpt lat="65.98269" lon="12.54165">
        <ele>114.104563</ele>
        <time>2020-08-14T08:36:08.365Z</time>
      </trkpt>
      <trkpt lat="65.98279" lon="12.54192">
        <ele>114.25178</ele>
        <time>2020-08-14T08:36:10.383Z</time>
      </trkpt>
      <trkpt lat="65.98288" lon="12.54218">
        <ele>114.395498</ele>
        <time>2020-08-14T08:36:12.372Z</time>
      </trkpt>
      <trkpt lat="65.98297" lon="12.54243">
        <ele>114.534923</ele>
        <time>2020-08-14T08:36:14.358Z</time>
      </trkpt>
      <trkpt lat="65.98305" lon="12.54267">
        <ele>114.667519</ele>
        <time>2020-08-14T08:36:16.376Z</time>
      </trkpt>
      <trkpt lat="65.98313" lon="12.54291">
        <ele>114.799797</ele>
        <time>2020-08-14T08:36:18.356Z</time>
      </trkpt>
      <trkpt lat="65.98322" lon="12.54315">
        <ele>114.932361</ele>
        <time>2020-08-14T08:36:20.372Z</time>
      </trkpt>
      <trkpt lat="65.9833" lon="12.54339">
        <ele>115.06726</ele>
        <time>2020-08-14T08:36:22.353Z</time>
      </trkpt>
      <trkpt lat="65.98339" lon="12.54364">
        <ele>115.203428</ele>
        <time>2020-08-14T08:36:24.363Z</time>
      </trkpt>
      <trkpt lat="65.98347" lon="12.54389">
        <ele>115.306158</ele>
        <time>2020-08-14T08:36:26.351Z</time>
      </trkpt>
      <trkpt lat="65.98356" lon="12.54414">
        <ele>115.308675</ele>
        <time>2020-08-14T08:36:28.365Z</time>
      </trkpt>
      <trkpt lat="65.98364" lon="12.54437">
        <ele>115.311145</ele>
        <time>2020-08-14T08:36:30.361Z</time>
      </trkpt>
      <trkpt lat="65.98372" lon="12.54462">
        <ele>115.313614</ele>
        <time>2020-08-14T08:36:32.362Z</time>
      </trkpt>
      <trkpt lat="65.98381" lon="12.54486">
        <ele>115.316132</ele>
        <time>2020-08-14T08:36:34.356Z</time>
      </trkpt>
      <trkpt lat="65.98389" lon="12.5451">
        <ele>115.31859</ele>
        <time>2020-08-14T08:36:36.387Z</time>
      </trkpt>
      <trkpt lat="65.98397" lon="12.54534">
        <ele>115.320986</ele>
        <time>2020-08-14T08:36:38.378Z</time>
      </trkpt>
      <trkpt lat="65.98405" lon="12.54558">
        <ele>115.323479</ele>
        <time>2020-08-14T08:36:40.367Z</time>
      </trkpt>
      <trkpt lat="65.98413" lon="12.54582">
        <ele>115.325882</ele>
        <time>2020-08-14T08:36:42.378Z</time>
      </trkpt>
      <trkpt lat="65.98421" lon="12.54605">
        <ele>115.328272</ele>
        <time>2020-08-14T08:36:44.369Z</time>
      </trkpt>
      <trkpt lat="65.98429" lon="12.54628">
        <ele>115.330615</ele>
        <time>2020-08-14T08:36:46.376Z</time>
      </trkpt>
      <trkpt lat="65.98438" lon="12.54649">
        <ele>115.332955</ele>
        <time>2020-08-14T08:36:48.368Z</time>
      </trkpt>
      <trkpt lat="65.98446" lon="12.54671">
        <ele>115.335275</ele>
        <time>2020-08-14T08:36:50.384Z</time>
      </trkpt>
      <trkpt lat="65.98455" lon="12.54692">
        <ele>115.33766</ele>
        <time>2020-08-14T08:36:52.351Z</time>
      </trkpt>
      <trkpt lat="65.98464" lon="12.54712">
        <ele>115.340019</ele>
        <time>2020-08-14T08:36:54.368Z</time>
      </trkpt>
      <trkpt lat="65.98473" lon="12.54732">
        <ele>115.408636</ele>
        <time>2020-08-14T08:36:56.352Z</time>
      </trkpt>
      <trkpt lat="65.98482" lon="12.54752">
        <ele>115.479089</ele>
        <time>2020-08-14T08:36:58.378Z</time>
      </trkpt>
      <trkpt lat="65.98492" lon="12.5477">
        <ele>115.549943</ele>
        <time>2020-08-14T08:37:00.354Z</time>
      </trkpt>
      <trkpt lat="65.98501" lon="12.54788">
        <ele>115.620076</ele>
        <time>2020-08-14T08:37:02.382Z</time>
      </trkpt>
      <trkpt lat="65.9851" lon="12.54805">
        <ele>115.687943</ele>
        <time>2020-08-14T08:37:04.357Z</time>
      </trkpt>
      <trkpt lat="65.9852" lon="12.54822">
        <ele>115.758427</ele>
        <time>2020-08-14T08:37:06.351Z</time>
      </trkpt>
      <trkpt lat="65.9853" lon="12.54838">
        <ele>115.829577</ele>
        <time>2020-08-14T08:37:08.363Z</time>
      </trkpt>
      <trkpt lat="65.98541" lon="12.54855">
        <ele>115.903456</ele>
        <time>2020-08-14T08:37:10.360Z</time>
      </trkpt>
      <trkpt lat="65.98552" lon="12.54872">
        <ele>115.978852</ele>
        <time>2020-08-14T08:37:12.362Z</time>
      </trkpt>
      <trkpt lat="65.98563" lon="12.5489">
        <ele>116.057253</ele>
        <time>2020-08-14T08:37:14.371Z</time>
      </trkpt>
      <trkpt lat="65.98575" lon="12.54909">
        <ele>116.139188</ele>
        <time>2020-08-14T08:37:16.396Z</time>
      </trkpt>
      <trkpt lat="65.98587" lon="12.54928">
        <ele>116.221428</ele>
        <time>2020-08-14T08:37:18.374Z</time>
      </trkpt>
      <trkpt lat="65.98598" lon="12.54946">
        <ele>116.302423</ele>
        <time>2020-08-14T08:37:20.357Z</time>
      </trkpt>
      <trkpt lat="65.9861" lon="12.54964">
        <ele>116.381837</ele>
        <time>2020-08-14T08:37:22.359Z</time>
      </trkpt>
      <trkpt lat="65.9862" lon="12.54982">
        <ele>116.287935</ele>
        <time>2020-08-14T08:37:24.352Z</time>
      </trkpt>
      <trkpt lat="65.98629" lon="12.55003">
        <ele>116.160969</ele>
        <time>2020-08-14T08:37:26.371Z</time>
      </trkpt>
      <trkpt lat="65.98637" lon="12.55017">
        <ele>116.06302</ele>
        <time>2020-08-14T08:37:28.472Z</time>
      </trkpt>
      <trkpt lat="65.98648" lon="12.55038">
        <ele>115.921843</ele>
        <time>2020-08-14T08:37:30.347Z</time>
      </trkpt>
      <trkpt lat="65.98659" lon="12.5506">
        <ele>115.777898</ele>
        <time>2020-08-14T08:37:32.396Z</time>
      </trkpt>
      <trkpt lat="65.98669" lon="12.5508">
        <ele>115.652824</ele>
        <time>2020-08-14T08:37:34.389Z</time>
      </trkpt>
      <trkpt lat="65.98678" lon="12.55101">
        <ele>115.524136</ele>
        <time>2020-08-14T08:37:36.387Z</time>
      </trkpt>
      <trkpt lat="65.98687" lon="12.5512">
        <ele>115.410351</ele>
        <time>2020-08-14T08:37:38.356Z</time>
      </trkpt>
      <trkpt lat="65.98695" lon="12.55138">
        <ele>115.303151</ele>
        <time>2020-08-14T08:37:40.366Z</time>
      </trkpt>
      <trkpt lat="65.98703" lon="12.55159">
        <ele>115.186089</ele>
        <time>2020-08-14T08:37:42.372Z</time>
      </trkpt>
      <trkpt lat="65.98711" lon="12.55179">
        <ele>115.069447</ele>
        <time>2020-08-14T08:37:44.414Z</time>
      </trkpt>
      <trkpt lat="65.98719" lon="12.55201">
        <ele>114.948088</ele>
        <time>2020-08-14T08:37:46.364Z</time>
      </trkpt>
      <trkpt lat="65.98727" lon="12.55223">
        <ele>114.826246</ele>
        <time>2020-08-14T08:37:48.377Z</time>
      </trkpt>
      <trkpt lat="65.98735" lon="12.55246">
        <ele>114.702515</ele>
        <time>2020-08-14T08:37:50.361Z</time>
      </trkpt>
      <trkpt lat="65.98743" lon="12.55268">
        <ele>114.579522</ele>
        <time>2020-08-14T08:37:52.366Z</time>
      </trkpt>
      <trkpt lat="65.9875" lon="12.55291">
        <ele>114.403871</ele>
        <time>2020-08-14T08:37:54.377Z</time>
      </trkpt>
      <trkpt lat="65.98757" lon="12.55313">
        <ele>114.230179</ele>
        <time>2020-08-14T08:37:56.400Z</time>
      </trkpt>
      <trkpt lat="65.98765" lon="12.55334">
        <ele>114.055525</ele>
        <time>2020-08-14T08:37:58.392Z</time>
      </trkpt>
      <trkpt lat="65.98772" lon="12.55356">
        <ele>113.875481</ele>
        <time>2020-08-14T08:38:00.373Z</time>
      </trkpt>
      <trkpt lat="65.9878" lon="12.5538">
        <ele>113.689749</ele>
        <time>2020-08-14T08:38:02.393Z</time>
      </trkpt>
      <trkpt lat="65.98788" lon="12.55404">
        <ele>113.499709</ele>
        <time>2020-08-14T08:38:04.373Z</time>
      </trkpt>
      <trkpt lat="65.98796" lon="12.55429">
        <ele>113.303943</ele>
        <time>2020-08-14T08:38:06.397Z</time>
      </trkpt>
      <trkpt lat="65.98804" lon="12.55454">
        <ele>113.105301</ele>
        <time>2020-08-14T08:38:08.378Z</time>
      </trkpt>
      <trkpt lat="65.98813" lon="12.55478">
        <ele>112.904714</ele>
        <time>2020-08-14T08:38:10.348Z</time>
      </trkpt>
      <trkpt lat="65.98821" lon="12.55503">
        <ele>112.709901</ele>
        <time>2020-08-14T08:38:12.372Z</time>
      </trkpt>
      <trkpt lat="65.98829" lon="12.55527">
        <ele>112.516058</ele>
        <time>2020-08-14T08:38:14.365Z</time>
      </trkpt>
      <trkpt lat="65.98837" lon="12.55551">
        <ele>112.323612</ele>
        <time>2020-08-14T08:38:16.373Z</time>
      </trkpt>
      <trkpt lat="65.98845" lon="12.55574">
        <ele>112.132577</ele>
        <time>2020-08-14T08:38:18.393Z</time>
      </trkpt>
      <trkpt lat="65.98853" lon="12.55597">
        <ele>111.942011</ele>
        <time>2020-08-14T08:38:20.360Z</time>
      </trkpt>
      <trkpt lat="65.98861" lon="12.55621">
        <ele>111.867078</ele>
        <time>2020-08-14T08:38:22.393Z</time>
      </trkpt>
      <trkpt lat="65.98869" lon="12.55644">
        <ele>111.885154</ele>
        <time>2020-08-14T08:38:24.371Z</time>
      </trkpt>
      <trkpt lat="65.98877" lon="12.55666">
        <ele>111.902583</ele>
        <time>2020-08-14T08:38:26.354Z</time>
      </trkpt>
      <trkpt lat="65.98885" lon="12.55687">
        <ele>111.919994</ele>
        <time>2020-08-14T08:38:28.368Z</time>
      </trkpt>
      <trkpt lat="65.98892" lon="12.5571">
        <ele>111.93752</ele>
        <time>2020-08-14T08:38:30.352Z</time>
      </trkpt>
      <trkpt lat="65.98899" lon="12.55734">
        <ele>111.955288</ele>
        <time>2020-08-14T08:38:32.380Z</time>
      </trkpt>
      <trkpt lat="65.98906" lon="12.55757">
        <ele>111.973225</ele>
        <time>2020-08-14T08:38:34.386Z</time>
      </trkpt>
      <trkpt lat="65.98914" lon="12.5578">
        <ele>111.991348</ele>
        <time>2020-08-14T08:38:36.381Z</time>
      </trkpt>
      <trkpt lat="65.98922" lon="12.55804">
        <ele>112.010038</ele>
        <time>2020-08-14T08:38:38.360Z</time>
      </trkpt>
      <trkpt lat="65.98931" lon="12.55827">
        <ele>112.028824</ele>
        <time>2020-08-14T08:38:40.349Z</time>
      </trkpt>
      <trkpt lat="65.98939" lon="12.55853">
        <ele>112.048165</ele>
        <time>2020-08-14T08:38:42.362Z</time>
      </trkpt>
      <trkpt lat="65.98947" lon="12.55878">
        <ele>112.067834</ele>
        <time>2020-08-14T08:38:44.351Z</time>
      </trkpt>
      <trkpt lat="65.98956" lon="12.55903">
        <ele>112.087791</ele>
        <time>2020-08-14T08:38:46.377Z</time>
      </trkpt>
      <trkpt lat="65.98965" lon="12.55928">
        <ele>112.107696</ele>
        <time>2020-08-14T08:38:48.361Z</time>
      </trkpt>
      <trkpt lat="65.98973" lon="12.55952">
        <ele>112.143474</ele>
        <time>2020-08-14T08:38:50.357Z</time>
      </trkpt>
      <trkpt lat="65.98982" lon="12.55977">
        <ele>112.26055</ele>
        <time>2020-08-14T08:38:52.365Z</time>
      </trkpt>
      <trkpt lat="65.9899" lon="12.56001">
        <ele>112.378588</ele>
        <time>2020-08-14T08:38:54.370Z</time>
      </trkpt>
      <trkpt lat="65.98999" lon="12.56025">
        <ele>112.496579</ele>
        <time>2020-08-14T08:38:56.372Z</time>
      </trkpt>
      <trkpt lat="65.99008" lon="12.5605">
        <ele>112.616084</ele>
        <time>2020-08-14T08:38:58.378Z</time>
      </trkpt>
      <trkpt lat="65.99017" lon="12.56074">
        <ele>112.734664</ele>
        <time>2020-08-14T08:39:00.373Z</time>
      </trkpt>
      <trkpt lat="65.99026" lon="12.56097">
        <ele>112.850558</ele>
        <time>2020-08-14T08:39:02.390Z</time>
      </trkpt>
      <trkpt lat="65.99034" lon="12.56119">
        <ele>112.961156</ele>
        <time>2020-08-14T08:39:04.364Z</time>
      </trkpt>
      <trkpt lat="65.99043" lon="12.56141">
        <ele>113.075129</ele>
        <time>2020-08-14T08:39:06.373Z</time>
      </trkpt>
      <trkpt lat="65.99053" lon="12.56163">
        <ele>113.189902</ele>
        <time>2020-08-14T08:39:08.401Z</time>
      </trkpt>
      <trkpt lat="65.99062" lon="12.56185">
        <ele>113.307313</ele>
        <time>2020-08-14T08:39:10.371Z</time>
      </trkpt>
      <trkpt lat="65.99072" lon="12.56207">
        <ele>113.423578</ele>
        <time>2020-08-14T08:39:12.385Z</time>
      </trkpt>
      <trkpt lat="65.99081" lon="12.56228">
        <ele>113.537967</ele>
        <time>2020-08-14T08:39:14.376Z</time>
      </trkpt>
      <trkpt lat="65.99091" lon="12.56247">
        <ele>113.650669</ele>
        <time>2020-08-14T08:39:16.353Z</time>
      </trkpt>
      <trkpt lat="65.99101" lon="12.56267">
        <ele>113.791922</ele>
        <time>2020-08-14T08:39:18.360Z</time>
      </trkpt>
      <trkpt lat="65.99111" lon="12.56288">
        <ele>114.016087</ele>
        <time>2020-08-14T08:39:20.377Z</time>
      </trkpt>
      <trkpt lat="65.9912" lon="12.56308">
        <ele>114.237181</ele>
        <time>2020-08-14T08:39:22.361Z</time>
      </trkpt>
      <trkpt lat="65.9913" lon="12.56327">
        <ele>114.453255</ele>
        <time>2020-08-14T08:39:24.370Z</time>
      </trkpt>
      <trkpt lat="65.99139" lon="12.56346">
        <ele>114.666662</ele>
        <time>2020-08-14T08:39:26.358Z</time>
      </trkpt>
      <trkpt lat="65.99149" lon="12.56364">
        <ele>114.875136</ele>
        <time>2020-08-14T08:39:28.353Z</time>
      </trkpt>
      <trkpt lat="65.99158" lon="12.56382">
        <ele>115.085496</ele>
        <time>2020-08-14T08:39:30.360Z</time>
      </trkpt>
      <trkpt lat="65.99167" lon="12.564">
        <ele>115.288555</ele>
        <time>2020-08-14T08:39:32.362Z</time>
      </trkpt>
      <trkpt lat="65.99176" lon="12.56418">
        <ele>115.487565</ele>
        <time>2020-08-14T08:39:34.357Z</time>
      </trkpt>
      <trkpt lat="65.99186" lon="12.56435">
        <ele>115.691547</ele>
        <time>2020-08-14T08:39:36.379Z</time>
      </trkpt>
      <trkpt lat="65.99195" lon="12.56453">
        <ele>115.895968</ele>
        <time>2020-08-14T08:39:38.381Z</time>
      </trkpt>
      <trkpt lat="65.99204" lon="12.56471">
        <ele>116.094521</ele>
        <time>2020-08-14T08:39:40.354Z</time>
      </trkpt>
      <trkpt lat="65.99212" lon="12.56488">
        <ele>116.287684</ele>
        <time>2020-08-14T08:39:42.377Z</time>
      </trkpt>
      <trkpt lat="65.9922" lon="12.56504">
        <ele>116.464232</ele>
        <time>2020-08-14T08:39:44.363Z</time>
      </trkpt>
      <trkpt lat="65.99228" lon="12.5652">
        <ele>116.641229</ele>
        <time>2020-08-14T08:39:46.375Z</time>
      </trkpt>
      <trkpt lat="65.99238" lon="12.56541">
        <ele>116.87174</ele>
        <time>2020-08-14T08:39:49.355Z</time>
      </trkpt>
      <trkpt lat="65.99245" lon="12.56555">
        <ele>116.989905</ele>
        <time>2020-08-14T08:39:51.357Z</time>
      </trkpt>
      <trkpt lat="65.99252" lon="12.5657">
        <ele>117.111145</ele>
        <time>2020-08-14T08:39:53.375Z</time>
      </trkpt>
      <trkpt lat="65.99263" lon="12.56591">
        <ele>117.289911</ele>
        <time>2020-08-14T08:39:56.383Z</time>
      </trkpt>
      <trkpt lat="65.9927" lon="12.56605">
        <ele>117.40842</ele>
        <time>2020-08-14T08:39:58.392Z</time>
      </trkpt>
      <trkpt lat="65.99279" lon="12.56626">
        <ele>117.571225</ele>
        <time>2020-08-14T08:40:01.371Z</time>
      </trkpt>
      <trkpt lat="65.99287" lon="12.56646">
        <ele>117.723673</ele>
        <time>2020-08-14T08:40:04.358Z</time>
      </trkpt>
      <trkpt lat="65.99296" lon="12.56665">
        <ele>117.877809</ele>
        <time>2020-08-14T08:40:07.385Z</time>
      </trkpt>
      <trkpt lat="65.99304" lon="12.56688">
        <ele>118.045068</ele>
        <time>2020-08-14T08:40:10.358Z</time>
      </trkpt>
      <trkpt lat="65.99313" lon="12.56712">
        <ele>118.216226</ele>
        <time>2020-08-14T08:40:13.384Z</time>
      </trkpt>
      <trkpt lat="65.99319" lon="12.56729">
        <ele>118.335156</ele>
        <time>2020-08-14T08:40:15.356Z</time>
      </trkpt>
      <trkpt lat="65.99327" lon="12.56755">
        <ele>118.510051</ele>
        <time>2020-08-14T08:40:18.366Z</time>
      </trkpt>
      <trkpt lat="65.99334" lon="12.56783">
        <ele>118.685737</ele>
        <time>2020-08-14T08:40:21.363Z</time>
      </trkpt>
      <trkpt lat="65.99339" lon="12.56802">
        <ele>118.807266</ele>
        <time>2020-08-14T08:40:23.356Z</time>
      </trkpt>
      <trkpt lat="65.99344" lon="12.56822">
        <ele>118.934511</ele>
        <time>2020-08-14T08:40:25.384Z</time>
      </trkpt>
      <trkpt lat="65.9935" lon="12.56843">
        <ele>119.070435</ele>
        <time>2020-08-14T08:40:27.354Z</time>
      </trkpt>
      <trkpt lat="65.99356" lon="12.56866">
        <ele>119.212707</ele>
        <time>2020-08-14T08:40:29.383Z</time>
      </trkpt>
      <trkpt lat="65.99361" lon="12.56888">
        <ele>118.980912</ele>
        <time>2020-08-14T08:40:31.372Z</time>
      </trkpt>
      <trkpt lat="65.99367" lon="12.56911">
        <ele>118.700862</ele>
        <time>2020-08-14T08:40:33.368Z</time>
      </trkpt>
      <trkpt lat="65.99373" lon="12.56934">
        <ele>118.406439</ele>
        <time>2020-08-14T08:40:35.392Z</time>
      </trkpt>
      <trkpt lat="65.9938" lon="12.56958">
        <ele>118.098772</ele>
        <time>2020-08-14T08:40:37.362Z</time>
      </trkpt>
      <trkpt lat="65.99387" lon="12.56983">
        <ele>117.780161</ele>
        <time>2020-08-14T08:40:39.360Z</time>
      </trkpt>
      <trkpt lat="65.99394" lon="12.57009">
        <ele>117.456628</ele>
        <time>2020-08-14T08:40:41.376Z</time>
      </trkpt>
      <trkpt lat="65.99401" lon="12.57034">
        <ele>117.129288</ele>
        <time>2020-08-14T08:40:43.382Z</time>
      </trkpt>
      <trkpt lat="65.99409" lon="12.5706">
        <ele>116.796394</ele>
        <time>2020-08-14T08:40:45.391Z</time>
      </trkpt>
      <trkpt lat="65.99417" lon="12.57086">
        <ele>116.456672</ele>
        <time>2020-08-14T08:40:47.392Z</time>
      </trkpt>
      <trkpt lat="65.99425" lon="12.57111">
        <ele>116.120333</ele>
        <time>2020-08-14T08:40:49.385Z</time>
      </trkpt>
      <trkpt lat="65.99433" lon="12.57136">
        <ele>115.780764</ele>
        <time>2020-08-14T08:40:51.360Z</time>
      </trkpt>
      <trkpt lat="65.99442" lon="12.57161">
        <ele>115.440372</ele>
        <time>2020-08-14T08:40:53.381Z</time>
      </trkpt>
      <trkpt lat="65.9945" lon="12.57185">
        <ele>115.104814</ele>
        <time>2020-08-14T08:40:55.369Z</time>
      </trkpt>
      <trkpt lat="65.99459" lon="12.57209">
        <ele>114.773131</ele>
        <time>2020-08-14T08:40:57.376Z</time>
      </trkpt>
      <trkpt lat="65.99467" lon="12.57233">
        <ele>114.533007</ele>
        <time>2020-08-14T08:40:59.374Z</time>
      </trkpt>
      <trkpt lat="65.99475" lon="12.57256">
        <ele>114.409558</ele>
        <time>2020-08-14T08:41:01.380Z</time>
      </trkpt>
      <trkpt lat="65.99483" lon="12.5728">
        <ele>114.288865</ele>
        <time>2020-08-14T08:41:03.360Z</time>
      </trkpt>
      <trkpt lat="65.99491" lon="12.57303">
        <ele>114.167021</ele>
        <time>2020-08-14T08:41:05.356Z</time>
      </trkpt>
      <trkpt lat="65.995" lon="12.57327">
        <ele>114.045099</ele>
        <time>2020-08-14T08:41:07.372Z</time>
      </trkpt>
      <trkpt lat="65.99508" lon="12.5735">
        <ele>113.924467</ele>
        <time>2020-08-14T08:41:09.378Z</time>
      </trkpt>
      <trkpt lat="65.99516" lon="12.57374">
        <ele>113.799858</ele>
        <time>2020-08-14T08:41:11.367Z</time>
      </trkpt>
      <trkpt lat="65.99524" lon="12.57398">
        <ele>113.676449</ele>
        <time>2020-08-14T08:41:13.381Z</time>
      </trkpt>
      <trkpt lat="65.99533" lon="12.57422">
        <ele>113.552765</ele>
        <time>2020-08-14T08:41:15.359Z</time>
      </trkpt>
      <trkpt lat="65.99541" lon="12.57447">
        <ele>113.428157</ele>
        <time>2020-08-14T08:41:17.353Z</time>
      </trkpt>
      <trkpt lat="65.99549" lon="12.5747">
        <ele>113.304071</ele>
        <time>2020-08-14T08:41:19.359Z</time>
      </trkpt>
      <trkpt lat="65.99557" lon="12.57493">
        <ele>113.184665</ele>
        <time>2020-08-14T08:41:21.390Z</time>
      </trkpt>
      <trkpt lat="65.99565" lon="12.57517">
        <ele>113.063411</ele>
        <time>2020-08-14T08:41:23.361Z</time>
      </trkpt>
      <trkpt lat="65.99574" lon="12.57541">
        <ele>112.940631</ele>
        <time>2020-08-14T08:41:25.380Z</time>
      </trkpt>
      <trkpt lat="65.99581" lon="12.57564">
        <ele>112.822386</ele>
        <time>2020-08-14T08:41:27.357Z</time>
      </trkpt>
      <trkpt lat="65.9959" lon="12.57588">
        <ele>112.707988</ele>
        <time>2020-08-14T08:41:29.386Z</time>
      </trkpt>
      <trkpt lat="65.99598" lon="12.57612">
        <ele>112.594704</ele>
        <time>2020-08-14T08:41:31.394Z</time>
      </trkpt>
      <trkpt lat="65.99606" lon="12.57637">
        <ele>112.479734</ele>
        <time>2020-08-14T08:41:33.379Z</time>
      </trkpt>
      <trkpt lat="65.99614" lon="12.57662">
        <ele>112.36053</ele>
        <time>2020-08-14T08:41:35.365Z</time>
      </trkpt>
      <trkpt lat="65.99623" lon="12.57685">
        <ele>112.243948</ele>
        <time>2020-08-14T08:41:37.373Z</time>
      </trkpt>
      <trkpt lat="65.99631" lon="12.5771">
        <ele>112.128112</ele>
        <time>2020-08-14T08:41:39.354Z</time>
      </trkpt>
      <trkpt lat="65.9964" lon="12.57734">
        <ele>112.007404</ele>
        <time>2020-08-14T08:41:41.415Z</time>
      </trkpt>
      <trkpt lat="65.99649" lon="12.5776">
        <ele>111.88563</ele>
        <time>2020-08-14T08:41:43.351Z</time>
      </trkpt>
      <trkpt lat="65.99658" lon="12.57784">
        <ele>111.764808</ele>
        <time>2020-08-14T08:41:45.377Z</time>
      </trkpt>
      <trkpt lat="65.99667" lon="12.57809">
        <ele>111.646459</ele>
        <time>2020-08-14T08:41:47.371Z</time>
      </trkpt>
      <trkpt lat="65.99675" lon="12.57836">
        <ele>111.523</ele>
        <time>2020-08-14T08:41:49.352Z</time>
      </trkpt>
      <trkpt lat="65.99684" lon="12.57863">
        <ele>111.396444</ele>
        <time>2020-08-14T08:41:51.372Z</time>
      </trkpt>
      <trkpt lat="65.99693" lon="12.57891">
        <ele>111.265921</ele>
        <time>2020-08-14T08:41:53.380Z</time>
      </trkpt>
      <trkpt lat="65.99702" lon="12.57919">
        <ele>110.879601</ele>
        <time>2020-08-14T08:41:55.357Z</time>
      </trkpt>
      <trkpt lat="65.99712" lon="12.57948">
        <ele>110.396179</ele>
        <time>2020-08-14T08:41:57.378Z</time>
      </trkpt>
      <trkpt lat="65.99722" lon="12.57977">
        <ele>109.90179</ele>
        <time>2020-08-14T08:41:59.353Z</time>
      </trkpt>
      <trkpt lat="65.99732" lon="12.58006">
        <ele>109.402223</ele>
        <time>2020-08-14T08:42:01.377Z</time>
      </trkpt>
      <trkpt lat="65.99742" lon="12.58036">
        <ele>108.903732</ele>
        <time>2020-08-14T08:42:03.376Z</time>
      </trkpt>
      <trkpt lat="65.99753" lon="12.58065">
        <ele>108.397904</ele>
        <time>2020-08-14T08:42:05.360Z</time>
      </trkpt>
      <trkpt lat="65.99763" lon="12.58095">
        <ele>107.896441</ele>
        <time>2020-08-14T08:42:07.402Z</time>
      </trkpt>
      <trkpt lat="65.99773" lon="12.58125">
        <ele>107.392988</ele>
        <time>2020-08-14T08:42:09.369Z</time>
      </trkpt>
      <trkpt lat="65.99784" lon="12.58154">
        <ele>106.887731</ele>
        <time>2020-08-14T08:42:11.396Z</time>
      </trkpt>
      <trkpt lat="65.99794" lon="12.58183">
        <ele>106.374939</ele>
        <time>2020-08-14T08:42:13.375Z</time>
      </trkpt>
      <trkpt lat="65.99806" lon="12.58212">
        <ele>105.856607</ele>
        <time>2020-08-14T08:42:15.358Z</time>
      </trkpt>
      <trkpt lat="65.99816" lon="12.58243">
        <ele>105.406224</ele>
        <time>2020-08-14T08:42:17.389Z</time>
      </trkpt>
      <trkpt lat="65.99826" lon="12.58272">
        <ele>105.098974</ele>
        <time>2020-08-14T08:42:19.356Z</time>
      </trkpt>
      <trkpt lat="65.99836" lon="12.58301">
        <ele>104.789228</ele>
        <time>2020-08-14T08:42:21.346Z</time>
      </trkpt>
      <trkpt lat="65.99847" lon="12.5833">
        <ele>104.480088</ele>
        <time>2020-08-14T08:42:23.364Z</time>
      </trkpt>
      <trkpt lat="65.99857" lon="12.58361">
        <ele>104.159827</ele>
        <time>2020-08-14T08:42:25.370Z</time>
      </trkpt>
      <trkpt lat="65.99868" lon="12.5839">
        <ele>103.843692</ele>
        <time>2020-08-14T08:42:27.357Z</time>
      </trkpt>
      <trkpt lat="65.99879" lon="12.58421">
        <ele>103.517758</ele>
        <time>2020-08-14T08:42:29.369Z</time>
      </trkpt>
      <trkpt lat="65.9989" lon="12.58451">
        <ele>103.192204</ele>
        <time>2020-08-14T08:42:31.393Z</time>
      </trkpt>
      <trkpt lat="65.99901" lon="12.58482">
        <ele>102.858863</ele>
        <time>2020-08-14T08:42:33.367Z</time>
      </trkpt>
      <trkpt lat="65.99912" lon="12.58514">
        <ele>102.527934</ele>
        <time>2020-08-14T08:42:35.379Z</time>
      </trkpt>
      <trkpt lat="65.99924" lon="12.58544">
        <ele>102.195456</ele>
        <time>2020-08-14T08:42:37.384Z</time>
      </trkpt>
      <trkpt lat="65.99935" lon="12.58574">
        <ele>101.871032</ele>
        <time>2020-08-14T08:42:39.351Z</time>
      </trkpt>
      <trkpt lat="65.99946" lon="12.58604">
        <ele>101.544739</ele>
        <time>2020-08-14T08:42:41.371Z</time>
      </trkpt>
      <trkpt lat="65.99957" lon="12.58634">
        <ele>101.217388</ele>
        <time>2020-08-14T08:42:43.358Z</time>
      </trkpt>
      <trkpt lat="65.99968" lon="12.58663">
        <ele>100.892439</ele>
        <time>2020-08-14T08:42:45.361Z</time>
      </trkpt>
      <trkpt lat="65.99979" lon="12.58693">
        <ele>100.561298</ele>
        <time>2020-08-14T08:42:47.372Z</time>
      </trkpt>
      <trkpt lat="65.99991" lon="12.58722">
        <ele>100.232703</ele>
        <time>2020-08-14T08:42:49.364Z</time>
      </trkpt>
      <trkpt lat="66.00002" lon="12.58751">
        <ele>99.918182</ele>
        <time>2020-08-14T08:42:51.359Z</time>
      </trkpt>
      <trkpt lat="66.00012" lon="12.58778">
        <ele>99.616575</ele>
        <time>2020-08-14T08:42:53.363Z</time>
      </trkpt>
      <trkpt lat="66.00023" lon="12.58805">
        <ele>99.304789</ele>
        <time>2020-08-14T08:42:55.371Z</time>
      </trkpt>
      <trkpt lat="66.00034" lon="12.58834">
        <ele>98.989497</ele>
        <time>2020-08-14T08:42:57.355Z</time>
      </trkpt>
      <trkpt lat="66.00045" lon="12.58863">
        <ele>98.672013</ele>
        <time>2020-08-14T08:42:59.347Z</time>
      </trkpt>
      <trkpt lat="66.00056" lon="12.58891">
        <ele>98.353656</ele>
        <time>2020-08-14T08:43:01.362Z</time>
      </trkpt>
      <trkpt lat="66.00066" lon="12.58921">
        <ele>98.032563</ele>
        <time>2020-08-14T08:43:03.370Z</time>
      </trkpt>
      <trkpt lat="66.00077" lon="12.5895">
        <ele>97.712189</ele>
        <time>2020-08-14T08:43:05.360Z</time>
      </trkpt>
      <trkpt lat="66.00088" lon="12.5898">
        <ele>97.394945</ele>
        <time>2020-08-14T08:43:07.371Z</time>
      </trkpt>
      <trkpt lat="66.00098" lon="12.59008">
        <ele>97.087568</ele>
        <time>2020-08-14T08:43:09.372Z</time>
      </trkpt>
      <trkpt lat="66.00108" lon="12.59036">
        <ele>96.789102</ele>
        <time>2020-08-14T08:43:11.397Z</time>
      </trkpt>
      <trkpt lat="66.00118" lon="12.59062">
        <ele>96.503348</ele>
        <time>2020-08-14T08:43:13.376Z</time>
      </trkpt>
      <trkpt lat="66.00126" lon="12.59089">
        <ele>96.227107</ele>
        <time>2020-08-14T08:43:15.368Z</time>
      </trkpt>
      <trkpt lat="66.00135" lon="12.59114">
        <ele>95.960205</ele>
        <time>2020-08-14T08:43:17.396Z</time>
      </trkpt>
      <trkpt lat="66.00143" lon="12.5914">
        <ele>95.700087</ele>
        <time>2020-08-14T08:43:19.369Z</time>
      </trkpt>
      <trkpt lat="66.00151" lon="12.59164">
        <ele>95.445763</ele>
        <time>2020-08-14T08:43:21.394Z</time>
      </trkpt>
      <trkpt lat="66.00159" lon="12.59189">
        <ele>95.197606</ele>
        <time>2020-08-14T08:43:23.360Z</time>
      </trkpt>
      <trkpt lat="66.00166" lon="12.59213">
        <ele>94.949362</ele>
        <time>2020-08-14T08:43:25.358Z</time>
      </trkpt>
      <trkpt lat="66.00173" lon="12.59239">
        <ele>94.604137</ele>
        <time>2020-08-14T08:43:27.349Z</time>
      </trkpt>
      <trkpt lat="66.00181" lon="12.59264">
        <ele>94.161658</ele>
        <time>2020-08-14T08:43:29.353Z</time>
      </trkpt>
      <trkpt lat="66.00187" lon="12.59291">
        <ele>93.710316</ele>
        <time>2020-08-14T08:43:31.370Z</time>
      </trkpt>
      <trkpt lat="66.00194" lon="12.59316">
        <ele>93.276194</ele>
        <time>2020-08-14T08:43:33.359Z</time>
      </trkpt>
      <trkpt lat="66.002" lon="12.59341">
        <ele>92.847288</ele>
        <time>2020-08-14T08:43:35.360Z</time>
      </trkpt>
      <trkpt lat="66.00207" lon="12.59367">
        <ele>92.410062</ele>
        <time>2020-08-14T08:43:37.389Z</time>
      </trkpt>
      <trkpt lat="66.00213" lon="12.59394">
        <ele>91.969648</ele>
        <time>2020-08-14T08:43:39.371Z</time>
      </trkpt>
      <trkpt lat="66.00219" lon="12.59422">
        <ele>91.50165</ele>
        <time>2020-08-14T08:43:41.381Z</time>
      </trkpt>
      <trkpt lat="66.00226" lon="12.59451">
        <ele>91.008393</ele>
        <time>2020-08-14T08:43:43.373Z</time>
      </trkpt>
      <trkpt lat="66.00234" lon="12.59481">
        <ele>90.508375</ele>
        <time>2020-08-14T08:43:45.352Z</time>
      </trkpt>
      <trkpt lat="66.00241" lon="12.59513">
        <ele>89.989848</ele>
        <time>2020-08-14T08:43:47.363Z</time>
      </trkpt>
      <trkpt lat="66.00249" lon="12.59544">
        <ele>89.456116</ele>
        <time>2020-08-14T08:43:49.355Z</time>
      </trkpt>
      <trkpt lat="66.00256" lon="12.59577">
        <ele>88.916211</ele>
        <time>2020-08-14T08:43:51.400Z</time>
      </trkpt>
      <trkpt lat="66.00264" lon="12.59609">
        <ele>88.462734</ele>
        <time>2020-08-14T08:43:53.376Z</time>
      </trkpt>
      <trkpt lat="66.00272" lon="12.59641">
        <ele>88.579258</ele>
        <time>2020-08-14T08:43:55.390Z</time>
      </trkpt>
      <trkpt lat="66.0028" lon="12.59671">
        <ele>88.688406</ele>
        <time>2020-08-14T08:43:57.372Z</time>
      </trkpt>
      <trkpt lat="66.00287" lon="12.59699">
        <ele>88.79109</ele>
        <time>2020-08-14T08:43:59.372Z</time>
      </trkpt>
      <trkpt lat="66.00294" lon="12.59726">
        <ele>88.889826</ele>
        <time>2020-08-14T08:44:01.399Z</time>
      </trkpt>
      <trkpt lat="66.00301" lon="12.59754">
        <ele>88.989352</ele>
        <time>2020-08-14T08:44:03.374Z</time>
      </trkpt>
      <trkpt lat="66.00308" lon="12.59783">
        <ele>89.095725</ele>
        <time>2020-08-14T08:44:05.360Z</time>
      </trkpt>
      <trkpt lat="66.00316" lon="12.59813">
        <ele>89.205134</ele>
        <time>2020-08-14T08:44:07.356Z</time>
      </trkpt>
      <trkpt lat="66.00323" lon="12.59845">
        <ele>89.319021</ele>
        <time>2020-08-14T08:44:09.391Z</time>
      </trkpt>
      <trkpt lat="66.00332" lon="12.59877">
        <ele>89.435154</ele>
        <time>2020-08-14T08:44:11.383Z</time>
      </trkpt>
      <trkpt lat="66.0034" lon="12.59909">
        <ele>89.552337</ele>
        <time>2020-08-14T08:44:13.389Z</time>
      </trkpt>
      <trkpt lat="66.00348" lon="12.5994">
        <ele>89.667725</ele>
        <time>2020-08-14T08:44:15.385Z</time>
      </trkpt>
      <trkpt lat="66.00357" lon="12.59971">
        <ele>89.785595</ele>
        <time>2020-08-14T08:44:17.386Z</time>
      </trkpt>
      <trkpt lat="66.00366" lon="12.60001">
        <ele>89.757574</ele>
        <time>2020-08-14T08:44:19.357Z</time>
      </trkpt>
      <trkpt lat="66.00375" lon="12.60031">
        <ele>89.683357</ele>
        <time>2020-08-14T08:44:21.358Z</time>
      </trkpt>
      <trkpt lat="66.00385" lon="12.6006">
        <ele>89.608571</ele>
        <time>2020-08-14T08:44:23.360Z</time>
      </trkpt>
      <trkpt lat="66.00395" lon="12.6009">
        <ele>89.532861</ele>
        <time>2020-08-14T08:44:25.374Z</time>
      </trkpt>
      <trkpt lat="66.00405" lon="12.60118">
        <ele>89.459543</ele>
        <time>2020-08-14T08:44:27.355Z</time>
      </trkpt>
      <trkpt lat="66.00414" lon="12.60144">
        <ele>89.388642</ele>
        <time>2020-08-14T08:44:29.378Z</time>
      </trkpt>
      <trkpt lat="66.00424" lon="12.6017">
        <ele>89.319092</ele>
        <time>2020-08-14T08:44:31.371Z</time>
      </trkpt>
      <trkpt lat="66.00434" lon="12.60194">
        <ele>89.249551</ele>
        <time>2020-08-14T08:44:33.373Z</time>
      </trkpt>
      <trkpt lat="66.00445" lon="12.60219">
        <ele>89.178061</ele>
        <time>2020-08-14T08:44:35.428Z</time>
      </trkpt>
      <trkpt lat="66.00456" lon="12.60244">
        <ele>89.105062</ele>
        <time>2020-08-14T08:44:37.391Z</time>
      </trkpt>
      <trkpt lat="66.00468" lon="12.6027">
        <ele>89.029955</ele>
        <time>2020-08-14T08:44:39.372Z</time>
      </trkpt>
      <trkpt lat="66.0048" lon="12.60295">
        <ele>88.950774</ele>
        <time>2020-08-14T08:44:41.373Z</time>
      </trkpt>
      <trkpt lat="66.00493" lon="12.6032">
        <ele>88.520408</ele>
        <time>2020-08-14T08:44:43.370Z</time>
      </trkpt>
      <trkpt lat="66.00507" lon="12.60347">
        <ele>88.000901</ele>
        <time>2020-08-14T08:44:45.374Z</time>
      </trkpt>
      <trkpt lat="66.00522" lon="12.60373">
        <ele>87.471982</ele>
        <time>2020-08-14T08:44:47.355Z</time>
      </trkpt>
      <trkpt lat="66.00529" lon="12.60386">
        <ele>87.200188</ele>
        <time>2020-08-14T08:44:48.415Z</time>
      </trkpt>
      <trkpt lat="66.00537" lon="12.60398">
        <ele>86.929068</ele>
        <time>2020-08-14T08:44:49.353Z</time>
      </trkpt>
      <trkpt lat="66.00545" lon="12.60411">
        <ele>86.649676</ele>
        <time>2020-08-14T08:44:50.371Z</time>
      </trkpt>
      <trkpt lat="66.00552" lon="12.60424">
        <ele>86.372969</ele>
        <time>2020-08-14T08:44:51.407Z</time>
      </trkpt>
      <trkpt lat="66.0056" lon="12.60436">
        <ele>86.09889</ele>
        <time>2020-08-14T08:44:52.359Z</time>
      </trkpt>
      <trkpt lat="66.00568" lon="12.60449">
        <ele>85.815387</ele>
        <time>2020-08-14T08:44:53.366Z</time>
      </trkpt>
      <trkpt lat="66.00576" lon="12.60461">
        <ele>85.535676</ele>
        <time>2020-08-14T08:44:54.395Z</time>
      </trkpt>
      <trkpt lat="66.00585" lon="12.60473">
        <ele>85.250937</ele>
        <time>2020-08-14T08:44:55.396Z</time>
      </trkpt>
      <trkpt lat="66.00593" lon="12.60485">
        <ele>84.961625</ele>
        <time>2020-08-14T08:44:56.366Z</time>
      </trkpt>
      <trkpt lat="66.00602" lon="12.60497">
        <ele>84.671491</ele>
        <time>2020-08-14T08:44:57.407Z</time>
      </trkpt>
      <trkpt lat="66.00611" lon="12.60509">
        <ele>84.371264</ele>
        <time>2020-08-14T08:44:58.356Z</time>
      </trkpt>
      <trkpt lat="66.0062" lon="12.60521">
        <ele>84.060362</ele>
        <time>2020-08-14T08:44:59.368Z</time>
      </trkpt>
      <trkpt lat="66.00629" lon="12.60533">
        <ele>83.752325</ele>
        <time>2020-08-14T08:45:00.388Z</time>
      </trkpt>
      <trkpt lat="66.00638" lon="12.60545">
        <ele>83.431926</ele>
        <time>2020-08-14T08:45:01.369Z</time>
      </trkpt>
      <trkpt lat="66.00647" lon="12.60556">
        <ele>83.089925</ele>
        <time>2020-08-14T08:45:02.381Z</time>
      </trkpt>
      <trkpt lat="66.00655" lon="12.60567">
        <ele>82.762049</ele>
        <time>2020-08-14T08:45:03.398Z</time>
      </trkpt>
      <trkpt lat="66.00664" lon="12.60578">
        <ele>82.430531</ele>
        <time>2020-08-14T08:45:04.367Z</time>
      </trkpt>
      <trkpt lat="66.00673" lon="12.60589">
        <ele>82.09964</ele>
        <time>2020-08-14T08:45:05.357Z</time>
      </trkpt>
      <trkpt lat="66.00682" lon="12.60601">
        <ele>81.766211</ele>
        <time>2020-08-14T08:45:06.400Z</time>
      </trkpt>
      <trkpt lat="66.0069" lon="12.60612">
        <ele>81.437703</ele>
        <time>2020-08-14T08:45:07.380Z</time>
      </trkpt>
      <trkpt lat="66.00699" lon="12.60623">
        <ele>81.107914</ele>
        <time>2020-08-14T08:45:08.370Z</time>
      </trkpt>
      <trkpt lat="66.00707" lon="12.60634">
        <ele>80.778126</ele>
        <time>2020-08-14T08:45:09.375Z</time>
      </trkpt>
      <trkpt lat="66.00716" lon="12.60644">
        <ele>80.462443</ele>
        <time>2020-08-14T08:45:10.353Z</time>
      </trkpt>
      <trkpt lat="66.00724" lon="12.60655">
        <ele>80.144219</ele>
        <time>2020-08-14T08:45:11.397Z</time>
      </trkpt>
      <trkpt lat="66.00732" lon="12.60666">
        <ele>79.830279</ele>
        <time>2020-08-14T08:45:12.383Z</time>
      </trkpt>
      <trkpt lat="66.00748" lon="12.60686">
        <ele>79.230872</ele>
        <time>2020-08-14T08:45:14.358Z</time>
      </trkpt>
      <trkpt lat="66.00763" lon="12.60706">
        <ele>78.649654</ele>
        <time>2020-08-14T08:45:16.362Z</time>
      </trkpt>
      <trkpt lat="66.00777" lon="12.60726">
        <ele>78.090911</ele>
        <time>2020-08-14T08:45:18.372Z</time>
      </trkpt>
      <trkpt lat="66.00791" lon="12.60745">
        <ele>77.542707</ele>
        <time>2020-08-14T08:45:20.353Z</time>
      </trkpt>
      <trkpt lat="66.00805" lon="12.60765">
        <ele>76.927418</ele>
        <time>2020-08-14T08:45:22.369Z</time>
      </trkpt>
      <trkpt lat="66.00818" lon="12.60786">
        <ele>76.32461</ele>
        <time>2020-08-14T08:45:24.458Z</time>
      </trkpt>
      <trkpt lat="66.00831" lon="12.60806">
        <ele>75.734239</ele>
        <time>2020-08-14T08:45:26.379Z</time>
      </trkpt>
      <trkpt lat="66.00843" lon="12.60826">
        <ele>75.15364</ele>
        <time>2020-08-14T08:45:28.373Z</time>
      </trkpt>
      <trkpt lat="66.00855" lon="12.60846">
        <ele>74.59692</ele>
        <time>2020-08-14T08:45:30.369Z</time>
      </trkpt>
      <trkpt lat="66.00866" lon="12.60865">
        <ele>74.065833</ele>
        <time>2020-08-14T08:45:32.387Z</time>
      </trkpt>
      <trkpt lat="66.00876" lon="12.60884">
        <ele>73.570412</ele>
        <time>2020-08-14T08:45:34.410Z</time>
      </trkpt>
      <trkpt lat="66.00886" lon="12.60901">
        <ele>73.086376</ele>
        <time>2020-08-14T08:45:36.356Z</time>
      </trkpt>
      <trkpt lat="66.00895" lon="12.6092">
        <ele>72.615102</ele>
        <time>2020-08-14T08:45:38.372Z</time>
      </trkpt>
      <trkpt lat="66.00905" lon="12.60938">
        <ele>72.14799</ele>
        <time>2020-08-14T08:45:40.356Z</time>
      </trkpt>
      <trkpt lat="66.00914" lon="12.60957">
        <ele>71.682884</ele>
        <time>2020-08-14T08:45:42.360Z</time>
      </trkpt>
      <trkpt lat="66.00923" lon="12.60976">
        <ele>71.206539</ele>
        <time>2020-08-14T08:45:44.366Z</time>
      </trkpt>
      <trkpt lat="66.00932" lon="12.60996">
        <ele>70.731043</ele>
        <time>2020-08-14T08:45:46.360Z</time>
      </trkpt>
      <trkpt lat="66.00941" lon="12.61016">
        <ele>70.499511</ele>
        <time>2020-08-14T08:45:48.393Z</time>
      </trkpt>
      <trkpt lat="66.00949" lon="12.61036">
        <ele>70.53507</ele>
        <time>2020-08-14T08:45:50.372Z</time>
      </trkpt>
      <trkpt lat="66.00958" lon="12.61055">
        <ele>70.57135</ele>
        <time>2020-08-14T08:45:52.364Z</time>
      </trkpt>
      <trkpt lat="66.00967" lon="12.61075">
        <ele>70.608414</ele>
        <time>2020-08-14T08:45:54.386Z</time>
      </trkpt>
      <trkpt lat="66.00976" lon="12.61096">
        <ele>70.646152</ele>
        <time>2020-08-14T08:45:56.389Z</time>
      </trkpt>
      <trkpt lat="66.00985" lon="12.61117">
        <ele>70.68223</ele>
        <time>2020-08-14T08:45:58.362Z</time>
      </trkpt>
      <trkpt lat="66.00993" lon="12.61138">
        <ele>70.719136</ele>
        <time>2020-08-14T08:46:00.374Z</time>
      </trkpt>
      <trkpt lat="66.01002" lon="12.61159">
        <ele>70.756044</ele>
        <time>2020-08-14T08:46:02.361Z</time>
      </trkpt>
      <trkpt lat="66.0101" lon="12.6118">
        <ele>70.792864</ele>
        <time>2020-08-14T08:46:04.359Z</time>
      </trkpt>
      <trkpt lat="66.01019" lon="12.61202">
        <ele>70.830275</ele>
        <time>2020-08-14T08:46:06.388Z</time>
      </trkpt>
      <trkpt lat="66.01027" lon="12.61225">
        <ele>70.868737</ele>
        <time>2020-08-14T08:46:08.367Z</time>
      </trkpt>
      <trkpt lat="66.01036" lon="12.61248">
        <ele>70.908299</ele>
        <time>2020-08-14T08:46:10.376Z</time>
      </trkpt>
      <trkpt lat="66.01044" lon="12.61273">
        <ele>70.94783</ele>
        <time>2020-08-14T08:46:12.375Z</time>
      </trkpt>
      <trkpt lat="66.01052" lon="12.61298">
        <ele>70.988031</ele>
        <time>2020-08-14T08:46:14.448Z</time>
      </trkpt>
      <trkpt lat="66.0106" lon="12.61321">
        <ele>71.025155</ele>
        <time>2020-08-14T08:46:16.360Z</time>
      </trkpt>
      <trkpt lat="66.01068" lon="12.61345">
        <ele>71.278243</ele>
        <time>2020-08-14T08:46:18.352Z</time>
      </trkpt>
      <trkpt lat="66.01076" lon="12.6137">
        <ele>71.57776</ele>
        <time>2020-08-14T08:46:20.367Z</time>
      </trkpt>
      <trkpt lat="66.01084" lon="12.61394">
        <ele>71.878784</ele>
        <time>2020-08-14T08:46:22.409Z</time>
      </trkpt>
      <trkpt lat="66.01092" lon="12.61418">
        <ele>72.180541</ele>
        <time>2020-08-14T08:46:24.394Z</time>
      </trkpt>
      <trkpt lat="66.01099" lon="12.61443">
        <ele>72.478629</ele>
        <time>2020-08-14T08:46:26.351Z</time>
      </trkpt>
      <trkpt lat="66.01107" lon="12.61467">
        <ele>72.770089</ele>
        <time>2020-08-14T08:46:28.365Z</time>
      </trkpt>
      <trkpt lat="66.01114" lon="12.6149">
        <ele>73.058477</ele>
        <time>2020-08-14T08:46:30.379Z</time>
      </trkpt>
      <trkpt lat="66.01122" lon="12.61514">
        <ele>73.351298</ele>
        <time>2020-08-14T08:46:32.369Z</time>
      </trkpt>
      <trkpt lat="66.01129" lon="12.61538">
        <ele>73.642663</ele>
        <time>2020-08-14T08:46:34.386Z</time>
      </trkpt>
      <trkpt lat="66.01136" lon="12.61563">
        <ele>73.9358</ele>
        <time>2020-08-14T08:46:36.369Z</time>
      </trkpt>
      <trkpt lat="66.01144" lon="12.61587">
        <ele>74.22862</ele>
        <time>2020-08-14T08:46:38.362Z</time>
      </trkpt>
      <trkpt lat="66.01151" lon="12.61611">
        <ele>74.525495</ele>
        <time>2020-08-14T08:46:40.365Z</time>
      </trkpt>
      <trkpt lat="66.01159" lon="12.61635">
        <ele>74.819075</ele>
        <time>2020-08-14T08:46:42.381Z</time>
      </trkpt>
      <trkpt lat="66.01166" lon="12.61659">
        <ele>75.106141</ele>
        <time>2020-08-14T08:46:44.406Z</time>
      </trkpt>
      <trkpt lat="66.01173" lon="12.61684">
        <ele>75.348121</ele>
        <time>2020-08-14T08:46:46.376Z</time>
      </trkpt>
      <trkpt lat="66.01181" lon="12.61708">
        <ele>75.493531</ele>
        <time>2020-08-14T08:46:48.393Z</time>
      </trkpt>
      <trkpt lat="66.01189" lon="12.61733">
        <ele>75.641808</ele>
        <time>2020-08-14T08:46:50.389Z</time>
      </trkpt>
      <trkpt lat="66.01196" lon="12.61757">
        <ele>75.788541</ele>
        <time>2020-08-14T08:46:52.359Z</time>
      </trkpt>
      <trkpt lat="66.01204" lon="12.61782">
        <ele>75.933889</ele>
        <time>2020-08-14T08:46:54.358Z</time>
      </trkpt>
      <trkpt lat="66.01212" lon="12.61805">
        <ele>76.07879</ele>
        <time>2020-08-14T08:46:56.380Z</time>
      </trkpt>
      <trkpt lat="66.01219" lon="12.61829">
        <ele>76.222575</ele>
        <time>2020-08-14T08:46:58.358Z</time>
      </trkpt>
      <trkpt lat="66.01227" lon="12.61853">
        <ele>76.365659</ele>
        <time>2020-08-14T08:47:00.359Z</time>
      </trkpt>
      <trkpt lat="66.01235" lon="12.61877">
        <ele>76.513521</ele>
        <time>2020-08-14T08:47:02.358Z</time>
      </trkpt>
      <trkpt lat="66.01243" lon="12.61902">
        <ele>76.663226</ele>
        <time>2020-08-14T08:47:04.387Z</time>
      </trkpt>
      <trkpt lat="66.0125" lon="12.61927">
        <ele>76.812931</ele>
        <time>2020-08-14T08:47:06.377Z</time>
      </trkpt>
      <trkpt lat="66.01258" lon="12.61952">
        <ele>76.964136</ele>
        <time>2020-08-14T08:47:08.385Z</time>
      </trkpt>
      <trkpt lat="66.01267" lon="12.61978">
        <ele>77.11825</ele>
        <time>2020-08-14T08:47:10.408Z</time>
      </trkpt>
      <trkpt lat="66.01275" lon="12.62003">
        <ele>77.27205</ele>
        <time>2020-08-14T08:47:12.353Z</time>
      </trkpt>
      <trkpt lat="66.01283" lon="12.62028">
        <ele>77.380997</ele>
        <time>2020-08-14T08:47:14.379Z</time>
      </trkpt>
      <trkpt lat="66.01291" lon="12.62052">
        <ele>77.22722</ele>
        <time>2020-08-14T08:47:16.379Z</time>
      </trkpt>
      <trkpt lat="66.01299" lon="12.62076">
        <ele>77.075318</ele>
        <time>2020-08-14T08:47:18.378Z</time>
      </trkpt>
      <trkpt lat="66.01307" lon="12.621">
        <ele>76.925292</ele>
        <time>2020-08-14T08:47:20.362Z</time>
      </trkpt>
      <trkpt lat="66.01316" lon="12.62125">
        <ele>76.768137</ele>
        <time>2020-08-14T08:47:22.397Z</time>
      </trkpt>
      <trkpt lat="66.01325" lon="12.6215">
        <ele>76.609106</ele>
        <time>2020-08-14T08:47:24.360Z</time>
      </trkpt>
      <trkpt lat="66.01334" lon="12.62175">
        <ele>76.446552</ele>
        <time>2020-08-14T08:47:26.389Z</time>
      </trkpt>
      <trkpt lat="66.01342" lon="12.622">
        <ele>76.287857</ele>
        <time>2020-08-14T08:47:28.365Z</time>
      </trkpt>
      <trkpt lat="66.01352" lon="12.62225">
        <ele>76.122908</ele>
        <time>2020-08-14T08:47:30.418Z</time>
      </trkpt>
      <trkpt lat="66.01362" lon="12.6225">
        <ele>75.955256</ele>
        <time>2020-08-14T08:47:32.354Z</time>
      </trkpt>
      <trkpt lat="66.01372" lon="12.62276">
        <ele>75.783525</ele>
        <time>2020-08-14T08:47:34.373Z</time>
      </trkpt>
      <trkpt lat="66.01382" lon="12.62299">
        <ele>75.618426</ele>
        <time>2020-08-14T08:47:36.361Z</time>
      </trkpt>
      <trkpt lat="66.01391" lon="12.62322">
        <ele>75.462954</ele>
        <time>2020-08-14T08:47:38.398Z</time>
      </trkpt>
      <trkpt lat="66.014" lon="12.62345">
        <ele>75.310236</ele>
        <time>2020-08-14T08:47:40.381Z</time>
      </trkpt>
      <trkpt lat="66.01409" lon="12.62367">
        <ele>75.149808</ele>
        <time>2020-08-14T08:47:42.362Z</time>
      </trkpt>
      <trkpt lat="66.01419" lon="12.62389">
        <ele>74.982419</ele>
        <time>2020-08-14T08:47:44.357Z</time>
      </trkpt>
      <trkpt lat="66.01428" lon="12.62411">
        <ele>74.816165</ele>
        <time>2020-08-14T08:47:46.376Z</time>
      </trkpt>
      <trkpt lat="66.01437" lon="12.62433">
        <ele>74.648989</ele>
        <time>2020-08-14T08:47:48.385Z</time>
      </trkpt>
      <trkpt lat="66.01446" lon="12.62456">
        <ele>74.480706</ele>
        <time>2020-08-14T08:47:50.379Z</time>
      </trkpt>
      <trkpt lat="66.01456" lon="12.6248">
        <ele>74.307323</ele>
        <time>2020-08-14T08:47:52.376Z</time>
      </trkpt>
      <trkpt lat="66.01466" lon="12.62503">
        <ele>74.131191</ele>
        <time>2020-08-14T08:47:54.396Z</time>
      </trkpt>
      <trkpt lat="66.01476" lon="12.62528">
        <ele>73.949018</ele>
        <time>2020-08-14T08:47:56.375Z</time>
      </trkpt>
      <trkpt lat="66.01486" lon="12.62553">
        <ele>73.765731</ele>
        <time>2020-08-14T08:47:58.362Z</time>
      </trkpt>
      <trkpt lat="66.01497" lon="12.6258">
        <ele>73.569664</ele>
        <time>2020-08-14T08:48:00.379Z</time>
      </trkpt>
      <trkpt lat="66.01507" lon="12.62607">
        <ele>73.371372</ele>
        <time>2020-08-14T08:48:02.361Z</time>
      </trkpt>
      <trkpt lat="66.01518" lon="12.62636">
        <ele>73.16402</ele>
        <time>2020-08-14T08:48:04.373Z</time>
      </trkpt>
      <trkpt lat="66.01531" lon="12.62666">
        <ele>72.918828</ele>
        <time>2020-08-14T08:48:06.381Z</time>
      </trkpt>
      <trkpt lat="66.01543" lon="12.62698">
        <ele>72.299587</ele>
        <time>2020-08-14T08:48:08.375Z</time>
      </trkpt>
      <trkpt lat="66.0155" lon="12.62714">
        <ele>71.983669</ele>
        <time>2020-08-14T08:48:09.349Z</time>
      </trkpt>
      <trkpt lat="66.01557" lon="12.6273">
        <ele>71.661899</ele>
        <time>2020-08-14T08:48:10.382Z</time>
      </trkpt>
      <trkpt lat="66.01564" lon="12.62746">
        <ele>71.336128</ele>
        <time>2020-08-14T08:48:11.357Z</time>
      </trkpt>
      <trkpt lat="66.01571" lon="12.62762">
        <ele>71.001867</ele>
        <time>2020-08-14T08:48:12.358Z</time>
      </trkpt>
      <trkpt lat="66.01579" lon="12.62779">
        <ele>70.659751</ele>
        <time>2020-08-14T08:48:13.367Z</time>
      </trkpt>
      <trkpt lat="66.01586" lon="12.62795">
        <ele>70.313415</ele>
        <time>2020-08-14T08:48:14.354Z</time>
      </trkpt>
      <trkpt lat="66.01594" lon="12.62811">
        <ele>69.967165</ele>
        <time>2020-08-14T08:48:15.373Z</time>
      </trkpt>
      <trkpt lat="66.01602" lon="12.62827">
        <ele>69.613846</ele>
        <time>2020-08-14T08:48:16.392Z</time>
      </trkpt>
      <trkpt lat="66.0161" lon="12.62844">
        <ele>69.257938</ele>
        <time>2020-08-14T08:48:17.358Z</time>
      </trkpt>
      <trkpt lat="66.01619" lon="12.6286">
        <ele>68.892196</ele>
        <time>2020-08-14T08:48:18.371Z</time>
      </trkpt>
      <trkpt lat="66.01627" lon="12.62876">
        <ele>68.534392</ele>
        <time>2020-08-14T08:48:19.363Z</time>
      </trkpt>
      <trkpt lat="66.01635" lon="12.62892">
        <ele>68.162653</ele>
        <time>2020-08-14T08:48:20.395Z</time>
      </trkpt>
      <trkpt lat="66.01644" lon="12.62908">
        <ele>67.799997</ele>
        <time>2020-08-14T08:48:21.384Z</time>
      </trkpt>
      <trkpt lat="66.01653" lon="12.62924">
        <ele>67.425806</ele>
        <time>2020-08-14T08:48:22.382Z</time>
      </trkpt>
      <trkpt lat="66.01661" lon="12.62939">
        <ele>67.069161</ele>
        <time>2020-08-14T08:48:23.362Z</time>
      </trkpt>
      <trkpt lat="66.0167" lon="12.62954">
        <ele>66.618945</ele>
        <time>2020-08-14T08:48:24.382Z</time>
      </trkpt>
      <trkpt lat="66.01679" lon="12.62969">
        <ele>66.03044</ele>
        <time>2020-08-14T08:48:25.395Z</time>
      </trkpt>
      <trkpt lat="66.01687" lon="12.62986">
        <ele>65.419377</ele>
        <time>2020-08-14T08:48:26.369Z</time>
      </trkpt>
      <trkpt lat="66.01696" lon="12.63001">
        <ele>64.822325</ele>
        <time>2020-08-14T08:48:27.378Z</time>
      </trkpt>
      <trkpt lat="66.01704" lon="12.63015">
        <ele>64.25484</ele>
        <time>2020-08-14T08:48:28.371Z</time>
      </trkpt>
      <trkpt lat="66.01713" lon="12.6303">
        <ele>63.67753</ele>
        <time>2020-08-14T08:48:29.380Z</time>
      </trkpt>
      <trkpt lat="66.01721" lon="12.63044">
        <ele>63.129028</ele>
        <time>2020-08-14T08:48:30.347Z</time>
      </trkpt>
      <trkpt lat="66.01728" lon="12.63058">
        <ele>62.592295</ele>
        <time>2020-08-14T08:48:31.415Z</time>
      </trkpt>
      <trkpt lat="66.01743" lon="12.63083">
        <ele>61.607719</ele>
        <time>2020-08-14T08:48:33.385Z</time>
      </trkpt>
      <trkpt lat="66.01757" lon="12.63109">
        <ele>60.622243</ele>
        <time>2020-08-14T08:48:35.372Z</time>
      </trkpt>
      <trkpt lat="66.01764" lon="12.63125">
        <ele>60.093711</ele>
        <time>2020-08-14T08:48:36.375Z</time>
      </trkpt>
      <trkpt lat="66.01771" lon="12.63162">
        <ele>59.161581</ele>
        <time>2020-08-14T08:48:38.356Z</time>
      </trkpt>
      <trkpt lat="66.01772" lon="12.63184">
        <ele>58.654255</ele>
        <time>2020-08-14T08:48:39.375Z</time>
      </trkpt>
      <trkpt lat="66.01771" lon="12.6321">
        <ele>58.053464</ele>
        <time>2020-08-14T08:48:40.391Z</time>
      </trkpt>
      <trkpt lat="66.01769" lon="12.63234">
        <ele>57.507975</ele>
        <time>2020-08-14T08:48:41.375Z</time>
      </trkpt>
      <trkpt lat="66.01766" lon="12.63256">
        <ele>56.986472</ele>
        <time>2020-08-14T08:48:42.431Z</time>
      </trkpt>
      <trkpt lat="66.01762" lon="12.63297">
        <ele>56.775457</ele>
        <time>2020-08-14T08:48:44.361Z</time>
      </trkpt>
      <trkpt lat="66.01759" lon="12.63332">
        <ele>56.802492</ele>
        <time>2020-08-14T08:48:46.374Z</time>
      </trkpt>
      <trkpt lat="66.01761" lon="12.63362">
        <ele>56.825095</ele>
        <time>2020-08-14T08:48:48.402Z</time>
      </trkpt>
      <trkpt lat="66.0176" lon="12.63389">
        <ele>56.846056</ele>
        <time>2020-08-14T08:48:50.390Z</time>
      </trkpt>
      <trkpt lat="66.01755" lon="12.63415">
        <ele>56.867003</ele>
        <time>2020-08-14T08:48:52.400Z</time>
      </trkpt>
      <trkpt lat="66.01752" lon="12.63441">
        <ele>56.887061</ele>
        <time>2020-08-14T08:48:54.411Z</time>
      </trkpt>
      <trkpt lat="66.01748" lon="12.63466">
        <ele>56.908017</ele>
        <time>2020-08-14T08:48:57.372Z</time>
      </trkpt>
      <trkpt lat="66.01744" lon="12.63488">
        <ele>56.925751</ele>
        <time>2020-08-14T08:49:00.351Z</time>
      </trkpt>
      <trkpt lat="66.0174" lon="12.6351">
        <ele>56.944568</ele>
        <time>2020-08-14T08:49:04.354Z</time>
      </trkpt>
      <trkpt lat="66.01735" lon="12.63529">
        <ele>56.961364</ele>
        <time>2020-08-14T08:49:08.394Z</time>
      </trkpt>
      <trkpt lat="66.0173" lon="12.63551">
        <ele>56.980097</ele>
        <time>2020-08-14T08:49:12.419Z</time>
      </trkpt>
      <trkpt lat="66.01724" lon="12.63574">
        <ele>57.000367</ele>
        <time>2020-08-14T08:49:16.380Z</time>
      </trkpt>
      <trkpt lat="66.01719" lon="12.63594">
        <ele>57.018486</ele>
        <time>2020-08-14T08:49:20.363Z</time>
      </trkpt>
      <trkpt lat="66.01714" lon="12.63616">
        <ele>57.037312</ele>
        <time>2020-08-14T08:49:25.355Z</time>
      </trkpt>
      <trkpt lat="66.01708" lon="12.63634">
        <ele>57.054979</ele>
        <time>2020-08-14T08:49:30.379Z</time>
      </trkpt>
      <trkpt lat="66.01702" lon="12.63656">
        <ele>57.07503</ele>
        <time>2020-08-14T08:49:35.369Z</time>
      </trkpt>
      <trkpt lat="66.01697" lon="12.6368">
        <ele>57.28817</ele>
        <time>2020-08-14T08:49:40.385Z</time>
      </trkpt>
      <trkpt lat="66.01694" lon="12.63703">
        <ele>57.663675</ele>
        <time>2020-08-14T08:49:43.378Z</time>
      </trkpt>
      <trkpt lat="66.01685" lon="12.63712">
        <ele>58.002843</ele>
        <time>2020-08-14T08:49:46.393Z</time>
      </trkpt>
      <trkpt lat="66.01676" lon="12.63697">
        <ele>58.414803</ele>
        <time>2020-08-14T08:49:50.362Z</time>
      </trkpt>
      <trkpt lat="66.01667" lon="12.63689">
        <ele>58.766596</ele>
        <time>2020-08-14T08:49:57.378Z</time>
      </trkpt>
      <trkpt lat="66.0166" lon="12.63676">
        <ele>59.100613</ele>
        <time>2020-08-14T08:50:02.360Z</time>
      </trkpt>
      <trkpt lat="66.01651" lon="12.63669">
        <ele>59.464023</ele>
        <time>2020-08-14T08:50:08.389Z</time>
      </trkpt>
      <trkpt lat="66.01645" lon="12.6369">
        <ele>59.836851</ele>
        <time>2020-08-14T08:50:13.374Z</time>
      </trkpt>
      <trkpt lat="66.01645" lon="12.63715">
        <ele>60.213297</ele>
        <time>2020-08-14T08:50:19.356Z</time>
      </trkpt>
      <trkpt lat="66.0165" lon="12.6374">
        <ele>60.633779</ele>
        <time>2020-08-14T08:50:24.351Z</time>
      </trkpt>
      <trkpt lat="66.01653" lon="12.63763">
        <ele>61.003627</ele>
        <time>2020-08-14T08:50:28.350Z</time>
      </trkpt>
      <trkpt lat="66.01653" lon="12.63788">
        <ele>61.385063</ele>
        <time>2020-08-14T08:50:32.421Z</time>
      </trkpt>
      <trkpt lat="66.01649" lon="12.63812">
        <ele>61.7678</ele>
        <time>2020-08-14T08:50:36.364Z</time>
      </trkpt>
      <trkpt lat="66.01646" lon="12.63837">
        <ele>62.171657</ele>
        <time>2020-08-14T08:50:40.353Z</time>
      </trkpt>
      <trkpt lat="66.01643" lon="12.63864">
        <ele>62.595757</ele>
        <time>2020-08-14T08:50:44.351Z</time>
      </trkpt>
      <trkpt lat="66.0164" lon="12.63887">
        <ele>62.967881</ele>
        <time>2020-08-14T08:50:47.385Z</time>
      </trkpt>
      <trkpt lat="66.01637" lon="12.63911">
        <ele>63.342499</ele>
        <time>2020-08-14T08:50:50.350Z</time>
      </trkpt>
      <trkpt lat="66.01635" lon="12.63937">
        <ele>63.747315</ele>
        <time>2020-08-14T08:50:53.352Z</time>
      </trkpt>
      <trkpt lat="66.01634" lon="12.63964">
        <ele>63.845089</ele>
        <time>2020-08-14T08:50:56.353Z</time>
      </trkpt>
      <trkpt lat="66.01633" lon="12.63992">
        <ele>63.896217</ele>
        <time>2020-08-14T08:50:59.372Z</time>
      </trkpt>
      <trkpt lat="66.01633" lon="12.6402">
        <ele>63.949083</ele>
        <time>2020-08-14T08:51:02.361Z</time>
      </trkpt>
      <trkpt lat="66.01632" lon="12.64049">
        <ele>64.001441</ele>
        <time>2020-08-14T08:51:05.351Z</time>
      </trkpt>
      <trkpt lat="66.01631" lon="12.64075">
        <ele>64.051091</ele>
        <time>2020-08-14T08:51:08.357Z</time>
      </trkpt>
      <trkpt lat="66.0163" lon="12.64103">
        <ele>64.103246</ele>
        <time>2020-08-14T08:51:11.368Z</time>
      </trkpt>
      <trkpt lat="66.01628" lon="12.64131">
        <ele>64.155473</ele>
        <time>2020-08-14T08:51:14.375Z</time>
      </trkpt>
      <trkpt lat="66.01627" lon="12.64159">
        <ele>64.207148</ele>
        <time>2020-08-14T08:51:17.379Z</time>
      </trkpt>
      <trkpt lat="66.01626" lon="12.64187">
        <ele>64.259321</ele>
        <time>2020-08-14T08:51:20.368Z</time>
      </trkpt>
      <trkpt lat="66.01625" lon="12.64214">
        <ele>64.310119</ele>
        <time>2020-08-14T08:51:23.356Z</time>
      </trkpt>
      <trkpt lat="66.01624" lon="12.64241">
        <ele>64.3594</ele>
        <time>2020-08-14T08:51:26.353Z</time>
      </trkpt>
      <trkpt lat="66.01623" lon="12.64267">
        <ele>64.408555</ele>
        <time>2020-08-14T08:51:29.372Z</time>
      </trkpt>
      <trkpt lat="66.01622" lon="12.64293">
        <ele>64.457895</ele>
        <time>2020-08-14T08:51:32.351Z</time>
      </trkpt>
      <trkpt lat="66.0162" lon="12.64318">
        <ele>64.504387</ele>
        <time>2020-08-14T08:51:35.371Z</time>
      </trkpt>
      <trkpt lat="66.01621" lon="12.64347">
        <ele>64.558508</ele>
        <time>2020-08-14T08:51:39.351Z</time>
      </trkpt>
      <trkpt lat="66.01624" lon="12.64374">
        <ele>64.609209</ele>
        <time>2020-08-14T08:51:42.354Z</time>
      </trkpt>
      <trkpt lat="66.01623" lon="12.64399">
        <ele>65.114566</ele>
        <time>2020-08-14T08:51:45.350Z</time>
      </trkpt>
      <trkpt lat="66.01623" lon="12.64424">
        <ele>65.753836</ele>
        <time>2020-08-14T08:51:48.392Z</time>
      </trkpt>
      <trkpt lat="66.01622" lon="12.64448">
        <ele>66.364311</ele>
        <time>2020-08-14T08:51:51.354Z</time>
      </trkpt>
      <trkpt lat="66.01621" lon="12.64477">
        <ele>67.102539</ele>
        <time>2020-08-14T08:51:55.390Z</time>
      </trkpt>
      <trkpt lat="66.0162" lon="12.64506">
        <ele>67.843313</ele>
        <time>2020-08-14T08:51:59.373Z</time>
      </trkpt>
      <trkpt lat="66.01619" lon="12.64533">
        <ele>68.543361</ele>
        <time>2020-08-14T08:52:03.354Z</time>
      </trkpt>
      <trkpt lat="66.01618" lon="12.6456">
        <ele>69.228166</ele>
        <time>2020-08-14T08:52:07.351Z</time>
      </trkpt>
      <trkpt lat="66.01617" lon="12.64583">
        <ele>69.811318</ele>
        <time>2020-08-14T08:52:11.381Z</time>
      </trkpt>
      <trkpt lat="66.01617" lon="12.6461">
        <ele>70.510849</ele>
        <time>2020-08-14T08:52:16.357Z</time>
      </trkpt>
      <trkpt lat="66.01616" lon="12.64633">
        <ele>71.088189</ele>
        <time>2020-08-14T08:52:20.376Z</time>
      </trkpt>
      <trkpt lat="66.01617" lon="12.64659">
        <ele>71.764811</ele>
        <time>2020-08-14T08:52:25.359Z</time>
      </trkpt>
      <trkpt lat="66.01618" lon="12.64685">
        <ele>72.43839</ele>
        <time>2020-08-14T08:52:30.356Z</time>
      </trkpt>
      <trkpt lat="66.0162" lon="12.6471">
        <ele>73.084755</ele>
        <time>2020-08-14T08:52:35.353Z</time>
      </trkpt>
      <trkpt lat="66.01622" lon="12.64735">
        <ele>73.735502</ele>
        <time>2020-08-14T08:52:40.357Z</time>
      </trkpt>
      <trkpt lat="66.01624" lon="12.6476">
        <ele>74.372725</ele>
        <time>2020-08-14T08:52:46.358Z</time>
      </trkpt>
      <trkpt lat="66.01626" lon="12.64781">
        <ele>74.937463</ele>
        <time>2020-08-14T08:52:51.360Z</time>
      </trkpt>
      <trkpt lat="66.01628" lon="12.64804">
        <ele>75.530985</ele>
        <time>2020-08-14T08:52:56.357Z</time>
      </trkpt>
      <trkpt lat="66.01632" lon="12.64829">
        <ele>76.089374</ele>
        <time>2020-08-14T08:53:02.354Z</time>
      </trkpt>
      <trkpt lat="66.01634" lon="12.64853">
        <ele>76.467733</ele>
        <time>2020-08-14T08:53:07.370Z</time>
      </trkpt>
      <trkpt lat="66.01637" lon="12.64876">
        <ele>76.817414</ele>
        <time>2020-08-14T08:53:12.375Z</time>
      </trkpt>
      <trkpt lat="66.01639" lon="12.64899">
        <ele>77.171426</ele>
        <time>2020-08-14T08:53:17.371Z</time>
      </trkpt>
      <trkpt lat="66.01642" lon="12.64925">
        <ele>77.575076</ele>
        <time>2020-08-14T08:53:22.345Z</time>
      </trkpt>
      <trkpt lat="66.01645" lon="12.64946">
        <ele>77.9058</ele>
        <time>2020-08-14T08:53:26.386Z</time>
      </trkpt>
      <trkpt lat="66.01647" lon="12.64967">
        <ele>78.236212</ele>
        <time>2020-08-14T08:53:30.361Z</time>
      </trkpt>
      <trkpt lat="66.0165" lon="12.64993">
        <ele>78.637177</ele>
        <time>2020-08-14T08:53:35.356Z</time>
      </trkpt>
      <trkpt lat="66.01652" lon="12.6502">
        <ele>79.048108</ele>
        <time>2020-08-14T08:53:40.357Z</time>
      </trkpt>
      <trkpt lat="66.01655" lon="12.65042">
        <ele>79.383262</ele>
        <time>2020-08-14T08:53:44.382Z</time>
      </trkpt>
      <trkpt lat="66.01657" lon="12.65066">
        <ele>79.753202</ele>
        <time>2020-08-14T08:53:48.352Z</time>
      </trkpt>
      <trkpt lat="66.0166" lon="12.65091">
        <ele>80.137873</ele>
        <time>2020-08-14T08:53:52.368Z</time>
      </trkpt>
      <trkpt lat="66.01663" lon="12.65115">
        <ele>80.521569</ele>
        <time>2020-08-14T08:53:56.347Z</time>
      </trkpt>
      <trkpt lat="66.01666" lon="12.6514">
        <ele>80.899387</ele>
        <time>2020-08-14T08:54:00.351Z</time>
      </trkpt>
      <trkpt lat="66.01669" lon="12.65165">
        <ele>81.297833</ele>
        <time>2020-08-14T08:54:04.378Z</time>
      </trkpt>
      <trkpt lat="66.01672" lon="12.65193">
        <ele>81.727098</ele>
        <time>2020-08-14T08:54:08.373Z</time>
      </trkpt>
      <trkpt lat="66.01675" lon="12.65222">
        <ele>82.166915</ele>
        <time>2020-08-14T08:54:12.376Z</time>
      </trkpt>
      <trkpt lat="66.01678" lon="12.6525">
        <ele>82.544201</ele>
        <time>2020-08-14T08:54:16.395Z</time>
      </trkpt>
      <trkpt lat="66.0168" lon="12.65272">
        <ele>82.633899</ele>
        <time>2020-08-14T08:54:19.382Z</time>
      </trkpt>
      <trkpt lat="66.01682" lon="12.65294">
        <ele>82.723128</ele>
        <time>2020-08-14T08:54:22.353Z</time>
      </trkpt>
      <trkpt lat="66.01686" lon="12.65322">
        <ele>82.836899</ele>
        <time>2020-08-14T08:54:26.371Z</time>
      </trkpt>
      <trkpt lat="66.01689" lon="12.65343">
        <ele>82.922875</ele>
        <time>2020-08-14T08:54:29.370Z</time>
      </trkpt>
      <trkpt lat="66.01691" lon="12.65365">
        <ele>83.009195</ele>
        <time>2020-08-14T08:54:32.376Z</time>
      </trkpt>
      <trkpt lat="66.01694" lon="12.65393">
        <ele>83.121738</ele>
        <time>2020-08-14T08:54:36.368Z</time>
      </trkpt>
      <trkpt lat="66.01696" lon="12.65414">
        <ele>83.207395</ele>
        <time>2020-08-14T08:54:39.369Z</time>
      </trkpt>
      <trkpt lat="66.01699" lon="12.65435">
        <ele>83.293461</ele>
        <time>2020-08-14T08:54:42.360Z</time>
      </trkpt>
      <trkpt lat="66.01702" lon="12.65463">
        <ele>83.406295</ele>
        <time>2020-08-14T08:54:46.364Z</time>
      </trkpt>
      <trkpt lat="66.01705" lon="12.65484">
        <ele>83.492808</ele>
        <time>2020-08-14T08:54:49.350Z</time>
      </trkpt>
      <trkpt lat="66.01709" lon="12.65512">
        <ele>83.60724</ele>
        <time>2020-08-14T08:54:53.362Z</time>
      </trkpt>
      <trkpt lat="66.01712" lon="12.65535">
        <ele>83.699643</ele>
        <time>2020-08-14T08:54:56.360Z</time>
      </trkpt>
      <trkpt lat="66.01715" lon="12.65556">
        <ele>83.789329</ele>
        <time>2020-08-14T08:54:59.401Z</time>
      </trkpt>
      <trkpt lat="66.0172" lon="12.65582">
        <ele>83.899306</ele>
        <time>2020-08-14T08:55:03.372Z</time>
      </trkpt>
      <trkpt lat="66.01723" lon="12.65603">
        <ele>83.9886</ele>
        <time>2020-08-14T08:55:06.371Z</time>
      </trkpt>
      <trkpt lat="66.01727" lon="12.65625">
        <ele>84.080417</ele>
        <time>2020-08-14T08:55:09.368Z</time>
      </trkpt>
      <trkpt lat="66.01732" lon="12.65647">
        <ele>84.175713</ele>
        <time>2020-08-14T08:55:12.378Z</time>
      </trkpt>
      <trkpt lat="66.01736" lon="12.65668">
        <ele>84.329985</ele>
        <time>2020-08-14T08:55:15.372Z</time>
      </trkpt>
      <trkpt lat="66.01741" lon="12.65694">
        <ele>84.779166</ele>
        <time>2020-08-14T08:55:19.375Z</time>
      </trkpt>
      <trkpt lat="66.01746" lon="12.65714">
        <ele>85.124964</ele>
        <time>2020-08-14T08:55:22.349Z</time>
      </trkpt>
      <trkpt lat="66.01751" lon="12.65733">
        <ele>85.47852</ele>
        <time>2020-08-14T08:55:25.392Z</time>
      </trkpt>
      <trkpt lat="66.01755" lon="12.65753">
        <ele>85.818469</ele>
        <time>2020-08-14T08:55:28.368Z</time>
      </trkpt>
      <trkpt lat="66.0176" lon="12.65772">
        <ele>86.164167</ele>
        <time>2020-08-14T08:55:31.373Z</time>
      </trkpt>
      <trkpt lat="66.01765" lon="12.65791">
        <ele>86.505301</ele>
        <time>2020-08-14T08:55:34.373Z</time>
      </trkpt>
      <trkpt lat="66.0177" lon="12.6581">
        <ele>86.848396</ele>
        <time>2020-08-14T08:55:37.394Z</time>
      </trkpt>
      <trkpt lat="66.01775" lon="12.6583">
        <ele>87.209124</ele>
        <time>2020-08-14T08:55:40.368Z</time>
      </trkpt>
      <trkpt lat="66.0178" lon="12.65849">
        <ele>87.55623</ele>
        <time>2020-08-14T08:55:43.412Z</time>
      </trkpt>
      <trkpt lat="66.01786" lon="12.65874">
        <ele>88.004983</ele>
        <time>2020-08-14T08:55:47.380Z</time>
      </trkpt>
      <trkpt lat="66.01792" lon="12.65899">
        <ele>88.442772</ele>
        <time>2020-08-14T08:55:51.375Z</time>
      </trkpt>
      <trkpt lat="66.01797" lon="12.65917">
        <ele>88.781974</ele>
        <time>2020-08-14T08:55:54.397Z</time>
      </trkpt>
      <trkpt lat="66.01802" lon="12.65937">
        <ele>89.130416</ele>
        <time>2020-08-14T08:55:57.353Z</time>
      </trkpt>
      <trkpt lat="66.01806" lon="12.65957">
        <ele>89.475475</ele>
        <time>2020-08-14T08:56:00.387Z</time>
      </trkpt>
      <trkpt lat="66.01812" lon="12.6598">
        <ele>89.89814</ele>
        <time>2020-08-14T08:56:04.384Z</time>
      </trkpt>
      <trkpt lat="66.01818" lon="12.66004">
        <ele>90.316427</ele>
        <time>2020-08-14T08:56:08.369Z</time>
      </trkpt>
      <trkpt lat="66.01824" lon="12.6603">
        <ele>90.766595</ele>
        <time>2020-08-14T08:56:12.386Z</time>
      </trkpt>
      <trkpt lat="66.0183" lon="12.66054">
        <ele>91.021145</ele>
        <time>2020-08-14T08:56:16.376Z</time>
      </trkpt>
      <trkpt lat="66.01835" lon="12.66074">
        <ele>91.04669</ele>
        <time>2020-08-14T08:56:19.391Z</time>
      </trkpt>
      <trkpt lat="66.0184" lon="12.66093">
        <ele>91.070982</ele>
        <time>2020-08-14T08:56:22.372Z</time>
      </trkpt>
      <trkpt lat="66.01847" lon="12.66117">
        <ele>91.102005</ele>
        <time>2020-08-14T08:56:26.392Z</time>
      </trkpt>
      <trkpt lat="66.01853" lon="12.6614">
        <ele>91.131499</ele>
        <time>2020-08-14T08:56:30.366Z</time>
      </trkpt>
      <trkpt lat="66.01858" lon="12.66162">
        <ele>91.159685</ele>
        <time>2020-08-14T08:56:34.363Z</time>
      </trkpt>
      <trkpt lat="66.01863" lon="12.66182">
        <ele>91.185138</ele>
        <time>2020-08-14T08:56:38.361Z</time>
      </trkpt>
      <trkpt lat="66.01869" lon="12.66206">
        <ele>91.215967</ele>
        <time>2020-08-14T08:56:42.391Z</time>
      </trkpt>
      <trkpt lat="66.01874" lon="12.66226">
        <ele>91.241329</ele>
        <time>2020-08-14T08:56:45.396Z</time>
      </trkpt>
      <trkpt lat="66.01879" lon="12.66246">
        <ele>91.267384</ele>
        <time>2020-08-14T08:56:48.366Z</time>
      </trkpt>
      <trkpt lat="66.01884" lon="12.66267">
        <ele>91.292979</ele>
        <time>2020-08-14T08:56:51.363Z</time>
      </trkpt>
      <trkpt lat="66.01889" lon="12.66286">
        <ele>91.318066</ele>
        <time>2020-08-14T08:56:54.373Z</time>
      </trkpt>
      <trkpt lat="66.01895" lon="12.66307">
        <ele>91.345216</ele>
        <time>2020-08-14T08:56:57.370Z</time>
      </trkpt>
      <trkpt lat="66.019" lon="12.66329">
        <ele>91.372892</ele>
        <time>2020-08-14T08:57:00.392Z</time>
      </trkpt>
      <trkpt lat="66.01906" lon="12.66351">
        <ele>91.401447</ele>
        <time>2020-08-14T08:57:03.390Z</time>
      </trkpt>
      <trkpt lat="66.01912" lon="12.66376">
        <ele>91.432327</ele>
        <time>2020-08-14T08:57:06.364Z</time>
      </trkpt>
      <trkpt lat="66.01918" lon="12.66402">
        <ele>91.46534</ele>
        <time>2020-08-14T08:57:09.381Z</time>
      </trkpt>
      <trkpt lat="66.01924" lon="12.66428">
        <ele>91.320827</ele>
        <time>2020-08-14T08:57:12.367Z</time>
      </trkpt>
      <trkpt lat="66.01929" lon="12.66448">
        <ele>91.002269</ele>
        <time>2020-08-14T08:57:14.362Z</time>
      </trkpt>
      <trkpt lat="66.01934" lon="12.66468">
        <ele>90.66433</ele>
        <time>2020-08-14T08:57:16.359Z</time>
      </trkpt>
      <trkpt lat="66.01939" lon="12.6649">
        <ele>90.306302</ele>
        <time>2020-08-14T08:57:18.370Z</time>
      </trkpt>
      <trkpt lat="66.01944" lon="12.66512">
        <ele>89.931858</ele>
        <time>2020-08-14T08:57:20.365Z</time>
      </trkpt>
      <trkpt lat="66.0195" lon="12.66536">
        <ele>89.534878</ele>
        <time>2020-08-14T08:57:22.377Z</time>
      </trkpt>
      <trkpt lat="66.01957" lon="12.66562">
        <ele>89.101383</ele>
        <time>2020-08-14T08:57:24.369Z</time>
      </trkpt>
      <trkpt lat="66.01963" lon="12.6659">
        <ele>88.646577</ele>
        <time>2020-08-14T08:57:26.392Z</time>
      </trkpt>
      <trkpt lat="66.01971" lon="12.66618">
        <ele>88.170968</ele>
        <time>2020-08-14T08:57:28.368Z</time>
      </trkpt>
      <trkpt lat="66.01978" lon="12.66648">
        <ele>87.677116</ele>
        <time>2020-08-14T08:57:30.404Z</time>
      </trkpt>
      <trkpt lat="66.01985" lon="12.66678">
        <ele>87.167411</ele>
        <time>2020-08-14T08:57:32.408Z</time>
      </trkpt>
      <trkpt lat="66.01993" lon="12.6671">
        <ele>86.638331</ele>
        <time>2020-08-14T08:57:34.364Z</time>
      </trkpt>
      <trkpt lat="66.02001" lon="12.66743">
        <ele>86.088524</ele>
        <time>2020-08-14T08:57:36.358Z</time>
      </trkpt>
      <trkpt lat="66.0201" lon="12.66777">
        <ele>85.517418</ele>
        <time>2020-08-14T08:57:38.398Z</time>
      </trkpt>
      <trkpt lat="66.02019" lon="12.66812">
        <ele>84.81221</ele>
        <time>2020-08-14T08:57:40.374Z</time>
      </trkpt>
      <trkpt lat="66.02028" lon="12.66849">
        <ele>83.875384</ele>
        <time>2020-08-14T08:57:42.371Z</time>
      </trkpt>
      <trkpt lat="66.02033" lon="12.66868">
        <ele>83.396507</ele>
        <time>2020-08-14T08:57:43.365Z</time>
      </trkpt>
      <trkpt lat="66.02038" lon="12.66888">
        <ele>82.903087</ele>
        <time>2020-08-14T08:57:44.360Z</time>
      </trkpt>
      <trkpt lat="66.02043" lon="12.66908">
        <ele>82.402505</ele>
        <time>2020-08-14T08:57:45.383Z</time>
      </trkpt>
      <trkpt lat="66.02048" lon="12.66928">
        <ele>81.896524</ele>
        <time>2020-08-14T08:57:46.357Z</time>
      </trkpt>
      <trkpt lat="66.02053" lon="12.66949">
        <ele>81.387782</ele>
        <time>2020-08-14T08:57:47.367Z</time>
      </trkpt>
      <trkpt lat="66.02059" lon="12.66969">
        <ele>80.86729</ele>
        <time>2020-08-14T08:57:48.372Z</time>
      </trkpt>
      <trkpt lat="66.02064" lon="12.66991">
        <ele>80.336842</ele>
        <time>2020-08-14T08:57:49.380Z</time>
      </trkpt>
      <trkpt lat="66.02069" lon="12.67012">
        <ele>79.80009</ele>
        <time>2020-08-14T08:57:50.368Z</time>
      </trkpt>
      <trkpt lat="66.02075" lon="12.67034">
        <ele>79.257011</ele>
        <time>2020-08-14T08:57:51.397Z</time>
      </trkpt>
      <trkpt lat="66.0208" lon="12.67056">
        <ele>78.707598</ele>
        <time>2020-08-14T08:57:52.366Z</time>
      </trkpt>
      <trkpt lat="66.02086" lon="12.67079">
        <ele>78.144609</ele>
        <time>2020-08-14T08:57:53.377Z</time>
      </trkpt>
      <trkpt lat="66.02092" lon="12.67102">
        <ele>77.575285</ele>
        <time>2020-08-14T08:57:54.364Z</time>
      </trkpt>
      <trkpt lat="66.02097" lon="12.67124">
        <ele>77.013975</ele>
        <time>2020-08-14T08:57:55.370Z</time>
      </trkpt>
      <trkpt lat="66.02103" lon="12.67147">
        <ele>76.439134</ele>
        <time>2020-08-14T08:57:56.381Z</time>
      </trkpt>
      <trkpt lat="66.02109" lon="12.67171">
        <ele>75.854423</ele>
        <time>2020-08-14T08:57:57.378Z</time>
      </trkpt>
      <trkpt lat="66.02115" lon="12.67194">
        <ele>75.471473</ele>
        <time>2020-08-14T08:57:58.396Z</time>
      </trkpt>
      <trkpt lat="66.02121" lon="12.67218">
        <ele>75.111081</ele>
        <time>2020-08-14T08:57:59.369Z</time>
      </trkpt>
      <trkpt lat="66.02126" lon="12.67241">
        <ele>74.754065</ele>
        <time>2020-08-14T08:58:00.412Z</time>
      </trkpt>
      <trkpt lat="66.02132" lon="12.67264">
        <ele>74.392008</ele>
        <time>2020-08-14T08:58:01.360Z</time>
      </trkpt>
      <trkpt lat="66.02138" lon="12.67288">
        <ele>74.030484</ele>
        <time>2020-08-14T08:58:02.377Z</time>
      </trkpt>
      <trkpt lat="66.02144" lon="12.67312">
        <ele>73.670672</ele>
        <time>2020-08-14T08:58:03.398Z</time>
      </trkpt>
      <trkpt lat="66.0215" lon="12.67335">
        <ele>73.30974</ele>
        <time>2020-08-14T08:58:04.370Z</time>
      </trkpt>
      <trkpt lat="66.02155" lon="12.67359">
        <ele>72.940923</ele>
        <time>2020-08-14T08:58:05.382Z</time>
      </trkpt>
      <trkpt lat="66.02161" lon="12.67384">
        <ele>72.570976</ele>
        <time>2020-08-14T08:58:06.377Z</time>
      </trkpt>
      <trkpt lat="66.02167" lon="12.67408">
        <ele>72.199383</ele>
        <time>2020-08-14T08:58:07.361Z</time>
      </trkpt>
      <trkpt lat="66.02173" lon="12.67433">
        <ele>71.81937</ele>
        <time>2020-08-14T08:58:08.370Z</time>
      </trkpt>
      <trkpt lat="66.02179" lon="12.67458">
        <ele>71.440486</ele>
        <time>2020-08-14T08:58:09.375Z</time>
      </trkpt>
      <trkpt lat="66.02185" lon="12.67483">
        <ele>71.057082</ele>
        <time>2020-08-14T08:58:10.393Z</time>
      </trkpt>
      <trkpt lat="66.02191" lon="12.67508">
        <ele>70.674163</ele>
        <time>2020-08-14T08:58:11.372Z</time>
      </trkpt>
      <trkpt lat="66.02197" lon="12.67534">
        <ele>70.283943</ele>
        <time>2020-08-14T08:58:12.360Z</time>
      </trkpt>
      <trkpt lat="66.02203" lon="12.6756">
        <ele>69.919517</ele>
        <time>2020-08-14T08:58:13.361Z</time>
      </trkpt>
      <trkpt lat="66.02209" lon="12.67586">
        <ele>69.639184</ele>
        <time>2020-08-14T08:58:14.369Z</time>
      </trkpt>
      <trkpt lat="66.02215" lon="12.67612">
        <ele>69.354025</ele>
        <time>2020-08-14T08:58:15.433Z</time>
      </trkpt>
      <trkpt lat="66.02221" lon="12.67639">
        <ele>69.069188</ele>
        <time>2020-08-14T08:58:16.388Z</time>
      </trkpt>
      <trkpt lat="66.02227" lon="12.67666">
        <ele>68.788471</ele>
        <time>2020-08-14T08:58:17.356Z</time>
      </trkpt>
      <trkpt lat="66.02233" lon="12.67692">
        <ele>68.50475</ele>
        <time>2020-08-14T08:58:18.370Z</time>
      </trkpt>
      <trkpt lat="66.0224" lon="12.67719">
        <ele>68.215318</ele>
        <time>2020-08-14T08:58:19.364Z</time>
      </trkpt>
      <trkpt lat="66.02246" lon="12.67746">
        <ele>67.923043</ele>
        <time>2020-08-14T08:58:20.383Z</time>
      </trkpt>
      <trkpt lat="66.02253" lon="12.67774">
        <ele>67.62835</ele>
        <time>2020-08-14T08:58:21.370Z</time>
      </trkpt>
      <trkpt lat="66.02259" lon="12.67801">
        <ele>67.336407</ele>
        <time>2020-08-14T08:58:22.383Z</time>
      </trkpt>
      <trkpt lat="66.02265" lon="12.67829">
        <ele>67.043432</ele>
        <time>2020-08-14T08:58:23.362Z</time>
      </trkpt>
      <trkpt lat="66.02271" lon="12.67857">
        <ele>66.750962</ele>
        <time>2020-08-14T08:58:24.372Z</time>
      </trkpt>
      <trkpt lat="66.02277" lon="12.67885">
        <ele>66.451043</ele>
        <time>2020-08-14T08:58:25.375Z</time>
      </trkpt>
      <trkpt lat="66.02282" lon="12.67914">
        <ele>66.159589</ele>
        <time>2020-08-14T08:58:26.379Z</time>
      </trkpt>
      <trkpt lat="66.02287" lon="12.67942">
        <ele>65.872356</ele>
        <time>2020-08-14T08:58:27.362Z</time>
      </trkpt>
      <trkpt lat="66.02293" lon="12.6797">
        <ele>65.263851</ele>
        <time>2020-08-14T08:58:28.361Z</time>
      </trkpt>
      <trkpt lat="66.02299" lon="12.67997">
        <ele>64.649893</ele>
        <time>2020-08-14T08:58:29.363Z</time>
      </trkpt>
      <trkpt lat="66.02304" lon="12.68025">
        <ele>64.041677</ele>
        <time>2020-08-14T08:58:30.368Z</time>
      </trkpt>
      <trkpt lat="66.0231" lon="12.68052">
        <ele>63.430638</ele>
        <time>2020-08-14T08:58:31.367Z</time>
      </trkpt>
      <trkpt lat="66.02315" lon="12.6808">
        <ele>62.817104</ele>
        <time>2020-08-14T08:58:32.384Z</time>
      </trkpt>
      <trkpt lat="66.02321" lon="12.68108">
        <ele>62.204563</ele>
        <time>2020-08-14T08:58:33.392Z</time>
      </trkpt>
      <trkpt lat="66.02326" lon="12.68136">
        <ele>61.592458</ele>
        <time>2020-08-14T08:58:34.375Z</time>
      </trkpt>
      <trkpt lat="66.02331" lon="12.68165">
        <ele>60.980354</ele>
        <time>2020-08-14T08:58:35.368Z</time>
      </trkpt>
      <trkpt lat="66.02336" lon="12.68193">
        <ele>60.366439</ele>
        <time>2020-08-14T08:58:36.393Z</time>
      </trkpt>
      <trkpt lat="66.02341" lon="12.68221">
        <ele>59.752668</ele>
        <time>2020-08-14T08:58:37.371Z</time>
      </trkpt>
      <trkpt lat="66.02346" lon="12.6825">
        <ele>59.136761</ele>
        <time>2020-08-14T08:58:38.373Z</time>
      </trkpt>
      <trkpt lat="66.02351" lon="12.68278">
        <ele>58.524466</ele>
        <time>2020-08-14T08:58:39.355Z</time>
      </trkpt>
      <trkpt lat="66.02356" lon="12.68306">
        <ele>57.912172</ele>
        <time>2020-08-14T08:58:40.379Z</time>
      </trkpt>
      <trkpt lat="66.02361" lon="12.68334">
        <ele>57.302153</ele>
        <time>2020-08-14T08:58:41.390Z</time>
      </trkpt>
      <trkpt lat="66.02367" lon="12.68362">
        <ele>56.81936</ele>
        <time>2020-08-14T08:58:42.364Z</time>
      </trkpt>
      <trkpt lat="66.02372" lon="12.68389">
        <ele>56.412092</ele>
        <time>2020-08-14T08:58:43.391Z</time>
      </trkpt>
      <trkpt lat="66.02377" lon="12.68417">
        <ele>56.008522</ele>
        <time>2020-08-14T08:58:44.402Z</time>
      </trkpt>
      <trkpt lat="66.02381" lon="12.68444">
        <ele>55.606409</ele>
        <time>2020-08-14T08:58:45.368Z</time>
      </trkpt>
      <trkpt lat="66.02386" lon="12.68471">
        <ele>55.201608</ele>
        <time>2020-08-14T08:58:46.370Z</time>
      </trkpt>
      <trkpt lat="66.02391" lon="12.68498">
        <ele>54.801977</ele>
        <time>2020-08-14T08:58:47.382Z</time>
      </trkpt>
      <trkpt lat="66.02396" lon="12.68525">
        <ele>54.409767</ele>
        <time>2020-08-14T08:58:48.367Z</time>
      </trkpt>
      <trkpt lat="66.02401" lon="12.68551">
        <ele>54.017254</ele>
        <time>2020-08-14T08:58:49.365Z</time>
      </trkpt>
      <trkpt lat="66.02406" lon="12.68577">
        <ele>53.63244</ele>
        <time>2020-08-14T08:58:50.381Z</time>
      </trkpt>
      <trkpt lat="66.0241" lon="12.68602">
        <ele>53.260071</ele>
        <time>2020-08-14T08:58:51.363Z</time>
      </trkpt>
      <trkpt lat="66.02415" lon="12.68627">
        <ele>52.894006</ele>
        <time>2020-08-14T08:58:52.374Z</time>
      </trkpt>
      <trkpt lat="66.02419" lon="12.68651">
        <ele>52.53828</ele>
        <time>2020-08-14T08:58:53.391Z</time>
      </trkpt>
      <trkpt lat="66.02423" lon="12.68675">
        <ele>52.188867</ele>
        <time>2020-08-14T08:58:54.411Z</time>
      </trkpt>
      <trkpt lat="66.02426" lon="12.68699">
        <ele>51.847645</ele>
        <time>2020-08-14T08:58:55.405Z</time>
      </trkpt>
      <trkpt lat="66.02429" lon="12.68722">
        <ele>51.514664</ele>
        <time>2020-08-14T08:58:56.364Z</time>
      </trkpt>
      <trkpt lat="66.02432" lon="12.68745">
        <ele>51.196566</ele>
        <time>2020-08-14T08:58:57.370Z</time>
      </trkpt>
      <trkpt lat="66.02435" lon="12.68766">
        <ele>51.029747</ele>
        <time>2020-08-14T08:58:58.392Z</time>
      </trkpt>
      <trkpt lat="66.02438" lon="12.68788">
        <ele>50.924058</ele>
        <time>2020-08-14T08:58:59.370Z</time>
      </trkpt>
      <trkpt lat="66.02441" lon="12.68809">
        <ele>50.820511</ele>
        <time>2020-08-14T08:59:00.393Z</time>
      </trkpt>
      <trkpt lat="66.02445" lon="12.6885">
        <ele>50.620379</ele>
        <time>2020-08-14T08:59:02.381Z</time>
      </trkpt>
      <trkpt lat="66.02449" lon="12.6889">
        <ele>50.426402</ele>
        <time>2020-08-14T08:59:04.396Z</time>
      </trkpt>
      <trkpt lat="66.02452" lon="12.68929">
        <ele>50.238889</ele>
        <time>2020-08-14T08:59:06.371Z</time>
      </trkpt>
      <trkpt lat="66.02456" lon="12.68966">
        <ele>50.062893</ele>
        <time>2020-08-14T08:59:08.397Z</time>
      </trkpt>
      <trkpt lat="66.02459" lon="12.69001">
        <ele>49.891054</ele>
        <time>2020-08-14T08:59:10.382Z</time>
      </trkpt>
      <trkpt lat="66.02462" lon="12.69036">
        <ele>49.724238</ele>
        <time>2020-08-14T08:59:12.373Z</time>
      </trkpt>
      <trkpt lat="66.02465" lon="12.69069">
        <ele>49.564651</ele>
        <time>2020-08-14T08:59:14.360Z</time>
      </trkpt>
      <trkpt lat="66.02468" lon="12.69101">
        <ele>49.407714</ele>
        <time>2020-08-14T08:59:16.399Z</time>
      </trkpt>
      <trkpt lat="66.02472" lon="12.69135">
        <ele>49.245877</ele>
        <time>2020-08-14T08:59:18.355Z</time>
      </trkpt>
      <trkpt lat="66.02476" lon="12.69167">
        <ele>49.085669</ele>
        <time>2020-08-14T08:59:20.377Z</time>
      </trkpt>
      <trkpt lat="66.0248" lon="12.69199">
        <ele>48.788771</ele>
        <time>2020-08-14T08:59:22.372Z</time>
      </trkpt>
      <trkpt lat="66.02485" lon="12.69228">
        <ele>48.414569</ele>
        <time>2020-08-14T08:59:24.376Z</time>
      </trkpt>
      <trkpt lat="66.0249" lon="12.69256">
        <ele>48.048716</ele>
        <time>2020-08-14T08:59:26.355Z</time>
      </trkpt>
      <trkpt lat="66.02496" lon="12.69283">
        <ele>47.691778</ele>
        <time>2020-08-14T08:59:28.371Z</time>
      </trkpt>
      <trkpt lat="66.02502" lon="12.69309">
        <ele>47.336289</ele>
        <time>2020-08-14T08:59:30.354Z</time>
      </trkpt>
      <trkpt lat="66.02509" lon="12.69334">
        <ele>46.980366</ele>
        <time>2020-08-14T08:59:32.357Z</time>
      </trkpt>
      <trkpt lat="66.02517" lon="12.69357">
        <ele>46.632103</ele>
        <time>2020-08-14T08:59:34.363Z</time>
      </trkpt>
      <trkpt lat="66.02525" lon="12.69379">
        <ele>46.279551</ele>
        <time>2020-08-14T08:59:36.377Z</time>
      </trkpt>
      <trkpt lat="66.02534" lon="12.69399">
        <ele>45.93031</ele>
        <time>2020-08-14T08:59:38.381Z</time>
      </trkpt>
      <trkpt lat="66.02543" lon="12.69416">
        <ele>45.58614</ele>
        <time>2020-08-14T08:59:40.365Z</time>
      </trkpt>
      <trkpt lat="66.02553" lon="12.69432">
        <ele>45.246294</ele>
        <time>2020-08-14T08:59:42.388Z</time>
      </trkpt>
      <trkpt lat="66.02563" lon="12.69447">
        <ele>44.896553</ele>
        <time>2020-08-14T08:59:44.363Z</time>
      </trkpt>
      <trkpt lat="66.02574" lon="12.6946">
        <ele>44.540362</ele>
        <time>2020-08-14T08:59:46.395Z</time>
      </trkpt>
      <trkpt lat="66.02586" lon="12.69472">
        <ele>44.182681</ele>
        <time>2020-08-14T08:59:48.363Z</time>
      </trkpt>
      <trkpt lat="66.02597" lon="12.69481">
        <ele>43.826772</ele>
        <time>2020-08-14T08:59:50.374Z</time>
      </trkpt>
      <trkpt lat="66.02608" lon="12.69489">
        <ele>43.68883</ele>
        <time>2020-08-14T08:59:52.375Z</time>
      </trkpt>
      <trkpt lat="66.02621" lon="12.69495">
        <ele>43.5607</ele>
        <time>2020-08-14T08:59:54.379Z</time>
      </trkpt>
      <trkpt lat="66.02634" lon="12.69499">
        <ele>43.425999</ele>
        <time>2020-08-14T08:59:56.358Z</time>
      </trkpt>
      <trkpt lat="66.02648" lon="12.695">
        <ele>43.28492</ele>
        <time>2020-08-14T08:59:58.356Z</time>
      </trkpt>
      <trkpt lat="66.02662" lon="12.69499">
        <ele>43.137786</ele>
        <time>2020-08-14T09:00:00.392Z</time>
      </trkpt>
      <trkpt lat="66.02676" lon="12.69497">
        <ele>42.993456</ele>
        <time>2020-08-14T09:00:02.356Z</time>
      </trkpt>
      <trkpt lat="66.0269" lon="12.69493">
        <ele>42.850728</ele>
        <time>2020-08-14T09:00:04.363Z</time>
      </trkpt>
      <trkpt lat="66.02704" lon="12.6949">
        <ele>42.705114</ele>
        <time>2020-08-14T09:00:06.376Z</time>
      </trkpt>
      <trkpt lat="66.02718" lon="12.69487">
        <ele>42.5595</ele>
        <time>2020-08-14T09:00:08.370Z</time>
      </trkpt>
      <trkpt lat="66.02732" lon="12.69484">
        <ele>42.418133</ele>
        <time>2020-08-14T09:00:10.359Z</time>
      </trkpt>
      <trkpt lat="66.02746" lon="12.69484">
        <ele>42.281293</ele>
        <time>2020-08-14T09:00:12.373Z</time>
      </trkpt>
      <trkpt lat="66.02759" lon="12.69487">
        <ele>42.149153</ele>
        <time>2020-08-14T09:00:14.393Z</time>
      </trkpt>
      <trkpt lat="66.02771" lon="12.69492">
        <ele>42.023861</ele>
        <time>2020-08-14T09:00:16.380Z</time>
      </trkpt>
      <trkpt lat="66.02782" lon="12.69498">
        <ele>42.035148</ele>
        <time>2020-08-14T09:00:18.406Z</time>
      </trkpt>
      <trkpt lat="66.02793" lon="12.69507">
        <ele>42.192964</ele>
        <time>2020-08-14T09:00:20.363Z</time>
      </trkpt>
      <trkpt lat="66.02805" lon="12.69517">
        <ele>42.353727</ele>
        <time>2020-08-14T09:00:22.372Z</time>
      </trkpt>
      <trkpt lat="66.02816" lon="12.69529">
        <ele>42.516927</ele>
        <time>2020-08-14T09:00:24.362Z</time>
      </trkpt>
      <trkpt lat="66.02827" lon="12.69542">
        <ele>42.676172</ele>
        <time>2020-08-14T09:00:26.386Z</time>
      </trkpt>
      <trkpt lat="66.02837" lon="12.69557">
        <ele>42.834156</ele>
        <time>2020-08-14T09:00:28.371Z</time>
      </trkpt>
      <trkpt lat="66.02846" lon="12.69573">
        <ele>42.985241</ele>
        <time>2020-08-14T09:00:30.371Z</time>
      </trkpt>
      <trkpt lat="66.02855" lon="12.6959">
        <ele>43.133436</ele>
        <time>2020-08-14T09:00:32.392Z</time>
      </trkpt>
      <trkpt lat="66.02863" lon="12.69609">
        <ele>43.283832</ele>
        <time>2020-08-14T09:00:34.418Z</time>
      </trkpt>
      <trkpt lat="66.02871" lon="12.69628">
        <ele>43.430465</ele>
        <time>2020-08-14T09:00:36.368Z</time>
      </trkpt>
      <trkpt lat="66.02879" lon="12.69648">
        <ele>43.580749</ele>
        <time>2020-08-14T09:00:38.416Z</time>
      </trkpt>
      <trkpt lat="66.02886" lon="12.6967">
        <ele>43.735994</ele>
        <time>2020-08-14T09:00:40.393Z</time>
      </trkpt>
      <trkpt lat="66.02893" lon="12.69693">
        <ele>43.888879</ele>
        <time>2020-08-14T09:00:42.362Z</time>
      </trkpt>
      <trkpt lat="66.02899" lon="12.69716">
        <ele>44.042093</ele>
        <time>2020-08-14T09:00:44.365Z</time>
      </trkpt>
      <trkpt lat="66.02906" lon="12.6974">
        <ele>44.195808</ele>
        <time>2020-08-14T09:00:46.357Z</time>
      </trkpt>
      <trkpt lat="66.02912" lon="12.69764">
        <ele>44.349337</ele>
        <time>2020-08-14T09:00:48.366Z</time>
      </trkpt>
      <trkpt lat="66.02918" lon="12.69787">
        <ele>44.464815</ele>
        <time>2020-08-14T09:00:50.379Z</time>
      </trkpt>
      <trkpt lat="66.02923" lon="12.69811">
        <ele>44.577196</ele>
        <time>2020-08-14T09:00:52.359Z</time>
      </trkpt>
      <trkpt lat="66.02928" lon="12.69835">
        <ele>44.686754</ele>
        <time>2020-08-14T09:00:54.364Z</time>
      </trkpt>
      <trkpt lat="66.02933" lon="12.6986">
        <ele>44.799044</ele>
        <time>2020-08-14T09:00:56.371Z</time>
      </trkpt>
      <trkpt lat="66.02938" lon="12.69884">
        <ele>44.9132</ele>
        <time>2020-08-14T09:00:58.363Z</time>
      </trkpt>
      <trkpt lat="66.02944" lon="12.69909">
        <ele>45.02954</ele>
        <time>2020-08-14T09:01:00.388Z</time>
      </trkpt>
      <trkpt lat="66.02949" lon="12.69935">
        <ele>45.145578</ele>
        <time>2020-08-14T09:01:02.378Z</time>
      </trkpt>
      <trkpt lat="66.02954" lon="12.6996">
        <ele>45.262735</ele>
        <time>2020-08-14T09:01:04.376Z</time>
      </trkpt>
      <trkpt lat="66.0296" lon="12.69985">
        <ele>45.379655</ele>
        <time>2020-08-14T09:01:06.381Z</time>
      </trkpt>
      <trkpt lat="66.02965" lon="12.7001">
        <ele>45.495252</ele>
        <time>2020-08-14T09:01:08.377Z</time>
      </trkpt>
      <trkpt lat="66.02971" lon="12.70035">
        <ele>45.61469</ele>
        <time>2020-08-14T09:01:10.362Z</time>
      </trkpt>
      <trkpt lat="66.02976" lon="12.70062">
        <ele>45.735376</ele>
        <time>2020-08-14T09:01:12.364Z</time>
      </trkpt>
      <trkpt lat="66.02982" lon="12.70088">
        <ele>45.857482</ele>
        <time>2020-08-14T09:01:14.374Z</time>
      </trkpt>
      <trkpt lat="66.02988" lon="12.70113">
        <ele>45.978243</ele>
        <time>2020-08-14T09:01:16.371Z</time>
      </trkpt>
      <trkpt lat="66.02994" lon="12.70139">
        <ele>46.097083</ele>
        <time>2020-08-14T09:01:18.355Z</time>
      </trkpt>
      <trkpt lat="66.02999" lon="12.70165">
        <ele>46.134377</ele>
        <time>2020-08-14T09:01:20.377Z</time>
      </trkpt>
      <trkpt lat="66.03005" lon="12.70191">
        <ele>46.024704</ele>
        <time>2020-08-14T09:01:22.360Z</time>
      </trkpt>
      <trkpt lat="66.03011" lon="12.70218">
        <ele>45.911699</ele>
        <time>2020-08-14T09:01:24.363Z</time>
      </trkpt>
      <trkpt lat="66.03017" lon="12.70243">
        <ele>45.80587</ele>
        <time>2020-08-14T09:01:26.409Z</time>
      </trkpt>
      <trkpt lat="66.03023" lon="12.70269">
        <ele>45.697371</ele>
        <time>2020-08-14T09:01:28.360Z</time>
      </trkpt>
      <trkpt lat="66.03028" lon="12.70296">
        <ele>45.586731</ele>
        <time>2020-08-14T09:01:30.400Z</time>
      </trkpt>
      <trkpt lat="66.03034" lon="12.70322">
        <ele>45.476737</ele>
        <time>2020-08-14T09:01:32.361Z</time>
      </trkpt>
      <trkpt lat="66.0304" lon="12.70349">
        <ele>45.366287</ele>
        <time>2020-08-14T09:01:34.380Z</time>
      </trkpt>
      <trkpt lat="66.03045" lon="12.70376">
        <ele>45.257555</ele>
        <time>2020-08-14T09:01:36.357Z</time>
      </trkpt>
      <trkpt lat="66.03051" lon="12.70402">
        <ele>45.149705</ele>
        <time>2020-08-14T09:01:38.370Z</time>
      </trkpt>
      <trkpt lat="66.03056" lon="12.70427">
        <ele>45.044882</ele>
        <time>2020-08-14T09:01:40.377Z</time>
      </trkpt>
      <trkpt lat="66.03062" lon="12.70453">
        <ele>44.93897</ele>
        <time>2020-08-14T09:01:42.356Z</time>
      </trkpt>
      <trkpt lat="66.03067" lon="12.70478">
        <ele>44.832736</ele>
        <time>2020-08-14T09:01:44.377Z</time>
      </trkpt>
      <trkpt lat="66.03073" lon="12.70504">
        <ele>44.726928</ele>
        <time>2020-08-14T09:01:46.372Z</time>
      </trkpt>
      <trkpt lat="66.03079" lon="12.7053">
        <ele>44.615539</ele>
        <time>2020-08-14T09:01:48.375Z</time>
      </trkpt>
      <trkpt lat="66.03084" lon="12.70557">
        <ele>44.587823</ele>
        <time>2020-08-14T09:01:50.363Z</time>
      </trkpt>
      <trkpt lat="66.0309" lon="12.70584">
        <ele>44.678022</ele>
        <time>2020-08-14T09:01:52.361Z</time>
      </trkpt>
      <trkpt lat="66.03096" lon="12.70611">
        <ele>44.768741</ele>
        <time>2020-08-14T09:01:54.369Z</time>
      </trkpt>
      <trkpt lat="66.03102" lon="12.70638">
        <ele>44.859981</ele>
        <time>2020-08-14T09:01:56.400Z</time>
      </trkpt>
      <trkpt lat="66.03108" lon="12.70665">
        <ele>44.951827</ele>
        <time>2020-08-14T09:01:58.363Z</time>
      </trkpt>
      <trkpt lat="66.03114" lon="12.70693">
        <ele>45.044541</ele>
        <time>2020-08-14T09:02:00.376Z</time>
      </trkpt>
      <trkpt lat="66.0312" lon="12.7072">
        <ele>45.135104</ele>
        <time>2020-08-14T09:02:02.374Z</time>
      </trkpt>
      <trkpt lat="66.03125" lon="12.70747">
        <ele>45.22395</ele>
        <time>2020-08-14T09:02:04.368Z</time>
      </trkpt>
      <trkpt lat="66.03131" lon="12.70773">
        <ele>45.312205</ele>
        <time>2020-08-14T09:02:06.365Z</time>
      </trkpt>
      <trkpt lat="66.03137" lon="12.70799">
        <ele>45.399198</ele>
        <time>2020-08-14T09:02:08.376Z</time>
      </trkpt>
      <trkpt lat="66.03142" lon="12.70825">
        <ele>45.485321</ele>
        <time>2020-08-14T09:02:10.359Z</time>
      </trkpt>
      <trkpt lat="66.03148" lon="12.7085">
        <ele>45.570925</ele>
        <time>2020-08-14T09:02:12.367Z</time>
      </trkpt>
      <trkpt lat="66.03154" lon="12.70875">
        <ele>45.656699</ele>
        <time>2020-08-14T09:02:14.367Z</time>
      </trkpt>
      <trkpt lat="66.03159" lon="12.70901">
        <ele>45.743104</ele>
        <time>2020-08-14T09:02:16.381Z</time>
      </trkpt>
      <trkpt lat="66.03164" lon="12.70927">
        <ele>45.828915</ele>
        <time>2020-08-14T09:02:18.374Z</time>
      </trkpt>
      <trkpt lat="66.0317" lon="12.70953">
        <ele>45.915556</ele>
        <time>2020-08-14T09:02:20.373Z</time>
      </trkpt>
      <trkpt lat="66.03175" lon="12.70978">
        <ele>46.002187</ele>
        <time>2020-08-14T09:02:22.353Z</time>
      </trkpt>
      <trkpt lat="66.03181" lon="12.71004">
        <ele>46.091401</ele>
        <time>2020-08-14T09:02:24.357Z</time>
      </trkpt>
      <trkpt lat="66.03186" lon="12.71029">
        <ele>46.178933</ele>
        <time>2020-08-14T09:02:26.377Z</time>
      </trkpt>
      <trkpt lat="66.03192" lon="12.71055">
        <ele>46.265043</ele>
        <time>2020-08-14T09:02:28.367Z</time>
      </trkpt>
      <trkpt lat="66.03197" lon="12.7108">
        <ele>46.352206</ele>
        <time>2020-08-14T09:02:30.360Z</time>
      </trkpt>
      <trkpt lat="66.03202" lon="12.71105">
        <ele>46.439059</ele>
        <time>2020-08-14T09:02:32.376Z</time>
      </trkpt>
      <trkpt lat="66.03208" lon="12.71131">
        <ele>46.526754</ele>
        <time>2020-08-14T09:02:34.370Z</time>
      </trkpt>
      <trkpt lat="66.03213" lon="12.71156">
        <ele>46.612731</ele>
        <time>2020-08-14T09:02:36.376Z</time>
      </trkpt>
      <trkpt lat="66.03219" lon="12.71181">
        <ele>46.698517</ele>
        <time>2020-08-14T09:02:38.392Z</time>
      </trkpt>
      <trkpt lat="66.03225" lon="12.71205">
        <ele>46.783293</ele>
        <time>2020-08-14T09:02:40.352Z</time>
      </trkpt>
      <trkpt lat="66.0323" lon="12.7123">
        <ele>46.868997</ele>
        <time>2020-08-14T09:02:42.355Z</time>
      </trkpt>
      <trkpt lat="66.03235" lon="12.71256">
        <ele>46.956937</ele>
        <time>2020-08-14T09:02:44.366Z</time>
      </trkpt>
      <trkpt lat="66.0324" lon="12.71282">
        <ele>47.043678</ele>
        <time>2020-08-14T09:02:46.375Z</time>
      </trkpt>
      <trkpt lat="66.03245" lon="12.71309">
        <ele>47.133757</ele>
        <time>2020-08-14T09:02:48.383Z</time>
      </trkpt>
      <trkpt lat="66.0325" lon="12.71337">
        <ele>47.22817</ele>
        <time>2020-08-14T09:02:50.368Z</time>
      </trkpt>
      <trkpt lat="66.03254" lon="12.71364">
        <ele>47.32888</ele>
        <time>2020-08-14T09:02:52.374Z</time>
      </trkpt>
      <trkpt lat="66.03257" lon="12.71391">
        <ele>47.429276</ele>
        <time>2020-08-14T09:02:54.380Z</time>
      </trkpt>
      <trkpt lat="66.0326" lon="12.71419">
        <ele>47.528229</ele>
        <time>2020-08-14T09:02:56.368Z</time>
      </trkpt>
      <trkpt lat="66.03264" lon="12.71446">
        <ele>47.62767</ele>
        <time>2020-08-14T09:02:58.361Z</time>
      </trkpt>
      <trkpt lat="66.03267" lon="12.71474">
        <ele>47.726833</ele>
        <time>2020-08-14T09:03:00.378Z</time>
      </trkpt>
      <trkpt lat="66.03269" lon="12.71502">
        <ele>47.827692</ele>
        <time>2020-08-14T09:03:02.385Z</time>
      </trkpt>
      <trkpt lat="66.03271" lon="12.71529">
        <ele>47.924113</ele>
        <time>2020-08-14T09:03:04.363Z</time>
      </trkpt>
      <trkpt lat="66.03273" lon="12.71556">
        <ele>48.019399</ele>
        <time>2020-08-14T09:03:06.359Z</time>
      </trkpt>
      <trkpt lat="66.03274" lon="12.71583">
        <ele>48.113988</ele>
        <time>2020-08-14T09:03:08.365Z</time>
      </trkpt>
      <trkpt lat="66.03275" lon="12.71609">
        <ele>48.206325</ele>
        <time>2020-08-14T09:03:10.361Z</time>
      </trkpt>
      <trkpt lat="66.03276" lon="12.71636">
        <ele>48.297712</ele>
        <time>2020-08-14T09:03:12.375Z</time>
      </trkpt>
      <trkpt lat="66.03276" lon="12.7166">
        <ele>48.382724</ele>
        <time>2020-08-14T09:03:14.381Z</time>
      </trkpt>
      <trkpt lat="66.03276" lon="12.71683">
        <ele>48.461504</ele>
        <time>2020-08-14T09:03:16.374Z</time>
      </trkpt>
      <trkpt lat="66.03276" lon="12.71715">
        <ele>48.574019</ele>
        <time>2020-08-14T09:03:19.357Z</time>
      </trkpt>
      <trkpt lat="66.03276" lon="12.71746">
        <ele>48.682099</ele>
        <time>2020-08-14T09:03:22.400Z</time>
      </trkpt>
      <trkpt lat="66.03275" lon="12.71776">
        <ele>49.094026</ele>
        <time>2020-08-14T09:03:25.382Z</time>
      </trkpt>
      <trkpt lat="66.03275" lon="12.71802">
        <ele>49.893376</ele>
        <time>2020-08-14T09:03:28.359Z</time>
      </trkpt>
      <trkpt lat="66.03275" lon="12.71826">
        <ele>50.603964</ele>
        <time>2020-08-14T09:03:31.386Z</time>
      </trkpt>
      <trkpt lat="66.03274" lon="12.71853">
        <ele>51.414559</ele>
        <time>2020-08-14T09:03:35.362Z</time>
      </trkpt>
      <trkpt lat="66.03274" lon="12.71879">
        <ele>52.215996</ele>
        <time>2020-08-14T09:03:39.375Z</time>
      </trkpt>
      <trkpt lat="66.03275" lon="12.71903">
        <ele>52.957381</ele>
        <time>2020-08-14T09:03:43.368Z</time>
      </trkpt>
      <trkpt lat="66.03276" lon="12.71927">
        <ele>53.671375</ele>
        <time>2020-08-14T09:03:47.360Z</time>
      </trkpt>
      <trkpt lat="66.03278" lon="12.71949">
        <ele>54.360198</ele>
        <time>2020-08-14T09:03:51.388Z</time>
      </trkpt>
      <trkpt lat="66.03281" lon="12.71971">
        <ele>55.0623</ele>
        <time>2020-08-14T09:03:55.447Z</time>
      </trkpt>
      <trkpt lat="66.03284" lon="12.71993">
        <ele>55.763405</ele>
        <time>2020-08-14T09:03:59.381Z</time>
      </trkpt>
      <trkpt lat="66.03289" lon="12.72017">
        <ele>56.562511</ele>
        <time>2020-08-14T09:04:04.392Z</time>
      </trkpt>
      <trkpt lat="66.03293" lon="12.72037">
        <ele>57.252066</ele>
        <time>2020-08-14T09:04:08.361Z</time>
      </trkpt>
      <trkpt lat="66.03299" lon="12.7206">
        <ele>58.065333</ele>
        <time>2020-08-14T09:04:13.373Z</time>
      </trkpt>
      <trkpt lat="66.03305" lon="12.72078">
        <ele>58.741801</ele>
        <time>2020-08-14T09:04:17.388Z</time>
      </trkpt>
      <trkpt lat="66.03312" lon="12.72097">
        <ele>59.532414</ele>
        <time>2020-08-14T09:04:22.386Z</time>
      </trkpt>
      <trkpt lat="66.0332" lon="12.72114">
        <ele>60.351272</ele>
        <time>2020-08-14T09:04:27.377Z</time>
      </trkpt>
      <trkpt lat="66.03328" lon="12.72128">
        <ele>61.03036</ele>
        <time>2020-08-14T09:04:31.387Z</time>
      </trkpt>
      <trkpt lat="66.03335" lon="12.72144">
        <ele>61.789838</ele>
        <time>2020-08-14T09:04:36.364Z</time>
      </trkpt>
      <trkpt lat="66.03343" lon="12.72158">
        <ele>62.408926</ele>
        <time>2020-08-14T09:04:41.362Z</time>
      </trkpt>
      <trkpt lat="66.03352" lon="12.7217">
        <ele>62.956084</ele>
        <time>2020-08-14T09:04:46.412Z</time>
      </trkpt>
      <trkpt lat="66.03361" lon="12.72181">
        <ele>63.480654</ele>
        <time>2020-08-14T09:04:51.382Z</time>
      </trkpt>
      <trkpt lat="66.0337" lon="12.72194">
        <ele>64.020033</ele>
        <time>2020-08-14T09:04:56.378Z</time>
      </trkpt>
      <trkpt lat="66.0338" lon="12.722">
        <ele>64.543711</ele>
        <time>2020-08-14T09:05:01.380Z</time>
      </trkpt>
      <trkpt lat="66.03389" lon="12.72205">
        <ele>65.063841</ele>
        <time>2020-08-14T09:05:06.384Z</time>
      </trkpt>
      <trkpt lat="66.03399" lon="12.72209">
        <ele>65.611459</ele>
        <time>2020-08-14T09:05:11.371Z</time>
      </trkpt>
      <trkpt lat="66.0341" lon="12.72211">
        <ele>66.176184</ele>
        <time>2020-08-14T09:05:16.393Z</time>
      </trkpt>
      <trkpt lat="66.03421" lon="12.72214">
        <ele>66.763326</ele>
        <time>2020-08-14T09:05:21.361Z</time>
      </trkpt>
      <trkpt lat="66.03431" lon="12.72213">
        <ele>67.305554</ele>
        <time>2020-08-14T09:05:26.376Z</time>
      </trkpt>
      <trkpt lat="66.03442" lon="12.7221">
        <ele>67.860584</ele>
        <time>2020-08-14T09:05:31.383Z</time>
      </trkpt>
      <trkpt lat="66.03452" lon="12.72206">
        <ele>68.407557</ele>
        <time>2020-08-14T09:05:36.390Z</time>
      </trkpt>
      <trkpt lat="66.03462" lon="12.722">
        <ele>68.963422</ele>
        <time>2020-08-14T09:05:41.383Z</time>
      </trkpt>
      <trkpt lat="66.03471" lon="12.72197">
        <ele>69.442633</ele>
        <time>2020-08-14T09:05:46.371Z</time>
      </trkpt>
      <trkpt lat="66.03481" lon="12.72192">
        <ele>69.969996</ele>
        <time>2020-08-14T09:05:51.365Z</time>
      </trkpt>
      <trkpt lat="66.03491" lon="12.72188">
        <ele>70.516126</ele>
        <time>2020-08-14T09:05:56.366Z</time>
      </trkpt>
      <trkpt lat="66.03501" lon="12.72182">
        <ele>71.05791</ele>
        <time>2020-08-14T09:06:01.372Z</time>
      </trkpt>
      <trkpt lat="66.03511" lon="12.72178">
        <ele>71.596461</ele>
        <time>2020-08-14T09:06:06.373Z</time>
      </trkpt>
      <trkpt lat="66.0352" lon="12.72173">
        <ele>72.064181</ele>
        <time>2020-08-14T09:06:11.389Z</time>
      </trkpt>
      <trkpt lat="66.03529" lon="12.72168">
        <ele>72.496573</ele>
        <time>2020-08-14T09:06:16.394Z</time>
      </trkpt>
      <trkpt lat="66.03539" lon="12.72162">
        <ele>72.953672</ele>
        <time>2020-08-14T09:06:21.375Z</time>
      </trkpt>
      <trkpt lat="66.03548" lon="12.72156">
        <ele>73.404907</ele>
        <time>2020-08-14T09:06:26.376Z</time>
      </trkpt>
      <trkpt lat="66.03559" lon="12.72151">
        <ele>73.893736</ele>
        <time>2020-08-14T09:06:32.369Z</time>
      </trkpt>
      <trkpt lat="66.03567" lon="12.72145">
        <ele>74.313632</ele>
        <time>2020-08-14T09:06:37.371Z</time>
      </trkpt>
      <trkpt lat="66.03577" lon="12.72139">
        <ele>74.762557</ele>
        <time>2020-08-14T09:06:42.394Z</time>
      </trkpt>
      <trkpt lat="66.03586" lon="12.72135">
        <ele>75.205359</ele>
        <time>2020-08-14T09:06:47.367Z</time>
      </trkpt>
      <trkpt lat="66.03596" lon="12.7213">
        <ele>75.677924</ele>
        <time>2020-08-14T09:06:52.370Z</time>
      </trkpt>
      <trkpt lat="66.03606" lon="12.72124">
        <ele>76.166063</ele>
        <time>2020-08-14T09:06:57.372Z</time>
      </trkpt>
      <trkpt lat="66.03616" lon="12.72119">
        <ele>76.610931</ele>
        <time>2020-08-14T09:07:02.380Z</time>
      </trkpt>
      <trkpt lat="66.03624" lon="12.72108">
        <ele>77.031981</ele>
        <time>2020-08-14T09:07:07.385Z</time>
      </trkpt>
      <trkpt lat="66.03633" lon="12.72106">
        <ele>77.452189</ele>
        <time>2020-08-14T09:07:11.373Z</time>
      </trkpt>
      <trkpt lat="66.03643" lon="12.72105">
        <ele>77.93964</ele>
        <time>2020-08-14T09:07:16.379Z</time>
      </trkpt>
      <trkpt lat="66.03652" lon="12.72105">
        <ele>78.371479</ele>
        <time>2020-08-14T09:07:21.368Z</time>
      </trkpt>
      <trkpt lat="66.03662" lon="12.721">
        <ele>78.829315</ele>
        <time>2020-08-14T09:07:27.400Z</time>
      </trkpt>
      <trkpt lat="66.03673" lon="12.72094">
        <ele>79.33234</ele>
        <time>2020-08-14T09:07:33.368Z</time>
      </trkpt>
      <trkpt lat="66.03682" lon="12.72088">
        <ele>79.779087</ele>
        <time>2020-08-14T09:07:38.394Z</time>
      </trkpt>
      <trkpt lat="66.03691" lon="12.72083">
        <ele>80.256245</ele>
        <time>2020-08-14T09:07:43.388Z</time>
      </trkpt>
      <trkpt lat="66.03701" lon="12.72077">
        <ele>80.798493</ele>
        <time>2020-08-14T09:07:48.365Z</time>
      </trkpt>
      <trkpt lat="66.03712" lon="12.72071">
        <ele>81.377906</ele>
        <time>2020-08-14T09:07:53.377Z</time>
      </trkpt>
      <trkpt lat="66.03723" lon="12.72065">
        <ele>81.98127</ele>
        <time>2020-08-14T09:07:58.372Z</time>
      </trkpt>
      <trkpt lat="66.03733" lon="12.72058">
        <ele>82.564821</ele>
        <time>2020-08-14T09:08:03.368Z</time>
      </trkpt>
      <trkpt lat="66.03744" lon="12.72053">
        <ele>83.165832</ele>
        <time>2020-08-14T09:08:08.413Z</time>
      </trkpt>
      <trkpt lat="66.03754" lon="12.72048">
        <ele>83.700855</ele>
        <time>2020-08-14T09:08:12.371Z</time>
      </trkpt>
      <trkpt lat="66.03763" lon="12.72043">
        <ele>84.210339</ele>
        <time>2020-08-14T09:08:16.381Z</time>
      </trkpt>
      <trkpt lat="66.03773" lon="12.72038">
        <ele>84.732976</ele>
        <time>2020-08-14T09:08:20.394Z</time>
      </trkpt>
      <trkpt lat="66.03782" lon="12.72035">
        <ele>85.238475</ele>
        <time>2020-08-14T09:08:24.371Z</time>
      </trkpt>
      <trkpt lat="66.03792" lon="12.7203">
        <ele>85.782175</ele>
        <time>2020-08-14T09:08:28.378Z</time>
      </trkpt>
      <trkpt lat="66.03802" lon="12.72024">
        <ele>86.332286</ele>
        <time>2020-08-14T09:08:32.398Z</time>
      </trkpt>
      <trkpt lat="66.03812" lon="12.72018">
        <ele>86.922674</ele>
        <time>2020-08-14T09:08:36.353Z</time>
      </trkpt>
      <trkpt lat="66.03823" lon="12.72011">
        <ele>87.535997</ele>
        <time>2020-08-14T09:08:40.368Z</time>
      </trkpt>
      <trkpt lat="66.03834" lon="12.72005">
        <ele>88.108583</ele>
        <time>2020-08-14T09:08:44.392Z</time>
      </trkpt>
      <trkpt lat="66.03844" lon="12.71999">
        <ele>88.685663</ele>
        <time>2020-08-14T09:08:48.364Z</time>
      </trkpt>
      <trkpt lat="66.03856" lon="12.71994">
        <ele>89.32648</ele>
        <time>2020-08-14T09:08:52.355Z</time>
      </trkpt>
      <trkpt lat="66.03866" lon="12.71989">
        <ele>89.637936</ele>
        <time>2020-08-14T09:08:55.364Z</time>
      </trkpt>
      <trkpt lat="66.03876" lon="12.71984">
        <ele>89.424313</ele>
        <time>2020-08-14T09:08:58.379Z</time>
      </trkpt>
      <trkpt lat="66.03886" lon="12.7198">
        <ele>89.219753</ele>
        <time>2020-08-14T09:09:01.379Z</time>
      </trkpt>
      <trkpt lat="66.03896" lon="12.71976">
        <ele>89.010078</ele>
        <time>2020-08-14T09:09:04.362Z</time>
      </trkpt>
      <trkpt lat="66.03905" lon="12.71972">
        <ele>88.820118</ele>
        <time>2020-08-14T09:09:07.377Z</time>
      </trkpt>
      <trkpt lat="66.03917" lon="12.71966">
        <ele>88.580743</ele>
        <time>2020-08-14T09:09:11.368Z</time>
      </trkpt>
      <trkpt lat="66.03927" lon="12.7196">
        <ele>88.369709</ele>
        <time>2020-08-14T09:09:15.375Z</time>
      </trkpt>
      <trkpt lat="66.03938" lon="12.71953">
        <ele>88.127844</ele>
        <time>2020-08-14T09:09:19.391Z</time>
      </trkpt>
      <trkpt lat="66.03948" lon="12.71948">
        <ele>87.935142</ele>
        <time>2020-08-14T09:09:22.386Z</time>
      </trkpt>
      <trkpt lat="66.03957" lon="12.71944">
        <ele>87.741789</ele>
        <time>2020-08-14T09:09:25.369Z</time>
      </trkpt>
      <trkpt lat="66.03967" lon="12.71938">
        <ele>87.535093</ele>
        <time>2020-08-14T09:09:28.377Z</time>
      </trkpt>
      <trkpt lat="66.03977" lon="12.71932">
        <ele>87.317925</ele>
        <time>2020-08-14T09:09:31.397Z</time>
      </trkpt>
      <trkpt lat="66.03988" lon="12.71926">
        <ele>87.098589</ele>
        <time>2020-08-14T09:09:34.372Z</time>
      </trkpt>
      <trkpt lat="66.03997" lon="12.71919">
        <ele>86.897777</ele>
        <time>2020-08-14T09:09:37.373Z</time>
      </trkpt>
      <trkpt lat="66.04007" lon="12.71916">
        <ele>86.694599</ele>
        <time>2020-08-14T09:09:40.372Z</time>
      </trkpt>
      <trkpt lat="66.04017" lon="12.71911">
        <ele>86.483133</ele>
        <time>2020-08-14T09:09:43.394Z</time>
      </trkpt>
      <trkpt lat="66.04029" lon="12.71906">
        <ele>86.24418</ele>
        <time>2020-08-14T09:09:46.373Z</time>
      </trkpt>
      <trkpt lat="66.04041" lon="12.719">
        <ele>86.054466</ele>
        <time>2020-08-14T09:09:49.392Z</time>
      </trkpt>
      <trkpt lat="66.04053" lon="12.71894">
        <ele>86.127325</ele>
        <time>2020-08-14T09:09:52.393Z</time>
      </trkpt>
      <trkpt lat="66.04064" lon="12.71887">
        <ele>86.199202</ele>
        <time>2020-08-14T09:09:55.388Z</time>
      </trkpt>
      <trkpt lat="66.04076" lon="12.71881">
        <ele>86.270219</ele>
        <time>2020-08-14T09:09:58.395Z</time>
      </trkpt>
      <trkpt lat="66.04087" lon="12.71874">
        <ele>86.340073</ele>
        <time>2020-08-14T09:10:01.366Z</time>
      </trkpt>
      <trkpt lat="66.04098" lon="12.7187">
        <ele>86.409423</ele>
        <time>2020-08-14T09:10:04.379Z</time>
      </trkpt>
      <trkpt lat="66.0411" lon="12.71865">
        <ele>86.481216</ele>
        <time>2020-08-14T09:10:07.367Z</time>
      </trkpt>
      <trkpt lat="66.04122" lon="12.71856">
        <ele>86.561258</ele>
        <time>2020-08-14T09:10:10.388Z</time>
      </trkpt>
      <trkpt lat="66.04135" lon="12.71849">
        <ele>86.638391</ele>
        <time>2020-08-14T09:10:13.360Z</time>
      </trkpt>
      <trkpt lat="66.04147" lon="12.71843">
        <ele>86.715385</ele>
        <time>2020-08-14T09:10:16.371Z</time>
      </trkpt>
      <trkpt lat="66.0416" lon="12.71838">
        <ele>86.793231</ele>
        <time>2020-08-14T09:10:19.380Z</time>
      </trkpt>
      <trkpt lat="66.04169" lon="12.71833">
        <ele>86.849268</ele>
        <time>2020-08-14T09:10:21.382Z</time>
      </trkpt>
      <trkpt lat="66.04178" lon="12.7183">
        <ele>86.906138</ele>
        <time>2020-08-14T09:10:23.363Z</time>
      </trkpt>
      <trkpt lat="66.04191" lon="12.71824">
        <ele>86.988236</ele>
        <time>2020-08-14T09:10:26.377Z</time>
      </trkpt>
      <trkpt lat="66.04204" lon="12.71822">
        <ele>87.06832</ele>
        <time>2020-08-14T09:10:29.381Z</time>
      </trkpt>
      <trkpt lat="66.04217" lon="12.71821">
        <ele>87.140946</ele>
        <time>2020-08-14T09:10:32.385Z</time>
      </trkpt>
      <trkpt lat="66.0423" lon="12.71822">
        <ele>87.169003</ele>
        <time>2020-08-14T09:10:35.399Z</time>
      </trkpt>
      <trkpt lat="66.04244" lon="12.71826">
        <ele>87.19768</ele>
        <time>2020-08-14T09:10:38.363Z</time>
      </trkpt>
      <trkpt lat="66.04257" lon="12.71831">
        <ele>87.225855</ele>
        <time>2020-08-14T09:10:41.370Z</time>
      </trkpt>
      <trkpt lat="66.04269" lon="12.7184">
        <ele>87.25377</ele>
        <time>2020-08-14T09:10:44.368Z</time>
      </trkpt>
      <trkpt lat="66.04282" lon="12.7185">
        <ele>87.28129</ele>
        <time>2020-08-14T09:10:47.380Z</time>
      </trkpt>
      <trkpt lat="66.04294" lon="12.71862">
        <ele>87.309638</ele>
        <time>2020-08-14T09:10:50.365Z</time>
      </trkpt>
      <trkpt lat="66.04305" lon="12.71875">
        <ele>87.336969</ele>
        <time>2020-08-14T09:10:53.382Z</time>
      </trkpt>
      <trkpt lat="66.04313" lon="12.71885">
        <ele>87.356171</ele>
        <time>2020-08-14T09:10:55.373Z</time>
      </trkpt>
      <trkpt lat="66.04322" lon="12.71897">
        <ele>87.376454</ele>
        <time>2020-08-14T09:10:57.384Z</time>
      </trkpt>
      <trkpt lat="66.0433" lon="12.71909">
        <ele>87.396731</ele>
        <time>2020-08-14T09:10:59.392Z</time>
      </trkpt>
      <trkpt lat="66.04337" lon="12.71922">
        <ele>87.417036</ele>
        <time>2020-08-14T09:11:01.386Z</time>
      </trkpt>
      <trkpt lat="66.04348" lon="12.71943">
        <ele>87.445493</ele>
        <time>2020-08-14T09:11:04.364Z</time>
      </trkpt>
      <trkpt lat="66.04358" lon="12.71965">
        <ele>87.473757</ele>
        <time>2020-08-14T09:11:07.375Z</time>
      </trkpt>
      <trkpt lat="66.04367" lon="12.71989">
        <ele>87.502736</ele>
        <time>2020-08-14T09:11:10.371Z</time>
      </trkpt>
      <trkpt lat="66.04373" lon="12.72006">
        <ele>87.52458</ele>
        <time>2020-08-14T09:11:12.364Z</time>
      </trkpt>
      <trkpt lat="66.0438" lon="12.72032">
        <ele>87.662131</ele>
        <time>2020-08-14T09:11:15.370Z</time>
      </trkpt>
      <trkpt lat="66.04387" lon="12.7206">
        <ele>87.802433</ele>
        <time>2020-08-14T09:11:18.368Z</time>
      </trkpt>
      <trkpt lat="66.04394" lon="12.72087">
        <ele>87.937564</ele>
        <time>2020-08-14T09:11:21.396Z</time>
      </trkpt>
      <trkpt lat="66.044" lon="12.72115">
        <ele>88.073433</ele>
        <time>2020-08-14T09:11:24.372Z</time>
      </trkpt>
      <trkpt lat="66.04405" lon="12.72144">
        <ele>88.212508</ele>
        <time>2020-08-14T09:11:27.392Z</time>
      </trkpt>
      <trkpt lat="66.0441" lon="12.72175">
        <ele>88.354393</ele>
        <time>2020-08-14T09:11:30.389Z</time>
      </trkpt>
      <trkpt lat="66.04415" lon="12.72206">
        <ele>88.493899</ele>
        <time>2020-08-14T09:11:33.370Z</time>
      </trkpt>
      <trkpt lat="66.04418" lon="12.72227">
        <ele>88.589708</ele>
        <time>2020-08-14T09:11:35.372Z</time>
      </trkpt>
      <trkpt lat="66.04421" lon="12.72248">
        <ele>88.685882</ele>
        <time>2020-08-14T09:11:37.363Z</time>
      </trkpt>
      <trkpt lat="66.04424" lon="12.72269">
        <ele>88.781655</ele>
        <time>2020-08-14T09:11:39.379Z</time>
      </trkpt>
      <trkpt lat="66.04429" lon="12.72299">
        <ele>88.923492</ele>
        <time>2020-08-14T09:11:42.373Z</time>
      </trkpt>
      <trkpt lat="66.04433" lon="12.72321">
        <ele>89.021643</ele>
        <time>2020-08-14T09:11:44.384Z</time>
      </trkpt>
      <trkpt lat="66.04436" lon="12.72342">
        <ele>89.121399</ele>
        <time>2020-08-14T09:11:46.399Z</time>
      </trkpt>
      <trkpt lat="66.0444" lon="12.72363">
        <ele>89.219946</ele>
        <time>2020-08-14T09:11:48.377Z</time>
      </trkpt>
      <trkpt lat="66.04444" lon="12.72385">
        <ele>89.321679</ele>
        <time>2020-08-14T09:11:50.396Z</time>
      </trkpt>
      <trkpt lat="66.04447" lon="12.72408">
        <ele>89.421142</ele>
        <time>2020-08-14T09:11:52.410Z</time>
      </trkpt>
      <trkpt lat="66.0445" lon="12.7243">
        <ele>89.428075</ele>
        <time>2020-08-14T09:11:54.355Z</time>
      </trkpt>
      <trkpt lat="66.04452" lon="12.72453">
        <ele>89.435095</ele>
        <time>2020-08-14T09:11:56.403Z</time>
      </trkpt>
      <trkpt lat="66.04456" lon="12.72473">
        <ele>89.441643</ele>
        <time>2020-08-14T09:11:58.383Z</time>
      </trkpt>
      <trkpt lat="66.04461" lon="12.72504">
        <ele>89.451755</ele>
        <time>2020-08-14T09:12:01.425Z</time>
      </trkpt>
      <trkpt lat="66.04465" lon="12.72527">
        <ele>89.458904</ele>
        <time>2020-08-14T09:12:03.392Z</time>
      </trkpt>
      <trkpt lat="66.04469" lon="12.72549">
        <ele>89.465888</ele>
        <time>2020-08-14T09:12:05.384Z</time>
      </trkpt>
      <trkpt lat="66.04472" lon="12.72571">
        <ele>89.472928</ele>
        <time>2020-08-14T09:12:07.386Z</time>
      </trkpt>
      <trkpt lat="66.04477" lon="12.72592">
        <ele>89.479861</ele>
        <time>2020-08-14T09:12:09.388Z</time>
      </trkpt>
      <trkpt lat="66.0448" lon="12.72612">
        <ele>89.486574</ele>
        <time>2020-08-14T09:12:11.381Z</time>
      </trkpt>
      <trkpt lat="66.04484" lon="12.72634">
        <ele>89.493399</ele>
        <time>2020-08-14T09:12:13.373Z</time>
      </trkpt>
      <trkpt lat="66.04487" lon="12.72656">
        <ele>89.500387</ele>
        <time>2020-08-14T09:12:15.386Z</time>
      </trkpt>
      <trkpt lat="66.0449" lon="12.72679">
        <ele>89.507435</ele>
        <time>2020-08-14T09:12:17.396Z</time>
      </trkpt>
      <trkpt lat="66.04493" lon="12.72701">
        <ele>89.514375</ele>
        <time>2020-08-14T09:12:19.393Z</time>
      </trkpt>
      <trkpt lat="66.04497" lon="12.72723">
        <ele>89.521387</ele>
        <time>2020-08-14T09:12:21.358Z</time>
      </trkpt>
      <trkpt lat="66.045" lon="12.72746">
        <ele>89.528648</ele>
        <time>2020-08-14T09:12:23.379Z</time>
      </trkpt>
      <trkpt lat="66.04504" lon="12.72769">
        <ele>89.535852</ele>
        <time>2020-08-14T09:12:25.371Z</time>
      </trkpt>
      <trkpt lat="66.04507" lon="12.72793">
        <ele>89.54331</ele>
        <time>2020-08-14T09:12:27.392Z</time>
      </trkpt>
      <trkpt lat="66.04511" lon="12.72816">
        <ele>89.550768</ele>
        <time>2020-08-14T09:12:29.368Z</time>
      </trkpt>
      <trkpt lat="66.04515" lon="12.72842">
        <ele>89.478139</ele>
        <time>2020-08-14T09:12:31.370Z</time>
      </trkpt>
      <trkpt lat="66.04519" lon="12.72869">
        <ele>89.387418</ele>
        <time>2020-08-14T09:12:33.410Z</time>
      </trkpt>
      <trkpt lat="66.04523" lon="12.72895">
        <ele>89.297629</ele>
        <time>2020-08-14T09:12:35.373Z</time>
      </trkpt>
      <trkpt lat="66.04528" lon="12.72922">
        <ele>89.206028</ele>
        <time>2020-08-14T09:12:37.381Z</time>
      </trkpt>
      <trkpt lat="66.04533" lon="12.72949">
        <ele>89.112395</ele>
        <time>2020-08-14T09:12:39.372Z</time>
      </trkpt>
      <trkpt lat="66.04539" lon="12.72977">
        <ele>89.01473</ele>
        <time>2020-08-14T09:12:41.384Z</time>
      </trkpt>
      <trkpt lat="66.04545" lon="12.73005">
        <ele>88.915539</ele>
        <time>2020-08-14T09:12:43.393Z</time>
      </trkpt>
      <trkpt lat="66.04551" lon="12.73033">
        <ele>88.816406</ele>
        <time>2020-08-14T09:12:45.371Z</time>
      </trkpt>
      <trkpt lat="66.04558" lon="12.73061">
        <ele>88.715166</ele>
        <time>2020-08-14T09:12:47.395Z</time>
      </trkpt>
      <trkpt lat="66.04566" lon="12.73088">
        <ele>88.610093</ele>
        <time>2020-08-14T09:12:49.406Z</time>
      </trkpt>
      <trkpt lat="66.04574" lon="12.73114">
        <ele>88.505386</ele>
        <time>2020-08-14T09:12:51.381Z</time>
      </trkpt>
      <trkpt lat="66.04583" lon="12.73141">
        <ele>88.397054</ele>
        <time>2020-08-14T09:12:53.383Z</time>
      </trkpt>
      <trkpt lat="66.04591" lon="12.73167">
        <ele>88.291626</ele>
        <time>2020-08-14T09:12:55.409Z</time>
      </trkpt>
      <trkpt lat="66.04601" lon="12.73192">
        <ele>88.183865</ele>
        <time>2020-08-14T09:12:57.390Z</time>
      </trkpt>
      <trkpt lat="66.04613" lon="12.73215">
        <ele>87.747911</ele>
        <time>2020-08-14T09:12:59.365Z</time>
      </trkpt>
      <trkpt lat="66.04625" lon="12.73236">
        <ele>87.220701</ele>
        <time>2020-08-14T09:13:01.380Z</time>
      </trkpt>
      <trkpt lat="66.04638" lon="12.73257">
        <ele>86.686257</ele>
        <time>2020-08-14T09:13:03.369Z</time>
      </trkpt>
      <trkpt lat="66.04651" lon="12.73277">
        <ele>86.150495</ele>
        <time>2020-08-14T09:13:05.378Z</time>
      </trkpt>
      <trkpt lat="66.04664" lon="12.73295">
        <ele>85.628404</ele>
        <time>2020-08-14T09:13:07.372Z</time>
      </trkpt>
      <trkpt lat="66.04678" lon="12.73311">
        <ele>85.105256</ele>
        <time>2020-08-14T09:13:09.384Z</time>
      </trkpt>
      <trkpt lat="66.04691" lon="12.73326">
        <ele>84.613036</ele>
        <time>2020-08-14T09:13:11.363Z</time>
      </trkpt>
      <trkpt lat="66.04704" lon="12.7334">
        <ele>84.121083</ele>
        <time>2020-08-14T09:13:13.368Z</time>
      </trkpt>
      <trkpt lat="66.04717" lon="12.73352">
        <ele>83.628915</ele>
        <time>2020-08-14T09:13:15.363Z</time>
      </trkpt>
      <trkpt lat="66.0473" lon="12.73362">
        <ele>83.147419</ele>
        <time>2020-08-14T09:13:17.376Z</time>
      </trkpt>
      <trkpt lat="66.04743" lon="12.7337">
        <ele>82.67217</ele>
        <time>2020-08-14T09:13:19.385Z</time>
      </trkpt>
      <trkpt lat="66.04757" lon="12.73377">
        <ele>82.19977</ele>
        <time>2020-08-14T09:13:21.374Z</time>
      </trkpt>
      <trkpt lat="66.0477" lon="12.73383">
        <ele>81.712012</ele>
        <time>2020-08-14T09:13:23.389Z</time>
      </trkpt>
      <trkpt lat="66.04784" lon="12.73388">
        <ele>81.20346</ele>
        <time>2020-08-14T09:13:25.384Z</time>
      </trkpt>
      <trkpt lat="66.04797" lon="12.73393">
        <ele>80.707903</ele>
        <time>2020-08-14T09:13:27.392Z</time>
      </trkpt>
      <trkpt lat="66.0481" lon="12.73397">
        <ele>80.2152</ele>
        <time>2020-08-14T09:13:29.395Z</time>
      </trkpt>
      <trkpt lat="66.04823" lon="12.73402">
        <ele>79.714237</ele>
        <time>2020-08-14T09:13:31.386Z</time>
      </trkpt>
      <trkpt lat="66.04836" lon="12.73409">
        <ele>79.217182</ele>
        <time>2020-08-14T09:13:33.384Z</time>
      </trkpt>
      <trkpt lat="66.04849" lon="12.73416">
        <ele>78.735437</ele>
        <time>2020-08-14T09:13:35.364Z</time>
      </trkpt>
      <trkpt lat="66.04861" lon="12.73425">
        <ele>78.259569</ele>
        <time>2020-08-14T09:13:37.367Z</time>
      </trkpt>
      <trkpt lat="66.04874" lon="12.73436">
        <ele>77.74142</ele>
        <time>2020-08-14T09:13:39.382Z</time>
      </trkpt>
      <trkpt lat="66.04888" lon="12.73448">
        <ele>77.220181</ele>
        <time>2020-08-14T09:13:41.368Z</time>
      </trkpt>
      <trkpt lat="66.049" lon="12.73461">
        <ele>76.708324</ele>
        <time>2020-08-14T09:13:43.383Z</time>
      </trkpt>
      <trkpt lat="66.04913" lon="12.73476">
        <ele>76.198847</ele>
        <time>2020-08-14T09:13:45.394Z</time>
      </trkpt>
      <trkpt lat="66.04925" lon="12.73492">
        <ele>75.673161</ele>
        <time>2020-08-14T09:13:47.367Z</time>
      </trkpt>
      <trkpt lat="66.04938" lon="12.7351">
        <ele>75.110702</ele>
        <time>2020-08-14T09:13:49.372Z</time>
      </trkpt>
      <trkpt lat="66.0495" lon="12.7353">
        <ele>74.407704</ele>
        <time>2020-08-14T09:13:51.376Z</time>
      </trkpt>
      <trkpt lat="66.04962" lon="12.73551">
        <ele>73.703068</ele>
        <time>2020-08-14T09:13:53.361Z</time>
      </trkpt>
      <trkpt lat="66.04974" lon="12.73575">
        <ele>72.980525</ele>
        <time>2020-08-14T09:13:55.393Z</time>
      </trkpt>
      <trkpt lat="66.04986" lon="12.73602">
        <ele>72.214828</ele>
        <time>2020-08-14T09:13:57.386Z</time>
      </trkpt>
      <trkpt lat="66.04998" lon="12.73631">
        <ele>71.425088</ele>
        <time>2020-08-14T09:13:59.411Z</time>
      </trkpt>
      <trkpt lat="66.05011" lon="12.73663">
        <ele>70.595275</ele>
        <time>2020-08-14T09:14:01.380Z</time>
      </trkpt>
      <trkpt lat="66.05016" lon="12.7368">
        <ele>70.170902</ele>
        <time>2020-08-14T09:14:02.394Z</time>
      </trkpt>
      <trkpt lat="66.05022" lon="12.73698">
        <ele>69.736346</ele>
        <time>2020-08-14T09:14:03.376Z</time>
      </trkpt>
      <trkpt lat="66.05028" lon="12.73717">
        <ele>69.286787</ele>
        <time>2020-08-14T09:14:04.386Z</time>
      </trkpt>
      <trkpt lat="66.05034" lon="12.73737">
        <ele>68.817284</ele>
        <time>2020-08-14T09:14:05.388Z</time>
      </trkpt>
      <trkpt lat="66.05039" lon="12.73758">
        <ele>68.341487</ele>
        <time>2020-08-14T09:14:06.372Z</time>
      </trkpt>
      <trkpt lat="66.05045" lon="12.7378">
        <ele>67.850397</ele>
        <time>2020-08-14T09:14:07.375Z</time>
      </trkpt>
      <trkpt lat="66.0505" lon="12.73803">
        <ele>67.355356</ele>
        <time>2020-08-14T09:14:08.367Z</time>
      </trkpt>
      <trkpt lat="66.05055" lon="12.73826">
        <ele>66.849144</ele>
        <time>2020-08-14T09:14:09.358Z</time>
      </trkpt>
      <trkpt lat="66.0506" lon="12.73849">
        <ele>66.409849</ele>
        <time>2020-08-14T09:14:10.378Z</time>
      </trkpt>
      <trkpt lat="66.05065" lon="12.73872">
        <ele>65.961275</ele>
        <time>2020-08-14T09:14:11.376Z</time>
      </trkpt>
      <trkpt lat="66.05071" lon="12.73897">
        <ele>65.497511</ele>
        <time>2020-08-14T09:14:12.395Z</time>
      </trkpt>
      <trkpt lat="66.05076" lon="12.73921">
        <ele>65.024901</ele>
        <time>2020-08-14T09:14:13.365Z</time>
      </trkpt>
      <trkpt lat="66.05082" lon="12.73947">
        <ele>64.54058</ele>
        <time>2020-08-14T09:14:14.361Z</time>
      </trkpt>
      <trkpt lat="66.05087" lon="12.73973">
        <ele>64.048425</ele>
        <time>2020-08-14T09:14:15.398Z</time>
      </trkpt>
      <trkpt lat="66.05093" lon="12.73999">
        <ele>63.554295</ele>
        <time>2020-08-14T09:14:16.377Z</time>
      </trkpt>
      <trkpt lat="66.05099" lon="12.74025">
        <ele>63.056258</ele>
        <time>2020-08-14T09:14:17.373Z</time>
      </trkpt>
      <trkpt lat="66.05105" lon="12.74051">
        <ele>62.561165</ele>
        <time>2020-08-14T09:14:18.393Z</time>
      </trkpt>
      <trkpt lat="66.0511" lon="12.74077">
        <ele>62.064111</ele>
        <time>2020-08-14T09:14:19.368Z</time>
      </trkpt>
      <trkpt lat="66.05116" lon="12.74104">
        <ele>61.564124</ele>
        <time>2020-08-14T09:14:20.379Z</time>
      </trkpt>
      <trkpt lat="66.05122" lon="12.7413">
        <ele>61.068536</ele>
        <time>2020-08-14T09:14:21.389Z</time>
      </trkpt>
      <trkpt lat="66.05128" lon="12.74155">
        <ele>60.576387</ele>
        <time>2020-08-14T09:14:22.402Z</time>
      </trkpt>
      <trkpt lat="66.05133" lon="12.74181">
        <ele>60.092542</ele>
        <time>2020-08-14T09:14:23.365Z</time>
      </trkpt>
      <trkpt lat="66.05139" lon="12.74207">
        <ele>59.613981</ele>
        <time>2020-08-14T09:14:24.368Z</time>
      </trkpt>
      <trkpt lat="66.05144" lon="12.74232">
        <ele>59.379036</ele>
        <time>2020-08-14T09:14:25.372Z</time>
      </trkpt>
      <trkpt lat="66.05149" lon="12.74258">
        <ele>59.363289</ele>
        <time>2020-08-14T09:14:26.383Z</time>
      </trkpt>
      <trkpt lat="66.05154" lon="12.74283">
        <ele>59.347565</ele>
        <time>2020-08-14T09:14:27.423Z</time>
      </trkpt>
      <trkpt lat="66.05159" lon="12.74308">
        <ele>59.332075</ele>
        <time>2020-08-14T09:14:28.363Z</time>
      </trkpt>
      <trkpt lat="66.05165" lon="12.74333">
        <ele>59.316561</ele>
        <time>2020-08-14T09:14:29.363Z</time>
      </trkpt>
      <trkpt lat="66.0517" lon="12.74358">
        <ele>59.301031</ele>
        <time>2020-08-14T09:14:30.383Z</time>
      </trkpt>
      <trkpt lat="66.05175" lon="12.74382">
        <ele>59.286017</ele>
        <time>2020-08-14T09:14:31.388Z</time>
      </trkpt>
      <trkpt lat="66.0518" lon="12.74406">
        <ele>59.271325</ele>
        <time>2020-08-14T09:14:32.410Z</time>
      </trkpt>
      <trkpt lat="66.05185" lon="12.74429">
        <ele>59.25705</ele>
        <time>2020-08-14T09:14:33.368Z</time>
      </trkpt>
      <trkpt lat="66.0519" lon="12.74451">
        <ele>59.243165</ele>
        <time>2020-08-14T09:14:34.370Z</time>
      </trkpt>
      <trkpt lat="66.05195" lon="12.74473">
        <ele>59.229619</ele>
        <time>2020-08-14T09:14:35.361Z</time>
      </trkpt>
      <trkpt lat="66.05199" lon="12.74494">
        <ele>59.216428</ele>
        <time>2020-08-14T09:14:36.380Z</time>
      </trkpt>
      <trkpt lat="66.05204" lon="12.74515">
        <ele>59.203365</ele>
        <time>2020-08-14T09:14:37.371Z</time>
      </trkpt>
      <trkpt lat="66.05208" lon="12.74535">
        <ele>59.190782</ele>
        <time>2020-08-14T09:14:38.365Z</time>
      </trkpt>
      <trkpt lat="66.05212" lon="12.74555">
        <ele>59.178627</ele>
        <time>2020-08-14T09:14:39.370Z</time>
      </trkpt>
      <trkpt lat="66.05219" lon="12.74594">
        <ele>59.155215</ele>
        <time>2020-08-14T09:14:41.362Z</time>
      </trkpt>
      <trkpt lat="66.05226" lon="12.7463">
        <ele>59.177311</ele>
        <time>2020-08-14T09:14:43.430Z</time>
      </trkpt>
      <trkpt lat="66.05231" lon="12.74665">
        <ele>59.244894</ele>
        <time>2020-08-14T09:14:45.370Z</time>
      </trkpt>
      <trkpt lat="66.05236" lon="12.74697">
        <ele>59.30568</ele>
        <time>2020-08-14T09:14:47.376Z</time>
      </trkpt>
      <trkpt lat="66.05239" lon="12.74727">
        <ele>59.363834</ele>
        <time>2020-08-14T09:14:49.361Z</time>
      </trkpt>
      <trkpt lat="66.05242" lon="12.74756">
        <ele>59.418025</ele>
        <time>2020-08-14T09:14:51.379Z</time>
      </trkpt>
      <trkpt lat="66.05245" lon="12.74781">
        <ele>59.464109</ele>
        <time>2020-08-14T09:14:53.372Z</time>
      </trkpt>
      <trkpt lat="66.05248" lon="12.74805">
        <ele>59.509369</ele>
        <time>2020-08-14T09:14:55.389Z</time>
      </trkpt>
      <trkpt lat="66.05251" lon="12.74828">
        <ele>59.552762</ele>
        <time>2020-08-14T09:14:57.372Z</time>
      </trkpt>
      <trkpt lat="66.05254" lon="12.74851">
        <ele>59.596081</ele>
        <time>2020-08-14T09:14:59.395Z</time>
      </trkpt>
      <trkpt lat="66.05257" lon="12.74872">
        <ele>59.638116</ele>
        <time>2020-08-14T09:15:01.374Z</time>
      </trkpt>
      <trkpt lat="66.05261" lon="12.74904">
        <ele>59.698101</ele>
        <time>2020-08-14T09:15:04.381Z</time>
      </trkpt>
      <trkpt lat="66.05264" lon="12.74925">
        <ele>59.738631</ele>
        <time>2020-08-14T09:15:06.373Z</time>
      </trkpt>
      <trkpt lat="66.05266" lon="12.74947">
        <ele>59.779613</ele>
        <time>2020-08-14T09:15:08.381Z</time>
      </trkpt>
      <trkpt lat="66.05269" lon="12.74968">
        <ele>59.820143</ele>
        <time>2020-08-14T09:15:10.434Z</time>
      </trkpt>
      <trkpt lat="66.05271" lon="12.7499">
        <ele>59.860672</ele>
        <time>2020-08-14T09:15:12.371Z</time>
      </trkpt>
      <trkpt lat="66.05275" lon="12.7502">
        <ele>59.918826</ele>
        <time>2020-08-14T09:15:15.390Z</time>
      </trkpt>
      <trkpt lat="66.05278" lon="12.75049">
        <ele>60.046484</ele>
        <time>2020-08-14T09:15:18.391Z</time>
      </trkpt>
      <trkpt lat="66.05282" lon="12.75076">
        <ele>60.253481</ele>
        <time>2020-08-14T09:15:21.400Z</time>
      </trkpt>
      <trkpt lat="66.05287" lon="12.75105">
        <ele>60.472836</ele>
        <time>2020-08-14T09:15:24.389Z</time>
      </trkpt>
      <trkpt lat="66.05293" lon="12.75132">
        <ele>60.68791</ele>
        <time>2020-08-14T09:15:27.377Z</time>
      </trkpt>
      <trkpt lat="66.05298" lon="12.75161">
        <ele>60.912554</ele>
        <time>2020-08-14T09:15:30.358Z</time>
      </trkpt>
      <trkpt lat="66.05304" lon="12.7519">
        <ele>61.142585</ele>
        <time>2020-08-14T09:15:33.365Z</time>
      </trkpt>
      <trkpt lat="66.0531" lon="12.7522">
        <ele>61.377207</ele>
        <time>2020-08-14T09:15:36.369Z</time>
      </trkpt>
      <trkpt lat="66.05315" lon="12.7525">
        <ele>61.610461</ele>
        <time>2020-08-14T09:15:39.392Z</time>
      </trkpt>
      <trkpt lat="66.05319" lon="12.7527">
        <ele>61.766408</ele>
        <time>2020-08-14T09:15:41.375Z</time>
      </trkpt>
      <trkpt lat="66.05323" lon="12.7529">
        <ele>61.92391</ele>
        <time>2020-08-14T09:15:43.373Z</time>
      </trkpt>
      <trkpt lat="66.05328" lon="12.7531">
        <ele>62.087185</ele>
        <time>2020-08-14T09:15:45.375Z</time>
      </trkpt>
      <trkpt lat="66.05332" lon="12.7533">
        <ele>62.24568</ele>
        <time>2020-08-14T09:15:47.382Z</time>
      </trkpt>
      <trkpt lat="66.05338" lon="12.75358">
        <ele>62.475632</ele>
        <time>2020-08-14T09:15:50.362Z</time>
      </trkpt>
      <trkpt lat="66.05345" lon="12.75387">
        <ele>62.710846</ele>
        <time>2020-08-14T09:15:53.377Z</time>
      </trkpt>
      <trkpt lat="66.0535" lon="12.75416">
        <ele>62.939586</ele>
        <time>2020-08-14T09:15:56.364Z</time>
      </trkpt>
      <trkpt lat="66.05356" lon="12.75445">
        <ele>62.999168</ele>
        <time>2020-08-14T09:15:59.366Z</time>
      </trkpt>
      <trkpt lat="66.0536" lon="12.75464">
        <ele>62.820705</ele>
        <time>2020-08-14T09:16:01.399Z</time>
      </trkpt>
      <trkpt lat="66.05367" lon="12.75493">
        <ele>62.552994</ele>
        <time>2020-08-14T09:16:04.395Z</time>
      </trkpt>
      <trkpt lat="66.05373" lon="12.75522">
        <ele>62.293099</ele>
        <time>2020-08-14T09:16:07.394Z</time>
      </trkpt>
      <trkpt lat="66.05379" lon="12.7555">
        <ele>62.037108</ele>
        <time>2020-08-14T09:16:10.412Z</time>
      </trkpt>
      <trkpt lat="66.05383" lon="12.7557">
        <ele>61.852517</ele>
        <time>2020-08-14T09:16:12.368Z</time>
      </trkpt>
      <trkpt lat="66.05388" lon="12.75592">
        <ele>61.653432</ele>
        <time>2020-08-14T09:16:14.389Z</time>
      </trkpt>
      <trkpt lat="66.05393" lon="12.75615">
        <ele>61.445701</ele>
        <time>2020-08-14T09:16:16.369Z</time>
      </trkpt>
      <trkpt lat="66.05398" lon="12.75639">
        <ele>61.228065</ele>
        <time>2020-08-14T09:16:18.407Z</time>
      </trkpt>
      <trkpt lat="66.05404" lon="12.75663">
        <ele>61.004464</ele>
        <time>2020-08-14T09:16:20.376Z</time>
      </trkpt>
      <trkpt lat="66.05409" lon="12.75689">
        <ele>60.771722</ele>
        <time>2020-08-14T09:16:22.391Z</time>
      </trkpt>
      <trkpt lat="66.05415" lon="12.75715">
        <ele>60.524576</ele>
        <time>2020-08-14T09:16:24.391Z</time>
      </trkpt>
      <trkpt lat="66.05421" lon="12.75742">
        <ele>60.276725</ele>
        <time>2020-08-14T09:16:26.395Z</time>
      </trkpt>
      <trkpt lat="66.05428" lon="12.75771">
        <ele>60.011823</ele>
        <time>2020-08-14T09:16:28.377Z</time>
      </trkpt>
      <trkpt lat="66.05435" lon="12.75801">
        <ele>59.734451</ele>
        <time>2020-08-14T09:16:30.413Z</time>
      </trkpt>
      <trkpt lat="66.05441" lon="12.75831">
        <ele>59.448938</ele>
        <time>2020-08-14T09:16:32.392Z</time>
      </trkpt>
      <trkpt lat="66.05447" lon="12.75861">
        <ele>59.096669</ele>
        <time>2020-08-14T09:16:34.375Z</time>
      </trkpt>
      <trkpt lat="66.05453" lon="12.75891">
        <ele>58.7444</ele>
        <time>2020-08-14T09:16:36.401Z</time>
      </trkpt>
      <trkpt lat="66.0546" lon="12.75922">
        <ele>58.386331</ele>
        <time>2020-08-14T09:16:38.399Z</time>
      </trkpt>
      <trkpt lat="66.05466" lon="12.75952">
        <ele>58.031972</ele>
        <time>2020-08-14T09:16:40.381Z</time>
      </trkpt>
      <trkpt lat="66.05472" lon="12.75982">
        <ele>57.67576</ele>
        <time>2020-08-14T09:16:42.394Z</time>
      </trkpt>
      <trkpt lat="66.05479" lon="12.76013">
        <ele>57.314426</ele>
        <time>2020-08-14T09:16:44.376Z</time>
      </trkpt>
      <trkpt lat="66.05486" lon="12.76045">
        <ele>56.940568</ele>
        <time>2020-08-14T09:16:46.395Z</time>
      </trkpt>
      <trkpt lat="66.05492" lon="12.76079">
        <ele>56.549773</ele>
        <time>2020-08-14T09:16:48.393Z</time>
      </trkpt>
      <trkpt lat="66.05499" lon="12.76114">
        <ele>56.148868</ele>
        <time>2020-08-14T09:16:50.381Z</time>
      </trkpt>
      <trkpt lat="66.05504" lon="12.76148">
        <ele>55.762883</ele>
        <time>2020-08-14T09:16:52.372Z</time>
      </trkpt>
      <trkpt lat="66.0551" lon="12.76183">
        <ele>55.377954</ele>
        <time>2020-08-14T09:16:54.365Z</time>
      </trkpt>
      <trkpt lat="66.05515" lon="12.7622">
        <ele>54.967088</ele>
        <time>2020-08-14T09:16:56.390Z</time>
      </trkpt>
      <trkpt lat="66.05521" lon="12.76256">
        <ele>54.81192</ele>
        <time>2020-08-14T09:16:58.371Z</time>
      </trkpt>
      <trkpt lat="66.05526" lon="12.76291">
        <ele>54.702303</ele>
        <time>2020-08-14T09:17:00.403Z</time>
      </trkpt>
      <trkpt lat="66.05532" lon="12.76328">
        <ele>54.588371</ele>
        <time>2020-08-14T09:17:02.371Z</time>
      </trkpt>
      <trkpt lat="66.05538" lon="12.76365">
        <ele>54.474505</ele>
        <time>2020-08-14T09:17:04.391Z</time>
      </trkpt>
      <trkpt lat="66.05543" lon="12.76401">
        <ele>54.363437</ele>
        <time>2020-08-14T09:17:06.386Z</time>
      </trkpt>
      <trkpt lat="66.05548" lon="12.76436">
        <ele>54.254612</ele>
        <time>2020-08-14T09:17:08.381Z</time>
      </trkpt>
      <trkpt lat="66.05553" lon="12.76472">
        <ele>54.146272</ele>
        <time>2020-08-14T09:17:10.405Z</time>
      </trkpt>
      <trkpt lat="66.05559" lon="12.76506">
        <ele>54.038569</ele>
        <time>2020-08-14T09:17:12.380Z</time>
      </trkpt>
      <trkpt lat="66.05565" lon="12.76541">
        <ele>53.927017</ele>
        <time>2020-08-14T09:17:14.383Z</time>
      </trkpt>
      <trkpt lat="66.05572" lon="12.76576">
        <ele>53.818127</ele>
        <time>2020-08-14T09:17:16.383Z</time>
      </trkpt>
      <trkpt lat="66.05577" lon="12.7661">
        <ele>53.711448</ele>
        <time>2020-08-14T09:17:18.364Z</time>
      </trkpt>
      <trkpt lat="66.05582" lon="12.76645">
        <ele>53.616794</ele>
        <time>2020-08-14T09:17:20.390Z</time>
      </trkpt>
      <trkpt lat="66.05587" lon="12.76678">
        <ele>53.573633</ele>
        <time>2020-08-14T09:17:22.370Z</time>
      </trkpt>
      <trkpt lat="66.05592" lon="12.76711">
        <ele>53.531383</ele>
        <time>2020-08-14T09:17:24.361Z</time>
      </trkpt>
      <trkpt lat="66.05597" lon="12.76741">
        <ele>53.49185</ele>
        <time>2020-08-14T09:17:26.404Z</time>
      </trkpt>
      <trkpt lat="66.05602" lon="12.76771">
        <ele>53.452947</ele>
        <time>2020-08-14T09:17:28.392Z</time>
      </trkpt>
      <trkpt lat="66.05608" lon="12.76798">
        <ele>53.416331</ele>
        <time>2020-08-14T09:17:30.368Z</time>
      </trkpt>
      <trkpt lat="66.05614" lon="12.76825">
        <ele>53.379796</ele>
        <time>2020-08-14T09:17:32.378Z</time>
      </trkpt>
      <trkpt lat="66.05619" lon="12.7685">
        <ele>53.344851</ele>
        <time>2020-08-14T09:17:34.404Z</time>
      </trkpt>
      <trkpt lat="66.05624" lon="12.76875">
        <ele>53.311953</ele>
        <time>2020-08-14T09:17:36.384Z</time>
      </trkpt>
      <trkpt lat="66.05628" lon="12.76898">
        <ele>53.280401</ele>
        <time>2020-08-14T09:17:38.381Z</time>
      </trkpt>
      <trkpt lat="66.05633" lon="12.76919">
        <ele>53.251315</ele>
        <time>2020-08-14T09:17:40.378Z</time>
      </trkpt>
      <trkpt lat="66.0564" lon="12.76948">
        <ele>53.211367</ele>
        <time>2020-08-14T09:17:43.386Z</time>
      </trkpt>
      <trkpt lat="66.05646" lon="12.76975">
        <ele>53.173836</ele>
        <time>2020-08-14T09:17:46.369Z</time>
      </trkpt>
      <trkpt lat="66.05651" lon="12.77004">
        <ele>53.135059</ele>
        <time>2020-08-14T09:17:49.378Z</time>
      </trkpt>
      <trkpt lat="66.05655" lon="12.77025">
        <ele>53.107917</ele>
        <time>2020-08-14T09:17:51.380Z</time>
      </trkpt>
      <trkpt lat="66.05659" lon="12.77045">
        <ele>53.103036</ele>
        <time>2020-08-14T09:17:53.393Z</time>
      </trkpt>
      <trkpt lat="66.05664" lon="12.77067">
        <ele>53.1437</ele>
        <time>2020-08-14T09:17:55.375Z</time>
      </trkpt>
      <trkpt lat="66.05667" lon="12.77089">
        <ele>53.185897</ele>
        <time>2020-08-14T09:17:57.395Z</time>
      </trkpt>
      <trkpt lat="66.05671" lon="12.77112">
        <ele>53.227173</ele>
        <time>2020-08-14T09:17:59.391Z</time>
      </trkpt>
      <trkpt lat="66.05675" lon="12.77134">
        <ele>53.268791</ele>
        <time>2020-08-14T09:18:01.381Z</time>
      </trkpt>
      <trkpt lat="66.05679" lon="12.77156">
        <ele>53.311545</ele>
        <time>2020-08-14T09:18:03.377Z</time>
      </trkpt>
      <trkpt lat="66.05683" lon="12.77179">
        <ele>53.353899</ele>
        <time>2020-08-14T09:18:05.432Z</time>
      </trkpt>
      <trkpt lat="66.05688" lon="12.77202">
        <ele>53.398324</ele>
        <time>2020-08-14T09:18:07.380Z</time>
      </trkpt>
      <trkpt lat="66.05693" lon="12.77226">
        <ele>53.443398</ele>
        <time>2020-08-14T09:18:09.380Z</time>
      </trkpt>
      <trkpt lat="66.05698" lon="12.7725">
        <ele>53.488706</ele>
        <time>2020-08-14T09:18:11.385Z</time>
      </trkpt>
      <trkpt lat="66.05703" lon="12.77273">
        <ele>53.535588</ele>
        <time>2020-08-14T09:18:13.380Z</time>
      </trkpt>
      <trkpt lat="66.05708" lon="12.77296">
        <ele>53.579822</ele>
        <time>2020-08-14T09:18:15.365Z</time>
      </trkpt>
      <trkpt lat="66.05713" lon="12.7732">
        <ele>53.625658</ele>
        <time>2020-08-14T09:18:17.400Z</time>
      </trkpt>
      <trkpt lat="66.05717" lon="12.77343">
        <ele>53.668103</ele>
        <time>2020-08-14T09:18:19.393Z</time>
      </trkpt>
      <trkpt lat="66.05721" lon="12.77365">
        <ele>53.709212</ele>
        <time>2020-08-14T09:18:21.397Z</time>
      </trkpt>
      <trkpt lat="66.05725" lon="12.77386">
        <ele>53.750703</ele>
        <time>2020-08-14T09:18:23.392Z</time>
      </trkpt>
      <trkpt lat="66.0573" lon="12.77409">
        <ele>53.792941</ele>
        <time>2020-08-14T09:18:25.361Z</time>
      </trkpt>
      <trkpt lat="66.05734" lon="12.77432">
        <ele>53.836158</ele>
        <time>2020-08-14T09:18:27.377Z</time>
      </trkpt>
      <trkpt lat="66.05739" lon="12.77453">
        <ele>53.757649</ele>
        <time>2020-08-14T09:18:29.400Z</time>
      </trkpt>
      <trkpt lat="66.05743" lon="12.77474">
        <ele>53.633799</ele>
        <time>2020-08-14T09:18:31.373Z</time>
      </trkpt>
      <trkpt lat="66.05747" lon="12.77496">
        <ele>53.506251</ele>
        <time>2020-08-14T09:18:33.390Z</time>
      </trkpt>
      <trkpt lat="66.05751" lon="12.77519">
        <ele>53.37396</ele>
        <time>2020-08-14T09:18:35.383Z</time>
      </trkpt>
      <trkpt lat="66.05756" lon="12.77544">
        <ele>53.228443</ele>
        <time>2020-08-14T09:18:37.372Z</time>
      </trkpt>
      <trkpt lat="66.0576" lon="12.7757">
        <ele>53.077587</ele>
        <time>2020-08-14T09:18:39.373Z</time>
      </trkpt>
      <trkpt lat="66.05765" lon="12.77597">
        <ele>52.924763</ele>
        <time>2020-08-14T09:18:41.362Z</time>
      </trkpt>
      <trkpt lat="66.05769" lon="12.77624">
        <ele>52.771462</ele>
        <time>2020-08-14T09:18:43.397Z</time>
      </trkpt>
      <trkpt lat="66.05773" lon="12.77652">
        <ele>52.613911</ele>
        <time>2020-08-14T09:18:45.383Z</time>
      </trkpt>
      <trkpt lat="66.05777" lon="12.77682">
        <ele>52.449823</ele>
        <time>2020-08-14T09:18:47.404Z</time>
      </trkpt>
      <trkpt lat="66.05781" lon="12.77713">
        <ele>52.274477</ele>
        <time>2020-08-14T09:18:49.370Z</time>
      </trkpt>
      <trkpt lat="66.05785" lon="12.77745">
        <ele>52.095401</ele>
        <time>2020-08-14T09:18:51.396Z</time>
      </trkpt>
      <trkpt lat="66.05789" lon="12.77778">
        <ele>51.917032</ele>
        <time>2020-08-14T09:18:53.381Z</time>
      </trkpt>
      <trkpt lat="66.05793" lon="12.7781">
        <ele>51.737767</ele>
        <time>2020-08-14T09:18:55.380Z</time>
      </trkpt>
      <trkpt lat="66.05798" lon="12.77842">
        <ele>51.554522</ele>
        <time>2020-08-14T09:18:57.370Z</time>
      </trkpt>
      <trkpt lat="66.05803" lon="12.77875">
        <ele>51.412258</ele>
        <time>2020-08-14T09:18:59.390Z</time>
      </trkpt>
      <trkpt lat="66.05809" lon="12.77907">
        <ele>51.286038</ele>
        <time>2020-08-14T09:19:01.371Z</time>
      </trkpt>
      <trkpt lat="66.05816" lon="12.77938">
        <ele>51.156026</ele>
        <time>2020-08-14T09:19:03.372Z</time>
      </trkpt>
      <trkpt lat="66.05823" lon="12.77969">
        <ele>51.025207</ele>
        <time>2020-08-14T09:19:05.393Z</time>
      </trkpt>
      <trkpt lat="66.0583" lon="12.78001">
        <ele>50.892945</ele>
        <time>2020-08-14T09:19:07.380Z</time>
      </trkpt>
      <trkpt lat="66.05838" lon="12.78032">
        <ele>50.761841</ele>
        <time>2020-08-14T09:19:09.373Z</time>
      </trkpt>
      <trkpt lat="66.05845" lon="12.78062">
        <ele>50.632869</ele>
        <time>2020-08-14T09:19:11.383Z</time>
      </trkpt>
      <trkpt lat="66.05852" lon="12.78093">
        <ele>50.506053</ele>
        <time>2020-08-14T09:19:13.372Z</time>
      </trkpt>
      <trkpt lat="66.05858" lon="12.78122">
        <ele>50.382782</ele>
        <time>2020-08-14T09:19:15.368Z</time>
      </trkpt>
      <trkpt lat="66.05865" lon="12.78151">
        <ele>50.260788</ele>
        <time>2020-08-14T09:19:17.383Z</time>
      </trkpt>
      <trkpt lat="66.05871" lon="12.7818">
        <ele>50.141473</ele>
        <time>2020-08-14T09:19:19.380Z</time>
      </trkpt>
      <trkpt lat="66.05877" lon="12.78208">
        <ele>50.028477</ele>
        <time>2020-08-14T09:19:21.390Z</time>
      </trkpt>
      <trkpt lat="66.05883" lon="12.78233">
        <ele>49.921145</ele>
        <time>2020-08-14T09:19:23.375Z</time>
      </trkpt>
      <trkpt lat="66.05888" lon="12.78258">
        <ele>49.953226</ele>
        <time>2020-08-14T09:19:25.371Z</time>
      </trkpt>
      <trkpt lat="66.05893" lon="12.78283">
        <ele>50.046399</ele>
        <time>2020-08-14T09:19:27.409Z</time>
      </trkpt>
      <trkpt lat="66.05898" lon="12.78307">
        <ele>50.138444</ele>
        <time>2020-08-14T09:19:29.381Z</time>
      </trkpt>
      <trkpt lat="66.05903" lon="12.7833">
        <ele>50.228301</ele>
        <time>2020-08-14T09:19:31.369Z</time>
      </trkpt>
      <trkpt lat="66.05908" lon="12.78353">
        <ele>50.314984</ele>
        <time>2020-08-14T09:19:33.384Z</time>
      </trkpt>
      <trkpt lat="66.05913" lon="12.78377">
        <ele>50.40401</ele>
        <time>2020-08-14T09:19:35.361Z</time>
      </trkpt>
      <trkpt lat="66.05917" lon="12.78401">
        <ele>50.492577</ele>
        <time>2020-08-14T09:19:37.364Z</time>
      </trkpt>
      <trkpt lat="66.05922" lon="12.78425">
        <ele>50.582645</ele>
        <time>2020-08-14T09:19:39.379Z</time>
      </trkpt>
      <trkpt lat="66.05925" lon="12.7845">
        <ele>50.673163</ele>
        <time>2020-08-14T09:19:41.366Z</time>
      </trkpt>
      <trkpt lat="66.05928" lon="12.78475">
        <ele>50.759618</ele>
        <time>2020-08-14T09:19:43.440Z</time>
      </trkpt>
      <trkpt lat="66.05931" lon="12.78498">
        <ele>50.842398</ele>
        <time>2020-08-14T09:19:45.383Z</time>
      </trkpt>
      <trkpt lat="66.05934" lon="12.78521">
        <ele>50.922829</ele>
        <time>2020-08-14T09:19:47.373Z</time>
      </trkpt>
      <trkpt lat="66.05936" lon="12.78543">
        <ele>51.00194</ele>
        <time>2020-08-14T09:19:49.385Z</time>
      </trkpt>
      <trkpt lat="66.05941" lon="12.78574">
        <ele>51.11171</ele>
        <time>2020-08-14T09:19:52.367Z</time>
      </trkpt>
      <trkpt lat="66.05944" lon="12.78605">
        <ele>51.220676</ele>
        <time>2020-08-14T09:19:55.372Z</time>
      </trkpt>
      <trkpt lat="66.05947" lon="12.78636">
        <ele>51.329982</ele>
        <time>2020-08-14T09:19:58.370Z</time>
      </trkpt>
      <trkpt lat="66.0595" lon="12.78668">
        <ele>51.588931</ele>
        <time>2020-08-14T09:20:01.378Z</time>
      </trkpt>
      <trkpt lat="66.05953" lon="12.78689">
        <ele>51.887473</ele>
        <time>2020-08-14T09:20:03.379Z</time>
      </trkpt>
      <trkpt lat="66.05955" lon="12.7872">
        <ele>52.312511</ele>
        <time>2020-08-14T09:20:06.381Z</time>
      </trkpt>
      <trkpt lat="66.05958" lon="12.78752">
        <ele>52.738361</ele>
        <time>2020-08-14T09:20:09.392Z</time>
      </trkpt>
      <trkpt lat="66.05961" lon="12.78783">
        <ele>53.171034</ele>
        <time>2020-08-14T09:20:12.376Z</time>
      </trkpt>
      <trkpt lat="66.05964" lon="12.78814">
        <ele>53.596325</ele>
        <time>2020-08-14T09:20:15.374Z</time>
      </trkpt>
      <trkpt lat="66.05967" lon="12.78845">
        <ele>54.023813</ele>
        <time>2020-08-14T09:20:18.394Z</time>
      </trkpt>
      <trkpt lat="66.05971" lon="12.78874">
        <ele>54.434223</ele>
        <time>2020-08-14T09:20:21.389Z</time>
      </trkpt>
      <trkpt lat="66.05974" lon="12.78905">
        <ele>54.852201</ele>
        <time>2020-08-14T09:20:24.363Z</time>
      </trkpt>
      <trkpt lat="66.05977" lon="12.78937">
        <ele>55.291876</ele>
        <time>2020-08-14T09:20:27.373Z</time>
      </trkpt>
      <trkpt lat="66.0598" lon="12.78967">
        <ele>55.705767</ele>
        <time>2020-08-14T09:20:30.378Z</time>
      </trkpt>
      <trkpt lat="66.05982" lon="12.78997">
        <ele>56.119042</ele>
        <time>2020-08-14T09:20:33.377Z</time>
      </trkpt>
      <trkpt lat="66.05985" lon="12.79027">
        <ele>56.52181</ele>
        <time>2020-08-14T09:20:36.376Z</time>
      </trkpt>
      <trkpt lat="66.05988" lon="12.79057">
        <ele>56.937649</ele>
        <time>2020-08-14T09:20:39.371Z</time>
      </trkpt>
      <trkpt lat="66.0599" lon="12.79088">
        <ele>57.30186</ele>
        <time>2020-08-14T09:20:42.372Z</time>
      </trkpt>
      <trkpt lat="66.05993" lon="12.79118">
        <ele>57.203968</ele>
        <time>2020-08-14T09:20:45.387Z</time>
      </trkpt>
      <trkpt lat="66.05996" lon="12.79149">
        <ele>57.10331</ele>
        <time>2020-08-14T09:20:48.390Z</time>
      </trkpt>
      <trkpt lat="66.05998" lon="12.7918">
        <ele>57.002005</ele>
        <time>2020-08-14T09:20:51.380Z</time>
      </trkpt>
      <trkpt lat="66.06001" lon="12.79212">
        <ele>56.900677</ele>
        <time>2020-08-14T09:20:54.383Z</time>
      </trkpt>
      <trkpt lat="66.06003" lon="12.79243">
        <ele>56.799975</ele>
        <time>2020-08-14T09:20:57.362Z</time>
      </trkpt>
      <trkpt lat="66.06005" lon="12.79274">
        <ele>56.699585</ele>
        <time>2020-08-14T09:21:00.368Z</time>
      </trkpt>
      <trkpt lat="66.06008" lon="12.79295">
        <ele>56.628976</ele>
        <time>2020-08-14T09:21:02.370Z</time>
      </trkpt>
      <trkpt lat="66.0601" lon="12.79327">
        <ele>56.527191</ele>
        <time>2020-08-14T09:21:05.406Z</time>
      </trkpt>
      <trkpt lat="66.06014" lon="12.79358">
        <ele>56.423266</ele>
        <time>2020-08-14T09:21:08.379Z</time>
      </trkpt>
      <trkpt lat="66.06017" lon="12.79389">
        <ele>56.322411</ele>
        <time>2020-08-14T09:21:11.368Z</time>
      </trkpt>
      <trkpt lat="66.06021" lon="12.79418">
        <ele>56.226153</ele>
        <time>2020-08-14T09:21:14.364Z</time>
      </trkpt>
      <trkpt lat="66.06024" lon="12.79445">
        <ele>56.138572</ele>
        <time>2020-08-14T09:21:17.397Z</time>
      </trkpt>
      <trkpt lat="66.06027" lon="12.79469">
        <ele>56.055443</ele>
        <time>2020-08-14T09:21:20.366Z</time>
      </trkpt>
      <trkpt lat="66.0603" lon="12.79493">
        <ele>55.976669</ele>
        <time>2020-08-14T09:21:23.367Z</time>
      </trkpt>
      <trkpt lat="66.06033" lon="12.79515">
        <ele>55.906812</ele>
        <time>2020-08-14T09:21:26.365Z</time>
      </trkpt>
      <trkpt lat="66.06036" lon="12.79538">
        <ele>56.15583</ele>
        <time>2020-08-14T09:21:29.370Z</time>
      </trkpt>
      <trkpt lat="66.06039" lon="12.7956">
        <ele>56.389829</ele>
        <time>2020-08-14T09:21:32.420Z</time>
      </trkpt>
      <trkpt lat="66.06042" lon="12.79588">
        <ele>56.696975</ele>
        <time>2020-08-14T09:21:36.397Z</time>
      </trkpt>
      <trkpt lat="66.06046" lon="12.79611">
        <ele>56.947738</ele>
        <time>2020-08-14T09:21:39.401Z</time>
      </trkpt>
      <trkpt lat="66.0605" lon="12.79633">
        <ele>57.188144</ele>
        <time>2020-08-14T09:21:42.366Z</time>
      </trkpt>
      <trkpt lat="66.06053" lon="12.79654">
        <ele>57.420067</ele>
        <time>2020-08-14T09:21:45.384Z</time>
      </trkpt>
      <trkpt lat="66.06058" lon="12.79673">
        <ele>57.648264</ele>
        <time>2020-08-14T09:21:48.384Z</time>
      </trkpt>
      <trkpt lat="66.06062" lon="12.79694">
        <ele>57.876562</ele>
        <time>2020-08-14T09:21:51.379Z</time>
      </trkpt>
      <trkpt lat="66.06067" lon="12.7972">
        <ele>58.170381</ele>
        <time>2020-08-14T09:21:55.403Z</time>
      </trkpt>
      <trkpt lat="66.06072" lon="12.79745">
        <ele>58.458674</ele>
        <time>2020-08-14T09:21:59.379Z</time>
      </trkpt>
      <trkpt lat="66.06076" lon="12.79765">
        <ele>58.688206</ele>
        <time>2020-08-14T09:22:02.363Z</time>
      </trkpt>
      <trkpt lat="66.0608" lon="12.79786">
        <ele>58.923866</ele>
        <time>2020-08-14T09:22:05.368Z</time>
      </trkpt>
      <trkpt lat="66.06083" lon="12.79808">
        <ele>59.167054</ele>
        <time>2020-08-14T09:22:08.376Z</time>
      </trkpt>
      <trkpt lat="66.06088" lon="12.79834">
        <ele>59.463511</ele>
        <time>2020-08-14T09:22:12.382Z</time>
      </trkpt>
      <trkpt lat="66.06092" lon="12.79861">
        <ele>59.75824</ele>
        <time>2020-08-14T09:22:16.381Z</time>
      </trkpt>
      <trkpt lat="66.06097" lon="12.79888">
        <ele>60.050769</ele>
        <time>2020-08-14T09:22:20.361Z</time>
      </trkpt>
      <trkpt lat="66.06102" lon="12.79914">
        <ele>60.345671</ele>
        <time>2020-08-14T09:22:24.393Z</time>
      </trkpt>
      <trkpt lat="66.06108" lon="12.79939">
        <ele>60.579922</ele>
        <time>2020-08-14T09:22:28.372Z</time>
      </trkpt>
      <trkpt lat="66.06112" lon="12.79958">
        <ele>60.743784</ele>
        <time>2020-08-14T09:22:31.393Z</time>
      </trkpt>
      <trkpt lat="66.06116" lon="12.79981">
        <ele>60.923819</ele>
        <time>2020-08-14T09:22:34.381Z</time>
      </trkpt>
      <trkpt lat="66.06121" lon="12.80003">
        <ele>61.102219</ele>
        <time>2020-08-14T09:22:37.395Z</time>
      </trkpt>
      <trkpt lat="66.06125" lon="12.80025">
        <ele>61.278069</ele>
        <time>2020-08-14T09:22:40.379Z</time>
      </trkpt>
      <trkpt lat="66.0613" lon="12.80047">
        <ele>61.462657</ele>
        <time>2020-08-14T09:22:43.375Z</time>
      </trkpt>
      <trkpt lat="66.06134" lon="12.80071">
        <ele>61.655832</ele>
        <time>2020-08-14T09:22:46.379Z</time>
      </trkpt>
      <trkpt lat="66.06139" lon="12.80094">
        <ele>61.843335</ele>
        <time>2020-08-14T09:22:49.391Z</time>
      </trkpt>
      <trkpt lat="66.06144" lon="12.80117">
        <ele>62.029531</ele>
        <time>2020-08-14T09:22:52.405Z</time>
      </trkpt>
      <trkpt lat="66.06148" lon="12.80139">
        <ele>62.208529</ele>
        <time>2020-08-14T09:22:55.414Z</time>
      </trkpt>
      <trkpt lat="66.06151" lon="12.80159">
        <ele>62.370025</ele>
        <time>2020-08-14T09:22:58.365Z</time>
      </trkpt>
      <trkpt lat="66.06155" lon="12.8018">
        <ele>62.532849</ele>
        <time>2020-08-14T09:23:01.386Z</time>
      </trkpt>
      <trkpt lat="66.06159" lon="12.80206">
        <ele>62.740815</ele>
        <time>2020-08-14T09:23:05.369Z</time>
      </trkpt>
      <trkpt lat="66.06164" lon="12.8023">
        <ele>62.932653</ele>
        <time>2020-08-14T09:23:09.373Z</time>
      </trkpt>
      <trkpt lat="66.06169" lon="12.80256">
        <ele>63.136825</ele>
        <time>2020-08-14T09:23:13.372Z</time>
      </trkpt>
      <trkpt lat="66.06172" lon="12.80277">
        <ele>63.304275</ele>
        <time>2020-08-14T09:23:16.374Z</time>
      </trkpt>
      <trkpt lat="66.06175" lon="12.80299">
        <ele>63.47587</ele>
        <time>2020-08-14T09:23:19.379Z</time>
      </trkpt>
      <trkpt lat="66.06179" lon="12.80321">
        <ele>63.651615</ele>
        <time>2020-08-14T09:23:22.394Z</time>
      </trkpt>
      <trkpt lat="66.06183" lon="12.80342">
        <ele>63.84227</ele>
        <time>2020-08-14T09:23:25.368Z</time>
      </trkpt>
      <trkpt lat="66.06186" lon="12.80364">
        <ele>64.044062</ele>
        <time>2020-08-14T09:23:28.393Z</time>
      </trkpt>
      <trkpt lat="66.0619" lon="12.80387">
        <ele>64.245783</ele>
        <time>2020-08-14T09:23:31.361Z</time>
      </trkpt>
      <trkpt lat="66.06193" lon="12.80409">
        <ele>64.45216</ele>
        <time>2020-08-14T09:23:34.377Z</time>
      </trkpt>
      <trkpt lat="66.06197" lon="12.80432">
        <ele>64.661032</ele>
        <time>2020-08-14T09:23:37.412Z</time>
      </trkpt>
      <trkpt lat="66.062" lon="12.80456">
        <ele>64.876187</ele>
        <time>2020-08-14T09:23:40.375Z</time>
      </trkpt>
      <trkpt lat="66.06204" lon="12.80481">
        <ele>65.096244</ele>
        <time>2020-08-14T09:23:43.409Z</time>
      </trkpt>
      <trkpt lat="66.06207" lon="12.80507">
        <ele>65.323275</ele>
        <time>2020-08-14T09:23:46.372Z</time>
      </trkpt>
      <trkpt lat="66.0621" lon="12.80532">
        <ele>65.548683</ele>
        <time>2020-08-14T09:23:49.455Z</time>
      </trkpt>
      <trkpt lat="66.06213" lon="12.80559">
        <ele>65.785479</ele>
        <time>2020-08-14T09:23:52.378Z</time>
      </trkpt>
      <trkpt lat="66.06215" lon="12.80586">
        <ele>66.019982</ele>
        <time>2020-08-14T09:23:55.393Z</time>
      </trkpt>
      <trkpt lat="66.06218" lon="12.80613">
        <ele>66.252487</ele>
        <time>2020-08-14T09:23:58.368Z</time>
      </trkpt>
      <trkpt lat="66.06221" lon="12.8064">
        <ele>66.49411</ele>
        <time>2020-08-14T09:24:01.431Z</time>
      </trkpt>
      <trkpt lat="66.06225" lon="12.80667">
        <ele>66.735422</ele>
        <time>2020-08-14T09:24:04.413Z</time>
      </trkpt>
      <trkpt lat="66.06229" lon="12.80694">
        <ele>66.976074</ele>
        <time>2020-08-14T09:24:07.377Z</time>
      </trkpt>
      <trkpt lat="66.06232" lon="12.80721">
        <ele>67.214179</ele>
        <time>2020-08-14T09:24:10.370Z</time>
      </trkpt>
      <trkpt lat="66.06235" lon="12.80748">
        <ele>67.405381</ele>
        <time>2020-08-14T09:24:13.377Z</time>
      </trkpt>
      <trkpt lat="66.06238" lon="12.80773">
        <ele>67.335993</ele>
        <time>2020-08-14T09:24:16.399Z</time>
      </trkpt>
      <trkpt lat="66.06242" lon="12.80796">
        <ele>67.269072</ele>
        <time>2020-08-14T09:24:19.370Z</time>
      </trkpt>
      <trkpt lat="66.06245" lon="12.80821">
        <ele>67.201882</ele>
        <time>2020-08-14T09:24:22.412Z</time>
      </trkpt>
      <trkpt lat="66.06248" lon="12.80846">
        <ele>67.132604</ele>
        <time>2020-08-14T09:24:25.382Z</time>
      </trkpt>
      <trkpt lat="66.06251" lon="12.80872">
        <ele>67.062315</ele>
        <time>2020-08-14T09:24:28.402Z</time>
      </trkpt>
      <trkpt lat="66.06254" lon="12.80898">
        <ele>66.991906</ele>
        <time>2020-08-14T09:24:31.410Z</time>
      </trkpt>
      <trkpt lat="66.06256" lon="12.80924">
        <ele>66.92073</ele>
        <time>2020-08-14T09:24:34.391Z</time>
      </trkpt>
      <trkpt lat="66.06259" lon="12.80952">
        <ele>66.847361</ele>
        <time>2020-08-14T09:24:37.378Z</time>
      </trkpt>
      <trkpt lat="66.06261" lon="12.80979">
        <ele>66.772412</ele>
        <time>2020-08-14T09:24:40.402Z</time>
      </trkpt>
      <trkpt lat="66.06265" lon="12.81007">
        <ele>66.696796</ele>
        <time>2020-08-14T09:24:43.413Z</time>
      </trkpt>
      <trkpt lat="66.06268" lon="12.81035">
        <ele>66.621101</ele>
        <time>2020-08-14T09:24:46.398Z</time>
      </trkpt>
      <trkpt lat="66.06272" lon="12.81064">
        <ele>66.53984</ele>
        <time>2020-08-14T09:24:49.403Z</time>
      </trkpt>
      <trkpt lat="66.06275" lon="12.81095">
        <ele>66.45626</ele>
        <time>2020-08-14T09:24:52.386Z</time>
      </trkpt>
      <trkpt lat="66.06279" lon="12.81126">
        <ele>66.370087</ele>
        <time>2020-08-14T09:24:55.376Z</time>
      </trkpt>
      <trkpt lat="66.06282" lon="12.81149">
        <ele>66.308047</ele>
        <time>2020-08-14T09:24:57.412Z</time>
      </trkpt>
      <trkpt lat="66.06285" lon="12.81173">
        <ele>66.236573</ele>
        <time>2020-08-14T09:24:59.395Z</time>
      </trkpt>
      <trkpt lat="66.06288" lon="12.81199">
        <ele>66.134057</ele>
        <time>2020-08-14T09:25:01.386Z</time>
      </trkpt>
      <trkpt lat="66.06291" lon="12.81226">
        <ele>66.026354</ele>
        <time>2020-08-14T09:25:03.373Z</time>
      </trkpt>
      <trkpt lat="66.06295" lon="12.81254">
        <ele>65.914566</ele>
        <time>2020-08-14T09:25:05.373Z</time>
      </trkpt>
      <trkpt lat="66.06299" lon="12.81283">
        <ele>65.799317</ele>
        <time>2020-08-14T09:25:07.357Z</time>
      </trkpt>
      <trkpt lat="66.06302" lon="12.81314">
        <ele>65.679141</ele>
        <time>2020-08-14T09:25:09.395Z</time>
      </trkpt>
      <trkpt lat="66.06306" lon="12.81344">
        <ele>65.55834</ele>
        <time>2020-08-14T09:25:11.396Z</time>
      </trkpt>
      <trkpt lat="66.06309" lon="12.81375">
        <ele>65.435087</ele>
        <time>2020-08-14T09:25:13.377Z</time>
      </trkpt>
      <trkpt lat="66.06313" lon="12.81405">
        <ele>65.31716</ele>
        <time>2020-08-14T09:25:15.396Z</time>
      </trkpt>
      <trkpt lat="66.06317" lon="12.81434">
        <ele>65.199954</ele>
        <time>2020-08-14T09:25:17.371Z</time>
      </trkpt>
      <trkpt lat="66.06321" lon="12.81462">
        <ele>65.087671</ele>
        <time>2020-08-14T09:25:19.405Z</time>
      </trkpt>
      <trkpt lat="66.06325" lon="12.81489">
        <ele>64.976251</ele>
        <time>2020-08-14T09:25:21.412Z</time>
      </trkpt>
      <trkpt lat="66.06329" lon="12.81516">
        <ele>64.867702</ele>
        <time>2020-08-14T09:25:23.364Z</time>
      </trkpt>
      <trkpt lat="66.06334" lon="12.81542">
        <ele>64.759861</ele>
        <time>2020-08-14T09:25:25.412Z</time>
      </trkpt>
      <trkpt lat="66.06338" lon="12.81568">
        <ele>64.652727</ele>
        <time>2020-08-14T09:25:27.377Z</time>
      </trkpt>
      <trkpt lat="66.06343" lon="12.81595">
        <ele>64.504971</ele>
        <time>2020-08-14T09:25:29.388Z</time>
      </trkpt>
      <trkpt lat="66.06348" lon="12.81622">
        <ele>64.199241</ele>
        <time>2020-08-14T09:25:31.398Z</time>
      </trkpt>
      <trkpt lat="66.06353" lon="12.8165">
        <ele>63.882164</ele>
        <time>2020-08-14T09:25:33.385Z</time>
      </trkpt>
      <trkpt lat="66.06359" lon="12.81679">
        <ele>63.553491</ele>
        <time>2020-08-14T09:25:35.371Z</time>
      </trkpt>
      <trkpt lat="66.06364" lon="12.81709">
        <ele>63.216444</ele>
        <time>2020-08-14T09:25:37.384Z</time>
      </trkpt>
      <trkpt lat="66.0637" lon="12.8174">
        <ele>62.858315</ele>
        <time>2020-08-14T09:25:39.373Z</time>
      </trkpt>
      <trkpt lat="66.06376" lon="12.81774">
        <ele>62.486355</ele>
        <time>2020-08-14T09:25:41.376Z</time>
      </trkpt>
      <trkpt lat="66.06382" lon="12.81808">
        <ele>62.107804</ele>
        <time>2020-08-14T09:25:43.370Z</time>
      </trkpt>
      <trkpt lat="66.06388" lon="12.81842">
        <ele>61.72542</ele>
        <time>2020-08-14T09:25:45.401Z</time>
      </trkpt>
      <trkpt lat="66.06395" lon="12.81877">
        <ele>61.325182</ele>
        <time>2020-08-14T09:25:47.370Z</time>
      </trkpt>
      <trkpt lat="66.06402" lon="12.81913">
        <ele>60.916768</ele>
        <time>2020-08-14T09:25:49.405Z</time>
      </trkpt>
      <trkpt lat="66.06409" lon="12.81951">
        <ele>60.494371</ele>
        <time>2020-08-14T09:25:51.379Z</time>
      </trkpt>
      <trkpt lat="66.06416" lon="12.8199">
        <ele>60.052784</ele>
        <time>2020-08-14T09:25:53.368Z</time>
      </trkpt>
      <trkpt lat="66.0642" lon="12.82011">
        <ele>59.880817</ele>
        <time>2020-08-14T09:25:54.388Z</time>
      </trkpt>
      <trkpt lat="66.06424" lon="12.82032">
        <ele>59.710233</ele>
        <time>2020-08-14T09:25:55.372Z</time>
      </trkpt>
      <trkpt lat="66.06428" lon="12.82054">
        <ele>59.53708</ele>
        <time>2020-08-14T09:25:56.395Z</time>
      </trkpt>
      <trkpt lat="66.06432" lon="12.82077">
        <ele>59.358568</ele>
        <time>2020-08-14T09:25:57.385Z</time>
      </trkpt>
      <trkpt lat="66.06435" lon="12.821">
        <ele>59.180785</ele>
        <time>2020-08-14T09:25:58.407Z</time>
      </trkpt>
      <trkpt lat="66.06439" lon="12.82122">
        <ele>59.002333</ele>
        <time>2020-08-14T09:25:59.385Z</time>
      </trkpt>
      <trkpt lat="66.06443" lon="12.82145">
        <ele>58.823822</ele>
        <time>2020-08-14T09:26:00.377Z</time>
      </trkpt>
      <trkpt lat="66.06447" lon="12.82168">
        <ele>58.641878</ele>
        <time>2020-08-14T09:26:01.377Z</time>
      </trkpt>
      <trkpt lat="66.06452" lon="12.82191">
        <ele>58.459274</ele>
        <time>2020-08-14T09:26:02.372Z</time>
      </trkpt>
      <trkpt lat="66.06456" lon="12.82214">
        <ele>58.276363</ele>
        <time>2020-08-14T09:26:03.369Z</time>
      </trkpt>
      <trkpt lat="66.0646" lon="12.82236">
        <ele>58.09499</ele>
        <time>2020-08-14T09:26:04.413Z</time>
      </trkpt>
      <trkpt lat="66.06465" lon="12.82259">
        <ele>57.911428</ele>
        <time>2020-08-14T09:26:05.366Z</time>
      </trkpt>
      <trkpt lat="66.06469" lon="12.82281">
        <ele>57.731115</ele>
        <time>2020-08-14T09:26:06.387Z</time>
      </trkpt>
      <trkpt lat="66.06474" lon="12.82303">
        <ele>57.552389</ele>
        <time>2020-08-14T09:26:07.420Z</time>
      </trkpt>
      <trkpt lat="66.06479" lon="12.82324">
        <ele>57.378884</ele>
        <time>2020-08-14T09:26:08.422Z</time>
      </trkpt>
      <trkpt lat="66.06484" lon="12.82344">
        <ele>57.211276</ele>
        <time>2020-08-14T09:26:09.365Z</time>
      </trkpt>
      <trkpt lat="66.06489" lon="12.82362">
        <ele>57.050112</ele>
        <time>2020-08-14T09:26:10.381Z</time>
      </trkpt>
      <trkpt lat="66.06497" lon="12.82398">
        <ele>56.726234</ele>
        <time>2020-08-14T09:26:12.399Z</time>
      </trkpt>
      <trkpt lat="66.06503" lon="12.8243">
        <ele>56.339018</ele>
        <time>2020-08-14T09:26:14.386Z</time>
      </trkpt>
      <trkpt lat="66.06509" lon="12.82458">
        <ele>55.994575</ele>
        <time>2020-08-14T09:26:16.380Z</time>
      </trkpt>
      <trkpt lat="66.06515" lon="12.82482">
        <ele>55.693086</ele>
        <time>2020-08-14T09:26:18.380Z</time>
      </trkpt>
      <trkpt lat="66.06519" lon="12.82506">
        <ele>55.402058</ele>
        <time>2020-08-14T09:26:20.399Z</time>
      </trkpt>
      <trkpt lat="66.06524" lon="12.82531">
        <ele>55.109512</ele>
        <time>2020-08-14T09:26:22.375Z</time>
      </trkpt>
      <trkpt lat="66.06527" lon="12.82558">
        <ele>54.805349</ele>
        <time>2020-08-14T09:26:24.364Z</time>
      </trkpt>
      <trkpt lat="66.06531" lon="12.82586">
        <ele>54.488034</ele>
        <time>2020-08-14T09:26:26.358Z</time>
      </trkpt>
      <trkpt lat="66.06533" lon="12.82617">
        <ele>54.14679</ele>
        <time>2020-08-14T09:26:28.381Z</time>
      </trkpt>
      <trkpt lat="66.06536" lon="12.82651">
        <ele>53.77043</ele>
        <time>2020-08-14T09:26:30.371Z</time>
      </trkpt>
      <trkpt lat="66.06539" lon="12.82686">
        <ele>53.376569</ele>
        <time>2020-08-14T09:26:32.368Z</time>
      </trkpt>
      <trkpt lat="66.06542" lon="12.82725">
        <ele>52.945493</ele>
        <time>2020-08-14T09:26:34.381Z</time>
      </trkpt>
      <trkpt lat="66.06545" lon="12.82768">
        <ele>52.479324</ele>
        <time>2020-08-14T09:26:36.387Z</time>
      </trkpt>
      <trkpt lat="66.06546" lon="12.8279">
        <ele>52.229197</ele>
        <time>2020-08-14T09:26:37.393Z</time>
      </trkpt>
      <trkpt lat="66.06548" lon="12.82814">
        <ele>51.967653</ele>
        <time>2020-08-14T09:26:38.379Z</time>
      </trkpt>
      <trkpt lat="66.06549" lon="12.82838">
        <ele>51.666485</ele>
        <time>2020-08-14T09:26:39.392Z</time>
      </trkpt>
      <trkpt lat="66.0655" lon="12.82863">
        <ele>51.355061</ele>
        <time>2020-08-14T09:26:40.361Z</time>
      </trkpt>
      <trkpt lat="66.06552" lon="12.82889">
        <ele>51.035093</ele>
        <time>2020-08-14T09:26:41.395Z</time>
      </trkpt>
      <trkpt lat="66.06554" lon="12.82914">
        <ele>50.711178</ele>
        <time>2020-08-14T09:26:42.389Z</time>
      </trkpt>
      <trkpt lat="66.06556" lon="12.82941">
        <ele>50.383417</ele>
        <time>2020-08-14T09:26:43.369Z</time>
      </trkpt>
      <trkpt lat="66.06557" lon="12.82967">
        <ele>50.05711</ele>
        <time>2020-08-14T09:26:44.365Z</time>
      </trkpt>
      <trkpt lat="66.06558" lon="12.82993">
        <ele>49.732033</ele>
        <time>2020-08-14T09:26:45.397Z</time>
      </trkpt>
      <trkpt lat="66.06559" lon="12.83019">
        <ele>49.406711</ele>
        <time>2020-08-14T09:26:46.391Z</time>
      </trkpt>
      <trkpt lat="66.06561" lon="12.83044">
        <ele>49.087707</ele>
        <time>2020-08-14T09:26:47.383Z</time>
      </trkpt>
      <trkpt lat="66.06563" lon="12.83069">
        <ele>48.777012</ele>
        <time>2020-08-14T09:26:48.384Z</time>
      </trkpt>
      <trkpt lat="66.06565" lon="12.83093">
        <ele>48.475823</ele>
        <time>2020-08-14T09:26:49.377Z</time>
      </trkpt>
      <trkpt lat="66.06566" lon="12.83117">
        <ele>48.183638</ele>
        <time>2020-08-14T09:26:50.378Z</time>
      </trkpt>
      <trkpt lat="66.06567" lon="12.8314">
        <ele>47.891882</ele>
        <time>2020-08-14T09:26:51.404Z</time>
      </trkpt>
      <trkpt lat="66.06569" lon="12.83163">
        <ele>47.607027</ele>
        <time>2020-08-14T09:26:52.377Z</time>
      </trkpt>
      <trkpt lat="66.0657" lon="12.83185">
        <ele>47.326282</ele>
        <time>2020-08-14T09:26:53.397Z</time>
      </trkpt>
      <trkpt lat="66.06571" lon="12.83207">
        <ele>47.052462</ele>
        <time>2020-08-14T09:26:54.378Z</time>
      </trkpt>
      <trkpt lat="66.06573" lon="12.8325">
        <ele>46.532413</ele>
        <time>2020-08-14T09:26:56.373Z</time>
      </trkpt>
      <trkpt lat="66.06575" lon="12.83292">
        <ele>46.564314</ele>
        <time>2020-08-14T09:26:58.388Z</time>
      </trkpt>
      <trkpt lat="66.06578" lon="12.83332">
        <ele>46.595131</ele>
        <time>2020-08-14T09:27:00.392Z</time>
      </trkpt>
      <trkpt lat="66.0658" lon="12.8337">
        <ele>46.624743</ele>
        <time>2020-08-14T09:27:02.404Z</time>
      </trkpt>
      <trkpt lat="66.06582" lon="12.83406">
        <ele>46.652506</ele>
        <time>2020-08-14T09:27:04.391Z</time>
      </trkpt>
      <trkpt lat="66.06584" lon="12.83441">
        <ele>46.679262</ele>
        <time>2020-08-14T09:27:06.372Z</time>
      </trkpt>
      <trkpt lat="66.06585" lon="12.83474">
        <ele>46.704874</ele>
        <time>2020-08-14T09:27:08.378Z</time>
      </trkpt>
      <trkpt lat="66.06586" lon="12.83508">
        <ele>46.730438</ele>
        <time>2020-08-14T09:27:10.383Z</time>
      </trkpt>
      <trkpt lat="66.06588" lon="12.83541">
        <ele>46.75589</ele>
        <time>2020-08-14T09:27:12.408Z</time>
      </trkpt>
      <trkpt lat="66.06591" lon="12.83573">
        <ele>46.781251</ele>
        <time>2020-08-14T09:27:14.394Z</time>
      </trkpt>
      <trkpt lat="66.06594" lon="12.83605">
        <ele>46.805791</ele>
        <time>2020-08-14T09:27:16.388Z</time>
      </trkpt>
      <trkpt lat="66.06596" lon="12.83635">
        <ele>46.829322</ele>
        <time>2020-08-14T09:27:18.367Z</time>
      </trkpt>
      <trkpt lat="66.06599" lon="12.83666">
        <ele>46.8533</ele>
        <time>2020-08-14T09:27:20.385Z</time>
      </trkpt>
      <trkpt lat="66.06602" lon="12.83695">
        <ele>46.92477</ele>
        <time>2020-08-14T09:27:22.379Z</time>
      </trkpt>
      <trkpt lat="66.06605" lon="12.83724">
        <ele>47.110175</ele>
        <time>2020-08-14T09:27:24.383Z</time>
      </trkpt>
      <trkpt lat="66.06607" lon="12.83754">
        <ele>47.302278</ele>
        <time>2020-08-14T09:27:26.378Z</time>
      </trkpt>
      <trkpt lat="66.0661" lon="12.83783">
        <ele>47.491001</ele>
        <time>2020-08-14T09:27:28.405Z</time>
      </trkpt>
      <trkpt lat="66.06612" lon="12.83812">
        <ele>47.673839</ele>
        <time>2020-08-14T09:27:30.373Z</time>
      </trkpt>
      <trkpt lat="66.06614" lon="12.83839">
        <ele>47.849673</ele>
        <time>2020-08-14T09:27:32.386Z</time>
      </trkpt>
      <trkpt lat="66.06616" lon="12.83866">
        <ele>48.019338</ele>
        <time>2020-08-14T09:27:34.391Z</time>
      </trkpt>
      <trkpt lat="66.06618" lon="12.83891">
        <ele>48.18247</ele>
        <time>2020-08-14T09:27:36.417Z</time>
      </trkpt>
      <trkpt lat="66.0662" lon="12.83915">
        <ele>48.332401</ele>
        <time>2020-08-14T09:27:38.385Z</time>
      </trkpt>
      <trkpt lat="66.06622" lon="12.83937">
        <ele>48.472451</ele>
        <time>2020-08-14T09:27:40.390Z</time>
      </trkpt>
      <trkpt lat="66.06623" lon="12.83966">
        <ele>48.657961</ele>
        <time>2020-08-14T09:27:43.387Z</time>
      </trkpt>
      <trkpt lat="66.06625" lon="12.8399">
        <ele>48.812223</ele>
        <time>2020-08-14T09:27:46.357Z</time>
      </trkpt>
      <trkpt lat="66.06627" lon="12.84017">
        <ele>48.984614</ele>
        <time>2020-08-14T09:27:50.374Z</time>
      </trkpt>
      <trkpt lat="66.06629" lon="12.84043">
        <ele>49.149311</ele>
        <time>2020-08-14T09:27:54.384Z</time>
      </trkpt>
      <trkpt lat="66.06632" lon="12.84068">
        <ele>49.311857</ele>
        <time>2020-08-14T09:27:58.416Z</time>
      </trkpt>
      <trkpt lat="66.06634" lon="12.84094">
        <ele>49.481449</ele>
        <time>2020-08-14T09:28:02.388Z</time>
      </trkpt>
      <trkpt lat="66.06636" lon="12.84122">
        <ele>49.657235</ele>
        <time>2020-08-14T09:28:06.393Z</time>
      </trkpt>
      <trkpt lat="66.06639" lon="12.8415">
        <ele>49.754706</ele>
        <time>2020-08-14T09:28:10.372Z</time>
      </trkpt>
      <trkpt lat="66.06642" lon="12.84172">
        <ele>49.834232</ele>
        <time>2020-08-14T09:28:13.373Z</time>
      </trkpt>
      <trkpt lat="66.06643" lon="12.84195">
        <ele>49.912682</ele>
        <time>2020-08-14T09:28:16.375Z</time>
      </trkpt>
      <trkpt lat="66.06643" lon="12.84219">
        <ele>49.995608</ele>
        <time>2020-08-14T09:28:19.381Z</time>
      </trkpt>
      <trkpt lat="66.06643" lon="12.84242">
        <ele>50.075076</ele>
        <time>2020-08-14T09:28:22.388Z</time>
      </trkpt>
      <trkpt lat="66.06646" lon="12.84265">
        <ele>50.154325</ele>
        <time>2020-08-14T09:28:25.375Z</time>
      </trkpt>
      <trkpt lat="66.06648" lon="12.84288">
        <ele>50.235866</ele>
        <time>2020-08-14T09:28:28.373Z</time>
      </trkpt>
      <trkpt lat="66.0665" lon="12.84313">
        <ele>50.323797</ele>
        <time>2020-08-14T09:28:31.417Z</time>
      </trkpt>
      <trkpt lat="66.06652" lon="12.84337">
        <ele>50.405503</ele>
        <time>2020-08-14T09:28:34.413Z</time>
      </trkpt>
      <trkpt lat="66.06654" lon="12.84359">
        <ele>50.481532</ele>
        <time>2020-08-14T09:28:37.380Z</time>
      </trkpt>
      <trkpt lat="66.06655" lon="12.84381">
        <ele>50.5576</ele>
        <time>2020-08-14T09:28:40.378Z</time>
      </trkpt>
      <trkpt lat="66.06657" lon="12.84403">
        <ele>50.633475</ele>
        <time>2020-08-14T09:28:43.371Z</time>
      </trkpt>
      <trkpt lat="66.06658" lon="12.84425">
        <ele>50.710856</ele>
        <time>2020-08-14T09:28:46.400Z</time>
      </trkpt>
      <trkpt lat="66.06659" lon="12.84448">
        <ele>50.789927</ele>
        <time>2020-08-14T09:28:49.364Z</time>
      </trkpt>
      <trkpt lat="66.0666" lon="12.84471">
        <ele>50.869674</ele>
        <time>2020-08-14T09:28:52.394Z</time>
      </trkpt>
      <trkpt lat="66.06662" lon="12.84494">
        <ele>50.94921</ele>
        <time>2020-08-14T09:28:55.372Z</time>
      </trkpt>
      <trkpt lat="66.06664" lon="12.84517">
        <ele>51.029416</ele>
        <time>2020-08-14T09:28:58.414Z</time>
      </trkpt>
      <trkpt lat="66.06666" lon="12.84542">
        <ele>51.114498</ele>
        <time>2020-08-14T09:29:01.395Z</time>
      </trkpt>
      <trkpt lat="66.06668" lon="12.84566">
        <ele>51.281159</ele>
        <time>2020-08-14T09:29:04.377Z</time>
      </trkpt>
      <trkpt lat="66.0667" lon="12.84591">
        <ele>51.574103</ele>
        <time>2020-08-14T09:29:07.409Z</time>
      </trkpt>
      <trkpt lat="66.06672" lon="12.84616">
        <ele>51.875067</ele>
        <time>2020-08-14T09:29:10.394Z</time>
      </trkpt>
      <trkpt lat="66.06673" lon="12.84641">
        <ele>52.176178</ele>
        <time>2020-08-14T09:29:13.381Z</time>
      </trkpt>
      <trkpt lat="66.06675" lon="12.84664">
        <ele>52.458632</ele>
        <time>2020-08-14T09:29:16.383Z</time>
      </trkpt>
      <trkpt lat="66.06676" lon="12.84689">
        <ele>52.753831</ele>
        <time>2020-08-14T09:29:19.378Z</time>
      </trkpt>
      <trkpt lat="66.06679" lon="12.84711">
        <ele>53.019615</ele>
        <time>2020-08-14T09:29:22.370Z</time>
      </trkpt>
      <trkpt lat="66.0668" lon="12.84733">
        <ele>53.292755</ele>
        <time>2020-08-14T09:29:25.371Z</time>
      </trkpt>
      <trkpt lat="66.06682" lon="12.84755">
        <ele>53.555088</ele>
        <time>2020-08-14T09:29:28.384Z</time>
      </trkpt>
      <trkpt lat="66.06684" lon="12.84777">
        <ele>53.817042</ele>
        <time>2020-08-14T09:29:31.370Z</time>
      </trkpt>
      <trkpt lat="66.06686" lon="12.848">
        <ele>54.097807</ele>
        <time>2020-08-14T09:29:34.392Z</time>
      </trkpt>
      <trkpt lat="66.06689" lon="12.84822">
        <ele>54.374631</ele>
        <time>2020-08-14T09:29:37.390Z</time>
      </trkpt>
      <trkpt lat="66.06691" lon="12.84845">
        <ele>54.646667</ele>
        <time>2020-08-14T09:29:40.388Z</time>
      </trkpt>
      <trkpt lat="66.06693" lon="12.84868">
        <ele>54.922789</ele>
        <time>2020-08-14T09:29:43.407Z</time>
      </trkpt>
      <trkpt lat="66.06694" lon="12.84891">
        <ele>55.203269</ele>
        <time>2020-08-14T09:29:46.362Z</time>
      </trkpt>
      <trkpt lat="66.06695" lon="12.84915">
        <ele>55.486391</ele>
        <time>2020-08-14T09:29:49.374Z</time>
      </trkpt>
      <trkpt lat="66.06697" lon="12.84937">
        <ele>55.754969</ele>
        <time>2020-08-14T09:29:52.414Z</time>
      </trkpt>
      <trkpt lat="66.06699" lon="12.84959">
        <ele>56.028157</ele>
        <time>2020-08-14T09:29:55.375Z</time>
      </trkpt>
      <trkpt lat="66.06701" lon="12.84982">
        <ele>56.301763</ele>
        <time>2020-08-14T09:29:58.367Z</time>
      </trkpt>
      <trkpt lat="66.06703" lon="12.85011">
        <ele>56.529557</ele>
        <time>2020-08-14T09:30:02.393Z</time>
      </trkpt>
      <trkpt lat="66.06704" lon="12.85033">
        <ele>56.66417</ele>
        <time>2020-08-14T09:30:05.363Z</time>
      </trkpt>
      <trkpt lat="66.06706" lon="12.85062">
        <ele>56.841856</ele>
        <time>2020-08-14T09:30:09.380Z</time>
      </trkpt>
      <trkpt lat="66.06707" lon="12.85084">
        <ele>56.978025</ele>
        <time>2020-08-14T09:30:12.388Z</time>
      </trkpt>
      <trkpt lat="66.06709" lon="12.85113">
        <ele>57.153667</ele>
        <time>2020-08-14T09:30:16.407Z</time>
      </trkpt>
      <trkpt lat="66.06711" lon="12.85135">
        <ele>57.291663</ele>
        <time>2020-08-14T09:30:19.393Z</time>
      </trkpt>
      <trkpt lat="66.06713" lon="12.85159">
        <ele>57.43543</ele>
        <time>2020-08-14T09:30:22.401Z</time>
      </trkpt>
      <trkpt lat="66.06715" lon="12.85187">
        <ele>57.609974</ele>
        <time>2020-08-14T09:30:26.368Z</time>
      </trkpt>
      <trkpt lat="66.06715" lon="12.85216">
        <ele>57.783587</ele>
        <time>2020-08-14T09:30:30.408Z</time>
      </trkpt>
      <trkpt lat="66.06715" lon="12.85243">
        <ele>57.942649</ele>
        <time>2020-08-14T09:30:34.375Z</time>
      </trkpt>
      <trkpt lat="66.06717" lon="12.85267">
        <ele>58.089873</ele>
        <time>2020-08-14T09:30:38.360Z</time>
      </trkpt>
      <trkpt lat="66.0672" lon="12.8529">
        <ele>58.238387</ele>
        <time>2020-08-14T09:30:42.387Z</time>
      </trkpt>
      <trkpt lat="66.06721" lon="12.85317">
        <ele>58.398782</ele>
        <time>2020-08-14T09:30:46.392Z</time>
      </trkpt>
      <trkpt lat="66.06723" lon="12.85344">
        <ele>58.566303</ele>
        <time>2020-08-14T09:30:50.370Z</time>
      </trkpt>
      <trkpt lat="66.06725" lon="12.85371">
        <ele>58.733345</ele>
        <time>2020-08-14T09:30:54.384Z</time>
      </trkpt>
      <trkpt lat="66.06727" lon="12.85398">
        <ele>58.894574</ele>
        <time>2020-08-14T09:30:58.417Z</time>
      </trkpt>
      <trkpt lat="66.06729" lon="12.85424">
        <ele>59.053184</ele>
        <time>2020-08-14T09:31:02.373Z</time>
      </trkpt>
      <trkpt lat="66.0673" lon="12.85446">
        <ele>59.148331</ele>
        <time>2020-08-14T09:31:05.366Z</time>
      </trkpt>
      <trkpt lat="66.06732" lon="12.8547">
        <ele>59.238081</ele>
        <time>2020-08-14T09:31:08.366Z</time>
      </trkpt>
      <trkpt lat="66.06733" lon="12.85493">
        <ele>59.323842</ele>
        <time>2020-08-14T09:31:11.382Z</time>
      </trkpt>
      <trkpt lat="66.06735" lon="12.8552">
        <ele>59.425541</ele>
        <time>2020-08-14T09:31:14.388Z</time>
      </trkpt>
      <trkpt lat="66.06738" lon="12.85551">
        <ele>59.543689</ele>
        <time>2020-08-14T09:31:17.393Z</time>
      </trkpt>
      <trkpt lat="66.06739" lon="12.85577">
        <ele>59.63737</ele>
        <time>2020-08-14T09:31:19.378Z</time>
      </trkpt>
      <trkpt lat="66.06741" lon="12.85604">
        <ele>59.738481</ele>
        <time>2020-08-14T09:31:21.382Z</time>
      </trkpt>
      <trkpt lat="66.06743" lon="12.85631">
        <ele>59.841812</ele>
        <time>2020-08-14T09:31:23.377Z</time>
      </trkpt>
      <trkpt lat="66.06746" lon="12.8566">
        <ele>59.949824</ele>
        <time>2020-08-14T09:31:25.428Z</time>
      </trkpt>
      <trkpt lat="66.06748" lon="12.85689">
        <ele>60.059463</ele>
        <time>2020-08-14T09:31:27.392Z</time>
      </trkpt>
      <trkpt lat="66.06751" lon="12.85719">
        <ele>60.173085</ele>
        <time>2020-08-14T09:31:29.360Z</time>
      </trkpt>
      <trkpt lat="66.06753" lon="12.85749">
        <ele>60.285982</ele>
        <time>2020-08-14T09:31:31.376Z</time>
      </trkpt>
      <trkpt lat="66.06755" lon="12.85777">
        <ele>60.393089</ele>
        <time>2020-08-14T09:31:33.391Z</time>
      </trkpt>
      <trkpt lat="66.06757" lon="12.85803">
        <ele>60.489344</ele>
        <time>2020-08-14T09:31:35.396Z</time>
      </trkpt>
      <trkpt lat="66.06759" lon="12.85826">
        <ele>60.575103</ele>
        <time>2020-08-14T09:31:37.360Z</time>
      </trkpt>
      <trkpt lat="66.06762" lon="12.85856">
        <ele>60.68818</ele>
        <time>2020-08-14T09:31:40.394Z</time>
      </trkpt>
      <trkpt lat="66.06763" lon="12.85882">
        <ele>60.823342</ele>
        <time>2020-08-14T09:31:43.379Z</time>
      </trkpt>
      <trkpt lat="66.06765" lon="12.85909">
        <ele>60.987035</ele>
        <time>2020-08-14T09:31:46.399Z</time>
      </trkpt>
      <trkpt lat="66.06767" lon="12.85931">
        <ele>61.125453</ele>
        <time>2020-08-14T09:31:49.363Z</time>
      </trkpt>
      <trkpt lat="66.0677" lon="12.85954">
        <ele>61.263433</ele>
        <time>2020-08-14T09:31:52.382Z</time>
      </trkpt>
      <trkpt lat="66.06772" lon="12.85976">
        <ele>61.397726</ele>
        <time>2020-08-14T09:31:55.418Z</time>
      </trkpt>
      <trkpt lat="66.06774" lon="12.86">
        <ele>61.542168</ele>
        <time>2020-08-14T09:31:58.377Z</time>
      </trkpt>
      <trkpt lat="66.06775" lon="12.86023">
        <ele>61.681989</ele>
        <time>2020-08-14T09:32:01.383Z</time>
      </trkpt>
      <trkpt lat="66.06777" lon="12.86046">
        <ele>61.81922</ele>
        <time>2020-08-14T09:32:04.366Z</time>
      </trkpt>
      <trkpt lat="66.06779" lon="12.86069">
        <ele>61.957265</ele>
        <time>2020-08-14T09:32:07.371Z</time>
      </trkpt>
      <trkpt lat="66.06781" lon="12.86092">
        <ele>62.10056</ele>
        <time>2020-08-14T09:32:10.354Z</time>
      </trkpt>
      <trkpt lat="66.06783" lon="12.86115">
        <ele>62.238327</ele>
        <time>2020-08-14T09:32:13.370Z</time>
      </trkpt>
      <trkpt lat="66.06784" lon="12.86138">
        <ele>62.378244</ele>
        <time>2020-08-14T09:32:16.364Z</time>
      </trkpt>
      <trkpt lat="66.06786" lon="12.86163">
        <ele>62.527663</ele>
        <time>2020-08-14T09:32:19.393Z</time>
      </trkpt>
      <trkpt lat="66.06788" lon="12.86188">
        <ele>62.676009</ele>
        <time>2020-08-14T09:32:22.381Z</time>
      </trkpt>
      <trkpt lat="66.0679" lon="12.86212">
        <ele>62.8219</ele>
        <time>2020-08-14T09:32:25.351Z</time>
      </trkpt>
      <trkpt lat="66.06792" lon="12.86237">
        <ele>62.976481</ele>
        <time>2020-08-14T09:32:28.417Z</time>
      </trkpt>
      <trkpt lat="66.06795" lon="12.86265">
        <ele>63.145103</ele>
        <time>2020-08-14T09:32:31.381Z</time>
      </trkpt>
      <trkpt lat="66.06798" lon="12.86296">
        <ele>63.333136</ele>
        <time>2020-08-14T09:32:34.416Z</time>
      </trkpt>
      <trkpt lat="66.068" lon="12.86326">
        <ele>63.341903</ele>
        <time>2020-08-14T09:32:37.385Z</time>
      </trkpt>
      <trkpt lat="66.06803" lon="12.86355">
        <ele>63.333536</ele>
        <time>2020-08-14T09:32:40.396Z</time>
      </trkpt>
      <trkpt lat="66.06806" lon="12.86385">
        <ele>63.324945</ele>
        <time>2020-08-14T09:32:43.381Z</time>
      </trkpt>
      <trkpt lat="66.06807" lon="12.86407">
        <ele>63.318695</ele>
        <time>2020-08-14T09:32:45.418Z</time>
      </trkpt>
      <trkpt lat="66.06808" lon="12.86429">
        <ele>63.312205</ele>
        <time>2020-08-14T09:32:47.379Z</time>
      </trkpt>
      <trkpt lat="66.0681" lon="12.86453">
        <ele>63.305396</ele>
        <time>2020-08-14T09:32:49.390Z</time>
      </trkpt>
      <trkpt lat="66.06812" lon="12.86477">
        <ele>63.298409</ele>
        <time>2020-08-14T09:32:51.379Z</time>
      </trkpt>
      <trkpt lat="66.06814" lon="12.865">
        <ele>63.291747</ele>
        <time>2020-08-14T09:32:53.382Z</time>
      </trkpt>
      <trkpt lat="66.06816" lon="12.86524">
        <ele>63.284904</ele>
        <time>2020-08-14T09:32:55.372Z</time>
      </trkpt>
      <trkpt lat="66.06818" lon="12.86548">
        <ele>63.278047</ele>
        <time>2020-08-14T09:32:57.373Z</time>
      </trkpt>
      <trkpt lat="66.0682" lon="12.86571">
        <ele>63.271439</ele>
        <time>2020-08-14T09:32:59.372Z</time>
      </trkpt>
      <trkpt lat="66.06822" lon="12.86593">
        <ele>63.265038</ele>
        <time>2020-08-14T09:33:01.392Z</time>
      </trkpt>
      <trkpt lat="66.06825" lon="12.86624">
        <ele>63.256076</ele>
        <time>2020-08-14T09:33:04.385Z</time>
      </trkpt>
      <trkpt lat="66.06827" lon="12.86656">
        <ele>63.246878</ele>
        <time>2020-08-14T09:33:07.415Z</time>
      </trkpt>
      <trkpt lat="66.06829" lon="12.86687">
        <ele>63.237799</ele>
        <time>2020-08-14T09:33:10.402Z</time>
      </trkpt>
      <trkpt lat="66.06832" lon="12.8672">
        <ele>63.228458</ele>
        <time>2020-08-14T09:33:13.417Z</time>
      </trkpt>
      <trkpt lat="66.06834" lon="12.86752">
        <ele>63.238767</ele>
        <time>2020-08-14T09:33:16.409Z</time>
      </trkpt>
      <trkpt lat="66.06835" lon="12.86782">
        <ele>63.262338</ele>
        <time>2020-08-14T09:33:19.381Z</time>
      </trkpt>
      <trkpt lat="66.06837" lon="12.86813">
        <ele>63.286677</ele>
        <time>2020-08-14T09:33:22.392Z</time>
      </trkpt>
      <trkpt lat="66.06838" lon="12.86845">
        <ele>63.311592</ele>
        <time>2020-08-14T09:33:25.361Z</time>
      </trkpt>
      <trkpt lat="66.06838" lon="12.86877">
        <ele>63.336324</ele>
        <time>2020-08-14T09:33:28.395Z</time>
      </trkpt>
      <trkpt lat="66.06839" lon="12.86908">
        <ele>63.360275</ele>
        <time>2020-08-14T09:33:31.391Z</time>
      </trkpt>
      <trkpt lat="66.06839" lon="12.8694">
        <ele>63.385144</ele>
        <time>2020-08-14T09:33:34.373Z</time>
      </trkpt>
      <trkpt lat="66.06838" lon="12.86963">
        <ele>63.402824</ele>
        <time>2020-08-14T09:33:36.416Z</time>
      </trkpt>
      <trkpt lat="66.06839" lon="12.86995">
        <ele>63.427616</ele>
        <time>2020-08-14T09:33:39.378Z</time>
      </trkpt>
      <trkpt lat="66.06839" lon="12.87027">
        <ele>63.452332</ele>
        <time>2020-08-14T09:33:42.409Z</time>
      </trkpt>
      <trkpt lat="66.06838" lon="12.87058">
        <ele>63.476927</ele>
        <time>2020-08-14T09:33:45.376Z</time>
      </trkpt>
      <trkpt lat="66.06837" lon="12.8709">
        <ele>63.501533</ele>
        <time>2020-08-14T09:33:48.390Z</time>
      </trkpt>
      <trkpt lat="66.06837" lon="12.87123">
        <ele>63.527124</ele>
        <time>2020-08-14T09:33:51.404Z</time>
      </trkpt>
      <trkpt lat="66.06836" lon="12.87146">
        <ele>63.544637</ele>
        <time>2020-08-14T09:33:53.374Z</time>
      </trkpt>
      <trkpt lat="66.06836" lon="12.87169">
        <ele>63.562969</ele>
        <time>2020-08-14T09:33:55.406Z</time>
      </trkpt>
      <trkpt lat="66.06835" lon="12.87194">
        <ele>63.51814</ele>
        <time>2020-08-14T09:33:57.374Z</time>
      </trkpt>
      <trkpt lat="66.06835" lon="12.87218">
        <ele>63.450866</ele>
        <time>2020-08-14T09:33:59.376Z</time>
      </trkpt>
      <trkpt lat="66.06835" lon="12.87241">
        <ele>63.385605</ele>
        <time>2020-08-14T09:34:01.394Z</time>
      </trkpt>
      <trkpt lat="66.06835" lon="12.87264">
        <ele>63.321749</ele>
        <time>2020-08-14T09:34:03.377Z</time>
      </trkpt>
      <trkpt lat="66.06834" lon="12.87288">
        <ele>63.255059</ele>
        <time>2020-08-14T09:34:05.384Z</time>
      </trkpt>
      <trkpt lat="66.06834" lon="12.87311">
        <ele>63.190024</ele>
        <time>2020-08-14T09:34:07.392Z</time>
      </trkpt>
      <trkpt lat="66.06833" lon="12.87333">
        <ele>63.128219</ele>
        <time>2020-08-14T09:34:09.370Z</time>
      </trkpt>
      <trkpt lat="66.06833" lon="12.87365">
        <ele>63.038851</ele>
        <time>2020-08-14T09:34:12.419Z</time>
      </trkpt>
      <trkpt lat="66.06833" lon="12.87396">
        <ele>62.952284</ele>
        <time>2020-08-14T09:34:15.374Z</time>
      </trkpt>
      <trkpt lat="66.06832" lon="12.87425">
        <ele>62.869637</ele>
        <time>2020-08-14T09:34:18.373Z</time>
      </trkpt>
      <trkpt lat="66.06832" lon="12.87456">
        <ele>62.78333</ele>
        <time>2020-08-14T09:34:21.382Z</time>
      </trkpt>
      <trkpt lat="66.06831" lon="12.87488">
        <ele>62.693104</ele>
        <time>2020-08-14T09:34:24.375Z</time>
      </trkpt>
      <trkpt lat="66.06832" lon="12.8751">
        <ele>62.630644</ele>
        <time>2020-08-14T09:34:26.403Z</time>
      </trkpt>
      <trkpt lat="66.06831" lon="12.87533">
        <ele>62.566772</ele>
        <time>2020-08-14T09:34:28.413Z</time>
      </trkpt>
      <trkpt lat="66.06831" lon="12.87556">
        <ele>62.502322</ele>
        <time>2020-08-14T09:34:30.376Z</time>
      </trkpt>
      <trkpt lat="66.06831" lon="12.87579">
        <ele>62.438686</ele>
        <time>2020-08-14T09:34:32.427Z</time>
      </trkpt>
      <trkpt lat="66.0683" lon="12.87602">
        <ele>62.37365</ele>
        <time>2020-08-14T09:34:34.368Z</time>
      </trkpt>
      <trkpt lat="66.0683" lon="12.87625">
        <ele>62.320541</ele>
        <time>2020-08-14T09:34:36.396Z</time>
      </trkpt>
      <trkpt lat="66.06829" lon="12.87648">
        <ele>62.298412</ele>
        <time>2020-08-14T09:34:38.404Z</time>
      </trkpt>
      <trkpt lat="66.06829" lon="12.8767">
        <ele>62.27651</ele>
        <time>2020-08-14T09:34:40.400Z</time>
      </trkpt>
      <trkpt lat="66.06829" lon="12.87703">
        <ele>62.245266</ele>
        <time>2020-08-14T09:34:43.381Z</time>
      </trkpt>
      <trkpt lat="66.06829" lon="12.87735">
        <ele>62.214103</ele>
        <time>2020-08-14T09:34:46.376Z</time>
      </trkpt>
      <trkpt lat="66.06828" lon="12.87767">
        <ele>62.183593</ele>
        <time>2020-08-14T09:34:49.375Z</time>
      </trkpt>
      <trkpt lat="66.06827" lon="12.87797">
        <ele>62.154277</ele>
        <time>2020-08-14T09:34:52.372Z</time>
      </trkpt>
      <trkpt lat="66.06826" lon="12.87825">
        <ele>62.127442</ele>
        <time>2020-08-14T09:34:55.380Z</time>
      </trkpt>
      <trkpt lat="66.06826" lon="12.87849">
        <ele>62.103613</ele>
        <time>2020-08-14T09:34:58.381Z</time>
      </trkpt>
      <trkpt lat="66.06826" lon="12.87872">
        <ele>62.082199</ele>
        <time>2020-08-14T09:35:01.377Z</time>
      </trkpt>
      <trkpt lat="66.06824" lon="12.87893">
        <ele>62.060749</ele>
        <time>2020-08-14T09:35:05.383Z</time>
      </trkpt>
      <trkpt lat="66.06824" lon="12.88001">
        <ele>61.956401</ele>
        <time>2020-08-14T09:46:33.381Z</time>
      </trkpt>
      <trkpt lat="66.06825" lon="12.88029">
        <ele>61.92906</ele>
        <time>2020-08-14T09:46:37.374Z</time>
      </trkpt>
      <trkpt lat="66.06824" lon="12.88059">
        <ele>61.90078</ele>
        <time>2020-08-14T09:46:41.377Z</time>
      </trkpt>
      <trkpt lat="66.06823" lon="12.88083">
        <ele>61.981411</ele>
        <time>2020-08-14T09:46:44.373Z</time>
      </trkpt>
      <trkpt lat="66.06823" lon="12.88108">
        <ele>62.075195</ele>
        <time>2020-08-14T09:46:47.368Z</time>
      </trkpt>
      <trkpt lat="66.06823" lon="12.88134">
        <ele>62.171921</ele>
        <time>2020-08-14T09:46:50.385Z</time>
      </trkpt>
      <trkpt lat="66.06822" lon="12.88159">
        <ele>62.262305</ele>
        <time>2020-08-14T09:46:53.362Z</time>
      </trkpt>
      <trkpt lat="66.06822" lon="12.88183">
        <ele>62.352675</ele>
        <time>2020-08-14T09:46:56.385Z</time>
      </trkpt>
      <trkpt lat="66.06822" lon="12.88206">
        <ele>62.436738</ele>
        <time>2020-08-14T09:46:59.401Z</time>
      </trkpt>
      <trkpt lat="66.06822" lon="12.88229">
        <ele>62.525044</ele>
        <time>2020-08-14T09:47:02.406Z</time>
      </trkpt>
      <trkpt lat="66.06821" lon="12.88255">
        <ele>62.621058</ele>
        <time>2020-08-14T09:47:05.382Z</time>
      </trkpt>
      <trkpt lat="66.06821" lon="12.88282">
        <ele>62.722583</ele>
        <time>2020-08-14T09:47:08.376Z</time>
      </trkpt>
      <trkpt lat="66.06821" lon="12.8831">
        <ele>62.824853</ele>
        <time>2020-08-14T09:47:11.381Z</time>
      </trkpt>
      <trkpt lat="66.06821" lon="12.88338">
        <ele>62.92825</ele>
        <time>2020-08-14T09:47:14.376Z</time>
      </trkpt>
      <trkpt lat="66.06821" lon="12.88365">
        <ele>63.030618</ele>
        <time>2020-08-14T09:47:17.370Z</time>
      </trkpt>
      <trkpt lat="66.06821" lon="12.88391">
        <ele>63.125822</ele>
        <time>2020-08-14T09:47:20.381Z</time>
      </trkpt>
      <trkpt lat="66.06821" lon="12.88417">
        <ele>63.223664</ele>
        <time>2020-08-14T09:47:23.379Z</time>
      </trkpt>
      <trkpt lat="66.06821" lon="12.88446">
        <ele>63.329683</ele>
        <time>2020-08-14T09:47:26.386Z</time>
      </trkpt>
      <trkpt lat="66.0682" lon="12.88474">
        <ele>63.437253</ele>
        <time>2020-08-14T09:47:29.377Z</time>
      </trkpt>
      <trkpt lat="66.06819" lon="12.88503">
        <ele>63.542696</ele>
        <time>2020-08-14T09:47:32.360Z</time>
      </trkpt>
      <trkpt lat="66.06819" lon="12.88531">
        <ele>63.568478</ele>
        <time>2020-08-14T09:47:35.385Z</time>
      </trkpt>
      <trkpt lat="66.0682" lon="12.88558">
        <ele>63.590206</ele>
        <time>2020-08-14T09:47:38.414Z</time>
      </trkpt>
      <trkpt lat="66.0682" lon="12.88585">
        <ele>63.611034</ele>
        <time>2020-08-14T09:47:41.405Z</time>
      </trkpt>
      <trkpt lat="66.0682" lon="12.88613">
        <ele>63.632877</ele>
        <time>2020-08-14T09:47:44.368Z</time>
      </trkpt>
      <trkpt lat="66.06821" lon="12.88641">
        <ele>63.655178</ele>
        <time>2020-08-14T09:47:47.412Z</time>
      </trkpt>
      <trkpt lat="66.06821" lon="12.88671">
        <ele>63.67821</ele>
        <time>2020-08-14T09:47:50.384Z</time>
      </trkpt>
      <trkpt lat="66.06821" lon="12.887">
        <ele>63.701293</ele>
        <time>2020-08-14T09:47:53.406Z</time>
      </trkpt>
      <trkpt lat="66.06821" lon="12.8873">
        <ele>63.724454</ele>
        <time>2020-08-14T09:47:56.387Z</time>
      </trkpt>
      <trkpt lat="66.06821" lon="12.8876">
        <ele>63.748006</ele>
        <time>2020-08-14T09:47:59.380Z</time>
      </trkpt>
      <trkpt lat="66.06821" lon="12.88789">
        <ele>63.770932</ele>
        <time>2020-08-14T09:48:02.382Z</time>
      </trkpt>
      <trkpt lat="66.06821" lon="12.88819">
        <ele>63.794249</ele>
        <time>2020-08-14T09:48:05.391Z</time>
      </trkpt>
      <trkpt lat="66.06821" lon="12.8885">
        <ele>63.818036</ele>
        <time>2020-08-14T09:48:08.371Z</time>
      </trkpt>
      <trkpt lat="66.06821" lon="12.88879">
        <ele>63.841196</ele>
        <time>2020-08-14T09:48:11.403Z</time>
      </trkpt>
      <trkpt lat="66.06821" lon="12.88908">
        <ele>63.864047</ele>
        <time>2020-08-14T09:48:14.391Z</time>
      </trkpt>
      <trkpt lat="66.06821" lon="12.88936">
        <ele>63.885799</ele>
        <time>2020-08-14T09:48:17.367Z</time>
      </trkpt>
      <trkpt lat="66.06821" lon="12.88964">
        <ele>64.007798</ele>
        <time>2020-08-14T09:48:20.409Z</time>
      </trkpt>
      <trkpt lat="66.06821" lon="12.88991">
        <ele>64.190698</ele>
        <time>2020-08-14T09:48:23.384Z</time>
      </trkpt>
      <trkpt lat="66.06822" lon="12.89016">
        <ele>64.364281</ele>
        <time>2020-08-14T09:48:26.403Z</time>
      </trkpt>
      <trkpt lat="66.06822" lon="12.89041">
        <ele>64.532903</ele>
        <time>2020-08-14T09:48:29.371Z</time>
      </trkpt>
      <trkpt lat="66.06822" lon="12.89067">
        <ele>64.711723</ele>
        <time>2020-08-14T09:48:32.388Z</time>
      </trkpt>
      <trkpt lat="66.06822" lon="12.89092">
        <ele>64.882418</ele>
        <time>2020-08-14T09:48:35.378Z</time>
      </trkpt>
      <trkpt lat="66.06822" lon="12.89118">
        <ele>65.058527</ele>
        <time>2020-08-14T09:48:38.396Z</time>
      </trkpt>
      <trkpt lat="66.06822" lon="12.89144">
        <ele>65.233947</ele>
        <time>2020-08-14T09:48:41.389Z</time>
      </trkpt>
      <trkpt lat="66.06822" lon="12.8917">
        <ele>65.411535</ele>
        <time>2020-08-14T09:48:44.398Z</time>
      </trkpt>
      <trkpt lat="66.06822" lon="12.89198">
        <ele>65.599194</ele>
        <time>2020-08-14T09:48:47.365Z</time>
      </trkpt>
      <trkpt lat="66.06823" lon="12.89226">
        <ele>65.78896</ele>
        <time>2020-08-14T09:48:50.375Z</time>
      </trkpt>
      <trkpt lat="66.06823" lon="12.89254">
        <ele>65.979347</ele>
        <time>2020-08-14T09:48:53.381Z</time>
      </trkpt>
      <trkpt lat="66.06823" lon="12.89283">
        <ele>66.176554</ele>
        <time>2020-08-14T09:48:56.369Z</time>
      </trkpt>
      <trkpt lat="66.06822" lon="12.89311">
        <ele>66.366371</ele>
        <time>2020-08-14T09:48:59.377Z</time>
      </trkpt>
      <trkpt lat="66.06822" lon="12.89339">
        <ele>66.556758</ele>
        <time>2020-08-14T09:49:02.405Z</time>
      </trkpt>
      <trkpt lat="66.06822" lon="12.89367">
        <ele>66.748526</ele>
        <time>2020-08-14T09:49:05.391Z</time>
      </trkpt>
      <trkpt lat="66.06822" lon="12.89393">
        <ele>66.933936</ele>
        <time>2020-08-14T09:49:08.388Z</time>
      </trkpt>
      <trkpt lat="66.06822" lon="12.89417">
        <ele>67.177472</ele>
        <time>2020-08-14T09:49:11.366Z</time>
      </trkpt>
      <trkpt lat="66.06823" lon="12.8944">
        <ele>67.408104</ele>
        <time>2020-08-14T09:49:14.402Z</time>
      </trkpt>
      <trkpt lat="66.06823" lon="12.89463">
        <ele>67.631754</ele>
        <time>2020-08-14T09:49:17.372Z</time>
      </trkpt>
      <trkpt lat="66.06823" lon="12.89492">
        <ele>67.924147</ele>
        <time>2020-08-14T09:49:21.380Z</time>
      </trkpt>
      <trkpt lat="66.06823" lon="12.89519">
        <ele>68.194621</ele>
        <time>2020-08-14T09:49:25.374Z</time>
      </trkpt>
      <trkpt lat="66.06824" lon="12.89544">
        <ele>68.43955</ele>
        <time>2020-08-14T09:49:29.376Z</time>
      </trkpt>
      <trkpt lat="66.06823" lon="12.89567">
        <ele>68.676511</ele>
        <time>2020-08-14T09:49:33.407Z</time>
      </trkpt>
      <trkpt lat="66.06823" lon="12.89593">
        <ele>68.934014</ele>
        <time>2020-08-14T09:49:37.393Z</time>
      </trkpt>
      <trkpt lat="66.06824" lon="12.89618">
        <ele>69.178807</ele>
        <time>2020-08-14T09:49:41.388Z</time>
      </trkpt>
      <trkpt lat="66.06824" lon="12.89643">
        <ele>69.43238</ele>
        <time>2020-08-14T09:49:45.402Z</time>
      </trkpt>
      <trkpt lat="66.06824" lon="12.89668">
        <ele>69.684859</ele>
        <time>2020-08-14T09:49:49.415Z</time>
      </trkpt>
      <trkpt lat="66.06824" lon="12.89694">
        <ele>69.944322</ele>
        <time>2020-08-14T09:49:53.394Z</time>
      </trkpt>
      <trkpt lat="66.06824" lon="12.89725">
        <ele>70.244688</ele>
        <time>2020-08-14T09:49:57.398Z</time>
      </trkpt>
      <trkpt lat="66.06824" lon="12.8975">
        <ele>70.498165</ele>
        <time>2020-08-14T09:50:00.383Z</time>
      </trkpt>
      <trkpt lat="66.06823" lon="12.89775">
        <ele>70.745948</ele>
        <time>2020-08-14T09:50:03.371Z</time>
      </trkpt>
      <trkpt lat="66.06823" lon="12.898">
        <ele>70.993475</ele>
        <time>2020-08-14T09:50:06.388Z</time>
      </trkpt>
      <trkpt lat="66.06822" lon="12.89824">
        <ele>71.241392</ele>
        <time>2020-08-14T09:50:09.395Z</time>
      </trkpt>
      <trkpt lat="66.06821" lon="12.8985">
        <ele>71.435617</ele>
        <time>2020-08-14T09:50:12.376Z</time>
      </trkpt>
      <trkpt lat="66.0682" lon="12.89876">
        <ele>71.59394</ele>
        <time>2020-08-14T09:50:15.381Z</time>
      </trkpt>
      <trkpt lat="66.06819" lon="12.89903">
        <ele>71.752373</ele>
        <time>2020-08-14T09:50:18.370Z</time>
      </trkpt>
      <trkpt lat="66.06818" lon="12.89927">
        <ele>71.898551</ele>
        <time>2020-08-14T09:50:21.384Z</time>
      </trkpt>
      <trkpt lat="66.06816" lon="12.89952">
        <ele>72.051163</ele>
        <time>2020-08-14T09:50:24.376Z</time>
      </trkpt>
      <trkpt lat="66.06814" lon="12.89977">
        <ele>72.204963</ele>
        <time>2020-08-14T09:50:27.393Z</time>
      </trkpt>
      <trkpt lat="66.06813" lon="12.9">
        <ele>72.347157</ele>
        <time>2020-08-14T09:50:30.375Z</time>
      </trkpt>
      <trkpt lat="66.06812" lon="12.90023">
        <ele>72.484196</ele>
        <time>2020-08-14T09:50:33.397Z</time>
      </trkpt>
      <trkpt lat="66.06811" lon="12.90046">
        <ele>72.624224</ele>
        <time>2020-08-14T09:50:36.381Z</time>
      </trkpt>
      <trkpt lat="66.0681" lon="12.90069">
        <ele>72.763684</ele>
        <time>2020-08-14T09:50:39.391Z</time>
      </trkpt>
      <trkpt lat="66.06809" lon="12.90092">
        <ele>72.901153</ele>
        <time>2020-08-14T09:50:42.402Z</time>
      </trkpt>
      <trkpt lat="66.06808" lon="12.90115">
        <ele>73.043732</ele>
        <time>2020-08-14T09:50:45.396Z</time>
      </trkpt>
      <trkpt lat="66.06807" lon="12.90139">
        <ele>73.184193</ele>
        <time>2020-08-14T09:50:48.375Z</time>
      </trkpt>
      <trkpt lat="66.06806" lon="12.90162">
        <ele>73.325537</ele>
        <time>2020-08-14T09:50:51.375Z</time>
      </trkpt>
      <trkpt lat="66.06803" lon="12.90186">
        <ele>73.47393</ele>
        <time>2020-08-14T09:50:54.401Z</time>
      </trkpt>
      <trkpt lat="66.06801" lon="12.90214">
        <ele>73.647955</ele>
        <time>2020-08-14T09:50:58.426Z</time>
      </trkpt>
      <trkpt lat="66.068" lon="12.90238">
        <ele>73.79354</ele>
        <time>2020-08-14T09:51:01.361Z</time>
      </trkpt>
      <trkpt lat="66.068" lon="12.90268">
        <ele>73.971368</ele>
        <time>2020-08-14T09:51:05.386Z</time>
      </trkpt>
      <trkpt lat="66.06797" lon="12.90292">
        <ele>74.059403</ele>
        <time>2020-08-14T09:51:08.371Z</time>
      </trkpt>
      <trkpt lat="66.06796" lon="12.90316">
        <ele>74.126936</ele>
        <time>2020-08-14T09:51:11.396Z</time>
      </trkpt>
      <trkpt lat="66.06796" lon="12.90339">
        <ele>74.190626</ele>
        <time>2020-08-14T09:51:14.367Z</time>
      </trkpt>
      <trkpt lat="66.06795" lon="12.90362">
        <ele>74.255041</ele>
        <time>2020-08-14T09:51:17.378Z</time>
      </trkpt>
      <trkpt lat="66.06795" lon="12.90385">
        <ele>74.319407</ele>
        <time>2020-08-14T09:51:20.374Z</time>
      </trkpt>
      <trkpt lat="66.06794" lon="12.9041">
        <ele>74.389069</ele>
        <time>2020-08-14T09:51:23.397Z</time>
      </trkpt>
      <trkpt lat="66.06792" lon="12.90437">
        <ele>74.464225</ele>
        <time>2020-08-14T09:51:26.385Z</time>
      </trkpt>
      <trkpt lat="66.06791" lon="12.90461">
        <ele>74.533529</ele>
        <time>2020-08-14T09:51:29.395Z</time>
      </trkpt>
      <trkpt lat="66.06789" lon="12.90486">
        <ele>74.602171</ele>
        <time>2020-08-14T09:51:32.450Z</time>
      </trkpt>
      <trkpt lat="66.06788" lon="12.90511">
        <ele>74.675338</ele>
        <time>2020-08-14T09:51:35.440Z</time>
      </trkpt>
      <trkpt lat="66.06786" lon="12.90536">
        <ele>74.745699</ele>
        <time>2020-08-14T09:51:38.402Z</time>
      </trkpt>
      <trkpt lat="66.06785" lon="12.90561">
        <ele>74.814619</ele>
        <time>2020-08-14T09:51:41.412Z</time>
      </trkpt>
      <trkpt lat="66.06783" lon="12.90584">
        <ele>74.880303</ele>
        <time>2020-08-14T09:51:44.381Z</time>
      </trkpt>
      <trkpt lat="66.06782" lon="12.9061">
        <ele>74.952274</ele>
        <time>2020-08-14T09:51:47.388Z</time>
      </trkpt>
      <trkpt lat="66.06781" lon="12.90637">
        <ele>75.028763</ele>
        <time>2020-08-14T09:51:50.381Z</time>
      </trkpt>
      <trkpt lat="66.06779" lon="12.90664">
        <ele>75.105455</ele>
        <time>2020-08-14T09:51:53.375Z</time>
      </trkpt>
      <trkpt lat="66.06778" lon="12.90691">
        <ele>75.181661</ele>
        <time>2020-08-14T09:51:56.400Z</time>
      </trkpt>
      <trkpt lat="66.06776" lon="12.90718">
        <ele>75.247971</ele>
        <time>2020-08-14T09:51:59.397Z</time>
      </trkpt>
      <trkpt lat="66.06775" lon="12.90747">
        <ele>75.276041</ele>
        <time>2020-08-14T09:52:02.391Z</time>
      </trkpt>
      <trkpt lat="66.06773" lon="12.90774">
        <ele>75.303518</ele>
        <time>2020-08-14T09:52:05.378Z</time>
      </trkpt>
      <trkpt lat="66.06772" lon="12.90802">
        <ele>75.331884</ele>
        <time>2020-08-14T09:52:08.378Z</time>
      </trkpt>
      <trkpt lat="66.06771" lon="12.9083">
        <ele>75.35922</ele>
        <time>2020-08-14T09:52:11.400Z</time>
      </trkpt>
      <trkpt lat="66.06769" lon="12.90857">
        <ele>75.386991</ele>
        <time>2020-08-14T09:52:14.395Z</time>
      </trkpt>
      <trkpt lat="66.06768" lon="12.90884">
        <ele>75.413441</ele>
        <time>2020-08-14T09:52:17.377Z</time>
      </trkpt>
      <trkpt lat="66.06766" lon="12.9091">
        <ele>75.439431</ele>
        <time>2020-08-14T09:52:20.386Z</time>
      </trkpt>
      <trkpt lat="66.06764" lon="12.90936">
        <ele>75.465949</ele>
        <time>2020-08-14T09:52:23.397Z</time>
      </trkpt>
      <trkpt lat="66.06763" lon="12.90962">
        <ele>75.491877</ele>
        <time>2020-08-14T09:52:26.393Z</time>
      </trkpt>
      <trkpt lat="66.0676" lon="12.9099">
        <ele>75.520912</ele>
        <time>2020-08-14T09:52:29.406Z</time>
      </trkpt>
      <trkpt lat="66.06759" lon="12.91018">
        <ele>75.548285</ele>
        <time>2020-08-14T09:52:32.394Z</time>
      </trkpt>
      <trkpt lat="66.06758" lon="12.91047">
        <ele>75.577297</ele>
        <time>2020-08-14T09:52:35.378Z</time>
      </trkpt>
      <trkpt lat="66.06758" lon="12.91076">
        <ele>75.605876</ele>
        <time>2020-08-14T09:52:38.373Z</time>
      </trkpt>
      <trkpt lat="66.06756" lon="12.91105">
        <ele>75.635157</ele>
        <time>2020-08-14T09:52:41.370Z</time>
      </trkpt>
      <trkpt lat="66.06755" lon="12.91135">
        <ele>75.664983</ele>
        <time>2020-08-14T09:52:44.383Z</time>
      </trkpt>
      <trkpt lat="66.06754" lon="12.91164">
        <ele>75.771827</ele>
        <time>2020-08-14T09:52:47.403Z</time>
      </trkpt>
      <trkpt lat="66.06752" lon="12.9119">
        <ele>75.965251</ele>
        <time>2020-08-14T09:52:50.373Z</time>
      </trkpt>
      <trkpt lat="66.06751" lon="12.91216">
        <ele>76.15823</ele>
        <time>2020-08-14T09:52:53.394Z</time>
      </trkpt>
      <trkpt lat="66.0675" lon="12.91243">
        <ele>76.358745</ele>
        <time>2020-08-14T09:52:56.387Z</time>
      </trkpt>
      <trkpt lat="66.06748" lon="12.9127">
        <ele>76.560705</ele>
        <time>2020-08-14T09:52:59.394Z</time>
      </trkpt>
      <trkpt lat="66.06746" lon="12.91299">
        <ele>76.777343</ele>
        <time>2020-08-14T09:53:02.363Z</time>
      </trkpt>
      <trkpt lat="66.06745" lon="12.91328">
        <ele>76.995371</ele>
        <time>2020-08-14T09:53:05.392Z</time>
      </trkpt>
      <trkpt lat="66.06744" lon="12.91356">
        <ele>77.203013</ele>
        <time>2020-08-14T09:53:08.419Z</time>
      </trkpt>
      <trkpt lat="66.06742" lon="12.91384">
        <ele>77.40719</ele>
        <time>2020-08-14T09:53:11.402Z</time>
      </trkpt>
      <trkpt lat="66.06741" lon="12.91412">
        <ele>77.614745</ele>
        <time>2020-08-14T09:53:14.389Z</time>
      </trkpt>
      <trkpt lat="66.06739" lon="12.91439">
        <ele>77.817704</ele>
        <time>2020-08-14T09:53:17.396Z</time>
      </trkpt>
      <trkpt lat="66.06737" lon="12.91466">
        <ele>78.01731</ele>
        <time>2020-08-14T09:53:20.389Z</time>
      </trkpt>
      <trkpt lat="66.06736" lon="12.91491">
        <ele>78.202697</ele>
        <time>2020-08-14T09:53:23.420Z</time>
      </trkpt>
      <trkpt lat="66.06735" lon="12.91513">
        <ele>78.371764</ele>
        <time>2020-08-14T09:53:26.389Z</time>
      </trkpt>
      <trkpt lat="66.06733" lon="12.91537">
        <ele>78.548222</ele>
        <time>2020-08-14T09:53:29.402Z</time>
      </trkpt>
      <trkpt lat="66.06732" lon="12.91565">
        <ele>78.754398</ele>
        <time>2020-08-14T09:53:32.365Z</time>
      </trkpt>
      <trkpt lat="66.06731" lon="12.91594">
        <ele>78.934496</ele>
        <time>2020-08-14T09:53:35.377Z</time>
      </trkpt>
      <trkpt lat="66.06729" lon="12.91625">
        <ele>78.760428</ele>
        <time>2020-08-14T09:53:38.393Z</time>
      </trkpt>
      <trkpt lat="66.06728" lon="12.91654">
        <ele>78.589594</ele>
        <time>2020-08-14T09:53:41.421Z</time>
      </trkpt>
      <trkpt lat="66.06727" lon="12.91687">
        <ele>78.404123</ele>
        <time>2020-08-14T09:53:44.376Z</time>
      </trkpt>
      <trkpt lat="66.06726" lon="12.9171">
        <ele>78.271522</ele>
        <time>2020-08-14T09:53:46.419Z</time>
      </trkpt>
      <trkpt lat="66.06724" lon="12.91734">
        <ele>78.134628</ele>
        <time>2020-08-14T09:53:48.395Z</time>
      </trkpt>
      <trkpt lat="66.06723" lon="12.91758">
        <ele>77.995213</ele>
        <time>2020-08-14T09:53:50.372Z</time>
      </trkpt>
      <trkpt lat="66.06722" lon="12.91781">
        <ele>77.86359</ele>
        <time>2020-08-14T09:53:52.393Z</time>
      </trkpt>
      <trkpt lat="66.06721" lon="12.91804">
        <ele>77.728718</ele>
        <time>2020-08-14T09:53:54.399Z</time>
      </trkpt>
      <trkpt lat="66.0672" lon="12.91828">
        <ele>77.594471</ele>
        <time>2020-08-14T09:53:56.387Z</time>
      </trkpt>
      <trkpt lat="66.06719" lon="12.91851">
        <ele>77.462918</ele>
        <time>2020-08-14T09:53:58.373Z</time>
      </trkpt>
      <trkpt lat="66.06718" lon="12.91873">
        <ele>77.334323</ele>
        <time>2020-08-14T09:54:00.372Z</time>
      </trkpt>
      <trkpt lat="66.06716" lon="12.91895">
        <ele>77.206746</ele>
        <time>2020-08-14T09:54:02.412Z</time>
      </trkpt>
      <trkpt lat="66.06715" lon="12.91918">
        <ele>77.074905</ele>
        <time>2020-08-14T09:54:04.370Z</time>
      </trkpt>
      <trkpt lat="66.06713" lon="12.9194">
        <ele>76.94419</ele>
        <time>2020-08-14T09:54:06.396Z</time>
      </trkpt>
      <trkpt lat="66.06712" lon="12.91963">
        <ele>76.811588</ele>
        <time>2020-08-14T09:54:08.372Z</time>
      </trkpt>
      <trkpt lat="66.06711" lon="12.91985">
        <ele>76.68466</ele>
        <time>2020-08-14T09:54:10.372Z</time>
      </trkpt>
      <trkpt lat="66.06711" lon="12.92008">
        <ele>76.554245</ele>
        <time>2020-08-14T09:54:12.382Z</time>
      </trkpt>
      <trkpt lat="66.0671" lon="12.92031">
        <ele>76.422053</ele>
        <time>2020-08-14T09:54:14.416Z</time>
      </trkpt>
      <trkpt lat="66.06708" lon="12.92053">
        <ele>76.316016</ele>
        <time>2020-08-14T09:54:16.419Z</time>
      </trkpt>
      <trkpt lat="66.06706" lon="12.92086">
        <ele>76.158472</ele>
        <time>2020-08-14T09:54:19.393Z</time>
      </trkpt>
      <trkpt lat="66.06704" lon="12.92118">
        <ele>76.00175</ele>
        <time>2020-08-14T09:54:22.397Z</time>
      </trkpt>
      <trkpt lat="66.06702" lon="12.92151">
        <ele>75.844247</ele>
        <time>2020-08-14T09:54:25.368Z</time>
      </trkpt>
      <trkpt lat="66.067" lon="12.92184">
        <ele>75.68564</ele>
        <time>2020-08-14T09:54:28.375Z</time>
      </trkpt>
      <trkpt lat="66.06699" lon="12.92207">
        <ele>75.576512</ele>
        <time>2020-08-14T09:54:30.394Z</time>
      </trkpt>
      <trkpt lat="66.06699" lon="12.92231">
        <ele>75.463435</ele>
        <time>2020-08-14T09:54:32.388Z</time>
      </trkpt>
      <trkpt lat="66.06698" lon="12.92255">
        <ele>75.346261</ele>
        <time>2020-08-14T09:54:34.374Z</time>
      </trkpt>
      <trkpt lat="66.06696" lon="12.9228">
        <ele>75.229155</ele>
        <time>2020-08-14T09:54:36.374Z</time>
      </trkpt>
      <trkpt lat="66.06695" lon="12.92304">
        <ele>75.111889</ele>
        <time>2020-08-14T09:54:38.376Z</time>
      </trkpt>
      <trkpt lat="66.06693" lon="12.92328">
        <ele>74.994454</ele>
        <time>2020-08-14T09:54:40.433Z</time>
      </trkpt>
      <trkpt lat="66.06692" lon="12.92353">
        <ele>74.873829</ele>
        <time>2020-08-14T09:54:42.407Z</time>
      </trkpt>
      <trkpt lat="66.0669" lon="12.92379">
        <ele>74.749161</ele>
        <time>2020-08-14T09:54:44.369Z</time>
      </trkpt>
      <trkpt lat="66.06688" lon="12.92405">
        <ele>74.625055</ele>
        <time>2020-08-14T09:54:46.402Z</time>
      </trkpt>
      <trkpt lat="66.06687" lon="12.92431">
        <ele>74.502268</ele>
        <time>2020-08-14T09:54:48.416Z</time>
      </trkpt>
      <trkpt lat="66.06685" lon="12.92455">
        <ele>74.382412</ele>
        <time>2020-08-14T09:54:50.390Z</time>
      </trkpt>
      <trkpt lat="66.06682" lon="12.92481">
        <ele>74.211452</ele>
        <time>2020-08-14T09:54:52.373Z</time>
      </trkpt>
      <trkpt lat="66.06681" lon="12.92507">
        <ele>73.981385</ele>
        <time>2020-08-14T09:54:54.372Z</time>
      </trkpt>
      <trkpt lat="66.06679" lon="12.92534">
        <ele>73.746467</ele>
        <time>2020-08-14T09:54:56.397Z</time>
      </trkpt>
      <trkpt lat="66.06677" lon="12.9256">
        <ele>73.513567</ele>
        <time>2020-08-14T09:54:58.375Z</time>
      </trkpt>
      <trkpt lat="66.06675" lon="12.92586">
        <ele>73.283635</ele>
        <time>2020-08-14T09:55:00.387Z</time>
      </trkpt>
      <trkpt lat="66.06673" lon="12.92612">
        <ele>73.046897</ele>
        <time>2020-08-14T09:55:02.392Z</time>
      </trkpt>
      <trkpt lat="66.06671" lon="12.9264">
        <ele>72.800099</ele>
        <time>2020-08-14T09:55:04.411Z</time>
      </trkpt>
      <trkpt lat="66.06669" lon="12.92668">
        <ele>72.554781</ele>
        <time>2020-08-14T09:55:06.380Z</time>
      </trkpt>
      <trkpt lat="66.06667" lon="12.92695">
        <ele>72.312429</ele>
        <time>2020-08-14T09:55:08.408Z</time>
      </trkpt>
      <trkpt lat="66.06665" lon="12.92722">
        <ele>72.071797</ele>
        <time>2020-08-14T09:55:10.383Z</time>
      </trkpt>
      <trkpt lat="66.06663" lon="12.9275">
        <ele>71.821546</ele>
        <time>2020-08-14T09:55:12.380Z</time>
      </trkpt>
      <trkpt lat="66.06661" lon="12.9278">
        <ele>71.556131</ele>
        <time>2020-08-14T09:55:14.425Z</time>
      </trkpt>
      <trkpt lat="66.06658" lon="12.9281">
        <ele>71.286427</ele>
        <time>2020-08-14T09:55:16.390Z</time>
      </trkpt>
      <trkpt lat="66.06656" lon="12.9284">
        <ele>71.020139</ele>
        <time>2020-08-14T09:55:18.378Z</time>
      </trkpt>
      <trkpt lat="66.06653" lon="12.9287">
        <ele>70.754705</ele>
        <time>2020-08-14T09:55:20.383Z</time>
      </trkpt>
      <trkpt lat="66.0665" lon="12.92899">
        <ele>70.490881</ele>
        <time>2020-08-14T09:55:22.409Z</time>
      </trkpt>
      <trkpt lat="66.06647" lon="12.92928">
        <ele>70.248119</ele>
        <time>2020-08-14T09:55:24.368Z</time>
      </trkpt>
      <trkpt lat="66.06644" lon="12.92958">
        <ele>70.003545</ele>
        <time>2020-08-14T09:55:26.379Z</time>
      </trkpt>
      <trkpt lat="66.0664" lon="12.92988">
        <ele>69.755813</ele>
        <time>2020-08-14T09:55:28.359Z</time>
      </trkpt>
      <trkpt lat="66.06636" lon="12.93018">
        <ele>69.508081</ele>
        <time>2020-08-14T09:55:30.392Z</time>
      </trkpt>
      <trkpt lat="66.06632" lon="12.93049">
        <ele>69.249514</ele>
        <time>2020-08-14T09:55:32.384Z</time>
      </trkpt>
      <trkpt lat="66.06626" lon="12.9308">
        <ele>68.981515</ele>
        <time>2020-08-14T09:55:34.414Z</time>
      </trkpt>
      <trkpt lat="66.06621" lon="12.9311">
        <ele>68.718354</ele>
        <time>2020-08-14T09:55:36.387Z</time>
      </trkpt>
      <trkpt lat="66.06615" lon="12.93139">
        <ele>68.465369</ele>
        <time>2020-08-14T09:55:38.391Z</time>
      </trkpt>
      <trkpt lat="66.06608" lon="12.93167">
        <ele>68.20755</ele>
        <time>2020-08-14T09:55:40.388Z</time>
      </trkpt>
      <trkpt lat="66.06602" lon="12.93196">
        <ele>67.954132</ele>
        <time>2020-08-14T09:55:42.418Z</time>
      </trkpt>
      <trkpt lat="66.06596" lon="12.93221">
        <ele>67.722198</ele>
        <time>2020-08-14T09:55:44.399Z</time>
      </trkpt>
      <trkpt lat="66.06591" lon="12.93244">
        <ele>67.510578</ele>
        <time>2020-08-14T09:55:46.372Z</time>
      </trkpt>
      <trkpt lat="66.06585" lon="12.93267">
        <ele>67.300903</ele>
        <time>2020-08-14T09:55:48.368Z</time>
      </trkpt>
      <trkpt lat="66.0658" lon="12.93291">
        <ele>67.085702</ele>
        <time>2020-08-14T09:55:50.377Z</time>
      </trkpt>
      <trkpt lat="66.06575" lon="12.93315">
        <ele>66.939372</ele>
        <time>2020-08-14T09:55:52.372Z</time>
      </trkpt>
      <trkpt lat="66.0657" lon="12.93338">
        <ele>66.954417</ele>
        <time>2020-08-14T09:55:54.397Z</time>
      </trkpt>
      <trkpt lat="66.06565" lon="12.93361">
        <ele>66.969427</ele>
        <time>2020-08-14T09:55:56.393Z</time>
      </trkpt>
      <trkpt lat="66.0656" lon="12.93383">
        <ele>66.983863</ele>
        <time>2020-08-14T09:55:58.381Z</time>
      </trkpt>
      <trkpt lat="66.06556" lon="12.93404">
        <ele>66.997548</ele>
        <time>2020-08-14T09:56:00.376Z</time>
      </trkpt>
      <trkpt lat="66.06552" lon="12.93424">
        <ele>67.010315</ele>
        <time>2020-08-14T09:56:02.416Z</time>
      </trkpt>
      <trkpt lat="66.06547" lon="12.9345">
        <ele>67.027178</ele>
        <time>2020-08-14T09:56:05.383Z</time>
      </trkpt>
      <trkpt lat="66.06543" lon="12.93473">
        <ele>67.041465</ele>
        <time>2020-08-14T09:56:08.369Z</time>
      </trkpt>
      <trkpt lat="66.06539" lon="12.93496">
        <ele>67.05598</ele>
        <time>2020-08-14T09:56:11.372Z</time>
      </trkpt>
      <trkpt lat="66.06533" lon="12.93521">
        <ele>67.072243</ele>
        <time>2020-08-14T09:56:14.403Z</time>
      </trkpt>
      <trkpt lat="66.06528" lon="12.93549">
        <ele>67.089853</ele>
        <time>2020-08-14T09:56:17.394Z</time>
      </trkpt>
      <trkpt lat="66.06522" lon="12.93575">
        <ele>67.106938</ele>
        <time>2020-08-14T09:56:20.377Z</time>
      </trkpt>
      <trkpt lat="66.06516" lon="12.93601">
        <ele>67.123956</ele>
        <time>2020-08-14T09:56:23.390Z</time>
      </trkpt>
      <trkpt lat="66.0651" lon="12.93626">
        <ele>67.140813</ele>
        <time>2020-08-14T09:56:26.377Z</time>
      </trkpt>
      <trkpt lat="66.06504" lon="12.93655">
        <ele>67.159232</ele>
        <time>2020-08-14T09:56:29.375Z</time>
      </trkpt>
      <trkpt lat="66.065" lon="12.93675">
        <ele>67.172058</ele>
        <time>2020-08-14T09:56:31.376Z</time>
      </trkpt>
      <trkpt lat="66.06496" lon="12.93694">
        <ele>67.184846</ele>
        <time>2020-08-14T09:56:33.375Z</time>
      </trkpt>
      <trkpt lat="66.06492" lon="12.93715">
        <ele>66.958722</ele>
        <time>2020-08-14T09:56:35.421Z</time>
      </trkpt>
      <trkpt lat="66.06488" lon="12.93735">
        <ele>66.561723</ele>
        <time>2020-08-14T09:56:37.380Z</time>
      </trkpt>
      <trkpt lat="66.06482" lon="12.93754">
        <ele>66.147958</ele>
        <time>2020-08-14T09:56:39.393Z</time>
      </trkpt>
      <trkpt lat="66.06474" lon="12.93763">
        <ele>65.766309</ele>
        <time>2020-08-14T09:56:41.375Z</time>
      </trkpt>
      <trkpt lat="66.06467" lon="12.93748">
        <ele>65.382443</ele>
        <time>2020-08-14T09:56:43.386Z</time>
      </trkpt>
      <trkpt lat="66.06465" lon="12.93724">
        <ele>64.950225</ele>
        <time>2020-08-14T09:56:45.387Z</time>
      </trkpt>
      <trkpt lat="66.06466" lon="12.937">
        <ele>64.537302</ele>
        <time>2020-08-14T09:56:47.371Z</time>
      </trkpt>
      <trkpt lat="66.06474" lon="12.93677">
        <ele>64.016876</ele>
        <time>2020-08-14T09:56:50.380Z</time>
      </trkpt>
      <trkpt lat="66.0648" lon="12.93658">
        <ele>63.594146</ele>
        <time>2020-08-14T09:56:53.374Z</time>
      </trkpt>
      <trkpt lat="66.06487" lon="12.93636">
        <ele>63.130579</ele>
        <time>2020-08-14T09:56:57.372Z</time>
      </trkpt>
      <trkpt lat="66.06492" lon="12.93615">
        <ele>62.701591</ele>
        <time>2020-08-14T09:57:03.387Z</time>
      </trkpt>
      <trkpt lat="66.06484" lon="12.93588">
        <ele>62.143551</ele>
        <time>2020-08-14T09:58:41.402Z</time>
      </trkpt>
      <trkpt lat="66.06476" lon="12.93566">
        <ele>61.616204</ele>
        <time>2020-08-14T09:59:37.377Z</time>
      </trkpt>
      <trkpt lat="66.06473" lon="12.93544">
        <ele>61.217701</ele>
        <time>2020-08-14T09:59:51.386Z</time>
      </trkpt>
      <trkpt lat="66.06474" lon="12.93521">
        <ele>60.810597</ele>
        <time>2020-08-14T09:59:59.380Z</time>
      </trkpt>
      <trkpt lat="66.06476" lon="12.935">
        <ele>60.429628</ele>
        <time>2020-08-14T10:00:37.382Z</time>
      </trkpt>
      <trkpt lat="66.06485" lon="12.93532">
        <ele>59.755396</ele>
        <time>2020-08-14T10:04:53.384Z</time>
      </trkpt>
      <trkpt lat="66.06476" lon="12.93542">
        <ele>59.72386</ele>
        <time>2020-08-14T10:05:07.375Z</time>
      </trkpt>
      <trkpt lat="66.06473" lon="12.9357">
        <ele>60.15956</ele>
        <time>2020-08-14T10:07:03.427Z</time>
      </trkpt>
      <trkpt lat="66.06481" lon="12.93557">
        <ele>60.497275</ele>
        <time>2020-08-14T10:09:58.375Z</time>
      </trkpt>
      <trkpt lat="66.0648" lon="12.93534">
        <ele>60.844555</ele>
        <time>2020-08-14T10:10:09.387Z</time>
      </trkpt>
      <trkpt lat="66.06486" lon="12.93492">
        <ele>61.517548</ele>
        <time>2020-08-14T10:16:17.372Z</time>
      </trkpt>
      <trkpt lat="66.06477" lon="12.93592">
        <ele>63.06505</ele>
        <time>2020-08-14T10:19:05.386Z</time>
      </trkpt>
      <trkpt lat="66.06484" lon="12.93607">
        <ele>63.42595</ele>
        <time>2020-08-14T10:19:21.417Z</time>
      </trkpt>
      <trkpt lat="66.065" lon="12.93635">
        <ele>64.14955</ele>
        <time>2020-08-14T10:27:49.405Z</time>
      </trkpt>
      <trkpt lat="66.0649" lon="12.93642">
        <ele>64.544278</ele>
        <time>2020-08-14T10:27:53.409Z</time>
      </trkpt>
      <trkpt lat="66.06482" lon="12.93663">
        <ele>64.96439</ele>
        <time>2020-08-14T10:27:57.376Z</time>
      </trkpt>
      <trkpt lat="66.06474" lon="12.93681">
        <ele>65.371463</ele>
        <time>2020-08-14T10:28:00.393Z</time>
      </trkpt>
      <trkpt lat="66.06468" lon="12.93703">
        <ele>65.769901</ele>
        <time>2020-08-14T10:28:03.416Z</time>
      </trkpt>
      <trkpt lat="66.06465" lon="12.93733">
        <ele>66.234698</ele>
        <time>2020-08-14T10:28:06.384Z</time>
      </trkpt>
      <trkpt lat="66.0647" lon="12.93755">
        <ele>66.352622</ele>
        <time>2020-08-14T10:28:09.377Z</time>
      </trkpt>
      <trkpt lat="66.06473" lon="12.93778">
        <ele>66.465164</ele>
        <time>2020-08-14T10:28:12.392Z</time>
      </trkpt>
      <trkpt lat="66.0647" lon="12.93798">
        <ele>66.56815</ele>
        <time>2020-08-14T10:28:14.396Z</time>
      </trkpt>
      <trkpt lat="66.06464" lon="12.93817">
        <ele>66.678938</ele>
        <time>2020-08-14T10:28:16.431Z</time>
      </trkpt>
      <trkpt lat="66.06459" lon="12.93839">
        <ele>66.796209</ele>
        <time>2020-08-14T10:28:18.382Z</time>
      </trkpt>
      <trkpt lat="66.06454" lon="12.93861">
        <ele>66.914209</ele>
        <time>2020-08-14T10:28:20.372Z</time>
      </trkpt>
      <trkpt lat="66.06449" lon="12.93883">
        <ele>67.030573</ele>
        <time>2020-08-14T10:28:22.380Z</time>
      </trkpt>
      <trkpt lat="66.06444" lon="12.93906">
        <ele>67.155009</ele>
        <time>2020-08-14T10:28:24.376Z</time>
      </trkpt>
      <trkpt lat="66.0644" lon="12.93931">
        <ele>67.278791</ele>
        <time>2020-08-14T10:28:26.417Z</time>
      </trkpt>
      <trkpt lat="66.06436" lon="12.93953">
        <ele>67.39174</ele>
        <time>2020-08-14T10:28:28.385Z</time>
      </trkpt>
      <trkpt lat="66.06433" lon="12.93976">
        <ele>67.505788</ele>
        <time>2020-08-14T10:28:30.379Z</time>
      </trkpt>
      <trkpt lat="66.0643" lon="12.94">
        <ele>67.623601</ele>
        <time>2020-08-14T10:28:32.425Z</time>
      </trkpt>
      <trkpt lat="66.06427" lon="12.94029">
        <ele>67.76092</ele>
        <time>2020-08-14T10:28:34.388Z</time>
      </trkpt>
      <trkpt lat="66.06423" lon="12.9406">
        <ele>67.912539</ele>
        <time>2020-08-14T10:28:36.398Z</time>
      </trkpt>
      <trkpt lat="66.0642" lon="12.94095">
        <ele>68.081679</ele>
        <time>2020-08-14T10:28:38.377Z</time>
      </trkpt>
      <trkpt lat="66.06417" lon="12.94131">
        <ele>68.250761</ele>
        <time>2020-08-14T10:28:40.404Z</time>
      </trkpt>
      <trkpt lat="66.06415" lon="12.94164">
        <ele>68.251282</ele>
        <time>2020-08-14T10:28:42.387Z</time>
      </trkpt>
      <trkpt lat="66.06411" lon="12.94195">
        <ele>68.170552</ele>
        <time>2020-08-14T10:28:44.386Z</time>
      </trkpt>
      <trkpt lat="66.06409" lon="12.94223">
        <ele>68.094805</ele>
        <time>2020-08-14T10:28:46.408Z</time>
      </trkpt>
      <trkpt lat="66.06407" lon="12.94251">
        <ele>68.02317</ele>
        <time>2020-08-14T10:28:48.375Z</time>
      </trkpt>
      <trkpt lat="66.06405" lon="12.94278">
        <ele>67.952839</ele>
        <time>2020-08-14T10:28:50.375Z</time>
      </trkpt>
      <trkpt lat="66.06403" lon="12.94304">
        <ele>67.884943</ele>
        <time>2020-08-14T10:28:52.397Z</time>
      </trkpt>
      <trkpt lat="66.06403" lon="12.94332">
        <ele>67.813692</ele>
        <time>2020-08-14T10:28:54.438Z</time>
      </trkpt>
      <trkpt lat="66.06402" lon="12.94362">
        <ele>67.736279</ele>
        <time>2020-08-14T10:28:56.399Z</time>
      </trkpt>
      <trkpt lat="66.06402" lon="12.94394">
        <ele>67.655547</ele>
        <time>2020-08-14T10:28:58.460Z</time>
      </trkpt>
      <trkpt lat="66.06402" lon="12.94424">
        <ele>67.57636</ele>
        <time>2020-08-14T10:29:00.397Z</time>
      </trkpt>
      <trkpt lat="66.06403" lon="12.94455">
        <ele>67.497922</ele>
        <time>2020-08-14T10:29:02.388Z</time>
      </trkpt>
      <trkpt lat="66.06403" lon="12.94485">
        <ele>67.421173</ele>
        <time>2020-08-14T10:29:04.433Z</time>
      </trkpt>
      <trkpt lat="66.06405" lon="12.94514">
        <ele>67.345061</ele>
        <time>2020-08-14T10:29:06.390Z</time>
      </trkpt>
      <trkpt lat="66.06407" lon="12.94544">
        <ele>67.2673</ele>
        <time>2020-08-14T10:29:08.386Z</time>
      </trkpt>
      <trkpt lat="66.0641" lon="12.94573">
        <ele>67.190437</ele>
        <time>2020-08-14T10:29:10.442Z</time>
      </trkpt>
      <trkpt lat="66.06414" lon="12.94601">
        <ele>66.880332</ele>
        <time>2020-08-14T10:29:12.376Z</time>
      </trkpt>
      <trkpt lat="66.06418" lon="12.94629">
        <ele>66.490849</ele>
        <time>2020-08-14T10:29:14.406Z</time>
      </trkpt>
      <trkpt lat="66.06423" lon="12.94656">
        <ele>66.096602</ele>
        <time>2020-08-14T10:29:16.396Z</time>
      </trkpt>
      <trkpt lat="66.06428" lon="12.94682">
        <ele>65.720512</ele>
        <time>2020-08-14T10:29:18.394Z</time>
      </trkpt>
      <trkpt lat="66.06434" lon="12.94707">
        <ele>65.344068</ele>
        <time>2020-08-14T10:29:20.416Z</time>
      </trkpt>
      <trkpt lat="66.06439" lon="12.94731">
        <ele>64.970907</ele>
        <time>2020-08-14T10:29:22.400Z</time>
      </trkpt>
      <trkpt lat="66.06446" lon="12.94756">
        <ele>64.585898</ele>
        <time>2020-08-14T10:29:24.377Z</time>
      </trkpt>
      <trkpt lat="66.06452" lon="12.94779">
        <ele>64.215214</ele>
        <time>2020-08-14T10:29:26.395Z</time>
      </trkpt>
      <trkpt lat="66.06458" lon="12.94803">
        <ele>63.851776</ele>
        <time>2020-08-14T10:29:28.420Z</time>
      </trkpt>
      <trkpt lat="66.06464" lon="12.94826">
        <ele>63.484717</ele>
        <time>2020-08-14T10:29:30.385Z</time>
      </trkpt>
      <trkpt lat="66.0647" lon="12.94849">
        <ele>63.122314</ele>
        <time>2020-08-14T10:29:32.393Z</time>
      </trkpt>
      <trkpt lat="66.06476" lon="12.94872">
        <ele>62.769032</ele>
        <time>2020-08-14T10:29:34.384Z</time>
      </trkpt>
      <trkpt lat="66.06481" lon="12.94895">
        <ele>62.408976</ele>
        <time>2020-08-14T10:29:36.397Z</time>
      </trkpt>
      <trkpt lat="66.06487" lon="12.94918">
        <ele>62.045462</ele>
        <time>2020-08-14T10:29:38.393Z</time>
      </trkpt>
      <trkpt lat="66.06493" lon="12.94941">
        <ele>61.689268</ele>
        <time>2020-08-14T10:29:40.425Z</time>
      </trkpt>
      <trkpt lat="66.06499" lon="12.94963">
        <ele>61.33879</ele>
        <time>2020-08-14T10:29:42.382Z</time>
      </trkpt>
      <trkpt lat="66.06505" lon="12.94985">
        <ele>61.219273</ele>
        <time>2020-08-14T10:29:44.382Z</time>
      </trkpt>
      <trkpt lat="66.06511" lon="12.95006">
        <ele>61.1211</ele>
        <time>2020-08-14T10:29:46.386Z</time>
      </trkpt>
      <trkpt lat="66.06517" lon="12.95029">
        <ele>61.018241</ele>
        <time>2020-08-14T10:29:48.397Z</time>
      </trkpt>
      <trkpt lat="66.06523" lon="12.95052">
        <ele>60.911774</ele>
        <time>2020-08-14T10:29:50.384Z</time>
      </trkpt>
      <trkpt lat="66.06529" lon="12.95076">
        <ele>60.80194</ele>
        <time>2020-08-14T10:29:52.401Z</time>
      </trkpt>
      <trkpt lat="66.06536" lon="12.951">
        <ele>60.692313</ele>
        <time>2020-08-14T10:29:54.385Z</time>
      </trkpt>
      <trkpt lat="66.06542" lon="12.95124">
        <ele>60.581404</ele>
        <time>2020-08-14T10:29:56.392Z</time>
      </trkpt>
      <trkpt lat="66.06549" lon="12.95149">
        <ele>60.468881</ele>
        <time>2020-08-14T10:29:58.383Z</time>
      </trkpt>
      <trkpt lat="66.06554" lon="12.95173">
        <ele>60.359824</ele>
        <time>2020-08-14T10:30:00.432Z</time>
      </trkpt>
      <trkpt lat="66.0656" lon="12.95196">
        <ele>60.254517</ele>
        <time>2020-08-14T10:30:02.397Z</time>
      </trkpt>
      <trkpt lat="66.06566" lon="12.95219">
        <ele>60.15153</ele>
        <time>2020-08-14T10:30:04.384Z</time>
      </trkpt>
      <trkpt lat="66.06572" lon="12.95241">
        <ele>60.048588</ele>
        <time>2020-08-14T10:30:06.388Z</time>
      </trkpt>
      <trkpt lat="66.06579" lon="12.95265">
        <ele>59.938437</ele>
        <time>2020-08-14T10:30:08.393Z</time>
      </trkpt>
      <trkpt lat="66.06585" lon="12.9529">
        <ele>59.8284</ele>
        <time>2020-08-14T10:30:10.372Z</time>
      </trkpt>
      <trkpt lat="66.06591" lon="12.95314">
        <ele>59.720488</ele>
        <time>2020-08-14T10:30:12.387Z</time>
      </trkpt>
      <trkpt lat="66.06597" lon="12.95337">
        <ele>59.614858</ele>
        <time>2020-08-14T10:30:14.417Z</time>
      </trkpt>
      <trkpt lat="66.06603" lon="12.9536">
        <ele>59.703772</ele>
        <time>2020-08-14T10:30:16.416Z</time>
      </trkpt>
      <trkpt lat="66.06608" lon="12.95381">
        <ele>59.791994</ele>
        <time>2020-08-14T10:30:18.400Z</time>
      </trkpt>
      <trkpt lat="66.06613" lon="12.95402">
        <ele>59.876488</ele>
        <time>2020-08-14T10:30:20.407Z</time>
      </trkpt>
      <trkpt lat="66.06618" lon="12.95423">
        <ele>59.963079</ele>
        <time>2020-08-14T10:30:22.370Z</time>
      </trkpt>
      <trkpt lat="66.06624" lon="12.95446">
        <ele>60.053985</ele>
        <time>2020-08-14T10:30:24.398Z</time>
      </trkpt>
      <trkpt lat="66.06629" lon="12.95468">
        <ele>60.144597</ele>
        <time>2020-08-14T10:30:26.402Z</time>
      </trkpt>
      <trkpt lat="66.06635" lon="12.95489">
        <ele>60.231981</ele>
        <time>2020-08-14T10:30:28.401Z</time>
      </trkpt>
      <trkpt lat="66.0664" lon="12.95509">
        <ele>60.317842</ele>
        <time>2020-08-14T10:30:30.395Z</time>
      </trkpt>
      <trkpt lat="66.06645" lon="12.95529">
        <ele>60.399803</ele>
        <time>2020-08-14T10:30:32.383Z</time>
      </trkpt>
      <trkpt lat="66.06651" lon="12.95549">
        <ele>60.482386</ele>
        <time>2020-08-14T10:30:34.399Z</time>
      </trkpt>
      <trkpt lat="66.06656" lon="12.9557">
        <ele>60.570826</ele>
        <time>2020-08-14T10:30:36.423Z</time>
      </trkpt>
      <trkpt lat="66.06661" lon="12.95591">
        <ele>60.654009</ele>
        <time>2020-08-14T10:30:38.386Z</time>
      </trkpt>
      <trkpt lat="66.06666" lon="12.95612">
        <ele>60.740166</ele>
        <time>2020-08-14T10:30:40.382Z</time>
      </trkpt>
      <trkpt lat="66.06671" lon="12.95635">
        <ele>60.82793</ele>
        <time>2020-08-14T10:30:42.425Z</time>
      </trkpt>
      <trkpt lat="66.06676" lon="12.95657">
        <ele>60.919069</ele>
        <time>2020-08-14T10:30:44.375Z</time>
      </trkpt>
      <trkpt lat="66.06681" lon="12.95681">
        <ele>61.011338</ele>
        <time>2020-08-14T10:30:46.414Z</time>
      </trkpt>
      <trkpt lat="66.06686" lon="12.95704">
        <ele>61.102783</ele>
        <time>2020-08-14T10:30:48.376Z</time>
      </trkpt>
      <trkpt lat="66.06691" lon="12.95727">
        <ele>61.185675</ele>
        <time>2020-08-14T10:30:50.387Z</time>
      </trkpt>
      <trkpt lat="66.06696" lon="12.95752">
        <ele>61.254665</ele>
        <time>2020-08-14T10:30:52.412Z</time>
      </trkpt>
      <trkpt lat="66.06702" lon="12.95776">
        <ele>61.32523</ele>
        <time>2020-08-14T10:30:54.390Z</time>
      </trkpt>
      <trkpt lat="66.06706" lon="12.95801">
        <ele>61.393106</ele>
        <time>2020-08-14T10:30:56.385Z</time>
      </trkpt>
      <trkpt lat="66.06711" lon="12.95825">
        <ele>61.460682</ele>
        <time>2020-08-14T10:30:58.392Z</time>
      </trkpt>
      <trkpt lat="66.06715" lon="12.95849">
        <ele>61.52775</ele>
        <time>2020-08-14T10:31:00.394Z</time>
      </trkpt>
      <trkpt lat="66.0672" lon="12.95875">
        <ele>61.598331</ele>
        <time>2020-08-14T10:31:02.394Z</time>
      </trkpt>
      <trkpt lat="66.06724" lon="12.959">
        <ele>61.667486</ele>
        <time>2020-08-14T10:31:04.404Z</time>
      </trkpt>
      <trkpt lat="66.06728" lon="12.95926">
        <ele>61.73852</ele>
        <time>2020-08-14T10:31:06.386Z</time>
      </trkpt>
      <trkpt lat="66.06733" lon="12.95953">
        <ele>61.811663</ele>
        <time>2020-08-14T10:31:08.393Z</time>
      </trkpt>
      <trkpt lat="66.06737" lon="12.95979">
        <ele>61.883164</ele>
        <time>2020-08-14T10:31:10.395Z</time>
      </trkpt>
      <trkpt lat="66.06742" lon="12.96007">
        <ele>61.960062</ele>
        <time>2020-08-14T10:31:12.414Z</time>
      </trkpt>
      <trkpt lat="66.06747" lon="12.96034">
        <ele>62.036277</ele>
        <time>2020-08-14T10:31:14.389Z</time>
      </trkpt>
      <trkpt lat="66.06752" lon="12.96063">
        <ele>62.115541</ele>
        <time>2020-08-14T10:31:16.383Z</time>
      </trkpt>
      <trkpt lat="66.06757" lon="12.96091">
        <ele>62.193397</ele>
        <time>2020-08-14T10:31:18.384Z</time>
      </trkpt>
      <trkpt lat="66.06761" lon="12.96119">
        <ele>62.269349</ele>
        <time>2020-08-14T10:31:20.413Z</time>
      </trkpt>
      <trkpt lat="66.06766" lon="12.96146">
        <ele>62.284653</ele>
        <time>2020-08-14T10:31:22.409Z</time>
      </trkpt>
      <trkpt lat="66.0677" lon="12.96173">
        <ele>62.290391</ele>
        <time>2020-08-14T10:31:24.400Z</time>
      </trkpt>
      <trkpt lat="66.06774" lon="12.962">
        <ele>62.29615</ele>
        <time>2020-08-14T10:31:26.381Z</time>
      </trkpt>
      <trkpt lat="66.06778" lon="12.96226">
        <ele>62.301945</ele>
        <time>2020-08-14T10:31:28.417Z</time>
      </trkpt>
      <trkpt lat="66.06783" lon="12.96256">
        <ele>62.308429</ele>
        <time>2020-08-14T10:31:30.370Z</time>
      </trkpt>
      <trkpt lat="66.06788" lon="12.96286">
        <ele>62.314967</ele>
        <time>2020-08-14T10:31:32.389Z</time>
      </trkpt>
      <trkpt lat="66.06794" lon="12.96316">
        <ele>62.32158</ele>
        <time>2020-08-14T10:31:34.430Z</time>
      </trkpt>
      <trkpt lat="66.06799" lon="12.96346">
        <ele>62.328044</ele>
        <time>2020-08-14T10:31:36.392Z</time>
      </trkpt>
      <trkpt lat="66.06803" lon="12.96376">
        <ele>62.334326</ele>
        <time>2020-08-14T10:31:38.426Z</time>
      </trkpt>
      <trkpt lat="66.06807" lon="12.96406">
        <ele>62.340813</ele>
        <time>2020-08-14T10:31:40.416Z</time>
      </trkpt>
      <trkpt lat="66.06812" lon="12.96437">
        <ele>62.347377</ele>
        <time>2020-08-14T10:31:42.375Z</time>
      </trkpt>
      <trkpt lat="66.06816" lon="12.96468">
        <ele>62.353995</ele>
        <time>2020-08-14T10:31:44.400Z</time>
      </trkpt>
      <trkpt lat="66.06821" lon="12.96499">
        <ele>62.360666</ele>
        <time>2020-08-14T10:31:46.403Z</time>
      </trkpt>
      <trkpt lat="66.06826" lon="12.96529">
        <ele>62.367094</ele>
        <time>2020-08-14T10:31:48.388Z</time>
      </trkpt>
      <trkpt lat="66.0683" lon="12.96558">
        <ele>62.476029</ele>
        <time>2020-08-14T10:31:50.378Z</time>
      </trkpt>
      <trkpt lat="66.06835" lon="12.96587">
        <ele>62.617912</ele>
        <time>2020-08-14T10:31:52.373Z</time>
      </trkpt>
      <trkpt lat="66.0684" lon="12.96617">
        <ele>62.763584</ele>
        <time>2020-08-14T10:31:54.384Z</time>
      </trkpt>
      <trkpt lat="66.06845" lon="12.96646">
        <ele>62.909263</ele>
        <time>2020-08-14T10:31:56.388Z</time>
      </trkpt>
      <trkpt lat="66.0685" lon="12.96675">
        <ele>63.050289</ele>
        <time>2020-08-14T10:31:58.394Z</time>
      </trkpt>
      <trkpt lat="66.06854" lon="12.96703">
        <ele>63.18625</ele>
        <time>2020-08-14T10:32:00.410Z</time>
      </trkpt>
      <trkpt lat="66.06859" lon="12.9673">
        <ele>63.32308</ele>
        <time>2020-08-14T10:32:02.395Z</time>
      </trkpt>
      <trkpt lat="66.06863" lon="12.96758">
        <ele>63.458221</ele>
        <time>2020-08-14T10:32:04.380Z</time>
      </trkpt>
      <trkpt lat="66.06868" lon="12.96785">
        <ele>63.591648</ele>
        <time>2020-08-14T10:32:06.386Z</time>
      </trkpt>
      <trkpt lat="66.06872" lon="12.96813">
        <ele>63.727194</ele>
        <time>2020-08-14T10:32:08.389Z</time>
      </trkpt>
      <trkpt lat="66.06876" lon="12.96841">
        <ele>63.860692</ele>
        <time>2020-08-14T10:32:10.377Z</time>
      </trkpt>
      <trkpt lat="66.0688" lon="12.96868">
        <ele>63.992708</ele>
        <time>2020-08-14T10:32:12.386Z</time>
      </trkpt>
      <trkpt lat="66.06883" lon="12.96894">
        <ele>64.119613</ele>
        <time>2020-08-14T10:32:14.392Z</time>
      </trkpt>
      <trkpt lat="66.06887" lon="12.96921">
        <ele>64.245299</ele>
        <time>2020-08-14T10:32:16.373Z</time>
      </trkpt>
      <trkpt lat="66.0689" lon="12.96946">
        <ele>64.364413</ele>
        <time>2020-08-14T10:32:18.404Z</time>
      </trkpt>
      <trkpt lat="66.06893" lon="12.96971">
        <ele>64.267182</ele>
        <time>2020-08-14T10:32:20.396Z</time>
      </trkpt>
      <trkpt lat="66.06896" lon="12.96996">
        <ele>64.123997</ele>
        <time>2020-08-14T10:32:22.396Z</time>
      </trkpt>
      <trkpt lat="66.06898" lon="12.9702">
        <ele>63.983816</ele>
        <time>2020-08-14T10:32:24.382Z</time>
      </trkpt>
      <trkpt lat="66.069" lon="12.97044">
        <ele>63.846147</ele>
        <time>2020-08-14T10:32:26.396Z</time>
      </trkpt>
      <trkpt lat="66.06902" lon="12.97067">
        <ele>63.713982</ele>
        <time>2020-08-14T10:32:28.423Z</time>
      </trkpt>
      <trkpt lat="66.06903" lon="12.9709">
        <ele>63.583927</ele>
        <time>2020-08-14T10:32:30.387Z</time>
      </trkpt>
      <trkpt lat="66.06904" lon="12.97113">
        <ele>63.451282</ele>
        <time>2020-08-14T10:32:32.375Z</time>
      </trkpt>
      <trkpt lat="66.06907" lon="12.97138">
        <ele>63.305843</ele>
        <time>2020-08-14T10:32:34.427Z</time>
      </trkpt>
      <trkpt lat="66.06909" lon="12.97165">
        <ele>63.15185</ele>
        <time>2020-08-14T10:32:36.381Z</time>
      </trkpt>
      <trkpt lat="66.06911" lon="12.97195">
        <ele>62.979043</ele>
        <time>2020-08-14T10:32:38.389Z</time>
      </trkpt>
      <trkpt lat="66.06914" lon="12.97227">
        <ele>62.796914</ele>
        <time>2020-08-14T10:32:40.409Z</time>
      </trkpt>
      <trkpt lat="66.06917" lon="12.9726">
        <ele>62.607325</ele>
        <time>2020-08-14T10:32:42.421Z</time>
      </trkpt>
      <trkpt lat="66.0692" lon="12.97293">
        <ele>62.413039</ele>
        <time>2020-08-14T10:32:44.375Z</time>
      </trkpt>
      <trkpt lat="66.06922" lon="12.97328">
        <ele>62.216539</ele>
        <time>2020-08-14T10:32:46.389Z</time>
      </trkpt>
      <trkpt lat="66.06925" lon="12.97364">
        <ele>62.007329</ele>
        <time>2020-08-14T10:32:48.401Z</time>
      </trkpt>
      <trkpt lat="66.06928" lon="12.97402">
        <ele>61.716506</ele>
        <time>2020-08-14T10:32:50.405Z</time>
      </trkpt>
      <trkpt lat="66.06932" lon="12.9744">
        <ele>61.348775</ele>
        <time>2020-08-14T10:32:52.382Z</time>
      </trkpt>
      <trkpt lat="66.06935" lon="12.97477">
        <ele>60.986712</ele>
        <time>2020-08-14T10:32:54.391Z</time>
      </trkpt>
      <trkpt lat="66.06937" lon="12.97514">
        <ele>60.624606</ele>
        <time>2020-08-14T10:32:56.372Z</time>
      </trkpt>
      <trkpt lat="66.0694" lon="12.97551">
        <ele>60.260496</ele>
        <time>2020-08-14T10:32:58.373Z</time>
      </trkpt>
      <trkpt lat="66.06943" lon="12.97588">
        <ele>59.897445</ele>
        <time>2020-08-14T10:33:00.383Z</time>
      </trkpt>
      <trkpt lat="66.06945" lon="12.97626">
        <ele>59.527242</ele>
        <time>2020-08-14T10:33:02.378Z</time>
      </trkpt>
      <trkpt lat="66.06948" lon="12.97664">
        <ele>59.152699</ele>
        <time>2020-08-14T10:33:04.380Z</time>
      </trkpt>
      <trkpt lat="66.0695" lon="12.97704">
        <ele>58.770023</ele>
        <time>2020-08-14T10:33:06.393Z</time>
      </trkpt>
      <trkpt lat="66.06952" lon="12.97743">
        <ele>58.387876</ele>
        <time>2020-08-14T10:33:08.385Z</time>
      </trkpt>
      <trkpt lat="66.06953" lon="12.97783">
        <ele>58.002961</ele>
        <time>2020-08-14T10:33:10.381Z</time>
      </trkpt>
      <trkpt lat="66.06953" lon="12.97823">
        <ele>57.621271</ele>
        <time>2020-08-14T10:33:12.385Z</time>
      </trkpt>
      <trkpt lat="66.06954" lon="12.97863">
        <ele>57.524634</ele>
        <time>2020-08-14T10:33:14.384Z</time>
      </trkpt>
      <trkpt lat="66.06954" lon="12.97903">
        <ele>57.428297</ele>
        <time>2020-08-14T10:33:16.391Z</time>
      </trkpt>
      <trkpt lat="66.06954" lon="12.97942">
        <ele>57.333413</ele>
        <time>2020-08-14T10:33:18.377Z</time>
      </trkpt>
      <trkpt lat="66.06955" lon="12.97981">
        <ele>57.23899</ele>
        <time>2020-08-14T10:33:20.401Z</time>
      </trkpt>
      <trkpt lat="66.06955" lon="12.9802">
        <ele>57.145777</ele>
        <time>2020-08-14T10:33:22.391Z</time>
      </trkpt>
      <trkpt lat="66.06955" lon="12.98058">
        <ele>57.052103</ele>
        <time>2020-08-14T10:33:24.391Z</time>
      </trkpt>
      <trkpt lat="66.06956" lon="12.98097">
        <ele>56.958429</ele>
        <time>2020-08-14T10:33:26.424Z</time>
      </trkpt>
      <trkpt lat="66.06956" lon="12.98136">
        <ele>56.864987</ele>
        <time>2020-08-14T10:33:28.382Z</time>
      </trkpt>
      <trkpt lat="66.06956" lon="12.98174">
        <ele>56.772765</ele>
        <time>2020-08-14T10:33:30.386Z</time>
      </trkpt>
      <trkpt lat="66.06957" lon="12.98212">
        <ele>56.679514</ele>
        <time>2020-08-14T10:33:32.413Z</time>
      </trkpt>
      <trkpt lat="66.06957" lon="12.9825">
        <ele>56.587901</ele>
        <time>2020-08-14T10:33:34.394Z</time>
      </trkpt>
      <trkpt lat="66.06958" lon="12.98287">
        <ele>56.487059</ele>
        <time>2020-08-14T10:33:36.368Z</time>
      </trkpt>
      <trkpt lat="66.06959" lon="12.98323">
        <ele>56.378969</ele>
        <time>2020-08-14T10:33:38.376Z</time>
      </trkpt>
      <trkpt lat="66.06961" lon="12.98359">
        <ele>56.269816</ele>
        <time>2020-08-14T10:33:40.375Z</time>
      </trkpt>
      <trkpt lat="66.06963" lon="12.98396">
        <ele>56.159775</ele>
        <time>2020-08-14T10:33:42.407Z</time>
      </trkpt>
      <trkpt lat="66.06964" lon="12.98431">
        <ele>56.055356</ele>
        <time>2020-08-14T10:33:44.391Z</time>
      </trkpt>
      <trkpt lat="66.06966" lon="12.98464">
        <ele>55.95408</ele>
        <time>2020-08-14T10:33:46.403Z</time>
      </trkpt>
      <trkpt lat="66.06969" lon="12.98497">
        <ele>55.85582</ele>
        <time>2020-08-14T10:33:48.385Z</time>
      </trkpt>
      <trkpt lat="66.06972" lon="12.98528">
        <ele>55.761209</ele>
        <time>2020-08-14T10:33:50.380Z</time>
      </trkpt>
      <trkpt lat="66.06975" lon="12.98557">
        <ele>55.673038</ele>
        <time>2020-08-14T10:33:52.417Z</time>
      </trkpt>
      <trkpt lat="66.06978" lon="12.98587">
        <ele>55.577916</ele>
        <time>2020-08-14T10:33:54.413Z</time>
      </trkpt>
      <trkpt lat="66.06982" lon="12.98617">
        <ele>55.484432</ele>
        <time>2020-08-14T10:33:56.377Z</time>
      </trkpt>
      <trkpt lat="66.06985" lon="12.98647">
        <ele>55.392409</ele>
        <time>2020-08-14T10:33:58.375Z</time>
      </trkpt>
      <trkpt lat="66.06989" lon="12.98677">
        <ele>55.29793</ele>
        <time>2020-08-14T10:34:00.385Z</time>
      </trkpt>
      <trkpt lat="66.06993" lon="12.98707">
        <ele>55.167656</ele>
        <time>2020-08-14T10:34:02.398Z</time>
      </trkpt>
      <trkpt lat="66.06997" lon="12.98734">
        <ele>54.923462</ele>
        <time>2020-08-14T10:34:04.376Z</time>
      </trkpt>
      <trkpt lat="66.07001" lon="12.98763">
        <ele>54.676352</ele>
        <time>2020-08-14T10:34:06.387Z</time>
      </trkpt>
      <trkpt lat="66.07005" lon="12.98791">
        <ele>54.425744</ele>
        <time>2020-08-14T10:34:08.402Z</time>
      </trkpt>
      <trkpt lat="66.07009" lon="12.98819">
        <ele>54.179986</ele>
        <time>2020-08-14T10:34:10.398Z</time>
      </trkpt>
      <trkpt lat="66.07013" lon="12.98847">
        <ele>53.93434</ele>
        <time>2020-08-14T10:34:12.461Z</time>
      </trkpt>
      <trkpt lat="66.07017" lon="12.98874">
        <ele>53.695826</ele>
        <time>2020-08-14T10:34:14.382Z</time>
      </trkpt>
      <trkpt lat="66.07021" lon="12.98901">
        <ele>53.461939</ele>
        <time>2020-08-14T10:34:16.382Z</time>
      </trkpt>
      <trkpt lat="66.07025" lon="12.98927">
        <ele>53.23333</ele>
        <time>2020-08-14T10:34:18.398Z</time>
      </trkpt>
      <trkpt lat="66.0703" lon="12.98952">
        <ele>53.002958</ele>
        <time>2020-08-14T10:34:20.393Z</time>
      </trkpt>
      <trkpt lat="66.07035" lon="12.98977">
        <ele>52.769738</ele>
        <time>2020-08-14T10:34:22.376Z</time>
      </trkpt>
      <trkpt lat="66.0704" lon="12.99002">
        <ele>52.536518</ele>
        <time>2020-08-14T10:34:24.406Z</time>
      </trkpt>
      <trkpt lat="66.07046" lon="12.99027">
        <ele>52.304084</ele>
        <time>2020-08-14T10:34:26.407Z</time>
      </trkpt>
      <trkpt lat="66.07051" lon="12.99052">
        <ele>52.067291</ele>
        <time>2020-08-14T10:34:28.370Z</time>
      </trkpt>
      <trkpt lat="66.07056" lon="12.99077">
        <ele>51.82964</ele>
        <time>2020-08-14T10:34:30.385Z</time>
      </trkpt>
      <trkpt lat="66.07061" lon="12.99102">
        <ele>51.603989</ele>
        <time>2020-08-14T10:34:32.409Z</time>
      </trkpt>
      <trkpt lat="66.07065" lon="12.99126">
        <ele>51.626734</ele>
        <time>2020-08-14T10:34:34.393Z</time>
      </trkpt>
      <trkpt lat="66.0707" lon="12.9915">
        <ele>51.708757</ele>
        <time>2020-08-14T10:34:36.420Z</time>
      </trkpt>
      <trkpt lat="66.07073" lon="12.99173">
        <ele>51.789285</ele>
        <time>2020-08-14T10:34:38.376Z</time>
      </trkpt>
      <trkpt lat="66.07077" lon="12.99196">
        <ele>51.866904</ele>
        <time>2020-08-14T10:34:40.428Z</time>
      </trkpt>
      <trkpt lat="66.0708" lon="12.9922">
        <ele>51.946601</ele>
        <time>2020-08-14T10:34:42.425Z</time>
      </trkpt>
      <trkpt lat="66.07084" lon="12.99243">
        <ele>52.028315</ele>
        <time>2020-08-14T10:34:44.399Z</time>
      </trkpt>
      <trkpt lat="66.07087" lon="12.99268">
        <ele>52.112001</ele>
        <time>2020-08-14T10:34:46.383Z</time>
      </trkpt>
      <trkpt lat="66.0709" lon="12.99293">
        <ele>52.196824</ele>
        <time>2020-08-14T10:34:48.445Z</time>
      </trkpt>
      <trkpt lat="66.07094" lon="12.99319">
        <ele>52.284659</ele>
        <time>2020-08-14T10:34:50.378Z</time>
      </trkpt>
      <trkpt lat="66.07097" lon="12.99346">
        <ele>52.374234</ele>
        <time>2020-08-14T10:34:52.381Z</time>
      </trkpt>
      <trkpt lat="66.071" lon="12.99373">
        <ele>52.463501</ele>
        <time>2020-08-14T10:34:54.387Z</time>
      </trkpt>
      <trkpt lat="66.07104" lon="12.99399">
        <ele>52.551336</ele>
        <time>2020-08-14T10:34:56.388Z</time>
      </trkpt>
      <trkpt lat="66.07108" lon="12.99425">
        <ele>52.639895</ele>
        <time>2020-08-14T10:34:58.386Z</time>
      </trkpt>
      <trkpt lat="66.07112" lon="12.9945">
        <ele>52.729038</ele>
        <time>2020-08-14T10:35:00.422Z</time>
      </trkpt>
      <trkpt lat="66.07117" lon="12.99476">
        <ele>52.81922</ele>
        <time>2020-08-14T10:35:02.389Z</time>
      </trkpt>
      <trkpt lat="66.07122" lon="12.99501">
        <ele>52.910691</ele>
        <time>2020-08-14T10:35:04.400Z</time>
      </trkpt>
      <trkpt lat="66.07127" lon="12.99525">
        <ele>52.937183</ele>
        <time>2020-08-14T10:35:06.396Z</time>
      </trkpt>
      <trkpt lat="66.07133" lon="12.9955">
        <ele>52.71192</ele>
        <time>2020-08-14T10:35:08.385Z</time>
      </trkpt>
      <trkpt lat="66.07138" lon="12.99574">
        <ele>52.484052</ele>
        <time>2020-08-14T10:35:10.384Z</time>
      </trkpt>
      <trkpt lat="66.07145" lon="12.996">
        <ele>52.241179</ele>
        <time>2020-08-14T10:35:12.392Z</time>
      </trkpt>
      <trkpt lat="66.07151" lon="12.99625">
        <ele>51.997299</ele>
        <time>2020-08-14T10:35:14.396Z</time>
      </trkpt>
      <trkpt lat="66.07157" lon="12.99652">
        <ele>51.747189</ele>
        <time>2020-08-14T10:35:16.383Z</time>
      </trkpt>
      <trkpt lat="66.07164" lon="12.99679">
        <ele>51.491222</ele>
        <time>2020-08-14T10:35:18.381Z</time>
      </trkpt>
      <trkpt lat="66.07171" lon="12.99707">
        <ele>51.223802</ele>
        <time>2020-08-14T10:35:20.376Z</time>
      </trkpt>
      <trkpt lat="66.07179" lon="12.99734">
        <ele>50.957343</ele>
        <time>2020-08-14T10:35:22.389Z</time>
      </trkpt>
      <trkpt lat="66.07186" lon="12.99762">
        <ele>50.692238</ele>
        <time>2020-08-14T10:35:24.404Z</time>
      </trkpt>
      <trkpt lat="66.07193" lon="12.99789">
        <ele>50.432955</ele>
        <time>2020-08-14T10:35:26.389Z</time>
      </trkpt>
      <trkpt lat="66.072" lon="12.99814">
        <ele>50.182368</ele>
        <time>2020-08-14T10:35:28.394Z</time>
      </trkpt>
      <trkpt lat="66.07207" lon="12.9984">
        <ele>49.934479</ele>
        <time>2020-08-14T10:35:30.396Z</time>
      </trkpt>
      <trkpt lat="66.07214" lon="12.99865">
        <ele>49.686147</ele>
        <time>2020-08-14T10:35:32.379Z</time>
      </trkpt>
      <trkpt lat="66.0722" lon="12.99891">
        <ele>49.444692</ele>
        <time>2020-08-14T10:35:34.392Z</time>
      </trkpt>
      <trkpt lat="66.07226" lon="12.99916">
        <ele>49.787243</ele>
        <time>2020-08-14T10:35:36.377Z</time>
      </trkpt>
      <trkpt lat="66.07233" lon="12.99941">
        <ele>50.285792</ele>
        <time>2020-08-14T10:35:38.391Z</time>
      </trkpt>
      <trkpt lat="66.07239" lon="12.99966">
        <ele>50.761365</ele>
        <time>2020-08-14T10:35:40.405Z</time>
      </trkpt>
      <trkpt lat="66.07244" lon="12.99991">
        <ele>51.235718</ele>
        <time>2020-08-14T10:35:42.386Z</time>
      </trkpt>
      <trkpt lat="66.07249" lon="13.00015">
        <ele>51.6958</ele>
        <time>2020-08-14T10:35:44.384Z</time>
      </trkpt>
      <trkpt lat="66.07254" lon="13.00039">
        <ele>52.146731</ele>
        <time>2020-08-14T10:35:46.389Z</time>
      </trkpt>
      <trkpt lat="66.07258" lon="13.00064">
        <ele>52.6002</ele>
        <time>2020-08-14T10:35:48.395Z</time>
      </trkpt>
      <trkpt lat="66.07261" lon="13.00089">
        <ele>53.040401</ele>
        <time>2020-08-14T10:35:50.396Z</time>
      </trkpt>
      <trkpt lat="66.07264" lon="13.00112">
        <ele>53.442921</ele>
        <time>2020-08-14T10:35:52.389Z</time>
      </trkpt>
      <trkpt lat="66.07269" lon="13.00141">
        <ele>53.974472</ele>
        <time>2020-08-14T10:35:55.391Z</time>
      </trkpt>
      <trkpt lat="66.07273" lon="13.00167">
        <ele>54.432647</ele>
        <time>2020-08-14T10:35:58.389Z</time>
      </trkpt>
      <trkpt lat="66.07277" lon="13.0019">
        <ele>54.854932</ele>
        <time>2020-08-14T10:36:01.420Z</time>
      </trkpt>
      <trkpt lat="66.0728" lon="13.00212">
        <ele>55.256966</ele>
        <time>2020-08-14T10:36:04.395Z</time>
      </trkpt>
      <trkpt lat="66.07284" lon="13.00233">
        <ele>55.643516</ele>
        <time>2020-08-14T10:36:07.391Z</time>
      </trkpt>
      <trkpt lat="66.07287" lon="13.00255">
        <ele>56.022459</ele>
        <time>2020-08-14T10:36:10.403Z</time>
      </trkpt>
      <trkpt lat="66.0729" lon="13.00276">
        <ele>56.402985</ele>
        <time>2020-08-14T10:36:13.390Z</time>
      </trkpt>
      <trkpt lat="66.07295" lon="13.00299">
        <ele>56.842824</ele>
        <time>2020-08-14T10:36:16.416Z</time>
      </trkpt>
      <trkpt lat="66.07298" lon="13.00323">
        <ele>57.228079</ele>
        <time>2020-08-14T10:36:19.363Z</time>
      </trkpt>
      <trkpt lat="66.07302" lon="13.00346">
        <ele>57.60666</ele>
        <time>2020-08-14T10:36:22.395Z</time>
      </trkpt>
      <trkpt lat="66.07306" lon="13.00369">
        <ele>57.992224</ele>
        <time>2020-08-14T10:36:25.392Z</time>
      </trkpt>
      <trkpt lat="66.0731" lon="13.00394">
        <ele>58.389174</ele>
        <time>2020-08-14T10:36:28.432Z</time>
      </trkpt>
      <trkpt lat="66.07314" lon="13.00419">
        <ele>58.79441</ele>
        <time>2020-08-14T10:36:31.387Z</time>
      </trkpt>
      <trkpt lat="66.07319" lon="13.00443">
        <ele>59.206457</ele>
        <time>2020-08-14T10:36:34.362Z</time>
      </trkpt>
      <trkpt lat="66.07324" lon="13.00467">
        <ele>59.613821</ele>
        <time>2020-08-14T10:36:37.397Z</time>
      </trkpt>
      <trkpt lat="66.07329" lon="13.00493">
        <ele>60.069549</ele>
        <time>2020-08-14T10:36:40.383Z</time>
      </trkpt>
      <trkpt lat="66.07335" lon="13.0052">
        <ele>60.514913</ele>
        <time>2020-08-14T10:36:43.393Z</time>
      </trkpt>
      <trkpt lat="66.07339" lon="13.00546">
        <ele>60.939843</ele>
        <time>2020-08-14T10:36:46.404Z</time>
      </trkpt>
      <trkpt lat="66.07343" lon="13.00572">
        <ele>61.378993</ele>
        <time>2020-08-14T10:36:49.384Z</time>
      </trkpt>
      <trkpt lat="66.07348" lon="13.00599">
        <ele>61.819418</ele>
        <time>2020-08-14T10:36:52.392Z</time>
      </trkpt>
      <trkpt lat="66.07352" lon="13.00626">
        <ele>62.264139</ele>
        <time>2020-08-14T10:36:55.379Z</time>
      </trkpt>
      <trkpt lat="66.07357" lon="13.00653">
        <ele>62.703781</ele>
        <time>2020-08-14T10:36:58.384Z</time>
      </trkpt>
      <trkpt lat="66.07363" lon="13.00676">
        <ele>63.117848</ele>
        <time>2020-08-14T10:37:01.414Z</time>
      </trkpt>
      <trkpt lat="66.07369" lon="13.00699">
        <ele>63.52392</ele>
        <time>2020-08-14T10:37:04.388Z</time>
      </trkpt>
      <trkpt lat="66.07374" lon="13.00722">
        <ele>63.787653</ele>
        <time>2020-08-14T10:37:07.384Z</time>
      </trkpt>
      <trkpt lat="66.07379" lon="13.00747">
        <ele>64.025574</ele>
        <time>2020-08-14T10:37:10.399Z</time>
      </trkpt>
      <trkpt lat="66.07384" lon="13.00771">
        <ele>64.259295</ele>
        <time>2020-08-14T10:37:13.395Z</time>
      </trkpt>
      <trkpt lat="66.07389" lon="13.00795">
        <ele>64.491576</ele>
        <time>2020-08-14T10:37:16.401Z</time>
      </trkpt>
      <trkpt lat="66.07393" lon="13.00819">
        <ele>64.722594</ele>
        <time>2020-08-14T10:37:19.392Z</time>
      </trkpt>
      <trkpt lat="66.07397" lon="13.00843">
        <ele>64.943911</ele>
        <time>2020-08-14T10:37:22.374Z</time>
      </trkpt>
      <trkpt lat="66.07401" lon="13.00864">
        <ele>65.146798</ele>
        <time>2020-08-14T10:37:25.388Z</time>
      </trkpt>
      <trkpt lat="66.07405" lon="13.00885">
        <ele>65.350582</ele>
        <time>2020-08-14T10:37:28.395Z</time>
      </trkpt>
      <trkpt lat="66.07409" lon="13.00911">
        <ele>65.596924</ele>
        <time>2020-08-14T10:37:32.397Z</time>
      </trkpt>
      <trkpt lat="66.07414" lon="13.00937">
        <ele>65.840094</ele>
        <time>2020-08-14T10:37:36.384Z</time>
      </trkpt>
      <trkpt lat="66.07418" lon="13.00957">
        <ele>66.038923</ele>
        <time>2020-08-14T10:37:39.385Z</time>
      </trkpt>
      <trkpt lat="66.07421" lon="13.00978">
        <ele>66.234374</ele>
        <time>2020-08-14T10:37:42.401Z</time>
      </trkpt>
      <trkpt lat="66.07425" lon="13.00999">
        <ele>66.437124</ele>
        <time>2020-08-14T10:37:45.402Z</time>
      </trkpt>
      <trkpt lat="66.07428" lon="13.0102">
        <ele>66.632942</ele>
        <time>2020-08-14T10:37:48.405Z</time>
      </trkpt>
      <trkpt lat="66.07432" lon="13.01047">
        <ele>66.881327</ele>
        <time>2020-08-14T10:37:52.406Z</time>
      </trkpt>
      <trkpt lat="66.07435" lon="13.01069">
        <ele>67.076194</ele>
        <time>2020-08-14T10:37:55.392Z</time>
      </trkpt>
      <trkpt lat="66.07438" lon="13.0109">
        <ele>67.274874</ele>
        <time>2020-08-14T10:37:58.378Z</time>
      </trkpt>
      <trkpt lat="66.07442" lon="13.01117">
        <ele>67.517489</ele>
        <time>2020-08-14T10:38:02.389Z</time>
      </trkpt>
      <trkpt lat="66.07446" lon="13.01144">
        <ele>67.744155</ele>
        <time>2020-08-14T10:38:06.398Z</time>
      </trkpt>
      <trkpt lat="66.0745" lon="13.0117">
        <ele>67.963436</ele>
        <time>2020-08-14T10:38:10.377Z</time>
      </trkpt>
      <trkpt lat="66.07453" lon="13.01197">
        <ele>68.180641</ele>
        <time>2020-08-14T10:38:14.423Z</time>
      </trkpt>
      <trkpt lat="66.07455" lon="13.01224">
        <ele>68.391225</ele>
        <time>2020-08-14T10:38:18.420Z</time>
      </trkpt>
      <trkpt lat="66.07458" lon="13.01251">
        <ele>68.609064</ele>
        <time>2020-08-14T10:38:22.392Z</time>
      </trkpt>
      <trkpt lat="66.0746" lon="13.01276">
        <ele>68.807803</ele>
        <time>2020-08-14T10:38:26.394Z</time>
      </trkpt>
      <trkpt lat="66.07461" lon="13.01302">
        <ele>69.01326</ele>
        <time>2020-08-14T10:38:30.401Z</time>
      </trkpt>
      <trkpt lat="66.07463" lon="13.01326">
        <ele>69.197111</ele>
        <time>2020-08-14T10:38:33.396Z</time>
      </trkpt>
      <trkpt lat="66.07466" lon="13.01352">
        <ele>69.405416</ele>
        <time>2020-08-14T10:38:36.409Z</time>
      </trkpt>
      <trkpt lat="66.0747" lon="13.01384">
        <ele>69.669771</ele>
        <time>2020-08-14T10:38:39.412Z</time>
      </trkpt>
      <trkpt lat="66.07473" lon="13.01409">
        <ele>69.872529</ele>
        <time>2020-08-14T10:38:41.401Z</time>
      </trkpt>
      <trkpt lat="66.07478" lon="13.01434">
        <ele>70.09216</ele>
        <time>2020-08-14T10:38:43.372Z</time>
      </trkpt>
      <trkpt lat="66.07484" lon="13.01462">
        <ele>70.336812</ele>
        <time>2020-08-14T10:38:45.397Z</time>
      </trkpt>
      <trkpt lat="66.07492" lon="13.0149">
        <ele>70.60121</ele>
        <time>2020-08-14T10:38:47.383Z</time>
      </trkpt>
      <trkpt lat="66.07501" lon="13.01518">
        <ele>70.881876</ele>
        <time>2020-08-14T10:38:49.385Z</time>
      </trkpt>
      <trkpt lat="66.07511" lon="13.01548">
        <ele>70.097374</ele>
        <time>2020-08-14T10:38:51.412Z</time>
      </trkpt>
      <trkpt lat="66.07521" lon="13.01578">
        <ele>69.187635</ele>
        <time>2020-08-14T10:38:53.390Z</time>
      </trkpt>
      <trkpt lat="66.07533" lon="13.01609">
        <ele>68.2165</ele>
        <time>2020-08-14T10:38:55.420Z</time>
      </trkpt>
      <trkpt lat="66.0754" lon="13.01625">
        <ele>67.694976</ele>
        <time>2020-08-14T10:38:56.396Z</time>
      </trkpt>
      <trkpt lat="66.07546" lon="13.01642">
        <ele>67.167876</ele>
        <time>2020-08-14T10:38:57.396Z</time>
      </trkpt>
      <trkpt lat="66.07553" lon="13.01659">
        <ele>66.627068</ele>
        <time>2020-08-14T10:38:58.418Z</time>
      </trkpt>
      <trkpt lat="66.0756" lon="13.01677">
        <ele>66.062508</ele>
        <time>2020-08-14T10:38:59.381Z</time>
      </trkpt>
      <trkpt lat="66.07567" lon="13.01696">
        <ele>65.485737</ele>
        <time>2020-08-14T10:39:00.385Z</time>
      </trkpt>
      <trkpt lat="66.07574" lon="13.01715">
        <ele>64.888434</ele>
        <time>2020-08-14T10:39:01.397Z</time>
      </trkpt>
      <trkpt lat="66.0758" lon="13.01737">
        <ele>64.266511</ele>
        <time>2020-08-14T10:39:02.401Z</time>
      </trkpt>
      <trkpt lat="66.07587" lon="13.01759">
        <ele>63.622972</ele>
        <time>2020-08-14T10:39:03.398Z</time>
      </trkpt>
      <trkpt lat="66.07593" lon="13.01783">
        <ele>62.987528</ele>
        <time>2020-08-14T10:39:04.392Z</time>
      </trkpt>
      <trkpt lat="66.07599" lon="13.01807">
        <ele>62.364755</ele>
        <time>2020-08-14T10:39:05.395Z</time>
      </trkpt>
      <trkpt lat="66.07604" lon="13.01831">
        <ele>61.749219</ele>
        <time>2020-08-14T10:39:06.404Z</time>
      </trkpt>
      <trkpt lat="66.07608" lon="13.01855">
        <ele>61.146913</ele>
        <time>2020-08-14T10:39:07.381Z</time>
      </trkpt>
      <trkpt lat="66.07612" lon="13.01878">
        <ele>60.720256</ele>
        <time>2020-08-14T10:39:08.380Z</time>
      </trkpt>
      <trkpt lat="66.07617" lon="13.019">
        <ele>60.551462</ele>
        <time>2020-08-14T10:39:09.410Z</time>
      </trkpt>
      <trkpt lat="66.07621" lon="13.01921">
        <ele>60.386674</ele>
        <time>2020-08-14T10:39:10.374Z</time>
      </trkpt>
      <trkpt lat="66.07625" lon="13.01941">
        <ele>60.227607</ele>
        <time>2020-08-14T10:39:11.380Z</time>
      </trkpt>
      <trkpt lat="66.0763" lon="13.01961">
        <ele>60.072011</ele>
        <time>2020-08-14T10:39:12.381Z</time>
      </trkpt>
      <trkpt lat="66.07634" lon="13.0198">
        <ele>59.918234</ele>
        <time>2020-08-14T10:39:13.395Z</time>
      </trkpt>
      <trkpt lat="66.07643" lon="13.02017">
        <ele>59.620832</ele>
        <time>2020-08-14T10:39:15.398Z</time>
      </trkpt>
      <trkpt lat="66.07651" lon="13.02053">
        <ele>59.328573</ele>
        <time>2020-08-14T10:39:17.427Z</time>
      </trkpt>
      <trkpt lat="66.0766" lon="13.02088">
        <ele>59.046998</ele>
        <time>2020-08-14T10:39:19.416Z</time>
      </trkpt>
      <trkpt lat="66.07668" lon="13.02119">
        <ele>58.783996</ele>
        <time>2020-08-14T10:39:21.383Z</time>
      </trkpt>
      <trkpt lat="66.07677" lon="13.02148">
        <ele>58.537044</ele>
        <time>2020-08-14T10:39:23.408Z</time>
      </trkpt>
      <trkpt lat="66.07685" lon="13.02177">
        <ele>58.298997</ele>
        <time>2020-08-14T10:39:25.418Z</time>
      </trkpt>
      <trkpt lat="66.07693" lon="13.02204">
        <ele>58.067624</ele>
        <time>2020-08-14T10:39:27.380Z</time>
      </trkpt>
      <trkpt lat="66.077" lon="13.0223">
        <ele>57.850497</ele>
        <time>2020-08-14T10:39:29.396Z</time>
      </trkpt>
      <trkpt lat="66.07706" lon="13.02254">
        <ele>57.764676</ele>
        <time>2020-08-14T10:39:31.377Z</time>
      </trkpt>
      <trkpt lat="66.07713" lon="13.02278">
        <ele>57.975327</ele>
        <time>2020-08-14T10:39:33.405Z</time>
      </trkpt>
      <trkpt lat="66.0772" lon="13.02302">
        <ele>58.18017</ele>
        <time>2020-08-14T10:39:35.394Z</time>
      </trkpt>
      <trkpt lat="66.07726" lon="13.02325">
        <ele>58.384029</ele>
        <time>2020-08-14T10:39:37.403Z</time>
      </trkpt>
      <trkpt lat="66.07732" lon="13.02348">
        <ele>58.57953</ele>
        <time>2020-08-14T10:39:39.393Z</time>
      </trkpt>
      <trkpt lat="66.07738" lon="13.0237">
        <ele>58.777557</ele>
        <time>2020-08-14T10:39:41.397Z</time>
      </trkpt>
      <trkpt lat="66.07745" lon="13.02392">
        <ele>58.968063</ele>
        <time>2020-08-14T10:39:43.392Z</time>
      </trkpt>
      <trkpt lat="66.07751" lon="13.02414">
        <ele>59.159951</ele>
        <time>2020-08-14T10:39:45.401Z</time>
      </trkpt>
      <trkpt lat="66.07756" lon="13.02434">
        <ele>59.334514</ele>
        <time>2020-08-14T10:39:47.412Z</time>
      </trkpt>
      <trkpt lat="66.07762" lon="13.02454">
        <ele>59.509121</ele>
        <time>2020-08-14T10:39:49.385Z</time>
      </trkpt>
      <trkpt lat="66.07768" lon="13.02472">
        <ele>59.682276</ele>
        <time>2020-08-14T10:39:51.385Z</time>
      </trkpt>
      <trkpt lat="66.07774" lon="13.02491">
        <ele>59.853861</ele>
        <time>2020-08-14T10:39:53.424Z</time>
      </trkpt>
      <trkpt lat="66.0778" lon="13.02518">
        <ele>60.079259</ele>
        <time>2020-08-14T10:39:56.389Z</time>
      </trkpt>
      <trkpt lat="66.07787" lon="13.02544">
        <ele>60.306838</ele>
        <time>2020-08-14T10:39:59.384Z</time>
      </trkpt>
      <trkpt lat="66.07795" lon="13.0257">
        <ele>60.540293</ele>
        <time>2020-08-14T10:40:02.376Z</time>
      </trkpt>
      <trkpt lat="66.07803" lon="13.02596">
        <ele>60.771899</ele>
        <time>2020-08-14T10:40:05.392Z</time>
      </trkpt>
      <trkpt lat="66.07809" lon="13.0262">
        <ele>61.083835</ele>
        <time>2020-08-14T10:40:08.417Z</time>
      </trkpt>
      <trkpt lat="66.07815" lon="13.02644">
        <ele>61.565059</ele>
        <time>2020-08-14T10:40:11.397Z</time>
      </trkpt>
      <trkpt lat="66.0782" lon="13.02665">
        <ele>61.992768</ele>
        <time>2020-08-14T10:40:14.393Z</time>
      </trkpt>
      <trkpt lat="66.07826" lon="13.02685">
        <ele>62.404832</ele>
        <time>2020-08-14T10:40:17.382Z</time>
      </trkpt>
      <trkpt lat="66.07832" lon="13.02704">
        <ele>62.810253</ele>
        <time>2020-08-14T10:40:20.407Z</time>
      </trkpt>
      <trkpt lat="66.07837" lon="13.02723">
        <ele>63.202751</ele>
        <time>2020-08-14T10:40:23.380Z</time>
      </trkpt>
      <trkpt lat="66.07842" lon="13.02742">
        <ele>63.604702</ele>
        <time>2020-08-14T10:40:26.431Z</time>
      </trkpt>
      <trkpt lat="66.07848" lon="13.02761">
        <ele>63.998153</ele>
        <time>2020-08-14T10:40:29.397Z</time>
      </trkpt>
      <trkpt lat="66.07853" lon="13.0278">
        <ele>64.381622</ele>
        <time>2020-08-14T10:40:32.394Z</time>
      </trkpt>
      <trkpt lat="66.07859" lon="13.02803">
        <ele>64.875108</ele>
        <time>2020-08-14T10:40:36.373Z</time>
      </trkpt>
      <trkpt lat="66.07866" lon="13.02826">
        <ele>65.366696</ele>
        <time>2020-08-14T10:40:40.377Z</time>
      </trkpt>
      <trkpt lat="66.07872" lon="13.02849">
        <ele>65.83389</ele>
        <time>2020-08-14T10:40:44.390Z</time>
      </trkpt>
      <trkpt lat="66.07879" lon="13.02872">
        <ele>66.320196</ele>
        <time>2020-08-14T10:40:48.420Z</time>
      </trkpt>
      <trkpt lat="66.07884" lon="13.02891">
        <ele>66.703661</ele>
        <time>2020-08-14T10:40:51.376Z</time>
      </trkpt>
      <trkpt lat="66.07889" lon="13.02909">
        <ele>67.083341</ele>
        <time>2020-08-14T10:40:54.425Z</time>
      </trkpt>
      <trkpt lat="66.07894" lon="13.02929">
        <ele>67.478037</ele>
        <time>2020-08-14T10:40:57.412Z</time>
      </trkpt>
      <trkpt lat="66.07899" lon="13.02949">
        <ele>67.887586</ele>
        <time>2020-08-14T10:41:00.408Z</time>
      </trkpt>
      <trkpt lat="66.07904" lon="13.02968">
        <ele>68.283018</ele>
        <time>2020-08-14T10:41:03.399Z</time>
      </trkpt>
      <trkpt lat="66.0791" lon="13.02992">
        <ele>68.748235</ele>
        <time>2020-08-14T10:41:07.405Z</time>
      </trkpt>
      <trkpt lat="66.07915" lon="13.03016">
        <ele>69.213183</ele>
        <time>2020-08-14T10:41:11.395Z</time>
      </trkpt>
      <trkpt lat="66.07919" lon="13.03036">
        <ele>69.590682</ele>
        <time>2020-08-14T10:41:14.382Z</time>
      </trkpt>
      <trkpt lat="66.07924" lon="13.03063">
        <ele>70.083716</ele>
        <time>2020-08-14T10:41:18.393Z</time>
      </trkpt>
      <trkpt lat="66.07928" lon="13.03091">
        <ele>70.584818</ele>
        <time>2020-08-14T10:41:22.388Z</time>
      </trkpt>
      <trkpt lat="66.07931" lon="13.03112">
        <ele>70.980415</ele>
        <time>2020-08-14T10:41:25.384Z</time>
      </trkpt>
      <trkpt lat="66.07934" lon="13.03133">
        <ele>71.354214</ele>
        <time>2020-08-14T10:41:28.388Z</time>
      </trkpt>
      <trkpt lat="66.07938" lon="13.0316">
        <ele>71.839561</ele>
        <time>2020-08-14T10:41:32.407Z</time>
      </trkpt>
      <trkpt lat="66.07942" lon="13.03187">
        <ele>72.3301</ele>
        <time>2020-08-14T10:41:36.399Z</time>
      </trkpt>
      <trkpt lat="66.07946" lon="13.03216">
        <ele>72.838996</ele>
        <time>2020-08-14T10:41:40.419Z</time>
      </trkpt>
      <trkpt lat="66.0795" lon="13.03238">
        <ele>73.236726</ele>
        <time>2020-08-14T10:41:43.435Z</time>
      </trkpt>
      <trkpt lat="66.07953" lon="13.0326">
        <ele>73.642226</ele>
        <time>2020-08-14T10:41:46.404Z</time>
      </trkpt>
      <trkpt lat="66.07956" lon="13.03284">
        <ele>74.053469</ele>
        <time>2020-08-14T10:41:49.414Z</time>
      </trkpt>
      <trkpt lat="66.07958" lon="13.03305">
        <ele>74.431497</ele>
        <time>2020-08-14T10:41:52.397Z</time>
      </trkpt>
      <trkpt lat="66.07961" lon="13.03327">
        <ele>74.824424</ele>
        <time>2020-08-14T10:41:55.389Z</time>
      </trkpt>
      <trkpt lat="66.07965" lon="13.0335">
        <ele>75.248299</ele>
        <time>2020-08-14T10:41:58.387Z</time>
      </trkpt>
      <trkpt lat="66.07968" lon="13.03376">
        <ele>75.711409</ele>
        <time>2020-08-14T10:42:01.421Z</time>
      </trkpt>
      <trkpt lat="66.07972" lon="13.03403">
        <ele>76.076082</ele>
        <time>2020-08-14T10:42:04.411Z</time>
      </trkpt>
      <trkpt lat="66.07976" lon="13.03429">
        <ele>76.229286</ele>
        <time>2020-08-14T10:42:07.380Z</time>
      </trkpt>
      <trkpt lat="66.07979" lon="13.03455">
        <ele>76.381186</ele>
        <time>2020-08-14T10:42:10.395Z</time>
      </trkpt>
      <trkpt lat="66.07983" lon="13.03483">
        <ele>76.540945</ele>
        <time>2020-08-14T10:42:13.397Z</time>
      </trkpt>
      <trkpt lat="66.07986" lon="13.03511">
        <ele>76.70267</ele>
        <time>2020-08-14T10:42:16.376Z</time>
      </trkpt>
      <trkpt lat="66.07989" lon="13.03537">
        <ele>76.851922</ele>
        <time>2020-08-14T10:42:19.405Z</time>
      </trkpt>
      <trkpt lat="66.07992" lon="13.03562">
        <ele>77.003107</ele>
        <time>2020-08-14T10:42:22.400Z</time>
      </trkpt>
      <trkpt lat="66.07996" lon="13.03588">
        <ele>77.151227</ele>
        <time>2020-08-14T10:42:25.408Z</time>
      </trkpt>
      <trkpt lat="66.07999" lon="13.03612">
        <ele>77.295433</ele>
        <time>2020-08-14T10:42:28.418Z</time>
      </trkpt>
      <trkpt lat="66.08003" lon="13.03637">
        <ele>77.441981</ele>
        <time>2020-08-14T10:42:31.385Z</time>
      </trkpt>
      <trkpt lat="66.08006" lon="13.03663">
        <ele>77.588614</ele>
        <time>2020-08-14T10:42:34.382Z</time>
      </trkpt>
      <trkpt lat="66.08009" lon="13.03688">
        <ele>77.736825</ele>
        <time>2020-08-14T10:42:37.392Z</time>
      </trkpt>
      <trkpt lat="66.08012" lon="13.03711">
        <ele>77.873227</ele>
        <time>2020-08-14T10:42:40.416Z</time>
      </trkpt>
      <trkpt lat="66.08016" lon="13.03732">
        <ele>77.996475</ele>
        <time>2020-08-14T10:42:43.416Z</time>
      </trkpt>
      <trkpt lat="66.08019" lon="13.03754">
        <ele>78.128069</ele>
        <time>2020-08-14T10:42:46.378Z</time>
      </trkpt>
      <trkpt lat="66.08022" lon="13.03776">
        <ele>78.253008</ele>
        <time>2020-08-14T10:42:49.394Z</time>
      </trkpt>
      <trkpt lat="66.08026" lon="13.03803">
        <ele>78.416918</ele>
        <time>2020-08-14T10:42:53.440Z</time>
      </trkpt>
      <trkpt lat="66.0803" lon="13.03824">
        <ele>78.418166</ele>
        <time>2020-08-14T10:42:56.413Z</time>
      </trkpt>
      <trkpt lat="66.08035" lon="13.03847">
        <ele>78.272899</ele>
        <time>2020-08-14T10:42:59.378Z</time>
      </trkpt>
      <trkpt lat="66.08041" lon="13.03867">
        <ele>78.138579</ele>
        <time>2020-08-14T10:43:02.380Z</time>
      </trkpt>
      <trkpt lat="66.08047" lon="13.03885">
        <ele>78.009004</ele>
        <time>2020-08-14T10:43:05.398Z</time>
      </trkpt>
      <trkpt lat="66.08054" lon="13.03902">
        <ele>77.876051</ele>
        <time>2020-08-14T10:43:08.392Z</time>
      </trkpt>
      <trkpt lat="66.08061" lon="13.03918">
        <ele>77.743962</ele>
        <time>2020-08-14T10:43:11.376Z</time>
      </trkpt>
      <trkpt lat="66.08069" lon="13.03932">
        <ele>77.608641</ele>
        <time>2020-08-14T10:43:14.417Z</time>
      </trkpt>
      <trkpt lat="66.08078" lon="13.03946">
        <ele>77.467388</ele>
        <time>2020-08-14T10:43:17.401Z</time>
      </trkpt>
      <trkpt lat="66.08087" lon="13.0396">
        <ele>77.325595</ele>
        <time>2020-08-14T10:43:20.396Z</time>
      </trkpt>
      <trkpt lat="66.08096" lon="13.03974">
        <ele>77.180031</ele>
        <time>2020-08-14T10:43:23.426Z</time>
      </trkpt>
      <trkpt lat="66.08106" lon="13.0399">
        <ele>77.019431</ele>
        <time>2020-08-14T10:43:26.381Z</time>
      </trkpt>
      <trkpt lat="66.08116" lon="13.04008">
        <ele>76.845831</ele>
        <time>2020-08-14T10:43:29.397Z</time>
      </trkpt>
      <trkpt lat="66.08127" lon="13.04025">
        <ele>76.672755</ele>
        <time>2020-08-14T10:43:32.391Z</time>
      </trkpt>
      <trkpt lat="66.08138" lon="13.04042">
        <ele>76.500377</ele>
        <time>2020-08-14T10:43:35.380Z</time>
      </trkpt>
      <trkpt lat="66.08149" lon="13.04059">
        <ele>76.326476</ele>
        <time>2020-08-14T10:43:38.408Z</time>
      </trkpt>
      <trkpt lat="66.0816" lon="13.04075">
        <ele>76.148853</ele>
        <time>2020-08-14T10:43:41.387Z</time>
      </trkpt>
      <trkpt lat="66.08171" lon="13.0409">
        <ele>76.042788</ele>
        <time>2020-08-14T10:43:44.410Z</time>
      </trkpt>
      <trkpt lat="66.08181" lon="13.04107">
        <ele>76.05231</ele>
        <time>2020-08-14T10:43:47.402Z</time>
      </trkpt>
      <trkpt lat="66.08191" lon="13.04124">
        <ele>76.06201</ele>
        <time>2020-08-14T10:43:50.417Z</time>
      </trkpt>
      <trkpt lat="66.08202" lon="13.04142">
        <ele>76.071991</ele>
        <time>2020-08-14T10:43:53.410Z</time>
      </trkpt>
      <trkpt lat="66.08209" lon="13.04155">
        <ele>76.078946</ele>
        <time>2020-08-14T10:43:55.395Z</time>
      </trkpt>
      <trkpt lat="66.08217" lon="13.04167">
        <ele>76.085997</ele>
        <time>2020-08-14T10:43:57.383Z</time>
      </trkpt>
      <trkpt lat="66.08225" lon="13.04179">
        <ele>76.093196</ele>
        <time>2020-08-14T10:43:59.407Z</time>
      </trkpt>
      <trkpt lat="66.08233" lon="13.04191">
        <ele>76.100493</ele>
        <time>2020-08-14T10:44:01.381Z</time>
      </trkpt>
      <trkpt lat="66.08241" lon="13.04203">
        <ele>76.10753</ele>
        <time>2020-08-14T10:44:03.400Z</time>
      </trkpt>
      <trkpt lat="66.08248" lon="13.04216">
        <ele>76.114637</ele>
        <time>2020-08-14T10:44:05.418Z</time>
      </trkpt>
      <trkpt lat="66.08256" lon="13.04229">
        <ele>76.121644</ele>
        <time>2020-08-14T10:44:07.396Z</time>
      </trkpt>
      <trkpt lat="66.08267" lon="13.04247">
        <ele>76.131846</ele>
        <time>2020-08-14T10:44:10.389Z</time>
      </trkpt>
      <trkpt lat="66.08274" lon="13.04259">
        <ele>76.138864</ele>
        <time>2020-08-14T10:44:12.383Z</time>
      </trkpt>
      <trkpt lat="66.08286" lon="13.04276">
        <ele>76.14916</ele>
        <time>2020-08-14T10:44:15.392Z</time>
      </trkpt>
      <trkpt lat="66.08297" lon="13.04292">
        <ele>76.159459</ele>
        <time>2020-08-14T10:44:18.409Z</time>
      </trkpt>
      <trkpt lat="66.08305" lon="13.04304">
        <ele>76.166675</ele>
        <time>2020-08-14T10:44:20.403Z</time>
      </trkpt>
      <trkpt lat="66.08316" lon="13.04323">
        <ele>76.176929</ele>
        <time>2020-08-14T10:44:23.381Z</time>
      </trkpt>
      <trkpt lat="66.08327" lon="13.0434">
        <ele>76.360561</ele>
        <time>2020-08-14T10:44:26.401Z</time>
      </trkpt>
      <trkpt lat="66.08337" lon="13.04357">
        <ele>76.574479</ele>
        <time>2020-08-14T10:44:29.403Z</time>
      </trkpt>
      <trkpt lat="66.08348" lon="13.04375">
        <ele>76.788786</ele>
        <time>2020-08-14T10:44:32.389Z</time>
      </trkpt>
      <trkpt lat="66.08359" lon="13.04392">
        <ele>77.014048</ele>
        <time>2020-08-14T10:44:35.378Z</time>
      </trkpt>
      <trkpt lat="66.0837" lon="13.04409">
        <ele>77.240032</ele>
        <time>2020-08-14T10:44:38.422Z</time>
      </trkpt>
      <trkpt lat="66.08381" lon="13.04427">
        <ele>77.457421</ele>
        <time>2020-08-14T10:44:41.403Z</time>
      </trkpt>
      <trkpt lat="66.08391" lon="13.04443">
        <ele>77.659671</ele>
        <time>2020-08-14T10:44:44.400Z</time>
      </trkpt>
      <trkpt lat="66.08401" lon="13.0446">
        <ele>77.867311</ele>
        <time>2020-08-14T10:44:47.396Z</time>
      </trkpt>
      <trkpt lat="66.08411" lon="13.04475">
        <ele>78.072685</ele>
        <time>2020-08-14T10:44:50.391Z</time>
      </trkpt>
      <trkpt lat="66.08421" lon="13.04491">
        <ele>78.270124</ele>
        <time>2020-08-14T10:44:53.376Z</time>
      </trkpt>
      <trkpt lat="66.08431" lon="13.04505">
        <ele>78.461757</ele>
        <time>2020-08-14T10:44:56.377Z</time>
      </trkpt>
      <trkpt lat="66.0844" lon="13.04521">
        <ele>78.655676</ele>
        <time>2020-08-14T10:44:59.423Z</time>
      </trkpt>
      <trkpt lat="66.08449" lon="13.04537">
        <ele>78.84758</ele>
        <time>2020-08-14T10:45:02.383Z</time>
      </trkpt>
      <trkpt lat="66.08459" lon="13.04553">
        <ele>79.036668</ele>
        <time>2020-08-14T10:45:05.381Z</time>
      </trkpt>
      <trkpt lat="66.08468" lon="13.04567">
        <ele>79.219985</ele>
        <time>2020-08-14T10:45:08.388Z</time>
      </trkpt>
      <trkpt lat="66.08477" lon="13.04581">
        <ele>79.410602</ele>
        <time>2020-08-14T10:45:11.417Z</time>
      </trkpt>
      <trkpt lat="66.08486" lon="13.04595">
        <ele>79.599842</ele>
        <time>2020-08-14T10:45:14.403Z</time>
      </trkpt>
      <trkpt lat="66.08495" lon="13.04609">
        <ele>79.788248</ele>
        <time>2020-08-14T10:45:17.389Z</time>
      </trkpt>
      <trkpt lat="66.08503" lon="13.04623">
        <ele>79.979388</ele>
        <time>2020-08-14T10:45:20.384Z</time>
      </trkpt>
      <trkpt lat="66.08512" lon="13.04638">
        <ele>80.163086</ele>
        <time>2020-08-14T10:45:23.415Z</time>
      </trkpt>
      <trkpt lat="66.08521" lon="13.04654">
        <ele>80.369009</ele>
        <time>2020-08-14T10:45:26.406Z</time>
      </trkpt>
      <trkpt lat="66.0853" lon="13.04668">
        <ele>80.560149</ele>
        <time>2020-08-14T10:45:29.386Z</time>
      </trkpt>
      <trkpt lat="66.08539" lon="13.04682">
        <ele>80.752397</ele>
        <time>2020-08-14T10:45:32.413Z</time>
      </trkpt>
      <trkpt lat="66.08548" lon="13.04697">
        <ele>80.951145</ele>
        <time>2020-08-14T10:45:35.388Z</time>
      </trkpt>
      <trkpt lat="66.08557" lon="13.04711">
        <ele>81.130893</ele>
        <time>2020-08-14T10:45:38.423Z</time>
      </trkpt>
      <trkpt lat="66.08564" lon="13.04725">
        <ele>81.299932</ele>
        <time>2020-08-14T10:45:41.404Z</time>
      </trkpt>
      <trkpt lat="66.08574" lon="13.0474">
        <ele>81.500676</ele>
        <time>2020-08-14T10:45:44.384Z</time>
      </trkpt>
      <trkpt lat="66.08583" lon="13.04755">
        <ele>81.696817</ele>
        <time>2020-08-14T10:45:47.381Z</time>
      </trkpt>
      <trkpt lat="66.08592" lon="13.04767">
        <ele>81.880192</ele>
        <time>2020-08-14T10:45:50.408Z</time>
      </trkpt>
      <trkpt lat="66.08601" lon="13.04779">
        <ele>82.065315</ele>
        <time>2020-08-14T10:45:53.403Z</time>
      </trkpt>
      <trkpt lat="66.0861" lon="13.04794">
        <ele>82.26098</ele>
        <time>2020-08-14T10:45:56.433Z</time>
      </trkpt>
      <trkpt lat="66.0862" lon="13.04809">
        <ele>82.472891</ele>
        <time>2020-08-14T10:45:59.393Z</time>
      </trkpt>
      <trkpt lat="66.0863" lon="13.04824">
        <ele>83.090743</ele>
        <time>2020-08-14T10:46:02.392Z</time>
      </trkpt>
      <trkpt lat="66.0864" lon="13.04838">
        <ele>83.6788</ele>
        <time>2020-08-14T10:46:05.396Z</time>
      </trkpt>
      <trkpt lat="66.08649" lon="13.04851">
        <ele>84.235465</ele>
        <time>2020-08-14T10:46:08.419Z</time>
      </trkpt>
      <trkpt lat="66.08658" lon="13.04865">
        <ele>84.769755</ele>
        <time>2020-08-14T10:46:11.384Z</time>
      </trkpt>
      <trkpt lat="66.08666" lon="13.04879">
        <ele>85.289921</ele>
        <time>2020-08-14T10:46:14.423Z</time>
      </trkpt>
      <trkpt lat="66.08675" lon="13.04892">
        <ele>85.802148</ele>
        <time>2020-08-14T10:46:17.432Z</time>
      </trkpt>
      <trkpt lat="66.08685" lon="13.04907">
        <ele>86.404496</ele>
        <time>2020-08-14T10:46:21.402Z</time>
      </trkpt>
      <trkpt lat="66.08694" lon="13.04922">
        <ele>86.972992</ele>
        <time>2020-08-14T10:46:25.377Z</time>
      </trkpt>
      <trkpt lat="66.08702" lon="13.04936">
        <ele>87.514178</ele>
        <time>2020-08-14T10:46:29.436Z</time>
      </trkpt>
      <trkpt lat="66.08711" lon="13.0495">
        <ele>88.019129</ele>
        <time>2020-08-14T10:46:33.406Z</time>
      </trkpt>
      <trkpt lat="66.08718" lon="13.04963">
        <ele>88.492069</ele>
        <time>2020-08-14T10:46:37.409Z</time>
      </trkpt>
      <trkpt lat="66.08725" lon="13.04977">
        <ele>88.963344</ele>
        <time>2020-08-14T10:46:41.388Z</time>
      </trkpt>
      <trkpt lat="66.08734" lon="13.0499">
        <ele>89.496501</ele>
        <time>2020-08-14T10:46:46.393Z</time>
      </trkpt>
      <trkpt lat="66.08743" lon="13.05005">
        <ele>90.05991</ele>
        <time>2020-08-14T10:46:51.384Z</time>
      </trkpt>
      <trkpt lat="66.08752" lon="13.0502">
        <ele>90.606283</ele>
        <time>2020-08-14T10:46:56.417Z</time>
      </trkpt>
      <trkpt lat="66.0876" lon="13.05032">
        <ele>91.089959</ele>
        <time>2020-08-14T10:47:00.371Z</time>
      </trkpt>
      <trkpt lat="66.08768" lon="13.05044">
        <ele>91.587877</ele>
        <time>2020-08-14T10:47:04.388Z</time>
      </trkpt>
      <trkpt lat="66.08778" lon="13.05056">
        <ele>92.186062</ele>
        <time>2020-08-14T10:47:08.395Z</time>
      </trkpt>
      <trkpt lat="66.08787" lon="13.05069">
        <ele>92.807371</ele>
        <time>2020-08-14T10:47:12.379Z</time>
      </trkpt>
      <trkpt lat="66.08796" lon="13.05083">
        <ele>93.420127</ele>
        <time>2020-08-14T10:47:16.389Z</time>
      </trkpt>
      <trkpt lat="66.08804" lon="13.05095">
        <ele>93.968494</ele>
        <time>2020-08-14T10:47:20.420Z</time>
      </trkpt>
      <trkpt lat="66.08813" lon="13.05108">
        <ele>94.519218</ele>
        <time>2020-08-14T10:47:24.383Z</time>
      </trkpt>
      <trkpt lat="66.0882" lon="13.05123">
        <ele>95.054568</ele>
        <time>2020-08-14T10:47:28.391Z</time>
      </trkpt>
      <trkpt lat="66.08828" lon="13.05135">
        <ele>95.589427</ele>
        <time>2020-08-14T10:47:32.382Z</time>
      </trkpt>
      <trkpt lat="66.08837" lon="13.0515">
        <ele>96.238494</ele>
        <time>2020-08-14T10:47:37.385Z</time>
      </trkpt>
      <trkpt lat="66.08846" lon="13.05163">
        <ele>96.835289</ele>
        <time>2020-08-14T10:47:41.394Z</time>
      </trkpt>
      <trkpt lat="66.08854" lon="13.05178">
        <ele>97.41208</ele>
        <time>2020-08-14T10:47:45.383Z</time>
      </trkpt>
      <trkpt lat="66.08862" lon="13.05193">
        <ele>97.956658</ele>
        <time>2020-08-14T10:47:49.395Z</time>
      </trkpt>
      <trkpt lat="66.08871" lon="13.05207">
        <ele>98.552537</ele>
        <time>2020-08-14T10:47:54.374Z</time>
      </trkpt>
      <trkpt lat="66.0888" lon="13.05221">
        <ele>99.15784</ele>
        <time>2020-08-14T10:47:59.421Z</time>
      </trkpt>
      <trkpt lat="66.08888" lon="13.05231">
        <ele>99.678762</ele>
        <time>2020-08-14T10:48:03.414Z</time>
      </trkpt>
      <trkpt lat="66.08896" lon="13.05245">
        <ele>100.24188</ele>
        <time>2020-08-14T10:48:07.443Z</time>
      </trkpt>
      <trkpt lat="66.08905" lon="13.05259">
        <ele>100.863</ele>
        <time>2020-08-14T10:48:11.382Z</time>
      </trkpt>
      <trkpt lat="66.08915" lon="13.05272">
        <ele>101.483139</ele>
        <time>2020-08-14T10:48:15.400Z</time>
      </trkpt>
      <trkpt lat="66.08924" lon="13.05288">
        <ele>102.025359</ele>
        <time>2020-08-14T10:48:19.396Z</time>
      </trkpt>
      <trkpt lat="66.08932" lon="13.05302">
        <ele>102.000949</ele>
        <time>2020-08-14T10:48:22.369Z</time>
      </trkpt>
      <trkpt lat="66.0894" lon="13.05314">
        <ele>101.975604</ele>
        <time>2020-08-14T10:48:25.377Z</time>
      </trkpt>
      <trkpt lat="66.08949" lon="13.05327">
        <ele>101.949148</ele>
        <time>2020-08-14T10:48:28.389Z</time>
      </trkpt>
      <trkpt lat="66.08957" lon="13.05342">
        <ele>101.921028</ele>
        <time>2020-08-14T10:48:31.378Z</time>
      </trkpt>
      <trkpt lat="66.08967" lon="13.05357">
        <ele>101.892279</ele>
        <time>2020-08-14T10:48:34.436Z</time>
      </trkpt>
      <trkpt lat="66.08976" lon="13.05372">
        <ele>101.862035</ele>
        <time>2020-08-14T10:48:37.409Z</time>
      </trkpt>
      <trkpt lat="66.08988" lon="13.0539">
        <ele>101.827104</ele>
        <time>2020-08-14T10:48:40.395Z</time>
      </trkpt>
      <trkpt lat="66.08996" lon="13.05402">
        <ele>101.802317</ele>
        <time>2020-08-14T10:48:42.406Z</time>
      </trkpt>
      <trkpt lat="66.09003" lon="13.05415">
        <ele>101.777652</ele>
        <time>2020-08-14T10:48:44.400Z</time>
      </trkpt>
      <trkpt lat="66.09011" lon="13.05428">
        <ele>101.753248</ele>
        <time>2020-08-14T10:48:46.392Z</time>
      </trkpt>
      <trkpt lat="66.09019" lon="13.05441">
        <ele>101.728624</ele>
        <time>2020-08-14T10:48:48.421Z</time>
      </trkpt>
      <trkpt lat="66.09027" lon="13.05454">
        <ele>101.70333</ele>
        <time>2020-08-14T10:48:50.384Z</time>
      </trkpt>
      <trkpt lat="66.09035" lon="13.05468">
        <ele>101.677717</ele>
        <time>2020-08-14T10:48:52.376Z</time>
      </trkpt>
      <trkpt lat="66.09043" lon="13.05482">
        <ele>101.651339</ele>
        <time>2020-08-14T10:48:54.384Z</time>
      </trkpt>
      <trkpt lat="66.09052" lon="13.05495">
        <ele>101.625327</ele>
        <time>2020-08-14T10:48:56.401Z</time>
      </trkpt>
      <trkpt lat="66.0906" lon="13.05508">
        <ele>101.60031</ele>
        <time>2020-08-14T10:48:58.391Z</time>
      </trkpt>
      <trkpt lat="66.09068" lon="13.05521">
        <ele>101.573791</ele>
        <time>2020-08-14T10:49:00.397Z</time>
      </trkpt>
      <trkpt lat="66.09077" lon="13.05534">
        <ele>101.514311</ele>
        <time>2020-08-14T10:49:02.403Z</time>
      </trkpt>
      <trkpt lat="66.09086" lon="13.05547">
        <ele>101.414398</ele>
        <time>2020-08-14T10:49:04.413Z</time>
      </trkpt>
      <trkpt lat="66.09094" lon="13.05559">
        <ele>101.320817</ele>
        <time>2020-08-14T10:49:06.384Z</time>
      </trkpt>
      <trkpt lat="66.09103" lon="13.05574">
        <ele>101.224166</ele>
        <time>2020-08-14T10:49:08.384Z</time>
      </trkpt>
      <trkpt lat="66.09111" lon="13.05588">
        <ele>101.128853</ele>
        <time>2020-08-14T10:49:10.380Z</time>
      </trkpt>
      <trkpt lat="66.0912" lon="13.05602">
        <ele>101.022439</ele>
        <time>2020-08-14T10:49:12.407Z</time>
      </trkpt>
      <trkpt lat="66.0913" lon="13.05618">
        <ele>100.907468</ele>
        <time>2020-08-14T10:49:14.377Z</time>
      </trkpt>
      <trkpt lat="66.09142" lon="13.05635">
        <ele>100.776754</ele>
        <time>2020-08-14T10:49:16.391Z</time>
      </trkpt>
      <trkpt lat="66.09155" lon="13.05651">
        <ele>100.639245</ele>
        <time>2020-08-14T10:49:18.378Z</time>
      </trkpt>
      <trkpt lat="66.09168" lon="13.05666">
        <ele>100.505503</ele>
        <time>2020-08-14T10:49:20.391Z</time>
      </trkpt>
      <trkpt lat="66.0918" lon="13.05678">
        <ele>100.376431</ele>
        <time>2020-08-14T10:49:22.376Z</time>
      </trkpt>
      <trkpt lat="66.09192" lon="13.0569">
        <ele>100.249714</ele>
        <time>2020-08-14T10:49:24.387Z</time>
      </trkpt>
      <trkpt lat="66.09205" lon="13.057">
        <ele>100.121638</ele>
        <time>2020-08-14T10:49:26.383Z</time>
      </trkpt>
      <trkpt lat="66.09218" lon="13.0571">
        <ele>99.996215</ele>
        <time>2020-08-14T10:49:28.396Z</time>
      </trkpt>
      <trkpt lat="66.0923" lon="13.05719">
        <ele>99.873303</ele>
        <time>2020-08-14T10:49:30.413Z</time>
      </trkpt>
      <trkpt lat="66.09242" lon="13.05728">
        <ele>99.817464</ele>
        <time>2020-08-14T10:49:32.412Z</time>
      </trkpt>
      <trkpt lat="66.09255" lon="13.05737">
        <ele>99.789665</ele>
        <time>2020-08-14T10:49:34.409Z</time>
      </trkpt>
      <trkpt lat="66.09268" lon="13.05744">
        <ele>99.760206</ele>
        <time>2020-08-14T10:49:36.418Z</time>
      </trkpt>
      <trkpt lat="66.09281" lon="13.05754">
        <ele>99.730568</ele>
        <time>2020-08-14T10:49:38.425Z</time>
      </trkpt>
      <trkpt lat="66.09295" lon="13.05763">
        <ele>99.700288</ele>
        <time>2020-08-14T10:49:40.404Z</time>
      </trkpt>
      <trkpt lat="66.09309" lon="13.05772">
        <ele>99.669848</ele>
        <time>2020-08-14T10:49:42.391Z</time>
      </trkpt>
      <trkpt lat="66.09322" lon="13.05782">
        <ele>99.638971</ele>
        <time>2020-08-14T10:49:44.431Z</time>
      </trkpt>
      <trkpt lat="66.09336" lon="13.05791">
        <ele>99.609426</ele>
        <time>2020-08-14T10:49:46.378Z</time>
      </trkpt>
      <trkpt lat="66.09349" lon="13.058">
        <ele>99.580018</ele>
        <time>2020-08-14T10:49:48.398Z</time>
      </trkpt>
      <trkpt lat="66.09362" lon="13.05809">
        <ele>99.550175</ele>
        <time>2020-08-14T10:49:50.388Z</time>
      </trkpt>
      <trkpt lat="66.09376" lon="13.05819">
        <ele>99.520084</ele>
        <time>2020-08-14T10:49:52.396Z</time>
      </trkpt>
      <trkpt lat="66.09389" lon="13.0583">
        <ele>99.491042</ele>
        <time>2020-08-14T10:49:54.385Z</time>
      </trkpt>
      <trkpt lat="66.09401" lon="13.05839">
        <ele>99.462664</ele>
        <time>2020-08-14T10:49:56.379Z</time>
      </trkpt>
      <trkpt lat="66.09414" lon="13.05847">
        <ele>99.627503</ele>
        <time>2020-08-14T10:49:58.389Z</time>
      </trkpt>
      <trkpt lat="66.09425" lon="13.05855">
        <ele>99.910997</ele>
        <time>2020-08-14T10:50:00.392Z</time>
      </trkpt>
      <trkpt lat="66.09435" lon="13.05863">
        <ele>100.183693</ele>
        <time>2020-08-14T10:50:02.423Z</time>
      </trkpt>
      <trkpt lat="66.09445" lon="13.05869">
        <ele>100.430905</ele>
        <time>2020-08-14T10:50:04.392Z</time>
      </trkpt>
      <trkpt lat="66.09455" lon="13.05877">
        <ele>100.6722</ele>
        <time>2020-08-14T10:50:06.408Z</time>
      </trkpt>
      <trkpt lat="66.09467" lon="13.05885">
        <ele>100.993534</ele>
        <time>2020-08-14T10:50:09.394Z</time>
      </trkpt>
      <trkpt lat="66.09478" lon="13.05892">
        <ele>101.274405</ele>
        <time>2020-08-14T10:50:12.394Z</time>
      </trkpt>
      <trkpt lat="66.09488" lon="13.05898">
        <ele>101.530296</ele>
        <time>2020-08-14T10:50:15.391Z</time>
      </trkpt>
      <trkpt lat="66.09498" lon="13.05905">
        <ele>101.768374</ele>
        <time>2020-08-14T10:50:18.447Z</time>
      </trkpt>
      <trkpt lat="66.09508" lon="13.0591">
        <ele>102.02152</ele>
        <time>2020-08-14T10:50:21.388Z</time>
      </trkpt>
      <trkpt lat="66.09519" lon="13.05916">
        <ele>102.289674</ele>
        <time>2020-08-14T10:50:24.377Z</time>
      </trkpt>
      <trkpt lat="66.0953" lon="13.05923">
        <ele>102.572439</ele>
        <time>2020-08-14T10:50:27.398Z</time>
      </trkpt>
      <trkpt lat="66.09541" lon="13.0593">
        <ele>102.86044</ele>
        <time>2020-08-14T10:50:30.376Z</time>
      </trkpt>
      <trkpt lat="66.09553" lon="13.05937">
        <ele>103.168915</ele>
        <time>2020-08-14T10:50:33.388Z</time>
      </trkpt>
      <trkpt lat="66.09562" lon="13.05943">
        <ele>103.394841</ele>
        <time>2020-08-14T10:50:35.379Z</time>
      </trkpt>
      <trkpt lat="66.09572" lon="13.0595">
        <ele>103.639155</ele>
        <time>2020-08-14T10:50:37.394Z</time>
      </trkpt>
      <trkpt lat="66.09583" lon="13.05957">
        <ele>103.776979</ele>
        <time>2020-08-14T10:50:39.413Z</time>
      </trkpt>
      <trkpt lat="66.09596" lon="13.05966">
        <ele>103.386574</ele>
        <time>2020-08-14T10:50:41.379Z</time>
      </trkpt>
      <trkpt lat="66.0961" lon="13.05975">
        <ele>102.956787</ele>
        <time>2020-08-14T10:50:43.380Z</time>
      </trkpt>
      <trkpt lat="66.09625" lon="13.05985">
        <ele>102.487316</ele>
        <time>2020-08-14T10:50:45.402Z</time>
      </trkpt>
      <trkpt lat="66.09642" lon="13.05996">
        <ele>101.947671</ele>
        <time>2020-08-14T10:50:47.410Z</time>
      </trkpt>
      <trkpt lat="66.09652" lon="13.06002">
        <ele>101.647151</ele>
        <time>2020-08-14T10:50:48.393Z</time>
      </trkpt>
      <trkpt lat="66.09661" lon="13.06008">
        <ele>101.342223</ele>
        <time>2020-08-14T10:50:49.389Z</time>
      </trkpt>
      <trkpt lat="66.09671" lon="13.06014">
        <ele>101.036353</ele>
        <time>2020-08-14T10:50:50.391Z</time>
      </trkpt>
      <trkpt lat="66.09682" lon="13.06021">
        <ele>100.714994</ele>
        <time>2020-08-14T10:50:51.376Z</time>
      </trkpt>
      <trkpt lat="66.09692" lon="13.06028">
        <ele>100.393636</ele>
        <time>2020-08-14T10:50:52.382Z</time>
      </trkpt>
      <trkpt lat="66.09702" lon="13.06035">
        <ele>100.069052</ele>
        <time>2020-08-14T10:50:53.421Z</time>
      </trkpt>
      <trkpt lat="66.09714" lon="13.06043">
        <ele>99.713171</ele>
        <time>2020-08-14T10:50:54.376Z</time>
      </trkpt>
      <trkpt lat="66.09725" lon="13.06051">
        <ele>99.346952</ele>
        <time>2020-08-14T10:50:55.390Z</time>
      </trkpt>
      <trkpt lat="66.09737" lon="13.06059">
        <ele>98.990747</ele>
        <time>2020-08-14T10:50:56.406Z</time>
      </trkpt>
      <trkpt lat="66.09748" lon="13.06066">
        <ele>98.635816</ele>
        <time>2020-08-14T10:50:57.408Z</time>
      </trkpt>
      <trkpt lat="66.09759" lon="13.06074">
        <ele>98.442095</ele>
        <time>2020-08-14T10:50:58.431Z</time>
      </trkpt>
      <trkpt lat="66.0977" lon="13.0608">
        <ele>98.436811</ele>
        <time>2020-08-14T10:50:59.384Z</time>
      </trkpt>
      <trkpt lat="66.09779" lon="13.06087">
        <ele>98.431953</ele>
        <time>2020-08-14T10:51:00.385Z</time>
      </trkpt>
      <trkpt lat="66.09789" lon="13.06094">
        <ele>98.427258</ele>
        <time>2020-08-14T10:51:01.403Z</time>
      </trkpt>
      <trkpt lat="66.09798" lon="13.06101">
        <ele>98.422609</ele>
        <time>2020-08-14T10:51:02.392Z</time>
      </trkpt>
      <trkpt lat="66.09807" lon="13.06107">
        <ele>98.418092</ele>
        <time>2020-08-14T10:51:03.385Z</time>
      </trkpt>
      <trkpt lat="66.09823" lon="13.0612">
        <ele>98.409948</ele>
        <time>2020-08-14T10:51:05.394Z</time>
      </trkpt>
      <trkpt lat="66.09838" lon="13.06131">
        <ele>98.402588</ele>
        <time>2020-08-14T10:51:07.412Z</time>
      </trkpt>
      <trkpt lat="66.09851" lon="13.06141">
        <ele>98.395902</ele>
        <time>2020-08-14T10:51:09.385Z</time>
      </trkpt>
      <trkpt lat="66.09863" lon="13.06148">
        <ele>98.390004</ele>
        <time>2020-08-14T10:51:11.380Z</time>
      </trkpt>
      <trkpt lat="66.09873" lon="13.06155">
        <ele>98.384674</ele>
        <time>2020-08-14T10:51:13.395Z</time>
      </trkpt>
      <trkpt lat="66.09883" lon="13.06162">
        <ele>98.37995</ele>
        <time>2020-08-14T10:51:15.392Z</time>
      </trkpt>
      <trkpt lat="66.09892" lon="13.06168">
        <ele>98.375448</ele>
        <time>2020-08-14T10:51:17.390Z</time>
      </trkpt>
      <trkpt lat="66.099" lon="13.06174">
        <ele>98.371081</ele>
        <time>2020-08-14T10:51:19.394Z</time>
      </trkpt>
      <trkpt lat="66.09914" lon="13.06181">
        <ele>98.364459</ele>
        <time>2020-08-14T10:51:22.404Z</time>
      </trkpt>
      <trkpt lat="66.09923" lon="13.06188">
        <ele>98.359781</ele>
        <time>2020-08-14T10:51:24.399Z</time>
      </trkpt>
      <trkpt lat="66.09933" lon="13.06195">
        <ele>98.291916</ele>
        <time>2020-08-14T10:51:26.397Z</time>
      </trkpt>
      <trkpt lat="66.09943" lon="13.06204">
        <ele>98.169188</ele>
        <time>2020-08-14T10:51:28.406Z</time>
      </trkpt>
      <trkpt lat="66.09954" lon="13.06213">
        <ele>98.043216</ele>
        <time>2020-08-14T10:51:30.393Z</time>
      </trkpt>
      <trkpt lat="66.09966" lon="13.06222">
        <ele>97.908217</ele>
        <time>2020-08-14T10:51:32.372Z</time>
      </trkpt>
      <trkpt lat="66.09978" lon="13.06232">
        <ele>97.764819</ele>
        <time>2020-08-14T10:51:34.423Z</time>
      </trkpt>
      <trkpt lat="66.0999" lon="13.06243">
        <ele>97.623988</ele>
        <time>2020-08-14T10:51:36.380Z</time>
      </trkpt>
      <trkpt lat="66.10002" lon="13.06254">
        <ele>97.481575</ele>
        <time>2020-08-14T10:51:38.400Z</time>
      </trkpt>
      <trkpt lat="66.10013" lon="13.06266">
        <ele>97.341237</ele>
        <time>2020-08-14T10:51:40.373Z</time>
      </trkpt>
      <trkpt lat="66.10025" lon="13.0628">
        <ele>97.198512</ele>
        <time>2020-08-14T10:51:42.362Z</time>
      </trkpt>
      <trkpt lat="66.10037" lon="13.06294">
        <ele>97.049013</ele>
        <time>2020-08-14T10:51:44.397Z</time>
      </trkpt>
      <trkpt lat="66.10049" lon="13.06309">
        <ele>96.895898</ele>
        <time>2020-08-14T10:51:46.392Z</time>
      </trkpt>
      <trkpt lat="66.10061" lon="13.06326">
        <ele>96.742283</ele>
        <time>2020-08-14T10:51:48.390Z</time>
      </trkpt>
      <trkpt lat="66.10073" lon="13.06343">
        <ele>96.58838</ele>
        <time>2020-08-14T10:51:50.405Z</time>
      </trkpt>
      <trkpt lat="66.10085" lon="13.0636">
        <ele>96.436351</ele>
        <time>2020-08-14T10:51:52.390Z</time>
      </trkpt>
      <trkpt lat="66.10097" lon="13.06377">
        <ele>96.200435</ele>
        <time>2020-08-14T10:51:54.399Z</time>
      </trkpt>
      <trkpt lat="66.10108" lon="13.06392">
        <ele>95.882101</ele>
        <time>2020-08-14T10:51:56.371Z</time>
      </trkpt>
      <trkpt lat="66.10119" lon="13.06408">
        <ele>95.568024</ele>
        <time>2020-08-14T10:51:58.381Z</time>
      </trkpt>
      <trkpt lat="66.1013" lon="13.06423">
        <ele>95.259021</ele>
        <time>2020-08-14T10:52:00.389Z</time>
      </trkpt>
      <trkpt lat="66.10141" lon="13.06439">
        <ele>94.949044</ele>
        <time>2020-08-14T10:52:02.378Z</time>
      </trkpt>
      <trkpt lat="66.10152" lon="13.06455">
        <ele>94.640843</ele>
        <time>2020-08-14T10:52:04.388Z</time>
      </trkpt>
      <trkpt lat="66.10163" lon="13.06472">
        <ele>94.323237</ele>
        <time>2020-08-14T10:52:06.385Z</time>
      </trkpt>
      <trkpt lat="66.10174" lon="13.06488">
        <ele>94.007158</ele>
        <time>2020-08-14T10:52:08.409Z</time>
      </trkpt>
      <trkpt lat="66.10185" lon="13.06504">
        <ele>93.701524</ele>
        <time>2020-08-14T10:52:10.377Z</time>
      </trkpt>
      <trkpt lat="66.10195" lon="13.06521">
        <ele>93.391749</ele>
        <time>2020-08-14T10:52:12.399Z</time>
      </trkpt>
      <trkpt lat="66.10207" lon="13.06538">
        <ele>93.064704</ele>
        <time>2020-08-14T10:52:14.396Z</time>
      </trkpt>
      <trkpt lat="66.10218" lon="13.06555">
        <ele>92.746063</ele>
        <time>2020-08-14T10:52:16.416Z</time>
      </trkpt>
      <trkpt lat="66.10229" lon="13.06572">
        <ele>92.413862</ele>
        <time>2020-08-14T10:52:18.389Z</time>
      </trkpt>
      <trkpt lat="66.10242" lon="13.0659">
        <ele>92.055522</ele>
        <time>2020-08-14T10:52:20.400Z</time>
      </trkpt>
      <trkpt lat="66.10255" lon="13.06609">
        <ele>91.99445</ele>
        <time>2020-08-14T10:52:22.388Z</time>
      </trkpt>
      <trkpt lat="66.10269" lon="13.06629">
        <ele>92.069835</ele>
        <time>2020-08-14T10:52:24.394Z</time>
      </trkpt>
      <trkpt lat="66.10283" lon="13.0665">
        <ele>92.147313</ele>
        <time>2020-08-14T10:52:26.423Z</time>
      </trkpt>
      <trkpt lat="66.10297" lon="13.0667">
        <ele>92.223388</ele>
        <time>2020-08-14T10:52:28.410Z</time>
      </trkpt>
      <trkpt lat="66.10311" lon="13.0669">
        <ele>92.297703</ele>
        <time>2020-08-14T10:52:30.379Z</time>
      </trkpt>
      <trkpt lat="66.10325" lon="13.06707">
        <ele>92.36832</ele>
        <time>2020-08-14T10:52:32.394Z</time>
      </trkpt>
      <trkpt lat="66.10337" lon="13.06725">
        <ele>92.435827</ele>
        <time>2020-08-14T10:52:34.382Z</time>
      </trkpt>
      <trkpt lat="66.10348" lon="13.06742">
        <ele>92.497654</ele>
        <time>2020-08-14T10:52:36.393Z</time>
      </trkpt>
      <trkpt lat="66.10359" lon="13.06757">
        <ele>92.556779</ele>
        <time>2020-08-14T10:52:38.390Z</time>
      </trkpt>
      <trkpt lat="66.1037" lon="13.06771">
        <ele>92.615023</ele>
        <time>2020-08-14T10:52:40.396Z</time>
      </trkpt>
      <trkpt lat="66.1038" lon="13.06785">
        <ele>92.666797</ele>
        <time>2020-08-14T10:52:42.384Z</time>
      </trkpt>
      <trkpt lat="66.10388" lon="13.06797">
        <ele>92.711697</ele>
        <time>2020-08-14T10:52:44.376Z</time>
      </trkpt>
      <trkpt lat="66.10399" lon="13.06814">
        <ele>92.772625</ele>
        <time>2020-08-14T10:52:47.372Z</time>
      </trkpt>
      <trkpt lat="66.10408" lon="13.06828">
        <ele>93.248848</ele>
        <time>2020-08-14T10:52:50.381Z</time>
      </trkpt>
      <trkpt lat="66.10416" lon="13.0684">
        <ele>93.813165</ele>
        <time>2020-08-14T10:52:53.382Z</time>
      </trkpt>
      <trkpt lat="66.10425" lon="13.06853">
        <ele>94.415945</ele>
        <time>2020-08-14T10:52:57.372Z</time>
      </trkpt>
      <trkpt lat="66.10432" lon="13.06865">
        <ele>94.958467</ele>
        <time>2020-08-14T10:53:01.366Z</time>
      </trkpt>
      <trkpt lat="66.10441" lon="13.06875">
        <ele>95.5176</ele>
        <time>2020-08-14T10:53:05.373Z</time>
      </trkpt>
      <trkpt lat="66.10449" lon="13.06886">
        <ele>96.084099</ele>
        <time>2020-08-14T10:53:09.381Z</time>
      </trkpt>
      <trkpt lat="66.10457" lon="13.06898">
        <ele>96.65751</ele>
        <time>2020-08-14T10:53:13.375Z</time>
      </trkpt>
      <trkpt lat="66.10466" lon="13.06912">
        <ele>97.309022</ele>
        <time>2020-08-14T10:53:18.398Z</time>
      </trkpt>
      <trkpt lat="66.10474" lon="13.06922">
        <ele>97.856364</ele>
        <time>2020-08-14T10:53:22.401Z</time>
      </trkpt>
      <trkpt lat="66.10483" lon="13.06936">
        <ele>98.477109</ele>
        <time>2020-08-14T10:53:27.427Z</time>
      </trkpt>
      <trkpt lat="66.10492" lon="13.06948">
        <ele>99.067116</ele>
        <time>2020-08-14T10:53:31.376Z</time>
      </trkpt>
      <trkpt lat="66.10501" lon="13.0696">
        <ele>99.689875</ele>
        <time>2020-08-14T10:53:35.407Z</time>
      </trkpt>
      <trkpt lat="66.1051" lon="13.06972">
        <ele>100.297105</ele>
        <time>2020-08-14T10:53:39.397Z</time>
      </trkpt>
      <trkpt lat="66.10519" lon="13.06983">
        <ele>100.916756</ele>
        <time>2020-08-14T10:53:43.377Z</time>
      </trkpt>
      <trkpt lat="66.10528" lon="13.06998">
        <ele>101.586439</ele>
        <time>2020-08-14T10:53:47.374Z</time>
      </trkpt>
      <trkpt lat="66.10536" lon="13.07009">
        <ele>102.137281</ele>
        <time>2020-08-14T10:53:50.387Z</time>
      </trkpt>
      <trkpt lat="66.10544" lon="13.0702">
        <ele>102.705981</ele>
        <time>2020-08-14T10:53:53.402Z</time>
      </trkpt>
      <trkpt lat="66.10553" lon="13.07032">
        <ele>103.319663</ele>
        <time>2020-08-14T10:53:56.378Z</time>
      </trkpt>
      <trkpt lat="66.10563" lon="13.07045">
        <ele>103.613567</ele>
        <time>2020-08-14T10:53:59.404Z</time>
      </trkpt>
      <trkpt lat="66.10575" lon="13.07061">
        <ele>103.579962</ele>
        <time>2020-08-14T10:54:02.375Z</time>
      </trkpt>
      <trkpt lat="66.10584" lon="13.07072">
        <ele>103.554889</ele>
        <time>2020-08-14T10:54:04.378Z</time>
      </trkpt>
      <trkpt lat="66.10594" lon="13.07084">
        <ele>103.525224</ele>
        <time>2020-08-14T10:54:06.385Z</time>
      </trkpt>
      <trkpt lat="66.10606" lon="13.07099">
        <ele>103.491431</ele>
        <time>2020-08-14T10:54:08.407Z</time>
      </trkpt>
      <trkpt lat="66.1062" lon="13.07114">
        <ele>103.453722</ele>
        <time>2020-08-14T10:54:10.385Z</time>
      </trkpt>
      <trkpt lat="66.10634" lon="13.07131">
        <ele>103.413138</ele>
        <time>2020-08-14T10:54:12.399Z</time>
      </trkpt>
      <trkpt lat="66.1065" lon="13.07147">
        <ele>103.370495</ele>
        <time>2020-08-14T10:54:14.384Z</time>
      </trkpt>
      <trkpt lat="66.10665" lon="13.07164">
        <ele>103.327727</ele>
        <time>2020-08-14T10:54:16.380Z</time>
      </trkpt>
      <trkpt lat="66.1068" lon="13.0718">
        <ele>103.287038</ele>
        <time>2020-08-14T10:54:18.379Z</time>
      </trkpt>
      <trkpt lat="66.10693" lon="13.07195">
        <ele>103.250865</ele>
        <time>2020-08-14T10:54:20.382Z</time>
      </trkpt>
      <trkpt lat="66.10705" lon="13.07206">
        <ele>103.218063</ele>
        <time>2020-08-14T10:54:22.428Z</time>
      </trkpt>
      <trkpt lat="66.10715" lon="13.07216">
        <ele>103.189977</ele>
        <time>2020-08-14T10:54:24.409Z</time>
      </trkpt>
      <trkpt lat="66.10725" lon="13.07221">
        <ele>103.490425</ele>
        <time>2020-08-14T10:54:26.396Z</time>
      </trkpt>
      <trkpt lat="66.10734" lon="13.07225">
        <ele>104.373504</ele>
        <time>2020-08-14T10:54:28.375Z</time>
      </trkpt>
      <trkpt lat="66.10746" lon="13.07229">
        <ele>105.563184</ele>
        <time>2020-08-14T10:54:31.373Z</time>
      </trkpt>
      <trkpt lat="66.10756" lon="13.07233">
        <ele>106.562182</ele>
        <time>2020-08-14T10:54:34.414Z</time>
      </trkpt>
      <trkpt lat="66.10766" lon="13.07234">
        <ele>107.493727</ele>
        <time>2020-08-14T10:54:37.394Z</time>
      </trkpt>
      <trkpt lat="66.10777" lon="13.07235">
        <ele>108.606844</ele>
        <time>2020-08-14T10:54:41.368Z</time>
      </trkpt>
      <trkpt lat="66.10787" lon="13.07237">
        <ele>109.580068</ele>
        <time>2020-08-14T10:54:45.396Z</time>
      </trkpt>
      <trkpt lat="66.10798" lon="13.07238">
        <ele>110.567929</ele>
        <time>2020-08-14T10:54:51.402Z</time>
      </trkpt>
      <trkpt lat="66.10808" lon="13.0724">
        <ele>111.567063</ele>
        <time>2020-08-14T10:54:56.381Z</time>
      </trkpt>
      <trkpt lat="66.10817" lon="13.07242">
        <ele>112.443214</ele>
        <time>2020-08-14T10:55:00.371Z</time>
      </trkpt>
      <trkpt lat="66.10828" lon="13.07244">
        <ele>113.518583</ele>
        <time>2020-08-14T10:55:05.378Z</time>
      </trkpt>
      <trkpt lat="66.10839" lon="13.07246">
        <ele>114.57741</ele>
        <time>2020-08-14T10:55:11.396Z</time>
      </trkpt>
      <trkpt lat="66.10848" lon="13.07248">
        <ele>115.462386</ele>
        <time>2020-08-14T10:55:16.392Z</time>
      </trkpt>
      <trkpt lat="66.10858" lon="13.0725">
        <ele>116.472335</ele>
        <time>2020-08-14T10:55:23.390Z</time>
      </trkpt>
      <trkpt lat="66.10868" lon="13.07253">
        <ele>117.407953</ele>
        <time>2020-08-14T10:55:29.382Z</time>
      </trkpt>
      <trkpt lat="66.10878" lon="13.07257">
        <ele>118.39993</ele>
        <time>2020-08-14T10:55:35.377Z</time>
      </trkpt>
      <trkpt lat="66.10889" lon="13.0726">
        <ele>119.420911</ele>
        <time>2020-08-14T10:55:41.401Z</time>
      </trkpt>
      <trkpt lat="66.10898" lon="13.07266">
        <ele>120.405708</ele>
        <time>2020-08-14T10:55:47.385Z</time>
      </trkpt>
      <trkpt lat="66.10908" lon="13.07269">
        <ele>120.814381</ele>
        <time>2020-08-14T10:55:52.424Z</time>
      </trkpt>
      <trkpt lat="66.10918" lon="13.07274">
        <ele>121.148082</ele>
        <time>2020-08-14T10:55:57.420Z</time>
      </trkpt>
      <trkpt lat="66.10928" lon="13.07281">
        <ele>121.45904</ele>
        <time>2020-08-14T10:56:02.384Z</time>
      </trkpt>
      <trkpt lat="66.10937" lon="13.07288">
        <ele>121.735111</ele>
        <time>2020-08-14T10:56:07.381Z</time>
      </trkpt>
      <trkpt lat="66.10946" lon="13.07296">
        <ele>122.029109</ele>
        <time>2020-08-14T10:56:12.422Z</time>
      </trkpt>
      <trkpt lat="66.10954" lon="13.07307">
        <ele>122.317469</ele>
        <time>2020-08-14T10:56:17.395Z</time>
      </trkpt>
      <trkpt lat="66.10963" lon="13.0732">
        <ele>122.64655</ele>
        <time>2020-08-14T10:56:22.379Z</time>
      </trkpt>
      <trkpt lat="66.10972" lon="13.07331">
        <ele>122.95962</ele>
        <time>2020-08-14T10:56:26.364Z</time>
      </trkpt>
      <trkpt lat="66.10981" lon="13.07342">
        <ele>123.245851</ele>
        <time>2020-08-14T10:56:29.384Z</time>
      </trkpt>
      <trkpt lat="66.10989" lon="13.07353">
        <ele>123.542398</ele>
        <time>2020-08-14T10:56:33.404Z</time>
      </trkpt>
      <trkpt lat="66.10999" lon="13.07366">
        <ele>123.895772</ele>
        <time>2020-08-14T10:56:37.383Z</time>
      </trkpt>
      <trkpt lat="66.11008" lon="13.07378">
        <ele>124.192807</ele>
        <time>2020-08-14T10:56:40.388Z</time>
      </trkpt>
      <trkpt lat="66.11017" lon="13.07391">
        <ele>124.526033</ele>
        <time>2020-08-14T10:56:43.372Z</time>
      </trkpt>
      <trkpt lat="66.11029" lon="13.07405">
        <ele>124.918016</ele>
        <time>2020-08-14T10:56:46.381Z</time>
      </trkpt>
      <trkpt lat="66.1104" lon="13.07421">
        <ele>125.329406</ele>
        <time>2020-08-14T10:56:49.409Z</time>
      </trkpt>
      <trkpt lat="66.11048" lon="13.07431">
        <ele>125.61175</ele>
        <time>2020-08-14T10:56:51.392Z</time>
      </trkpt>
      <trkpt lat="66.11057" lon="13.07443">
        <ele>125.924945</ele>
        <time>2020-08-14T10:56:53.410Z</time>
      </trkpt>
      <trkpt lat="66.11066" lon="13.07456">
        <ele>125.851495</ele>
        <time>2020-08-14T10:56:55.373Z</time>
      </trkpt>
      <trkpt lat="66.11077" lon="13.07467">
        <ele>125.144855</ele>
        <time>2020-08-14T10:56:57.408Z</time>
      </trkpt>
      <trkpt lat="66.11089" lon="13.0748">
        <ele>124.357457</ele>
        <time>2020-08-14T10:56:59.396Z</time>
      </trkpt>
      <trkpt lat="66.11101" lon="13.07494">
        <ele>123.527642</ele>
        <time>2020-08-14T10:57:01.405Z</time>
      </trkpt>
      <trkpt lat="66.11115" lon="13.07508">
        <ele>122.643045</ele>
        <time>2020-08-14T10:57:03.401Z</time>
      </trkpt>
      <trkpt lat="66.11131" lon="13.07521">
        <ele>121.609026</ele>
        <time>2020-08-14T10:57:05.400Z</time>
      </trkpt>
      <trkpt lat="66.11147" lon="13.07535">
        <ele>120.577565</ele>
        <time>2020-08-14T10:57:07.384Z</time>
      </trkpt>
      <trkpt lat="66.11162" lon="13.07549">
        <ele>119.565689</ele>
        <time>2020-08-14T10:57:09.411Z</time>
      </trkpt>
      <trkpt lat="66.11179" lon="13.07563">
        <ele>118.490748</ele>
        <time>2020-08-14T10:57:11.380Z</time>
      </trkpt>
      <trkpt lat="66.11196" lon="13.07577">
        <ele>117.405084</ele>
        <time>2020-08-14T10:57:13.395Z</time>
      </trkpt>
      <trkpt lat="66.11213" lon="13.07591">
        <ele>116.333313</ele>
        <time>2020-08-14T10:57:15.389Z</time>
      </trkpt>
      <trkpt lat="66.11229" lon="13.07605">
        <ele>115.310826</ele>
        <time>2020-08-14T10:57:17.439Z</time>
      </trkpt>
      <trkpt lat="66.11244" lon="13.07618">
        <ele>115.210742</ele>
        <time>2020-08-14T10:57:19.376Z</time>
      </trkpt>
      <trkpt lat="66.11258" lon="13.07629">
        <ele>115.259826</ele>
        <time>2020-08-14T10:57:21.383Z</time>
      </trkpt>
      <trkpt lat="66.1127" lon="13.07639">
        <ele>115.303502</ele>
        <time>2020-08-14T10:57:23.417Z</time>
      </trkpt>
      <trkpt lat="66.11281" lon="13.07648">
        <ele>115.34281</ele>
        <time>2020-08-14T10:57:25.415Z</time>
      </trkpt>
      <trkpt lat="66.1129" lon="13.07654">
        <ele>115.374088</ele>
        <time>2020-08-14T10:57:27.380Z</time>
      </trkpt>
      <trkpt lat="66.113" lon="13.07662">
        <ele>115.411053</ele>
        <time>2020-08-14T10:57:30.393Z</time>
      </trkpt>
      <trkpt lat="66.11311" lon="13.07668">
        <ele>115.449327</ele>
        <time>2020-08-14T10:57:34.400Z</time>
      </trkpt>
      <trkpt lat="66.11321" lon="13.07672">
        <ele>115.482806</ele>
        <time>2020-08-14T10:57:39.403Z</time>
      </trkpt>
      <trkpt lat="66.11332" lon="13.07677">
        <ele>115.519362</ele>
        <time>2020-08-14T10:57:44.388Z</time>
      </trkpt>
      <trkpt lat="66.11342" lon="13.07678">
        <ele>115.554673</ele>
        <time>2020-08-14T10:57:49.419Z</time>
      </trkpt>
      <trkpt lat="66.11352" lon="13.07678">
        <ele>115.588256</ele>
        <time>2020-08-14T10:57:54.398Z</time>
      </trkpt>
      <trkpt lat="66.11363" lon="13.07674">
        <ele>115.626233</ele>
        <time>2020-08-14T10:57:59.390Z</time>
      </trkpt>
      <trkpt lat="66.11372" lon="13.07667">
        <ele>115.658731</ele>
        <time>2020-08-14T10:58:04.383Z</time>
      </trkpt>
      <trkpt lat="66.11381" lon="13.07656">
        <ele>115.691949</ele>
        <time>2020-08-14T10:58:09.390Z</time>
      </trkpt>
      <trkpt lat="66.1139" lon="13.07642">
        <ele>115.727607</ele>
        <time>2020-08-14T10:58:14.406Z</time>
      </trkpt>
      <trkpt lat="66.11397" lon="13.07623">
        <ele>115.763857</ele>
        <time>2020-08-14T10:58:19.390Z</time>
      </trkpt>
      <trkpt lat="66.11405" lon="13.07603">
        <ele>115.737167</ele>
        <time>2020-08-14T10:58:24.413Z</time>
      </trkpt>
      <trkpt lat="66.11411" lon="13.07584">
        <ele>115.693016</ele>
        <time>2020-08-14T10:58:28.392Z</time>
      </trkpt>
      <trkpt lat="66.11416" lon="13.0756">
        <ele>115.646674</ele>
        <time>2020-08-14T10:58:32.422Z</time>
      </trkpt>
      <trkpt lat="66.1142" lon="13.07533">
        <ele>115.595561</ele>
        <time>2020-08-14T10:58:36.385Z</time>
      </trkpt>
      <trkpt lat="66.11422" lon="13.0751">
        <ele>115.553903</ele>
        <time>2020-08-14T10:58:39.378Z</time>
      </trkpt>
      <trkpt lat="66.11424" lon="13.07486">
        <ele>115.508578</ele>
        <time>2020-08-14T10:58:42.390Z</time>
      </trkpt>
      <trkpt lat="66.11426" lon="13.07457">
        <ele>115.456307</ele>
        <time>2020-08-14T10:58:45.383Z</time>
      </trkpt>
      <trkpt lat="66.11427" lon="13.07427">
        <ele>115.40319</ele>
        <time>2020-08-14T10:58:48.436Z</time>
      </trkpt>
      <trkpt lat="66.11427" lon="13.07405">
        <ele>115.363666</ele>
        <time>2020-08-14T10:58:50.388Z</time>
      </trkpt>
      <trkpt lat="66.11427" lon="13.0738">
        <ele>115.320584</ele>
        <time>2020-08-14T10:58:52.394Z</time>
      </trkpt>
      <trkpt lat="66.11427" lon="13.07353">
        <ele>115.272159</ele>
        <time>2020-08-14T10:58:54.408Z</time>
      </trkpt>
      <trkpt lat="66.11428" lon="13.07322">
        <ele>115.215698</ele>
        <time>2020-08-14T10:58:56.392Z</time>
      </trkpt>
      <trkpt lat="66.11429" lon="13.07285">
        <ele>115.150954</ele>
        <time>2020-08-14T10:58:58.398Z</time>
      </trkpt>
      <trkpt lat="66.11431" lon="13.07242">
        <ele>115.072965</ele>
        <time>2020-08-14T10:59:00.398Z</time>
      </trkpt>
      <trkpt lat="66.11432" lon="13.07219">
        <ele>115.031961</ele>
        <time>2020-08-14T10:59:01.391Z</time>
      </trkpt>
      <trkpt lat="66.11434" lon="13.07196">
        <ele>114.990256</ele>
        <time>2020-08-14T10:59:02.416Z</time>
      </trkpt>
      <trkpt lat="66.11437" lon="13.07173">
        <ele>114.866271</ele>
        <time>2020-08-14T10:59:03.393Z</time>
      </trkpt>
      <trkpt lat="66.1144" lon="13.07151">
        <ele>114.724673</ele>
        <time>2020-08-14T10:59:04.384Z</time>
      </trkpt>
      <trkpt lat="66.11444" lon="13.07129">
        <ele>114.583867</ele>
        <time>2020-08-14T10:59:05.392Z</time>
      </trkpt>
      <trkpt lat="66.11448" lon="13.07107">
        <ele>114.446235</ele>
        <time>2020-08-14T10:59:06.426Z</time>
      </trkpt>
      <trkpt lat="66.11452" lon="13.07087">
        <ele>114.310139</ele>
        <time>2020-08-14T10:59:07.390Z</time>
      </trkpt>
      <trkpt lat="66.11457" lon="13.07068">
        <ele>114.176767</ele>
        <time>2020-08-14T10:59:08.394Z</time>
      </trkpt>
      <trkpt lat="66.11467" lon="13.07035">
        <ele>113.931792</ele>
        <time>2020-08-14T10:59:10.397Z</time>
      </trkpt>
      <trkpt lat="66.11477" lon="13.07007">
        <ele>113.713538</ele>
        <time>2020-08-14T10:59:12.397Z</time>
      </trkpt>
      <trkpt lat="66.11487" lon="13.06982">
        <ele>113.50979</ele>
        <time>2020-08-14T10:59:14.380Z</time>
      </trkpt>
      <trkpt lat="66.11497" lon="13.06961">
        <ele>113.306927</ele>
        <time>2020-08-14T10:59:16.403Z</time>
      </trkpt>
      <trkpt lat="66.11508" lon="13.06942">
        <ele>113.118443</ele>
        <time>2020-08-14T10:59:18.419Z</time>
      </trkpt>
      <trkpt lat="66.11517" lon="13.06925">
        <ele>112.944476</ele>
        <time>2020-08-14T10:59:20.400Z</time>
      </trkpt>
      <trkpt lat="66.11527" lon="13.06907">
        <ele>112.76982</ele>
        <time>2020-08-14T10:59:22.384Z</time>
      </trkpt>
      <trkpt lat="66.11537" lon="13.0689">
        <ele>112.595165</ele>
        <time>2020-08-14T10:59:24.404Z</time>
      </trkpt>
      <trkpt lat="66.11546" lon="13.06872">
        <ele>112.429498</ele>
        <time>2020-08-14T10:59:26.414Z</time>
      </trkpt>
      <trkpt lat="66.11554" lon="13.06856">
        <ele>112.234847</ele>
        <time>2020-08-14T10:59:28.396Z</time>
      </trkpt>
      <trkpt lat="66.11563" lon="13.06839">
        <ele>112.009508</ele>
        <time>2020-08-14T10:59:30.381Z</time>
      </trkpt>
      <trkpt lat="66.11572" lon="13.06824">
        <ele>111.789516</ele>
        <time>2020-08-14T10:59:32.392Z</time>
      </trkpt>
      <trkpt lat="66.11581" lon="13.06809">
        <ele>111.570284</ele>
        <time>2020-08-14T10:59:34.411Z</time>
      </trkpt>
      <trkpt lat="66.11589" lon="13.06793">
        <ele>111.354912</ele>
        <time>2020-08-14T10:59:36.378Z</time>
      </trkpt>
      <trkpt lat="66.11597" lon="13.06777">
        <ele>111.131116</ele>
        <time>2020-08-14T10:59:38.413Z</time>
      </trkpt>
      <trkpt lat="66.11606" lon="13.06761">
        <ele>110.905673</ele>
        <time>2020-08-14T10:59:40.396Z</time>
      </trkpt>
      <trkpt lat="66.11615" lon="13.06746">
        <ele>110.682589</ele>
        <time>2020-08-14T10:59:42.382Z</time>
      </trkpt>
      <trkpt lat="66.11624" lon="13.06729">
        <ele>110.452407</ele>
        <time>2020-08-14T10:59:44.421Z</time>
      </trkpt>
      <trkpt lat="66.11633" lon="13.06712">
        <ele>110.222225</ele>
        <time>2020-08-14T10:59:46.393Z</time>
      </trkpt>
      <trkpt lat="66.11642" lon="13.06695">
        <ele>109.997919</ele>
        <time>2020-08-14T10:59:48.404Z</time>
      </trkpt>
      <trkpt lat="66.1165" lon="13.06679">
        <ele>109.775778</ele>
        <time>2020-08-14T10:59:50.411Z</time>
      </trkpt>
      <trkpt lat="66.11658" lon="13.06662">
        <ele>109.557332</ele>
        <time>2020-08-14T10:59:52.396Z</time>
      </trkpt>
      <trkpt lat="66.11667" lon="13.06645">
        <ele>109.33783</ele>
        <time>2020-08-14T10:59:54.393Z</time>
      </trkpt>
      <trkpt lat="66.11675" lon="13.06628">
        <ele>109.118321</ele>
        <time>2020-08-14T10:59:56.381Z</time>
      </trkpt>
      <trkpt lat="66.11684" lon="13.06613">
        <ele>108.893829</ele>
        <time>2020-08-14T10:59:58.391Z</time>
      </trkpt>
      <trkpt lat="66.11693" lon="13.06597">
        <ele>108.674697</ele>
        <time>2020-08-14T11:00:00.398Z</time>
      </trkpt>
      <trkpt lat="66.11702" lon="13.06581">
        <ele>109.004361</ele>
        <time>2020-08-14T11:00:02.417Z</time>
      </trkpt>
      <trkpt lat="66.11711" lon="13.06564">
        <ele>109.339167</ele>
        <time>2020-08-14T11:00:04.389Z</time>
      </trkpt>
      <trkpt lat="66.11721" lon="13.06548">
        <ele>109.673272</ele>
        <time>2020-08-14T11:00:06.378Z</time>
      </trkpt>
      <trkpt lat="66.1173" lon="13.0653">
        <ele>110.017029</ele>
        <time>2020-08-14T11:00:08.397Z</time>
      </trkpt>
      <trkpt lat="66.11739" lon="13.06514">
        <ele>110.348353</ele>
        <time>2020-08-14T11:00:10.375Z</time>
      </trkpt>
      <trkpt lat="66.11748" lon="13.06498">
        <ele>110.681061</ele>
        <time>2020-08-14T11:00:12.394Z</time>
      </trkpt>
      <trkpt lat="66.11758" lon="13.06482">
        <ele>111.018243</ele>
        <time>2020-08-14T11:00:14.391Z</time>
      </trkpt>
      <trkpt lat="66.11768" lon="13.06467">
        <ele>111.356327</ele>
        <time>2020-08-14T11:00:16.409Z</time>
      </trkpt>
      <trkpt lat="66.11778" lon="13.06451">
        <ele>111.701273</ele>
        <time>2020-08-14T11:00:18.398Z</time>
      </trkpt>
      <trkpt lat="66.11789" lon="13.06437">
        <ele>112.06209</ele>
        <time>2020-08-14T11:00:20.399Z</time>
      </trkpt>
      <trkpt lat="66.118" lon="13.06424">
        <ele>112.420194</ele>
        <time>2020-08-14T11:00:22.403Z</time>
      </trkpt>
      <trkpt lat="66.1181" lon="13.06414">
        <ele>112.739723</ele>
        <time>2020-08-14T11:00:24.389Z</time>
      </trkpt>
      <trkpt lat="66.11819" lon="13.06405">
        <ele>113.023134</ele>
        <time>2020-08-14T11:00:26.401Z</time>
      </trkpt>
      <trkpt lat="66.11831" lon="13.06396">
        <ele>113.404916</ele>
        <time>2020-08-14T11:00:29.408Z</time>
      </trkpt>
      <trkpt lat="66.11842" lon="13.06388">
        <ele>113.730754</ele>
        <time>2020-08-14T11:00:32.382Z</time>
      </trkpt>
      <trkpt lat="66.11852" lon="13.06383">
        <ele>114.47893</ele>
        <time>2020-08-14T11:00:36.413Z</time>
      </trkpt>
      <trkpt lat="66.11861" lon="13.06379">
        <ele>115.893114</ele>
        <time>2020-08-14T11:00:40.421Z</time>
      </trkpt>
      <trkpt lat="66.11872" lon="13.06373">
        <ele>117.581753</ele>
        <time>2020-08-14T11:00:45.380Z</time>
      </trkpt>
      <trkpt lat="66.11881" lon="13.0637">
        <ele>119.004548</ele>
        <time>2020-08-14T11:00:49.405Z</time>
      </trkpt>
      <trkpt lat="66.11892" lon="13.06368">
        <ele>120.633933</ele>
        <time>2020-08-14T11:00:54.393Z</time>
      </trkpt>
      <trkpt lat="66.11902" lon="13.06364">
        <ele>122.292915</ele>
        <time>2020-08-14T11:01:00.427Z</time>
      </trkpt>
      <trkpt lat="66.11912" lon="13.06363">
        <ele>123.797863</ele>
        <time>2020-08-14T11:01:05.380Z</time>
      </trkpt>
      <trkpt lat="66.11922" lon="13.06364">
        <ele>125.319049</ele>
        <time>2020-08-14T11:01:11.409Z</time>
      </trkpt>
      <trkpt lat="66.11931" lon="13.06366">
        <ele>126.795272</ele>
        <time>2020-08-14T11:01:16.394Z</time>
      </trkpt>
      <trkpt lat="66.11941" lon="13.06369">
        <ele>128.384826</ele>
        <time>2020-08-14T11:01:22.389Z</time>
      </trkpt>
      <trkpt lat="66.11951" lon="13.06372">
        <ele>129.884374</ele>
        <time>2020-08-14T11:01:28.391Z</time>
      </trkpt>
      <trkpt lat="66.1196" lon="13.06375">
        <ele>131.273208</ele>
        <time>2020-08-14T11:01:33.392Z</time>
      </trkpt>
      <trkpt lat="66.11969" lon="13.06377">
        <ele>132.752292</ele>
        <time>2020-08-14T11:01:38.391Z</time>
      </trkpt>
      <trkpt lat="66.11978" lon="13.0638">
        <ele>134.171143</ele>
        <time>2020-08-14T11:01:43.401Z</time>
      </trkpt>
      <trkpt lat="66.11988" lon="13.06384">
        <ele>135.637757</ele>
        <time>2020-08-14T11:01:49.395Z</time>
      </trkpt>
      <trkpt lat="66.11998" lon="13.06387">
        <ele>137.242031</ele>
        <time>2020-08-14T11:01:55.422Z</time>
      </trkpt>
      <trkpt lat="66.12008" lon="13.06391">
        <ele>138.843657</ele>
        <time>2020-08-14T11:02:01.413Z</time>
      </trkpt>
      <trkpt lat="66.12019" lon="13.06398">
        <ele>140.494966</ele>
        <time>2020-08-14T11:02:07.389Z</time>
      </trkpt>
      <trkpt lat="66.12028" lon="13.06404">
        <ele>141.876714</ele>
        <time>2020-08-14T11:02:12.395Z</time>
      </trkpt>
      <trkpt lat="66.12036" lon="13.06411">
        <ele>142.535146</ele>
        <time>2020-08-14T11:02:17.396Z</time>
      </trkpt>
      <trkpt lat="66.12045" lon="13.0642">
        <ele>143.196944</ele>
        <time>2020-08-14T11:02:22.405Z</time>
      </trkpt>
      <trkpt lat="66.12055" lon="13.06427">
        <ele>143.946329</ele>
        <time>2020-08-14T11:02:28.392Z</time>
      </trkpt>
      <trkpt lat="66.12065" lon="13.06433">
        <ele>144.711526</ele>
        <time>2020-08-14T11:02:34.372Z</time>
      </trkpt>
      <trkpt lat="66.12073" lon="13.06442">
        <ele>145.376384</ele>
        <time>2020-08-14T11:02:39.398Z</time>
      </trkpt>
      <trkpt lat="66.12082" lon="13.06453">
        <ele>146.082952</ele>
        <time>2020-08-14T11:02:44.391Z</time>
      </trkpt>
      <trkpt lat="66.1209" lon="13.06463">
        <ele>146.749691</ele>
        <time>2020-08-14T11:02:49.394Z</time>
      </trkpt>
      <trkpt lat="66.121" lon="13.06472">
        <ele>147.489569</ele>
        <time>2020-08-14T11:02:54.393Z</time>
      </trkpt>
      <trkpt lat="66.12108" lon="13.06482">
        <ele>148.186347</ele>
        <time>2020-08-14T11:02:59.384Z</time>
      </trkpt>
      <trkpt lat="66.12117" lon="13.06491">
        <ele>148.860209</ele>
        <time>2020-08-14T11:03:03.380Z</time>
      </trkpt>
      <trkpt lat="66.12128" lon="13.06501">
        <ele>149.745492</ele>
        <time>2020-08-14T11:03:07.405Z</time>
      </trkpt>
      <trkpt lat="66.12138" lon="13.06509">
        <ele>150.460572</ele>
        <time>2020-08-14T11:03:10.396Z</time>
      </trkpt>
      <trkpt lat="66.12148" lon="13.06519">
        <ele>151.244294</ele>
        <time>2020-08-14T11:03:13.429Z</time>
      </trkpt>
      <trkpt lat="66.12158" lon="13.06526">
        <ele>152.037971</ele>
        <time>2020-08-14T11:03:16.405Z</time>
      </trkpt>
      <trkpt lat="66.12169" lon="13.06532">
        <ele>152.856601</ele>
        <time>2020-08-14T11:03:19.374Z</time>
      </trkpt>
      <trkpt lat="66.12182" lon="13.06538">
        <ele>153.824054</ele>
        <time>2020-08-14T11:03:22.395Z</time>
      </trkpt>
      <trkpt lat="66.12192" lon="13.06542">
        <ele>154.513482</ele>
        <time>2020-08-14T11:03:24.377Z</time>
      </trkpt>
      <trkpt lat="66.12203" lon="13.06545">
        <ele>154.481728</ele>
        <time>2020-08-14T11:03:26.386Z</time>
      </trkpt>
      <trkpt lat="66.12215" lon="13.06549">
        <ele>153.765581</ele>
        <time>2020-08-14T11:03:28.395Z</time>
      </trkpt>
      <trkpt lat="66.12228" lon="13.06552">
        <ele>152.998992</ele>
        <time>2020-08-14T11:03:30.393Z</time>
      </trkpt>
      <trkpt lat="66.12241" lon="13.06555">
        <ele>152.230829</ele>
        <time>2020-08-14T11:03:32.411Z</time>
      </trkpt>
      <trkpt lat="66.12254" lon="13.06558">
        <ele>151.458183</ele>
        <time>2020-08-14T11:03:34.392Z</time>
      </trkpt>
      <trkpt lat="66.12267" lon="13.06561">
        <ele>150.708736</ele>
        <time>2020-08-14T11:03:36.393Z</time>
      </trkpt>
      <trkpt lat="66.12279" lon="13.06563">
        <ele>150.001836</ele>
        <time>2020-08-14T11:03:38.377Z</time>
      </trkpt>
      <trkpt lat="66.1229" lon="13.06566">
        <ele>149.316483</ele>
        <time>2020-08-14T11:03:40.415Z</time>
      </trkpt>
      <trkpt lat="66.12302" lon="13.06569">
        <ele>148.618674</ele>
        <time>2020-08-14T11:03:42.385Z</time>
      </trkpt>
      <trkpt lat="66.12314" lon="13.06571">
        <ele>147.911422</ele>
        <time>2020-08-14T11:03:44.398Z</time>
      </trkpt>
      <trkpt lat="66.12325" lon="13.06575">
        <ele>147.266134</ele>
        <time>2020-08-14T11:03:46.389Z</time>
      </trkpt>
      <trkpt lat="66.12336" lon="13.06577">
        <ele>146.635217</ele>
        <time>2020-08-14T11:03:48.382Z</time>
      </trkpt>
      <trkpt lat="66.12347" lon="13.0658">
        <ele>145.997112</ele>
        <time>2020-08-14T11:03:50.392Z</time>
      </trkpt>
      <trkpt lat="66.12357" lon="13.06582">
        <ele>145.383337</ele>
        <time>2020-08-14T11:03:52.400Z</time>
      </trkpt>
      <trkpt lat="66.12367" lon="13.06585">
        <ele>144.80364</ele>
        <time>2020-08-14T11:03:54.391Z</time>
      </trkpt>
      <trkpt lat="66.12376" lon="13.06588">
        <ele>144.28355</ele>
        <time>2020-08-14T11:03:56.380Z</time>
      </trkpt>
      <trkpt lat="66.12386" lon="13.0659">
        <ele>144.190615</ele>
        <time>2020-08-14T11:03:58.400Z</time>
      </trkpt>
      <trkpt lat="66.12396" lon="13.06592">
        <ele>144.094823</ele>
        <time>2020-08-14T11:04:00.393Z</time>
      </trkpt>
      <trkpt lat="66.12407" lon="13.06594">
        <ele>143.997115</ele>
        <time>2020-08-14T11:04:02.388Z</time>
      </trkpt>
      <trkpt lat="66.12417" lon="13.06597">
        <ele>143.896477</ele>
        <time>2020-08-14T11:04:04.405Z</time>
      </trkpt>
      <trkpt lat="66.12427" lon="13.06599">
        <ele>143.801659</ele>
        <time>2020-08-14T11:04:06.422Z</time>
      </trkpt>
      <trkpt lat="66.12437" lon="13.06602">
        <ele>143.710458</ele>
        <time>2020-08-14T11:04:08.389Z</time>
      </trkpt>
      <trkpt lat="66.12446" lon="13.06604">
        <ele>143.624035</ele>
        <time>2020-08-14T11:04:10.383Z</time>
      </trkpt>
      <trkpt lat="66.12459" lon="13.06607">
        <ele>143.501656</ele>
        <time>2020-08-14T11:04:13.432Z</time>
      </trkpt>
      <trkpt lat="66.12471" lon="13.0661">
        <ele>143.3821</ele>
        <time>2020-08-14T11:04:16.380Z</time>
      </trkpt>
      <trkpt lat="66.12485" lon="13.06611">
        <ele>143.257221</ele>
        <time>2020-08-14T11:04:19.396Z</time>
      </trkpt>
      <trkpt lat="66.12497" lon="13.06612">
        <ele>143.140963</ele>
        <time>2020-08-14T11:04:22.384Z</time>
      </trkpt>
      <trkpt lat="66.1251" lon="13.06613">
        <ele>143.015238</ele>
        <time>2020-08-14T11:04:25.408Z</time>
      </trkpt>
      <trkpt lat="66.12523" lon="13.06612">
        <ele>142.896076</ele>
        <time>2020-08-14T11:04:28.409Z</time>
      </trkpt>
      <trkpt lat="66.12534" lon="13.0661">
        <ele>142.787233</ele>
        <time>2020-08-14T11:04:31.409Z</time>
      </trkpt>
      <trkpt lat="66.12545" lon="13.06609">
        <ele>142.687028</ele>
        <time>2020-08-14T11:04:34.379Z</time>
      </trkpt>
      <trkpt lat="66.12555" lon="13.06606">
        <ele>142.595509</ele>
        <time>2020-08-14T11:04:37.377Z</time>
      </trkpt>
      <trkpt lat="66.12565" lon="13.06604">
        <ele>143.301658</ele>
        <time>2020-08-14T11:04:41.386Z</time>
      </trkpt>
      <trkpt lat="66.12574" lon="13.066">
        <ele>143.918022</ele>
        <time>2020-08-14T11:04:45.393Z</time>
      </trkpt>
      <trkpt lat="66.12585" lon="13.06597">
        <ele>144.657777</ele>
        <time>2020-08-14T11:04:50.392Z</time>
      </trkpt>
      <trkpt lat="66.12595" lon="13.06595">
        <ele>145.342666</ele>
        <time>2020-08-14T11:04:55.400Z</time>
      </trkpt>
      <trkpt lat="66.12605" lon="13.06593">
        <ele>146.054538</ele>
        <time>2020-08-14T11:05:00.380Z</time>
      </trkpt>
      <trkpt lat="66.12615" lon="13.0659">
        <ele>146.735547</ele>
        <time>2020-08-14T11:05:05.404Z</time>
      </trkpt>
      <trkpt lat="66.12625" lon="13.06585">
        <ele>147.430733</ele>
        <time>2020-08-14T11:05:11.391Z</time>
      </trkpt>
      <trkpt lat="66.12635" lon="13.06582">
        <ele>148.106864</ele>
        <time>2020-08-14T11:05:17.400Z</time>
      </trkpt>
      <trkpt lat="66.12644" lon="13.06579">
        <ele>148.746217</ele>
        <time>2020-08-14T11:05:23.400Z</time>
      </trkpt>
      <trkpt lat="66.12653" lon="13.06577">
        <ele>149.370193</ele>
        <time>2020-08-14T11:05:28.388Z</time>
      </trkpt>
      <trkpt lat="66.12663" lon="13.06576">
        <ele>150.046073</ele>
        <time>2020-08-14T11:05:33.394Z</time>
      </trkpt>
      <trkpt lat="66.12673" lon="13.06573">
        <ele>150.75417</ele>
        <time>2020-08-14T11:05:38.396Z</time>
      </trkpt>
      <trkpt lat="66.12684" lon="13.06572">
        <ele>151.464948</ele>
        <time>2020-08-14T11:05:44.394Z</time>
      </trkpt>
      <trkpt lat="66.12694" lon="13.0657">
        <ele>152.142379</ele>
        <time>2020-08-14T11:05:49.407Z</time>
      </trkpt>
      <trkpt lat="66.12704" lon="13.06566">
        <ele>152.859823</ele>
        <time>2020-08-14T11:05:54.391Z</time>
      </trkpt>
      <trkpt lat="66.12713" lon="13.06563">
        <ele>153.48709</ele>
        <time>2020-08-14T11:05:58.403Z</time>
      </trkpt>
      <trkpt lat="66.12724" lon="13.0656">
        <ele>154.236169</ele>
        <time>2020-08-14T11:06:03.393Z</time>
      </trkpt>
      <trkpt lat="66.12733" lon="13.06557">
        <ele>154.868994</ele>
        <time>2020-08-14T11:06:07.375Z</time>
      </trkpt>
      <trkpt lat="66.12745" lon="13.06554">
        <ele>154.865397</ele>
        <time>2020-08-14T11:06:11.385Z</time>
      </trkpt>
      <trkpt lat="66.12754" lon="13.06551">
        <ele>154.862395</ele>
        <time>2020-08-14T11:06:14.382Z</time>
      </trkpt>
      <trkpt lat="66.12765" lon="13.06548">
        <ele>154.85901</ele>
        <time>2020-08-14T11:06:17.391Z</time>
      </trkpt>
      <trkpt lat="66.12776" lon="13.06544">
        <ele>154.855457</ele>
        <time>2020-08-14T11:06:20.406Z</time>
      </trkpt>
      <trkpt lat="66.12789" lon="13.06541">
        <ele>154.851383</ele>
        <time>2020-08-14T11:06:23.381Z</time>
      </trkpt>
      <trkpt lat="66.12798" lon="13.06539">
        <ele>154.848506</ele>
        <time>2020-08-14T11:06:25.396Z</time>
      </trkpt>
      <trkpt lat="66.12807" lon="13.06536">
        <ele>154.845414</ele>
        <time>2020-08-14T11:06:27.382Z</time>
      </trkpt>
      <trkpt lat="66.12818" lon="13.06532">
        <ele>154.842021</ele>
        <time>2020-08-14T11:06:29.400Z</time>
      </trkpt>
      <trkpt lat="66.12829" lon="13.06529">
        <ele>154.838378</ele>
        <time>2020-08-14T11:06:31.435Z</time>
      </trkpt>
      <trkpt lat="66.12841" lon="13.06525">
        <ele>154.834711</ele>
        <time>2020-08-14T11:06:33.379Z</time>
      </trkpt>
      <trkpt lat="66.12853" lon="13.06522">
        <ele>154.830756</ele>
        <time>2020-08-14T11:06:35.378Z</time>
      </trkpt>
      <trkpt lat="66.12866" lon="13.06519">
        <ele>154.826645</ele>
        <time>2020-08-14T11:06:37.399Z</time>
      </trkpt>
      <trkpt lat="66.12879" lon="13.06516">
        <ele>154.822568</ele>
        <time>2020-08-14T11:06:39.377Z</time>
      </trkpt>
      <trkpt lat="66.12892" lon="13.06512">
        <ele>154.818296</ele>
        <time>2020-08-14T11:06:41.402Z</time>
      </trkpt>
      <trkpt lat="66.12906" lon="13.06509">
        <ele>154.813814</ele>
        <time>2020-08-14T11:06:43.410Z</time>
      </trkpt>
      <trkpt lat="66.12922" lon="13.06507">
        <ele>154.297666</ele>
        <time>2020-08-14T11:06:45.402Z</time>
      </trkpt>
      <trkpt lat="66.12937" lon="13.06508">
        <ele>153.454843</ele>
        <time>2020-08-14T11:06:47.388Z</time>
      </trkpt>
      <trkpt lat="66.12955" lon="13.06513">
        <ele>152.522129</ele>
        <time>2020-08-14T11:06:49.402Z</time>
      </trkpt>
      <trkpt lat="66.12964" lon="13.06516">
        <ele>152.031667</ele>
        <time>2020-08-14T11:06:50.442Z</time>
      </trkpt>
      <trkpt lat="66.12973" lon="13.0652">
        <ele>151.523389</ele>
        <time>2020-08-14T11:06:51.376Z</time>
      </trkpt>
      <trkpt lat="66.12983" lon="13.06524">
        <ele>150.986993</ele>
        <time>2020-08-14T11:06:52.427Z</time>
      </trkpt>
      <trkpt lat="66.12994" lon="13.06529">
        <ele>150.424696</ele>
        <time>2020-08-14T11:06:53.412Z</time>
      </trkpt>
      <trkpt lat="66.13004" lon="13.06533">
        <ele>149.840286</ele>
        <time>2020-08-14T11:06:54.404Z</time>
      </trkpt>
      <trkpt lat="66.13015" lon="13.06539">
        <ele>149.242657</ele>
        <time>2020-08-14T11:06:55.376Z</time>
      </trkpt>
      <trkpt lat="66.13027" lon="13.06544">
        <ele>148.619614</ele>
        <time>2020-08-14T11:06:56.405Z</time>
      </trkpt>
      <trkpt lat="66.13039" lon="13.06548">
        <ele>147.982921</ele>
        <time>2020-08-14T11:06:57.389Z</time>
      </trkpt>
      <trkpt lat="66.13051" lon="13.06553">
        <ele>147.335359</ele>
        <time>2020-08-14T11:06:58.381Z</time>
      </trkpt>
      <trkpt lat="66.13063" lon="13.06558">
        <ele>146.664302</ele>
        <time>2020-08-14T11:06:59.397Z</time>
      </trkpt>
      <trkpt lat="66.13075" lon="13.06563">
        <ele>145.998866</ele>
        <time>2020-08-14T11:07:00.403Z</time>
      </trkpt>
      <trkpt lat="66.13088" lon="13.06568">
        <ele>145.345364</ele>
        <time>2020-08-14T11:07:01.382Z</time>
      </trkpt>
      <trkpt lat="66.131" lon="13.06572">
        <ele>144.729653</ele>
        <time>2020-08-14T11:07:02.429Z</time>
      </trkpt>
      <trkpt lat="66.13112" lon="13.06577">
        <ele>144.114507</ele>
        <time>2020-08-14T11:07:03.398Z</time>
      </trkpt>
      <trkpt lat="66.13124" lon="13.06583">
        <ele>143.501835</ele>
        <time>2020-08-14T11:07:04.412Z</time>
      </trkpt>
      <trkpt lat="66.13135" lon="13.06588">
        <ele>142.918715</ele>
        <time>2020-08-14T11:07:05.392Z</time>
      </trkpt>
      <trkpt lat="66.13146" lon="13.06593">
        <ele>142.34314</ele>
        <time>2020-08-14T11:07:06.388Z</time>
      </trkpt>
      <trkpt lat="66.13157" lon="13.06598">
        <ele>141.792974</ele>
        <time>2020-08-14T11:07:07.397Z</time>
      </trkpt>
      <trkpt lat="66.13167" lon="13.06603">
        <ele>141.267495</ele>
        <time>2020-08-14T11:07:08.417Z</time>
      </trkpt>
      <trkpt lat="66.13177" lon="13.06607">
        <ele>140.768146</ele>
        <time>2020-08-14T11:07:09.375Z</time>
      </trkpt>
      <trkpt lat="66.13187" lon="13.06611">
        <ele>140.283239</ele>
        <time>2020-08-14T11:07:10.388Z</time>
      </trkpt>
      <trkpt lat="66.13196" lon="13.06616">
        <ele>139.822566</ele>
        <time>2020-08-14T11:07:11.401Z</time>
      </trkpt>
      <trkpt lat="66.13213" lon="13.06624">
        <ele>138.950546</ele>
        <time>2020-08-14T11:07:13.390Z</time>
      </trkpt>
      <trkpt lat="66.13229" lon="13.06631">
        <ele>138.143381</ele>
        <time>2020-08-14T11:07:15.401Z</time>
      </trkpt>
      <trkpt lat="66.13243" lon="13.06638">
        <ele>137.398755</ele>
        <time>2020-08-14T11:07:17.391Z</time>
      </trkpt>
      <trkpt lat="66.13257" lon="13.06644">
        <ele>136.709874</ele>
        <time>2020-08-14T11:07:19.409Z</time>
      </trkpt>
      <trkpt lat="66.1327" lon="13.06649">
        <ele>136.136861</ele>
        <time>2020-08-14T11:07:21.394Z</time>
      </trkpt>
      <trkpt lat="66.13282" lon="13.06654">
        <ele>135.891109</ele>
        <time>2020-08-14T11:07:23.393Z</time>
      </trkpt>
      <trkpt lat="66.13293" lon="13.06658">
        <ele>135.65594</ele>
        <time>2020-08-14T11:07:25.407Z</time>
      </trkpt>
      <trkpt lat="66.13305" lon="13.0666">
        <ele>135.414433</ele>
        <time>2020-08-14T11:07:27.389Z</time>
      </trkpt>
      <trkpt lat="66.13317" lon="13.06664">
        <ele>135.166054</ele>
        <time>2020-08-14T11:07:29.395Z</time>
      </trkpt>
      <trkpt lat="66.13329" lon="13.06665">
        <ele>134.922748</ele>
        <time>2020-08-14T11:07:31.387Z</time>
      </trkpt>
      <trkpt lat="66.13341" lon="13.06665">
        <ele>134.675845</ele>
        <time>2020-08-14T11:07:33.396Z</time>
      </trkpt>
      <trkpt lat="66.13353" lon="13.06664">
        <ele>134.422734</ele>
        <time>2020-08-14T11:07:35.396Z</time>
      </trkpt>
      <trkpt lat="66.13366" lon="13.06663">
        <ele>134.161507</ele>
        <time>2020-08-14T11:07:37.423Z</time>
      </trkpt>
      <trkpt lat="66.1338" lon="13.06662">
        <ele>133.885884</ele>
        <time>2020-08-14T11:07:39.399Z</time>
      </trkpt>
      <trkpt lat="66.13393" lon="13.06661">
        <ele>133.614307</ele>
        <time>2020-08-14T11:07:41.385Z</time>
      </trkpt>
      <trkpt lat="66.13407" lon="13.0666">
        <ele>133.32441</ele>
        <time>2020-08-14T11:07:43.399Z</time>
      </trkpt>
      <trkpt lat="66.13422" lon="13.06659">
        <ele>133.024388</ele>
        <time>2020-08-14T11:07:45.398Z</time>
      </trkpt>
      <trkpt lat="66.13437" lon="13.06658">
        <ele>132.720266</ele>
        <time>2020-08-14T11:07:47.373Z</time>
      </trkpt>
      <trkpt lat="66.13451" lon="13.06657">
        <ele>132.34948</ele>
        <time>2020-08-14T11:07:49.392Z</time>
      </trkpt>
      <trkpt lat="66.13466" lon="13.06655">
        <ele>131.847816</ele>
        <time>2020-08-14T11:07:51.413Z</time>
      </trkpt>
      <trkpt lat="66.13482" lon="13.06654">
        <ele>131.325698</ele>
        <time>2020-08-14T11:07:53.394Z</time>
      </trkpt>
      <trkpt lat="66.13498" lon="13.06653">
        <ele>130.783394</ele>
        <time>2020-08-14T11:07:55.403Z</time>
      </trkpt>
      <trkpt lat="66.13514" lon="13.06651">
        <ele>130.23729</ele>
        <time>2020-08-14T11:07:57.393Z</time>
      </trkpt>
      <trkpt lat="66.13531" lon="13.06651">
        <ele>129.644368</ele>
        <time>2020-08-14T11:07:59.375Z</time>
      </trkpt>
      <trkpt lat="66.13541" lon="13.06653">
        <ele>129.321657</ele>
        <time>2020-08-14T11:08:00.405Z</time>
      </trkpt>
      <trkpt lat="66.13551" lon="13.06656">
        <ele>128.976832</ele>
        <time>2020-08-14T11:08:01.410Z</time>
      </trkpt>
      <trkpt lat="66.13561" lon="13.06661">
        <ele>128.621454</ele>
        <time>2020-08-14T11:08:02.378Z</time>
      </trkpt>
      <trkpt lat="66.13572" lon="13.06668">
        <ele>128.239192</ele>
        <time>2020-08-14T11:08:03.410Z</time>
      </trkpt>
      <trkpt lat="66.13583" lon="13.06678">
        <ele>127.836191</ele>
        <time>2020-08-14T11:08:04.417Z</time>
      </trkpt>
      <trkpt lat="66.13594" lon="13.06691">
        <ele>127.421778</ele>
        <time>2020-08-14T11:08:05.392Z</time>
      </trkpt>
      <trkpt lat="66.13605" lon="13.06706">
        <ele>127.01534</ele>
        <time>2020-08-14T11:08:06.388Z</time>
      </trkpt>
      <trkpt lat="66.13614" lon="13.06723">
        <ele>126.606526</ele>
        <time>2020-08-14T11:08:07.414Z</time>
      </trkpt>
      <trkpt lat="66.13624" lon="13.06743">
        <ele>126.084988</ele>
        <time>2020-08-14T11:08:08.397Z</time>
      </trkpt>
      <trkpt lat="66.13634" lon="13.06764">
        <ele>125.475454</ele>
        <time>2020-08-14T11:08:09.390Z</time>
      </trkpt>
      <trkpt lat="66.13643" lon="13.06788">
        <ele>124.873666</ele>
        <time>2020-08-14T11:08:10.385Z</time>
      </trkpt>
      <trkpt lat="66.13653" lon="13.06812">
        <ele>124.254203</ele>
        <time>2020-08-14T11:08:11.393Z</time>
      </trkpt>
      <trkpt lat="66.13662" lon="13.06836">
        <ele>123.631531</ele>
        <time>2020-08-14T11:08:12.408Z</time>
      </trkpt>
      <trkpt lat="66.13671" lon="13.0686">
        <ele>123.002963</ele>
        <time>2020-08-14T11:08:13.392Z</time>
      </trkpt>
      <trkpt lat="66.13681" lon="13.06884">
        <ele>122.368497</ele>
        <time>2020-08-14T11:08:14.383Z</time>
      </trkpt>
      <trkpt lat="66.13691" lon="13.06908">
        <ele>121.729466</ele>
        <time>2020-08-14T11:08:15.403Z</time>
      </trkpt>
      <trkpt lat="66.13701" lon="13.06932">
        <ele>121.093786</ele>
        <time>2020-08-14T11:08:16.410Z</time>
      </trkpt>
      <trkpt lat="66.1371" lon="13.06957">
        <ele>120.451514</ele>
        <time>2020-08-14T11:08:17.398Z</time>
      </trkpt>
      <trkpt lat="66.1372" lon="13.06982">
        <ele>119.806707</ele>
        <time>2020-08-14T11:08:18.380Z</time>
      </trkpt>
      <trkpt lat="66.13729" lon="13.07008">
        <ele>119.167311</ele>
        <time>2020-08-14T11:08:19.393Z</time>
      </trkpt>
      <trkpt lat="66.13738" lon="13.07033">
        <ele>118.543839</ele>
        <time>2020-08-14T11:08:20.385Z</time>
      </trkpt>
      <trkpt lat="66.13747" lon="13.07058">
        <ele>117.826108</ele>
        <time>2020-08-14T11:08:21.387Z</time>
      </trkpt>
      <trkpt lat="66.13755" lon="13.07084">
        <ele>116.944174</ele>
        <time>2020-08-14T11:08:22.402Z</time>
      </trkpt>
      <trkpt lat="66.13763" lon="13.07111">
        <ele>116.071152</ele>
        <time>2020-08-14T11:08:23.385Z</time>
      </trkpt>
      <trkpt lat="66.1377" lon="13.07139">
        <ele>115.219946</ele>
        <time>2020-08-14T11:08:24.386Z</time>
      </trkpt>
      <trkpt lat="66.13776" lon="13.07168">
        <ele>114.361586</ele>
        <time>2020-08-14T11:08:25.372Z</time>
      </trkpt>
      <trkpt lat="66.13781" lon="13.07197">
        <ele>113.513383</ele>
        <time>2020-08-14T11:08:26.413Z</time>
      </trkpt>
      <trkpt lat="66.13785" lon="13.07228">
        <ele>112.652427</ele>
        <time>2020-08-14T11:08:27.407Z</time>
      </trkpt>
      <trkpt lat="66.13789" lon="13.07259">
        <ele>111.798826</ele>
        <time>2020-08-14T11:08:28.387Z</time>
      </trkpt>
      <trkpt lat="66.13791" lon="13.07291">
        <ele>110.93962</ele>
        <time>2020-08-14T11:08:29.380Z</time>
      </trkpt>
      <trkpt lat="66.13793" lon="13.07323">
        <ele>110.070345</ele>
        <time>2020-08-14T11:08:30.374Z</time>
      </trkpt>
      <trkpt lat="66.13795" lon="13.07356">
        <ele>109.210636</ele>
        <time>2020-08-14T11:08:31.415Z</time>
      </trkpt>
      <trkpt lat="66.13796" lon="13.07388">
        <ele>108.351961</ele>
        <time>2020-08-14T11:08:32.399Z</time>
      </trkpt>
      <trkpt lat="66.13798" lon="13.0742">
        <ele>107.494108</ele>
        <time>2020-08-14T11:08:33.390Z</time>
      </trkpt>
      <trkpt lat="66.138" lon="13.07452">
        <ele>106.641504</ele>
        <time>2020-08-14T11:08:34.405Z</time>
      </trkpt>
      <trkpt lat="66.13802" lon="13.07484">
        <ele>105.54261</ele>
        <time>2020-08-14T11:08:35.374Z</time>
      </trkpt>
      <trkpt lat="66.13803" lon="13.07516">
        <ele>104.321655</ele>
        <time>2020-08-14T11:08:36.398Z</time>
      </trkpt>
      <trkpt lat="66.13806" lon="13.07549">
        <ele>103.079504</ele>
        <time>2020-08-14T11:08:37.403Z</time>
      </trkpt>
      <trkpt lat="66.13808" lon="13.07582">
        <ele>101.853508</ele>
        <time>2020-08-14T11:08:38.386Z</time>
      </trkpt>
      <trkpt lat="66.13809" lon="13.07614">
        <ele>100.644927</ele>
        <time>2020-08-14T11:08:39.403Z</time>
      </trkpt>
      <trkpt lat="66.13811" lon="13.07645">
        <ele>99.458508</ele>
        <time>2020-08-14T11:08:40.389Z</time>
      </trkpt>
      <trkpt lat="66.13813" lon="13.07677">
        <ele>98.274454</ele>
        <time>2020-08-14T11:08:41.392Z</time>
      </trkpt>
      <trkpt lat="66.13815" lon="13.07708">
        <ele>97.100052</ele>
        <time>2020-08-14T11:08:42.392Z</time>
      </trkpt>
      <trkpt lat="66.13817" lon="13.07738">
        <ele>95.964612</ele>
        <time>2020-08-14T11:08:43.396Z</time>
      </trkpt>
      <trkpt lat="66.13819" lon="13.07768">
        <ele>94.84224</ele>
        <time>2020-08-14T11:08:44.417Z</time>
      </trkpt>
      <trkpt lat="66.13821" lon="13.07797">
        <ele>93.737764</ele>
        <time>2020-08-14T11:08:45.393Z</time>
      </trkpt>
      <trkpt lat="66.13824" lon="13.07826">
        <ele>92.633645</ele>
        <time>2020-08-14T11:08:46.395Z</time>
      </trkpt>
      <trkpt lat="66.13827" lon="13.07854">
        <ele>91.538846</ele>
        <time>2020-08-14T11:08:47.394Z</time>
      </trkpt>
      <trkpt lat="66.13831" lon="13.07881">
        <ele>90.452075</ele>
        <time>2020-08-14T11:08:48.424Z</time>
      </trkpt>
      <trkpt lat="66.13836" lon="13.07909">
        <ele>89.371022</ele>
        <time>2020-08-14T11:08:49.395Z</time>
      </trkpt>
      <trkpt lat="66.13842" lon="13.07936">
        <ele>88.32071</ele>
        <time>2020-08-14T11:08:50.383Z</time>
      </trkpt>
      <trkpt lat="66.13849" lon="13.07961">
        <ele>87.242825</ele>
        <time>2020-08-14T11:08:51.412Z</time>
      </trkpt>
      <trkpt lat="66.13858" lon="13.07986">
        <ele>86.148562</ele>
        <time>2020-08-14T11:08:52.408Z</time>
      </trkpt>
      <trkpt lat="66.13867" lon="13.08008">
        <ele>85.026933</ele>
        <time>2020-08-14T11:08:53.386Z</time>
      </trkpt>
      <trkpt lat="66.13879" lon="13.08028">
        <ele>83.85367</ele>
        <time>2020-08-14T11:08:54.394Z</time>
      </trkpt>
      <trkpt lat="66.13891" lon="13.08044">
        <ele>82.69094</ele>
        <time>2020-08-14T11:08:55.417Z</time>
      </trkpt>
      <trkpt lat="66.13903" lon="13.08055">
        <ele>81.552467</ele>
        <time>2020-08-14T11:08:56.384Z</time>
      </trkpt>
      <trkpt lat="66.13917" lon="13.08063">
        <ele>80.379483</ele>
        <time>2020-08-14T11:08:57.392Z</time>
      </trkpt>
      <trkpt lat="66.1393" lon="13.0807">
        <ele>79.251287</ele>
        <time>2020-08-14T11:08:58.396Z</time>
      </trkpt>
      <trkpt lat="66.13942" lon="13.08077">
        <ele>78.188593</ele>
        <time>2020-08-14T11:08:59.395Z</time>
      </trkpt>
      <trkpt lat="66.13954" lon="13.08083">
        <ele>77.131769</ele>
        <time>2020-08-14T11:09:00.386Z</time>
      </trkpt>
      <trkpt lat="66.13966" lon="13.0809">
        <ele>76.117179</ele>
        <time>2020-08-14T11:09:01.394Z</time>
      </trkpt>
      <trkpt lat="66.13977" lon="13.08096">
        <ele>75.154245</ele>
        <time>2020-08-14T11:09:02.386Z</time>
      </trkpt>
      <trkpt lat="66.13988" lon="13.08103">
        <ele>74.241043</ele>
        <time>2020-08-14T11:09:03.385Z</time>
      </trkpt>
      <trkpt lat="66.13999" lon="13.0811">
        <ele>73.453358</ele>
        <time>2020-08-14T11:09:04.394Z</time>
      </trkpt>
      <trkpt lat="66.1401" lon="13.08117">
        <ele>72.650952</ele>
        <time>2020-08-14T11:09:05.394Z</time>
      </trkpt>
      <trkpt lat="66.14022" lon="13.08124">
        <ele>71.848547</ele>
        <time>2020-08-14T11:09:06.384Z</time>
      </trkpt>
      <trkpt lat="66.14033" lon="13.08131">
        <ele>71.03275</ele>
        <time>2020-08-14T11:09:07.393Z</time>
      </trkpt>
      <trkpt lat="66.14044" lon="13.08137">
        <ele>70.2348</ele>
        <time>2020-08-14T11:09:08.409Z</time>
      </trkpt>
      <trkpt lat="66.14056" lon="13.08143">
        <ele>69.429516</ele>
        <time>2020-08-14T11:09:09.395Z</time>
      </trkpt>
      <trkpt lat="66.14067" lon="13.0815">
        <ele>68.648526</ele>
        <time>2020-08-14T11:09:10.406Z</time>
      </trkpt>
      <trkpt lat="66.14078" lon="13.08156">
        <ele>67.875556</ele>
        <time>2020-08-14T11:09:11.384Z</time>
      </trkpt>
      <trkpt lat="66.14089" lon="13.08163">
        <ele>67.095229</ele>
        <time>2020-08-14T11:09:12.420Z</time>
      </trkpt>
      <trkpt lat="66.141" lon="13.0817">
        <ele>66.325542</ele>
        <time>2020-08-14T11:09:13.396Z</time>
      </trkpt>
      <trkpt lat="66.1411" lon="13.08178">
        <ele>65.550674</ele>
        <time>2020-08-14T11:09:14.399Z</time>
      </trkpt>
      <trkpt lat="66.14121" lon="13.08187">
        <ele>64.77152</ele>
        <time>2020-08-14T11:09:15.392Z</time>
      </trkpt>
      <trkpt lat="66.14132" lon="13.08197">
        <ele>63.982943</ele>
        <time>2020-08-14T11:09:16.393Z</time>
      </trkpt>
      <trkpt lat="66.14142" lon="13.08208">
        <ele>63.184081</ele>
        <time>2020-08-14T11:09:17.383Z</time>
      </trkpt>
      <trkpt lat="66.14153" lon="13.0822">
        <ele>62.380689</ele>
        <time>2020-08-14T11:09:18.416Z</time>
      </trkpt>
      <trkpt lat="66.14163" lon="13.08235">
        <ele>61.66898</ele>
        <time>2020-08-14T11:09:19.381Z</time>
      </trkpt>
      <trkpt lat="66.14174" lon="13.08251">
        <ele>60.999096</ele>
        <time>2020-08-14T11:09:20.382Z</time>
      </trkpt>
      <trkpt lat="66.14184" lon="13.0827">
        <ele>60.323693</ele>
        <time>2020-08-14T11:09:21.413Z</time>
      </trkpt>
      <trkpt lat="66.14193" lon="13.08291">
        <ele>59.628232</ele>
        <time>2020-08-14T11:09:22.388Z</time>
      </trkpt>
      <trkpt lat="66.14202" lon="13.08314">
        <ele>58.926205</ele>
        <time>2020-08-14T11:09:23.393Z</time>
      </trkpt>
      <trkpt lat="66.1421" lon="13.08337">
        <ele>58.224067</ele>
        <time>2020-08-14T11:09:24.384Z</time>
      </trkpt>
      <trkpt lat="66.14219" lon="13.0836">
        <ele>57.537495</ele>
        <time>2020-08-14T11:09:25.425Z</time>
      </trkpt>
      <trkpt lat="66.14228" lon="13.08382">
        <ele>56.851049</ele>
        <time>2020-08-14T11:09:26.377Z</time>
      </trkpt>
      <trkpt lat="66.14236" lon="13.08404">
        <ele>56.175383</ele>
        <time>2020-08-14T11:09:27.381Z</time>
      </trkpt>
      <trkpt lat="66.14244" lon="13.08426">
        <ele>55.515818</ele>
        <time>2020-08-14T11:09:28.405Z</time>
      </trkpt>
      <trkpt lat="66.14252" lon="13.08448">
        <ele>54.856254</ele>
        <time>2020-08-14T11:09:29.396Z</time>
      </trkpt>
      <trkpt lat="66.1426" lon="13.08469">
        <ele>54.217609</ele>
        <time>2020-08-14T11:09:30.405Z</time>
      </trkpt>
      <trkpt lat="66.14268" lon="13.0849">
        <ele>53.590814</ele>
        <time>2020-08-14T11:09:31.430Z</time>
      </trkpt>
      <trkpt lat="66.14276" lon="13.0851">
        <ele>52.978398</ele>
        <time>2020-08-14T11:09:32.398Z</time>
      </trkpt>
      <trkpt lat="66.14283" lon="13.08531">
        <ele>52.37825</ele>
        <time>2020-08-14T11:09:33.388Z</time>
      </trkpt>
      <trkpt lat="66.1429" lon="13.0855">
        <ele>51.996641</ele>
        <time>2020-08-14T11:09:34.384Z</time>
      </trkpt>
      <trkpt lat="66.14297" lon="13.0857">
        <ele>51.673642</ele>
        <time>2020-08-14T11:09:35.434Z</time>
      </trkpt>
      <trkpt lat="66.14303" lon="13.08588">
        <ele>51.364608</ele>
        <time>2020-08-14T11:09:36.393Z</time>
      </trkpt>
      <trkpt lat="66.14309" lon="13.08606">
        <ele>51.062534</ele>
        <time>2020-08-14T11:09:37.380Z</time>
      </trkpt>
      <trkpt lat="66.14315" lon="13.08624">
        <ele>50.768454</ele>
        <time>2020-08-14T11:09:38.388Z</time>
      </trkpt>
      <trkpt lat="66.14326" lon="13.08658">
        <ele>50.216202</ele>
        <time>2020-08-14T11:09:40.394Z</time>
      </trkpt>
      <trkpt lat="66.14336" lon="13.08689">
        <ele>49.691868</ele>
        <time>2020-08-14T11:09:42.403Z</time>
      </trkpt>
      <trkpt lat="66.14347" lon="13.08719">
        <ele>49.169612</ele>
        <time>2020-08-14T11:09:44.393Z</time>
      </trkpt>
      <trkpt lat="66.14358" lon="13.0875">
        <ele>48.653717</ele>
        <time>2020-08-14T11:09:46.397Z</time>
      </trkpt>
      <trkpt lat="66.14369" lon="13.08779">
        <ele>48.146826</ele>
        <time>2020-08-14T11:09:48.411Z</time>
      </trkpt>
      <trkpt lat="66.14378" lon="13.08808">
        <ele>47.662309</ele>
        <time>2020-08-14T11:09:50.381Z</time>
      </trkpt>
      <trkpt lat="66.14388" lon="13.08836">
        <ele>47.200743</ele>
        <time>2020-08-14T11:09:52.381Z</time>
      </trkpt>
      <trkpt lat="66.14397" lon="13.08863">
        <ele>46.749077</ele>
        <time>2020-08-14T11:09:54.423Z</time>
      </trkpt>
      <trkpt lat="66.14407" lon="13.08887">
        <ele>46.232267</ele>
        <time>2020-08-14T11:09:56.387Z</time>
      </trkpt>
      <trkpt lat="66.14418" lon="13.0891">
        <ele>45.666827</ele>
        <time>2020-08-14T11:09:58.394Z</time>
      </trkpt>
      <trkpt lat="66.14429" lon="13.0893">
        <ele>45.107674</ele>
        <time>2020-08-14T11:10:00.384Z</time>
      </trkpt>
      <trkpt lat="66.14441" lon="13.0895">
        <ele>44.502105</ele>
        <time>2020-08-14T11:10:02.393Z</time>
      </trkpt>
      <trkpt lat="66.14456" lon="13.08969">
        <ele>43.850099</ele>
        <time>2020-08-14T11:10:04.424Z</time>
      </trkpt>
      <trkpt lat="66.14471" lon="13.08987">
        <ele>43.155057</ele>
        <time>2020-08-14T11:10:06.400Z</time>
      </trkpt>
      <trkpt lat="66.1448" lon="13.08995">
        <ele>42.785019</ele>
        <time>2020-08-14T11:10:07.397Z</time>
      </trkpt>
      <trkpt lat="66.14488" lon="13.09002">
        <ele>42.422087</ele>
        <time>2020-08-14T11:10:08.388Z</time>
      </trkpt>
      <trkpt lat="66.14505" lon="13.09016">
        <ele>41.700401</ele>
        <time>2020-08-14T11:10:10.439Z</time>
      </trkpt>
      <trkpt lat="66.14521" lon="13.09029">
        <ele>41.016254</ele>
        <time>2020-08-14T11:10:12.386Z</time>
      </trkpt>
      <trkpt lat="66.14536" lon="13.09039">
        <ele>40.392231</ele>
        <time>2020-08-14T11:10:14.382Z</time>
      </trkpt>
      <trkpt lat="66.14551" lon="13.09051">
        <ele>39.778273</ele>
        <time>2020-08-14T11:10:16.396Z</time>
      </trkpt>
      <trkpt lat="66.14566" lon="13.09063">
        <ele>39.295889</ele>
        <time>2020-08-14T11:10:18.412Z</time>
      </trkpt>
      <trkpt lat="66.14581" lon="13.09075">
        <ele>39.202153</ele>
        <time>2020-08-14T11:10:20.395Z</time>
      </trkpt>
      <trkpt lat="66.14596" lon="13.09088">
        <ele>39.111402</ele>
        <time>2020-08-14T11:10:22.386Z</time>
      </trkpt>
      <trkpt lat="66.14611" lon="13.09103">
        <ele>39.015128</ele>
        <time>2020-08-14T11:10:24.383Z</time>
      </trkpt>
      <trkpt lat="66.14629" lon="13.0912">
        <ele>38.909516</ele>
        <time>2020-08-14T11:10:26.380Z</time>
      </trkpt>
      <trkpt lat="66.14638" lon="13.09127">
        <ele>38.854678</ele>
        <time>2020-08-14T11:10:27.402Z</time>
      </trkpt>
      <trkpt lat="66.14646" lon="13.09135">
        <ele>38.800536</ele>
        <time>2020-08-14T11:10:28.391Z</time>
      </trkpt>
      <trkpt lat="66.14655" lon="13.09142">
        <ele>38.747328</ele>
        <time>2020-08-14T11:10:29.392Z</time>
      </trkpt>
      <trkpt lat="66.14664" lon="13.0915">
        <ele>38.694426</ele>
        <time>2020-08-14T11:10:30.380Z</time>
      </trkpt>
      <trkpt lat="66.1468" lon="13.09163">
        <ele>38.593876</ele>
        <time>2020-08-14T11:10:32.448Z</time>
      </trkpt>
      <trkpt lat="66.14696" lon="13.09175">
        <ele>38.497801</ele>
        <time>2020-08-14T11:10:34.412Z</time>
      </trkpt>
      <trkpt lat="66.14712" lon="13.09186">
        <ele>38.402475</ele>
        <time>2020-08-14T11:10:36.394Z</time>
      </trkpt>
      <trkpt lat="66.14728" lon="13.09195">
        <ele>38.310442</ele>
        <time>2020-08-14T11:10:38.405Z</time>
      </trkpt>
      <trkpt lat="66.14743" lon="13.09201">
        <ele>38.817304</ele>
        <time>2020-08-14T11:10:40.437Z</time>
      </trkpt>
      <trkpt lat="66.14756" lon="13.09207">
        <ele>39.532535</ele>
        <time>2020-08-14T11:10:42.375Z</time>
      </trkpt>
      <trkpt lat="66.14768" lon="13.09211">
        <ele>40.16062</ele>
        <time>2020-08-14T11:10:44.407Z</time>
      </trkpt>
      <trkpt lat="66.14778" lon="13.09215">
        <ele>40.715056</ele>
        <time>2020-08-14T11:10:46.430Z</time>
      </trkpt>
      <trkpt lat="66.14788" lon="13.09218">
        <ele>41.23878</ele>
        <time>2020-08-14T11:10:48.399Z</time>
      </trkpt>
      <trkpt lat="66.14797" lon="13.09222">
        <ele>41.719271</ele>
        <time>2020-08-14T11:10:50.376Z</time>
      </trkpt>
      <trkpt lat="66.14809" lon="13.09225">
        <ele>42.339818</ele>
        <time>2020-08-14T11:10:53.421Z</time>
      </trkpt>
      <trkpt lat="66.1482" lon="13.09227">
        <ele>42.922288</ele>
        <time>2020-08-14T11:10:56.383Z</time>
      </trkpt>
      <trkpt lat="66.14831" lon="13.09231">
        <ele>43.49285</ele>
        <time>2020-08-14T11:10:59.392Z</time>
      </trkpt>
      <trkpt lat="66.14842" lon="13.09235">
        <ele>44.073173</ele>
        <time>2020-08-14T11:11:02.412Z</time>
      </trkpt>
      <trkpt lat="66.14853" lon="13.09238">
        <ele>44.658399</ele>
        <time>2020-08-14T11:11:05.413Z</time>
      </trkpt>
      <trkpt lat="66.14865" lon="13.09243">
        <ele>45.258867</ele>
        <time>2020-08-14T11:11:09.421Z</time>
      </trkpt>
      <trkpt lat="66.14875" lon="13.09249">
        <ele>45.820827</ele>
        <time>2020-08-14T11:11:12.400Z</time>
      </trkpt>
      <trkpt lat="66.14884" lon="13.09254">
        <ele>46.319259</ele>
        <time>2020-08-14T11:11:15.417Z</time>
      </trkpt>
      <trkpt lat="66.14895" lon="13.09262">
        <ele>46.921344</ele>
        <time>2020-08-14T11:11:19.389Z</time>
      </trkpt>
      <trkpt lat="66.14906" lon="13.0927">
        <ele>47.513936</ele>
        <time>2020-08-14T11:11:23.387Z</time>
      </trkpt>
      <trkpt lat="66.14916" lon="13.09279">
        <ele>48.794253</ele>
        <time>2020-08-14T11:11:27.414Z</time>
      </trkpt>
      <trkpt lat="66.14926" lon="13.09288">
        <ele>50.300019</ele>
        <time>2020-08-14T11:11:31.427Z</time>
      </trkpt>
      <trkpt lat="66.14936" lon="13.09295">
        <ele>51.805644</ele>
        <time>2020-08-14T11:11:35.381Z</time>
      </trkpt>
      <trkpt lat="66.14945" lon="13.09303">
        <ele>53.182377</ele>
        <time>2020-08-14T11:11:39.394Z</time>
      </trkpt>
      <trkpt lat="66.14953" lon="13.09313">
        <ele>54.568629</ele>
        <time>2020-08-14T11:11:43.389Z</time>
      </trkpt>
      <trkpt lat="66.14962" lon="13.09323">
        <ele>55.933942</ele>
        <time>2020-08-14T11:11:47.384Z</time>
      </trkpt>
      <trkpt lat="66.14971" lon="13.09333">
        <ele>57.442048</ele>
        <time>2020-08-14T11:11:51.417Z</time>
      </trkpt>
      <trkpt lat="66.14979" lon="13.09344">
        <ele>58.839093</ele>
        <time>2020-08-14T11:11:55.431Z</time>
      </trkpt>
      <trkpt lat="66.14989" lon="13.09356">
        <ele>60.452245</ele>
        <time>2020-08-14T11:12:00.386Z</time>
      </trkpt>
      <trkpt lat="66.14997" lon="13.09366">
        <ele>61.785828</ele>
        <time>2020-08-14T11:12:04.397Z</time>
      </trkpt>
      <trkpt lat="66.15006" lon="13.09378">
        <ele>63.313114</ele>
        <time>2020-08-14T11:12:09.402Z</time>
      </trkpt>
      <trkpt lat="66.15015" lon="13.09391">
        <ele>64.823413</ele>
        <time>2020-08-14T11:12:14.395Z</time>
      </trkpt>
      <trkpt lat="66.15024" lon="13.09405">
        <ele>66.337416</ele>
        <time>2020-08-14T11:12:19.410Z</time>
      </trkpt>
      <trkpt lat="66.15032" lon="13.09419">
        <ele>67.799631</ele>
        <time>2020-08-14T11:12:24.419Z</time>
      </trkpt>
      <trkpt lat="66.15041" lon="13.09433">
        <ele>69.328258</ele>
        <time>2020-08-14T11:12:29.416Z</time>
      </trkpt>
      <trkpt lat="66.15049" lon="13.09449">
        <ele>70.88711</ele>
        <time>2020-08-14T11:12:34.425Z</time>
      </trkpt>
      <trkpt lat="66.15056" lon="13.09464">
        <ele>72.311427</ele>
        <time>2020-08-14T11:12:38.383Z</time>
      </trkpt>
      <trkpt lat="66.15064" lon="13.09479">
        <ele>73.739721</ele>
        <time>2020-08-14T11:12:42.380Z</time>
      </trkpt>
      <trkpt lat="66.15072" lon="13.09496">
        <ele>74.215445</ele>
        <time>2020-08-14T11:12:46.433Z</time>
      </trkpt>
      <trkpt lat="66.1508" lon="13.09511">
        <ele>74.274863</ele>
        <time>2020-08-14T11:12:50.413Z</time>
      </trkpt>
      <trkpt lat="66.15089" lon="13.09529">
        <ele>74.33763</ele>
        <time>2020-08-14T11:12:54.392Z</time>
      </trkpt>
      <trkpt lat="66.15096" lon="13.09544">
        <ele>74.38881</ele>
        <time>2020-08-14T11:12:57.401Z</time>
      </trkpt>
      <trkpt lat="66.15104" lon="13.09561">
        <ele>74.447997</ele>
        <time>2020-08-14T11:13:00.384Z</time>
      </trkpt>
      <trkpt lat="66.15114" lon="13.09579">
        <ele>74.515938</ele>
        <time>2020-08-14T11:13:03.408Z</time>
      </trkpt>
      <trkpt lat="66.15122" lon="13.09594">
        <ele>74.5717</ele>
        <time>2020-08-14T11:13:05.395Z</time>
      </trkpt>
      <trkpt lat="66.1513" lon="13.09611">
        <ele>74.631027</ele>
        <time>2020-08-14T11:13:07.404Z</time>
      </trkpt>
      <trkpt lat="66.15139" lon="13.09628">
        <ele>74.693936</ele>
        <time>2020-08-14T11:13:09.393Z</time>
      </trkpt>
      <trkpt lat="66.15148" lon="13.09647">
        <ele>74.761283</ele>
        <time>2020-08-14T11:13:11.379Z</time>
      </trkpt>
      <trkpt lat="66.15158" lon="13.09667">
        <ele>74.831496</ele>
        <time>2020-08-14T11:13:13.421Z</time>
      </trkpt>
      <trkpt lat="66.15167" lon="13.09686">
        <ele>74.899279</ele>
        <time>2020-08-14T11:13:15.395Z</time>
      </trkpt>
      <trkpt lat="66.15176" lon="13.09704">
        <ele>74.964772</ele>
        <time>2020-08-14T11:13:17.385Z</time>
      </trkpt>
      <trkpt lat="66.15184" lon="13.09722">
        <ele>75.025288</ele>
        <time>2020-08-14T11:13:19.419Z</time>
      </trkpt>
      <trkpt lat="66.15192" lon="13.09739">
        <ele>75.083177</ele>
        <time>2020-08-14T11:13:21.412Z</time>
      </trkpt>
      <trkpt lat="66.15202" lon="13.09761">
        <ele>75.157215</ele>
        <time>2020-08-14T11:13:24.435Z</time>
      </trkpt>
      <trkpt lat="66.15211" lon="13.0978">
        <ele>74.808168</ele>
        <time>2020-08-14T11:13:27.398Z</time>
      </trkpt>
      <trkpt lat="66.1522" lon="13.09796">
        <ele>74.28211</ele>
        <time>2020-08-14T11:13:30.421Z</time>
      </trkpt>
      <trkpt lat="66.15229" lon="13.09813">
        <ele>73.750058</ele>
        <time>2020-08-14T11:13:34.409Z</time>
      </trkpt>
      <trkpt lat="66.15237" lon="13.09832">
        <ele>73.23366</ele>
        <time>2020-08-14T11:13:38.385Z</time>
      </trkpt>
      <trkpt lat="66.15244" lon="13.09849">
        <ele>72.796966</ele>
        <time>2020-08-14T11:13:41.396Z</time>
      </trkpt>
      <trkpt lat="66.15251" lon="13.09865">
        <ele>72.350284</ele>
        <time>2020-08-14T11:13:44.413Z</time>
      </trkpt>
      <trkpt lat="66.15257" lon="13.09881">
        <ele>71.915199</ele>
        <time>2020-08-14T11:13:47.410Z</time>
      </trkpt>
      <trkpt lat="66.15266" lon="13.09898">
        <ele>71.402551</ele>
        <time>2020-08-14T11:13:50.379Z</time>
      </trkpt>
      <trkpt lat="66.15274" lon="13.09916">
        <ele>70.894275</ele>
        <time>2020-08-14T11:13:53.407Z</time>
      </trkpt>
      <trkpt lat="66.15284" lon="13.09938">
        <ele>70.269253</ele>
        <time>2020-08-14T11:13:56.391Z</time>
      </trkpt>
      <trkpt lat="66.15292" lon="13.09955">
        <ele>69.775826</ele>
        <time>2020-08-14T11:13:58.419Z</time>
      </trkpt>
      <trkpt lat="66.15301" lon="13.09975">
        <ele>69.222699</ele>
        <time>2020-08-14T11:14:00.433Z</time>
      </trkpt>
      <trkpt lat="66.1531" lon="13.09999">
        <ele>68.58288</ele>
        <time>2020-08-14T11:14:02.402Z</time>
      </trkpt>
      <trkpt lat="66.15321" lon="13.10026">
        <ele>67.886435</ele>
        <time>2020-08-14T11:14:04.403Z</time>
      </trkpt>
      <trkpt lat="66.15331" lon="13.10052">
        <ele>67.209215</ele>
        <time>2020-08-14T11:14:06.409Z</time>
      </trkpt>
      <trkpt lat="66.1534" lon="13.10076">
        <ele>66.448869</ele>
        <time>2020-08-14T11:14:08.392Z</time>
      </trkpt>
      <trkpt lat="66.15349" lon="13.101">
        <ele>65.436995</ele>
        <time>2020-08-14T11:14:10.419Z</time>
      </trkpt>
      <trkpt lat="66.15359" lon="13.10123">
        <ele>64.44472</ele>
        <time>2020-08-14T11:14:12.409Z</time>
      </trkpt>
      <trkpt lat="66.15367" lon="13.10145">
        <ele>63.491035</ele>
        <time>2020-08-14T11:14:14.388Z</time>
      </trkpt>
      <trkpt lat="66.15376" lon="13.10166">
        <ele>62.561687</ele>
        <time>2020-08-14T11:14:16.402Z</time>
      </trkpt>
      <trkpt lat="66.15385" lon="13.10184">
        <ele>61.696201</ele>
        <time>2020-08-14T11:14:18.392Z</time>
      </trkpt>
      <trkpt lat="66.15394" lon="13.10194">
        <ele>60.957383</ele>
        <time>2020-08-14T11:14:20.402Z</time>
      </trkpt>
      <trkpt lat="66.15406" lon="13.10181">
        <ele>60.001095</ele>
        <time>2020-08-14T11:14:23.392Z</time>
      </trkpt>
      <trkpt lat="66.1541" lon="13.10155">
        <ele>59.146969</ele>
        <time>2020-08-14T11:14:25.385Z</time>
      </trkpt>
      <trkpt lat="66.15411" lon="13.10128">
        <ele>58.32665</ele>
        <time>2020-08-14T11:14:27.394Z</time>
      </trkpt>
      <trkpt lat="66.15412" lon="13.10104">
        <ele>57.585966</ele>
        <time>2020-08-14T11:14:29.389Z</time>
      </trkpt>
      <trkpt lat="66.15414" lon="13.10079">
        <ele>56.833171</ele>
        <time>2020-08-14T11:14:31.514Z</time>
      </trkpt>
      <trkpt lat="66.15414" lon="13.10053">
        <ele>56.026155</ele>
        <time>2020-08-14T11:14:33.394Z</time>
      </trkpt>
      <trkpt lat="66.15417" lon="13.10028">
        <ele>55.25597</ele>
        <time>2020-08-14T11:14:35.440Z</time>
      </trkpt>
      <trkpt lat="66.15418" lon="13.10003">
        <ele>54.462898</ele>
        <time>2020-08-14T11:14:37.399Z</time>
      </trkpt>
      <trkpt lat="66.15419" lon="13.09976">
        <ele>53.64121</ele>
        <time>2020-08-14T11:14:39.400Z</time>
      </trkpt>
      <trkpt lat="66.1542" lon="13.09948">
        <ele>53.237867</ele>
        <time>2020-08-14T11:14:41.404Z</time>
      </trkpt>
      <trkpt lat="66.15422" lon="13.0992">
        <ele>53.293879</ele>
        <time>2020-08-14T11:14:43.381Z</time>
      </trkpt>
      <trkpt lat="66.15425" lon="13.0989">
        <ele>53.352146</ele>
        <time>2020-08-14T11:14:45.407Z</time>
      </trkpt>
      <trkpt lat="66.15427" lon="13.0986">
        <ele>53.411351</ele>
        <time>2020-08-14T11:14:47.390Z</time>
      </trkpt>
      <trkpt lat="66.1543" lon="13.09833">
        <ele>53.467277</ele>
        <time>2020-08-14T11:14:49.388Z</time>
      </trkpt>
      <trkpt lat="66.15432" lon="13.09806">
        <ele>53.520526</ele>
        <time>2020-08-14T11:14:51.388Z</time>
      </trkpt>
      <trkpt lat="66.15435" lon="13.0978">
        <ele>53.571831</ele>
        <time>2020-08-14T11:14:53.394Z</time>
      </trkpt>
      <trkpt lat="66.15437" lon="13.09758">
        <ele>53.616953</ele>
        <time>2020-08-14T11:14:55.384Z</time>
      </trkpt>
      <trkpt lat="66.15439" lon="13.0973">
        <ele>53.672548</ele>
        <time>2020-08-14T11:14:58.377Z</time>
      </trkpt>
      <trkpt lat="66.15441" lon="13.09706">
        <ele>53.719109</ele>
        <time>2020-08-14T11:15:01.387Z</time>
      </trkpt>
      <trkpt lat="66.15442" lon="13.0968">
        <ele>53.769375</ele>
        <time>2020-08-14T11:15:05.404Z</time>
      </trkpt>
      <trkpt lat="66.15444" lon="13.09658">
        <ele>53.814486</ele>
        <time>2020-08-14T11:15:09.394Z</time>
      </trkpt>
      <trkpt lat="66.15446" lon="13.09633">
        <ele>53.862858</ele>
        <time>2020-08-14T11:15:14.389Z</time>
      </trkpt>
      <trkpt lat="66.15448" lon="13.09608">
        <ele>53.913802</ele>
        <time>2020-08-14T11:15:19.380Z</time>
      </trkpt>
      <trkpt lat="66.15451" lon="13.09583">
        <ele>53.963231</ele>
        <time>2020-08-14T11:15:24.391Z</time>
      </trkpt>
      <trkpt lat="66.15453" lon="13.09558">
        <ele>54.012918</ele>
        <time>2020-08-14T11:15:29.393Z</time>
      </trkpt>
      <trkpt lat="66.15454" lon="13.09536">
        <ele>54.056412</ele>
        <time>2020-08-14T11:15:33.388Z</time>
      </trkpt>
      <trkpt lat="66.15456" lon="13.09514">
        <ele>54.139598</ele>
        <time>2020-08-14T11:15:37.397Z</time>
      </trkpt>
      <trkpt lat="66.15458" lon="13.09487">
        <ele>54.286364</ele>
        <time>2020-08-14T11:15:42.394Z</time>
      </trkpt>
      <trkpt lat="66.1546" lon="13.09464">
        <ele>54.411196</ele>
        <time>2020-08-14T11:15:46.411Z</time>
      </trkpt>
      <trkpt lat="66.15461" lon="13.09439">
        <ele>54.542234</ele>
        <time>2020-08-14T11:15:50.400Z</time>
      </trkpt>
      <trkpt lat="66.15463" lon="13.09415">
        <ele>54.67249</ele>
        <time>2020-08-14T11:15:54.398Z</time>
      </trkpt>
      <trkpt lat="66.15465" lon="13.0939">
        <ele>54.805254</ele>
        <time>2020-08-14T11:15:58.375Z</time>
      </trkpt>
      <trkpt lat="66.15466" lon="13.09364">
        <ele>54.94682</ele>
        <time>2020-08-14T11:16:02.397Z</time>
      </trkpt>
      <trkpt lat="66.15468" lon="13.09337">
        <ele>55.092907</ele>
        <time>2020-08-14T11:16:06.417Z</time>
      </trkpt>
      <trkpt lat="66.1547" lon="13.09312">
        <ele>55.226795</ele>
        <time>2020-08-14T11:16:09.398Z</time>
      </trkpt>
      <trkpt lat="66.15472" lon="13.09289">
        <ele>55.350878</ele>
        <time>2020-08-14T11:16:11.404Z</time>
      </trkpt>
      <trkpt lat="66.15473" lon="13.09261">
        <ele>55.500259</ele>
        <time>2020-08-14T11:16:13.376Z</time>
      </trkpt>
      <trkpt lat="66.15475" lon="13.09228">
        <ele>55.679218</ele>
        <time>2020-08-14T11:16:15.408Z</time>
      </trkpt>
      <trkpt lat="66.15479" lon="13.0919">
        <ele>55.884308</ele>
        <time>2020-08-14T11:16:17.395Z</time>
      </trkpt>
      <trkpt lat="66.15482" lon="13.09149">
        <ele>56.106157</ele>
        <time>2020-08-14T11:16:19.401Z</time>
      </trkpt>
      <trkpt lat="66.15485" lon="13.09105">
        <ele>56.338965</ele>
        <time>2020-08-14T11:16:21.398Z</time>
      </trkpt>
      <trkpt lat="66.15486" lon="13.09083">
        <ele>56.272518</ele>
        <time>2020-08-14T11:16:22.381Z</time>
      </trkpt>
      <trkpt lat="66.15486" lon="13.0906">
        <ele>55.546861</ele>
        <time>2020-08-14T11:16:23.395Z</time>
      </trkpt>
      <trkpt lat="66.15487" lon="13.09037">
        <ele>54.844598</ele>
        <time>2020-08-14T11:16:24.399Z</time>
      </trkpt>
      <trkpt lat="66.15486" lon="13.09015">
        <ele>54.138562</ele>
        <time>2020-08-14T11:16:25.387Z</time>
      </trkpt>
      <trkpt lat="66.15485" lon="13.0897">
        <ele>52.748059</ele>
        <time>2020-08-14T11:16:27.401Z</time>
      </trkpt>
      <trkpt lat="66.15483" lon="13.08947">
        <ele>52.021049</ele>
        <time>2020-08-14T11:16:28.377Z</time>
      </trkpt>
      <trkpt lat="66.15482" lon="13.08925">
        <ele>51.310555</ele>
        <time>2020-08-14T11:16:29.402Z</time>
      </trkpt>
      <trkpt lat="66.15481" lon="13.08903">
        <ele>50.604238</ele>
        <time>2020-08-14T11:16:30.402Z</time>
      </trkpt>
      <trkpt lat="66.15479" lon="13.0888">
        <ele>49.875976</ele>
        <time>2020-08-14T11:16:31.384Z</time>
      </trkpt>
      <trkpt lat="66.15477" lon="13.08858">
        <ele>49.179926</ele>
        <time>2020-08-14T11:16:32.397Z</time>
      </trkpt>
      <trkpt lat="66.15473" lon="13.08816">
        <ele>47.821112</ele>
        <time>2020-08-14T11:16:34.380Z</time>
      </trkpt>
      <trkpt lat="66.15469" lon="13.08776">
        <ele>46.52508</ele>
        <time>2020-08-14T11:16:36.396Z</time>
      </trkpt>
      <trkpt lat="66.15463" lon="13.08741">
        <ele>45.327199</ele>
        <time>2020-08-14T11:16:38.393Z</time>
      </trkpt>
      <trkpt lat="66.15458" lon="13.08708">
        <ele>44.208201</ele>
        <time>2020-08-14T11:16:40.385Z</time>
      </trkpt>
      <trkpt lat="66.15453" lon="13.08676">
        <ele>43.156051</ele>
        <time>2020-08-14T11:16:42.391Z</time>
      </trkpt>
      <trkpt lat="66.15448" lon="13.08646">
        <ele>42.39051</ele>
        <time>2020-08-14T11:16:44.388Z</time>
      </trkpt>
      <trkpt lat="66.15444" lon="13.08618">
        <ele>42.138795</ele>
        <time>2020-08-14T11:16:46.387Z</time>
      </trkpt>
      <trkpt lat="66.15439" lon="13.08591">
        <ele>41.894626</ele>
        <time>2020-08-14T11:16:48.403Z</time>
      </trkpt>
      <trkpt lat="66.15434" lon="13.08565">
        <ele>41.654515</ele>
        <time>2020-08-14T11:16:50.400Z</time>
      </trkpt>
      <trkpt lat="66.1543" lon="13.08539">
        <ele>41.42061</ele>
        <time>2020-08-14T11:16:52.408Z</time>
      </trkpt>
      <trkpt lat="66.15425" lon="13.08516">
        <ele>41.201412</ele>
        <time>2020-08-14T11:16:54.412Z</time>
      </trkpt>
      <trkpt lat="66.15421" lon="13.08493">
        <ele>40.993199</ele>
        <time>2020-08-14T11:16:56.396Z</time>
      </trkpt>
      <trkpt lat="66.15418" lon="13.0847">
        <ele>40.785005</ele>
        <time>2020-08-14T11:16:58.384Z</time>
      </trkpt>
      <trkpt lat="66.15414" lon="13.08447">
        <ele>40.578283</ele>
        <time>2020-08-14T11:17:00.405Z</time>
      </trkpt>
      <trkpt lat="66.1541" lon="13.08426">
        <ele>40.380827</ele>
        <time>2020-08-14T11:17:02.397Z</time>
      </trkpt>
      <trkpt lat="66.15406" lon="13.08404">
        <ele>40.180364</ele>
        <time>2020-08-14T11:17:04.387Z</time>
      </trkpt>
      <trkpt lat="66.15402" lon="13.08381">
        <ele>39.976793</ele>
        <time>2020-08-14T11:17:06.389Z</time>
      </trkpt>
      <trkpt lat="66.15398" lon="13.08359">
        <ele>39.775429</ele>
        <time>2020-08-14T11:17:08.387Z</time>
      </trkpt>
      <trkpt lat="66.15395" lon="13.08338">
        <ele>39.58348</ele>
        <time>2020-08-14T11:17:10.394Z</time>
      </trkpt>
      <trkpt lat="66.15391" lon="13.08316">
        <ele>39.389144</ele>
        <time>2020-08-14T11:17:12.398Z</time>
      </trkpt>
      <trkpt lat="66.15387" lon="13.08287">
        <ele>39.127347</ele>
        <time>2020-08-14T11:17:15.390Z</time>
      </trkpt>
      <trkpt lat="66.15382" lon="13.08261">
        <ele>38.887933</ele>
        <time>2020-08-14T11:17:18.402Z</time>
      </trkpt>
      <trkpt lat="66.15378" lon="13.08236">
        <ele>38.86675</ele>
        <time>2020-08-14T11:17:21.385Z</time>
      </trkpt>
      <trkpt lat="66.15373" lon="13.08212">
        <ele>39.125757</ele>
        <time>2020-08-14T11:17:24.408Z</time>
      </trkpt>
      <trkpt lat="66.15367" lon="13.08184">
        <ele>39.415942</ele>
        <time>2020-08-14T11:17:27.412Z</time>
      </trkpt>
      <trkpt lat="66.15364" lon="13.08162">
        <ele>39.642468</ele>
        <time>2020-08-14T11:17:30.436Z</time>
      </trkpt>
      <trkpt lat="66.1528" lon="13.07786">
        <ele>44.578651</ele>
        <time>2020-08-14T11:49:42.486Z</time>
      </trkpt>
      <trkpt lat="66.1535" lon="13.07587">
        <ele>49.97578</ele>
        <time>2020-08-14T11:57:39.885Z</time>
      </trkpt>
      <trkpt lat="66.15359" lon="13.07594">
        <ele>50.47746</ele>
        <time>2020-08-14T11:57:43.898Z</time>
      </trkpt>
      <trkpt lat="66.15371" lon="13.07602">
        <ele>51.127651</ele>
        <time>2020-08-14T11:57:46.870Z</time>
      </trkpt>
      <trkpt lat="66.15381" lon="13.07606">
        <ele>51.624185</ele>
        <time>2020-08-14T11:57:48.870Z</time>
      </trkpt>
      <trkpt lat="66.15392" lon="13.07612">
        <ele>52.102902</ele>
        <time>2020-08-14T11:57:50.877Z</time>
      </trkpt>
      <trkpt lat="66.15401" lon="13.07615">
        <ele>51.68818</ele>
        <time>2020-08-14T11:57:52.884Z</time>
      </trkpt>
      <trkpt lat="66.15412" lon="13.0762">
        <ele>51.245757</ele>
        <time>2020-08-14T11:57:54.885Z</time>
      </trkpt>
      <trkpt lat="66.15421" lon="13.07627">
        <ele>50.820113</ele>
        <time>2020-08-14T11:57:56.877Z</time>
      </trkpt>
      <trkpt lat="66.15431" lon="13.07633">
        <ele>50.415465</ele>
        <time>2020-08-14T11:57:59.882Z</time>
      </trkpt>
      <trkpt lat="66.15441" lon="13.07639">
        <ele>49.992133</ele>
        <time>2020-08-14T11:58:03.877Z</time>
      </trkpt>
      <trkpt lat="66.15452" lon="13.07645">
        <ele>49.512628</ele>
        <time>2020-08-14T11:58:06.863Z</time>
      </trkpt>
      <trkpt lat="66.15463" lon="13.07654">
        <ele>49.026872</ele>
        <time>2020-08-14T11:58:09.865Z</time>
      </trkpt>
      <trkpt lat="66.15475" lon="13.07664">
        <ele>48.505555</ele>
        <time>2020-08-14T11:58:12.892Z</time>
      </trkpt>
      <trkpt lat="66.15485" lon="13.07675">
        <ele>48.044837</ele>
        <time>2020-08-14T11:58:15.883Z</time>
      </trkpt>
      <trkpt lat="66.15495" lon="13.07685">
        <ele>47.58345</ele>
        <time>2020-08-14T11:58:18.868Z</time>
      </trkpt>
      <trkpt lat="66.15503" lon="13.07695">
        <ele>47.200094</ele>
        <time>2020-08-14T11:58:20.865Z</time>
      </trkpt>
      <trkpt lat="66.15515" lon="13.07712">
        <ele>46.621548</ele>
        <time>2020-08-14T11:58:23.884Z</time>
      </trkpt>
      <trkpt lat="66.15525" lon="13.07718">
        <ele>46.201024</ele>
        <time>2020-08-14T11:58:25.872Z</time>
      </trkpt>
      <trkpt lat="66.15534" lon="13.07724">
        <ele>45.78541</ele>
        <time>2020-08-14T11:58:27.879Z</time>
      </trkpt>
      <trkpt lat="66.15544" lon="13.07732">
        <ele>45.344709</ele>
        <time>2020-08-14T11:58:29.881Z</time>
      </trkpt>
      <trkpt lat="66.15553" lon="13.0774">
        <ele>44.953305</ele>
        <time>2020-08-14T11:58:31.881Z</time>
      </trkpt>
      <trkpt lat="66.15563" lon="13.07748">
        <ele>44.44472</ele>
        <time>2020-08-14T11:58:33.871Z</time>
      </trkpt>
      <trkpt lat="66.15574" lon="13.07757">
        <ele>43.297603</ele>
        <time>2020-08-14T11:58:35.877Z</time>
      </trkpt>
      <trkpt lat="66.15584" lon="13.07764">
        <ele>42.262566</ele>
        <time>2020-08-14T11:58:37.868Z</time>
      </trkpt>
      <trkpt lat="66.15594" lon="13.07771">
        <ele>41.20637</ele>
        <time>2020-08-14T11:58:39.871Z</time>
      </trkpt>
      <trkpt lat="66.15605" lon="13.07776">
        <ele>40.084701</ele>
        <time>2020-08-14T11:58:41.875Z</time>
      </trkpt>
      <trkpt lat="66.15616" lon="13.0778">
        <ele>39.049516</ele>
        <time>2020-08-14T11:58:43.871Z</time>
      </trkpt>
      <trkpt lat="66.15625" lon="13.07784">
        <ele>38.094275</ele>
        <time>2020-08-14T11:58:45.873Z</time>
      </trkpt>
      <trkpt lat="66.15635" lon="13.07785">
        <ele>37.175312</ele>
        <time>2020-08-14T11:58:47.904Z</time>
      </trkpt>
      <trkpt lat="66.15647" lon="13.07793">
        <ele>35.868575</ele>
        <time>2020-08-14T11:58:50.882Z</time>
      </trkpt>
      <trkpt lat="66.1566" lon="13.07799">
        <ele>34.592701</ele>
        <time>2020-08-14T11:58:53.889Z</time>
      </trkpt>
      <trkpt lat="66.15669" lon="13.07802">
        <ele>33.675924</ele>
        <time>2020-08-14T11:58:55.875Z</time>
      </trkpt>
      <trkpt lat="66.15679" lon="13.07806">
        <ele>32.70681</ele>
        <time>2020-08-14T11:58:57.870Z</time>
      </trkpt>
      <trkpt lat="66.15689" lon="13.07812">
        <ele>31.670345</ele>
        <time>2020-08-14T11:58:59.880Z</time>
      </trkpt>
      <trkpt lat="66.157" lon="13.07818">
        <ele>30.608699</ele>
        <time>2020-08-14T11:59:01.864Z</time>
      </trkpt>
      <trkpt lat="66.1571" lon="13.07824">
        <ele>29.613419</ele>
        <time>2020-08-14T11:59:03.878Z</time>
      </trkpt>
      <trkpt lat="66.15719" lon="13.07828">
        <ele>28.669377</ele>
        <time>2020-08-14T11:59:05.879Z</time>
      </trkpt>
      <trkpt lat="66.15729" lon="13.0783">
        <ele>27.677954</ele>
        <time>2020-08-14T11:59:07.910Z</time>
      </trkpt>
      <trkpt lat="66.15738" lon="13.07832">
        <ele>26.862982</ele>
        <time>2020-08-14T11:59:09.883Z</time>
      </trkpt>
      <trkpt lat="66.15748" lon="13.07834">
        <ele>27.051987</ele>
        <time>2020-08-14T11:59:11.875Z</time>
      </trkpt>
      <trkpt lat="66.15762" lon="13.07834">
        <ele>27.318189</ele>
        <time>2020-08-14T11:59:14.873Z</time>
      </trkpt>
      <trkpt lat="66.15772" lon="13.07836">
        <ele>27.514946</ele>
        <time>2020-08-14T11:59:16.871Z</time>
      </trkpt>
      <trkpt lat="66.15781" lon="13.07835">
        <ele>27.699738</ele>
        <time>2020-08-14T11:59:18.888Z</time>
      </trkpt>
      <trkpt lat="66.15795" lon="13.0783">
        <ele>27.970096</ele>
        <time>2020-08-14T11:59:21.878Z</time>
      </trkpt>
      <trkpt lat="66.15806" lon="13.07829">
        <ele>28.174412</ele>
        <time>2020-08-14T11:59:23.896Z</time>
      </trkpt>
      <trkpt lat="66.15817" lon="13.07829">
        <ele>28.397863</ele>
        <time>2020-08-14T11:59:25.884Z</time>
      </trkpt>
      <trkpt lat="66.15828" lon="13.07825">
        <ele>28.613895</ele>
        <time>2020-08-14T11:59:27.871Z</time>
      </trkpt>
      <trkpt lat="66.1584" lon="13.07816">
        <ele>28.852438</ele>
        <time>2020-08-14T11:59:30.876Z</time>
      </trkpt>
      <trkpt lat="66.1585" lon="13.07808">
        <ele>29.059197</ele>
        <time>2020-08-14T11:59:32.868Z</time>
      </trkpt>
      <trkpt lat="66.15861" lon="13.07798">
        <ele>29.291862</ele>
        <time>2020-08-14T11:59:34.909Z</time>
      </trkpt>
      <trkpt lat="66.1587" lon="13.07787">
        <ele>29.486597</ele>
        <time>2020-08-14T11:59:36.867Z</time>
      </trkpt>
      <trkpt lat="66.15879" lon="13.07775">
        <ele>29.674463</ele>
        <time>2020-08-14T11:59:38.872Z</time>
      </trkpt>
      <trkpt lat="66.15887" lon="13.07766">
        <ele>29.851183</ele>
        <time>2020-08-14T11:59:40.873Z</time>
      </trkpt>
      <trkpt lat="66.159" lon="13.07749">
        <ele>30.130256</ele>
        <time>2020-08-14T11:59:43.873Z</time>
      </trkpt>
      <trkpt lat="66.15909" lon="13.07736">
        <ele>30.330038</ele>
        <time>2020-08-14T11:59:45.905Z</time>
      </trkpt>
      <trkpt lat="66.15918" lon="13.07721">
        <ele>30.388515</ele>
        <time>2020-08-14T11:59:47.874Z</time>
      </trkpt>
      <trkpt lat="66.15924" lon="13.07706">
        <ele>30.43346</ele>
        <time>2020-08-14T11:59:49.885Z</time>
      </trkpt>
      <trkpt lat="66.15931" lon="13.0769">
        <ele>30.479359</ele>
        <time>2020-08-14T11:59:51.870Z</time>
      </trkpt>
      <trkpt lat="66.1594" lon="13.07667">
        <ele>30.544899</ele>
        <time>2020-08-14T11:59:54.880Z</time>
      </trkpt>
      <trkpt lat="66.15947" lon="13.07643">
        <ele>30.603098</ele>
        <time>2020-08-14T11:59:57.883Z</time>
      </trkpt>
      <trkpt lat="66.15954" lon="13.07618">
        <ele>30.662031</ele>
        <time>2020-08-14T12:00:00.885Z</time>
      </trkpt>
      <trkpt lat="66.1596" lon="13.07592">
        <ele>30.721836</ele>
        <time>2020-08-14T12:00:03.882Z</time>
      </trkpt>
      <trkpt lat="66.15965" lon="13.07566">
        <ele>30.780643</ele>
        <time>2020-08-14T12:00:06.876Z</time>
      </trkpt>
      <trkpt lat="66.15968" lon="13.07538">
        <ele>30.837411</ele>
        <time>2020-08-14T12:00:09.903Z</time>
      </trkpt>
      <trkpt lat="66.15973" lon="13.07518">
        <ele>30.884674</ele>
        <time>2020-08-14T12:00:11.871Z</time>
      </trkpt>
      <trkpt lat="66.15977" lon="13.07498">
        <ele>30.929001</ele>
        <time>2020-08-14T12:00:13.867Z</time>
      </trkpt>
      <trkpt lat="66.15981" lon="13.07467">
        <ele>30.992994</ele>
        <time>2020-08-14T12:00:16.876Z</time>
      </trkpt>
      <trkpt lat="66.15986" lon="13.07443">
        <ele>31.048093</ele>
        <time>2020-08-14T12:00:19.884Z</time>
      </trkpt>
      <trkpt lat="66.15991" lon="13.07423">
        <ele>31.094005</ele>
        <time>2020-08-14T12:00:21.876Z</time>
      </trkpt>
      <trkpt lat="66.15995" lon="13.07402">
        <ele>31.139568</ele>
        <time>2020-08-14T12:00:23.865Z</time>
      </trkpt>
      <trkpt lat="66.16002" lon="13.07372">
        <ele>31.206891</ele>
        <time>2020-08-14T12:00:26.887Z</time>
      </trkpt>
      <trkpt lat="66.16008" lon="13.07351">
        <ele>31.290582</ele>
        <time>2020-08-14T12:00:28.874Z</time>
      </trkpt>
      <trkpt lat="66.16012" lon="13.07328">
        <ele>31.384188</ele>
        <time>2020-08-14T12:00:30.880Z</time>
      </trkpt>
      <trkpt lat="66.16019" lon="13.07302">
        <ele>31.496248</ele>
        <time>2020-08-14T12:00:32.887Z</time>
      </trkpt>
      <trkpt lat="66.16023" lon="13.07275">
        <ele>31.602789</ele>
        <time>2020-08-14T12:00:34.888Z</time>
      </trkpt>
      <trkpt lat="66.16028" lon="13.07246">
        <ele>31.71746</ele>
        <time>2020-08-14T12:00:36.877Z</time>
      </trkpt>
      <trkpt lat="66.16032" lon="13.07219">
        <ele>31.821653</ele>
        <time>2020-08-14T12:00:38.857Z</time>
      </trkpt>
      <trkpt lat="66.16035" lon="13.07195">
        <ele>31.915334</ele>
        <time>2020-08-14T12:00:40.882Z</time>
      </trkpt>
      <trkpt lat="66.16038" lon="13.07172">
        <ele>32.006057</ele>
        <time>2020-08-14T12:00:42.877Z</time>
      </trkpt>
      <trkpt lat="66.16041" lon="13.07146">
        <ele>32.103879</ele>
        <time>2020-08-14T12:00:44.880Z</time>
      </trkpt>
      <trkpt lat="66.16044" lon="13.07123">
        <ele>32.194193</ele>
        <time>2020-08-14T12:00:46.873Z</time>
      </trkpt>
      <trkpt lat="66.16047" lon="13.07098">
        <ele>32.289199</ele>
        <time>2020-08-14T12:00:48.885Z</time>
      </trkpt>
      <trkpt lat="66.16051" lon="13.07067">
        <ele>32.40914</ele>
        <time>2020-08-14T12:00:51.870Z</time>
      </trkpt>
      <trkpt lat="66.16056" lon="13.07043">
        <ele>32.505524</ele>
        <time>2020-08-14T12:00:53.886Z</time>
      </trkpt>
      <trkpt lat="66.16062" lon="13.07024">
        <ele>32.59543</ele>
        <time>2020-08-14T12:00:55.866Z</time>
      </trkpt>
      <trkpt lat="66.16068" lon="13.07004">
        <ele>32.684047</ele>
        <time>2020-08-14T12:00:57.876Z</time>
      </trkpt>
      <trkpt lat="66.16075" lon="13.06979">
        <ele>32.795883</ele>
        <time>2020-08-14T12:01:00.859Z</time>
      </trkpt>
      <trkpt lat="66.16083" lon="13.06961">
        <ele>33.007732</ele>
        <time>2020-08-14T12:01:02.874Z</time>
      </trkpt>
      <trkpt lat="66.16089" lon="13.06944">
        <ele>33.350802</ele>
        <time>2020-08-14T12:01:04.900Z</time>
      </trkpt>
      <trkpt lat="66.16096" lon="13.06926">
        <ele>33.705787</ele>
        <time>2020-08-14T12:01:06.874Z</time>
      </trkpt>
      <trkpt lat="66.16102" lon="13.06896">
        <ele>34.190294</ele>
        <time>2020-08-14T12:01:09.869Z</time>
      </trkpt>
      <trkpt lat="66.16104" lon="13.06872">
        <ele>34.542987</ele>
        <time>2020-08-14T12:01:11.869Z</time>
      </trkpt>
      <trkpt lat="66.16107" lon="13.06847">
        <ele>34.919288</ele>
        <time>2020-08-14T12:01:13.878Z</time>
      </trkpt>
      <trkpt lat="66.16111" lon="13.06821">
        <ele>35.333118</ele>
        <time>2020-08-14T12:01:15.870Z</time>
      </trkpt>
      <trkpt lat="66.16115" lon="13.06796">
        <ele>35.725631</ele>
        <time>2020-08-14T12:01:17.877Z</time>
      </trkpt>
      <trkpt lat="66.16121" lon="13.06774">
        <ele>36.110976</ele>
        <time>2020-08-14T12:01:19.885Z</time>
      </trkpt>
      <trkpt lat="66.16125" lon="13.06752">
        <ele>36.463591</ele>
        <time>2020-08-14T12:01:21.874Z</time>
      </trkpt>
      <trkpt lat="66.1613" lon="13.06731">
        <ele>36.808721</ele>
        <time>2020-08-14T12:01:23.888Z</time>
      </trkpt>
      <trkpt lat="66.16134" lon="13.06708">
        <ele>37.167213</ele>
        <time>2020-08-14T12:01:25.871Z</time>
      </trkpt>
      <trkpt lat="66.16137" lon="13.06684">
        <ele>37.544789</ele>
        <time>2020-08-14T12:01:27.879Z</time>
      </trkpt>
      <trkpt lat="66.16141" lon="13.0666">
        <ele>37.910355</ele>
        <time>2020-08-14T12:01:29.876Z</time>
      </trkpt>
      <trkpt lat="66.16145" lon="13.06638">
        <ele>38.270616</ele>
        <time>2020-08-14T12:01:31.896Z</time>
      </trkpt>
      <trkpt lat="66.16149" lon="13.06614">
        <ele>38.63989</ele>
        <time>2020-08-14T12:01:33.881Z</time>
      </trkpt>
      <trkpt lat="66.16152" lon="13.06592">
        <ele>38.988946</ele>
        <time>2020-08-14T12:01:35.888Z</time>
      </trkpt>
      <trkpt lat="66.16156" lon="13.06567">
        <ele>39.431385</ele>
        <time>2020-08-14T12:01:37.877Z</time>
      </trkpt>
      <trkpt lat="66.16157" lon="13.06541">
        <ele>40.370964</ele>
        <time>2020-08-14T12:01:39.874Z</time>
      </trkpt>
      <trkpt lat="66.1616" lon="13.06519">
        <ele>41.195913</ele>
        <time>2020-08-14T12:01:41.882Z</time>
      </trkpt>
      <trkpt lat="66.16163" lon="13.06496">
        <ele>42.048093</ele>
        <time>2020-08-14T12:01:43.859Z</time>
      </trkpt>
      <trkpt lat="66.16167" lon="13.06475">
        <ele>42.874515</ele>
        <time>2020-08-14T12:01:45.888Z</time>
      </trkpt>
      <trkpt lat="66.16172" lon="13.06456">
        <ele>43.66797</ele>
        <time>2020-08-14T12:01:47.869Z</time>
      </trkpt>
      <trkpt lat="66.16176" lon="13.06435">
        <ele>44.516028</ele>
        <time>2020-08-14T12:01:49.857Z</time>
      </trkpt>
      <trkpt lat="66.16181" lon="13.06415">
        <ele>45.346026</ele>
        <time>2020-08-14T12:01:51.880Z</time>
      </trkpt>
      <trkpt lat="66.16186" lon="13.06396">
        <ele>46.151826</ele>
        <time>2020-08-14T12:01:53.869Z</time>
      </trkpt>
      <trkpt lat="66.1619" lon="13.06376">
        <ele>46.951635</ele>
        <time>2020-08-14T12:01:55.874Z</time>
      </trkpt>
      <trkpt lat="66.16194" lon="13.06354">
        <ele>47.803804</ele>
        <time>2020-08-14T12:01:57.882Z</time>
      </trkpt>
      <trkpt lat="66.16199" lon="13.06331">
        <ele>48.717846</ele>
        <time>2020-08-14T12:01:59.869Z</time>
      </trkpt>
      <trkpt lat="66.16203" lon="13.0631">
        <ele>49.54102</ele>
        <time>2020-08-14T12:02:01.886Z</time>
      </trkpt>
      <trkpt lat="66.16207" lon="13.06289">
        <ele>50.370006</ele>
        <time>2020-08-14T12:02:03.897Z</time>
      </trkpt>
      <trkpt lat="66.16213" lon="13.06266">
        <ele>51.355831</ele>
        <time>2020-08-14T12:02:05.876Z</time>
      </trkpt>
      <trkpt lat="66.16219" lon="13.06246">
        <ele>52.228317</ele>
        <time>2020-08-14T12:02:07.906Z</time>
      </trkpt>
      <trkpt lat="66.16221" lon="13.06216">
        <ele>53.316275</ele>
        <time>2020-08-14T12:02:10.875Z</time>
      </trkpt>
      <trkpt lat="66.16226" lon="13.06188">
        <ele>54.42977</ele>
        <time>2020-08-14T12:02:13.888Z</time>
      </trkpt>
      <trkpt lat="66.16231" lon="13.06168">
        <ele>55.150714</ele>
        <time>2020-08-14T12:02:15.870Z</time>
      </trkpt>
      <trkpt lat="66.16236" lon="13.06147">
        <ele>54.755866</ele>
        <time>2020-08-14T12:02:17.895Z</time>
      </trkpt>
      <trkpt lat="66.16243" lon="13.06128">
        <ele>54.345936</ele>
        <time>2020-08-14T12:02:19.880Z</time>
      </trkpt>
      <trkpt lat="66.16248" lon="13.06105">
        <ele>53.897759</ele>
        <time>2020-08-14T12:02:21.882Z</time>
      </trkpt>
      <trkpt lat="66.16253" lon="13.0608">
        <ele>53.454236</ele>
        <time>2020-08-14T12:02:23.872Z</time>
      </trkpt>
      <trkpt lat="66.16257" lon="13.06059">
        <ele>53.076778</ele>
        <time>2020-08-14T12:02:25.880Z</time>
      </trkpt>
      <trkpt lat="66.16262" lon="13.06039">
        <ele>52.706923</ele>
        <time>2020-08-14T12:02:27.880Z</time>
      </trkpt>
      <trkpt lat="66.16265" lon="13.06015">
        <ele>52.284433</ele>
        <time>2020-08-14T12:02:29.887Z</time>
      </trkpt>
      <trkpt lat="66.16269" lon="13.05988">
        <ele>51.837112</ele>
        <time>2020-08-14T12:02:31.880Z</time>
      </trkpt>
      <trkpt lat="66.16272" lon="13.05963">
        <ele>51.406729</ele>
        <time>2020-08-14T12:02:33.876Z</time>
      </trkpt>
      <trkpt lat="66.16276" lon="13.05938">
        <ele>50.966629</ele>
        <time>2020-08-14T12:02:35.868Z</time>
      </trkpt>
      <trkpt lat="66.16279" lon="13.05913">
        <ele>50.537499</ele>
        <time>2020-08-14T12:02:37.900Z</time>
      </trkpt>
      <trkpt lat="66.16283" lon="13.05887">
        <ele>50.09074</ele>
        <time>2020-08-14T12:02:39.880Z</time>
      </trkpt>
      <trkpt lat="66.16287" lon="13.0586">
        <ele>49.637033</ele>
        <time>2020-08-14T12:02:41.871Z</time>
      </trkpt>
      <trkpt lat="66.16291" lon="13.05833">
        <ele>49.15776</ele>
        <time>2020-08-14T12:02:43.884Z</time>
      </trkpt>
      <trkpt lat="66.16296" lon="13.05808">
        <ele>48.710851</ele>
        <time>2020-08-14T12:02:45.888Z</time>
      </trkpt>
      <trkpt lat="66.16301" lon="13.05783">
        <ele>48.262106</ele>
        <time>2020-08-14T12:02:47.873Z</time>
      </trkpt>
      <trkpt lat="66.16305" lon="13.05759">
        <ele>47.937744</ele>
        <time>2020-08-14T12:02:49.879Z</time>
      </trkpt>
      <trkpt lat="66.16311" lon="13.05735">
        <ele>47.841186</ele>
        <time>2020-08-14T12:02:51.897Z</time>
      </trkpt>
      <trkpt lat="66.16317" lon="13.05712">
        <ele>47.75107</ele>
        <time>2020-08-14T12:02:53.877Z</time>
      </trkpt>
      <trkpt lat="66.16323" lon="13.0569">
        <ele>47.662353</ele>
        <time>2020-08-14T12:02:55.869Z</time>
      </trkpt>
      <trkpt lat="66.16329" lon="13.05661">
        <ele>47.547968</ele>
        <time>2020-08-14T12:02:58.890Z</time>
      </trkpt>
      <trkpt lat="66.16334" lon="13.05638">
        <ele>47.46107</ele>
        <time>2020-08-14T12:03:00.875Z</time>
      </trkpt>
      <trkpt lat="66.16338" lon="13.05615">
        <ele>47.375708</ele>
        <time>2020-08-14T12:03:02.898Z</time>
      </trkpt>
      <trkpt lat="66.1634" lon="13.05591">
        <ele>47.291509</ele>
        <time>2020-08-14T12:03:04.877Z</time>
      </trkpt>
      <trkpt lat="66.16344" lon="13.05569">
        <ele>47.210172</ele>
        <time>2020-08-14T12:03:06.877Z</time>
      </trkpt>
      <trkpt lat="66.16347" lon="13.05546">
        <ele>47.126066</ele>
        <time>2020-08-14T12:03:08.906Z</time>
      </trkpt>
      <trkpt lat="66.16351" lon="13.05522">
        <ele>47.037224</ele>
        <time>2020-08-14T12:03:10.880Z</time>
      </trkpt>
      <trkpt lat="66.16356" lon="13.055">
        <ele>46.953271</ele>
        <time>2020-08-14T12:03:12.875Z</time>
      </trkpt>
      <trkpt lat="66.1636" lon="13.05475">
        <ele>46.861573</ele>
        <time>2020-08-14T12:03:14.881Z</time>
      </trkpt>
      <trkpt lat="66.16364" lon="13.05452">
        <ele>46.776788</ele>
        <time>2020-08-14T12:03:16.886Z</time>
      </trkpt>
      <trkpt lat="66.16369" lon="13.05429">
        <ele>46.687609</ele>
        <time>2020-08-14T12:03:18.883Z</time>
      </trkpt>
      <trkpt lat="66.16372" lon="13.05405">
        <ele>46.600641</ele>
        <time>2020-08-14T12:03:20.880Z</time>
      </trkpt>
      <trkpt lat="66.16376" lon="13.05383">
        <ele>46.521523</ele>
        <time>2020-08-14T12:03:22.882Z</time>
      </trkpt>
      <trkpt lat="66.16381" lon="13.05357">
        <ele>46.339274</ele>
        <time>2020-08-14T12:03:25.877Z</time>
      </trkpt>
      <trkpt lat="66.16388" lon="13.0533">
        <ele>45.889093</ele>
        <time>2020-08-14T12:03:28.887Z</time>
      </trkpt>
      <trkpt lat="66.16394" lon="13.05301">
        <ele>45.444404</ele>
        <time>2020-08-14T12:03:31.875Z</time>
      </trkpt>
      <trkpt lat="66.16397" lon="13.05281">
        <ele>45.132455</ele>
        <time>2020-08-14T12:03:33.872Z</time>
      </trkpt>
      <trkpt lat="66.164" lon="13.05259">
        <ele>44.809637</ele>
        <time>2020-08-14T12:03:35.903Z</time>
      </trkpt>
      <trkpt lat="66.16403" lon="13.05235">
        <ele>44.461311</ele>
        <time>2020-08-14T12:03:37.881Z</time>
      </trkpt>
      <trkpt lat="66.16408" lon="13.05212">
        <ele>44.094271</ele>
        <time>2020-08-14T12:03:39.868Z</time>
      </trkpt>
      <trkpt lat="66.16413" lon="13.05187">
        <ele>43.708894</ele>
        <time>2020-08-14T12:03:41.902Z</time>
      </trkpt>
      <trkpt lat="66.16418" lon="13.05167">
        <ele>43.369221</ele>
        <time>2020-08-14T12:03:43.877Z</time>
      </trkpt>
      <trkpt lat="66.16424" lon="13.05149">
        <ele>43.051078</ele>
        <time>2020-08-14T12:03:45.872Z</time>
      </trkpt>
      <trkpt lat="66.1643" lon="13.0513">
        <ele>42.722224</ele>
        <time>2020-08-14T12:03:47.874Z</time>
      </trkpt>
      <trkpt lat="66.16436" lon="13.05099">
        <ele>42.236778</ele>
        <time>2020-08-14T12:03:50.879Z</time>
      </trkpt>
      <trkpt lat="66.1644" lon="13.05073">
        <ele>41.850652</ele>
        <time>2020-08-14T12:03:52.882Z</time>
      </trkpt>
      <trkpt lat="66.16444" lon="13.05045">
        <ele>41.445266</ele>
        <time>2020-08-14T12:03:54.875Z</time>
      </trkpt>
      <trkpt lat="66.16448" lon="13.0502">
        <ele>41.056951</ele>
        <time>2020-08-14T12:03:56.874Z</time>
      </trkpt>
      <trkpt lat="66.16453" lon="13.04996">
        <ele>40.687819</ele>
        <time>2020-08-14T12:03:58.848Z</time>
      </trkpt>
      <trkpt lat="66.16458" lon="13.04974">
        <ele>40.334565</ele>
        <time>2020-08-14T12:04:00.891Z</time>
      </trkpt>
      <trkpt lat="66.16462" lon="13.04951">
        <ele>40.393589</ele>
        <time>2020-08-14T12:04:02.884Z</time>
      </trkpt>
      <trkpt lat="66.16467" lon="13.04928">
        <ele>40.626949</ele>
        <time>2020-08-14T12:04:04.880Z</time>
      </trkpt>
      <trkpt lat="66.16471" lon="13.04904">
        <ele>40.86938</ele>
        <time>2020-08-14T12:04:06.870Z</time>
      </trkpt>
      <trkpt lat="66.16476" lon="13.04882">
        <ele>41.091528</ele>
        <time>2020-08-14T12:04:08.897Z</time>
      </trkpt>
      <trkpt lat="66.16479" lon="13.04859">
        <ele>41.318705</ele>
        <time>2020-08-14T12:04:10.914Z</time>
      </trkpt>
      <trkpt lat="66.16484" lon="13.04833">
        <ele>41.574294</ele>
        <time>2020-08-14T12:04:12.880Z</time>
      </trkpt>
      <trkpt lat="66.16487" lon="13.04806">
        <ele>41.827948</ele>
        <time>2020-08-14T12:04:14.875Z</time>
      </trkpt>
      <trkpt lat="66.16492" lon="13.04781">
        <ele>42.069787</ele>
        <time>2020-08-14T12:04:16.879Z</time>
      </trkpt>
      <trkpt lat="66.16496" lon="13.04756">
        <ele>42.319139</ele>
        <time>2020-08-14T12:04:18.873Z</time>
      </trkpt>
      <trkpt lat="66.165" lon="13.04736">
        <ele>42.524914</ele>
        <time>2020-08-14T12:04:20.873Z</time>
      </trkpt>
      <trkpt lat="66.16505" lon="13.04717">
        <ele>42.725149</ele>
        <time>2020-08-14T12:04:22.886Z</time>
      </trkpt>
      <trkpt lat="66.16509" lon="13.04688">
        <ele>43.007183</ele>
        <time>2020-08-14T12:04:25.874Z</time>
      </trkpt>
      <trkpt lat="66.16513" lon="13.04666">
        <ele>43.218002</ele>
        <time>2020-08-14T12:04:27.877Z</time>
      </trkpt>
      <trkpt lat="66.16516" lon="13.04639">
        <ele>43.475759</ele>
        <time>2020-08-14T12:04:29.883Z</time>
      </trkpt>
      <trkpt lat="66.16521" lon="13.04615">
        <ele>43.711693</ele>
        <time>2020-08-14T12:04:31.873Z</time>
      </trkpt>
      <trkpt lat="66.16524" lon="13.04592">
        <ele>43.934219</ele>
        <time>2020-08-14T12:04:33.877Z</time>
      </trkpt>
      <trkpt lat="66.16528" lon="13.04569">
        <ele>44.153439</ele>
        <time>2020-08-14T12:04:35.862Z</time>
      </trkpt>
      <trkpt lat="66.16531" lon="13.04545">
        <ele>44.282542</ele>
        <time>2020-08-14T12:04:37.876Z</time>
      </trkpt>
      <trkpt lat="66.16536" lon="13.04521">
        <ele>44.335998</ele>
        <time>2020-08-14T12:04:39.880Z</time>
      </trkpt>
      <trkpt lat="66.1654" lon="13.045">
        <ele>44.384645</ele>
        <time>2020-08-14T12:04:41.890Z</time>
      </trkpt>
      <trkpt lat="66.16545" lon="13.04474">
        <ele>44.445729</ele>
        <time>2020-08-14T12:04:44.876Z</time>
      </trkpt>
      <trkpt lat="66.16551" lon="13.04449">
        <ele>44.505049</ele>
        <time>2020-08-14T12:04:47.876Z</time>
      </trkpt>
      <trkpt lat="66.16555" lon="13.04426">
        <ele>44.555376</ele>
        <time>2020-08-14T12:04:49.857Z</time>
      </trkpt>
      <trkpt lat="66.16559" lon="13.04404">
        <ele>44.605893</ele>
        <time>2020-08-14T12:04:51.874Z</time>
      </trkpt>
      <trkpt lat="66.16563" lon="13.04385">
        <ele>44.651722</ele>
        <time>2020-08-14T12:04:53.870Z</time>
      </trkpt>
      <trkpt lat="66.16568" lon="13.04356">
        <ele>44.716252</ele>
        <time>2020-08-14T12:04:56.878Z</time>
      </trkpt>
      <trkpt lat="66.16572" lon="13.04335">
        <ele>44.764097</ele>
        <time>2020-08-14T12:04:58.879Z</time>
      </trkpt>
      <trkpt lat="66.16576" lon="13.04313">
        <ele>44.815538</ele>
        <time>2020-08-14T12:05:00.876Z</time>
      </trkpt>
      <trkpt lat="66.1658" lon="13.04292">
        <ele>44.863177</ele>
        <time>2020-08-14T12:05:02.889Z</time>
      </trkpt>
      <trkpt lat="66.16585" lon="13.04268">
        <ele>44.919709</ele>
        <time>2020-08-14T12:05:04.875Z</time>
      </trkpt>
      <trkpt lat="66.16591" lon="13.04243">
        <ele>44.977874</ele>
        <time>2020-08-14T12:05:06.881Z</time>
      </trkpt>
      <trkpt lat="66.16594" lon="13.0422">
        <ele>45.028377</ele>
        <time>2020-08-14T12:05:08.893Z</time>
      </trkpt>
      <trkpt lat="66.16599" lon="13.04198">
        <ele>45.079497</ele>
        <time>2020-08-14T12:05:10.880Z</time>
      </trkpt>
      <trkpt lat="66.16602" lon="13.04176">
        <ele>45.12886</ele>
        <time>2020-08-14T12:05:12.880Z</time>
      </trkpt>
      <trkpt lat="66.16607" lon="13.04153">
        <ele>45.247709</ele>
        <time>2020-08-14T12:05:14.883Z</time>
      </trkpt>
      <trkpt lat="66.16613" lon="13.04129">
        <ele>45.638542</ele>
        <time>2020-08-14T12:05:16.871Z</time>
      </trkpt>
      <trkpt lat="66.16619" lon="13.04108">
        <ele>46.00392</ele>
        <time>2020-08-14T12:05:18.887Z</time>
      </trkpt>
      <trkpt lat="66.16624" lon="13.04087">
        <ele>46.363327</ele>
        <time>2020-08-14T12:05:20.876Z</time>
      </trkpt>
      <trkpt lat="66.16629" lon="13.04065">
        <ele>46.71724</ele>
        <time>2020-08-14T12:05:22.878Z</time>
      </trkpt>
      <trkpt lat="66.16633" lon="13.04043">
        <ele>47.060493</ele>
        <time>2020-08-14T12:05:24.886Z</time>
      </trkpt>
      <trkpt lat="66.16637" lon="13.0402">
        <ele>47.403703</ele>
        <time>2020-08-14T12:05:26.879Z</time>
      </trkpt>
      <trkpt lat="66.16641" lon="13.03996">
        <ele>47.775987</ele>
        <time>2020-08-14T12:05:28.882Z</time>
      </trkpt>
      <trkpt lat="66.16644" lon="13.03973">
        <ele>48.119826</ele>
        <time>2020-08-14T12:05:30.909Z</time>
      </trkpt>
      <trkpt lat="66.16647" lon="13.0395">
        <ele>48.463046</ele>
        <time>2020-08-14T12:05:32.878Z</time>
      </trkpt>
      <trkpt lat="66.1665" lon="13.03925">
        <ele>48.832073</ele>
        <time>2020-08-14T12:05:34.868Z</time>
      </trkpt>
      <trkpt lat="66.16653" lon="13.03901">
        <ele>49.203572</ele>
        <time>2020-08-14T12:05:36.879Z</time>
      </trkpt>
      <trkpt lat="66.16657" lon="13.03878">
        <ele>49.557338</ele>
        <time>2020-08-14T12:05:38.884Z</time>
      </trkpt>
      <trkpt lat="66.16661" lon="13.03857">
        <ele>49.890933</ele>
        <time>2020-08-14T12:05:40.872Z</time>
      </trkpt>
      <trkpt lat="66.16665" lon="13.03831">
        <ele>50.280342</ele>
        <time>2020-08-14T12:05:42.875Z</time>
      </trkpt>
      <trkpt lat="66.1667" lon="13.03808">
        <ele>50.655225</ele>
        <time>2020-08-14T12:05:44.878Z</time>
      </trkpt>
      <trkpt lat="66.16674" lon="13.03785">
        <ele>51.008994</ele>
        <time>2020-08-14T12:05:46.881Z</time>
      </trkpt>
      <trkpt lat="66.16677" lon="13.03763">
        <ele>51.331478</ele>
        <time>2020-08-14T12:05:48.876Z</time>
      </trkpt>
      <trkpt lat="66.16681" lon="13.03741">
        <ele>51.813195</ele>
        <time>2020-08-14T12:05:50.866Z</time>
      </trkpt>
      <trkpt lat="66.16686" lon="13.03719">
        <ele>52.440727</ele>
        <time>2020-08-14T12:05:52.900Z</time>
      </trkpt>
      <trkpt lat="66.16691" lon="13.03696">
        <ele>53.122474</ele>
        <time>2020-08-14T12:05:54.867Z</time>
      </trkpt>
      <trkpt lat="66.16696" lon="13.03671">
        <ele>53.806146</ele>
        <time>2020-08-14T12:05:56.877Z</time>
      </trkpt>
      <trkpt lat="66.16701" lon="13.03647">
        <ele>54.502004</ele>
        <time>2020-08-14T12:05:58.874Z</time>
      </trkpt>
      <trkpt lat="66.16705" lon="13.03624">
        <ele>55.121435</ele>
        <time>2020-08-14T12:06:00.870Z</time>
      </trkpt>
      <trkpt lat="66.16709" lon="13.03603">
        <ele>55.719269</ele>
        <time>2020-08-14T12:06:02.885Z</time>
      </trkpt>
      <trkpt lat="66.16713" lon="13.03583">
        <ele>56.294962</ele>
        <time>2020-08-14T12:06:04.872Z</time>
      </trkpt>
      <trkpt lat="66.16717" lon="13.03563">
        <ele>56.871242</ele>
        <time>2020-08-14T12:06:06.878Z</time>
      </trkpt>
      <trkpt lat="66.16723" lon="13.03542">
        <ele>57.48694</ele>
        <time>2020-08-14T12:06:08.880Z</time>
      </trkpt>
      <trkpt lat="66.16728" lon="13.03521">
        <ele>58.115667</ele>
        <time>2020-08-14T12:06:10.875Z</time>
      </trkpt>
      <trkpt lat="66.16732" lon="13.03498">
        <ele>58.770756</ele>
        <time>2020-08-14T12:06:12.862Z</time>
      </trkpt>
      <trkpt lat="66.16736" lon="13.03477">
        <ele>59.350507</ele>
        <time>2020-08-14T12:06:14.864Z</time>
      </trkpt>
      <trkpt lat="66.1674" lon="13.03456">
        <ele>59.925622</ele>
        <time>2020-08-14T12:06:16.855Z</time>
      </trkpt>
      <trkpt lat="66.16744" lon="13.03431">
        <ele>60.616175</ele>
        <time>2020-08-14T12:06:18.874Z</time>
      </trkpt>
      <trkpt lat="66.16749" lon="13.0341">
        <ele>61.228913</ele>
        <time>2020-08-14T12:06:20.902Z</time>
      </trkpt>
      <trkpt lat="66.16753" lon="13.03386">
        <ele>61.860067</ele>
        <time>2020-08-14T12:06:22.871Z</time>
      </trkpt>
      <trkpt lat="66.16758" lon="13.03366">
        <ele>62.479031</ele>
        <time>2020-08-14T12:06:24.876Z</time>
      </trkpt>
      <trkpt lat="66.16763" lon="13.03344">
        <ele>63.176535</ele>
        <time>2020-08-14T12:06:26.872Z</time>
      </trkpt>
      <trkpt lat="66.16769" lon="13.03322">
        <ele>63.956671</ele>
        <time>2020-08-14T12:06:28.876Z</time>
      </trkpt>
      <trkpt lat="66.16775" lon="13.03301">
        <ele>64.681886</ele>
        <time>2020-08-14T12:06:30.881Z</time>
      </trkpt>
      <trkpt lat="66.16779" lon="13.03277">
        <ele>65.421296</ele>
        <time>2020-08-14T12:06:32.880Z</time>
      </trkpt>
      <trkpt lat="66.16783" lon="13.03253">
        <ele>66.190476</ele>
        <time>2020-08-14T12:06:34.895Z</time>
      </trkpt>
      <trkpt lat="66.16787" lon="13.0323">
        <ele>66.944798</ele>
        <time>2020-08-14T12:06:36.880Z</time>
      </trkpt>
      <trkpt lat="66.16792" lon="13.03206">
        <ele>67.713931</ele>
        <time>2020-08-14T12:06:38.868Z</time>
      </trkpt>
      <trkpt lat="66.16797" lon="13.03182">
        <ele>68.512815</ele>
        <time>2020-08-14T12:06:40.873Z</time>
      </trkpt>
      <trkpt lat="66.16802" lon="13.03159">
        <ele>69.285992</ele>
        <time>2020-08-14T12:06:42.877Z</time>
      </trkpt>
      <trkpt lat="66.16807" lon="13.03137">
        <ele>70.034451</ele>
        <time>2020-08-14T12:06:44.873Z</time>
      </trkpt>
      <trkpt lat="66.16812" lon="13.03113">
        <ele>70.807626</ele>
        <time>2020-08-14T12:06:46.889Z</time>
      </trkpt>
      <trkpt lat="66.16817" lon="13.0309">
        <ele>71.578758</ele>
        <time>2020-08-14T12:06:48.892Z</time>
      </trkpt>
      <trkpt lat="66.16821" lon="13.03064">
        <ele>72.377923</ele>
        <time>2020-08-14T12:06:50.918Z</time>
      </trkpt>
      <trkpt lat="66.16825" lon="13.03041">
        <ele>73.117367</ele>
        <time>2020-08-14T12:06:52.881Z</time>
      </trkpt>
      <trkpt lat="66.16829" lon="13.03018">
        <ele>73.824763</ele>
        <time>2020-08-14T12:06:54.873Z</time>
      </trkpt>
      <trkpt lat="66.16832" lon="13.02994">
        <ele>74.583481</ele>
        <time>2020-08-14T12:06:56.871Z</time>
      </trkpt>
      <trkpt lat="66.16836" lon="13.0297">
        <ele>75.333669</ele>
        <time>2020-08-14T12:06:58.873Z</time>
      </trkpt>
      <trkpt lat="66.1684" lon="13.02946">
        <ele>75.467198</ele>
        <time>2020-08-14T12:07:00.869Z</time>
      </trkpt>
      <trkpt lat="66.16844" lon="13.0292">
        <ele>74.714125</ele>
        <time>2020-08-14T12:07:02.881Z</time>
      </trkpt>
      <trkpt lat="66.16848" lon="13.02897">
        <ele>74.028399</ele>
        <time>2020-08-14T12:07:04.879Z</time>
      </trkpt>
      <trkpt lat="66.16852" lon="13.02873">
        <ele>73.301426</ele>
        <time>2020-08-14T12:07:06.872Z</time>
      </trkpt>
      <trkpt lat="66.16856" lon="13.02849">
        <ele>72.56433</ele>
        <time>2020-08-14T12:07:08.875Z</time>
      </trkpt>
      <trkpt lat="66.16862" lon="13.02827">
        <ele>71.838809</ele>
        <time>2020-08-14T12:07:10.872Z</time>
      </trkpt>
      <trkpt lat="66.16866" lon="13.02802">
        <ele>71.098953</ele>
        <time>2020-08-14T12:07:12.889Z</time>
      </trkpt>
      <trkpt lat="66.1687" lon="13.02777">
        <ele>70.342766</ele>
        <time>2020-08-14T12:07:14.876Z</time>
      </trkpt>
      <trkpt lat="66.16876" lon="13.02751">
        <ele>69.517876</ele>
        <time>2020-08-14T12:07:16.895Z</time>
      </trkpt>
      <trkpt lat="66.16881" lon="13.02729">
        <ele>68.783136</ele>
        <time>2020-08-14T12:07:18.872Z</time>
      </trkpt>
      <trkpt lat="66.16887" lon="13.02708">
        <ele>68.095969</ele>
        <time>2020-08-14T12:07:20.884Z</time>
      </trkpt>
      <trkpt lat="66.1689" lon="13.02687">
        <ele>67.47393</ele>
        <time>2020-08-14T12:07:22.881Z</time>
      </trkpt>
      <trkpt lat="66.16895" lon="13.02668">
        <ele>66.843501</ele>
        <time>2020-08-14T12:07:24.873Z</time>
      </trkpt>
      <trkpt lat="66.16902" lon="13.02643">
        <ele>65.985589</ele>
        <time>2020-08-14T12:07:27.879Z</time>
      </trkpt>
      <trkpt lat="66.16909" lon="13.02617">
        <ele>65.128456</ele>
        <time>2020-08-14T12:07:30.874Z</time>
      </trkpt>
      <trkpt lat="66.16915" lon="13.02596">
        <ele>64.430369</ele>
        <time>2020-08-14T12:07:32.898Z</time>
      </trkpt>
      <trkpt lat="66.16921" lon="13.02575">
        <ele>63.713082</ele>
        <time>2020-08-14T12:07:34.888Z</time>
      </trkpt>
      <trkpt lat="66.16927" lon="13.02554">
        <ele>62.773117</ele>
        <time>2020-08-14T12:07:36.876Z</time>
      </trkpt>
      <trkpt lat="66.1693" lon="13.02531">
        <ele>61.71403</ele>
        <time>2020-08-14T12:07:38.870Z</time>
      </trkpt>
      <trkpt lat="66.16935" lon="13.02511">
        <ele>60.753462</ele>
        <time>2020-08-14T12:07:40.896Z</time>
      </trkpt>
      <trkpt lat="66.16938" lon="13.02488">
        <ele>59.715321</ele>
        <time>2020-08-14T12:07:42.874Z</time>
      </trkpt>
      <trkpt lat="66.16943" lon="13.02464">
        <ele>58.560237</ele>
        <time>2020-08-14T12:07:44.886Z</time>
      </trkpt>
      <trkpt lat="66.16947" lon="13.02438">
        <ele>57.363407</ele>
        <time>2020-08-14T12:07:46.863Z</time>
      </trkpt>
      <trkpt lat="66.16951" lon="13.02412">
        <ele>56.19054</ele>
        <time>2020-08-14T12:07:48.875Z</time>
      </trkpt>
      <trkpt lat="66.16953" lon="13.02389">
        <ele>55.149676</ele>
        <time>2020-08-14T12:07:50.875Z</time>
      </trkpt>
      <trkpt lat="66.16955" lon="13.02365">
        <ele>54.137929</ele>
        <time>2020-08-14T12:07:52.870Z</time>
      </trkpt>
      <trkpt lat="66.16957" lon="13.02339">
        <ele>53.006956</ele>
        <time>2020-08-14T12:07:54.874Z</time>
      </trkpt>
      <trkpt lat="66.16959" lon="13.02316">
        <ele>52.009983</ele>
        <time>2020-08-14T12:07:56.869Z</time>
      </trkpt>
      <trkpt lat="66.16962" lon="13.02293">
        <ele>50.94871</ele>
        <time>2020-08-14T12:07:58.874Z</time>
      </trkpt>
      <trkpt lat="66.16964" lon="13.02269">
        <ele>49.926245</ele>
        <time>2020-08-14T12:08:00.883Z</time>
      </trkpt>
      <trkpt lat="66.16969" lon="13.02245">
        <ele>48.76912</ele>
        <time>2020-08-14T12:08:02.869Z</time>
      </trkpt>
      <trkpt lat="66.16973" lon="13.02219">
        <ele>47.568528</ele>
        <time>2020-08-14T12:08:04.870Z</time>
      </trkpt>
      <trkpt lat="66.16978" lon="13.02194">
        <ele>46.393475</ele>
        <time>2020-08-14T12:08:06.881Z</time>
      </trkpt>
      <trkpt lat="66.16983" lon="13.02171">
        <ele>45.26725</ele>
        <time>2020-08-14T12:08:08.872Z</time>
      </trkpt>
      <trkpt lat="66.16988" lon="13.0215">
        <ele>44.38589</ele>
        <time>2020-08-14T12:08:10.882Z</time>
      </trkpt>
      <trkpt lat="66.16994" lon="13.02129">
        <ele>44.440373</ele>
        <time>2020-08-14T12:08:12.900Z</time>
      </trkpt>
      <trkpt lat="66.16997" lon="13.02106">
        <ele>44.496625</ele>
        <time>2020-08-14T12:08:14.880Z</time>
      </trkpt>
      <trkpt lat="66.17001" lon="13.02083">
        <ele>44.551008</ele>
        <time>2020-08-14T12:08:16.872Z</time>
      </trkpt>
      <trkpt lat="66.17003" lon="13.02061">
        <ele>44.60267</ele>
        <time>2020-08-14T12:08:18.898Z</time>
      </trkpt>
      <trkpt lat="66.17008" lon="13.0204">
        <ele>44.657712</ele>
        <time>2020-08-14T12:08:20.881Z</time>
      </trkpt>
      <trkpt lat="66.17013" lon="13.02021">
        <ele>44.709337</ele>
        <time>2020-08-14T12:08:22.883Z</time>
      </trkpt>
      <trkpt lat="66.17023" lon="13.01995">
        <ele>44.785501</ele>
        <time>2020-08-14T12:08:25.876Z</time>
      </trkpt>
      <trkpt lat="66.17029" lon="13.01968">
        <ele>44.85683</ele>
        <time>2020-08-14T12:08:28.884Z</time>
      </trkpt>
      <trkpt lat="66.17034" lon="13.01949">
        <ele>44.90722</ele>
        <time>2020-08-14T12:08:30.881Z</time>
      </trkpt>
      <trkpt lat="66.17037" lon="13.01927">
        <ele>44.958915</ele>
        <time>2020-08-14T12:08:32.882Z</time>
      </trkpt>
      <trkpt lat="66.1704" lon="13.01905">
        <ele>45.011743</ele>
        <time>2020-08-14T12:08:34.924Z</time>
      </trkpt>
      <trkpt lat="66.17044" lon="13.01878">
        <ele>45.073693</ele>
        <time>2020-08-14T12:08:36.886Z</time>
      </trkpt>
      <trkpt lat="66.17048" lon="13.01854">
        <ele>45.133736</ele>
        <time>2020-08-14T12:08:38.894Z</time>
      </trkpt>
      <trkpt lat="66.17052" lon="13.0183">
        <ele>45.190625</ele>
        <time>2020-08-14T12:08:40.873Z</time>
      </trkpt>
      <trkpt lat="66.17056" lon="13.01806">
        <ele>45.249157</ele>
        <time>2020-08-14T12:08:42.885Z</time>
      </trkpt>
      <trkpt lat="66.1706" lon="13.01786">
        <ele>45.301339</ele>
        <time>2020-08-14T12:08:44.881Z</time>
      </trkpt>
      <trkpt lat="66.17066" lon="13.01765">
        <ele>45.357914</ele>
        <time>2020-08-14T12:08:46.874Z</time>
      </trkpt>
      <trkpt lat="66.17072" lon="13.01744">
        <ele>45.332337</ele>
        <time>2020-08-14T12:08:48.876Z</time>
      </trkpt>
      <trkpt lat="66.17077" lon="13.01718">
        <ele>45.267685</ele>
        <time>2020-08-14T12:08:50.879Z</time>
      </trkpt>
      <trkpt lat="66.17082" lon="13.01695">
        <ele>45.206074</ele>
        <time>2020-08-14T12:08:52.874Z</time>
      </trkpt>
      <trkpt lat="66.17085" lon="13.01671">
        <ele>45.148805</ele>
        <time>2020-08-14T12:08:54.870Z</time>
      </trkpt>
      <trkpt lat="66.17089" lon="13.0165">
        <ele>45.095813</ele>
        <time>2020-08-14T12:08:56.909Z</time>
      </trkpt>
      <trkpt lat="66.17092" lon="13.01626">
        <ele>45.037868</ele>
        <time>2020-08-14T12:08:58.880Z</time>
      </trkpt>
      <trkpt lat="66.17095" lon="13.01603">
        <ele>44.980756</ele>
        <time>2020-08-14T12:09:00.870Z</time>
      </trkpt>
      <trkpt lat="66.17098" lon="13.01577">
        <ele>44.919712</ele>
        <time>2020-08-14T12:09:02.873Z</time>
      </trkpt>
      <trkpt lat="66.17102" lon="13.01552">
        <ele>44.856255</ele>
        <time>2020-08-14T12:09:04.874Z</time>
      </trkpt>
      <trkpt lat="66.17106" lon="13.01527">
        <ele>44.794293</ele>
        <time>2020-08-14T12:09:06.873Z</time>
      </trkpt>
      <trkpt lat="66.1711" lon="13.01502">
        <ele>44.732089</ele>
        <time>2020-08-14T12:09:08.884Z</time>
      </trkpt>
      <trkpt lat="66.17115" lon="13.01476">
        <ele>44.666359</ele>
        <time>2020-08-14T12:09:10.866Z</time>
      </trkpt>
      <trkpt lat="66.17122" lon="13.0145">
        <ele>44.596695</ele>
        <time>2020-08-14T12:09:12.889Z</time>
      </trkpt>
      <trkpt lat="66.17127" lon="13.01425">
        <ele>44.53216</ele>
        <time>2020-08-14T12:09:14.870Z</time>
      </trkpt>
      <trkpt lat="66.17132" lon="13.01401">
        <ele>44.470657</ele>
        <time>2020-08-14T12:09:16.868Z</time>
      </trkpt>
      <trkpt lat="66.17137" lon="13.01379">
        <ele>44.411283</ele>
        <time>2020-08-14T12:09:18.872Z</time>
      </trkpt>
      <trkpt lat="66.17141" lon="13.01357">
        <ele>44.354073</ele>
        <time>2020-08-14T12:09:20.876Z</time>
      </trkpt>
      <trkpt lat="66.17146" lon="13.01336">
        <ele>44.698087</ele>
        <time>2020-08-14T12:09:22.875Z</time>
      </trkpt>
      <trkpt lat="66.17153" lon="13.01306">
        <ele>45.258242</ele>
        <time>2020-08-14T12:09:25.877Z</time>
      </trkpt>
      <trkpt lat="66.1716" lon="13.01278">
        <ele>45.831625</ele>
        <time>2020-08-14T12:09:28.880Z</time>
      </trkpt>
      <trkpt lat="66.17165" lon="13.01255">
        <ele>46.243649</ele>
        <time>2020-08-14T12:09:30.876Z</time>
      </trkpt>
      <trkpt lat="66.1717" lon="13.01233">
        <ele>46.668425</ele>
        <time>2020-08-14T12:09:32.867Z</time>
      </trkpt>
      <trkpt lat="66.17175" lon="13.01213">
        <ele>47.059997</ele>
        <time>2020-08-14T12:09:34.892Z</time>
      </trkpt>
      <trkpt lat="66.1718" lon="13.01193">
        <ele>47.451533</ele>
        <time>2020-08-14T12:09:36.886Z</time>
      </trkpt>
      <trkpt lat="66.17186" lon="13.0117">
        <ele>47.889789</ele>
        <time>2020-08-14T12:09:38.874Z</time>
      </trkpt>
      <trkpt lat="66.17191" lon="13.01145">
        <ele>48.349993</ele>
        <time>2020-08-14T12:09:40.878Z</time>
      </trkpt>
      <trkpt lat="66.17196" lon="13.01118">
        <ele>48.837221</ele>
        <time>2020-08-14T12:09:42.871Z</time>
      </trkpt>
      <trkpt lat="66.172" lon="13.01092">
        <ele>49.297646</ele>
        <time>2020-08-14T12:09:44.878Z</time>
      </trkpt>
      <trkpt lat="66.17205" lon="13.01066">
        <ele>49.779555</ele>
        <time>2020-08-14T12:09:46.877Z</time>
      </trkpt>
      <trkpt lat="66.17211" lon="13.01039">
        <ele>50.278968</ele>
        <time>2020-08-14T12:09:48.876Z</time>
      </trkpt>
      <trkpt lat="66.17215" lon="13.01015">
        <ele>50.722587</ele>
        <time>2020-08-14T12:09:50.882Z</time>
      </trkpt>
      <trkpt lat="66.17221" lon="13.00991">
        <ele>51.167509</ele>
        <time>2020-08-14T12:09:52.901Z</time>
      </trkpt>
      <trkpt lat="66.17227" lon="13.00968">
        <ele>51.616403</ele>
        <time>2020-08-14T12:09:54.877Z</time>
      </trkpt>
      <trkpt lat="66.17232" lon="13.00945">
        <ele>51.480086</ele>
        <time>2020-08-14T12:09:56.895Z</time>
      </trkpt>
      <trkpt lat="66.17237" lon="13.00924">
        <ele>51.23649</ele>
        <time>2020-08-14T12:09:58.873Z</time>
      </trkpt>
      <trkpt lat="66.17242" lon="13.00902">
        <ele>50.983628</ele>
        <time>2020-08-14T12:10:00.877Z</time>
      </trkpt>
      <trkpt lat="66.17247" lon="13.00878">
        <ele>50.725909</ele>
        <time>2020-08-14T12:10:02.884Z</time>
      </trkpt>
      <trkpt lat="66.17251" lon="13.00857">
        <ele>50.496084</ele>
        <time>2020-08-14T12:10:04.868Z</time>
      </trkpt>
      <trkpt lat="66.17255" lon="13.00837">
        <ele>50.27509</ele>
        <time>2020-08-14T12:10:06.878Z</time>
      </trkpt>
      <trkpt lat="66.1726" lon="13.00815">
        <ele>50.018288</ele>
        <time>2020-08-14T12:10:08.910Z</time>
      </trkpt>
      <trkpt lat="66.17264" lon="13.00791">
        <ele>49.767951</ele>
        <time>2020-08-14T12:10:10.885Z</time>
      </trkpt>
      <trkpt lat="66.17268" lon="13.00768">
        <ele>49.519334</ele>
        <time>2020-08-14T12:10:12.891Z</time>
      </trkpt>
      <trkpt lat="66.17273" lon="13.00747">
        <ele>49.285678</ele>
        <time>2020-08-14T12:10:14.885Z</time>
      </trkpt>
      <trkpt lat="66.17278" lon="13.00726">
        <ele>49.044653</ele>
        <time>2020-08-14T12:10:16.878Z</time>
      </trkpt>
      <trkpt lat="66.17283" lon="13.00705">
        <ele>48.806057</ele>
        <time>2020-08-14T12:10:18.875Z</time>
      </trkpt>
      <trkpt lat="66.17287" lon="13.00683">
        <ele>48.558516</ele>
        <time>2020-08-14T12:10:20.878Z</time>
      </trkpt>
      <trkpt lat="66.17292" lon="13.00661">
        <ele>48.315536</ele>
        <time>2020-08-14T12:10:22.874Z</time>
      </trkpt>
      <trkpt lat="66.17297" lon="13.0064">
        <ele>48.069465</ele>
        <time>2020-08-14T12:10:24.872Z</time>
      </trkpt>
      <trkpt lat="66.17304" lon="13.00618">
        <ele>47.798144</ele>
        <time>2020-08-14T12:10:26.879Z</time>
      </trkpt>
      <trkpt lat="66.17312" lon="13.00601">
        <ele>47.534754</ele>
        <time>2020-08-14T12:10:28.871Z</time>
      </trkpt>
      <trkpt lat="66.17321" lon="13.00588">
        <ele>47.315805</ele>
        <time>2020-08-14T12:10:30.874Z</time>
      </trkpt>
      <trkpt lat="66.17329" lon="13.00574">
        <ele>47.550497</ele>
        <time>2020-08-14T12:10:32.872Z</time>
      </trkpt>
      <trkpt lat="66.17337" lon="13.00559">
        <ele>47.780057</ele>
        <time>2020-08-14T12:10:34.902Z</time>
      </trkpt>
      <trkpt lat="66.17349" lon="13.00541">
        <ele>48.09906</ele>
        <time>2020-08-14T12:10:37.876Z</time>
      </trkpt>
      <trkpt lat="66.17359" lon="13.00521">
        <ele>48.409006</ele>
        <time>2020-08-14T12:10:40.874Z</time>
      </trkpt>
      <trkpt lat="66.17368" lon="13.00507">
        <ele>48.643894</ele>
        <time>2020-08-14T12:10:42.877Z</time>
      </trkpt>
      <trkpt lat="66.17376" lon="13.00494">
        <ele>48.877463</ele>
        <time>2020-08-14T12:10:44.874Z</time>
      </trkpt>
      <trkpt lat="66.17385" lon="13.00481">
        <ele>49.106632</ele>
        <time>2020-08-14T12:10:46.873Z</time>
      </trkpt>
      <trkpt lat="66.17392" lon="13.00468">
        <ele>49.326117</ele>
        <time>2020-08-14T12:10:48.876Z</time>
      </trkpt>
      <trkpt lat="66.17404" lon="13.00452">
        <ele>49.631859</ele>
        <time>2020-08-14T12:10:51.871Z</time>
      </trkpt>
      <trkpt lat="66.17416" lon="13.00438">
        <ele>49.945533</ele>
        <time>2020-08-14T12:10:54.880Z</time>
      </trkpt>
      <trkpt lat="66.17424" lon="13.00429">
        <ele>50.154649</ele>
        <time>2020-08-14T12:10:56.903Z</time>
      </trkpt>
      <trkpt lat="66.17434" lon="13.00415">
        <ele>50.411909</ele>
        <time>2020-08-14T12:10:59.920Z</time>
      </trkpt>
      <trkpt lat="66.17445" lon="13.00401">
        <ele>50.708453</ele>
        <time>2020-08-14T12:11:02.878Z</time>
      </trkpt>
      <trkpt lat="66.17454" lon="13.00395">
        <ele>50.922583</ele>
        <time>2020-08-14T12:11:04.878Z</time>
      </trkpt>
      <trkpt lat="66.17466" lon="13.00386">
        <ele>51.207165</ele>
        <time>2020-08-14T12:11:07.888Z</time>
      </trkpt>
      <trkpt lat="66.17479" lon="13.00381">
        <ele>51.501024</ele>
        <time>2020-08-14T12:11:10.889Z</time>
      </trkpt>
      <trkpt lat="66.17488" lon="13.00377">
        <ele>51.631669</ele>
        <time>2020-08-14T12:11:12.889Z</time>
      </trkpt>
      <trkpt lat="66.175" lon="13.0037">
        <ele>51.80837</ele>
        <time>2020-08-14T12:11:15.874Z</time>
      </trkpt>
      <trkpt lat="66.17512" lon="13.00363">
        <ele>51.984346</ele>
        <time>2020-08-14T12:11:18.892Z</time>
      </trkpt>
      <trkpt lat="66.17522" lon="13.00363">
        <ele>52.12108</ele>
        <time>2020-08-14T12:11:20.875Z</time>
      </trkpt>
      <trkpt lat="66.17531" lon="13.00363">
        <ele>52.260671</ele>
        <time>2020-08-14T12:11:22.874Z</time>
      </trkpt>
      <trkpt lat="66.17542" lon="13.0036">
        <ele>52.40942</ele>
        <time>2020-08-14T12:11:24.876Z</time>
      </trkpt>
      <trkpt lat="66.17551" lon="13.00354">
        <ele>52.545358</ele>
        <time>2020-08-14T12:11:26.882Z</time>
      </trkpt>
      <trkpt lat="66.17564" lon="13.0035">
        <ele>52.737639</ele>
        <time>2020-08-14T12:11:29.896Z</time>
      </trkpt>
      <trkpt lat="66.17576" lon="13.00349">
        <ele>52.90286</ele>
        <time>2020-08-14T12:11:31.876Z</time>
      </trkpt>
      <trkpt lat="66.17588" lon="13.00347">
        <ele>53.071381</ele>
        <time>2020-08-14T12:11:33.870Z</time>
      </trkpt>
      <trkpt lat="66.17599" lon="13.00343">
        <ele>53.230156</ele>
        <time>2020-08-14T12:11:35.877Z</time>
      </trkpt>
      <trkpt lat="66.17608" lon="13.00335">
        <ele>53.373058</ele>
        <time>2020-08-14T12:11:37.871Z</time>
      </trkpt>
      <trkpt lat="66.17618" lon="13.00329">
        <ele>53.52125</ele>
        <time>2020-08-14T12:11:39.877Z</time>
      </trkpt>
      <trkpt lat="66.17631" lon="13.00326">
        <ele>53.694947</ele>
        <time>2020-08-14T12:11:41.880Z</time>
      </trkpt>
      <trkpt lat="66.17645" lon="13.00323">
        <ele>53.901903</ele>
        <time>2020-08-14T12:11:43.872Z</time>
      </trkpt>
      <trkpt lat="66.17658" lon="13.00317">
        <ele>53.908677</ele>
        <time>2020-08-14T12:11:45.897Z</time>
      </trkpt>
      <trkpt lat="66.17669" lon="13.0031">
        <ele>53.382168</ele>
        <time>2020-08-14T12:11:47.871Z</time>
      </trkpt>
      <trkpt lat="66.1768" lon="13.00307">
        <ele>52.9044</ele>
        <time>2020-08-14T12:11:49.889Z</time>
      </trkpt>
      <trkpt lat="66.17692" lon="13.00302">
        <ele>52.385836</ele>
        <time>2020-08-14T12:11:51.875Z</time>
      </trkpt>
      <trkpt lat="66.17703" lon="13.00296">
        <ele>51.875236</ele>
        <time>2020-08-14T12:11:53.869Z</time>
      </trkpt>
      <trkpt lat="66.17714" lon="13.0029">
        <ele>51.38355</ele>
        <time>2020-08-14T12:11:55.879Z</time>
      </trkpt>
      <trkpt lat="66.17723" lon="13.00281">
        <ele>50.931015</ele>
        <time>2020-08-14T12:11:57.878Z</time>
      </trkpt>
      <trkpt lat="66.17734" lon="13.00272">
        <ele>50.434776</ele>
        <time>2020-08-14T12:11:59.871Z</time>
      </trkpt>
      <trkpt lat="66.17744" lon="13.00267">
        <ele>49.976143</ele>
        <time>2020-08-14T12:12:01.873Z</time>
      </trkpt>
      <trkpt lat="66.17756" lon="13.00262">
        <ele>49.439785</ele>
        <time>2020-08-14T12:12:03.876Z</time>
      </trkpt>
      <trkpt lat="66.17766" lon="13.00253">
        <ele>48.951373</ele>
        <time>2020-08-14T12:12:05.874Z</time>
      </trkpt>
      <trkpt lat="66.17777" lon="13.00245">
        <ele>48.433974</ele>
        <time>2020-08-14T12:12:07.889Z</time>
      </trkpt>
      <trkpt lat="66.17789" lon="13.00236">
        <ele>47.884863</ele>
        <time>2020-08-14T12:12:09.873Z</time>
      </trkpt>
      <trkpt lat="66.17799" lon="13.00229">
        <ele>47.417369</ele>
        <time>2020-08-14T12:12:11.881Z</time>
      </trkpt>
      <trkpt lat="66.17811" lon="13.00223">
        <ele>46.905142</ele>
        <time>2020-08-14T12:12:13.891Z</time>
      </trkpt>
      <trkpt lat="66.17823" lon="13.00212">
        <ele>46.324671</ele>
        <time>2020-08-14T12:12:16.888Z</time>
      </trkpt>
      <trkpt lat="66.17833" lon="13.00209">
        <ele>46.192143</ele>
        <time>2020-08-14T12:12:18.876Z</time>
      </trkpt>
      <trkpt lat="66.17845" lon="13.00205">
        <ele>46.512491</ele>
        <time>2020-08-14T12:12:20.882Z</time>
      </trkpt>
      <trkpt lat="66.17854" lon="13.00201">
        <ele>46.782475</ele>
        <time>2020-08-14T12:12:22.893Z</time>
      </trkpt>
      <trkpt lat="66.17863" lon="13.00201">
        <ele>47.057095</ele>
        <time>2020-08-14T12:12:24.884Z</time>
      </trkpt>
      <trkpt lat="66.17875" lon="13.00197">
        <ele>47.383113</ele>
        <time>2020-08-14T12:12:27.901Z</time>
      </trkpt>
      <trkpt lat="66.17886" lon="13.00189">
        <ele>47.709288</ele>
        <time>2020-08-14T12:12:30.874Z</time>
      </trkpt>
      <trkpt lat="66.17899" lon="13.00175">
        <ele>48.112496</ele>
        <time>2020-08-14T12:12:33.881Z</time>
      </trkpt>
      <trkpt lat="66.17909" lon="13.00167">
        <ele>48.41959</ele>
        <time>2020-08-14T12:12:35.900Z</time>
      </trkpt>
      <trkpt lat="66.17921" lon="13.00159">
        <ele>48.770809</ele>
        <time>2020-08-14T12:12:37.889Z</time>
      </trkpt>
      <trkpt lat="66.17933" lon="13.00153">
        <ele>49.122909</ele>
        <time>2020-08-14T12:12:39.878Z</time>
      </trkpt>
      <trkpt lat="66.17943" lon="13.00147">
        <ele>49.436201</ele>
        <time>2020-08-14T12:12:41.884Z</time>
      </trkpt>
      <trkpt lat="66.17954" lon="13.00141">
        <ele>49.752044</ele>
        <time>2020-08-14T12:12:43.884Z</time>
      </trkpt>
      <trkpt lat="66.17965" lon="13.0014">
        <ele>50.066924</ele>
        <time>2020-08-14T12:12:45.885Z</time>
      </trkpt>
      <trkpt lat="66.17976" lon="13.00139">
        <ele>50.364611</ele>
        <time>2020-08-14T12:12:47.873Z</time>
      </trkpt>
      <trkpt lat="66.17986" lon="13.00138">
        <ele>50.65927</ele>
        <time>2020-08-14T12:12:49.889Z</time>
      </trkpt>
      <trkpt lat="66.17998" lon="13.00137">
        <ele>50.991449</ele>
        <time>2020-08-14T12:12:51.881Z</time>
      </trkpt>
      <trkpt lat="66.18008" lon="13.00134">
        <ele>51.10431</ele>
        <time>2020-08-14T12:12:53.873Z</time>
      </trkpt>
      <trkpt lat="66.18018" lon="13.00129">
        <ele>50.728394</ele>
        <time>2020-08-14T12:12:55.879Z</time>
      </trkpt>
      <trkpt lat="66.18029" lon="13.00123">
        <ele>50.321471</ele>
        <time>2020-08-14T12:12:57.882Z</time>
      </trkpt>
      <trkpt lat="66.18041" lon="13.00116">
        <ele>49.912244</ele>
        <time>2020-08-14T12:12:59.872Z</time>
      </trkpt>
      <trkpt lat="66.1805" lon="13.00106">
        <ele>49.550609</ele>
        <time>2020-08-14T12:13:01.877Z</time>
      </trkpt>
      <trkpt lat="66.18061" lon="13.00098">
        <ele>49.131629</ele>
        <time>2020-08-14T12:13:03.879Z</time>
      </trkpt>
      <trkpt lat="66.18072" lon="13.00093">
        <ele>48.740677</ele>
        <time>2020-08-14T12:13:05.877Z</time>
      </trkpt>
      <trkpt lat="66.18082" lon="13.00086">
        <ele>48.377152</ele>
        <time>2020-08-14T12:13:07.879Z</time>
      </trkpt>
      <trkpt lat="66.18091" lon="13.00082">
        <ele>48.052938</ele>
        <time>2020-08-14T12:13:09.876Z</time>
      </trkpt>
      <trkpt lat="66.18104" lon="13.00075">
        <ele>47.570524</ele>
        <time>2020-08-14T12:13:12.876Z</time>
      </trkpt>
      <trkpt lat="66.18114" lon="13.00071">
        <ele>47.225814</ele>
        <time>2020-08-14T12:13:14.880Z</time>
      </trkpt>
      <trkpt lat="66.18124" lon="13.0007">
        <ele>46.888093</ele>
        <time>2020-08-14T12:13:16.884Z</time>
      </trkpt>
      <trkpt lat="66.18135" lon="13.00068">
        <ele>46.465451</ele>
        <time>2020-08-14T12:13:19.873Z</time>
      </trkpt>
      <trkpt lat="66.18148" lon="13.00067">
        <ele>46.021904</ele>
        <time>2020-08-14T12:13:22.892Z</time>
      </trkpt>
      <trkpt lat="66.18161" lon="13.00061">
        <ele>45.554283</ele>
        <time>2020-08-14T12:13:25.869Z</time>
      </trkpt>
      <trkpt lat="66.18171" lon="13.00057">
        <ele>45.198615</ele>
        <time>2020-08-14T12:13:27.880Z</time>
      </trkpt>
      <trkpt lat="66.1818" lon="13.00054">
        <ele>44.865696</ele>
        <time>2020-08-14T12:13:29.879Z</time>
      </trkpt>
      <trkpt lat="66.18189" lon="13.00051">
        <ele>45.140841</ele>
        <time>2020-08-14T12:13:31.874Z</time>
      </trkpt>
      <trkpt lat="66.18202" lon="13.00042">
        <ele>45.653111</ele>
        <time>2020-08-14T12:13:34.857Z</time>
      </trkpt>
      <trkpt lat="66.18212" lon="13.00036">
        <ele>46.037644</ele>
        <time>2020-08-14T12:13:36.876Z</time>
      </trkpt>
      <trkpt lat="66.18223" lon="13.00031">
        <ele>46.454345</ele>
        <time>2020-08-14T12:13:38.884Z</time>
      </trkpt>
      <trkpt lat="66.18234" lon="13.00027">
        <ele>46.889431</ele>
        <time>2020-08-14T12:13:40.873Z</time>
      </trkpt>
      <trkpt lat="66.18246" lon="13.00023">
        <ele>47.357948</ele>
        <time>2020-08-14T12:13:42.864Z</time>
      </trkpt>
      <trkpt lat="66.18258" lon="13.00018">
        <ele>47.830262</ele>
        <time>2020-08-14T12:13:44.875Z</time>
      </trkpt>
      <trkpt lat="66.1827" lon="13.00016">
        <ele>48.276751</ele>
        <time>2020-08-14T12:13:46.876Z</time>
      </trkpt>
      <trkpt lat="66.18283" lon="13.00014">
        <ele>48.787275</ele>
        <time>2020-08-14T12:13:48.866Z</time>
      </trkpt>
      <trkpt lat="66.18298" lon="13.00007">
        <ele>49.387384</ele>
        <time>2020-08-14T12:13:50.894Z</time>
      </trkpt>
      <trkpt lat="66.18312" lon="13">
        <ele>49.916594</ele>
        <time>2020-08-14T12:13:52.869Z</time>
      </trkpt>
      <trkpt lat="66.18325" lon="12.99993">
        <ele>50.432876</ele>
        <time>2020-08-14T12:13:54.863Z</time>
      </trkpt>
      <trkpt lat="66.18334" lon="12.99987">
        <ele>50.778765</ele>
        <time>2020-08-14T12:13:56.870Z</time>
      </trkpt>
      <trkpt lat="66.18343" lon="12.99981">
        <ele>51.148437</ele>
        <time>2020-08-14T12:13:58.861Z</time>
      </trkpt>
      <trkpt lat="66.18354" lon="12.99977">
        <ele>51.555801</ele>
        <time>2020-08-14T12:14:00.868Z</time>
      </trkpt>
      <trkpt lat="66.18364" lon="12.99972">
        <ele>51.832399</ele>
        <time>2020-08-14T12:14:02.873Z</time>
      </trkpt>
      <trkpt lat="66.18374" lon="12.99969">
        <ele>52.020567</ele>
        <time>2020-08-14T12:14:04.878Z</time>
      </trkpt>
      <trkpt lat="66.18384" lon="12.99967">
        <ele>52.202719</ele>
        <time>2020-08-14T12:14:06.872Z</time>
      </trkpt>
      <trkpt lat="66.18393" lon="12.99967">
        <ele>52.369667</ele>
        <time>2020-08-14T12:14:08.871Z</time>
      </trkpt>
      <trkpt lat="66.18403" lon="12.99967">
        <ele>52.551157</ele>
        <time>2020-08-14T12:14:10.878Z</time>
      </trkpt>
      <trkpt lat="66.18414" lon="12.99969">
        <ele>52.746089</ele>
        <time>2020-08-14T12:14:12.882Z</time>
      </trkpt>
      <trkpt lat="66.18426" lon="12.99971">
        <ele>52.971648</ele>
        <time>2020-08-14T12:14:14.890Z</time>
      </trkpt>
      <trkpt lat="66.1844" lon="12.99971">
        <ele>53.222058</ele>
        <time>2020-08-14T12:14:16.885Z</time>
      </trkpt>
      <trkpt lat="66.18453" lon="12.9997">
        <ele>53.459903</ele>
        <time>2020-08-14T12:14:18.869Z</time>
      </trkpt>
      <trkpt lat="66.18465" lon="12.9997">
        <ele>53.666747</ele>
        <time>2020-08-14T12:14:20.896Z</time>
      </trkpt>
      <trkpt lat="66.18475" lon="12.99967">
        <ele>53.86536</ele>
        <time>2020-08-14T12:14:22.885Z</time>
      </trkpt>
      <trkpt lat="66.18487" lon="12.99962">
        <ele>54.071845</ele>
        <time>2020-08-14T12:14:24.884Z</time>
      </trkpt>
      <trkpt lat="66.18497" lon="12.99958">
        <ele>54.263398</ele>
        <time>2020-08-14T12:14:26.869Z</time>
      </trkpt>
      <trkpt lat="66.18506" lon="12.99952">
        <ele>54.435114</ele>
        <time>2020-08-14T12:14:28.879Z</time>
      </trkpt>
      <trkpt lat="66.18516" lon="12.99945">
        <ele>54.62386</ele>
        <time>2020-08-14T12:14:30.884Z</time>
      </trkpt>
      <trkpt lat="66.18526" lon="12.99939">
        <ele>54.802879</ele>
        <time>2020-08-14T12:14:32.879Z</time>
      </trkpt>
      <trkpt lat="66.18536" lon="12.99934">
        <ele>55.017852</ele>
        <time>2020-08-14T12:14:34.878Z</time>
      </trkpt>
      <trkpt lat="66.18545" lon="12.99927">
        <ele>55.675474</ele>
        <time>2020-08-14T12:14:36.870Z</time>
      </trkpt>
      <trkpt lat="66.18556" lon="12.99919">
        <ele>56.464875</ele>
        <time>2020-08-14T12:14:38.873Z</time>
      </trkpt>
      <trkpt lat="66.18567" lon="12.99916">
        <ele>57.25744</ele>
        <time>2020-08-14T12:14:40.873Z</time>
      </trkpt>
      <trkpt lat="66.1858" lon="12.99911">
        <ele>58.160786</ele>
        <time>2020-08-14T12:14:42.884Z</time>
      </trkpt>
      <trkpt lat="66.18593" lon="12.99909">
        <ele>59.02028</ele>
        <time>2020-08-14T12:14:44.870Z</time>
      </trkpt>
      <trkpt lat="66.18604" lon="12.99905">
        <ele>59.808348</ele>
        <time>2020-08-14T12:14:46.867Z</time>
      </trkpt>
      <trkpt lat="66.18615" lon="12.99899">
        <ele>60.609636</ele>
        <time>2020-08-14T12:14:48.905Z</time>
      </trkpt>
      <trkpt lat="66.18626" lon="12.99893">
        <ele>61.375062</ele>
        <time>2020-08-14T12:14:50.867Z</time>
      </trkpt>
      <trkpt lat="66.18636" lon="12.99889">
        <ele>62.121313</ele>
        <time>2020-08-14T12:14:52.900Z</time>
      </trkpt>
      <trkpt lat="66.18647" lon="12.9989">
        <ele>62.860524</ele>
        <time>2020-08-14T12:14:54.888Z</time>
      </trkpt>
      <trkpt lat="66.18657" lon="12.9989">
        <ele>63.543708</ele>
        <time>2020-08-14T12:14:56.874Z</time>
      </trkpt>
      <trkpt lat="66.18668" lon="12.99889">
        <ele>64.325214</ele>
        <time>2020-08-14T12:14:58.885Z</time>
      </trkpt>
      <trkpt lat="66.18679" lon="12.99892">
        <ele>65.095804</ele>
        <time>2020-08-14T12:15:00.879Z</time>
      </trkpt>
      <trkpt lat="66.1869" lon="12.99894">
        <ele>65.858917</ele>
        <time>2020-08-14T12:15:02.874Z</time>
      </trkpt>
      <trkpt lat="66.187" lon="12.99894">
        <ele>66.56306</ele>
        <time>2020-08-14T12:15:04.866Z</time>
      </trkpt>
      <trkpt lat="66.18711" lon="12.99894">
        <ele>67.322969</ele>
        <time>2020-08-14T12:15:06.870Z</time>
      </trkpt>
      <trkpt lat="66.18721" lon="12.99894">
        <ele>67.14572</ele>
        <time>2020-08-14T12:15:08.875Z</time>
      </trkpt>
      <trkpt lat="66.18732" lon="12.99895">
        <ele>66.622056</ele>
        <time>2020-08-14T12:15:10.904Z</time>
      </trkpt>
      <trkpt lat="66.18742" lon="12.99898">
        <ele>66.120744</ele>
        <time>2020-08-14T12:15:12.889Z</time>
      </trkpt>
      <trkpt lat="66.18751" lon="12.99903">
        <ele>65.645159</ele>
        <time>2020-08-14T12:15:14.897Z</time>
      </trkpt>
      <trkpt lat="66.18761" lon="12.99907">
        <ele>65.157212</ele>
        <time>2020-08-14T12:15:16.882Z</time>
      </trkpt>
      <trkpt lat="66.18773" lon="12.99906">
        <ele>64.553925</ele>
        <time>2020-08-14T12:15:19.877Z</time>
      </trkpt>
      <trkpt lat="66.18787" lon="12.99905">
        <ele>63.870877</ele>
        <time>2020-08-14T12:15:22.877Z</time>
      </trkpt>
      <trkpt lat="66.18796" lon="12.99905">
        <ele>63.422281</ele>
        <time>2020-08-14T12:15:24.876Z</time>
      </trkpt>
      <trkpt lat="66.18807" lon="12.9991">
        <ele>62.860385</ele>
        <time>2020-08-14T12:15:26.869Z</time>
      </trkpt>
      <trkpt lat="66.18819" lon="12.99914">
        <ele>62.222623</ele>
        <time>2020-08-14T12:15:28.880Z</time>
      </trkpt>
      <trkpt lat="66.18833" lon="12.99918">
        <ele>61.563797</ele>
        <time>2020-08-14T12:15:30.876Z</time>
      </trkpt>
      <trkpt lat="66.18844" lon="12.99922">
        <ele>61.006404</ele>
        <time>2020-08-14T12:15:32.897Z</time>
      </trkpt>
      <trkpt lat="66.18855" lon="12.99921">
        <ele>60.448151</ele>
        <time>2020-08-14T12:15:34.880Z</time>
      </trkpt>
      <trkpt lat="66.18867" lon="12.9992">
        <ele>59.820012</ele>
        <time>2020-08-14T12:15:36.882Z</time>
      </trkpt>
      <trkpt lat="66.1888" lon="12.99921">
        <ele>59.172133</ele>
        <time>2020-08-14T12:15:38.886Z</time>
      </trkpt>
      <trkpt lat="66.18892" lon="12.99925">
        <ele>58.598045</ele>
        <time>2020-08-14T12:15:40.866Z</time>
      </trkpt>
      <trkpt lat="66.18901" lon="12.9993">
        <ele>58.132461</ele>
        <time>2020-08-14T12:15:42.881Z</time>
      </trkpt>
      <trkpt lat="66.1891" lon="12.99932">
        <ele>57.670309</ele>
        <time>2020-08-14T12:15:44.884Z</time>
      </trkpt>
      <trkpt lat="66.1892" lon="12.99936">
        <ele>57.207726</ele>
        <time>2020-08-14T12:15:46.874Z</time>
      </trkpt>
      <trkpt lat="66.18929" lon="12.99936">
        <ele>56.7231</ele>
        <time>2020-08-14T12:15:48.884Z</time>
      </trkpt>
      <trkpt lat="66.1894" lon="12.99934">
        <ele>56.217153</ele>
        <time>2020-08-14T12:15:50.862Z</time>
      </trkpt>
      <trkpt lat="66.18951" lon="12.99934">
        <ele>55.65332</ele>
        <time>2020-08-14T12:15:52.880Z</time>
      </trkpt>
      <trkpt lat="66.18964" lon="12.99938">
        <ele>54.995981</ele>
        <time>2020-08-14T12:15:54.919Z</time>
      </trkpt>
      <trkpt lat="66.18976" lon="12.99941">
        <ele>54.430242</ele>
        <time>2020-08-14T12:15:56.870Z</time>
      </trkpt>
      <trkpt lat="66.18987" lon="12.99945">
        <ele>53.875004</ele>
        <time>2020-08-14T12:15:58.883Z</time>
      </trkpt>
      <trkpt lat="66.18997" lon="12.99947">
        <ele>53.368172</ele>
        <time>2020-08-14T12:16:00.872Z</time>
      </trkpt>
      <trkpt lat="66.19006" lon="12.99949">
        <ele>52.902638</ele>
        <time>2020-08-14T12:16:02.877Z</time>
      </trkpt>
      <trkpt lat="66.19017" lon="12.99951">
        <ele>52.382051</ele>
        <time>2020-08-14T12:16:04.878Z</time>
      </trkpt>
      <trkpt lat="66.19027" lon="12.99954">
        <ele>51.868992</ele>
        <time>2020-08-14T12:16:06.907Z</time>
      </trkpt>
      <trkpt lat="66.19039" lon="12.99958">
        <ele>51.284408</ele>
        <time>2020-08-14T12:16:08.882Z</time>
      </trkpt>
      <trkpt lat="66.1905" lon="12.99965">
        <ele>50.703641</ele>
        <time>2020-08-14T12:16:10.892Z</time>
      </trkpt>
      <trkpt lat="66.19062" lon="12.99971">
        <ele>50.099076</ele>
        <time>2020-08-14T12:16:12.881Z</time>
      </trkpt>
      <trkpt lat="66.19073" lon="12.99979">
        <ele>49.499807</ele>
        <time>2020-08-14T12:16:14.879Z</time>
      </trkpt>
      <trkpt lat="66.19083" lon="12.99984">
        <ele>48.731457</ele>
        <time>2020-08-14T12:16:16.876Z</time>
      </trkpt>
      <trkpt lat="66.19094" lon="12.99987">
        <ele>47.91201</ele>
        <time>2020-08-14T12:16:18.871Z</time>
      </trkpt>
      <trkpt lat="66.19104" lon="12.99988">
        <ele>47.13692</ele>
        <time>2020-08-14T12:16:20.879Z</time>
      </trkpt>
      <trkpt lat="66.19115" lon="12.99988">
        <ele>46.332149</ele>
        <time>2020-08-14T12:16:22.877Z</time>
      </trkpt>
      <trkpt lat="66.19125" lon="12.99987">
        <ele>45.571945</ele>
        <time>2020-08-14T12:16:24.869Z</time>
      </trkpt>
      <trkpt lat="66.19137" lon="12.99985">
        <ele>44.684869</ele>
        <time>2020-08-14T12:16:26.883Z</time>
      </trkpt>
      <trkpt lat="66.19148" lon="12.99986">
        <ele>43.879897</ele>
        <time>2020-08-14T12:16:28.869Z</time>
      </trkpt>
      <trkpt lat="66.19158" lon="12.99989">
        <ele>43.085581</ele>
        <time>2020-08-14T12:16:30.873Z</time>
      </trkpt>
      <trkpt lat="66.19169" lon="12.99995">
        <ele>42.296792</ele>
        <time>2020-08-14T12:16:32.885Z</time>
      </trkpt>
      <trkpt lat="66.1918" lon="13.00003">
        <ele>41.407111</ele>
        <time>2020-08-14T12:16:34.881Z</time>
      </trkpt>
      <trkpt lat="66.19191" lon="13.00011">
        <ele>40.589769</ele>
        <time>2020-08-14T12:16:36.885Z</time>
      </trkpt>
      <trkpt lat="66.192" lon="13.00017">
        <ele>39.850565</ele>
        <time>2020-08-14T12:16:38.877Z</time>
      </trkpt>
      <trkpt lat="66.1921" lon="13.00021">
        <ele>39.102454</ele>
        <time>2020-08-14T12:16:40.882Z</time>
      </trkpt>
      <trkpt lat="66.19223" lon="13.00024">
        <ele>38.151945</ele>
        <time>2020-08-14T12:16:43.906Z</time>
      </trkpt>
      <trkpt lat="66.19233" lon="13.00028">
        <ele>37.389146</ele>
        <time>2020-08-14T12:16:45.897Z</time>
      </trkpt>
      <trkpt lat="66.19243" lon="13.00034">
        <ele>36.610991</ele>
        <time>2020-08-14T12:16:47.875Z</time>
      </trkpt>
      <trkpt lat="66.19253" lon="13.00043">
        <ele>36.303577</ele>
        <time>2020-08-14T12:16:49.872Z</time>
      </trkpt>
      <trkpt lat="66.19267" lon="13.00053">
        <ele>36.371065</ele>
        <time>2020-08-14T12:16:51.872Z</time>
      </trkpt>
      <trkpt lat="66.1928" lon="13.00064">
        <ele>36.440233</ele>
        <time>2020-08-14T12:16:53.881Z</time>
      </trkpt>
      <trkpt lat="66.19292" lon="13.00073">
        <ele>36.501402</ele>
        <time>2020-08-14T12:16:55.887Z</time>
      </trkpt>
      <trkpt lat="66.19303" lon="13.00079">
        <ele>36.554151</ele>
        <time>2020-08-14T12:16:57.884Z</time>
      </trkpt>
      <trkpt lat="66.19314" lon="13.0008">
        <ele>36.605964</ele>
        <time>2020-08-14T12:16:59.870Z</time>
      </trkpt>
      <trkpt lat="66.19327" lon="13.00084">
        <ele>36.669429</ele>
        <time>2020-08-14T12:17:01.874Z</time>
      </trkpt>
      <trkpt lat="66.19339" lon="13.0009">
        <ele>36.728554</ele>
        <time>2020-08-14T12:17:03.876Z</time>
      </trkpt>
      <trkpt lat="66.1935" lon="13.00095">
        <ele>36.783589</ele>
        <time>2020-08-14T12:17:05.895Z</time>
      </trkpt>
      <trkpt lat="66.19362" lon="13.00102">
        <ele>36.841742</ele>
        <time>2020-08-14T12:17:07.905Z</time>
      </trkpt>
      <trkpt lat="66.19374" lon="13.00108">
        <ele>36.90256</ele>
        <time>2020-08-14T12:17:09.880Z</time>
      </trkpt>
      <trkpt lat="66.19384" lon="13.00111">
        <ele>36.951403</ele>
        <time>2020-08-14T12:17:11.878Z</time>
      </trkpt>
      <trkpt lat="66.19394" lon="13.00113">
        <ele>37.000816</ele>
        <time>2020-08-14T12:17:13.902Z</time>
      </trkpt>
      <trkpt lat="66.19403" lon="13.00116">
        <ele>37.04487</ele>
        <time>2020-08-14T12:17:15.885Z</time>
      </trkpt>
      <trkpt lat="66.19413" lon="13.00118">
        <ele>37.092422</ele>
        <time>2020-08-14T12:17:17.874Z</time>
      </trkpt>
      <trkpt lat="66.19425" lon="13.00118">
        <ele>37.119738</ele>
        <time>2020-08-14T12:17:19.872Z</time>
      </trkpt>
      <trkpt lat="66.19436" lon="13.0012">
        <ele>36.897613</ele>
        <time>2020-08-14T12:17:21.888Z</time>
      </trkpt>
      <trkpt lat="66.19447" lon="13.00121">
        <ele>36.672158</ele>
        <time>2020-08-14T12:17:23.873Z</time>
      </trkpt>
      <trkpt lat="66.19459" lon="13.00124">
        <ele>36.449806</ele>
        <time>2020-08-14T12:17:25.877Z</time>
      </trkpt>
      <trkpt lat="66.19469" lon="13.00129">
        <ele>36.232786</ele>
        <time>2020-08-14T12:17:27.883Z</time>
      </trkpt>
      <trkpt lat="66.1948" lon="13.00135">
        <ele>36.016769</ele>
        <time>2020-08-14T12:17:29.877Z</time>
      </trkpt>
      <trkpt lat="66.19491" lon="13.00141">
        <ele>35.796557</ele>
        <time>2020-08-14T12:17:31.865Z</time>
      </trkpt>
      <trkpt lat="66.19502" lon="13.00146">
        <ele>35.582799</ele>
        <time>2020-08-14T12:17:33.888Z</time>
      </trkpt>
      <trkpt lat="66.19512" lon="13.00152">
        <ele>35.376607</ele>
        <time>2020-08-14T12:17:35.872Z</time>
      </trkpt>
      <trkpt lat="66.19522" lon="13.00159">
        <ele>35.163311</ele>
        <time>2020-08-14T12:17:37.877Z</time>
      </trkpt>
      <trkpt lat="66.19533" lon="13.00166">
        <ele>34.939427</ele>
        <time>2020-08-14T12:17:39.880Z</time>
      </trkpt>
      <trkpt lat="66.19544" lon="13.00174">
        <ele>34.705606</ele>
        <time>2020-08-14T12:17:41.873Z</time>
      </trkpt>
      <trkpt lat="66.19555" lon="13.00181">
        <ele>34.495659</ele>
        <time>2020-08-14T12:17:43.878Z</time>
      </trkpt>
      <trkpt lat="66.19565" lon="13.00187">
        <ele>34.288765</ele>
        <time>2020-08-14T12:17:45.878Z</time>
      </trkpt>
      <trkpt lat="66.19576" lon="13.00195">
        <ele>34.051718</ele>
        <time>2020-08-14T12:17:47.877Z</time>
      </trkpt>
      <trkpt lat="66.19587" lon="13.00202">
        <ele>33.828895</ele>
        <time>2020-08-14T12:17:49.878Z</time>
      </trkpt>
      <trkpt lat="66.19598" lon="13.00208">
        <ele>33.618328</ele>
        <time>2020-08-14T12:17:51.883Z</time>
      </trkpt>
      <trkpt lat="66.19608" lon="13.00215">
        <ele>33.070222</ele>
        <time>2020-08-14T12:17:53.906Z</time>
      </trkpt>
      <trkpt lat="66.19618" lon="13.00221">
        <ele>32.522973</ele>
        <time>2020-08-14T12:17:55.876Z</time>
      </trkpt>
      <trkpt lat="66.19628" lon="13.00226">
        <ele>31.953506</ele>
        <time>2020-08-14T12:17:57.879Z</time>
      </trkpt>
      <trkpt lat="66.19639" lon="13.00234">
        <ele>31.362353</ele>
        <time>2020-08-14T12:17:59.873Z</time>
      </trkpt>
      <trkpt lat="66.19649" lon="13.00241">
        <ele>30.780674</ele>
        <time>2020-08-14T12:18:01.870Z</time>
      </trkpt>
      <trkpt lat="66.19659" lon="13.00247">
        <ele>30.203398</ele>
        <time>2020-08-14T12:18:03.878Z</time>
      </trkpt>
      <trkpt lat="66.1967" lon="13.00254">
        <ele>29.591234</ele>
        <time>2020-08-14T12:18:05.883Z</time>
      </trkpt>
      <trkpt lat="66.19681" lon="13.00261">
        <ele>28.983252</ele>
        <time>2020-08-14T12:18:07.885Z</time>
      </trkpt>
      <trkpt lat="66.19693" lon="13.0027">
        <ele>28.301057</ele>
        <time>2020-08-14T12:18:09.883Z</time>
      </trkpt>
      <trkpt lat="66.19705" lon="13.00277">
        <ele>27.63286</ele>
        <time>2020-08-14T12:18:11.869Z</time>
      </trkpt>
      <trkpt lat="66.19715" lon="13.00284">
        <ele>27.088471</ele>
        <time>2020-08-14T12:18:13.880Z</time>
      </trkpt>
      <trkpt lat="66.19727" lon="13.00293">
        <ele>26.399152</ele>
        <time>2020-08-14T12:18:16.884Z</time>
      </trkpt>
      <trkpt lat="66.19737" lon="13.00303">
        <ele>25.816896</ele>
        <time>2020-08-14T12:18:18.879Z</time>
      </trkpt>
      <trkpt lat="66.19748" lon="13.00316">
        <ele>25.134347</ele>
        <time>2020-08-14T12:18:20.876Z</time>
      </trkpt>
      <trkpt lat="66.19757" lon="13.00327">
        <ele>24.588565</ele>
        <time>2020-08-14T12:18:22.881Z</time>
      </trkpt>
      <trkpt lat="66.19767" lon="13.00336">
        <ele>24.006846</ele>
        <time>2020-08-14T12:18:24.885Z</time>
      </trkpt>
      <trkpt lat="66.19778" lon="13.00344">
        <ele>23.861648</ele>
        <time>2020-08-14T12:18:26.891Z</time>
      </trkpt>
      <trkpt lat="66.19788" lon="13.0035">
        <ele>23.943447</ele>
        <time>2020-08-14T12:18:28.875Z</time>
      </trkpt>
      <trkpt lat="66.19798" lon="13.00357">
        <ele>24.031364</ele>
        <time>2020-08-14T12:18:30.881Z</time>
      </trkpt>
      <trkpt lat="66.19808" lon="13.00366">
        <ele>24.124125</ele>
        <time>2020-08-14T12:18:32.897Z</time>
      </trkpt>
      <trkpt lat="66.19819" lon="13.00377">
        <ele>24.219516</ele>
        <time>2020-08-14T12:18:34.865Z</time>
      </trkpt>
      <trkpt lat="66.19831" lon="13.00388">
        <ele>24.328687</ele>
        <time>2020-08-14T12:18:36.877Z</time>
      </trkpt>
      <trkpt lat="66.19842" lon="13.00398">
        <ele>24.4253</ele>
        <time>2020-08-14T12:18:38.873Z</time>
      </trkpt>
      <trkpt lat="66.19852" lon="13.0041">
        <ele>24.521052</ele>
        <time>2020-08-14T12:18:40.874Z</time>
      </trkpt>
      <trkpt lat="66.19863" lon="13.00414">
        <ele>24.617138</ele>
        <time>2020-08-14T12:18:43.883Z</time>
      </trkpt>
      <trkpt lat="66.19876" lon="13.0042">
        <ele>24.723964</ele>
        <time>2020-08-14T12:18:46.876Z</time>
      </trkpt>
      <trkpt lat="66.19886" lon="13.00426">
        <ele>24.812616</ele>
        <time>2020-08-14T12:18:49.870Z</time>
      </trkpt>
      <trkpt lat="66.19899" lon="13.00435">
        <ele>24.928252</ele>
        <time>2020-08-14T12:18:52.873Z</time>
      </trkpt>
      <trkpt lat="66.1991" lon="13.00443">
        <ele>25.021233</ele>
        <time>2020-08-14T12:18:55.878Z</time>
      </trkpt>
      <trkpt lat="66.19921" lon="13.0045">
        <ele>25.112932</ele>
        <time>2020-08-14T12:18:58.875Z</time>
      </trkpt>
      <trkpt lat="66.19934" lon="13.00457">
        <ele>25.225362</ele>
        <time>2020-08-14T12:19:01.868Z</time>
      </trkpt>
      <trkpt lat="66.19946" lon="13.00463">
        <ele>25.540618</ele>
        <time>2020-08-14T12:19:04.891Z</time>
      </trkpt>
      <trkpt lat="66.19958" lon="13.0047">
        <ele>26.446626</ele>
        <time>2020-08-14T12:19:07.866Z</time>
      </trkpt>
      <trkpt lat="66.19969" lon="13.00475">
        <ele>27.303749</ele>
        <time>2020-08-14T12:19:10.866Z</time>
      </trkpt>
      <trkpt lat="66.19981" lon="13.00481">
        <ele>28.222884</ele>
        <time>2020-08-14T12:19:13.870Z</time>
      </trkpt>
      <trkpt lat="66.19992" lon="13.00484">
        <ele>29.058795</ele>
        <time>2020-08-14T12:19:16.863Z</time>
      </trkpt>
      <trkpt lat="66.20002" lon="13.00494">
        <ele>29.84678</ele>
        <time>2020-08-14T12:19:19.871Z</time>
      </trkpt>
      <trkpt lat="66.20013" lon="13.00508">
        <ele>30.73489</ele>
        <time>2020-08-14T12:19:23.866Z</time>
      </trkpt>
      <trkpt lat="66.20021" lon="13.0052">
        <ele>31.457024</ele>
        <time>2020-08-14T12:19:26.902Z</time>
      </trkpt>
      <trkpt lat="66.20029" lon="13.00534">
        <ele>32.205046</ele>
        <time>2020-08-14T12:19:29.866Z</time>
      </trkpt>
      <trkpt lat="66.20039" lon="13.00552">
        <ele>33.10992</ele>
        <time>2020-08-14T12:19:33.875Z</time>
      </trkpt>
      <trkpt lat="66.20046" lon="13.00568">
        <ele>33.843243</ele>
        <time>2020-08-14T12:19:36.874Z</time>
      </trkpt>
      <trkpt lat="66.20055" lon="13.0059">
        <ele>34.752948</ele>
        <time>2020-08-14T12:19:40.862Z</time>
      </trkpt>
      <trkpt lat="66.2006" lon="13.0061">
        <ele>35.472297</ele>
        <time>2020-08-14T12:19:43.871Z</time>
      </trkpt>
      <trkpt lat="66.20066" lon="13.00633">
        <ele>36.309187</ele>
        <time>2020-08-14T12:19:47.872Z</time>
      </trkpt>
      <trkpt lat="66.20074" lon="13.00656">
        <ele>37.174426</ele>
        <time>2020-08-14T12:19:51.869Z</time>
      </trkpt>
      <trkpt lat="66.20079" lon="13.00674">
        <ele>37.873219</ele>
        <time>2020-08-14T12:19:54.868Z</time>
      </trkpt>
      <trkpt lat="66.20084" lon="13.00695">
        <ele>38.586201</ele>
        <time>2020-08-14T12:19:57.870Z</time>
      </trkpt>
      <trkpt lat="66.20087" lon="13.00716">
        <ele>39.003278</ele>
        <time>2020-08-14T12:20:00.878Z</time>
      </trkpt>
      <trkpt lat="66.20092" lon="13.00736">
        <ele>39.337547</ele>
        <time>2020-08-14T12:20:03.872Z</time>
      </trkpt>
      <trkpt lat="66.20097" lon="13.00759">
        <ele>39.725703</ele>
        <time>2020-08-14T12:20:07.868Z</time>
      </trkpt>
      <trkpt lat="66.20101" lon="13.00785">
        <ele>40.131239</ele>
        <time>2020-08-14T12:20:12.870Z</time>
      </trkpt>
      <trkpt lat="66.20103" lon="13.0081">
        <ele>40.50723</ele>
        <time>2020-08-14T12:20:17.865Z</time>
      </trkpt>
      <trkpt lat="66.20105" lon="13.00832">
        <ele>40.833449</ele>
        <time>2020-08-14T12:20:21.872Z</time>
      </trkpt>
      <trkpt lat="66.20108" lon="13.00858">
        <ele>41.23128</ele>
        <time>2020-08-14T12:20:25.865Z</time>
      </trkpt>
      <trkpt lat="66.20111" lon="13.00883">
        <ele>41.606903</ele>
        <time>2020-08-14T12:20:29.897Z</time>
      </trkpt>
      <trkpt lat="66.20113" lon="13.00907">
        <ele>41.966153</ele>
        <time>2020-08-14T12:20:34.884Z</time>
      </trkpt>
      <trkpt lat="66.2011" lon="13.0093">
        <ele>42.332514</ele>
        <time>2020-08-14T12:20:43.868Z</time>
      </trkpt>
      <trkpt lat="66.20106" lon="13.00951">
        <ele>42.658912</ele>
        <time>2020-08-14T12:20:49.871Z</time>
      </trkpt>
      <trkpt lat="66.20103" lon="13.00974">
        <ele>43.013297</ele>
        <time>2020-08-14T12:20:56.863Z</time>
      </trkpt>
      <trkpt lat="66.201" lon="13.00998">
        <ele>43.382708</ele>
        <time>2020-08-14T12:21:04.882Z</time>
      </trkpt>
      <trkpt lat="66.20096" lon="13.01019">
        <ele>43.730897</ele>
        <time>2020-08-14T12:21:13.866Z</time>
      </trkpt>
      <trkpt lat="66.20075" lon="13.01106">
        <ele>45.227707</ele>
        <time>2020-08-14T12:24:17.863Z</time>
      </trkpt>
      <trkpt lat="66.2007" lon="13.01128">
        <ele>45.194325</ele>
        <time>2020-08-14T12:24:21.877Z</time>
      </trkpt>
      <trkpt lat="66.20057" lon="13.01185">
        <ele>44.952668</ele>
        <time>2020-08-14T12:24:36.876Z</time>
      </trkpt>
      <trkpt lat="66.20053" lon="13.01205">
        <ele>44.870364</ele>
        <time>2020-08-14T12:24:44.870Z</time>
      </trkpt>
      <trkpt lat="66.20048" lon="13.01226">
        <ele>44.782749</ele>
        <time>2020-08-14T12:24:54.866Z</time>
      </trkpt>
      <trkpt lat="66.20045" lon="13.0126">
        <ele>44.656788</ele>
        <time>2020-08-14T12:27:03.881Z</time>
      </trkpt>
      <trkpt lat="66.20041" lon="13.01282">
        <ele>44.568581</ele>
        <time>2020-08-14T12:27:07.877Z</time>
      </trkpt>
      <trkpt lat="66.20037" lon="13.01305">
        <ele>44.475602</ele>
        <time>2020-08-14T12:27:11.856Z</time>
      </trkpt>
      <trkpt lat="66.20034" lon="13.01333">
        <ele>44.372365</ele>
        <time>2020-08-14T12:27:15.919Z</time>
      </trkpt>
      <trkpt lat="66.20031" lon="13.0136">
        <ele>44.272302</ele>
        <time>2020-08-14T12:27:19.875Z</time>
      </trkpt>
      <trkpt lat="66.20026" lon="13.01385">
        <ele>44.170809</ele>
        <time>2020-08-14T12:27:23.851Z</time>
      </trkpt>
      <trkpt lat="66.20017" lon="13.01398">
        <ele>44.076102</ele>
        <time>2020-08-14T12:27:27.868Z</time>
      </trkpt>
      <trkpt lat="66.20009" lon="13.01414">
        <ele>43.982666</ele>
        <time>2020-08-14T12:27:31.858Z</time>
      </trkpt>
      <trkpt lat="66.20004" lon="13.01438">
        <ele>43.884577</ele>
        <time>2020-08-14T12:27:35.877Z</time>
      </trkpt>
      <trkpt lat="66.20001" lon="13.01458">
        <ele>43.803198</ele>
        <time>2020-08-14T12:27:38.881Z</time>
      </trkpt>
      <trkpt lat="66.19998" lon="13.0148">
        <ele>43.721235</ele>
        <time>2020-08-14T12:27:41.867Z</time>
      </trkpt>
      <trkpt lat="66.19996" lon="13.01508">
        <ele>43.719915</ele>
        <time>2020-08-14T12:27:45.877Z</time>
      </trkpt>
      <trkpt lat="66.19994" lon="13.0153">
        <ele>43.913581</ele>
        <time>2020-08-14T12:27:48.872Z</time>
      </trkpt>
      <trkpt lat="66.19994" lon="13.01553">
        <ele>44.117055</ele>
        <time>2020-08-14T12:27:51.870Z</time>
      </trkpt>
      <trkpt lat="66.19993" lon="13.01576">
        <ele>44.310632</ele>
        <time>2020-08-14T12:27:54.882Z</time>
      </trkpt>
      <trkpt lat="66.19993" lon="13.01598">
        <ele>44.506054</ele>
        <time>2020-08-14T12:27:57.875Z</time>
      </trkpt>
      <trkpt lat="66.19995" lon="13.01622">
        <ele>44.71589</ele>
        <time>2020-08-14T12:28:00.878Z</time>
      </trkpt>
      <trkpt lat="66.19997" lon="13.01646">
        <ele>44.927848</ele>
        <time>2020-08-14T12:28:03.880Z</time>
      </trkpt>
      <trkpt lat="66.19999" lon="13.0167">
        <ele>45.137684</ele>
        <time>2020-08-14T12:28:06.885Z</time>
      </trkpt>
      <trkpt lat="66.20001" lon="13.01693">
        <ele>45.345874</ele>
        <time>2020-08-14T12:28:09.906Z</time>
      </trkpt>
      <trkpt lat="66.20004" lon="13.01718">
        <ele>45.568296</ele>
        <time>2020-08-14T12:28:12.898Z</time>
      </trkpt>
      <trkpt lat="66.20007" lon="13.01742">
        <ele>45.782926</ele>
        <time>2020-08-14T12:28:15.903Z</time>
      </trkpt>
      <trkpt lat="66.20009" lon="13.01765">
        <ele>45.986463</ele>
        <time>2020-08-14T12:28:18.901Z</time>
      </trkpt>
      <trkpt lat="66.20012" lon="13.01787">
        <ele>46.185286</ele>
        <time>2020-08-14T12:28:21.875Z</time>
      </trkpt>
      <trkpt lat="66.20014" lon="13.01809">
        <ele>46.381598</ele>
        <time>2020-08-14T12:28:24.890Z</time>
      </trkpt>
      <trkpt lat="66.20016" lon="13.01831">
        <ele>46.578664</ele>
        <time>2020-08-14T12:28:27.875Z</time>
      </trkpt>
      <trkpt lat="66.20015" lon="13.01859">
        <ele>46.82209</ele>
        <time>2020-08-14T12:28:31.875Z</time>
      </trkpt>
      <trkpt lat="66.20014" lon="13.01883">
        <ele>47.02836</ele>
        <time>2020-08-14T12:28:35.893Z</time>
      </trkpt>
      <trkpt lat="66.20011" lon="13.01904">
        <ele>47.22164</ele>
        <time>2020-08-14T12:28:39.891Z</time>
      </trkpt>
      <trkpt lat="66.20006" lon="13.01924">
        <ele>47.422942</ele>
        <time>2020-08-14T12:28:43.887Z</time>
      </trkpt>
      <trkpt lat="66.20001" lon="13.01945">
        <ele>47.71121</ele>
        <time>2020-08-14T12:28:47.863Z</time>
      </trkpt>
      <trkpt lat="66.19995" lon="13.01968">
        <ele>48.131226</ele>
        <time>2020-08-14T12:28:51.842Z</time>
      </trkpt>
      <trkpt lat="66.1999" lon="13.01995">
        <ele>48.546485</ele>
        <time>2020-08-14T12:28:55.855Z</time>
      </trkpt>
      <trkpt lat="66.19987" lon="13.02022">
        <ele>48.962036</ele>
        <time>2020-08-14T12:28:59.861Z</time>
      </trkpt>
      <trkpt lat="66.19984" lon="13.02047">
        <ele>49.348859</ele>
        <time>2020-08-14T12:29:03.882Z</time>
      </trkpt>
      <trkpt lat="66.19984" lon="13.02077">
        <ele>49.783545</ele>
        <time>2020-08-14T12:29:07.869Z</time>
      </trkpt>
      <trkpt lat="66.19987" lon="13.02102">
        <ele>50.157558</ele>
        <time>2020-08-14T12:29:10.894Z</time>
      </trkpt>
      <trkpt lat="66.19989" lon="13.02126">
        <ele>50.520515</ele>
        <time>2020-08-14T12:29:13.893Z</time>
      </trkpt>
      <trkpt lat="66.19991" lon="13.0215">
        <ele>50.867319</ele>
        <time>2020-08-14T12:29:16.868Z</time>
      </trkpt>
      <trkpt lat="66.19993" lon="13.02175">
        <ele>51.235678</ele>
        <time>2020-08-14T12:29:19.895Z</time>
      </trkpt>
      <trkpt lat="66.19995" lon="13.02201">
        <ele>51.631514</ele>
        <time>2020-08-14T12:29:22.889Z</time>
      </trkpt>
      <trkpt lat="66.19998" lon="13.02223">
        <ele>51.979489</ele>
        <time>2020-08-14T12:29:25.881Z</time>
      </trkpt>
      <trkpt lat="66.20001" lon="13.02246">
        <ele>52.328877</ele>
        <time>2020-08-14T12:29:28.887Z</time>
      </trkpt>
      <trkpt lat="66.20003" lon="13.02276">
        <ele>52.767496</ele>
        <time>2020-08-14T12:29:32.876Z</time>
      </trkpt>
      <trkpt lat="66.20005" lon="13.02302">
        <ele>53.155688</ele>
        <time>2020-08-14T12:29:35.888Z</time>
      </trkpt>
      <trkpt lat="66.20007" lon="13.02328">
        <ele>53.544602</ele>
        <time>2020-08-14T12:29:38.897Z</time>
      </trkpt>
      <trkpt lat="66.2001" lon="13.02356">
        <ele>53.967664</ele>
        <time>2020-08-14T12:29:41.856Z</time>
      </trkpt>
      <trkpt lat="66.20012" lon="13.02386">
        <ele>53.974984</ele>
        <time>2020-08-14T12:29:44.888Z</time>
      </trkpt>
      <trkpt lat="66.20015" lon="13.02412">
        <ele>53.946874</ele>
        <time>2020-08-14T12:29:47.865Z</time>
      </trkpt>
      <trkpt lat="66.20017" lon="13.02437">
        <ele>53.92017</ele>
        <time>2020-08-14T12:29:50.873Z</time>
      </trkpt>
      <trkpt lat="66.20018" lon="13.02464">
        <ele>53.891672</ele>
        <time>2020-08-14T12:29:53.894Z</time>
      </trkpt>
      <trkpt lat="66.20021" lon="13.0249">
        <ele>53.863296</ele>
        <time>2020-08-14T12:29:56.873Z</time>
      </trkpt>
      <trkpt lat="66.20023" lon="13.02514">
        <ele>53.838182</ele>
        <time>2020-08-14T12:29:59.883Z</time>
      </trkpt>
      <trkpt lat="66.20024" lon="13.02542">
        <ele>53.808337</ele>
        <time>2020-08-14T12:30:02.910Z</time>
      </trkpt>
      <trkpt lat="66.20026" lon="13.02574">
        <ele>53.774346</ele>
        <time>2020-08-14T12:30:05.887Z</time>
      </trkpt>
      <trkpt lat="66.20027" lon="13.02607">
        <ele>53.739607</ele>
        <time>2020-08-14T12:30:08.862Z</time>
      </trkpt>
      <trkpt lat="66.20027" lon="13.02631">
        <ele>53.714881</ele>
        <time>2020-08-14T12:30:10.876Z</time>
      </trkpt>
      <trkpt lat="66.20028" lon="13.02654">
        <ele>53.690951</ele>
        <time>2020-08-14T12:30:12.876Z</time>
      </trkpt>
      <trkpt lat="66.20028" lon="13.02677">
        <ele>53.666692</ele>
        <time>2020-08-14T12:30:14.879Z</time>
      </trkpt>
      <trkpt lat="66.20029" lon="13.02702">
        <ele>53.640922</ele>
        <time>2020-08-14T12:30:16.865Z</time>
      </trkpt>
      <trkpt lat="66.20029" lon="13.02725">
        <ele>53.616031</ele>
        <time>2020-08-14T12:30:18.888Z</time>
      </trkpt>
      <trkpt lat="66.20029" lon="13.02758">
        <ele>53.58183</ele>
        <time>2020-08-14T12:30:21.892Z</time>
      </trkpt>
      <trkpt lat="66.20029" lon="13.02781">
        <ele>53.558089</ele>
        <time>2020-08-14T12:30:23.870Z</time>
      </trkpt>
      <trkpt lat="66.20029" lon="13.02806">
        <ele>53.540856</ele>
        <time>2020-08-14T12:30:25.875Z</time>
      </trkpt>
      <trkpt lat="66.2003" lon="13.02832">
        <ele>53.558372</ele>
        <time>2020-08-14T12:30:27.886Z</time>
      </trkpt>
      <trkpt lat="66.2003" lon="13.02859">
        <ele>53.576348</ele>
        <time>2020-08-14T12:30:29.910Z</time>
      </trkpt>
      <trkpt lat="66.2003" lon="13.02885">
        <ele>53.594056</ele>
        <time>2020-08-14T12:30:31.890Z</time>
      </trkpt>
      <trkpt lat="66.2003" lon="13.0291">
        <ele>53.611162</ele>
        <time>2020-08-14T12:30:33.873Z</time>
      </trkpt>
      <trkpt lat="66.20031" lon="13.02935">
        <ele>53.627609</ele>
        <time>2020-08-14T12:30:35.924Z</time>
      </trkpt>
      <trkpt lat="66.20031" lon="13.02961">
        <ele>53.64496</ele>
        <time>2020-08-14T12:30:37.877Z</time>
      </trkpt>
      <trkpt lat="66.20032" lon="13.02985">
        <ele>53.66179</ele>
        <time>2020-08-14T12:30:39.870Z</time>
      </trkpt>
      <trkpt lat="66.20033" lon="13.0301">
        <ele>53.678498</ele>
        <time>2020-08-14T12:30:41.880Z</time>
      </trkpt>
      <trkpt lat="66.20034" lon="13.03033">
        <ele>53.693919</ele>
        <time>2020-08-14T12:30:43.872Z</time>
      </trkpt>
      <trkpt lat="66.20034" lon="13.03065">
        <ele>53.715166</ele>
        <time>2020-08-14T12:30:46.919Z</time>
      </trkpt>
      <trkpt lat="66.20036" lon="13.03098">
        <ele>53.737523</ele>
        <time>2020-08-14T12:30:49.873Z</time>
      </trkpt>
      <trkpt lat="66.20036" lon="13.03121">
        <ele>53.753198</ele>
        <time>2020-08-14T12:30:51.885Z</time>
      </trkpt>
      <trkpt lat="66.20038" lon="13.03144">
        <ele>53.768832</ele>
        <time>2020-08-14T12:30:53.873Z</time>
      </trkpt>
      <trkpt lat="66.2004" lon="13.03167">
        <ele>53.784575</ele>
        <time>2020-08-14T12:30:55.876Z</time>
      </trkpt>
      <trkpt lat="66.20042" lon="13.0319">
        <ele>53.800719</ele>
        <time>2020-08-14T12:30:57.881Z</time>
      </trkpt>
      <trkpt lat="66.20045" lon="13.03214">
        <ele>53.817554</ele>
        <time>2020-08-14T12:30:59.855Z</time>
      </trkpt>
      <trkpt lat="66.20049" lon="13.03238">
        <ele>53.83524</ele>
        <time>2020-08-14T12:31:01.888Z</time>
      </trkpt>
      <trkpt lat="66.20053" lon="13.03263">
        <ele>53.762157</ele>
        <time>2020-08-14T12:31:03.893Z</time>
      </trkpt>
      <trkpt lat="66.20057" lon="13.03286">
        <ele>53.679708</ele>
        <time>2020-08-14T12:31:05.876Z</time>
      </trkpt>
      <trkpt lat="66.20062" lon="13.03307">
        <ele>53.600223</ele>
        <time>2020-08-14T12:31:07.931Z</time>
      </trkpt>
      <trkpt lat="66.20067" lon="13.03327">
        <ele>53.52402</ele>
        <time>2020-08-14T12:31:09.872Z</time>
      </trkpt>
      <trkpt lat="66.20072" lon="13.03347">
        <ele>53.446066</ele>
        <time>2020-08-14T12:31:11.870Z</time>
      </trkpt>
      <trkpt lat="66.20078" lon="13.03367">
        <ele>53.368463</ele>
        <time>2020-08-14T12:31:13.859Z</time>
      </trkpt>
      <trkpt lat="66.20083" lon="13.03387">
        <ele>53.291007</ele>
        <time>2020-08-14T12:31:15.885Z</time>
      </trkpt>
      <trkpt lat="66.20088" lon="13.03406">
        <ele>53.213523</ele>
        <time>2020-08-14T12:31:17.891Z</time>
      </trkpt>
      <trkpt lat="66.20094" lon="13.03426">
        <ele>53.135516</ele>
        <time>2020-08-14T12:31:19.867Z</time>
      </trkpt>
      <trkpt lat="66.201" lon="13.03446">
        <ele>53.054983</ele>
        <time>2020-08-14T12:31:21.885Z</time>
      </trkpt>
      <trkpt lat="66.20106" lon="13.03464">
        <ele>52.976999</ele>
        <time>2020-08-14T12:31:23.870Z</time>
      </trkpt>
      <trkpt lat="66.20113" lon="13.0348">
        <ele>52.90045</ele>
        <time>2020-08-14T12:31:25.875Z</time>
      </trkpt>
      <trkpt lat="66.20121" lon="13.03496">
        <ele>52.821977</ele>
        <time>2020-08-14T12:31:27.868Z</time>
      </trkpt>
      <trkpt lat="66.20129" lon="13.03512">
        <ele>52.736188</ele>
        <time>2020-08-14T12:31:29.898Z</time>
      </trkpt>
      <trkpt lat="66.20138" lon="13.03527">
        <ele>52.649407</ele>
        <time>2020-08-14T12:31:31.879Z</time>
      </trkpt>
      <trkpt lat="66.20147" lon="13.03544">
        <ele>52.555295</ele>
        <time>2020-08-14T12:31:33.888Z</time>
      </trkpt>
      <trkpt lat="66.20158" lon="13.03562">
        <ele>52.452735</ele>
        <time>2020-08-14T12:31:35.869Z</time>
      </trkpt>
      <trkpt lat="66.20168" lon="13.03581">
        <ele>52.189413</ele>
        <time>2020-08-14T12:31:37.894Z</time>
      </trkpt>
      <trkpt lat="66.2018" lon="13.036">
        <ele>51.641155</ele>
        <time>2020-08-14T12:31:39.888Z</time>
      </trkpt>
      <trkpt lat="66.20193" lon="13.0362">
        <ele>51.051427</ele>
        <time>2020-08-14T12:31:41.908Z</time>
      </trkpt>
      <trkpt lat="66.20206" lon="13.03642">
        <ele>50.444912</ele>
        <time>2020-08-14T12:31:43.889Z</time>
      </trkpt>
      <trkpt lat="66.20219" lon="13.03662">
        <ele>49.820296</ele>
        <time>2020-08-14T12:31:45.869Z</time>
      </trkpt>
      <trkpt lat="66.20233" lon="13.03684">
        <ele>49.17233</ele>
        <time>2020-08-14T12:31:47.889Z</time>
      </trkpt>
      <trkpt lat="66.20247" lon="13.03707">
        <ele>48.507322</ele>
        <time>2020-08-14T12:31:49.873Z</time>
      </trkpt>
      <trkpt lat="66.20261" lon="13.03731">
        <ele>47.843192</ele>
        <time>2020-08-14T12:31:51.893Z</time>
      </trkpt>
      <trkpt lat="66.20276" lon="13.03755">
        <ele>47.135626</ele>
        <time>2020-08-14T12:31:53.880Z</time>
      </trkpt>
      <trkpt lat="66.20284" lon="13.03768">
        <ele>46.779186</ele>
        <time>2020-08-14T12:31:54.890Z</time>
      </trkpt>
      <trkpt lat="66.20291" lon="13.03781">
        <ele>46.423637</ele>
        <time>2020-08-14T12:31:55.882Z</time>
      </trkpt>
      <trkpt lat="66.20299" lon="13.03794">
        <ele>46.061273</ele>
        <time>2020-08-14T12:31:56.890Z</time>
      </trkpt>
      <trkpt lat="66.20306" lon="13.03807">
        <ele>45.697102</ele>
        <time>2020-08-14T12:31:57.876Z</time>
      </trkpt>
      <trkpt lat="66.20314" lon="13.03819">
        <ele>45.345069</ele>
        <time>2020-08-14T12:31:58.894Z</time>
      </trkpt>
      <trkpt lat="66.20328" lon="13.03842">
        <ele>45.083354</ele>
        <time>2020-08-14T12:32:00.897Z</time>
      </trkpt>
      <trkpt lat="66.20343" lon="13.03864">
        <ele>44.825993</ele>
        <time>2020-08-14T12:32:02.880Z</time>
      </trkpt>
      <trkpt lat="66.20357" lon="13.03886">
        <ele>44.578416</ele>
        <time>2020-08-14T12:32:04.867Z</time>
      </trkpt>
      <trkpt lat="66.20371" lon="13.03907">
        <ele>44.345052</ele>
        <time>2020-08-14T12:32:06.888Z</time>
      </trkpt>
      <trkpt lat="66.20384" lon="13.03926">
        <ele>44.116645</ele>
        <time>2020-08-14T12:32:08.897Z</time>
      </trkpt>
      <trkpt lat="66.20397" lon="13.03944">
        <ele>43.896167</ele>
        <time>2020-08-14T12:32:10.876Z</time>
      </trkpt>
      <trkpt lat="66.20409" lon="13.03962">
        <ele>43.683239</ele>
        <time>2020-08-14T12:32:12.885Z</time>
      </trkpt>
      <trkpt lat="66.20421" lon="13.03979">
        <ele>43.480128</ele>
        <time>2020-08-14T12:32:14.869Z</time>
      </trkpt>
      <trkpt lat="66.20432" lon="13.03996">
        <ele>43.284266</ele>
        <time>2020-08-14T12:32:16.907Z</time>
      </trkpt>
      <trkpt lat="66.20443" lon="13.04011">
        <ele>43.095829</ele>
        <time>2020-08-14T12:32:18.900Z</time>
      </trkpt>
      <trkpt lat="66.20454" lon="13.04027">
        <ele>42.904115</ele>
        <time>2020-08-14T12:32:20.868Z</time>
      </trkpt>
      <trkpt lat="66.20466" lon="13.04043">
        <ele>42.713213</ele>
        <time>2020-08-14T12:32:22.888Z</time>
      </trkpt>
      <trkpt lat="66.20477" lon="13.04058">
        <ele>42.658718</ele>
        <time>2020-08-14T12:32:24.888Z</time>
      </trkpt>
      <trkpt lat="66.20487" lon="13.04073">
        <ele>42.659975</ele>
        <time>2020-08-14T12:32:26.917Z</time>
      </trkpt>
      <trkpt lat="66.20498" lon="13.04088">
        <ele>42.661231</ele>
        <time>2020-08-14T12:32:28.879Z</time>
      </trkpt>
      <trkpt lat="66.20508" lon="13.04103">
        <ele>42.662501</ele>
        <time>2020-08-14T12:32:30.897Z</time>
      </trkpt>
      <trkpt lat="66.20519" lon="13.04118">
        <ele>42.663767</ele>
        <time>2020-08-14T12:32:32.894Z</time>
      </trkpt>
      <trkpt lat="66.2053" lon="13.04133">
        <ele>42.665015</ele>
        <time>2020-08-14T12:32:34.881Z</time>
      </trkpt>
      <trkpt lat="66.2054" lon="13.04148">
        <ele>42.666273</ele>
        <time>2020-08-14T12:32:36.874Z</time>
      </trkpt>
      <trkpt lat="66.20551" lon="13.04164">
        <ele>42.667514</ele>
        <time>2020-08-14T12:32:38.876Z</time>
      </trkpt>
      <trkpt lat="66.20561" lon="13.04179">
        <ele>42.66873</ele>
        <time>2020-08-14T12:32:40.892Z</time>
      </trkpt>
      <trkpt lat="66.2057" lon="13.04196">
        <ele>42.669938</ele>
        <time>2020-08-14T12:32:42.875Z</time>
      </trkpt>
      <trkpt lat="66.20579" lon="13.04213">
        <ele>42.671122</ele>
        <time>2020-08-14T12:32:44.868Z</time>
      </trkpt>
      <trkpt lat="66.20589" lon="13.0423">
        <ele>42.672311</ele>
        <time>2020-08-14T12:32:46.889Z</time>
      </trkpt>
      <trkpt lat="66.20598" lon="13.04248">
        <ele>42.673526</ele>
        <time>2020-08-14T12:32:48.909Z</time>
      </trkpt>
      <trkpt lat="66.20607" lon="13.04268">
        <ele>42.67477</ele>
        <time>2020-08-14T12:32:50.875Z</time>
      </trkpt>
      <trkpt lat="66.20616" lon="13.04287">
        <ele>42.675954</ele>
        <time>2020-08-14T12:32:52.877Z</time>
      </trkpt>
      <trkpt lat="66.20624" lon="13.04306">
        <ele>42.684618</ele>
        <time>2020-08-14T12:32:54.885Z</time>
      </trkpt>
      <trkpt lat="66.20632" lon="13.04325">
        <ele>42.69644</ele>
        <time>2020-08-14T12:32:56.908Z</time>
      </trkpt>
      <trkpt lat="66.2064" lon="13.04344">
        <ele>42.708048</ele>
        <time>2020-08-14T12:32:58.892Z</time>
      </trkpt>
      <trkpt lat="66.20647" lon="13.04363">
        <ele>42.719368</ele>
        <time>2020-08-14T12:33:00.903Z</time>
      </trkpt>
      <trkpt lat="66.20655" lon="13.04381">
        <ele>42.730962</ele>
        <time>2020-08-14T12:33:02.873Z</time>
      </trkpt>
      <trkpt lat="66.20663" lon="13.04401">
        <ele>42.742737</ele>
        <time>2020-08-14T12:33:04.889Z</time>
      </trkpt>
      <trkpt lat="66.2067" lon="13.0442">
        <ele>42.754212</ele>
        <time>2020-08-14T12:33:06.869Z</time>
      </trkpt>
      <trkpt lat="66.20678" lon="13.04438">
        <ele>42.765442</ele>
        <time>2020-08-14T12:33:08.870Z</time>
      </trkpt>
      <trkpt lat="66.20685" lon="13.04456">
        <ele>42.776352</ele>
        <time>2020-08-14T12:33:10.890Z</time>
      </trkpt>
      <trkpt lat="66.20692" lon="13.04473">
        <ele>42.787139</ele>
        <time>2020-08-14T12:33:12.929Z</time>
      </trkpt>
      <trkpt lat="66.207" lon="13.04492">
        <ele>42.798643</ele>
        <time>2020-08-14T12:33:14.894Z</time>
      </trkpt>
      <trkpt lat="66.20707" lon="13.04511">
        <ele>42.810404</ele>
        <time>2020-08-14T12:33:16.868Z</time>
      </trkpt>
      <trkpt lat="66.20716" lon="13.0453">
        <ele>42.822547</ele>
        <time>2020-08-14T12:33:18.865Z</time>
      </trkpt>
      <trkpt lat="66.20724" lon="13.0455">
        <ele>42.8349</ele>
        <time>2020-08-14T12:33:20.871Z</time>
      </trkpt>
      <trkpt lat="66.20732" lon="13.04571">
        <ele>42.847832</ele>
        <time>2020-08-14T12:33:22.868Z</time>
      </trkpt>
      <trkpt lat="66.20741" lon="13.04593">
        <ele>42.860991</ele>
        <time>2020-08-14T12:33:24.877Z</time>
      </trkpt>
      <trkpt lat="66.2075" lon="13.04614">
        <ele>42.84924</ele>
        <time>2020-08-14T12:33:26.865Z</time>
      </trkpt>
      <trkpt lat="66.20759" lon="13.04635">
        <ele>42.799149</ele>
        <time>2020-08-14T12:33:28.871Z</time>
      </trkpt>
      <trkpt lat="66.20768" lon="13.04657">
        <ele>42.748902</ele>
        <time>2020-08-14T12:33:30.880Z</time>
      </trkpt>
      <trkpt lat="66.20777" lon="13.04678">
        <ele>42.700145</ele>
        <time>2020-08-14T12:33:32.880Z</time>
      </trkpt>
      <trkpt lat="66.20785" lon="13.04699">
        <ele>42.65253</ele>
        <time>2020-08-14T12:33:34.884Z</time>
      </trkpt>
      <trkpt lat="66.20793" lon="13.04719">
        <ele>42.605943</ele>
        <time>2020-08-14T12:33:36.878Z</time>
      </trkpt>
      <trkpt lat="66.20801" lon="13.04738">
        <ele>42.560777</ele>
        <time>2020-08-14T12:33:38.876Z</time>
      </trkpt>
      <trkpt lat="66.20809" lon="13.04757">
        <ele>42.517102</ele>
        <time>2020-08-14T12:33:40.870Z</time>
      </trkpt>
      <trkpt lat="66.20817" lon="13.04776">
        <ele>42.474453</ele>
        <time>2020-08-14T12:33:42.868Z</time>
      </trkpt>
      <trkpt lat="66.20824" lon="13.04795">
        <ele>42.431667</ele>
        <time>2020-08-14T12:33:44.880Z</time>
      </trkpt>
      <trkpt lat="66.20831" lon="13.04818">
        <ele>42.385086</ele>
        <time>2020-08-14T12:33:46.894Z</time>
      </trkpt>
      <trkpt lat="66.20838" lon="13.04836">
        <ele>42.342721</ele>
        <time>2020-08-14T12:33:48.868Z</time>
      </trkpt>
      <trkpt lat="66.20846" lon="13.04858">
        <ele>42.295288</ele>
        <time>2020-08-14T12:33:50.909Z</time>
      </trkpt>
      <trkpt lat="66.20854" lon="13.04881">
        <ele>42.246932</ele>
        <time>2020-08-14T12:33:52.884Z</time>
      </trkpt>
      <trkpt lat="66.20861" lon="13.04905">
        <ele>42.198143</ele>
        <time>2020-08-14T12:33:54.881Z</time>
      </trkpt>
      <trkpt lat="66.20868" lon="13.04931">
        <ele>42.147316</ele>
        <time>2020-08-14T12:33:56.866Z</time>
      </trkpt>
      <trkpt lat="66.20876" lon="13.04958">
        <ele>42.097386</ele>
        <time>2020-08-14T12:33:58.916Z</time>
      </trkpt>
      <trkpt lat="66.20883" lon="13.04985">
        <ele>42.046483</ele>
        <time>2020-08-14T12:34:00.883Z</time>
      </trkpt>
      <trkpt lat="66.20891" lon="13.05011">
        <ele>41.996277</ele>
        <time>2020-08-14T12:34:02.890Z</time>
      </trkpt>
      <trkpt lat="66.20899" lon="13.05037">
        <ele>41.94659</ele>
        <time>2020-08-14T12:34:04.900Z</time>
      </trkpt>
      <trkpt lat="66.20908" lon="13.05061">
        <ele>41.897635</ele>
        <time>2020-08-14T12:34:06.879Z</time>
      </trkpt>
      <trkpt lat="66.20917" lon="13.05083">
        <ele>41.848647</ele>
        <time>2020-08-14T12:34:08.885Z</time>
      </trkpt>
      <trkpt lat="66.20927" lon="13.05102">
        <ele>41.801253</ele>
        <time>2020-08-14T12:34:10.902Z</time>
      </trkpt>
      <trkpt lat="66.20937" lon="13.0512">
        <ele>41.754517</ele>
        <time>2020-08-14T12:34:12.883Z</time>
      </trkpt>
      <trkpt lat="66.20947" lon="13.05135">
        <ele>41.708925</ele>
        <time>2020-08-14T12:34:14.875Z</time>
      </trkpt>
      <trkpt lat="66.20957" lon="13.05148">
        <ele>41.665895</ele>
        <time>2020-08-14T12:34:16.877Z</time>
      </trkpt>
      <trkpt lat="66.20967" lon="13.05161">
        <ele>41.620687</ele>
        <time>2020-08-14T12:34:18.886Z</time>
      </trkpt>
      <trkpt lat="66.20978" lon="13.05173">
        <ele>41.575676</ele>
        <time>2020-08-14T12:34:20.880Z</time>
      </trkpt>
      <trkpt lat="66.20988" lon="13.05184">
        <ele>41.533348</ele>
        <time>2020-08-14T12:34:22.875Z</time>
      </trkpt>
      <trkpt lat="66.20998" lon="13.05196">
        <ele>41.493334</ele>
        <time>2020-08-14T12:34:24.901Z</time>
      </trkpt>
      <trkpt lat="66.21007" lon="13.05207">
        <ele>41.500964</ele>
        <time>2020-08-14T12:34:26.877Z</time>
      </trkpt>
      <trkpt lat="66.21016" lon="13.05218">
        <ele>41.837984</ele>
        <time>2020-08-14T12:34:28.896Z</time>
      </trkpt>
      <trkpt lat="66.21024" lon="13.05228">
        <ele>42.15881</ele>
        <time>2020-08-14T12:34:30.892Z</time>
      </trkpt>
      <trkpt lat="66.21033" lon="13.05237">
        <ele>42.474303</ele>
        <time>2020-08-14T12:34:32.883Z</time>
      </trkpt>
      <trkpt lat="66.21042" lon="13.05246">
        <ele>42.787259</ele>
        <time>2020-08-14T12:34:34.900Z</time>
      </trkpt>
      <trkpt lat="66.2105" lon="13.05255">
        <ele>43.094591</ele>
        <time>2020-08-14T12:34:36.895Z</time>
      </trkpt>
      <trkpt lat="66.21058" lon="13.05265">
        <ele>43.401109</ele>
        <time>2020-08-14T12:34:38.917Z</time>
      </trkpt>
      <trkpt lat="66.2107" lon="13.05278">
        <ele>43.841017</ele>
        <time>2020-08-14T12:34:41.916Z</time>
      </trkpt>
      <trkpt lat="66.21082" lon="13.05291">
        <ele>44.268738</ele>
        <time>2020-08-14T12:34:44.913Z</time>
      </trkpt>
      <trkpt lat="66.21093" lon="13.05303">
        <ele>44.671483</ele>
        <time>2020-08-14T12:34:47.891Z</time>
      </trkpt>
      <trkpt lat="66.21104" lon="13.05315">
        <ele>45.085977</ele>
        <time>2020-08-14T12:34:50.879Z</time>
      </trkpt>
      <trkpt lat="66.21115" lon="13.05327">
        <ele>45.489271</ele>
        <time>2020-08-14T12:34:53.872Z</time>
      </trkpt>
      <trkpt lat="66.21126" lon="13.05338">
        <ele>45.877974</ele>
        <time>2020-08-14T12:34:56.902Z</time>
      </trkpt>
      <trkpt lat="66.21137" lon="13.05349">
        <ele>46.269243</ele>
        <time>2020-08-14T12:34:59.875Z</time>
      </trkpt>
      <trkpt lat="66.21147" lon="13.0536">
        <ele>46.644572</ele>
        <time>2020-08-14T12:35:02.900Z</time>
      </trkpt>
      <trkpt lat="66.21159" lon="13.05371">
        <ele>47.070902</ele>
        <time>2020-08-14T12:35:05.886Z</time>
      </trkpt>
      <trkpt lat="66.21172" lon="13.05383">
        <ele>47.479303</ele>
        <time>2020-08-14T12:35:08.891Z</time>
      </trkpt>
      <trkpt lat="66.21184" lon="13.05398">
        <ele>47.472701</ele>
        <time>2020-08-14T12:35:11.872Z</time>
      </trkpt>
      <trkpt lat="66.21192" lon="13.05408">
        <ele>47.468183</ele>
        <time>2020-08-14T12:35:13.874Z</time>
      </trkpt>
      <trkpt lat="66.212" lon="13.05418">
        <ele>47.463717</ele>
        <time>2020-08-14T12:35:15.912Z</time>
      </trkpt>
      <trkpt lat="66.21211" lon="13.05434">
        <ele>47.457035</ele>
        <time>2020-08-14T12:35:18.896Z</time>
      </trkpt>
      <trkpt lat="66.21219" lon="13.05446">
        <ele>47.452334</ele>
        <time>2020-08-14T12:35:20.880Z</time>
      </trkpt>
      <trkpt lat="66.21228" lon="13.05458">
        <ele>47.447343</ele>
        <time>2020-08-14T12:35:22.865Z</time>
      </trkpt>
      <trkpt lat="66.21237" lon="13.0547">
        <ele>47.442207</ele>
        <time>2020-08-14T12:35:24.877Z</time>
      </trkpt>
      <trkpt lat="66.21247" lon="13.05483">
        <ele>47.436659</ele>
        <time>2020-08-14T12:35:26.893Z</time>
      </trkpt>
      <trkpt lat="66.21258" lon="13.05497">
        <ele>47.430448</ele>
        <time>2020-08-14T12:35:28.871Z</time>
      </trkpt>
      <trkpt lat="66.2127" lon="13.05511">
        <ele>47.424043</ele>
        <time>2020-08-14T12:35:30.860Z</time>
      </trkpt>
      <trkpt lat="66.21282" lon="13.05526">
        <ele>47.417359</ele>
        <time>2020-08-14T12:35:32.882Z</time>
      </trkpt>
      <trkpt lat="66.21293" lon="13.05542">
        <ele>47.410719</ele>
        <time>2020-08-14T12:35:34.867Z</time>
      </trkpt>
      <trkpt lat="66.21305" lon="13.05554">
        <ele>47.404374</ele>
        <time>2020-08-14T12:35:36.872Z</time>
      </trkpt>
      <trkpt lat="66.21316" lon="13.05569">
        <ele>47.398072</ele>
        <time>2020-08-14T12:35:38.880Z</time>
      </trkpt>
      <trkpt lat="66.21327" lon="13.05584">
        <ele>47.391837</ele>
        <time>2020-08-14T12:35:40.919Z</time>
      </trkpt>
      <trkpt lat="66.21338" lon="13.05599">
        <ele>47.258804</ele>
        <time>2020-08-14T12:35:42.912Z</time>
      </trkpt>
      <trkpt lat="66.21349" lon="13.05613">
        <ele>47.079914</ele>
        <time>2020-08-14T12:35:44.890Z</time>
      </trkpt>
      <trkpt lat="66.2136" lon="13.05628">
        <ele>46.898228</ele>
        <time>2020-08-14T12:35:46.875Z</time>
      </trkpt>
      <trkpt lat="66.21371" lon="13.05643">
        <ele>46.71795</ele>
        <time>2020-08-14T12:35:48.876Z</time>
      </trkpt>
      <trkpt lat="66.21382" lon="13.05658">
        <ele>46.54032</ele>
        <time>2020-08-14T12:35:50.878Z</time>
      </trkpt>
      <trkpt lat="66.21393" lon="13.05671">
        <ele>46.371262</ele>
        <time>2020-08-14T12:35:52.888Z</time>
      </trkpt>
      <trkpt lat="66.21403" lon="13.05684">
        <ele>46.202475</ele>
        <time>2020-08-14T12:35:54.885Z</time>
      </trkpt>
      <trkpt lat="66.21414" lon="13.05697">
        <ele>46.034975</ele>
        <time>2020-08-14T12:35:56.923Z</time>
      </trkpt>
      <trkpt lat="66.21424" lon="13.05711">
        <ele>45.870574</ele>
        <time>2020-08-14T12:35:58.875Z</time>
      </trkpt>
      <trkpt lat="66.21434" lon="13.05726">
        <ele>45.705674</ele>
        <time>2020-08-14T12:36:00.909Z</time>
      </trkpt>
      <trkpt lat="66.21444" lon="13.0574">
        <ele>45.541556</ele>
        <time>2020-08-14T12:36:02.875Z</time>
      </trkpt>
      <trkpt lat="66.21453" lon="13.05755">
        <ele>45.376354</ele>
        <time>2020-08-14T12:36:04.884Z</time>
      </trkpt>
      <trkpt lat="66.21462" lon="13.05772">
        <ele>45.214035</ele>
        <time>2020-08-14T12:36:06.896Z</time>
      </trkpt>
      <trkpt lat="66.21471" lon="13.05791">
        <ele>45.048826</ele>
        <time>2020-08-14T12:36:08.872Z</time>
      </trkpt>
      <trkpt lat="66.21479" lon="13.05811">
        <ele>44.881521</ele>
        <time>2020-08-14T12:36:10.879Z</time>
      </trkpt>
      <trkpt lat="66.21487" lon="13.05833">
        <ele>44.715733</ele>
        <time>2020-08-14T12:36:12.864Z</time>
      </trkpt>
      <trkpt lat="66.21494" lon="13.05856">
        <ele>44.547464</ele>
        <time>2020-08-14T12:36:14.872Z</time>
      </trkpt>
      <trkpt lat="66.215" lon="13.0588">
        <ele>44.380481</ele>
        <time>2020-08-14T12:36:16.853Z</time>
      </trkpt>
      <trkpt lat="66.21506" lon="13.05905">
        <ele>44.211194</ele>
        <time>2020-08-14T12:36:18.899Z</time>
      </trkpt>
      <trkpt lat="66.21511" lon="13.05931">
        <ele>44.04346</ele>
        <time>2020-08-14T12:36:20.854Z</time>
      </trkpt>
      <trkpt lat="66.21515" lon="13.05958">
        <ele>43.873345</ele>
        <time>2020-08-14T12:36:22.883Z</time>
      </trkpt>
      <trkpt lat="66.2152" lon="13.05987">
        <ele>43.6924</ele>
        <time>2020-08-14T12:36:24.871Z</time>
      </trkpt>
      <trkpt lat="66.21526" lon="13.06016">
        <ele>43.503951</ele>
        <time>2020-08-14T12:36:26.906Z</time>
      </trkpt>
      <trkpt lat="66.21531" lon="13.06046">
        <ele>43.309176</ele>
        <time>2020-08-14T12:36:28.884Z</time>
      </trkpt>
      <trkpt lat="66.21537" lon="13.06075">
        <ele>43.119775</ele>
        <time>2020-08-14T12:36:30.868Z</time>
      </trkpt>
      <trkpt lat="66.21543" lon="13.06102">
        <ele>42.940047</ele>
        <time>2020-08-14T12:36:32.872Z</time>
      </trkpt>
      <trkpt lat="66.21549" lon="13.0613">
        <ele>42.752338</ele>
        <time>2020-08-14T12:36:34.901Z</time>
      </trkpt>
      <trkpt lat="66.21557" lon="13.06158">
        <ele>42.556963</ele>
        <time>2020-08-14T12:36:36.869Z</time>
      </trkpt>
      <trkpt lat="66.21565" lon="13.06184">
        <ele>42.362808</ele>
        <time>2020-08-14T12:36:38.918Z</time>
      </trkpt>
      <trkpt lat="66.21574" lon="13.06208">
        <ele>42.156766</ele>
        <time>2020-08-14T12:36:40.871Z</time>
      </trkpt>
      <trkpt lat="66.21584" lon="13.0623">
        <ele>41.897079</ele>
        <time>2020-08-14T12:36:42.878Z</time>
      </trkpt>
      <trkpt lat="66.21594" lon="13.06252">
        <ele>41.63241</ele>
        <time>2020-08-14T12:36:44.878Z</time>
      </trkpt>
      <trkpt lat="66.21605" lon="13.06271">
        <ele>41.366124</ele>
        <time>2020-08-14T12:36:46.863Z</time>
      </trkpt>
      <trkpt lat="66.21616" lon="13.06291">
        <ele>41.099838</ele>
        <time>2020-08-14T12:36:48.872Z</time>
      </trkpt>
      <trkpt lat="66.21627" lon="13.0631">
        <ele>40.842037</ele>
        <time>2020-08-14T12:36:50.889Z</time>
      </trkpt>
      <trkpt lat="66.21637" lon="13.06327">
        <ele>40.597596</ele>
        <time>2020-08-14T12:36:52.905Z</time>
      </trkpt>
      <trkpt lat="66.21647" lon="13.06344">
        <ele>40.356728</ele>
        <time>2020-08-14T12:36:54.887Z</time>
      </trkpt>
      <trkpt lat="66.21657" lon="13.0636">
        <ele>40.123414</ele>
        <time>2020-08-14T12:36:56.903Z</time>
      </trkpt>
      <trkpt lat="66.21667" lon="13.06377">
        <ele>39.888029</ele>
        <time>2020-08-14T12:36:58.877Z</time>
      </trkpt>
      <trkpt lat="66.21677" lon="13.06394">
        <ele>39.646712</ele>
        <time>2020-08-14T12:37:00.883Z</time>
      </trkpt>
      <trkpt lat="66.21687" lon="13.06412">
        <ele>39.410588</ele>
        <time>2020-08-14T12:37:02.875Z</time>
      </trkpt>
      <trkpt lat="66.21696" lon="13.06432">
        <ele>39.17467</ele>
        <time>2020-08-14T12:37:04.876Z</time>
      </trkpt>
      <trkpt lat="66.21705" lon="13.06453">
        <ele>38.932648</ele>
        <time>2020-08-14T12:37:06.890Z</time>
      </trkpt>
      <trkpt lat="66.21713" lon="13.06476">
        <ele>38.688079</ele>
        <time>2020-08-14T12:37:08.876Z</time>
      </trkpt>
      <trkpt lat="66.21721" lon="13.06501">
        <ele>38.735943</ele>
        <time>2020-08-14T12:37:10.893Z</time>
      </trkpt>
      <trkpt lat="66.21728" lon="13.06527">
        <ele>38.802251</ele>
        <time>2020-08-14T12:37:12.896Z</time>
      </trkpt>
      <trkpt lat="66.21735" lon="13.06552">
        <ele>38.866267</ele>
        <time>2020-08-14T12:37:14.902Z</time>
      </trkpt>
      <trkpt lat="66.21742" lon="13.06578">
        <ele>38.932259</ele>
        <time>2020-08-14T12:37:16.876Z</time>
      </trkpt>
      <trkpt lat="66.21748" lon="13.06604">
        <ele>38.995682</ele>
        <time>2020-08-14T12:37:18.907Z</time>
      </trkpt>
      <trkpt lat="66.21754" lon="13.06631">
        <ele>39.058992</ele>
        <time>2020-08-14T12:37:20.870Z</time>
      </trkpt>
      <trkpt lat="66.2176" lon="13.06656">
        <ele>39.12054</ele>
        <time>2020-08-14T12:37:22.876Z</time>
      </trkpt>
      <trkpt lat="66.21765" lon="13.06681">
        <ele>39.180556</ele>
        <time>2020-08-14T12:37:24.900Z</time>
      </trkpt>
      <trkpt lat="66.21771" lon="13.06706">
        <ele>39.23986</ele>
        <time>2020-08-14T12:37:26.890Z</time>
      </trkpt>
      <trkpt lat="66.21776" lon="13.0673">
        <ele>39.298486</ele>
        <time>2020-08-14T12:37:28.893Z</time>
      </trkpt>
      <trkpt lat="66.21782" lon="13.06754">
        <ele>39.358134</ele>
        <time>2020-08-14T12:37:30.899Z</time>
      </trkpt>
      <trkpt lat="66.21788" lon="13.06779">
        <ele>39.417787</ele>
        <time>2020-08-14T12:37:32.885Z</time>
      </trkpt>
      <trkpt lat="66.21794" lon="13.06803">
        <ele>39.476356</ele>
        <time>2020-08-14T12:37:34.945Z</time>
      </trkpt>
      <trkpt lat="66.218" lon="13.06827">
        <ele>39.535465</ele>
        <time>2020-08-14T12:37:36.879Z</time>
      </trkpt>
      <trkpt lat="66.21805" lon="13.06851">
        <ele>39.593686</ele>
        <time>2020-08-14T12:37:38.874Z</time>
      </trkpt>
      <trkpt lat="66.21811" lon="13.06874">
        <ele>39.767527</ele>
        <time>2020-08-14T12:37:40.935Z</time>
      </trkpt>
      <trkpt lat="66.21817" lon="13.06898">
        <ele>39.984935</ele>
        <time>2020-08-14T12:37:42.897Z</time>
      </trkpt>
      <trkpt lat="66.21822" lon="13.06921">
        <ele>40.201288</ele>
        <time>2020-08-14T12:37:44.883Z</time>
      </trkpt>
      <trkpt lat="66.21827" lon="13.06944">
        <ele>40.413208</ele>
        <time>2020-08-14T12:37:46.874Z</time>
      </trkpt>
      <trkpt lat="66.21833" lon="13.06966">
        <ele>40.622343</ele>
        <time>2020-08-14T12:37:48.872Z</time>
      </trkpt>
      <trkpt lat="66.21838" lon="13.06988">
        <ele>40.829216</ele>
        <time>2020-08-14T12:37:50.907Z</time>
      </trkpt>
      <trkpt lat="66.21842" lon="13.07012">
        <ele>41.041018</ele>
        <time>2020-08-14T12:37:52.882Z</time>
      </trkpt>
      <trkpt lat="66.21847" lon="13.07036">
        <ele>41.255611</ele>
        <time>2020-08-14T12:37:54.865Z</time>
      </trkpt>
      <trkpt lat="66.21851" lon="13.07061">
        <ele>41.470775</ele>
        <time>2020-08-14T12:37:56.903Z</time>
      </trkpt>
      <trkpt lat="66.21855" lon="13.07086">
        <ele>41.687378</ele>
        <time>2020-08-14T12:37:58.875Z</time>
      </trkpt>
      <trkpt lat="66.21858" lon="13.0711">
        <ele>41.89526</ele>
        <time>2020-08-14T12:38:00.880Z</time>
      </trkpt>
      <trkpt lat="66.21862" lon="13.07136">
        <ele>42.11262</ele>
        <time>2020-08-14T12:38:02.877Z</time>
      </trkpt>
      <trkpt lat="66.21865" lon="13.07162">
        <ele>42.329846</ele>
        <time>2020-08-14T12:38:04.897Z</time>
      </trkpt>
      <trkpt lat="66.21867" lon="13.07189">
        <ele>42.552779</ele>
        <time>2020-08-14T12:38:06.877Z</time>
      </trkpt>
      <trkpt lat="66.2187" lon="13.07216">
        <ele>42.779127</ele>
        <time>2020-08-14T12:38:08.870Z</time>
      </trkpt>
      <trkpt lat="66.21873" lon="13.07244">
        <ele>43.008017</ele>
        <time>2020-08-14T12:38:10.887Z</time>
      </trkpt>
      <trkpt lat="66.21876" lon="13.07272">
        <ele>43.199826</ele>
        <time>2020-08-14T12:38:12.879Z</time>
      </trkpt>
      <trkpt lat="66.21879" lon="13.07299">
        <ele>43.183664</ele>
        <time>2020-08-14T12:38:14.866Z</time>
      </trkpt>
      <trkpt lat="66.21882" lon="13.07327">
        <ele>43.167758</ele>
        <time>2020-08-14T12:38:16.889Z</time>
      </trkpt>
      <trkpt lat="66.21885" lon="13.07355">
        <ele>43.151667</ele>
        <time>2020-08-14T12:38:18.912Z</time>
      </trkpt>
      <trkpt lat="66.21888" lon="13.07382">
        <ele>43.136258</ele>
        <time>2020-08-14T12:38:20.892Z</time>
      </trkpt>
      <trkpt lat="66.21891" lon="13.07406">
        <ele>43.121992</ele>
        <time>2020-08-14T12:38:22.894Z</time>
      </trkpt>
      <trkpt lat="66.21894" lon="13.07429">
        <ele>43.108087</ele>
        <time>2020-08-14T12:38:24.872Z</time>
      </trkpt>
      <trkpt lat="66.21898" lon="13.07453">
        <ele>43.093787</ele>
        <time>2020-08-14T12:38:26.897Z</time>
      </trkpt>
      <trkpt lat="66.21902" lon="13.07474">
        <ele>43.080918</ele>
        <time>2020-08-14T12:38:28.879Z</time>
      </trkpt>
      <trkpt lat="66.21906" lon="13.07494">
        <ele>43.068522</ele>
        <time>2020-08-14T12:38:30.867Z</time>
      </trkpt>
      <trkpt lat="66.21913" lon="13.07521">
        <ele>43.050461</ele>
        <time>2020-08-14T12:38:33.887Z</time>
      </trkpt>
      <trkpt lat="66.21919" lon="13.07538">
        <ele>43.037938</ele>
        <time>2020-08-14T12:38:35.878Z</time>
      </trkpt>
      <trkpt lat="66.21927" lon="13.07565">
        <ele>43.01963</ele>
        <time>2020-08-14T12:38:38.883Z</time>
      </trkpt>
      <trkpt lat="66.21936" lon="13.0759">
        <ele>43.001097</ele>
        <time>2020-08-14T12:38:41.895Z</time>
      </trkpt>
      <trkpt lat="66.21942" lon="13.07607">
        <ele>42.988121</ele>
        <time>2020-08-14T12:38:43.888Z</time>
      </trkpt>
      <trkpt lat="66.21949" lon="13.07624">
        <ele>42.97474</ele>
        <time>2020-08-14T12:38:45.876Z</time>
      </trkpt>
      <trkpt lat="66.21956" lon="13.07642">
        <ele>42.960542</ele>
        <time>2020-08-14T12:38:47.865Z</time>
      </trkpt>
      <trkpt lat="66.21962" lon="13.0766">
        <ele>42.92322</ele>
        <time>2020-08-14T12:38:49.901Z</time>
      </trkpt>
      <trkpt lat="66.21969" lon="13.07677">
        <ele>42.859977</ele>
        <time>2020-08-14T12:38:51.876Z</time>
      </trkpt>
      <trkpt lat="66.21975" lon="13.07694">
        <ele>42.795495</ele>
        <time>2020-08-14T12:38:53.884Z</time>
      </trkpt>
      <trkpt lat="66.21982" lon="13.07712">
        <ele>42.729185</ele>
        <time>2020-08-14T12:38:55.869Z</time>
      </trkpt>
      <trkpt lat="66.21989" lon="13.0773">
        <ele>42.661485</ele>
        <time>2020-08-14T12:38:57.872Z</time>
      </trkpt>
      <trkpt lat="66.21997" lon="13.07748">
        <ele>42.593111</ele>
        <time>2020-08-14T12:38:59.871Z</time>
      </trkpt>
      <trkpt lat="66.22004" lon="13.07765">
        <ele>42.526175</ele>
        <time>2020-08-14T12:39:01.863Z</time>
      </trkpt>
      <trkpt lat="66.22011" lon="13.07782">
        <ele>42.460284</ele>
        <time>2020-08-14T12:39:03.892Z</time>
      </trkpt>
      <trkpt lat="66.22018" lon="13.07799">
        <ele>42.396003</ele>
        <time>2020-08-14T12:39:05.892Z</time>
      </trkpt>
      <trkpt lat="66.22025" lon="13.07816">
        <ele>42.330475</ele>
        <time>2020-08-14T12:39:07.854Z</time>
      </trkpt>
      <trkpt lat="66.22032" lon="13.07835">
        <ele>42.262389</ele>
        <time>2020-08-14T12:39:09.852Z</time>
      </trkpt>
      <trkpt lat="66.22039" lon="13.07852">
        <ele>42.19316</ele>
        <time>2020-08-14T12:39:11.881Z</time>
      </trkpt>
      <trkpt lat="66.22047" lon="13.0787">
        <ele>42.123472</ele>
        <time>2020-08-14T12:39:13.863Z</time>
      </trkpt>
      <trkpt lat="66.22054" lon="13.07889">
        <ele>42.052548</ele>
        <time>2020-08-14T12:39:15.878Z</time>
      </trkpt>
      <trkpt lat="66.22061" lon="13.07907">
        <ele>41.984759</ele>
        <time>2020-08-14T12:39:17.876Z</time>
      </trkpt>
      <trkpt lat="66.22069" lon="13.07926">
        <ele>41.913261</ele>
        <time>2020-08-14T12:39:19.908Z</time>
      </trkpt>
      <trkpt lat="66.22076" lon="13.07944">
        <ele>41.844324</ele>
        <time>2020-08-14T12:39:21.879Z</time>
      </trkpt>
      <trkpt lat="66.22083" lon="13.07962">
        <ele>41.777477</ele>
        <time>2020-08-14T12:39:23.892Z</time>
      </trkpt>
      <trkpt lat="66.2209" lon="13.07979">
        <ele>41.817599</ele>
        <time>2020-08-14T12:39:25.876Z</time>
      </trkpt>
      <trkpt lat="66.22096" lon="13.07996">
        <ele>41.926316</ele>
        <time>2020-08-14T12:39:27.931Z</time>
      </trkpt>
      <trkpt lat="66.22105" lon="13.08021">
        <ele>42.081305</ele>
        <time>2020-08-14T12:39:30.866Z</time>
      </trkpt>
      <trkpt lat="66.22114" lon="13.08045">
        <ele>42.22953</ele>
        <time>2020-08-14T12:39:33.882Z</time>
      </trkpt>
      <trkpt lat="66.22122" lon="13.08067">
        <ele>42.367574</ele>
        <time>2020-08-14T12:39:36.892Z</time>
      </trkpt>
      <trkpt lat="66.2213" lon="13.08088">
        <ele>42.504004</ele>
        <time>2020-08-14T12:39:39.870Z</time>
      </trkpt>
      <trkpt lat="66.22138" lon="13.08109">
        <ele>42.638748</ele>
        <time>2020-08-14T12:39:42.876Z</time>
      </trkpt>
      <trkpt lat="66.22146" lon="13.08132">
        <ele>42.779582</ele>
        <time>2020-08-14T12:39:45.872Z</time>
      </trkpt>
      <trkpt lat="66.22154" lon="13.08154">
        <ele>42.920478</ele>
        <time>2020-08-14T12:39:48.899Z</time>
      </trkpt>
      <trkpt lat="66.22162" lon="13.08178">
        <ele>43.067324</ele>
        <time>2020-08-14T12:39:51.878Z</time>
      </trkpt>
      <trkpt lat="66.22171" lon="13.082">
        <ele>43.208394</ele>
        <time>2020-08-14T12:39:54.925Z</time>
      </trkpt>
      <trkpt lat="66.22179" lon="13.08222">
        <ele>43.352063</ele>
        <time>2020-08-14T12:39:57.871Z</time>
      </trkpt>
      <trkpt lat="66.22187" lon="13.08243">
        <ele>43.487814</ele>
        <time>2020-08-14T12:40:00.885Z</time>
      </trkpt>
      <trkpt lat="66.22195" lon="13.08266">
        <ele>43.624669</ele>
        <time>2020-08-14T12:40:03.869Z</time>
      </trkpt>
      <trkpt lat="66.22204" lon="13.08287">
        <ele>43.767114</ele>
        <time>2020-08-14T12:40:06.877Z</time>
      </trkpt>
      <trkpt lat="66.22212" lon="13.08309">
        <ele>43.917151</ele>
        <time>2020-08-14T12:40:09.889Z</time>
      </trkpt>
      <trkpt lat="66.22221" lon="13.08333">
        <ele>44.086806</ele>
        <time>2020-08-14T12:40:12.898Z</time>
      </trkpt>
      <trkpt lat="66.2223" lon="13.08357">
        <ele>44.258107</ele>
        <time>2020-08-14T12:40:15.876Z</time>
      </trkpt>
      <trkpt lat="66.22239" lon="13.08383">
        <ele>44.431946</ele>
        <time>2020-08-14T12:40:18.875Z</time>
      </trkpt>
      <trkpt lat="66.22247" lon="13.08406">
        <ele>44.598026</ele>
        <time>2020-08-14T12:40:21.885Z</time>
      </trkpt>
      <trkpt lat="66.22256" lon="13.08429">
        <ele>44.762267</ele>
        <time>2020-08-14T12:40:24.864Z</time>
      </trkpt>
      <trkpt lat="66.22264" lon="13.08452">
        <ele>44.926954</ele>
        <time>2020-08-14T12:40:27.889Z</time>
      </trkpt>
      <trkpt lat="66.22274" lon="13.08476">
        <ele>45.099249</ele>
        <time>2020-08-14T12:40:30.894Z</time>
      </trkpt>
      <trkpt lat="66.2228" lon="13.08492">
        <ele>45.215171</ele>
        <time>2020-08-14T12:40:32.888Z</time>
      </trkpt>
      <trkpt lat="66.22286" lon="13.08509">
        <ele>45.334695</ele>
        <time>2020-08-14T12:40:34.869Z</time>
      </trkpt>
      <trkpt lat="66.22293" lon="13.08526">
        <ele>45.457219</ele>
        <time>2020-08-14T12:40:36.884Z</time>
      </trkpt>
      <trkpt lat="66.22299" lon="13.08543">
        <ele>45.585077</ele>
        <time>2020-08-14T12:40:38.880Z</time>
      </trkpt>
      <trkpt lat="66.22306" lon="13.08562">
        <ele>45.716873</ele>
        <time>2020-08-14T12:40:40.869Z</time>
      </trkpt>
      <trkpt lat="66.22313" lon="13.0858">
        <ele>45.844222</ele>
        <time>2020-08-14T12:40:42.905Z</time>
      </trkpt>
      <trkpt lat="66.2232" lon="13.08597">
        <ele>45.972079</ele>
        <time>2020-08-14T12:40:44.874Z</time>
      </trkpt>
      <trkpt lat="66.22327" lon="13.08616">
        <ele>46.104759</ele>
        <time>2020-08-14T12:40:46.907Z</time>
      </trkpt>
      <trkpt lat="66.22334" lon="13.08634">
        <ele>46.267309</ele>
        <time>2020-08-14T12:40:48.860Z</time>
      </trkpt>
      <trkpt lat="66.22341" lon="13.08652">
        <ele>46.457453</ele>
        <time>2020-08-14T12:40:50.891Z</time>
      </trkpt>
      <trkpt lat="66.22347" lon="13.0867">
        <ele>46.640201</ele>
        <time>2020-08-14T12:40:52.896Z</time>
      </trkpt>
      <trkpt lat="66.22353" lon="13.08687">
        <ele>46.816663</ele>
        <time>2020-08-14T12:40:54.869Z</time>
      </trkpt>
      <trkpt lat="66.22362" lon="13.08711">
        <ele>47.067539</ele>
        <time>2020-08-14T12:40:57.886Z</time>
      </trkpt>
      <trkpt lat="66.22371" lon="13.08735">
        <ele>47.313419</ele>
        <time>2020-08-14T12:41:00.874Z</time>
      </trkpt>
      <trkpt lat="66.2238" lon="13.08759">
        <ele>47.553824</ele>
        <time>2020-08-14T12:41:03.865Z</time>
      </trkpt>
      <trkpt lat="66.22388" lon="13.08781">
        <ele>47.779522</ele>
        <time>2020-08-14T12:41:06.871Z</time>
      </trkpt>
      <trkpt lat="66.22396" lon="13.08803">
        <ele>48.009154</ele>
        <time>2020-08-14T12:41:09.866Z</time>
      </trkpt>
      <trkpt lat="66.22404" lon="13.08825">
        <ele>48.231323</ele>
        <time>2020-08-14T12:41:12.870Z</time>
      </trkpt>
      <trkpt lat="66.22411" lon="13.08846">
        <ele>48.445096</ele>
        <time>2020-08-14T12:41:15.868Z</time>
      </trkpt>
      <trkpt lat="66.22418" lon="13.08867">
        <ele>48.651341</ele>
        <time>2020-08-14T12:41:18.878Z</time>
      </trkpt>
      <trkpt lat="66.22426" lon="13.08886">
        <ele>48.851988</ele>
        <time>2020-08-14T12:41:21.867Z</time>
      </trkpt>
      <trkpt lat="66.22433" lon="13.08905">
        <ele>49.051346</ele>
        <time>2020-08-14T12:41:24.868Z</time>
      </trkpt>
      <trkpt lat="66.2244" lon="13.08924">
        <ele>49.247463</ele>
        <time>2020-08-14T12:41:27.892Z</time>
      </trkpt>
      <trkpt lat="66.22447" lon="13.08942">
        <ele>49.433562</ele>
        <time>2020-08-14T12:41:30.872Z</time>
      </trkpt>
      <trkpt lat="66.22453" lon="13.08961">
        <ele>49.726964</ele>
        <time>2020-08-14T12:41:33.919Z</time>
      </trkpt>
      <trkpt lat="66.2246" lon="13.08979">
        <ele>50.229435</ele>
        <time>2020-08-14T12:41:36.875Z</time>
      </trkpt>
      <trkpt lat="66.22467" lon="13.08998">
        <ele>50.743883</ele>
        <time>2020-08-14T12:41:39.897Z</time>
      </trkpt>
      <trkpt lat="66.22474" lon="13.09017">
        <ele>51.258926</ele>
        <time>2020-08-14T12:41:42.882Z</time>
      </trkpt>
      <trkpt lat="66.22481" lon="13.09036">
        <ele>51.764736</ele>
        <time>2020-08-14T12:41:45.881Z</time>
      </trkpt>
      <trkpt lat="66.22488" lon="13.09055">
        <ele>52.28823</ele>
        <time>2020-08-14T12:41:48.893Z</time>
      </trkpt>
      <trkpt lat="66.22495" lon="13.09073">
        <ele>52.786282</ele>
        <time>2020-08-14T12:41:51.879Z</time>
      </trkpt>
      <trkpt lat="66.22502" lon="13.09092">
        <ele>53.308535</ele>
        <time>2020-08-14T12:41:54.872Z</time>
      </trkpt>
      <trkpt lat="66.22509" lon="13.0911">
        <ele>53.806223</ele>
        <time>2020-08-14T12:41:57.869Z</time>
      </trkpt>
      <trkpt lat="66.22516" lon="13.09127">
        <ele>54.27227</ele>
        <time>2020-08-14T12:42:00.905Z</time>
      </trkpt>
      <trkpt lat="66.22522" lon="13.09145">
        <ele>54.753339</ele>
        <time>2020-08-14T12:42:03.867Z</time>
      </trkpt>
      <trkpt lat="66.22528" lon="13.09162">
        <ele>55.204158</ele>
        <time>2020-08-14T12:42:06.876Z</time>
      </trkpt>
      <trkpt lat="66.22535" lon="13.09182">
        <ele>55.739162</ele>
        <time>2020-08-14T12:42:10.899Z</time>
      </trkpt>
      <trkpt lat="66.22545" lon="13.09201">
        <ele>56.333043</ele>
        <time>2020-08-14T12:42:14.896Z</time>
      </trkpt>
      <trkpt lat="66.22553" lon="13.09216">
        <ele>56.827871</ele>
        <time>2020-08-14T12:42:17.892Z</time>
      </trkpt>
      <trkpt lat="66.22561" lon="13.09232">
        <ele>57.348125</ele>
        <time>2020-08-14T12:42:20.887Z</time>
      </trkpt>
      <trkpt lat="66.22568" lon="13.09245">
        <ele>57.793622</ele>
        <time>2020-08-14T12:42:23.871Z</time>
      </trkpt>
      <trkpt lat="66.22575" lon="13.09259">
        <ele>58.245176</ele>
        <time>2020-08-14T12:42:26.868Z</time>
      </trkpt>
      <trkpt lat="66.22585" lon="13.09275">
        <ele>58.561436</ele>
        <time>2020-08-14T12:42:30.868Z</time>
      </trkpt>
      <trkpt lat="66.22594" lon="13.09293">
        <ele>58.742374</ele>
        <time>2020-08-14T12:42:34.867Z</time>
      </trkpt>
      <trkpt lat="66.22603" lon="13.09311">
        <ele>58.919493</ele>
        <time>2020-08-14T12:42:38.896Z</time>
      </trkpt>
      <trkpt lat="66.2261" lon="13.09325">
        <ele>59.06054</ele>
        <time>2020-08-14T12:42:41.879Z</time>
      </trkpt>
      <trkpt lat="66.22617" lon="13.09341">
        <ele>59.201327</ele>
        <time>2020-08-14T12:42:44.891Z</time>
      </trkpt>
      <trkpt lat="66.22624" lon="13.09357">
        <ele>59.351887</ele>
        <time>2020-08-14T12:42:47.895Z</time>
      </trkpt>
      <trkpt lat="66.22632" lon="13.09373">
        <ele>59.506188</ele>
        <time>2020-08-14T12:42:50.869Z</time>
      </trkpt>
      <trkpt lat="66.22641" lon="13.09388">
        <ele>59.663261</ele>
        <time>2020-08-14T12:42:53.884Z</time>
      </trkpt>
      <trkpt lat="66.22649" lon="13.09403">
        <ele>59.817361</ele>
        <time>2020-08-14T12:42:56.869Z</time>
      </trkpt>
      <trkpt lat="66.22657" lon="13.09416">
        <ele>59.963957</ele>
        <time>2020-08-14T12:42:59.893Z</time>
      </trkpt>
      <trkpt lat="66.22665" lon="13.09429">
        <ele>60.111658</ele>
        <time>2020-08-14T12:43:02.873Z</time>
      </trkpt>
      <trkpt lat="66.22674" lon="13.09445">
        <ele>60.279596</ele>
        <time>2020-08-14T12:43:05.887Z</time>
      </trkpt>
      <trkpt lat="66.22683" lon="13.09459">
        <ele>60.443819</ele>
        <time>2020-08-14T12:43:08.871Z</time>
      </trkpt>
      <trkpt lat="66.22692" lon="13.09474">
        <ele>60.604091</ele>
        <time>2020-08-14T12:43:11.939Z</time>
      </trkpt>
      <trkpt lat="66.227" lon="13.09489">
        <ele>60.757967</ele>
        <time>2020-08-14T12:43:14.888Z</time>
      </trkpt>
      <trkpt lat="66.22708" lon="13.09503">
        <ele>60.916733</ele>
        <time>2020-08-14T12:43:17.884Z</time>
      </trkpt>
      <trkpt lat="66.22717" lon="13.09516">
        <ele>61.077391</ele>
        <time>2020-08-14T12:43:20.876Z</time>
      </trkpt>
      <trkpt lat="66.22726" lon="13.0953">
        <ele>61.165364</ele>
        <time>2020-08-14T12:43:23.880Z</time>
      </trkpt>
      <trkpt lat="66.22734" lon="13.09544">
        <ele>61.021058</ele>
        <time>2020-08-14T12:43:26.875Z</time>
      </trkpt>
      <trkpt lat="66.22743" lon="13.09556">
        <ele>60.881439</ele>
        <time>2020-08-14T12:43:29.868Z</time>
      </trkpt>
      <trkpt lat="66.22751" lon="13.09569">
        <ele>60.739044</ele>
        <time>2020-08-14T12:43:32.880Z</time>
      </trkpt>
      <trkpt lat="66.22759" lon="13.09582">
        <ele>60.595425</ele>
        <time>2020-08-14T12:43:35.872Z</time>
      </trkpt>
      <trkpt lat="66.22767" lon="13.09597">
        <ele>60.455381</ele>
        <time>2020-08-14T12:43:38.912Z</time>
      </trkpt>
      <trkpt lat="66.22775" lon="13.0961">
        <ele>60.314131</ele>
        <time>2020-08-14T12:43:41.898Z</time>
      </trkpt>
      <trkpt lat="66.22784" lon="13.09623">
        <ele>60.171398</ele>
        <time>2020-08-14T12:43:44.909Z</time>
      </trkpt>
      <trkpt lat="66.22792" lon="13.09638">
        <ele>60.025243</ele>
        <time>2020-08-14T12:43:47.883Z</time>
      </trkpt>
      <trkpt lat="66.228" lon="13.09655">
        <ele>59.865298</ele>
        <time>2020-08-14T12:43:50.875Z</time>
      </trkpt>
      <trkpt lat="66.22809" lon="13.09669">
        <ele>59.720344</ele>
        <time>2020-08-14T12:43:53.858Z</time>
      </trkpt>
      <trkpt lat="66.22817" lon="13.09681">
        <ele>59.576945</ele>
        <time>2020-08-14T12:43:56.897Z</time>
      </trkpt>
      <trkpt lat="66.22826" lon="13.09693">
        <ele>59.43469</ele>
        <time>2020-08-14T12:43:59.897Z</time>
      </trkpt>
      <trkpt lat="66.22834" lon="13.09706">
        <ele>59.291382</ele>
        <time>2020-08-14T12:44:02.896Z</time>
      </trkpt>
      <trkpt lat="66.22842" lon="13.09719">
        <ele>59.155039</ele>
        <time>2020-08-14T12:44:05.872Z</time>
      </trkpt>
      <trkpt lat="66.22851" lon="13.09735">
        <ele>58.987843</ele>
        <time>2020-08-14T12:44:09.885Z</time>
      </trkpt>
      <trkpt lat="66.22861" lon="13.0975">
        <ele>58.827301</ele>
        <time>2020-08-14T12:44:13.899Z</time>
      </trkpt>
      <trkpt lat="66.2287" lon="13.09764">
        <ele>58.669232</ele>
        <time>2020-08-14T12:44:17.923Z</time>
      </trkpt>
      <trkpt lat="66.2288" lon="13.09778">
        <ele>59.005075</ele>
        <time>2020-08-14T12:44:21.869Z</time>
      </trkpt>
      <trkpt lat="66.22889" lon="13.09793">
        <ele>59.759443</ele>
        <time>2020-08-14T12:44:25.878Z</time>
      </trkpt>
      <trkpt lat="66.22899" lon="13.09808">
        <ele>60.505447</ele>
        <time>2020-08-14T12:44:29.880Z</time>
      </trkpt>
      <trkpt lat="66.22907" lon="13.09823">
        <ele>61.204003</ele>
        <time>2020-08-14T12:44:33.865Z</time>
      </trkpt>
      <trkpt lat="66.22915" lon="13.09837">
        <ele>61.851878</ele>
        <time>2020-08-14T12:44:37.866Z</time>
      </trkpt>
      <trkpt lat="66.22923" lon="13.09847">
        <ele>62.468776</ele>
        <time>2020-08-14T12:44:41.885Z</time>
      </trkpt>
      <trkpt lat="66.22932" lon="13.09861">
        <ele>63.162152</ele>
        <time>2020-08-14T12:44:45.902Z</time>
      </trkpt>
      <trkpt lat="66.22941" lon="13.09875">
        <ele>63.852337</ele>
        <time>2020-08-14T12:44:49.878Z</time>
      </trkpt>
      <trkpt lat="66.2295" lon="13.09888">
        <ele>64.549974</ele>
        <time>2020-08-14T12:44:53.877Z</time>
      </trkpt>
      <trkpt lat="66.22959" lon="13.099">
        <ele>65.238333</ele>
        <time>2020-08-14T12:44:57.887Z</time>
      </trkpt>
      <trkpt lat="66.22968" lon="13.09913">
        <ele>65.938494</ele>
        <time>2020-08-14T12:45:01.877Z</time>
      </trkpt>
      <trkpt lat="66.22977" lon="13.09926">
        <ele>66.637487</ele>
        <time>2020-08-14T12:45:05.879Z</time>
      </trkpt>
      <trkpt lat="66.22986" lon="13.09942">
        <ele>67.426391</ele>
        <time>2020-08-14T12:45:09.873Z</time>
      </trkpt>
      <trkpt lat="66.22994" lon="13.09956">
        <ele>68.056925</ele>
        <time>2020-08-14T12:45:12.893Z</time>
      </trkpt>
      <trkpt lat="66.23002" lon="13.09969">
        <ele>68.676517</ele>
        <time>2020-08-14T12:45:15.875Z</time>
      </trkpt>
      <trkpt lat="66.23011" lon="13.09984">
        <ele>69.427997</ele>
        <time>2020-08-14T12:45:19.894Z</time>
      </trkpt>
      <trkpt lat="66.23019" lon="13.09996">
        <ele>70.034037</ele>
        <time>2020-08-14T12:45:22.877Z</time>
      </trkpt>
      <trkpt lat="66.23029" lon="13.10011">
        <ele>70.663865</ele>
        <time>2020-08-14T12:45:26.874Z</time>
      </trkpt>
      <trkpt lat="66.23036" lon="13.10024">
        <ele>70.652518</ele>
        <time>2020-08-14T12:45:29.869Z</time>
      </trkpt>
      <trkpt lat="66.23044" lon="13.10037">
        <ele>70.640732</ele>
        <time>2020-08-14T12:45:32.897Z</time>
      </trkpt>
      <trkpt lat="66.23053" lon="13.1005">
        <ele>70.628063</ele>
        <time>2020-08-14T12:45:36.862Z</time>
      </trkpt>
      <trkpt lat="66.2306" lon="13.10064">
        <ele>70.61678</ele>
        <time>2020-08-14T12:45:40.872Z</time>
      </trkpt>
      <trkpt lat="66.23078" lon="13.10091">
        <ele>70.589544</ele>
        <time>2020-08-14T12:48:23.891Z</time>
      </trkpt>
      <trkpt lat="66.23087" lon="13.10105">
        <ele>70.576444</ele>
        <time>2020-08-14T12:48:27.894Z</time>
      </trkpt>
      <trkpt lat="66.23096" lon="13.1012">
        <ele>70.562413</ele>
        <time>2020-08-14T12:48:31.879Z</time>
      </trkpt>
      <trkpt lat="66.23106" lon="13.10135">
        <ele>70.547977</ele>
        <time>2020-08-14T12:48:35.891Z</time>
      </trkpt>
      <trkpt lat="66.23116" lon="13.1015">
        <ele>70.533902</ele>
        <time>2020-08-14T12:48:39.873Z</time>
      </trkpt>
      <trkpt lat="66.23125" lon="13.10166">
        <ele>70.519283</ele>
        <time>2020-08-14T12:48:43.876Z</time>
      </trkpt>
      <trkpt lat="66.23135" lon="13.10185">
        <ele>70.504029</ele>
        <time>2020-08-14T12:48:47.889Z</time>
      </trkpt>
      <trkpt lat="66.23143" lon="13.10202">
        <ele>70.490875</ele>
        <time>2020-08-14T12:48:50.871Z</time>
      </trkpt>
      <trkpt lat="66.2315" lon="13.10218">
        <ele>70.478337</ele>
        <time>2020-08-14T12:48:53.874Z</time>
      </trkpt>
      <trkpt lat="66.23157" lon="13.10234">
        <ele>70.466134</ele>
        <time>2020-08-14T12:48:56.903Z</time>
      </trkpt>
      <trkpt lat="66.23164" lon="13.10251">
        <ele>70.453867</ele>
        <time>2020-08-14T12:48:59.886Z</time>
      </trkpt>
      <trkpt lat="66.23171" lon="13.10268">
        <ele>70.441384</ele>
        <time>2020-08-14T12:49:02.873Z</time>
      </trkpt>
      <trkpt lat="66.23178" lon="13.10284">
        <ele>70.561641</ele>
        <time>2020-08-14T12:49:05.883Z</time>
      </trkpt>
      <trkpt lat="66.23185" lon="13.10301">
        <ele>70.701808</ele>
        <time>2020-08-14T12:49:08.894Z</time>
      </trkpt>
      <trkpt lat="66.23192" lon="13.1032">
        <ele>70.849626</ele>
        <time>2020-08-14T12:49:11.888Z</time>
      </trkpt>
      <trkpt lat="66.232" lon="13.10338">
        <ele>70.997573</ele>
        <time>2020-08-14T12:49:14.904Z</time>
      </trkpt>
      <trkpt lat="66.23208" lon="13.10358">
        <ele>71.15589</ele>
        <time>2020-08-14T12:49:17.892Z</time>
      </trkpt>
      <trkpt lat="66.23214" lon="13.10376">
        <ele>71.297497</ele>
        <time>2020-08-14T12:49:20.869Z</time>
      </trkpt>
      <trkpt lat="66.23222" lon="13.10396">
        <ele>71.448494</ele>
        <time>2020-08-14T12:49:23.891Z</time>
      </trkpt>
      <trkpt lat="66.2323" lon="13.10414">
        <ele>71.60546</ele>
        <time>2020-08-14T12:49:26.887Z</time>
      </trkpt>
      <trkpt lat="66.23239" lon="13.10432">
        <ele>71.763796</ele>
        <time>2020-08-14T12:49:29.883Z</time>
      </trkpt>
      <trkpt lat="66.23248" lon="13.10452">
        <ele>71.931927</ele>
        <time>2020-08-14T12:49:32.881Z</time>
      </trkpt>
      <trkpt lat="66.23257" lon="13.10472">
        <ele>72.110918</ele>
        <time>2020-08-14T12:49:35.889Z</time>
      </trkpt>
      <trkpt lat="66.23268" lon="13.10491">
        <ele>72.292717</ele>
        <time>2020-08-14T12:49:38.907Z</time>
      </trkpt>
      <trkpt lat="66.23278" lon="13.10509">
        <ele>72.473861</ele>
        <time>2020-08-14T12:49:41.876Z</time>
      </trkpt>
      <trkpt lat="66.23289" lon="13.10527">
        <ele>72.654491</ele>
        <time>2020-08-14T12:49:44.877Z</time>
      </trkpt>
      <trkpt lat="66.233" lon="13.10546">
        <ele>72.840731</ele>
        <time>2020-08-14T12:49:47.873Z</time>
      </trkpt>
      <trkpt lat="66.23308" lon="13.10559">
        <ele>72.977106</ele>
        <time>2020-08-14T12:49:49.893Z</time>
      </trkpt>
      <trkpt lat="66.23316" lon="13.10573">
        <ele>72.784568</ele>
        <time>2020-08-14T12:49:51.879Z</time>
      </trkpt>
      <trkpt lat="66.23324" lon="13.10586">
        <ele>72.593688</ele>
        <time>2020-08-14T12:49:53.877Z</time>
      </trkpt>
      <trkpt lat="66.23333" lon="13.106">
        <ele>72.403393</ele>
        <time>2020-08-14T12:49:55.878Z</time>
      </trkpt>
      <trkpt lat="66.23341" lon="13.10614">
        <ele>72.202925</ele>
        <time>2020-08-14T12:49:57.896Z</time>
      </trkpt>
      <trkpt lat="66.2335" lon="13.10627">
        <ele>72.003829</ele>
        <time>2020-08-14T12:49:59.875Z</time>
      </trkpt>
      <trkpt lat="66.23359" lon="13.1064">
        <ele>71.805539</ele>
        <time>2020-08-14T12:50:01.874Z</time>
      </trkpt>
      <trkpt lat="66.23368" lon="13.10654">
        <ele>71.598651</ele>
        <time>2020-08-14T12:50:03.914Z</time>
      </trkpt>
      <trkpt lat="66.23377" lon="13.10668">
        <ele>71.396245</ele>
        <time>2020-08-14T12:50:05.900Z</time>
      </trkpt>
      <trkpt lat="66.23386" lon="13.10681">
        <ele>71.189721</ele>
        <time>2020-08-14T12:50:07.903Z</time>
      </trkpt>
      <trkpt lat="66.23395" lon="13.10694">
        <ele>70.98928</ele>
        <time>2020-08-14T12:50:09.870Z</time>
      </trkpt>
      <trkpt lat="66.23405" lon="13.10705">
        <ele>70.784305</ele>
        <time>2020-08-14T12:50:11.861Z</time>
      </trkpt>
      <trkpt lat="66.23414" lon="13.10715">
        <ele>70.580438</ele>
        <time>2020-08-14T12:50:13.885Z</time>
      </trkpt>
      <trkpt lat="66.23424" lon="13.10726">
        <ele>70.371161</ele>
        <time>2020-08-14T12:50:15.877Z</time>
      </trkpt>
      <trkpt lat="66.23434" lon="13.10738">
        <ele>70.156764</ele>
        <time>2020-08-14T12:50:17.890Z</time>
      </trkpt>
      <trkpt lat="66.23445" lon="13.10749">
        <ele>69.938525</ele>
        <time>2020-08-14T12:50:19.894Z</time>
      </trkpt>
      <trkpt lat="66.23455" lon="13.10761">
        <ele>69.723151</ele>
        <time>2020-08-14T12:50:21.903Z</time>
      </trkpt>
      <trkpt lat="66.23465" lon="13.10772">
        <ele>69.511476</ele>
        <time>2020-08-14T12:50:23.880Z</time>
      </trkpt>
      <trkpt lat="66.23475" lon="13.10785">
        <ele>69.256289</ele>
        <time>2020-08-14T12:50:25.914Z</time>
      </trkpt>
      <trkpt lat="66.23484" lon="13.10799">
        <ele>68.995318</ele>
        <time>2020-08-14T12:50:27.874Z</time>
      </trkpt>
      <trkpt lat="66.23494" lon="13.10814">
        <ele>68.723075</ele>
        <time>2020-08-14T12:50:29.872Z</time>
      </trkpt>
      <trkpt lat="66.23504" lon="13.10831">
        <ele>68.438207</ele>
        <time>2020-08-14T12:50:31.876Z</time>
      </trkpt>
      <trkpt lat="66.23514" lon="13.1085">
        <ele>68.146042</ele>
        <time>2020-08-14T12:50:33.872Z</time>
      </trkpt>
      <trkpt lat="66.23524" lon="13.10872">
        <ele>67.835301</ele>
        <time>2020-08-14T12:50:35.877Z</time>
      </trkpt>
      <trkpt lat="66.23534" lon="13.10897">
        <ele>67.506977</ele>
        <time>2020-08-14T12:50:37.913Z</time>
      </trkpt>
      <trkpt lat="66.23543" lon="13.10925">
        <ele>67.172891</ele>
        <time>2020-08-14T12:50:39.893Z</time>
      </trkpt>
      <trkpt lat="66.23551" lon="13.10955">
        <ele>66.831506</ele>
        <time>2020-08-14T12:50:41.884Z</time>
      </trkpt>
      <trkpt lat="66.23558" lon="13.10986">
        <ele>66.497641</ele>
        <time>2020-08-14T12:50:43.898Z</time>
      </trkpt>
      <trkpt lat="66.23565" lon="13.11018">
        <ele>66.153312</ele>
        <time>2020-08-14T12:50:45.897Z</time>
      </trkpt>
      <trkpt lat="66.23572" lon="13.11051">
        <ele>65.807591</ele>
        <time>2020-08-14T12:50:47.926Z</time>
      </trkpt>
      <trkpt lat="66.23579" lon="13.11085">
        <ele>65.448061</ele>
        <time>2020-08-14T12:50:49.877Z</time>
      </trkpt>
      <trkpt lat="66.23586" lon="13.11118">
        <ele>65.06927</ele>
        <time>2020-08-14T12:50:51.918Z</time>
      </trkpt>
      <trkpt lat="66.23593" lon="13.1115">
        <ele>64.671602</ele>
        <time>2020-08-14T12:50:53.881Z</time>
      </trkpt>
      <trkpt lat="66.236" lon="13.11181">
        <ele>64.2888</ele>
        <time>2020-08-14T12:50:55.888Z</time>
      </trkpt>
      <trkpt lat="66.23607" lon="13.11211">
        <ele>63.913442</ele>
        <time>2020-08-14T12:50:57.887Z</time>
      </trkpt>
      <trkpt lat="66.23614" lon="13.11239">
        <ele>63.550149</ele>
        <time>2020-08-14T12:50:59.916Z</time>
      </trkpt>
      <trkpt lat="66.23621" lon="13.11266">
        <ele>63.199015</ele>
        <time>2020-08-14T12:51:01.870Z</time>
      </trkpt>
      <trkpt lat="66.23629" lon="13.11291">
        <ele>62.860364</ele>
        <time>2020-08-14T12:51:03.866Z</time>
      </trkpt>
      <trkpt lat="66.23636" lon="13.11317">
        <ele>62.515214</ele>
        <time>2020-08-14T12:51:05.872Z</time>
      </trkpt>
      <trkpt lat="66.23644" lon="13.11341">
        <ele>62.181238</ele>
        <time>2020-08-14T12:51:07.863Z</time>
      </trkpt>
      <trkpt lat="66.23651" lon="13.11364">
        <ele>61.868247</ele>
        <time>2020-08-14T12:51:09.908Z</time>
      </trkpt>
      <trkpt lat="66.23658" lon="13.11388">
        <ele>61.546074</ele>
        <time>2020-08-14T12:51:11.919Z</time>
      </trkpt>
      <trkpt lat="66.23666" lon="13.11411">
        <ele>61.223213</ele>
        <time>2020-08-14T12:51:13.879Z</time>
      </trkpt>
      <trkpt lat="66.23673" lon="13.11433">
        <ele>60.907925</ele>
        <time>2020-08-14T12:51:15.878Z</time>
      </trkpt>
      <trkpt lat="66.2368" lon="13.11457">
        <ele>60.593329</ele>
        <time>2020-08-14T12:51:17.892Z</time>
      </trkpt>
      <trkpt lat="66.23687" lon="13.1148">
        <ele>60.487016</ele>
        <time>2020-08-14T12:51:19.909Z</time>
      </trkpt>
      <trkpt lat="66.23694" lon="13.11502">
        <ele>60.519036</ele>
        <time>2020-08-14T12:51:21.882Z</time>
      </trkpt>
      <trkpt lat="66.23701" lon="13.11524">
        <ele>60.552322</ele>
        <time>2020-08-14T12:51:23.864Z</time>
      </trkpt>
      <trkpt lat="66.23708" lon="13.11545">
        <ele>60.584976</ele>
        <time>2020-08-14T12:51:25.880Z</time>
      </trkpt>
      <trkpt lat="66.23716" lon="13.11568">
        <ele>60.619088</ele>
        <time>2020-08-14T12:51:27.898Z</time>
      </trkpt>
      <trkpt lat="66.23723" lon="13.1159">
        <ele>60.65311</ele>
        <time>2020-08-14T12:51:29.892Z</time>
      </trkpt>
      <trkpt lat="66.2373" lon="13.11613">
        <ele>60.686852</ele>
        <time>2020-08-14T12:51:31.899Z</time>
      </trkpt>
      <trkpt lat="66.23738" lon="13.11634">
        <ele>60.719961</ele>
        <time>2020-08-14T12:51:33.902Z</time>
      </trkpt>
      <trkpt lat="66.23745" lon="13.11656">
        <ele>60.752891</ele>
        <time>2020-08-14T12:51:35.891Z</time>
      </trkpt>
      <trkpt lat="66.23752" lon="13.11678">
        <ele>60.786092</ele>
        <time>2020-08-14T12:51:37.870Z</time>
      </trkpt>
      <trkpt lat="66.23759" lon="13.11702">
        <ele>60.820681</ele>
        <time>2020-08-14T12:51:39.877Z</time>
      </trkpt>
      <trkpt lat="66.23766" lon="13.11726">
        <ele>60.855806</ele>
        <time>2020-08-14T12:51:41.891Z</time>
      </trkpt>
      <trkpt lat="66.23774" lon="13.11751">
        <ele>60.892746</ele>
        <time>2020-08-14T12:51:43.873Z</time>
      </trkpt>
      <trkpt lat="66.23782" lon="13.11776">
        <ele>60.9298</ele>
        <time>2020-08-14T12:51:45.886Z</time>
      </trkpt>
      <trkpt lat="66.23789" lon="13.11801">
        <ele>60.965828</ele>
        <time>2020-08-14T12:51:47.887Z</time>
      </trkpt>
      <trkpt lat="66.23797" lon="13.11826">
        <ele>60.948138</ele>
        <time>2020-08-14T12:51:49.879Z</time>
      </trkpt>
      <trkpt lat="66.23805" lon="13.11851">
        <ele>60.837025</ele>
        <time>2020-08-14T12:51:51.888Z</time>
      </trkpt>
      <trkpt lat="66.23812" lon="13.11877">
        <ele>60.723944</ele>
        <time>2020-08-14T12:51:53.873Z</time>
      </trkpt>
      <trkpt lat="66.2382" lon="13.11904">
        <ele>60.608131</ele>
        <time>2020-08-14T12:51:55.905Z</time>
      </trkpt>
      <trkpt lat="66.23828" lon="13.11931">
        <ele>60.48982</ele>
        <time>2020-08-14T12:51:57.918Z</time>
      </trkpt>
      <trkpt lat="66.23836" lon="13.11958">
        <ele>60.371066</ele>
        <time>2020-08-14T12:51:59.887Z</time>
      </trkpt>
      <trkpt lat="66.23845" lon="13.11984">
        <ele>60.251233</ele>
        <time>2020-08-14T12:52:01.890Z</time>
      </trkpt>
      <trkpt lat="66.23854" lon="13.1201">
        <ele>60.129762</ele>
        <time>2020-08-14T12:52:03.888Z</time>
      </trkpt>
      <trkpt lat="66.23864" lon="13.12037">
        <ele>60.006194</ele>
        <time>2020-08-14T12:52:05.895Z</time>
      </trkpt>
      <trkpt lat="66.23873" lon="13.12062">
        <ele>59.884262</ele>
        <time>2020-08-14T12:52:07.926Z</time>
      </trkpt>
      <trkpt lat="66.23884" lon="13.12086">
        <ele>59.760496</ele>
        <time>2020-08-14T12:52:09.907Z</time>
      </trkpt>
      <trkpt lat="66.23895" lon="13.1211">
        <ele>59.632164</ele>
        <time>2020-08-14T12:52:11.911Z</time>
      </trkpt>
      <trkpt lat="66.23906" lon="13.12135">
        <ele>59.500116</ele>
        <time>2020-08-14T12:52:13.880Z</time>
      </trkpt>
      <trkpt lat="66.23918" lon="13.12155">
        <ele>59.366828</ele>
        <time>2020-08-14T12:52:15.925Z</time>
      </trkpt>
      <trkpt lat="66.2393" lon="13.12175">
        <ele>59.216822</ele>
        <time>2020-08-14T12:52:17.896Z</time>
      </trkpt>
      <trkpt lat="66.23944" lon="13.12194">
        <ele>59.062732</ele>
        <time>2020-08-14T12:52:19.888Z</time>
      </trkpt>
      <trkpt lat="66.23957" lon="13.12212">
        <ele>58.912707</ele>
        <time>2020-08-14T12:52:21.889Z</time>
      </trkpt>
      <trkpt lat="66.23969" lon="13.12227">
        <ele>58.770172</ele>
        <time>2020-08-14T12:52:23.877Z</time>
      </trkpt>
      <trkpt lat="66.23982" lon="13.12241">
        <ele>58.627611</ele>
        <time>2020-08-14T12:52:25.908Z</time>
      </trkpt>
      <trkpt lat="66.23995" lon="13.12254">
        <ele>58.488168</ele>
        <time>2020-08-14T12:52:27.867Z</time>
      </trkpt>
      <trkpt lat="66.24008" lon="13.12267">
        <ele>58.354461</ele>
        <time>2020-08-14T12:52:29.872Z</time>
      </trkpt>
      <trkpt lat="66.24019" lon="13.1228">
        <ele>58.223352</ele>
        <time>2020-08-14T12:52:31.873Z</time>
      </trkpt>
      <trkpt lat="66.2403" lon="13.12293">
        <ele>58.100298</ele>
        <time>2020-08-14T12:52:33.897Z</time>
      </trkpt>
      <trkpt lat="66.24041" lon="13.12308">
        <ele>57.976634</ele>
        <time>2020-08-14T12:52:35.869Z</time>
      </trkpt>
      <trkpt lat="66.24051" lon="13.12325">
        <ele>57.857965</ele>
        <time>2020-08-14T12:52:37.887Z</time>
      </trkpt>
      <trkpt lat="66.24059" lon="13.12342">
        <ele>57.745964</ele>
        <time>2020-08-14T12:52:39.921Z</time>
      </trkpt>
      <trkpt lat="66.24066" lon="13.1236">
        <ele>57.645188</ele>
        <time>2020-08-14T12:52:41.884Z</time>
      </trkpt>
      <trkpt lat="66.24073" lon="13.12382">
        <ele>57.424597</ele>
        <time>2020-08-14T12:52:43.869Z</time>
      </trkpt>
      <trkpt lat="66.2408" lon="13.12407">
        <ele>57.141314</ele>
        <time>2020-08-14T12:52:45.882Z</time>
      </trkpt>
      <trkpt lat="66.24086" lon="13.12432">
        <ele>56.871468</ele>
        <time>2020-08-14T12:52:47.918Z</time>
      </trkpt>
      <trkpt lat="66.2409" lon="13.12455">
        <ele>56.619767</ele>
        <time>2020-08-14T12:52:49.870Z</time>
      </trkpt>
      <trkpt lat="66.24095" lon="13.1248">
        <ele>56.359633</ele>
        <time>2020-08-14T12:52:51.876Z</time>
      </trkpt>
      <trkpt lat="66.241" lon="13.12507">
        <ele>56.080828</ele>
        <time>2020-08-14T12:52:53.885Z</time>
      </trkpt>
      <trkpt lat="66.24105" lon="13.12535">
        <ele>55.78362</ele>
        <time>2020-08-14T12:52:55.865Z</time>
      </trkpt>
      <trkpt lat="66.24111" lon="13.12564">
        <ele>55.478024</ele>
        <time>2020-08-14T12:52:57.886Z</time>
      </trkpt>
      <trkpt lat="66.24117" lon="13.12592">
        <ele>55.175227</ele>
        <time>2020-08-14T12:52:59.892Z</time>
      </trkpt>
      <trkpt lat="66.24123" lon="13.12621">
        <ele>54.863512</ele>
        <time>2020-08-14T12:53:01.882Z</time>
      </trkpt>
      <trkpt lat="66.24129" lon="13.12649">
        <ele>54.561306</ele>
        <time>2020-08-14T12:53:03.890Z</time>
      </trkpt>
      <trkpt lat="66.24135" lon="13.12676">
        <ele>54.279725</ele>
        <time>2020-08-14T12:53:05.883Z</time>
      </trkpt>
      <trkpt lat="66.2414" lon="13.127">
        <ele>54.018747</ele>
        <time>2020-08-14T12:53:07.930Z</time>
      </trkpt>
      <trkpt lat="66.24145" lon="13.12725">
        <ele>53.743605</ele>
        <time>2020-08-14T12:53:09.880Z</time>
      </trkpt>
      <trkpt lat="66.24151" lon="13.12749">
        <ele>53.48252</ele>
        <time>2020-08-14T12:53:11.888Z</time>
      </trkpt>
      <trkpt lat="66.24156" lon="13.12774">
        <ele>53.438004</ele>
        <time>2020-08-14T12:53:13.885Z</time>
      </trkpt>
      <trkpt lat="66.2416" lon="13.12798">
        <ele>53.560434</ele>
        <time>2020-08-14T12:53:15.896Z</time>
      </trkpt>
      <trkpt lat="66.24164" lon="13.12822">
        <ele>53.679673</ele>
        <time>2020-08-14T12:53:17.871Z</time>
      </trkpt>
      <trkpt lat="66.24167" lon="13.12844">
        <ele>53.791282</ele>
        <time>2020-08-14T12:53:19.879Z</time>
      </trkpt>
      <trkpt lat="66.2417" lon="13.12866">
        <ele>53.899508</ele>
        <time>2020-08-14T12:53:21.882Z</time>
      </trkpt>
      <trkpt lat="66.24175" lon="13.12897">
        <ele>54.051989</ele>
        <time>2020-08-14T12:53:24.872Z</time>
      </trkpt>
      <trkpt lat="66.24179" lon="13.12928">
        <ele>54.202167</ele>
        <time>2020-08-14T12:53:27.897Z</time>
      </trkpt>
      <trkpt lat="66.24182" lon="13.1295">
        <ele>54.310672</ele>
        <time>2020-08-14T12:53:29.885Z</time>
      </trkpt>
      <trkpt lat="66.24185" lon="13.12973">
        <ele>54.41986</ele>
        <time>2020-08-14T12:53:31.883Z</time>
      </trkpt>
      <trkpt lat="66.24188" lon="13.12996">
        <ele>54.533377</ele>
        <time>2020-08-14T12:53:33.933Z</time>
      </trkpt>
      <trkpt lat="66.24191" lon="13.1302">
        <ele>54.653064</ele>
        <time>2020-08-14T12:53:35.877Z</time>
      </trkpt>
      <trkpt lat="66.24195" lon="13.13045">
        <ele>54.775314</ele>
        <time>2020-08-14T12:53:37.896Z</time>
      </trkpt>
      <trkpt lat="66.24199" lon="13.13068">
        <ele>54.89456</ele>
        <time>2020-08-14T12:53:39.871Z</time>
      </trkpt>
      <trkpt lat="66.24203" lon="13.13093">
        <ele>55.018203</ele>
        <time>2020-08-14T12:53:41.875Z</time>
      </trkpt>
      <trkpt lat="66.24206" lon="13.13119">
        <ele>55.144473</ele>
        <time>2020-08-14T12:53:43.878Z</time>
      </trkpt>
      <trkpt lat="66.2421" lon="13.13146">
        <ele>55.275836</ele>
        <time>2020-08-14T12:53:45.876Z</time>
      </trkpt>
      <trkpt lat="66.24214" lon="13.13172">
        <ele>55.405891</ele>
        <time>2020-08-14T12:53:47.889Z</time>
      </trkpt>
      <trkpt lat="66.24218" lon="13.13198">
        <ele>55.282036</ele>
        <time>2020-08-14T12:53:49.897Z</time>
      </trkpt>
      <trkpt lat="66.24222" lon="13.13224">
        <ele>55.066015</ele>
        <time>2020-08-14T12:53:51.868Z</time>
      </trkpt>
      <trkpt lat="66.24226" lon="13.13251">
        <ele>54.841255</ele>
        <time>2020-08-14T12:53:53.876Z</time>
      </trkpt>
      <trkpt lat="66.2423" lon="13.13278">
        <ele>54.611502</ele>
        <time>2020-08-14T12:53:55.881Z</time>
      </trkpt>
      <trkpt lat="66.24234" lon="13.13306">
        <ele>54.37747</ele>
        <time>2020-08-14T12:53:57.874Z</time>
      </trkpt>
      <trkpt lat="66.24241" lon="13.13334">
        <ele>54.127925</ele>
        <time>2020-08-14T12:53:59.891Z</time>
      </trkpt>
      <trkpt lat="66.24248" lon="13.13362">
        <ele>53.865726</ele>
        <time>2020-08-14T12:54:01.901Z</time>
      </trkpt>
      <trkpt lat="66.24257" lon="13.1339">
        <ele>53.581694</ele>
        <time>2020-08-14T12:54:03.872Z</time>
      </trkpt>
      <trkpt lat="66.24269" lon="13.13417">
        <ele>53.272518</ele>
        <time>2020-08-14T12:54:05.897Z</time>
      </trkpt>
      <trkpt lat="66.24282" lon="13.13443">
        <ele>52.943828</ele>
        <time>2020-08-14T12:54:07.876Z</time>
      </trkpt>
      <trkpt lat="66.2429" lon="13.13457">
        <ele>52.768425</ele>
        <time>2020-08-14T12:54:08.916Z</time>
      </trkpt>
      <trkpt lat="66.24297" lon="13.13471">
        <ele>52.583161</ele>
        <time>2020-08-14T12:54:09.917Z</time>
      </trkpt>
      <trkpt lat="66.24305" lon="13.13487">
        <ele>52.389456</ele>
        <time>2020-08-14T12:54:10.890Z</time>
      </trkpt>
      <trkpt lat="66.24313" lon="13.13502">
        <ele>52.194235</ele>
        <time>2020-08-14T12:54:11.944Z</time>
      </trkpt>
      <trkpt lat="66.24321" lon="13.13519">
        <ele>51.990083</ele>
        <time>2020-08-14T12:54:12.896Z</time>
      </trkpt>
      <trkpt lat="66.24329" lon="13.13535">
        <ele>51.678316</ele>
        <time>2020-08-14T12:54:13.873Z</time>
      </trkpt>
      <trkpt lat="66.24337" lon="13.13552">
        <ele>51.34677</ele>
        <time>2020-08-14T12:54:14.904Z</time>
      </trkpt>
      <trkpt lat="66.24346" lon="13.13568">
        <ele>51.018384</ele>
        <time>2020-08-14T12:54:15.920Z</time>
      </trkpt>
      <trkpt lat="66.24354" lon="13.13583">
        <ele>50.69388</ele>
        <time>2020-08-14T12:54:16.913Z</time>
      </trkpt>
      <trkpt lat="66.24362" lon="13.13599">
        <ele>50.371099</ele>
        <time>2020-08-14T12:54:17.889Z</time>
      </trkpt>
      <trkpt lat="66.2437" lon="13.13614">
        <ele>50.050636</ele>
        <time>2020-08-14T12:54:18.879Z</time>
      </trkpt>
      <trkpt lat="66.24378" lon="13.13629">
        <ele>49.739023</ele>
        <time>2020-08-14T12:54:19.866Z</time>
      </trkpt>
      <trkpt lat="66.24385" lon="13.13644">
        <ele>49.44141</ele>
        <time>2020-08-14T12:54:20.899Z</time>
      </trkpt>
      <trkpt lat="66.24392" lon="13.13659">
        <ele>49.148691</ele>
        <time>2020-08-14T12:54:21.899Z</time>
      </trkpt>
      <trkpt lat="66.24399" lon="13.13674">
        <ele>48.866097</ele>
        <time>2020-08-14T12:54:22.879Z</time>
      </trkpt>
      <trkpt lat="66.24412" lon="13.13704">
        <ele>48.313362</ele>
        <time>2020-08-14T12:54:24.897Z</time>
      </trkpt>
      <trkpt lat="66.24423" lon="13.13734">
        <ele>47.790289</ele>
        <time>2020-08-14T12:54:26.869Z</time>
      </trkpt>
      <trkpt lat="66.24433" lon="13.13764">
        <ele>47.297214</ele>
        <time>2020-08-14T12:54:28.885Z</time>
      </trkpt>
      <trkpt lat="66.24443" lon="13.13792">
        <ele>46.832909</ele>
        <time>2020-08-14T12:54:30.900Z</time>
      </trkpt>
      <trkpt lat="66.24452" lon="13.13818">
        <ele>46.399088</ele>
        <time>2020-08-14T12:54:32.866Z</time>
      </trkpt>
      <trkpt lat="66.24461" lon="13.13842">
        <ele>46.012765</ele>
        <time>2020-08-14T12:54:34.879Z</time>
      </trkpt>
      <trkpt lat="66.2447" lon="13.13867">
        <ele>45.62795</ele>
        <time>2020-08-14T12:54:36.908Z</time>
      </trkpt>
      <trkpt lat="66.2448" lon="13.13892">
        <ele>45.247471</ele>
        <time>2020-08-14T12:54:38.900Z</time>
      </trkpt>
      <trkpt lat="66.24489" lon="13.13917">
        <ele>44.865072</ele>
        <time>2020-08-14T12:54:40.888Z</time>
      </trkpt>
      <trkpt lat="66.24498" lon="13.1394">
        <ele>44.505136</ele>
        <time>2020-08-14T12:54:42.872Z</time>
      </trkpt>
      <trkpt lat="66.24508" lon="13.13962">
        <ele>44.145053</ele>
        <time>2020-08-14T12:54:44.882Z</time>
      </trkpt>
      <trkpt lat="66.24518" lon="13.13984">
        <ele>43.77711</ele>
        <time>2020-08-14T12:54:46.912Z</time>
      </trkpt>
      <trkpt lat="66.24528" lon="13.14006">
        <ele>43.411183</ele>
        <time>2020-08-14T12:54:48.885Z</time>
      </trkpt>
      <trkpt lat="66.24538" lon="13.14026">
        <ele>43.048888</ele>
        <time>2020-08-14T12:54:50.870Z</time>
      </trkpt>
      <trkpt lat="66.24547" lon="13.14046">
        <ele>42.698692</ele>
        <time>2020-08-14T12:54:52.914Z</time>
      </trkpt>
      <trkpt lat="66.24557" lon="13.14066">
        <ele>42.349894</ele>
        <time>2020-08-14T12:54:54.909Z</time>
      </trkpt>
      <trkpt lat="66.24567" lon="13.14087">
        <ele>41.994707</ele>
        <time>2020-08-14T12:54:56.876Z</time>
      </trkpt>
      <trkpt lat="66.24577" lon="13.14108">
        <ele>41.63504</ele>
        <time>2020-08-14T12:54:58.872Z</time>
      </trkpt>
      <trkpt lat="66.24587" lon="13.14128">
        <ele>41.310889</ele>
        <time>2020-08-14T12:55:00.863Z</time>
      </trkpt>
      <trkpt lat="66.24596" lon="13.14147">
        <ele>41.410984</ele>
        <time>2020-08-14T12:55:02.871Z</time>
      </trkpt>
      <trkpt lat="66.24605" lon="13.14167">
        <ele>41.510467</ele>
        <time>2020-08-14T12:55:04.872Z</time>
      </trkpt>
      <trkpt lat="66.24615" lon="13.14185">
        <ele>41.605738</ele>
        <time>2020-08-14T12:55:06.871Z</time>
      </trkpt>
      <trkpt lat="66.24624" lon="13.14204">
        <ele>41.704984</ele>
        <time>2020-08-14T12:55:08.868Z</time>
      </trkpt>
      <trkpt lat="66.24633" lon="13.14224">
        <ele>41.80423</ele>
        <time>2020-08-14T12:55:10.892Z</time>
      </trkpt>
      <trkpt lat="66.24641" lon="13.14244">
        <ele>41.898303</ele>
        <time>2020-08-14T12:55:12.873Z</time>
      </trkpt>
      <trkpt lat="66.2465" lon="13.14262">
        <ele>41.990462</ele>
        <time>2020-08-14T12:55:14.885Z</time>
      </trkpt>
      <trkpt lat="66.24658" lon="13.1428">
        <ele>42.078622</ele>
        <time>2020-08-14T12:55:16.864Z</time>
      </trkpt>
      <trkpt lat="66.24666" lon="13.14295">
        <ele>42.159706</ele>
        <time>2020-08-14T12:55:18.867Z</time>
      </trkpt>
      <trkpt lat="66.24674" lon="13.14312">
        <ele>42.245773</ele>
        <time>2020-08-14T12:55:20.912Z</time>
      </trkpt>
      <trkpt lat="66.24682" lon="13.14329">
        <ele>42.332269</ele>
        <time>2020-08-14T12:55:22.904Z</time>
      </trkpt>
      <trkpt lat="66.2469" lon="13.14346">
        <ele>42.415232</ele>
        <time>2020-08-14T12:55:24.874Z</time>
      </trkpt>
      <trkpt lat="66.24697" lon="13.14363">
        <ele>42.496932</ele>
        <time>2020-08-14T12:55:26.910Z</time>
      </trkpt>
      <trkpt lat="66.24704" lon="13.14379">
        <ele>42.575853</ele>
        <time>2020-08-14T12:55:28.884Z</time>
      </trkpt>
      <trkpt lat="66.24711" lon="13.14396">
        <ele>42.653723</ele>
        <time>2020-08-14T12:55:30.895Z</time>
      </trkpt>
      <trkpt lat="66.24717" lon="13.14413">
        <ele>42.730459</ele>
        <time>2020-08-14T12:55:32.900Z</time>
      </trkpt>
      <trkpt lat="66.24724" lon="13.1443">
        <ele>42.808185</ele>
        <time>2020-08-14T12:55:34.881Z</time>
      </trkpt>
      <trkpt lat="66.2473" lon="13.14446">
        <ele>42.88477</ele>
        <time>2020-08-14T12:55:36.903Z</time>
      </trkpt>
      <trkpt lat="66.24739" lon="13.14471">
        <ele>42.997195</ele>
        <time>2020-08-14T12:55:39.888Z</time>
      </trkpt>
      <trkpt lat="66.24747" lon="13.14494">
        <ele>43.10473</ele>
        <time>2020-08-14T12:55:42.909Z</time>
      </trkpt>
      <trkpt lat="66.24755" lon="13.14518">
        <ele>43.213035</ele>
        <time>2020-08-14T12:55:45.880Z</time>
      </trkpt>
      <trkpt lat="66.24763" lon="13.14542">
        <ele>43.318854</ele>
        <time>2020-08-14T12:55:48.872Z</time>
      </trkpt>
      <trkpt lat="66.24771" lon="13.14565">
        <ele>43.420958</ele>
        <time>2020-08-14T12:55:51.874Z</time>
      </trkpt>
      <trkpt lat="66.24778" lon="13.14586">
        <ele>43.516905</ele>
        <time>2020-08-14T12:55:54.884Z</time>
      </trkpt>
      <trkpt lat="66.24785" lon="13.14608">
        <ele>43.613638</ele>
        <time>2020-08-14T12:55:57.873Z</time>
      </trkpt>
      <trkpt lat="66.24793" lon="13.1463">
        <ele>43.71142</ele>
        <time>2020-08-14T12:56:00.899Z</time>
      </trkpt>
      <trkpt lat="66.24798" lon="13.14655">
        <ele>43.81129</ele>
        <time>2020-08-14T12:56:03.871Z</time>
      </trkpt>
      <trkpt lat="66.24805" lon="13.14681">
        <ele>43.913182</ele>
        <time>2020-08-14T12:56:06.916Z</time>
      </trkpt>
      <trkpt lat="66.24811" lon="13.14704">
        <ele>44.012798</ele>
        <time>2020-08-14T12:56:09.887Z</time>
      </trkpt>
      <trkpt lat="66.24818" lon="13.14729">
        <ele>44.114391</ele>
        <time>2020-08-14T12:56:12.868Z</time>
      </trkpt>
      <trkpt lat="66.24825" lon="13.14755">
        <ele>44.221495</ele>
        <time>2020-08-14T12:56:15.898Z</time>
      </trkpt>
      <trkpt lat="66.24832" lon="13.14782">
        <ele>44.360385</ele>
        <time>2020-08-14T12:56:18.873Z</time>
      </trkpt>
      <trkpt lat="66.24839" lon="13.14809">
        <ele>44.578662</ele>
        <time>2020-08-14T12:56:21.875Z</time>
      </trkpt>
      <trkpt lat="66.24845" lon="13.14835">
        <ele>44.785849</ele>
        <time>2020-08-14T12:56:24.885Z</time>
      </trkpt>
      <trkpt lat="66.24852" lon="13.14861">
        <ele>44.989857</ele>
        <time>2020-08-14T12:56:27.902Z</time>
      </trkpt>
      <trkpt lat="66.24858" lon="13.14887">
        <ele>45.19418</ele>
        <time>2020-08-14T12:56:30.883Z</time>
      </trkpt>
      <trkpt lat="66.24865" lon="13.14913">
        <ele>45.401681</ele>
        <time>2020-08-14T12:56:33.887Z</time>
      </trkpt>
      <trkpt lat="66.24872" lon="13.14938">
        <ele>45.610165</ele>
        <time>2020-08-14T12:56:36.907Z</time>
      </trkpt>
      <trkpt lat="66.24879" lon="13.14962">
        <ele>45.809549</ele>
        <time>2020-08-14T12:56:39.875Z</time>
      </trkpt>
      <trkpt lat="66.24885" lon="13.14986">
        <ele>46.000841</ele>
        <time>2020-08-14T12:56:42.880Z</time>
      </trkpt>
      <trkpt lat="66.24891" lon="13.1501">
        <ele>46.194824</ele>
        <time>2020-08-14T12:56:45.887Z</time>
      </trkpt>
      <trkpt lat="66.24897" lon="13.15033">
        <ele>46.380973</ele>
        <time>2020-08-14T12:56:48.904Z</time>
      </trkpt>
      <trkpt lat="66.24903" lon="13.15056">
        <ele>46.55839</ele>
        <time>2020-08-14T12:56:51.897Z</time>
      </trkpt>
      <trkpt lat="66.24908" lon="13.15077">
        <ele>46.724568</ele>
        <time>2020-08-14T12:56:54.888Z</time>
      </trkpt>
      <trkpt lat="66.24913" lon="13.15097">
        <ele>46.884724</ele>
        <time>2020-08-14T12:56:57.900Z</time>
      </trkpt>
      <trkpt lat="66.24919" lon="13.15117">
        <ele>47.050848</ele>
        <time>2020-08-14T12:57:00.887Z</time>
      </trkpt>
      <trkpt lat="66.24925" lon="13.15142">
        <ele>47.246202</ele>
        <time>2020-08-14T12:57:04.897Z</time>
      </trkpt>
      <trkpt lat="66.2493" lon="13.15165">
        <ele>47.641114</ele>
        <time>2020-08-14T12:57:08.877Z</time>
      </trkpt>
      <trkpt lat="66.24936" lon="13.1519">
        <ele>48.220926</ele>
        <time>2020-08-14T12:57:12.908Z</time>
      </trkpt>
      <trkpt lat="66.2494" lon="13.15209">
        <ele>48.680455</ele>
        <time>2020-08-14T12:57:15.888Z</time>
      </trkpt>
      <trkpt lat="66.24945" lon="13.15228">
        <ele>49.13072</ele>
        <time>2020-08-14T12:57:18.892Z</time>
      </trkpt>
      <trkpt lat="66.2495" lon="13.15247">
        <ele>49.583344</ele>
        <time>2020-08-14T12:57:21.878Z</time>
      </trkpt>
      <trkpt lat="66.24955" lon="13.15269">
        <ele>50.094704</ele>
        <time>2020-08-14T12:57:25.888Z</time>
      </trkpt>
      <trkpt lat="66.2496" lon="13.15291">
        <ele>50.587314</ele>
        <time>2020-08-14T12:57:29.882Z</time>
      </trkpt>
      <trkpt lat="66.24965" lon="13.15311">
        <ele>51.079699</ele>
        <time>2020-08-14T12:57:33.912Z</time>
      </trkpt>
      <trkpt lat="66.2497" lon="13.15333">
        <ele>51.581138</ele>
        <time>2020-08-14T12:57:37.888Z</time>
      </trkpt>
      <trkpt lat="66.24975" lon="13.15353">
        <ele>52.06433</ele>
        <time>2020-08-14T12:57:41.892Z</time>
      </trkpt>
      <trkpt lat="66.24981" lon="13.15374">
        <ele>52.561467</ele>
        <time>2020-08-14T12:57:45.908Z</time>
      </trkpt>
      <trkpt lat="66.24987" lon="13.15394">
        <ele>53.069991</ele>
        <time>2020-08-14T12:57:49.885Z</time>
      </trkpt>
      <trkpt lat="66.24992" lon="13.15416">
        <ele>53.589488</ele>
        <time>2020-08-14T12:57:53.937Z</time>
      </trkpt>
      <trkpt lat="66.24999" lon="13.15435">
        <ele>54.092495</ele>
        <time>2020-08-14T12:57:57.868Z</time>
      </trkpt>
      <trkpt lat="66.25006" lon="13.15458">
        <ele>54.673229</ele>
        <time>2020-08-14T12:58:01.917Z</time>
      </trkpt>
      <trkpt lat="66.25013" lon="13.1548">
        <ele>55.259733</ele>
        <time>2020-08-14T12:58:05.880Z</time>
      </trkpt>
      <trkpt lat="66.2502" lon="13.15496">
        <ele>55.718397</ele>
        <time>2020-08-14T12:58:08.899Z</time>
      </trkpt>
      <trkpt lat="66.25027" lon="13.15512">
        <ele>56.219024</ele>
        <time>2020-08-14T12:58:11.880Z</time>
      </trkpt>
      <trkpt lat="66.25036" lon="13.1553">
        <ele>56.250937</ele>
        <time>2020-08-14T12:58:14.891Z</time>
      </trkpt>
      <trkpt lat="66.25044" lon="13.15549">
        <ele>56.144874</ele>
        <time>2020-08-14T12:58:17.944Z</time>
      </trkpt>
      <trkpt lat="66.25053" lon="13.15569">
        <ele>56.031403</ele>
        <time>2020-08-14T12:58:20.875Z</time>
      </trkpt>
      <trkpt lat="66.25062" lon="13.15591">
        <ele>55.913487</ele>
        <time>2020-08-14T12:58:23.891Z</time>
      </trkpt>
      <trkpt lat="66.25069" lon="13.15606">
        <ele>55.829879</ele>
        <time>2020-08-14T12:58:25.902Z</time>
      </trkpt>
      <trkpt lat="66.25076" lon="13.15624">
        <ele>55.738816</ele>
        <time>2020-08-14T12:58:27.896Z</time>
      </trkpt>
      <trkpt lat="66.25083" lon="13.15641">
        <ele>55.64539</ele>
        <time>2020-08-14T12:58:29.886Z</time>
      </trkpt>
      <trkpt lat="66.25091" lon="13.15659">
        <ele>55.548734</ele>
        <time>2020-08-14T12:58:31.873Z</time>
      </trkpt>
      <trkpt lat="66.25099" lon="13.15678">
        <ele>55.445135</ele>
        <time>2020-08-14T12:58:33.877Z</time>
      </trkpt>
      <trkpt lat="66.25108" lon="13.15697">
        <ele>55.336859</ele>
        <time>2020-08-14T12:58:35.888Z</time>
      </trkpt>
      <trkpt lat="66.25117" lon="13.15715">
        <ele>55.227903</ele>
        <time>2020-08-14T12:58:37.885Z</time>
      </trkpt>
      <trkpt lat="66.25127" lon="13.15735">
        <ele>55.108515</ele>
        <time>2020-08-14T12:58:39.874Z</time>
      </trkpt>
      <trkpt lat="66.25138" lon="13.15755">
        <ele>54.982639</ele>
        <time>2020-08-14T12:58:41.879Z</time>
      </trkpt>
      <trkpt lat="66.25149" lon="13.15776">
        <ele>54.854098</ele>
        <time>2020-08-14T12:58:43.885Z</time>
      </trkpt>
      <trkpt lat="66.2516" lon="13.15796">
        <ele>54.727651</ele>
        <time>2020-08-14T12:58:45.895Z</time>
      </trkpt>
      <trkpt lat="66.25171" lon="13.15816">
        <ele>54.373415</ele>
        <time>2020-08-14T12:58:47.889Z</time>
      </trkpt>
      <trkpt lat="66.25182" lon="13.15837">
        <ele>53.800662</ele>
        <time>2020-08-14T12:58:49.868Z</time>
      </trkpt>
      <trkpt lat="66.25193" lon="13.15858">
        <ele>53.221572</ele>
        <time>2020-08-14T12:58:51.892Z</time>
      </trkpt>
      <trkpt lat="66.25204" lon="13.1588">
        <ele>52.627753</ele>
        <time>2020-08-14T12:58:53.880Z</time>
      </trkpt>
      <trkpt lat="66.25215" lon="13.15903">
        <ele>52.036235</ele>
        <time>2020-08-14T12:58:55.928Z</time>
      </trkpt>
      <trkpt lat="66.25226" lon="13.15927">
        <ele>51.426374</ele>
        <time>2020-08-14T12:58:57.862Z</time>
      </trkpt>
      <trkpt lat="66.25237" lon="13.15952">
        <ele>50.823369</ele>
        <time>2020-08-14T12:58:59.877Z</time>
      </trkpt>
      <trkpt lat="66.25246" lon="13.15977">
        <ele>50.236724</ele>
        <time>2020-08-14T12:59:01.871Z</time>
      </trkpt>
      <trkpt lat="66.25256" lon="13.16003">
        <ele>49.647235</ele>
        <time>2020-08-14T12:59:03.875Z</time>
      </trkpt>
      <trkpt lat="66.25266" lon="13.1603">
        <ele>49.041039</ele>
        <time>2020-08-14T12:59:05.874Z</time>
      </trkpt>
      <trkpt lat="66.25276" lon="13.16058">
        <ele>48.410076</ele>
        <time>2020-08-14T12:59:07.885Z</time>
      </trkpt>
      <trkpt lat="66.25286" lon="13.16086">
        <ele>47.784376</ele>
        <time>2020-08-14T12:59:09.879Z</time>
      </trkpt>
      <trkpt lat="66.25296" lon="13.16115">
        <ele>47.175015</ele>
        <time>2020-08-14T12:59:11.887Z</time>
      </trkpt>
      <trkpt lat="66.25306" lon="13.16142">
        <ele>46.876053</ele>
        <time>2020-08-14T12:59:13.888Z</time>
      </trkpt>
      <trkpt lat="66.25316" lon="13.16168">
        <ele>46.586853</ele>
        <time>2020-08-14T12:59:15.887Z</time>
      </trkpt>
      <trkpt lat="66.25325" lon="13.16194">
        <ele>46.306626</ele>
        <time>2020-08-14T12:59:17.874Z</time>
      </trkpt>
      <trkpt lat="66.25334" lon="13.16219">
        <ele>46.041101</ele>
        <time>2020-08-14T12:59:19.884Z</time>
      </trkpt>
      <trkpt lat="66.25342" lon="13.16244">
        <ele>45.781111</ele>
        <time>2020-08-14T12:59:21.873Z</time>
      </trkpt>
      <trkpt lat="66.25351" lon="13.16267">
        <ele>45.523417</ele>
        <time>2020-08-14T12:59:23.894Z</time>
      </trkpt>
      <trkpt lat="66.25359" lon="13.1629">
        <ele>45.276966</ele>
        <time>2020-08-14T12:59:25.890Z</time>
      </trkpt>
      <trkpt lat="66.25367" lon="13.16312">
        <ele>45.029322</ele>
        <time>2020-08-14T12:59:27.920Z</time>
      </trkpt>
      <trkpt lat="66.25376" lon="13.16335">
        <ele>44.782427</ele>
        <time>2020-08-14T12:59:29.889Z</time>
      </trkpt>
      <trkpt lat="66.25383" lon="13.16357">
        <ele>44.543892</ele>
        <time>2020-08-14T12:59:31.888Z</time>
      </trkpt>
      <trkpt lat="66.25391" lon="13.16379">
        <ele>44.307184</ele>
        <time>2020-08-14T12:59:33.874Z</time>
      </trkpt>
      <trkpt lat="66.25399" lon="13.16401">
        <ele>44.07058</ele>
        <time>2020-08-14T12:59:35.888Z</time>
      </trkpt>
      <trkpt lat="66.25407" lon="13.16423">
        <ele>43.833138</ele>
        <time>2020-08-14T12:59:37.875Z</time>
      </trkpt>
      <trkpt lat="66.25415" lon="13.16444">
        <ele>43.600046</ele>
        <time>2020-08-14T12:59:39.908Z</time>
      </trkpt>
      <trkpt lat="66.25422" lon="13.16465">
        <ele>43.594149</ele>
        <time>2020-08-14T12:59:41.907Z</time>
      </trkpt>
      <trkpt lat="66.2543" lon="13.16487">
        <ele>43.604305</ele>
        <time>2020-08-14T12:59:43.878Z</time>
      </trkpt>
      <trkpt lat="66.25438" lon="13.16509">
        <ele>43.61464</ele>
        <time>2020-08-14T12:59:45.886Z</time>
      </trkpt>
      <trkpt lat="66.25447" lon="13.16532">
        <ele>43.625335</ele>
        <time>2020-08-14T12:59:47.876Z</time>
      </trkpt>
      <trkpt lat="66.25455" lon="13.16555">
        <ele>43.635962</ele>
        <time>2020-08-14T12:59:49.889Z</time>
      </trkpt>
      <trkpt lat="66.25463" lon="13.16577">
        <ele>43.646555</ele>
        <time>2020-08-14T12:59:51.890Z</time>
      </trkpt>
      <trkpt lat="66.25472" lon="13.166">
        <ele>43.657411</ele>
        <time>2020-08-14T12:59:53.885Z</time>
      </trkpt>
      <trkpt lat="66.2548" lon="13.16624">
        <ele>43.668063</ele>
        <time>2020-08-14T12:59:55.879Z</time>
      </trkpt>
      <trkpt lat="66.25488" lon="13.16646">
        <ele>43.678752</ele>
        <time>2020-08-14T12:59:57.897Z</time>
      </trkpt>
      <trkpt lat="66.25496" lon="13.16669">
        <ele>43.689113</ele>
        <time>2020-08-14T12:59:59.887Z</time>
      </trkpt>
      <trkpt lat="66.25504" lon="13.1669">
        <ele>43.69921</ele>
        <time>2020-08-14T13:00:01.875Z</time>
      </trkpt>
      <trkpt lat="66.25512" lon="13.16711">
        <ele>43.708954</ele>
        <time>2020-08-14T13:00:03.889Z</time>
      </trkpt>
      <trkpt lat="66.25519" lon="13.16732">
        <ele>43.718614</ele>
        <time>2020-08-14T13:00:05.885Z</time>
      </trkpt>
      <trkpt lat="66.25526" lon="13.16752">
        <ele>43.728134</ele>
        <time>2020-08-14T13:00:07.908Z</time>
      </trkpt>
      <trkpt lat="66.25534" lon="13.16772">
        <ele>43.737421</ele>
        <time>2020-08-14T13:00:09.884Z</time>
      </trkpt>
      <trkpt lat="66.25541" lon="13.16791">
        <ele>43.722889</ele>
        <time>2020-08-14T13:00:11.881Z</time>
      </trkpt>
      <trkpt lat="66.25548" lon="13.1681">
        <ele>43.701202</ele>
        <time>2020-08-14T13:00:13.888Z</time>
      </trkpt>
      <trkpt lat="66.25555" lon="13.16828">
        <ele>43.680575</ele>
        <time>2020-08-14T13:00:15.883Z</time>
      </trkpt>
      <trkpt lat="66.25561" lon="13.16846">
        <ele>43.660201</ele>
        <time>2020-08-14T13:00:17.894Z</time>
      </trkpt>
      <trkpt lat="66.25568" lon="13.16865">
        <ele>43.639061</ele>
        <time>2020-08-14T13:00:19.882Z</time>
      </trkpt>
      <trkpt lat="66.25574" lon="13.16884">
        <ele>43.617642</ele>
        <time>2020-08-14T13:00:21.877Z</time>
      </trkpt>
      <trkpt lat="66.25581" lon="13.16902">
        <ele>43.596461</ele>
        <time>2020-08-14T13:00:23.883Z</time>
      </trkpt>
      <trkpt lat="66.25588" lon="13.16921">
        <ele>43.574453</ele>
        <time>2020-08-14T13:00:25.867Z</time>
      </trkpt>
      <trkpt lat="66.25595" lon="13.16941">
        <ele>43.551834</ele>
        <time>2020-08-14T13:00:27.881Z</time>
      </trkpt>
      <trkpt lat="66.25602" lon="13.16961">
        <ele>43.528994</ele>
        <time>2020-08-14T13:00:29.883Z</time>
      </trkpt>
      <trkpt lat="66.2561" lon="13.16981">
        <ele>43.505284</ele>
        <time>2020-08-14T13:00:31.883Z</time>
      </trkpt>
      <trkpt lat="66.25617" lon="13.17002">
        <ele>43.48168</ele>
        <time>2020-08-14T13:00:33.888Z</time>
      </trkpt>
      <trkpt lat="66.25624" lon="13.17022">
        <ele>43.458524</ele>
        <time>2020-08-14T13:00:35.868Z</time>
      </trkpt>
      <trkpt lat="66.25632" lon="13.17043">
        <ele>43.435382</ele>
        <time>2020-08-14T13:00:37.879Z</time>
      </trkpt>
      <trkpt lat="66.25639" lon="13.17063">
        <ele>43.41271</ele>
        <time>2020-08-14T13:00:39.875Z</time>
      </trkpt>
      <trkpt lat="66.25646" lon="13.17083">
        <ele>43.38898</ele>
        <time>2020-08-14T13:00:41.901Z</time>
      </trkpt>
      <trkpt lat="66.25654" lon="13.17105">
        <ele>43.364595</ele>
        <time>2020-08-14T13:00:43.896Z</time>
      </trkpt>
      <trkpt lat="66.25661" lon="13.17127">
        <ele>43.408685</ele>
        <time>2020-08-14T13:00:45.895Z</time>
      </trkpt>
      <trkpt lat="66.25669" lon="13.17152">
        <ele>43.479172</ele>
        <time>2020-08-14T13:00:47.898Z</time>
      </trkpt>
      <trkpt lat="66.25678" lon="13.17173">
        <ele>43.546508</ele>
        <time>2020-08-14T13:00:49.874Z</time>
      </trkpt>
      <trkpt lat="66.25686" lon="13.17194">
        <ele>43.612973</ele>
        <time>2020-08-14T13:00:51.864Z</time>
      </trkpt>
      <trkpt lat="66.25694" lon="13.17215">
        <ele>43.679852</ele>
        <time>2020-08-14T13:00:53.877Z</time>
      </trkpt>
      <trkpt lat="66.25703" lon="13.17237">
        <ele>43.746021</ele>
        <time>2020-08-14T13:00:55.901Z</time>
      </trkpt>
      <trkpt lat="66.25711" lon="13.17258">
        <ele>43.812132</ele>
        <time>2020-08-14T13:00:57.894Z</time>
      </trkpt>
      <trkpt lat="66.25719" lon="13.1728">
        <ele>43.877487</ele>
        <time>2020-08-14T13:00:59.895Z</time>
      </trkpt>
      <trkpt lat="66.25727" lon="13.17301">
        <ele>43.943549</ele>
        <time>2020-08-14T13:01:01.875Z</time>
      </trkpt>
      <trkpt lat="66.25734" lon="13.17323">
        <ele>44.008125</ele>
        <time>2020-08-14T13:01:03.893Z</time>
      </trkpt>
      <trkpt lat="66.25742" lon="13.17344">
        <ele>44.070484</ele>
        <time>2020-08-14T13:01:05.880Z</time>
      </trkpt>
      <trkpt lat="66.25749" lon="13.17363">
        <ele>44.131141</ele>
        <time>2020-08-14T13:01:07.881Z</time>
      </trkpt>
      <trkpt lat="66.25756" lon="13.17383">
        <ele>44.189233</ele>
        <time>2020-08-14T13:01:09.898Z</time>
      </trkpt>
      <trkpt lat="66.25763" lon="13.17403">
        <ele>44.24643</ele>
        <time>2020-08-14T13:01:11.893Z</time>
      </trkpt>
      <trkpt lat="66.25769" lon="13.17421">
        <ele>44.301536</ele>
        <time>2020-08-14T13:01:13.891Z</time>
      </trkpt>
      <trkpt lat="66.25775" lon="13.17439">
        <ele>44.354077</ele>
        <time>2020-08-14T13:01:15.878Z</time>
      </trkpt>
      <trkpt lat="66.25782" lon="13.17455">
        <ele>44.487152</ele>
        <time>2020-08-14T13:01:17.888Z</time>
      </trkpt>
      <trkpt lat="66.25788" lon="13.17472">
        <ele>44.634931</ele>
        <time>2020-08-14T13:01:19.905Z</time>
      </trkpt>
      <trkpt lat="66.25797" lon="13.17494">
        <ele>44.838628</ele>
        <time>2020-08-14T13:01:22.878Z</time>
      </trkpt>
      <trkpt lat="66.25807" lon="13.17516">
        <ele>45.045197</ele>
        <time>2020-08-14T13:01:25.872Z</time>
      </trkpt>
      <trkpt lat="66.25817" lon="13.17536">
        <ele>45.252504</ele>
        <time>2020-08-14T13:01:28.928Z</time>
      </trkpt>
      <trkpt lat="66.25826" lon="13.17555">
        <ele>45.451657</ele>
        <time>2020-08-14T13:01:31.889Z</time>
      </trkpt>
      <trkpt lat="66.25837" lon="13.17574">
        <ele>45.654495</ele>
        <time>2020-08-14T13:01:34.878Z</time>
      </trkpt>
      <trkpt lat="66.25847" lon="13.17592">
        <ele>45.856416</ele>
        <time>2020-08-14T13:01:37.872Z</time>
      </trkpt>
      <trkpt lat="66.25856" lon="13.17609">
        <ele>46.037688</ele>
        <time>2020-08-14T13:01:40.889Z</time>
      </trkpt>
      <trkpt lat="66.25864" lon="13.17625">
        <ele>46.198195</ele>
        <time>2020-08-14T13:01:43.876Z</time>
      </trkpt>
      <trkpt lat="66.25871" lon="13.17641">
        <ele>46.354205</ele>
        <time>2020-08-14T13:01:46.910Z</time>
      </trkpt>
      <trkpt lat="66.25879" lon="13.17657">
        <ele>46.517586</ele>
        <time>2020-08-14T13:01:49.916Z</time>
      </trkpt>
      <trkpt lat="66.25887" lon="13.17675">
        <ele>46.687678</ele>
        <time>2020-08-14T13:01:52.870Z</time>
      </trkpt>
      <trkpt lat="66.25895" lon="13.17694">
        <ele>46.871361</ele>
        <time>2020-08-14T13:01:55.897Z</time>
      </trkpt>
      <trkpt lat="66.25904" lon="13.17716">
        <ele>47.073692</ele>
        <time>2020-08-14T13:01:58.889Z</time>
      </trkpt>
      <trkpt lat="66.25913" lon="13.1774">
        <ele>47.24252</ele>
        <time>2020-08-14T13:02:01.880Z</time>
      </trkpt>
      <trkpt lat="66.25922" lon="13.17765">
        <ele>47.265355</ele>
        <time>2020-08-14T13:02:04.874Z</time>
      </trkpt>
      <trkpt lat="66.2593" lon="13.17787">
        <ele>47.286968</ele>
        <time>2020-08-14T13:02:07.899Z</time>
      </trkpt>
      <trkpt lat="66.25939" lon="13.17808">
        <ele>47.307802</ele>
        <time>2020-08-14T13:02:10.884Z</time>
      </trkpt>
      <trkpt lat="66.25947" lon="13.17828">
        <ele>47.328044</ele>
        <time>2020-08-14T13:02:13.892Z</time>
      </trkpt>
      <trkpt lat="66.25954" lon="13.17847">
        <ele>47.346641</ele>
        <time>2020-08-14T13:02:16.882Z</time>
      </trkpt>
      <trkpt lat="66.25962" lon="13.17865">
        <ele>47.365169</ele>
        <time>2020-08-14T13:02:19.875Z</time>
      </trkpt>
      <trkpt lat="66.2597" lon="13.17882">
        <ele>47.38429</ele>
        <time>2020-08-14T13:02:22.866Z</time>
      </trkpt>
      <trkpt lat="66.25979" lon="13.17899">
        <ele>47.403142</ele>
        <time>2020-08-14T13:02:25.888Z</time>
      </trkpt>
      <trkpt lat="66.25988" lon="13.17916">
        <ele>47.423333</ele>
        <time>2020-08-14T13:02:28.877Z</time>
      </trkpt>
      <trkpt lat="66.25997" lon="13.17933">
        <ele>47.443566</ele>
        <time>2020-08-14T13:02:31.904Z</time>
      </trkpt>
      <trkpt lat="66.26007" lon="13.1795">
        <ele>47.464696</ele>
        <time>2020-08-14T13:02:34.877Z</time>
      </trkpt>
      <trkpt lat="66.26017" lon="13.17968">
        <ele>47.486194</ele>
        <time>2020-08-14T13:02:37.903Z</time>
      </trkpt>
      <trkpt lat="66.26027" lon="13.17982">
        <ele>47.506413</ele>
        <time>2020-08-14T13:02:40.900Z</time>
      </trkpt>
      <trkpt lat="66.26037" lon="13.17996">
        <ele>47.52639</ele>
        <time>2020-08-14T13:02:43.882Z</time>
      </trkpt>
      <trkpt lat="66.26047" lon="13.18009">
        <ele>47.546421</ele>
        <time>2020-08-14T13:02:46.911Z</time>
      </trkpt>
      <trkpt lat="66.26058" lon="13.18022">
        <ele>47.59986</ele>
        <time>2020-08-14T13:02:49.915Z</time>
      </trkpt>
      <trkpt lat="66.26069" lon="13.18037">
        <ele>47.670828</ele>
        <time>2020-08-14T13:02:52.873Z</time>
      </trkpt>
      <trkpt lat="66.26079" lon="13.1805">
        <ele>47.739086</ele>
        <time>2020-08-14T13:02:55.874Z</time>
      </trkpt>
      <trkpt lat="66.2609" lon="13.18061">
        <ele>47.805964</ele>
        <time>2020-08-14T13:02:58.874Z</time>
      </trkpt>
      <trkpt lat="66.26102" lon="13.18074">
        <ele>47.880257</ele>
        <time>2020-08-14T13:03:01.905Z</time>
      </trkpt>
      <trkpt lat="66.26113" lon="13.18087">
        <ele>47.952032</ele>
        <time>2020-08-14T13:03:04.887Z</time>
      </trkpt>
      <trkpt lat="66.26124" lon="13.18099">
        <ele>48.018651</ele>
        <time>2020-08-14T13:03:07.912Z</time>
      </trkpt>
      <trkpt lat="66.26134" lon="13.18112">
        <ele>48.084355</ele>
        <time>2020-08-14T13:03:10.872Z</time>
      </trkpt>
      <trkpt lat="66.26146" lon="13.18126">
        <ele>48.156201</ele>
        <time>2020-08-14T13:03:13.888Z</time>
      </trkpt>
      <trkpt lat="66.26157" lon="13.18138">
        <ele>48.227753</ele>
        <time>2020-08-14T13:03:16.880Z</time>
      </trkpt>
      <trkpt lat="66.26169" lon="13.18151">
        <ele>48.302662</ele>
        <time>2020-08-14T13:03:19.885Z</time>
      </trkpt>
      <trkpt lat="66.26177" lon="13.18161">
        <ele>48.355148</ele>
        <time>2020-08-14T13:03:21.867Z</time>
      </trkpt>
      <trkpt lat="66.26187" lon="13.18172">
        <ele>48.41389</ele>
        <time>2020-08-14T13:03:23.874Z</time>
      </trkpt>
      <trkpt lat="66.26197" lon="13.18183">
        <ele>48.477795</ele>
        <time>2020-08-14T13:03:25.876Z</time>
      </trkpt>
      <trkpt lat="66.26208" lon="13.18196">
        <ele>48.549901</ele>
        <time>2020-08-14T13:03:27.898Z</time>
      </trkpt>
      <trkpt lat="66.26221" lon="13.1821">
        <ele>48.414671</ele>
        <time>2020-08-14T13:03:29.871Z</time>
      </trkpt>
      <trkpt lat="66.26235" lon="13.18225">
        <ele>48.123027</ele>
        <time>2020-08-14T13:03:31.890Z</time>
      </trkpt>
      <trkpt lat="66.2625" lon="13.18242">
        <ele>47.813716</ele>
        <time>2020-08-14T13:03:33.899Z</time>
      </trkpt>
      <trkpt lat="66.26266" lon="13.1826">
        <ele>47.48089</ele>
        <time>2020-08-14T13:03:35.891Z</time>
      </trkpt>
      <trkpt lat="66.26282" lon="13.18277">
        <ele>47.148202</ele>
        <time>2020-08-14T13:03:37.917Z</time>
      </trkpt>
      <trkpt lat="66.26298" lon="13.18296">
        <ele>46.816143</ele>
        <time>2020-08-14T13:03:39.880Z</time>
      </trkpt>
      <trkpt lat="66.26313" lon="13.18314">
        <ele>46.497122</ele>
        <time>2020-08-14T13:03:41.881Z</time>
      </trkpt>
      <trkpt lat="66.26327" lon="13.18332">
        <ele>46.19416</ele>
        <time>2020-08-14T13:03:43.885Z</time>
      </trkpt>
      <trkpt lat="66.26341" lon="13.18349">
        <ele>45.902068</ele>
        <time>2020-08-14T13:03:45.869Z</time>
      </trkpt>
      <trkpt lat="66.26353" lon="13.18368">
        <ele>45.625369</ele>
        <time>2020-08-14T13:03:47.910Z</time>
      </trkpt>
      <trkpt lat="66.26365" lon="13.18387">
        <ele>45.362802</ele>
        <time>2020-08-14T13:03:49.897Z</time>
      </trkpt>
      <trkpt lat="66.26375" lon="13.18406">
        <ele>45.144432</ele>
        <time>2020-08-14T13:03:51.890Z</time>
      </trkpt>
      <trkpt lat="66.26386" lon="13.18425">
        <ele>45.07958</ele>
        <time>2020-08-14T13:03:53.889Z</time>
      </trkpt>
      <trkpt lat="66.26394" lon="13.18441">
        <ele>45.023958</ele>
        <time>2020-08-14T13:03:55.879Z</time>
      </trkpt>
      <trkpt lat="66.26403" lon="13.18457">
        <ele>44.967393</ele>
        <time>2020-08-14T13:03:57.882Z</time>
      </trkpt>
      <trkpt lat="66.26412" lon="13.18475">
        <ele>44.908572</ele>
        <time>2020-08-14T13:03:59.893Z</time>
      </trkpt>
      <trkpt lat="66.26422" lon="13.18491">
        <ele>44.851415</ele>
        <time>2020-08-14T13:04:01.871Z</time>
      </trkpt>
      <trkpt lat="66.2643" lon="13.18508">
        <ele>44.793917</ele>
        <time>2020-08-14T13:04:03.892Z</time>
      </trkpt>
      <trkpt lat="66.26439" lon="13.18527">
        <ele>44.736019</ele>
        <time>2020-08-14T13:04:05.881Z</time>
      </trkpt>
      <trkpt lat="66.26448" lon="13.18544">
        <ele>44.679046</ele>
        <time>2020-08-14T13:04:07.863Z</time>
      </trkpt>
      <trkpt lat="66.26456" lon="13.18562">
        <ele>44.623905</ele>
        <time>2020-08-14T13:04:09.919Z</time>
      </trkpt>
      <trkpt lat="66.26464" lon="13.18579">
        <ele>44.570979</ele>
        <time>2020-08-14T13:04:11.878Z</time>
      </trkpt>
      <trkpt lat="66.26471" lon="13.18593">
        <ele>44.522486</ele>
        <time>2020-08-14T13:04:13.885Z</time>
      </trkpt>
      <trkpt lat="66.26481" lon="13.18613">
        <ele>44.456761</ele>
        <time>2020-08-14T13:04:16.872Z</time>
      </trkpt>
      <trkpt lat="66.2649" lon="13.18632">
        <ele>44.398323</ele>
        <time>2020-08-14T13:04:19.896Z</time>
      </trkpt>
      <trkpt lat="66.26498" lon="13.18649">
        <ele>44.343182</ele>
        <time>2020-08-14T13:04:22.892Z</time>
      </trkpt>
      <trkpt lat="66.26506" lon="13.18666">
        <ele>44.291295</ele>
        <time>2020-08-14T13:04:25.891Z</time>
      </trkpt>
      <trkpt lat="66.26513" lon="13.18681">
        <ele>44.243572</ele>
        <time>2020-08-14T13:04:28.884Z</time>
      </trkpt>
      <trkpt lat="66.2652" lon="13.18697">
        <ele>44.36228</ele>
        <time>2020-08-14T13:04:31.889Z</time>
      </trkpt>
      <trkpt lat="66.26527" lon="13.18712">
        <ele>44.491548</ele>
        <time>2020-08-14T13:04:34.886Z</time>
      </trkpt>
      <trkpt lat="66.26534" lon="13.18729">
        <ele>44.622099</ele>
        <time>2020-08-14T13:04:37.893Z</time>
      </trkpt>
      <trkpt lat="66.26542" lon="13.18749">
        <ele>44.782565</ele>
        <time>2020-08-14T13:04:41.885Z</time>
      </trkpt>
      <trkpt lat="66.26548" lon="13.18765">
        <ele>44.911964</ele>
        <time>2020-08-14T13:04:44.869Z</time>
      </trkpt>
      <trkpt lat="66.26555" lon="13.18783">
        <ele>45.045025</ele>
        <time>2020-08-14T13:04:47.873Z</time>
      </trkpt>
      <trkpt lat="66.26561" lon="13.188">
        <ele>45.17779</ele>
        <time>2020-08-14T13:04:50.880Z</time>
      </trkpt>
      <trkpt lat="66.26568" lon="13.18818">
        <ele>45.313962</ele>
        <time>2020-08-14T13:04:53.910Z</time>
      </trkpt>
      <trkpt lat="66.26574" lon="13.18835">
        <ele>45.448179</ele>
        <time>2020-08-14T13:04:56.873Z</time>
      </trkpt>
      <trkpt lat="66.26581" lon="13.18853">
        <ele>45.586223</ele>
        <time>2020-08-14T13:04:59.889Z</time>
      </trkpt>
      <trkpt lat="66.26588" lon="13.18871">
        <ele>45.72453</ele>
        <time>2020-08-14T13:05:02.885Z</time>
      </trkpt>
      <trkpt lat="66.26595" lon="13.18888">
        <ele>45.86345</ele>
        <time>2020-08-14T13:05:05.879Z</time>
      </trkpt>
      <trkpt lat="66.26603" lon="13.18905">
        <ele>46.001982</ele>
        <time>2020-08-14T13:05:08.891Z</time>
      </trkpt>
      <trkpt lat="66.2661" lon="13.18922">
        <ele>46.142685</ele>
        <time>2020-08-14T13:05:11.898Z</time>
      </trkpt>
      <trkpt lat="66.26618" lon="13.18939">
        <ele>46.284564</ele>
        <time>2020-08-14T13:05:14.889Z</time>
      </trkpt>
      <trkpt lat="66.26626" lon="13.18956">
        <ele>46.433524</ele>
        <time>2020-08-14T13:05:17.923Z</time>
      </trkpt>
      <trkpt lat="66.26635" lon="13.18972">
        <ele>46.590149</ele>
        <time>2020-08-14T13:05:20.894Z</time>
      </trkpt>
      <trkpt lat="66.26645" lon="13.1899">
        <ele>46.772052</ele>
        <time>2020-08-14T13:05:23.873Z</time>
      </trkpt>
      <trkpt lat="66.26656" lon="13.19008">
        <ele>47.165979</ele>
        <time>2020-08-14T13:05:26.920Z</time>
      </trkpt>
      <trkpt lat="66.26663" lon="13.19021">
        <ele>47.443009</ele>
        <time>2020-08-14T13:05:28.887Z</time>
      </trkpt>
      <trkpt lat="66.26671" lon="13.19035">
        <ele>47.726818</ele>
        <time>2020-08-14T13:05:30.891Z</time>
      </trkpt>
      <trkpt lat="66.26679" lon="13.19048">
        <ele>48.018376</ele>
        <time>2020-08-14T13:05:32.886Z</time>
      </trkpt>
      <trkpt lat="66.26687" lon="13.19062">
        <ele>48.3106</ele>
        <time>2020-08-14T13:05:34.910Z</time>
      </trkpt>
      <trkpt lat="66.26695" lon="13.19075">
        <ele>48.598804</ele>
        <time>2020-08-14T13:05:36.877Z</time>
      </trkpt>
      <trkpt lat="66.26702" lon="13.1909">
        <ele>48.880966</ele>
        <time>2020-08-14T13:05:38.897Z</time>
      </trkpt>
      <trkpt lat="66.26712" lon="13.19111">
        <ele>49.281224</ele>
        <time>2020-08-14T13:05:41.872Z</time>
      </trkpt>
      <trkpt lat="66.26722" lon="13.19131">
        <ele>49.66301</ele>
        <time>2020-08-14T13:05:44.879Z</time>
      </trkpt>
      <trkpt lat="66.2673" lon="13.19153">
        <ele>50.024772</ele>
        <time>2020-08-14T13:05:47.876Z</time>
      </trkpt>
      <trkpt lat="66.26737" lon="13.19172">
        <ele>50.336281</ele>
        <time>2020-08-14T13:05:50.874Z</time>
      </trkpt>
      <trkpt lat="66.26743" lon="13.1919">
        <ele>50.606163</ele>
        <time>2020-08-14T13:05:53.890Z</time>
      </trkpt>
      <trkpt lat="66.26748" lon="13.1921">
        <ele>50.904289</ele>
        <time>2020-08-14T13:05:56.889Z</time>
      </trkpt>
      <trkpt lat="66.26754" lon="13.19231">
        <ele>51.218992</ele>
        <time>2020-08-14T13:05:59.882Z</time>
      </trkpt>
      <trkpt lat="66.26761" lon="13.19254">
        <ele>51.549033</ele>
        <time>2020-08-14T13:06:02.919Z</time>
      </trkpt>
      <trkpt lat="66.26767" lon="13.19276">
        <ele>51.886015</ele>
        <time>2020-08-14T13:06:05.869Z</time>
      </trkpt>
      <trkpt lat="66.26773" lon="13.19299">
        <ele>52.253246</ele>
        <time>2020-08-14T13:06:08.890Z</time>
      </trkpt>
      <trkpt lat="66.2678" lon="13.19321">
        <ele>52.784317</ele>
        <time>2020-08-14T13:06:11.880Z</time>
      </trkpt>
      <trkpt lat="66.26786" lon="13.19342">
        <ele>53.269044</ele>
        <time>2020-08-14T13:06:14.893Z</time>
      </trkpt>
      <trkpt lat="66.2679" lon="13.19361">
        <ele>53.706692</ele>
        <time>2020-08-14T13:06:17.867Z</time>
      </trkpt>
      <trkpt lat="66.26796" lon="13.1938">
        <ele>54.150567</ele>
        <time>2020-08-14T13:06:20.889Z</time>
      </trkpt>
      <trkpt lat="66.26803" lon="13.19404">
        <ele>54.722761</ele>
        <time>2020-08-14T13:06:24.866Z</time>
      </trkpt>
      <trkpt lat="66.2681" lon="13.19424">
        <ele>55.213886</ele>
        <time>2020-08-14T13:06:27.882Z</time>
      </trkpt>
      <trkpt lat="66.26815" lon="13.19441">
        <ele>55.64355</ele>
        <time>2020-08-14T13:06:30.868Z</time>
      </trkpt>
      <trkpt lat="66.26822" lon="13.19463">
        <ele>56.164945</ele>
        <time>2020-08-14T13:06:34.909Z</time>
      </trkpt>
      <trkpt lat="66.26828" lon="13.1948">
        <ele>56.606962</ele>
        <time>2020-08-14T13:06:37.888Z</time>
      </trkpt>
      <trkpt lat="66.26834" lon="13.19497">
        <ele>57.054031</ele>
        <time>2020-08-14T13:06:40.876Z</time>
      </trkpt>
      <trkpt lat="66.26841" lon="13.19513">
        <ele>57.505833</ele>
        <time>2020-08-14T13:06:43.868Z</time>
      </trkpt>
      <trkpt lat="66.26849" lon="13.19533">
        <ele>58.046493</ele>
        <time>2020-08-14T13:06:47.890Z</time>
      </trkpt>
      <trkpt lat="66.26857" lon="13.19551">
        <ele>58.538936</ele>
        <time>2020-08-14T13:06:51.883Z</time>
      </trkpt>
      <trkpt lat="66.26864" lon="13.19571">
        <ele>59.073159</ele>
        <time>2020-08-14T13:06:55.892Z</time>
      </trkpt>
      <trkpt lat="66.26872" lon="13.19591">
        <ele>59.625885</ele>
        <time>2020-08-14T13:06:59.871Z</time>
      </trkpt>
      <trkpt lat="66.2688" lon="13.1961">
        <ele>60.126536</ele>
        <time>2020-08-14T13:07:03.893Z</time>
      </trkpt>
      <trkpt lat="66.26887" lon="13.19628">
        <ele>60.632677</ele>
        <time>2020-08-14T13:07:07.892Z</time>
      </trkpt>
      <trkpt lat="66.26895" lon="13.19647">
        <ele>61.141927</ele>
        <time>2020-08-14T13:07:11.891Z</time>
      </trkpt>
      <trkpt lat="66.26902" lon="13.19665">
        <ele>61.631622</ele>
        <time>2020-08-14T13:07:15.884Z</time>
      </trkpt>
      <trkpt lat="66.26909" lon="13.19683">
        <ele>62.120267</ele>
        <time>2020-08-14T13:07:19.882Z</time>
      </trkpt>
      <trkpt lat="66.26916" lon="13.19702">
        <ele>62.601102</ele>
        <time>2020-08-14T13:07:23.893Z</time>
      </trkpt>
      <trkpt lat="66.26923" lon="13.19721">
        <ele>63.107885</ele>
        <time>2020-08-14T13:07:27.884Z</time>
      </trkpt>
      <trkpt lat="66.2693" lon="13.19741">
        <ele>63.60464</ele>
        <time>2020-08-14T13:07:31.890Z</time>
      </trkpt>
      <trkpt lat="66.26936" lon="13.19762">
        <ele>64.10678</ele>
        <time>2020-08-14T13:07:35.877Z</time>
      </trkpt>
      <trkpt lat="66.26943" lon="13.19785">
        <ele>64.642191</ele>
        <time>2020-08-14T13:07:39.894Z</time>
      </trkpt>
      <trkpt lat="66.26949" lon="13.19809">
        <ele>65.197431</ele>
        <time>2020-08-14T13:07:43.864Z</time>
      </trkpt>
      <trkpt lat="66.26954" lon="13.19831">
        <ele>65.676709</ele>
        <time>2020-08-14T13:07:47.878Z</time>
      </trkpt>
      <trkpt lat="66.2696" lon="13.19851">
        <ele>66.156355</ele>
        <time>2020-08-14T13:07:52.888Z</time>
      </trkpt>
      <trkpt lat="66.26965" lon="13.19873">
        <ele>66.619318</ele>
        <time>2020-08-14T13:07:56.879Z</time>
      </trkpt>
      <trkpt lat="66.26968" lon="13.19895">
        <ele>67.088913</ele>
        <time>2020-08-14T13:08:00.870Z</time>
      </trkpt>
      <trkpt lat="66.26974" lon="13.19919">
        <ele>67.611819</ele>
        <time>2020-08-14T13:08:04.888Z</time>
      </trkpt>
      <trkpt lat="66.26979" lon="13.19944">
        <ele>68.143669</ele>
        <time>2020-08-14T13:08:08.912Z</time>
      </trkpt>
      <trkpt lat="66.26983" lon="13.19964">
        <ele>68.576427</ele>
        <time>2020-08-14T13:08:11.879Z</time>
      </trkpt>
      <trkpt lat="66.26986" lon="13.19986">
        <ele>69.028288</ele>
        <time>2020-08-14T13:08:14.877Z</time>
      </trkpt>
      <trkpt lat="66.26989" lon="13.20007">
        <ele>69.43426</ele>
        <time>2020-08-14T13:08:17.909Z</time>
      </trkpt>
      <trkpt lat="66.26993" lon="13.20028">
        <ele>69.777791</ele>
        <time>2020-08-14T13:08:20.878Z</time>
      </trkpt>
      <trkpt lat="66.26997" lon="13.20049">
        <ele>70.134532</ele>
        <time>2020-08-14T13:08:23.929Z</time>
      </trkpt>
      <trkpt lat="66.27004" lon="13.20073">
        <ele>70.580411</ele>
        <time>2020-08-14T13:08:27.883Z</time>
      </trkpt>
      <trkpt lat="66.2701" lon="13.2009">
        <ele>70.931762</ele>
        <time>2020-08-14T13:08:30.871Z</time>
      </trkpt>
      <trkpt lat="66.27017" lon="13.20109">
        <ele>71.308832</ele>
        <time>2020-08-14T13:08:33.912Z</time>
      </trkpt>
      <trkpt lat="66.27023" lon="13.20128">
        <ele>71.695611</ele>
        <time>2020-08-14T13:08:36.876Z</time>
      </trkpt>
      <trkpt lat="66.27031" lon="13.20146">
        <ele>72.077493</ele>
        <time>2020-08-14T13:08:39.911Z</time>
      </trkpt>
      <trkpt lat="66.27038" lon="13.20161">
        <ele>72.446126</ele>
        <time>2020-08-14T13:08:42.870Z</time>
      </trkpt>
      <trkpt lat="66.27047" lon="13.20179">
        <ele>72.883445</ele>
        <time>2020-08-14T13:08:46.899Z</time>
      </trkpt>
      <trkpt lat="66.27056" lon="13.20196">
        <ele>73.298923</ele>
        <time>2020-08-14T13:08:50.892Z</time>
      </trkpt>
      <trkpt lat="66.27065" lon="13.20212">
        <ele>73.703818</ele>
        <time>2020-08-14T13:08:54.892Z</time>
      </trkpt>
      <trkpt lat="66.27073" lon="13.20227">
        <ele>74.097611</ele>
        <time>2020-08-14T13:08:58.879Z</time>
      </trkpt>
      <trkpt lat="66.27081" lon="13.2024">
        <ele>74.4602</ele>
        <time>2020-08-14T13:09:02.879Z</time>
      </trkpt>
      <trkpt lat="66.27089" lon="13.20258">
        <ele>74.869732</ele>
        <time>2020-08-14T13:09:07.877Z</time>
      </trkpt>
      <trkpt lat="66.27098" lon="13.20273">
        <ele>75.261767</ele>
        <time>2020-08-14T13:09:12.868Z</time>
      </trkpt>
      <trkpt lat="66.27106" lon="13.2029">
        <ele>75.675927</ele>
        <time>2020-08-14T13:09:17.897Z</time>
      </trkpt>
      <trkpt lat="66.27115" lon="13.20304">
        <ele>76.077716</ele>
        <time>2020-08-14T13:09:22.919Z</time>
      </trkpt>
      <trkpt lat="66.27124" lon="13.20319">
        <ele>76.565769</ele>
        <time>2020-08-14T13:09:27.868Z</time>
      </trkpt>
      <trkpt lat="66.27132" lon="13.20336">
        <ele>77.091907</ele>
        <time>2020-08-14T13:09:32.926Z</time>
      </trkpt>
      <trkpt lat="66.27139" lon="13.2035">
        <ele>77.54727</ele>
        <time>2020-08-14T13:09:37.887Z</time>
      </trkpt>
      <trkpt lat="66.27147" lon="13.20364">
        <ele>78.007101</ele>
        <time>2020-08-14T13:09:42.880Z</time>
      </trkpt>
      <trkpt lat="66.27155" lon="13.20377">
        <ele>78.465377</ele>
        <time>2020-08-14T13:09:47.890Z</time>
      </trkpt>
      <trkpt lat="66.27162" lon="13.20392">
        <ele>78.943996</ele>
        <time>2020-08-14T13:09:52.869Z</time>
      </trkpt>
      <trkpt lat="66.27171" lon="13.20407">
        <ele>79.450431</ele>
        <time>2020-08-14T13:09:57.916Z</time>
      </trkpt>
      <trkpt lat="66.27179" lon="13.20421">
        <ele>79.927871</ele>
        <time>2020-08-14T13:10:02.878Z</time>
      </trkpt>
      <trkpt lat="66.27187" lon="13.20437">
        <ele>80.435214</ele>
        <time>2020-08-14T13:10:08.892Z</time>
      </trkpt>
      <trkpt lat="66.27194" lon="13.20452">
        <ele>80.89115</ele>
        <time>2020-08-14T13:10:13.923Z</time>
      </trkpt>
      <trkpt lat="66.27201" lon="13.20467">
        <ele>81.34834</ele>
        <time>2020-08-14T13:10:18.880Z</time>
      </trkpt>
      <trkpt lat="66.27209" lon="13.2048">
        <ele>81.788281</ele>
        <time>2020-08-14T13:10:23.878Z</time>
      </trkpt>
      <trkpt lat="66.27216" lon="13.20494">
        <ele>82.245987</ele>
        <time>2020-08-14T13:10:28.918Z</time>
      </trkpt>
      <trkpt lat="66.27224" lon="13.20507">
        <ele>82.700214</ele>
        <time>2020-08-14T13:10:33.876Z</time>
      </trkpt>
      <trkpt lat="66.27231" lon="13.20524">
        <ele>83.188373</ele>
        <time>2020-08-14T13:10:38.899Z</time>
      </trkpt>
      <trkpt lat="66.27239" lon="13.20541">
        <ele>83.690745</ele>
        <time>2020-08-14T13:10:43.888Z</time>
      </trkpt>
      <trkpt lat="66.27247" lon="13.2056">
        <ele>84.235592</ele>
        <time>2020-08-14T13:10:48.895Z</time>
      </trkpt>
      <trkpt lat="66.27254" lon="13.20578">
        <ele>84.72251</ele>
        <time>2020-08-14T13:10:52.885Z</time>
      </trkpt>
      <trkpt lat="66.2726" lon="13.20598">
        <ele>84.729905</ele>
        <time>2020-08-14T13:10:56.903Z</time>
      </trkpt>
      <trkpt lat="66.27265" lon="13.2062">
        <ele>84.515474</ele>
        <time>2020-08-14T13:11:00.880Z</time>
      </trkpt>
      <trkpt lat="66.2727" lon="13.20642">
        <ele>84.309274</ele>
        <time>2020-08-14T13:11:04.969Z</time>
      </trkpt>
      <trkpt lat="66.27274" lon="13.20665">
        <ele>84.09897</ele>
        <time>2020-08-14T13:11:08.896Z</time>
      </trkpt>
      <trkpt lat="66.27276" lon="13.2069">
        <ele>83.890313</ele>
        <time>2020-08-14T13:11:12.899Z</time>
      </trkpt>
      <trkpt lat="66.27278" lon="13.20716">
        <ele>83.670033</ele>
        <time>2020-08-14T13:11:16.905Z</time>
      </trkpt>
      <trkpt lat="66.27279" lon="13.2074">
        <ele>83.461799</ele>
        <time>2020-08-14T13:11:20.870Z</time>
      </trkpt>
      <trkpt lat="66.27279" lon="13.20766">
        <ele>83.244361</ele>
        <time>2020-08-14T13:11:24.901Z</time>
      </trkpt>
      <trkpt lat="66.27278" lon="13.20794">
        <ele>83.009288</ele>
        <time>2020-08-14T13:11:28.880Z</time>
      </trkpt>
      <trkpt lat="66.27277" lon="13.20823">
        <ele>82.770582</ele>
        <time>2020-08-14T13:11:32.875Z</time>
      </trkpt>
      <trkpt lat="66.27274" lon="13.20849">
        <ele>82.544693</ele>
        <time>2020-08-14T13:11:36.917Z</time>
      </trkpt>
      <trkpt lat="66.27273" lon="13.20874">
        <ele>82.33497</ele>
        <time>2020-08-14T13:11:40.891Z</time>
      </trkpt>
      <trkpt lat="66.27271" lon="13.209">
        <ele>82.109924</ele>
        <time>2020-08-14T13:11:44.897Z</time>
      </trkpt>
      <trkpt lat="66.27269" lon="13.20926">
        <ele>81.892597</ele>
        <time>2020-08-14T13:11:48.902Z</time>
      </trkpt>
      <trkpt lat="66.27267" lon="13.2095">
        <ele>81.690081</ele>
        <time>2020-08-14T13:11:52.876Z</time>
      </trkpt>
      <trkpt lat="66.27266" lon="13.20975">
        <ele>81.47455</ele>
        <time>2020-08-14T13:11:56.888Z</time>
      </trkpt>
      <trkpt lat="66.27265" lon="13.21002">
        <ele>81.246317</ele>
        <time>2020-08-14T13:12:00.889Z</time>
      </trkpt>
      <trkpt lat="66.27263" lon="13.2103">
        <ele>81.330492</ele>
        <time>2020-08-14T13:12:04.878Z</time>
      </trkpt>
      <trkpt lat="66.27263" lon="13.21057">
        <ele>81.687002</ele>
        <time>2020-08-14T13:12:08.871Z</time>
      </trkpt>
      <trkpt lat="66.27262" lon="13.21081">
        <ele>82.011836</ele>
        <time>2020-08-14T13:12:12.874Z</time>
      </trkpt>
      <trkpt lat="66.2726" lon="13.21105">
        <ele>82.328775</ele>
        <time>2020-08-14T13:12:16.877Z</time>
      </trkpt>
      <trkpt lat="66.27259" lon="13.21131">
        <ele>82.670999</ele>
        <time>2020-08-14T13:12:20.878Z</time>
      </trkpt>
      <trkpt lat="66.27258" lon="13.21156">
        <ele>83.006679</ele>
        <time>2020-08-14T13:12:24.876Z</time>
      </trkpt>
      <trkpt lat="66.27256" lon="13.21181">
        <ele>83.334275</ele>
        <time>2020-08-14T13:12:28.879Z</time>
      </trkpt>
      <trkpt lat="66.27255" lon="13.21204">
        <ele>83.645105</ele>
        <time>2020-08-14T13:12:32.891Z</time>
      </trkpt>
      <trkpt lat="66.27254" lon="13.21227">
        <ele>83.948807</ele>
        <time>2020-08-14T13:12:36.870Z</time>
      </trkpt>
      <trkpt lat="66.27253" lon="13.21251">
        <ele>84.268842</ele>
        <time>2020-08-14T13:12:40.880Z</time>
      </trkpt>
      <trkpt lat="66.27251" lon="13.21274">
        <ele>84.576294</ele>
        <time>2020-08-14T13:12:44.889Z</time>
      </trkpt>
      <trkpt lat="66.27249" lon="13.213">
        <ele>84.926782</ele>
        <time>2020-08-14T13:12:49.918Z</time>
      </trkpt>
      <trkpt lat="66.27249" lon="13.21323">
        <ele>85.223103</ele>
        <time>2020-08-14T13:12:53.907Z</time>
      </trkpt>
      <trkpt lat="66.27247" lon="13.2135">
        <ele>85.590085</ele>
        <time>2020-08-14T13:12:58.918Z</time>
      </trkpt>
      <trkpt lat="66.27246" lon="13.21373">
        <ele>85.895893</ele>
        <time>2020-08-14T13:13:02.878Z</time>
      </trkpt>
      <trkpt lat="66.27245" lon="13.21399">
        <ele>86.242851</ele>
        <time>2020-08-14T13:13:07.876Z</time>
      </trkpt>
      <trkpt lat="66.27243" lon="13.21425">
        <ele>86.579391</ele>
        <time>2020-08-14T13:13:12.879Z</time>
      </trkpt>
      <trkpt lat="66.27242" lon="13.21448">
        <ele>86.893725</ele>
        <time>2020-08-14T13:13:17.876Z</time>
      </trkpt>
      <trkpt lat="66.2724" lon="13.21473">
        <ele>87.477863</ele>
        <time>2020-08-14T13:13:22.899Z</time>
      </trkpt>
      <trkpt lat="66.27238" lon="13.21498">
        <ele>88.246657</ele>
        <time>2020-08-14T13:13:27.903Z</time>
      </trkpt>
      <trkpt lat="66.27238" lon="13.21523">
        <ele>89.028768</ele>
        <time>2020-08-14T13:13:32.894Z</time>
      </trkpt>
      <trkpt lat="66.27237" lon="13.21548">
        <ele>89.806793</ele>
        <time>2020-08-14T13:13:37.889Z</time>
      </trkpt>
      <trkpt lat="66.27236" lon="13.21575">
        <ele>90.630134</ele>
        <time>2020-08-14T13:13:42.884Z</time>
      </trkpt>
      <trkpt lat="66.27234" lon="13.216">
        <ele>91.409553</ele>
        <time>2020-08-14T13:13:47.889Z</time>
      </trkpt>
      <trkpt lat="66.27232" lon="13.21626">
        <ele>92.206975</ele>
        <time>2020-08-14T13:13:52.875Z</time>
      </trkpt>
      <trkpt lat="66.27231" lon="13.2165">
        <ele>92.962304</ele>
        <time>2020-08-14T13:13:57.926Z</time>
      </trkpt>
      <trkpt lat="66.27229" lon="13.21673">
        <ele>93.679052</ele>
        <time>2020-08-14T13:14:02.888Z</time>
      </trkpt>
      <trkpt lat="66.27228" lon="13.21697">
        <ele>94.398609</ele>
        <time>2020-08-14T13:14:08.908Z</time>
      </trkpt>
      <trkpt lat="66.27227" lon="13.21723">
        <ele>95.189746</ele>
        <time>2020-08-14T13:14:14.895Z</time>
      </trkpt>
      <trkpt lat="66.27225" lon="13.21748">
        <ele>95.978917</ele>
        <time>2020-08-14T13:14:21.885Z</time>
      </trkpt>
      <trkpt lat="66.27222" lon="13.21772">
        <ele>96.770732</ele>
        <time>2020-08-14T13:14:27.873Z</time>
      </trkpt>
      <trkpt lat="66.27217" lon="13.21796">
        <ele>97.557017</ele>
        <time>2020-08-14T13:14:34.924Z</time>
      </trkpt>
      <trkpt lat="66.27213" lon="13.21816">
        <ele>98.248189</ele>
        <time>2020-08-14T13:14:40.928Z</time>
      </trkpt>
      <trkpt lat="66.27207" lon="13.21837">
        <ele>99.058142</ele>
        <time>2020-08-14T13:14:47.897Z</time>
      </trkpt>
      <trkpt lat="66.27201" lon="13.21855">
        <ele>99.77758</ele>
        <time>2020-08-14T13:14:53.892Z</time>
      </trkpt>
      <trkpt lat="66.27195" lon="13.21873">
        <ele>100.473198</ele>
        <time>2020-08-14T13:14:59.877Z</time>
      </trkpt>
      <trkpt lat="66.27188" lon="13.21891">
        <ele>101.334095</ele>
        <time>2020-08-14T13:15:06.870Z</time>
      </trkpt>
      <trkpt lat="66.27183" lon="13.2191">
        <ele>102.149561</ele>
        <time>2020-08-14T13:15:12.913Z</time>
      </trkpt>
      <trkpt lat="66.27176" lon="13.21928">
        <ele>103.049292</ele>
        <time>2020-08-14T13:15:19.895Z</time>
      </trkpt>
      <trkpt lat="66.27169" lon="13.21947">
        <ele>103.9223</ele>
        <time>2020-08-14T13:15:26.890Z</time>
      </trkpt>
      <trkpt lat="66.27162" lon="13.21966">
        <ele>104.840227</ele>
        <time>2020-08-14T13:15:33.885Z</time>
      </trkpt>
      <trkpt lat="66.27155" lon="13.21983">
        <ele>105.671282</ele>
        <time>2020-08-14T13:15:39.905Z</time>
      </trkpt>
      <trkpt lat="66.27149" lon="13.22004">
        <ele>106.591642</ele>
        <time>2020-08-14T13:15:46.883Z</time>
      </trkpt>
      <trkpt lat="66.27143" lon="13.22023">
        <ele>107.450573</ele>
        <time>2020-08-14T13:15:53.892Z</time>
      </trkpt>
      <trkpt lat="66.27138" lon="13.22042">
        <ele>108.288347</ele>
        <time>2020-08-14T13:16:00.896Z</time>
      </trkpt>
      <trkpt lat="66.27133" lon="13.22063">
        <ele>109.145978</ele>
        <time>2020-08-14T13:16:06.903Z</time>
      </trkpt>
      <trkpt lat="66.27129" lon="13.22085">
        <ele>109.952551</ele>
        <time>2020-08-14T13:16:12.874Z</time>
      </trkpt>
      <trkpt lat="66.27126" lon="13.22107">
        <ele>110.789435</ele>
        <time>2020-08-14T13:16:19.885Z</time>
      </trkpt>
      <trkpt lat="66.27123" lon="13.22129">
        <ele>111.596739</ele>
        <time>2020-08-14T13:16:25.891Z</time>
      </trkpt>
      <trkpt lat="66.27121" lon="13.22151">
        <ele>112.414602</ele>
        <time>2020-08-14T13:16:31.885Z</time>
      </trkpt>
      <trkpt lat="66.27118" lon="13.22172">
        <ele>113.217867</ele>
        <time>2020-08-14T13:16:37.892Z</time>
      </trkpt>
      <trkpt lat="66.27114" lon="13.22194">
        <ele>114.021133</ele>
        <time>2020-08-14T13:16:43.889Z</time>
      </trkpt>
      <trkpt lat="66.27112" lon="13.22215">
        <ele>114.81616</ele>
        <time>2020-08-14T13:16:49.888Z</time>
      </trkpt>
      <trkpt lat="66.2711" lon="13.22237">
        <ele>115.614993</ele>
        <time>2020-08-14T13:16:55.903Z</time>
      </trkpt>
      <trkpt lat="66.27106" lon="13.22259">
        <ele>116.447812</ele>
        <time>2020-08-14T13:17:01.879Z</time>
      </trkpt>
      <trkpt lat="66.27103" lon="13.22283">
        <ele>117.061863</ele>
        <time>2020-08-14T13:17:07.918Z</time>
      </trkpt>
      <trkpt lat="66.27101" lon="13.22308">
        <ele>117.681553</ele>
        <time>2020-08-14T13:17:14.877Z</time>
      </trkpt>
      <trkpt lat="66.271" lon="13.22333">
        <ele>118.298784</ele>
        <time>2020-08-14T13:17:21.878Z</time>
      </trkpt>
      <trkpt lat="66.27099" lon="13.22355">
        <ele>118.853286</ele>
        <time>2020-08-14T13:17:27.885Z</time>
      </trkpt>
      <trkpt lat="66.27099" lon="13.2238">
        <ele>119.457638</ele>
        <time>2020-08-14T13:17:34.889Z</time>
      </trkpt>
      <trkpt lat="66.27098" lon="13.22403">
        <ele>120.009757</ele>
        <time>2020-08-14T13:17:39.872Z</time>
      </trkpt>
      <trkpt lat="66.27099" lon="13.22429">
        <ele>120.648051</ele>
        <time>2020-08-14T13:17:45.894Z</time>
      </trkpt>
      <trkpt lat="66.27101" lon="13.22452">
        <ele>121.222961</ele>
        <time>2020-08-14T13:17:50.900Z</time>
      </trkpt>
      <trkpt lat="66.27103" lon="13.22474">
        <ele>121.772771</ele>
        <time>2020-08-14T13:17:55.889Z</time>
      </trkpt>
      <trkpt lat="66.27105" lon="13.22497">
        <ele>122.360468</ele>
        <time>2020-08-14T13:18:00.877Z</time>
      </trkpt>
      <trkpt lat="66.27108" lon="13.22519">
        <ele>122.925372</ele>
        <time>2020-08-14T13:18:05.890Z</time>
      </trkpt>
      <trkpt lat="66.27111" lon="13.22542">
        <ele>123.489732</ele>
        <time>2020-08-14T13:18:10.908Z</time>
      </trkpt>
      <trkpt lat="66.27113" lon="13.22564">
        <ele>124.065339</ele>
        <time>2020-08-14T13:18:15.897Z</time>
      </trkpt>
      <trkpt lat="66.27117" lon="13.22589">
        <ele>124.704349</ele>
        <time>2020-08-14T13:18:20.868Z</time>
      </trkpt>
      <trkpt lat="66.27119" lon="13.22612">
        <ele>125.280919</ele>
        <time>2020-08-14T13:18:25.891Z</time>
      </trkpt>
      <trkpt lat="66.27121" lon="13.22639">
        <ele>125.945672</ele>
        <time>2020-08-14T13:18:30.875Z</time>
      </trkpt>
      <trkpt lat="66.27124" lon="13.22663">
        <ele>126.54905</ele>
        <time>2020-08-14T13:18:35.890Z</time>
      </trkpt>
      <trkpt lat="66.27126" lon="13.22689">
        <ele>127.208465</ele>
        <time>2020-08-14T13:18:40.879Z</time>
      </trkpt>
      <trkpt lat="66.27126" lon="13.22715">
        <ele>128.083637</ele>
        <time>2020-08-14T13:18:45.905Z</time>
      </trkpt>
      <trkpt lat="66.27126" lon="13.22741">
        <ele>129.074145</ele>
        <time>2020-08-14T13:18:50.895Z</time>
      </trkpt>
      <trkpt lat="66.27125" lon="13.22768">
        <ele>130.088525</ele>
        <time>2020-08-14T13:18:55.895Z</time>
      </trkpt>
      <trkpt lat="66.27124" lon="13.22794">
        <ele>131.072079</ele>
        <time>2020-08-14T13:19:00.891Z</time>
      </trkpt>
      <trkpt lat="66.27124" lon="13.22817">
        <ele>131.952778</ele>
        <time>2020-08-14T13:19:05.868Z</time>
      </trkpt>
      <trkpt lat="66.27125" lon="13.22841">
        <ele>132.848554</ele>
        <time>2020-08-14T13:19:10.907Z</time>
      </trkpt>
      <trkpt lat="66.27126" lon="13.22866">
        <ele>133.821349</ele>
        <time>2020-08-14T13:19:16.893Z</time>
      </trkpt>
      <trkpt lat="66.27128" lon="13.22889">
        <ele>134.685901</ele>
        <time>2020-08-14T13:19:21.884Z</time>
      </trkpt>
      <trkpt lat="66.27129" lon="13.22913">
        <ele>135.602631</ele>
        <time>2020-08-14T13:19:27.876Z</time>
      </trkpt>
      <trkpt lat="66.27134" lon="13.22934">
        <ele>136.491859</ele>
        <time>2020-08-14T13:19:34.876Z</time>
      </trkpt>
      <trkpt lat="66.27141" lon="13.22953">
        <ele>137.465786</ele>
        <time>2020-08-14T13:19:40.878Z</time>
      </trkpt>
      <trkpt lat="66.27149" lon="13.22968">
        <ele>138.443635</ele>
        <time>2020-08-14T13:19:46.870Z</time>
      </trkpt>
      <trkpt lat="66.27158" lon="13.22976">
        <ele>139.299776</ele>
        <time>2020-08-14T13:19:51.875Z</time>
      </trkpt>
      <trkpt lat="66.27168" lon="13.22979">
        <ele>140.28367</ele>
        <time>2020-08-14T13:19:57.890Z</time>
      </trkpt>
      <trkpt lat="66.27177" lon="13.22978">
        <ele>141.166016</ele>
        <time>2020-08-14T13:20:02.930Z</time>
      </trkpt>
      <trkpt lat="66.27187" lon="13.22976">
        <ele>142.059969</ele>
        <time>2020-08-14T13:20:07.875Z</time>
      </trkpt>
      <trkpt lat="66.27196" lon="13.22975">
        <ele>142.906299</ele>
        <time>2020-08-14T13:20:12.888Z</time>
      </trkpt>
      <trkpt lat="66.27205" lon="13.22974">
        <ele>143.760261</ele>
        <time>2020-08-14T13:20:18.877Z</time>
      </trkpt>
      <trkpt lat="66.27215" lon="13.22971">
        <ele>144.573469</ele>
        <time>2020-08-14T13:20:24.869Z</time>
      </trkpt>
      <trkpt lat="66.27224" lon="13.22966">
        <ele>145.17788</ele>
        <time>2020-08-14T13:20:29.877Z</time>
      </trkpt>
      <trkpt lat="66.27234" lon="13.22958">
        <ele>145.844673</ele>
        <time>2020-08-14T13:20:35.875Z</time>
      </trkpt>
      <trkpt lat="66.27242" lon="13.22949">
        <ele>146.436642</ele>
        <time>2020-08-14T13:20:40.871Z</time>
      </trkpt>
      <trkpt lat="66.27251" lon="13.22943">
        <ele>147.048614</ele>
        <time>2020-08-14T13:20:45.888Z</time>
      </trkpt>
      <trkpt lat="66.2726" lon="13.22933">
        <ele>147.71631</ele>
        <time>2020-08-14T13:20:51.887Z</time>
      </trkpt>
      <trkpt lat="66.27269" lon="13.22921">
        <ele>148.376067</ele>
        <time>2020-08-14T13:20:57.917Z</time>
      </trkpt>
      <trkpt lat="66.27278" lon="13.22908">
        <ele>149.063325</ele>
        <time>2020-08-14T13:21:03.874Z</time>
      </trkpt>
      <trkpt lat="66.27286" lon="13.22892">
        <ele>149.698366</ele>
        <time>2020-08-14T13:21:09.879Z</time>
      </trkpt>
      <trkpt lat="66.27293" lon="13.22878">
        <ele>150.294575</ele>
        <time>2020-08-14T13:21:15.917Z</time>
      </trkpt>
      <trkpt lat="66.27301" lon="13.22864">
        <ele>150.958067</ele>
        <time>2020-08-14T13:21:22.908Z</time>
      </trkpt>
      <trkpt lat="66.2731" lon="13.22855">
        <ele>151.556073</ele>
        <time>2020-08-14T13:21:28.906Z</time>
      </trkpt>
      <trkpt lat="66.27319" lon="13.22849">
        <ele>152.185728</ele>
        <time>2020-08-14T13:21:34.884Z</time>
      </trkpt>
      <trkpt lat="66.27328" lon="13.22844">
        <ele>152.786948</ele>
        <time>2020-08-14T13:21:40.893Z</time>
      </trkpt>
      <trkpt lat="66.27337" lon="13.22845">
        <ele>153.40428</ele>
        <time>2020-08-14T13:21:46.892Z</time>
      </trkpt>
      <trkpt lat="66.27346" lon="13.22851">
        <ele>154.003447</ele>
        <time>2020-08-14T13:21:52.905Z</time>
      </trkpt>
      <trkpt lat="66.27354" lon="13.22862">
        <ele>154.606736</ele>
        <time>2020-08-14T13:21:58.904Z</time>
      </trkpt>
      <trkpt lat="66.27361" lon="13.22881">
        <ele>155.288012</ele>
        <time>2020-08-14T13:22:05.905Z</time>
      </trkpt>
      <trkpt lat="66.27366" lon="13.22901">
        <ele>155.914018</ele>
        <time>2020-08-14T13:22:12.917Z</time>
      </trkpt>
      <trkpt lat="66.27369" lon="13.22925">
        <ele>156.725355</ele>
        <time>2020-08-14T13:22:19.886Z</time>
      </trkpt>
      <trkpt lat="66.27373" lon="13.22946">
        <ele>157.506179</ele>
        <time>2020-08-14T13:22:25.904Z</time>
      </trkpt>
      <trkpt lat="66.27376" lon="13.22967">
        <ele>158.264992</ele>
        <time>2020-08-14T13:22:31.879Z</time>
      </trkpt>
      <trkpt lat="66.27381" lon="13.22987">
        <ele>159.026446</ele>
        <time>2020-08-14T13:22:37.869Z</time>
      </trkpt>
      <trkpt lat="66.27385" lon="13.23008">
        <ele>159.814701</ele>
        <time>2020-08-14T13:22:44.898Z</time>
      </trkpt>
      <trkpt lat="66.27389" lon="13.23031">
        <ele>160.685087</ele>
        <time>2020-08-14T13:22:51.879Z</time>
      </trkpt>
      <trkpt lat="66.27395" lon="13.23052">
        <ele>161.537553</ele>
        <time>2020-08-14T13:22:59.896Z</time>
      </trkpt>
      <trkpt lat="66.274" lon="13.2307">
        <ele>162.301153</ele>
        <time>2020-08-14T13:23:07.899Z</time>
      </trkpt>
      <trkpt lat="66.27406" lon="13.23089">
        <ele>163.08395</ele>
        <time>2020-08-14T13:23:15.914Z</time>
      </trkpt>
      <trkpt lat="66.27412" lon="13.23106">
        <ele>163.887169</ele>
        <time>2020-08-14T13:23:22.895Z</time>
      </trkpt>
      <trkpt lat="66.27419" lon="13.23122">
        <ele>164.67134</ele>
        <time>2020-08-14T13:23:29.872Z</time>
      </trkpt>
      <trkpt lat="66.27426" lon="13.23138">
        <ele>165.455509</ele>
        <time>2020-08-14T13:23:36.882Z</time>
      </trkpt>
      <trkpt lat="66.27433" lon="13.23155">
        <ele>166.276317</ele>
        <time>2020-08-14T13:23:43.888Z</time>
      </trkpt>
      <trkpt lat="66.27439" lon="13.23175">
        <ele>167.137454</ele>
        <time>2020-08-14T13:23:51.888Z</time>
      </trkpt>
      <trkpt lat="66.27446" lon="13.23194">
        <ele>167.979956</ele>
        <time>2020-08-14T13:23:58.889Z</time>
      </trkpt>
      <trkpt lat="66.27452" lon="13.23213">
        <ele>168.806665</ele>
        <time>2020-08-14T13:24:06.889Z</time>
      </trkpt>
      <trkpt lat="66.27458" lon="13.23233">
        <ele>169.654541</ele>
        <time>2020-08-14T13:24:14.878Z</time>
      </trkpt>
      <trkpt lat="66.27464" lon="13.2325">
        <ele>170.41547</ele>
        <time>2020-08-14T13:24:21.887Z</time>
      </trkpt>
      <trkpt lat="66.27469" lon="13.2327">
        <ele>171.195294</ele>
        <time>2020-08-14T13:24:28.891Z</time>
      </trkpt>
      <trkpt lat="66.27475" lon="13.23288">
        <ele>171.968576</ele>
        <time>2020-08-14T13:24:35.879Z</time>
      </trkpt>
      <trkpt lat="66.27483" lon="13.23301">
        <ele>172.709357</ele>
        <time>2020-08-14T13:24:41.878Z</time>
      </trkpt>
      <trkpt lat="66.27491" lon="13.23317">
        <ele>173.564056</ele>
        <time>2020-08-14T13:24:48.896Z</time>
      </trkpt>
      <trkpt lat="66.275" lon="13.23326">
        <ele>174.348248</ele>
        <time>2020-08-14T13:24:54.893Z</time>
      </trkpt>
      <trkpt lat="66.27509" lon="13.23332">
        <ele>175.121357</ele>
        <time>2020-08-14T13:25:00.907Z</time>
      </trkpt>
      <trkpt lat="66.27518" lon="13.23341">
        <ele>175.899784</ele>
        <time>2020-08-14T13:25:06.877Z</time>
      </trkpt>
      <trkpt lat="66.27528" lon="13.2335">
        <ele>176.759533</ele>
        <time>2020-08-14T13:25:12.871Z</time>
      </trkpt>
      <trkpt lat="66.27536" lon="13.23364">
        <ele>177.537468</ele>
        <time>2020-08-14T13:25:18.876Z</time>
      </trkpt>
      <trkpt lat="66.27543" lon="13.23381">
        <ele>178.324575</ele>
        <time>2020-08-14T13:25:24.887Z</time>
      </trkpt>
      <trkpt lat="66.27548" lon="13.23399">
        <ele>179.091624</ele>
        <time>2020-08-14T13:25:30.897Z</time>
      </trkpt>
      <trkpt lat="66.2755" lon="13.23423">
        <ele>179.873108</ele>
        <time>2020-08-14T13:25:36.951Z</time>
      </trkpt>
      <trkpt lat="66.27545" lon="13.23443">
        <ele>180.678968</ele>
        <time>2020-08-14T13:25:43.910Z</time>
      </trkpt>
      <trkpt lat="66.27537" lon="13.23456">
        <ele>181.446277</ele>
        <time>2020-08-14T13:25:49.908Z</time>
      </trkpt>
      <trkpt lat="66.27528" lon="13.23465">
        <ele>182.194786</ele>
        <time>2020-08-14T13:25:55.888Z</time>
      </trkpt>
      <trkpt lat="66.27519" lon="13.23469">
        <ele>182.919541</ele>
        <time>2020-08-14T13:26:01.885Z</time>
      </trkpt>
      <trkpt lat="66.27509" lon="13.23471">
        <ele>183.718714</ele>
        <time>2020-08-14T13:26:08.923Z</time>
      </trkpt>
      <trkpt lat="66.275" lon="13.23475">
        <ele>184.512334</ele>
        <time>2020-08-14T13:26:15.902Z</time>
      </trkpt>
      <trkpt lat="66.2749" lon="13.2348">
        <ele>185.353979</ele>
        <time>2020-08-14T13:26:22.905Z</time>
      </trkpt>
      <trkpt lat="66.2748" lon="13.23483">
        <ele>186.039769</ele>
        <time>2020-08-14T13:26:29.898Z</time>
      </trkpt>
      <trkpt lat="66.2747" lon="13.23485">
        <ele>186.656307</ele>
        <time>2020-08-14T13:26:36.870Z</time>
      </trkpt>
      <trkpt lat="66.2746" lon="13.23488">
        <ele>187.282588</ele>
        <time>2020-08-14T13:26:43.915Z</time>
      </trkpt>
      <trkpt lat="66.2745" lon="13.23491">
        <ele>187.884149</ele>
        <time>2020-08-14T13:26:49.869Z</time>
      </trkpt>
      <trkpt lat="66.27441" lon="13.23495">
        <ele>188.458636</ele>
        <time>2020-08-14T13:26:55.877Z</time>
      </trkpt>
      <trkpt lat="66.27432" lon="13.23501">
        <ele>189.021934</ele>
        <time>2020-08-14T13:27:01.883Z</time>
      </trkpt>
      <trkpt lat="66.27423" lon="13.2351">
        <ele>189.642994</ele>
        <time>2020-08-14T13:27:08.883Z</time>
      </trkpt>
      <trkpt lat="66.27414" lon="13.23517">
        <ele>190.226094</ele>
        <time>2020-08-14T13:27:15.896Z</time>
      </trkpt>
      <trkpt lat="66.27405" lon="13.23532">
        <ele>190.868761</ele>
        <time>2020-08-14T13:27:22.873Z</time>
      </trkpt>
      <trkpt lat="66.27397" lon="13.23549">
        <ele>191.492516</ele>
        <time>2020-08-14T13:27:28.890Z</time>
      </trkpt>
      <trkpt lat="66.2739" lon="13.23567">
        <ele>192.136383</ele>
        <time>2020-08-14T13:27:34.895Z</time>
      </trkpt>
      <trkpt lat="66.27384" lon="13.23585">
        <ele>192.697514</ele>
        <time>2020-08-14T13:27:40.905Z</time>
      </trkpt>
      <trkpt lat="66.27378" lon="13.23604">
        <ele>193.305318</ele>
        <time>2020-08-14T13:27:47.891Z</time>
      </trkpt>
      <trkpt lat="66.27373" lon="13.23625">
        <ele>193.90399</ele>
        <time>2020-08-14T13:27:54.898Z</time>
      </trkpt>
      <trkpt lat="66.27369" lon="13.23648">
        <ele>194.508546</ele>
        <time>2020-08-14T13:28:01.898Z</time>
      </trkpt>
      <trkpt lat="66.27366" lon="13.23669">
        <ele>195.076433</ele>
        <time>2020-08-14T13:28:08.911Z</time>
      </trkpt>
      <trkpt lat="66.27365" lon="13.23692">
        <ele>195.637476</ele>
        <time>2020-08-14T13:28:16.888Z</time>
      </trkpt>
      <trkpt lat="66.27365" lon="13.23716">
        <ele>196.239178</ele>
        <time>2020-08-14T13:28:24.878Z</time>
      </trkpt>
      <trkpt lat="66.27364" lon="13.2374">
        <ele>196.869907</ele>
        <time>2020-08-14T13:28:31.892Z</time>
      </trkpt>
      <trkpt lat="66.27364" lon="13.23765">
        <ele>197.742127</ele>
        <time>2020-08-14T13:28:38.891Z</time>
      </trkpt>
      <trkpt lat="66.27364" lon="13.2379">
        <ele>198.643035</ele>
        <time>2020-08-14T13:28:45.894Z</time>
      </trkpt>
      <trkpt lat="66.27364" lon="13.23814">
        <ele>199.522427</ele>
        <time>2020-08-14T13:28:52.923Z</time>
      </trkpt>
      <trkpt lat="66.27365" lon="13.23838">
        <ele>200.369345</ele>
        <time>2020-08-14T13:28:58.902Z</time>
      </trkpt>
      <trkpt lat="66.27363" lon="13.23863">
        <ele>201.299794</ele>
        <time>2020-08-14T13:29:05.897Z</time>
      </trkpt>
      <trkpt lat="66.27361" lon="13.23886">
        <ele>202.128123</ele>
        <time>2020-08-14T13:29:12.904Z</time>
      </trkpt>
      <trkpt lat="66.27359" lon="13.23907">
        <ele>202.932051</ele>
        <time>2020-08-14T13:29:19.876Z</time>
      </trkpt>
      <trkpt lat="66.27356" lon="13.2393">
        <ele>203.752322</ele>
        <time>2020-08-14T13:29:26.897Z</time>
      </trkpt>
      <trkpt lat="66.27354" lon="13.23951">
        <ele>204.558012</ele>
        <time>2020-08-14T13:29:33.911Z</time>
      </trkpt>
      <trkpt lat="66.27351" lon="13.23974">
        <ele>205.412486</ele>
        <time>2020-08-14T13:29:40.887Z</time>
      </trkpt>
      <trkpt lat="66.27351" lon="13.23999">
        <ele>206.289521</ele>
        <time>2020-08-14T13:29:48.917Z</time>
      </trkpt>
      <trkpt lat="66.27349" lon="13.24023">
        <ele>207.182175</ele>
        <time>2020-08-14T13:29:55.930Z</time>
      </trkpt>
      <trkpt lat="66.2735" lon="13.24047">
        <ele>208.033631</ele>
        <time>2020-08-14T13:30:02.871Z</time>
      </trkpt>
      <trkpt lat="66.27352" lon="13.24069">
        <ele>208.858803</ele>
        <time>2020-08-14T13:30:09.918Z</time>
      </trkpt>
      <trkpt lat="66.27355" lon="13.24093">
        <ele>209.754406</ele>
        <time>2020-08-14T13:30:16.872Z</time>
      </trkpt>
      <trkpt lat="66.27356" lon="13.24116">
        <ele>210.594786</ele>
        <time>2020-08-14T13:30:23.891Z</time>
      </trkpt>
      <trkpt lat="66.2736" lon="13.24138">
        <ele>211.440298</ele>
        <time>2020-08-14T13:30:30.899Z</time>
      </trkpt>
      <trkpt lat="66.27362" lon="13.24162">
        <ele>212.320555</ele>
        <time>2020-08-14T13:30:37.881Z</time>
      </trkpt>
      <trkpt lat="66.27366" lon="13.24183">
        <ele>213.079889</ele>
        <time>2020-08-14T13:30:44.896Z</time>
      </trkpt>
      <trkpt lat="66.2737" lon="13.24207">
        <ele>213.779796</ele>
        <time>2020-08-14T13:30:51.878Z</time>
      </trkpt>
      <trkpt lat="66.27374" lon="13.24229">
        <ele>214.445297</ele>
        <time>2020-08-14T13:30:58.881Z</time>
      </trkpt>
      <trkpt lat="66.27377" lon="13.2425">
        <ele>215.085235</ele>
        <time>2020-08-14T13:31:05.901Z</time>
      </trkpt>
      <trkpt lat="66.27381" lon="13.24273">
        <ele>215.781205</ele>
        <time>2020-08-14T13:31:13.890Z</time>
      </trkpt>
      <trkpt lat="66.27387" lon="13.24291">
        <ele>216.437126</ele>
        <time>2020-08-14T13:31:20.889Z</time>
      </trkpt>
      <trkpt lat="66.2739" lon="13.24312">
        <ele>217.056343</ele>
        <time>2020-08-14T13:31:27.917Z</time>
      </trkpt>
      <trkpt lat="66.27395" lon="13.24332">
        <ele>217.684468</ele>
        <time>2020-08-14T13:31:35.885Z</time>
      </trkpt>
      <trkpt lat="66.27399" lon="13.24355">
        <ele>218.383031</ele>
        <time>2020-08-14T13:31:42.881Z</time>
      </trkpt>
      <trkpt lat="66.27405" lon="13.24373">
        <ele>219.032663</ele>
        <time>2020-08-14T13:31:49.888Z</time>
      </trkpt>
      <trkpt lat="66.2741" lon="13.24394">
        <ele>219.69455</ele>
        <time>2020-08-14T13:31:56.889Z</time>
      </trkpt>
      <trkpt lat="66.27416" lon="13.24412">
        <ele>220.346014</ele>
        <time>2020-08-14T13:32:03.887Z</time>
      </trkpt>
      <trkpt lat="66.27421" lon="13.24434">
        <ele>221.046945</ele>
        <time>2020-08-14T13:32:10.888Z</time>
      </trkpt>
      <trkpt lat="66.27425" lon="13.24455">
        <ele>221.699125</ele>
        <time>2020-08-14T13:32:16.922Z</time>
      </trkpt>
      <trkpt lat="66.27429" lon="13.24478">
        <ele>222.40038</ele>
        <time>2020-08-14T13:32:22.890Z</time>
      </trkpt>
      <trkpt lat="66.27433" lon="13.24498">
        <ele>223.021734</ele>
        <time>2020-08-14T13:32:28.874Z</time>
      </trkpt>
      <trkpt lat="66.27436" lon="13.24522">
        <ele>223.694872</ele>
        <time>2020-08-14T13:32:34.896Z</time>
      </trkpt>
      <trkpt lat="66.27439" lon="13.24545">
        <ele>224.375302</ele>
        <time>2020-08-14T13:32:40.872Z</time>
      </trkpt>
      <trkpt lat="66.2744" lon="13.24568">
        <ele>225.022551</ele>
        <time>2020-08-14T13:32:46.858Z</time>
      </trkpt>
      <trkpt lat="66.27441" lon="13.24591">
        <ele>225.885069</ele>
        <time>2020-08-14T13:32:52.923Z</time>
      </trkpt>
      <trkpt lat="66.27442" lon="13.24615">
        <ele>226.847597</ele>
        <time>2020-08-14T13:32:59.889Z</time>
      </trkpt>
      <trkpt lat="66.27442" lon="13.24639">
        <ele>227.792739</ele>
        <time>2020-08-14T13:33:06.868Z</time>
      </trkpt>
      <trkpt lat="66.27443" lon="13.24662">
        <ele>228.744478</ele>
        <time>2020-08-14T13:33:13.888Z</time>
      </trkpt>
      <trkpt lat="66.27442" lon="13.24685">
        <ele>229.649898</ele>
        <time>2020-08-14T13:33:20.886Z</time>
      </trkpt>
      <trkpt lat="66.27442" lon="13.24708">
        <ele>230.570367</ele>
        <time>2020-08-14T13:33:26.892Z</time>
      </trkpt>
      <trkpt lat="66.27439" lon="13.24734">
        <ele>231.636917</ele>
        <time>2020-08-14T13:33:34.917Z</time>
      </trkpt>
      <trkpt lat="66.27438" lon="13.24757">
        <ele>232.598921</ele>
        <time>2020-08-14T13:33:40.898Z</time>
      </trkpt>
      <trkpt lat="66.27436" lon="13.2478">
        <ele>233.536562</ele>
        <time>2020-08-14T13:33:46.877Z</time>
      </trkpt>
      <trkpt lat="66.27434" lon="13.24804">
        <ele>234.514976</ele>
        <time>2020-08-14T13:33:53.929Z</time>
      </trkpt>
      <trkpt lat="66.27432" lon="13.24827">
        <ele>235.467968</ele>
        <time>2020-08-14T13:33:59.869Z</time>
      </trkpt>
      <trkpt lat="66.27431" lon="13.24852">
        <ele>236.450388</ele>
        <time>2020-08-14T13:34:06.909Z</time>
      </trkpt>
      <trkpt lat="66.27431" lon="13.24876">
        <ele>237.453634</ele>
        <time>2020-08-14T13:34:13.879Z</time>
      </trkpt>
      <trkpt lat="66.27432" lon="13.24903">
        <ele>238.509093</ele>
        <time>2020-08-14T13:34:21.879Z</time>
      </trkpt>
      <trkpt lat="66.27437" lon="13.24924">
        <ele>239.497418</ele>
        <time>2020-08-14T13:34:28.878Z</time>
      </trkpt>
      <trkpt lat="66.27446" lon="13.24934">
        <ele>240.452204</ele>
        <time>2020-08-14T13:34:34.900Z</time>
      </trkpt>
      <trkpt lat="66.27455" lon="13.24938">
        <ele>241.449865</ele>
        <time>2020-08-14T13:34:40.888Z</time>
      </trkpt>
      <trkpt lat="66.27465" lon="13.24942">
        <ele>242.409262</ele>
        <time>2020-08-14T13:34:46.879Z</time>
      </trkpt>
      <trkpt lat="66.27474" lon="13.2494">
        <ele>243.294185</ele>
        <time>2020-08-14T13:34:51.888Z</time>
      </trkpt>
      <trkpt lat="66.27484" lon="13.24935">
        <ele>243.931087</ele>
        <time>2020-08-14T13:34:57.895Z</time>
      </trkpt>
      <trkpt lat="66.27493" lon="13.24928">
        <ele>244.586259</ele>
        <time>2020-08-14T13:35:03.887Z</time>
      </trkpt>
      <trkpt lat="66.27502" lon="13.24921">
        <ele>245.246276</ele>
        <time>2020-08-14T13:35:10.891Z</time>
      </trkpt>
      <trkpt lat="66.27511" lon="13.24915">
        <ele>245.890976</ele>
        <time>2020-08-14T13:35:17.894Z</time>
      </trkpt>
      <trkpt lat="66.27521" lon="13.2491">
        <ele>246.521297</ele>
        <time>2020-08-14T13:35:24.881Z</time>
      </trkpt>
      <trkpt lat="66.2753" lon="13.24906">
        <ele>247.185046</ele>
        <time>2020-08-14T13:35:32.894Z</time>
      </trkpt>
      <trkpt lat="66.2754" lon="13.24905">
        <ele>247.874132</ele>
        <time>2020-08-14T13:35:40.891Z</time>
      </trkpt>
      <trkpt lat="66.27551" lon="13.24904">
        <ele>248.55637</ele>
        <time>2020-08-14T13:35:48.881Z</time>
      </trkpt>
      <trkpt lat="66.2756" lon="13.24903">
        <ele>249.205105</ele>
        <time>2020-08-14T13:35:55.895Z</time>
      </trkpt>
      <trkpt lat="66.2757" lon="13.249">
        <ele>249.879754</ele>
        <time>2020-08-14T13:36:03.905Z</time>
      </trkpt>
      <trkpt lat="66.27579" lon="13.24899">
        <ele>250.514771</ele>
        <time>2020-08-14T13:36:10.908Z</time>
      </trkpt>
      <trkpt lat="66.27589" lon="13.24901">
        <ele>251.184481</ele>
        <time>2020-08-14T13:36:17.909Z</time>
      </trkpt>
      <trkpt lat="66.27599" lon="13.24899">
        <ele>251.85402</ele>
        <time>2020-08-14T13:36:25.886Z</time>
      </trkpt>
      <trkpt lat="66.27609" lon="13.24902">
        <ele>252.487436</ele>
        <time>2020-08-14T13:36:33.875Z</time>
      </trkpt>
      <trkpt lat="66.27618" lon="13.24903">
        <ele>253.095369</ele>
        <time>2020-08-14T13:36:40.890Z</time>
      </trkpt>
      <trkpt lat="66.27627" lon="13.24905">
        <ele>253.738738</ele>
        <time>2020-08-14T13:36:47.959Z</time>
      </trkpt>
      <trkpt lat="66.27636" lon="13.24907">
        <ele>254.34847</ele>
        <time>2020-08-14T13:36:54.897Z</time>
      </trkpt>
      <trkpt lat="66.27646" lon="13.24913">
        <ele>255.052077</ele>
        <time>2020-08-14T13:37:02.911Z</time>
      </trkpt>
      <trkpt lat="66.27655" lon="13.2492">
        <ele>255.520216</ele>
        <time>2020-08-14T13:37:08.873Z</time>
      </trkpt>
      <trkpt lat="66.27665" lon="13.24928">
        <ele>255.892715</ele>
        <time>2020-08-14T13:37:14.897Z</time>
      </trkpt>
      <trkpt lat="66.27674" lon="13.24937">
        <ele>256.222808</ele>
        <time>2020-08-14T13:37:20.929Z</time>
      </trkpt>
      <trkpt lat="66.27682" lon="13.24943">
        <ele>256.545588</ele>
        <time>2020-08-14T13:37:26.906Z</time>
      </trkpt>
      <trkpt lat="66.27693" lon="13.24947">
        <ele>256.923488</ele>
        <time>2020-08-14T13:37:32.897Z</time>
      </trkpt>
      <trkpt lat="66.27702" lon="13.24951">
        <ele>257.265017</ele>
        <time>2020-08-14T13:37:37.895Z</time>
      </trkpt>
      <trkpt lat="66.27711" lon="13.2495">
        <ele>257.588357</ele>
        <time>2020-08-14T13:37:42.887Z</time>
      </trkpt>
      <trkpt lat="66.27721" lon="13.24946">
        <ele>257.940975</ele>
        <time>2020-08-14T13:37:48.885Z</time>
      </trkpt>
      <trkpt lat="66.2773" lon="13.24939">
        <ele>258.303676</ele>
        <time>2020-08-14T13:37:54.876Z</time>
      </trkpt>
      <trkpt lat="66.2774" lon="13.24934">
        <ele>258.647291</ele>
        <time>2020-08-14T13:38:00.906Z</time>
      </trkpt>
      <trkpt lat="66.27749" lon="13.24926">
        <ele>259.012503</ele>
        <time>2020-08-14T13:38:06.875Z</time>
      </trkpt>
      <trkpt lat="66.27758" lon="13.24912">
        <ele>259.365132</ele>
        <time>2020-08-14T13:38:12.899Z</time>
      </trkpt>
      <trkpt lat="66.27766" lon="13.24902">
        <ele>259.696976</ele>
        <time>2020-08-14T13:38:18.878Z</time>
      </trkpt>
      <trkpt lat="66.27773" lon="13.24887">
        <ele>260.047258</ele>
        <time>2020-08-14T13:38:24.882Z</time>
      </trkpt>
      <trkpt lat="66.27779" lon="13.24869">
        <ele>260.380418</ele>
        <time>2020-08-14T13:38:30.913Z</time>
      </trkpt>
      <trkpt lat="66.27785" lon="13.24848">
        <ele>260.744839</ele>
        <time>2020-08-14T13:38:37.886Z</time>
      </trkpt>
      <trkpt lat="66.2779" lon="13.24824">
        <ele>261.129783</ele>
        <time>2020-08-14T13:38:43.932Z</time>
      </trkpt>
      <trkpt lat="66.27794" lon="13.24802">
        <ele>261.495147</ele>
        <time>2020-08-14T13:38:49.872Z</time>
      </trkpt>
      <trkpt lat="66.27797" lon="13.24776">
        <ele>261.949675</ele>
        <time>2020-08-14T13:38:56.892Z</time>
      </trkpt>
      <trkpt lat="66.27801" lon="13.24755">
        <ele>262.487266</ele>
        <time>2020-08-14T13:39:01.901Z</time>
      </trkpt>
      <trkpt lat="66.27804" lon="13.24732">
        <ele>263.074158</ele>
        <time>2020-08-14T13:39:06.887Z</time>
      </trkpt>
      <trkpt lat="66.27807" lon="13.24707">
        <ele>263.696211</ele>
        <time>2020-08-14T13:39:12.894Z</time>
      </trkpt>
      <trkpt lat="66.27809" lon="13.24684">
        <ele>264.278183</ele>
        <time>2020-08-14T13:39:18.913Z</time>
      </trkpt>
      <trkpt lat="66.27814" lon="13.2466">
        <ele>264.905628</ele>
        <time>2020-08-14T13:39:24.906Z</time>
      </trkpt>
      <trkpt lat="66.27819" lon="13.24639">
        <ele>265.501135</ele>
        <time>2020-08-14T13:39:30.895Z</time>
      </trkpt>
      <trkpt lat="66.27824" lon="13.24616">
        <ele>266.130458</ele>
        <time>2020-08-14T13:39:36.897Z</time>
      </trkpt>
      <trkpt lat="66.27831" lon="13.24599">
        <ele>266.694917</ele>
        <time>2020-08-14T13:39:42.908Z</time>
      </trkpt>
      <trkpt lat="66.27839" lon="13.24588">
        <ele>267.233803</ele>
        <time>2020-08-14T13:39:48.885Z</time>
      </trkpt>
      <trkpt lat="66.27848" lon="13.24581">
        <ele>267.82594</ele>
        <time>2020-08-14T13:39:54.921Z</time>
      </trkpt>
      <trkpt lat="66.27857" lon="13.24585">
        <ele>268.362191</ele>
        <time>2020-08-14T13:39:59.884Z</time>
      </trkpt>
      <trkpt lat="66.27865" lon="13.24601">
        <ele>268.990043</ele>
        <time>2020-08-14T13:40:05.867Z</time>
      </trkpt>
      <trkpt lat="66.27869" lon="13.24622">
        <ele>269.543305</ele>
        <time>2020-08-14T13:40:11.885Z</time>
      </trkpt>
      <trkpt lat="66.27869" lon="13.24648">
        <ele>270.146625</ele>
        <time>2020-08-14T13:40:18.892Z</time>
      </trkpt>
      <trkpt lat="66.27868" lon="13.24671">
        <ele>270.71304</ele>
        <time>2020-08-14T13:40:24.887Z</time>
      </trkpt>
      <trkpt lat="66.27866" lon="13.24694">
        <ele>271.270692</ele>
        <time>2020-08-14T13:40:30.880Z</time>
      </trkpt>
      <trkpt lat="66.27864" lon="13.24717">
        <ele>271.850678</ele>
        <time>2020-08-14T13:40:37.905Z</time>
      </trkpt>
      <trkpt lat="66.27862" lon="13.2474">
        <ele>272.401996</ele>
        <time>2020-08-14T13:40:43.921Z</time>
      </trkpt>
      <trkpt lat="66.27861" lon="13.24765">
        <ele>273.159211</ele>
        <time>2020-08-14T13:40:50.905Z</time>
      </trkpt>
      <trkpt lat="66.27861" lon="13.24788">
        <ele>273.887705</ele>
        <time>2020-08-14T13:40:56.951Z</time>
      </trkpt>
      <trkpt lat="66.2786" lon="13.24814">
        <ele>274.694548</ele>
        <time>2020-08-14T13:41:03.900Z</time>
      </trkpt>
      <trkpt lat="66.2786" lon="13.24839">
        <ele>275.479264</ele>
        <time>2020-08-14T13:41:10.896Z</time>
      </trkpt>
      <trkpt lat="66.27861" lon="13.24863">
        <ele>276.214004</ele>
        <time>2020-08-14T13:41:16.867Z</time>
      </trkpt>
      <trkpt lat="66.27861" lon="13.24887">
        <ele>276.98373</ele>
        <time>2020-08-14T13:41:23.888Z</time>
      </trkpt>
      <trkpt lat="66.27861" lon="13.24911">
        <ele>277.718264</ele>
        <time>2020-08-14T13:41:30.892Z</time>
      </trkpt>
      <trkpt lat="66.27861" lon="13.24936">
        <ele>278.512617</ele>
        <time>2020-08-14T13:41:37.911Z</time>
      </trkpt>
      <trkpt lat="66.27862" lon="13.2496">
        <ele>279.252726</ele>
        <time>2020-08-14T13:41:43.885Z</time>
      </trkpt>
      <trkpt lat="66.27862" lon="13.24982">
        <ele>279.959014</ele>
        <time>2020-08-14T13:41:49.877Z</time>
      </trkpt>
      <trkpt lat="66.27861" lon="13.25007">
        <ele>280.749857</ele>
        <time>2020-08-14T13:41:56.880Z</time>
      </trkpt>
      <trkpt lat="66.27861" lon="13.25033">
        <ele>281.537505</ele>
        <time>2020-08-14T13:42:03.908Z</time>
      </trkpt>
      <trkpt lat="66.2786" lon="13.25055">
        <ele>282.257122</ele>
        <time>2020-08-14T13:42:09.900Z</time>
      </trkpt>
      <trkpt lat="66.27858" lon="13.25078">
        <ele>282.987898</ele>
        <time>2020-08-14T13:42:15.888Z</time>
      </trkpt>
      <trkpt lat="66.27857" lon="13.25101">
        <ele>283.697172</ele>
        <time>2020-08-14T13:42:21.875Z</time>
      </trkpt>
      <trkpt lat="66.27856" lon="13.25124">
        <ele>284.424204</ele>
        <time>2020-08-14T13:42:27.903Z</time>
      </trkpt>
      <trkpt lat="66.27856" lon="13.25147">
        <ele>285.129426</ele>
        <time>2020-08-14T13:42:33.877Z</time>
      </trkpt>
      <trkpt lat="66.27856" lon="13.25173">
        <ele>285.945084</ele>
        <time>2020-08-14T13:42:40.885Z</time>
      </trkpt>
      <trkpt lat="66.27855" lon="13.25198">
        <ele>286.732992</ele>
        <time>2020-08-14T13:42:47.875Z</time>
      </trkpt>
      <trkpt lat="66.27855" lon="13.25223">
        <ele>287.460088</ele>
        <time>2020-08-14T13:42:54.932Z</time>
      </trkpt>
      <trkpt lat="66.27855" lon="13.25248">
        <ele>288.225957</ele>
        <time>2020-08-14T13:43:01.916Z</time>
      </trkpt>
      <trkpt lat="66.27857" lon="13.25272">
        <ele>288.948473</ele>
        <time>2020-08-14T13:43:07.897Z</time>
      </trkpt>
      <trkpt lat="66.27859" lon="13.25295">
        <ele>289.664087</ele>
        <time>2020-08-14T13:43:14.882Z</time>
      </trkpt>
      <trkpt lat="66.27863" lon="13.25318">
        <ele>290.434088</ele>
        <time>2020-08-14T13:43:21.896Z</time>
      </trkpt>
      <trkpt lat="66.2787" lon="13.25337">
        <ele>291.19262</ele>
        <time>2020-08-14T13:43:29.909Z</time>
      </trkpt>
      <trkpt lat="66.27875" lon="13.25357">
        <ele>291.878145</ele>
        <time>2020-08-14T13:43:35.905Z</time>
      </trkpt>
      <trkpt lat="66.2788" lon="13.25379">
        <ele>292.61709</ele>
        <time>2020-08-14T13:43:41.896Z</time>
      </trkpt>
      <trkpt lat="66.27886" lon="13.25399">
        <ele>293.382287</ele>
        <time>2020-08-14T13:43:48.884Z</time>
      </trkpt>
      <trkpt lat="66.27891" lon="13.25417">
        <ele>294.048264</ele>
        <time>2020-08-14T13:43:54.896Z</time>
      </trkpt>
      <trkpt lat="66.27897" lon="13.25436">
        <ele>294.766276</ele>
        <time>2020-08-14T13:44:00.896Z</time>
      </trkpt>
      <trkpt lat="66.27902" lon="13.25459">
        <ele>295.546009</ele>
        <time>2020-08-14T13:44:06.929Z</time>
      </trkpt>
      <trkpt lat="66.27907" lon="13.2548">
        <ele>296.285083</ele>
        <time>2020-08-14T13:44:12.907Z</time>
      </trkpt>
      <trkpt lat="66.27911" lon="13.25501">
        <ele>296.985566</ele>
        <time>2020-08-14T13:44:18.882Z</time>
      </trkpt>
      <trkpt lat="66.27917" lon="13.25523">
        <ele>297.737333</ele>
        <time>2020-08-14T13:44:25.891Z</time>
      </trkpt>
      <trkpt lat="66.27921" lon="13.25543">
        <ele>298.443185</ele>
        <time>2020-08-14T13:44:32.886Z</time>
      </trkpt>
      <trkpt lat="66.27924" lon="13.25564">
        <ele>299.110205</ele>
        <time>2020-08-14T13:44:39.908Z</time>
      </trkpt>
      <trkpt lat="66.27927" lon="13.25588">
        <ele>299.853704</ele>
        <time>2020-08-14T13:44:46.877Z</time>
      </trkpt>
      <trkpt lat="66.27931" lon="13.25611">
        <ele>300.687969</ele>
        <time>2020-08-14T13:44:52.890Z</time>
      </trkpt>
      <trkpt lat="66.27935" lon="13.25633">
        <ele>301.480293</ele>
        <time>2020-08-14T13:44:58.876Z</time>
      </trkpt>
      <trkpt lat="66.2794" lon="13.25653">
        <ele>302.28704</ele>
        <time>2020-08-14T13:45:05.892Z</time>
      </trkpt>
      <trkpt lat="66.27945" lon="13.25673">
        <ele>303.082836</ele>
        <time>2020-08-14T13:45:12.889Z</time>
      </trkpt>
      <trkpt lat="66.2795" lon="13.25696">
        <ele>303.926985</ele>
        <time>2020-08-14T13:45:19.893Z</time>
      </trkpt>
      <trkpt lat="66.27956" lon="13.25717">
        <ele>304.766353</ele>
        <time>2020-08-14T13:45:26.888Z</time>
      </trkpt>
      <trkpt lat="66.27963" lon="13.25735">
        <ele>305.628321</ele>
        <time>2020-08-14T13:45:33.904Z</time>
      </trkpt>
      <trkpt lat="66.27969" lon="13.25751">
        <ele>306.38681</ele>
        <time>2020-08-14T13:45:39.914Z</time>
      </trkpt>
      <trkpt lat="66.27977" lon="13.25768">
        <ele>307.258319</ele>
        <time>2020-08-14T13:45:46.898Z</time>
      </trkpt>
      <trkpt lat="66.27984" lon="13.25785">
        <ele>308.047248</ele>
        <time>2020-08-14T13:45:52.874Z</time>
      </trkpt>
      <trkpt lat="66.27992" lon="13.25802">
        <ele>308.891339</ele>
        <time>2020-08-14T13:45:59.889Z</time>
      </trkpt>
      <trkpt lat="66.27999" lon="13.25816">
        <ele>309.643931</ele>
        <time>2020-08-14T13:46:05.904Z</time>
      </trkpt>
      <trkpt lat="66.28006" lon="13.25832">
        <ele>310.456192</ele>
        <time>2020-08-14T13:46:11.897Z</time>
      </trkpt>
      <trkpt lat="66.28014" lon="13.25847">
        <ele>311.261893</ele>
        <time>2020-08-14T13:46:18.888Z</time>
      </trkpt>
      <trkpt lat="66.28021" lon="13.25865">
        <ele>312.129495</ele>
        <time>2020-08-14T13:46:25.890Z</time>
      </trkpt>
      <trkpt lat="66.28029" lon="13.25881">
        <ele>312.950142</ele>
        <time>2020-08-14T13:46:31.885Z</time>
      </trkpt>
      <trkpt lat="66.28036" lon="13.25897">
        <ele>313.732066</ele>
        <time>2020-08-14T13:46:37.894Z</time>
      </trkpt>
      <trkpt lat="66.28043" lon="13.25913">
        <ele>314.561635</ele>
        <time>2020-08-14T13:46:44.874Z</time>
      </trkpt>
      <trkpt lat="66.28051" lon="13.25929">
        <ele>315.169778</ele>
        <time>2020-08-14T13:46:51.910Z</time>
      </trkpt>
      <trkpt lat="66.28058" lon="13.25946">
        <ele>315.715267</ele>
        <time>2020-08-14T13:46:59.897Z</time>
      </trkpt>
      <trkpt lat="66.28066" lon="13.25963">
        <ele>316.272067</ele>
        <time>2020-08-14T13:47:07.890Z</time>
      </trkpt>
      <trkpt lat="66.28074" lon="13.25978">
        <ele>316.805945</ele>
        <time>2020-08-14T13:47:14.908Z</time>
      </trkpt>
      <trkpt lat="66.28081" lon="13.25992">
        <ele>317.303369</ele>
        <time>2020-08-14T13:47:20.910Z</time>
      </trkpt>
      <trkpt lat="66.28087" lon="13.26009">
        <ele>317.815815</ele>
        <time>2020-08-14T13:47:26.886Z</time>
      </trkpt>
      <trkpt lat="66.28094" lon="13.26026">
        <ele>318.339613</ele>
        <time>2020-08-14T13:47:32.883Z</time>
      </trkpt>
      <trkpt lat="66.28102" lon="13.26043">
        <ele>318.89313</ele>
        <time>2020-08-14T13:47:39.902Z</time>
      </trkpt>
      <trkpt lat="66.28108" lon="13.26059">
        <ele>319.386343</ele>
        <time>2020-08-14T13:47:45.916Z</time>
      </trkpt>
      <trkpt lat="66.28115" lon="13.26076">
        <ele>319.913228</ele>
        <time>2020-08-14T13:47:52.882Z</time>
      </trkpt>
      <trkpt lat="66.28121" lon="13.26091">
        <ele>320.415032</ele>
        <time>2020-08-14T13:47:59.891Z</time>
      </trkpt>
      <trkpt lat="66.28128" lon="13.26109">
        <ele>320.966046</ele>
        <time>2020-08-14T13:48:07.897Z</time>
      </trkpt>
      <trkpt lat="66.28136" lon="13.26124">
        <ele>321.503999</ele>
        <time>2020-08-14T13:48:14.890Z</time>
      </trkpt>
      <trkpt lat="66.28145" lon="13.26117">
        <ele>322.033733</ele>
        <time>2020-08-14T13:48:20.913Z</time>
      </trkpt>
      <trkpt lat="66.28153" lon="13.26103">
        <ele>322.545193</ele>
        <time>2020-08-14T13:48:25.872Z</time>
      </trkpt>
      <trkpt lat="66.28161" lon="13.26097">
        <ele>323.042743</ele>
        <time>2020-08-14T13:48:30.880Z</time>
      </trkpt>
      <trkpt lat="66.28156" lon="13.26115">
        <ele>323.545292</ele>
        <time>2020-08-14T13:52:07.910Z</time>
      </trkpt>
      <trkpt lat="66.28146" lon="13.26116">
        <ele>324.081848</ele>
        <time>2020-08-14T13:52:13.918Z</time>
      </trkpt>
      <trkpt lat="66.28139" lon="13.26135">
        <ele>324.712939</ele>
        <time>2020-08-14T13:52:18.884Z</time>
      </trkpt>
      <trkpt lat="66.28138" lon="13.2616">
        <ele>325.50497</ele>
        <time>2020-08-14T13:52:23.902Z</time>
      </trkpt>
      <trkpt lat="66.28141" lon="13.26183">
        <ele>326.308701</ele>
        <time>2020-08-14T13:52:29.884Z</time>
      </trkpt>
      <trkpt lat="66.28146" lon="13.26205">
        <ele>327.101447</ele>
        <time>2020-08-14T13:52:36.912Z</time>
      </trkpt>
      <trkpt lat="66.2815" lon="13.26227">
        <ele>327.866071</ele>
        <time>2020-08-14T13:52:43.925Z</time>
      </trkpt>
      <trkpt lat="66.28153" lon="13.26249">
        <ele>328.622612</ele>
        <time>2020-08-14T13:52:50.873Z</time>
      </trkpt>
      <trkpt lat="66.28157" lon="13.26271">
        <ele>329.393203</ele>
        <time>2020-08-14T13:52:57.887Z</time>
      </trkpt>
      <trkpt lat="66.2816" lon="13.26295">
        <ele>330.193078</ele>
        <time>2020-08-14T13:53:04.889Z</time>
      </trkpt>
      <trkpt lat="66.28162" lon="13.26318">
        <ele>330.958645</ele>
        <time>2020-08-14T13:53:11.891Z</time>
      </trkpt>
      <trkpt lat="66.28164" lon="13.26342">
        <ele>331.745439</ele>
        <time>2020-08-14T13:53:18.908Z</time>
      </trkpt>
      <trkpt lat="66.28166" lon="13.26367">
        <ele>332.575104</ele>
        <time>2020-08-14T13:53:26.910Z</time>
      </trkpt>
      <trkpt lat="66.28167" lon="13.26392">
        <ele>333.36967</ele>
        <time>2020-08-14T13:53:33.888Z</time>
      </trkpt>
      <trkpt lat="66.28168" lon="13.26417">
        <ele>334.170631</ele>
        <time>2020-08-14T13:53:41.876Z</time>
      </trkpt>
      <trkpt lat="66.28169" lon="13.26439">
        <ele>334.905604</ele>
        <time>2020-08-14T13:53:48.896Z</time>
      </trkpt>
      <trkpt lat="66.28169" lon="13.26463">
        <ele>335.658973</ele>
        <time>2020-08-14T13:53:55.908Z</time>
      </trkpt>
      <trkpt lat="66.28169" lon="13.26486">
        <ele>336.406246</ele>
        <time>2020-08-14T13:54:02.894Z</time>
      </trkpt>
      <trkpt lat="66.28169" lon="13.2651">
        <ele>337.176043</ele>
        <time>2020-08-14T13:54:09.911Z</time>
      </trkpt>
      <trkpt lat="66.28168" lon="13.26533">
        <ele>337.913968</ele>
        <time>2020-08-14T13:54:16.881Z</time>
      </trkpt>
      <trkpt lat="66.28165" lon="13.26556">
        <ele>338.72746</ele>
        <time>2020-08-14T13:54:24.908Z</time>
      </trkpt>
      <trkpt lat="66.28161" lon="13.26577">
        <ele>339.551512</ele>
        <time>2020-08-14T13:54:31.901Z</time>
      </trkpt>
      <trkpt lat="66.28157" lon="13.26598">
        <ele>340.450429</ele>
        <time>2020-08-14T13:54:38.910Z</time>
      </trkpt>
      <trkpt lat="66.28151" lon="13.26618">
        <ele>341.396163</ele>
        <time>2020-08-14T13:54:47.898Z</time>
      </trkpt>
      <trkpt lat="66.28147" lon="13.26638">
        <ele>342.25761</ele>
        <time>2020-08-14T13:54:54.872Z</time>
      </trkpt>
      <trkpt lat="66.28141" lon="13.26656">
        <ele>343.146288</ele>
        <time>2020-08-14T13:55:02.885Z</time>
      </trkpt>
      <trkpt lat="66.28135" lon="13.26674">
        <ele>344.070963</ele>
        <time>2020-08-14T13:55:10.911Z</time>
      </trkpt>
      <trkpt lat="66.28129" lon="13.26692">
        <ele>344.965416</ele>
        <time>2020-08-14T13:55:18.929Z</time>
      </trkpt>
      <trkpt lat="66.28123" lon="13.26711">
        <ele>345.8774</ele>
        <time>2020-08-14T13:55:26.934Z</time>
      </trkpt>
      <trkpt lat="66.28116" lon="13.26729">
        <ele>346.783557</ele>
        <time>2020-08-14T13:55:34.893Z</time>
      </trkpt>
      <trkpt lat="66.2811" lon="13.26748">
        <ele>347.728331</ele>
        <time>2020-08-14T13:55:42.936Z</time>
      </trkpt>
      <trkpt lat="66.28103" lon="13.26763">
        <ele>348.611886</ele>
        <time>2020-08-14T13:55:50.889Z</time>
      </trkpt>
      <trkpt lat="66.28099" lon="13.26784">
        <ele>349.515284</ele>
        <time>2020-08-14T13:55:58.936Z</time>
      </trkpt>
      <trkpt lat="66.28093" lon="13.26803">
        <ele>350.430394</ele>
        <time>2020-08-14T13:56:06.891Z</time>
      </trkpt>
      <trkpt lat="66.28089" lon="13.26823">
        <ele>351.286856</ele>
        <time>2020-08-14T13:56:13.896Z</time>
      </trkpt>
      <trkpt lat="66.28084" lon="13.26845">
        <ele>352.261444</ele>
        <time>2020-08-14T13:56:21.892Z</time>
      </trkpt>
      <trkpt lat="66.28079" lon="13.26868">
        <ele>353.211541</ele>
        <time>2020-08-14T13:56:29.906Z</time>
      </trkpt>
      <trkpt lat="66.28077" lon="13.26889">
        <ele>354.077328</ele>
        <time>2020-08-14T13:56:37.946Z</time>
      </trkpt>
      <trkpt lat="66.28076" lon="13.26913">
        <ele>354.972069</ele>
        <time>2020-08-14T13:56:45.916Z</time>
      </trkpt>
      <trkpt lat="66.28076" lon="13.26935">
        <ele>355.822103</ele>
        <time>2020-08-14T13:56:52.921Z</time>
      </trkpt>
      <trkpt lat="66.28077" lon="13.26958">
        <ele>356.398592</ele>
        <time>2020-08-14T13:57:00.884Z</time>
      </trkpt>
      <trkpt lat="66.28078" lon="13.26981">
        <ele>356.835024</ele>
        <time>2020-08-14T13:57:08.911Z</time>
      </trkpt>
      <trkpt lat="66.28082" lon="13.27003">
        <ele>357.301411</ele>
        <time>2020-08-14T13:57:16.879Z</time>
      </trkpt>
      <trkpt lat="66.28086" lon="13.27024">
        <ele>357.752873</ele>
        <time>2020-08-14T13:57:24.894Z</time>
      </trkpt>
      <trkpt lat="66.28092" lon="13.27041">
        <ele>358.190863</ele>
        <time>2020-08-14T13:57:31.883Z</time>
      </trkpt>
      <trkpt lat="66.28098" lon="13.27061">
        <ele>358.674276</ele>
        <time>2020-08-14T13:57:39.913Z</time>
      </trkpt>
      <trkpt lat="66.28104" lon="13.27078">
        <ele>359.120537</ele>
        <time>2020-08-14T13:57:46.906Z</time>
      </trkpt>
      <trkpt lat="66.2811" lon="13.27098">
        <ele>359.592534</ele>
        <time>2020-08-14T13:57:55.893Z</time>
      </trkpt>
      <trkpt lat="66.28116" lon="13.27116">
        <ele>360.042938</ele>
        <time>2020-08-14T13:58:02.886Z</time>
      </trkpt>
      <trkpt lat="66.28122" lon="13.27133">
        <ele>360.493183</ele>
        <time>2020-08-14T13:58:09.894Z</time>
      </trkpt>
      <trkpt lat="66.28128" lon="13.27151">
        <ele>360.946648</ele>
        <time>2020-08-14T13:58:16.917Z</time>
      </trkpt>
      <trkpt lat="66.28135" lon="13.2717">
        <ele>361.436409</ele>
        <time>2020-08-14T13:58:23.879Z</time>
      </trkpt>
      <trkpt lat="66.28141" lon="13.2719">
        <ele>361.930655</ele>
        <time>2020-08-14T13:58:29.887Z</time>
      </trkpt>
      <trkpt lat="66.28147" lon="13.27209">
        <ele>362.390424</ele>
        <time>2020-08-14T13:58:35.906Z</time>
      </trkpt>
      <trkpt lat="66.28153" lon="13.27228">
        <ele>362.86669</ele>
        <time>2020-08-14T13:58:41.905Z</time>
      </trkpt>
      <trkpt lat="66.28159" lon="13.27247">
        <ele>363.334006</ele>
        <time>2020-08-14T13:58:47.904Z</time>
      </trkpt>
      <trkpt lat="66.28166" lon="13.27266">
        <ele>363.824431</ele>
        <time>2020-08-14T13:58:53.877Z</time>
      </trkpt>
      <trkpt lat="66.28173" lon="13.27286">
        <ele>364.340147</ele>
        <time>2020-08-14T13:58:59.897Z</time>
      </trkpt>
      <trkpt lat="66.28179" lon="13.27303">
        <ele>364.76391</ele>
        <time>2020-08-14T13:59:04.975Z</time>
      </trkpt>
      <trkpt lat="66.28185" lon="13.27322">
        <ele>365.047243</ele>
        <time>2020-08-14T13:59:09.915Z</time>
      </trkpt>
      <trkpt lat="66.28191" lon="13.2734">
        <ele>365.333641</ele>
        <time>2020-08-14T13:59:14.922Z</time>
      </trkpt>
      <trkpt lat="66.28197" lon="13.27358">
        <ele>365.618781</ele>
        <time>2020-08-14T13:59:19.884Z</time>
      </trkpt>
      <trkpt lat="66.28204" lon="13.27376">
        <ele>365.915832</ele>
        <time>2020-08-14T13:59:24.908Z</time>
      </trkpt>
      <trkpt lat="66.2821" lon="13.27396">
        <ele>366.20603</ele>
        <time>2020-08-14T13:59:29.885Z</time>
      </trkpt>
      <trkpt lat="66.28216" lon="13.27415">
        <ele>366.506131</ele>
        <time>2020-08-14T13:59:35.931Z</time>
      </trkpt>
      <trkpt lat="66.28222" lon="13.27436">
        <ele>366.81559</ele>
        <time>2020-08-14T13:59:41.890Z</time>
      </trkpt>
      <trkpt lat="66.2823" lon="13.27453">
        <ele>367.12575</ele>
        <time>2020-08-14T13:59:47.887Z</time>
      </trkpt>
      <trkpt lat="66.28236" lon="13.27469">
        <ele>367.391427</ele>
        <time>2020-08-14T13:59:52.888Z</time>
      </trkpt>
      <trkpt lat="66.28242" lon="13.27488">
        <ele>367.664008</ele>
        <time>2020-08-14T13:59:57.888Z</time>
      </trkpt>
      <trkpt lat="66.28247" lon="13.27508">
        <ele>367.949678</ele>
        <time>2020-08-14T14:00:03.898Z</time>
      </trkpt>
      <trkpt lat="66.28253" lon="13.27528">
        <ele>368.246974</ele>
        <time>2020-08-14T14:00:09.896Z</time>
      </trkpt>
      <trkpt lat="66.28259" lon="13.27546">
        <ele>368.539817</ele>
        <time>2020-08-14T14:00:14.880Z</time>
      </trkpt>
      <trkpt lat="66.28265" lon="13.27566">
        <ele>368.835222</ele>
        <time>2020-08-14T14:00:19.911Z</time>
      </trkpt>
      <trkpt lat="66.28271" lon="13.27587">
        <ele>369.142079</ele>
        <time>2020-08-14T14:00:24.917Z</time>
      </trkpt>
      <trkpt lat="66.28277" lon="13.27608">
        <ele>369.440741</ele>
        <time>2020-08-14T14:00:29.896Z</time>
      </trkpt>
      <trkpt lat="66.28283" lon="13.27626">
        <ele>369.724954</ele>
        <time>2020-08-14T14:00:34.914Z</time>
      </trkpt>
      <trkpt lat="66.2829" lon="13.27647">
        <ele>370.055758</ele>
        <time>2020-08-14T14:00:39.881Z</time>
      </trkpt>
      <trkpt lat="66.28296" lon="13.27669">
        <ele>369.671591</ele>
        <time>2020-08-14T14:00:44.884Z</time>
      </trkpt>
      <trkpt lat="66.28302" lon="13.27695">
        <ele>369.198732</ele>
        <time>2020-08-14T14:00:48.879Z</time>
      </trkpt>
      <trkpt lat="66.28307" lon="13.27716">
        <ele>368.790288</ele>
        <time>2020-08-14T14:00:51.885Z</time>
      </trkpt>
      <trkpt lat="66.28313" lon="13.27741">
        <ele>368.330953</ele>
        <time>2020-08-14T14:00:54.897Z</time>
      </trkpt>
      <trkpt lat="66.28319" lon="13.27765">
        <ele>367.8597</ele>
        <time>2020-08-14T14:00:57.880Z</time>
      </trkpt>
      <trkpt lat="66.28324" lon="13.2779">
        <ele>367.391114</ele>
        <time>2020-08-14T14:01:00.881Z</time>
      </trkpt>
      <trkpt lat="66.2833" lon="13.27816">
        <ele>366.907711</ele>
        <time>2020-08-14T14:01:03.890Z</time>
      </trkpt>
      <trkpt lat="66.28336" lon="13.27842">
        <ele>366.413758</ele>
        <time>2020-08-14T14:01:06.902Z</time>
      </trkpt>
      <trkpt lat="66.28342" lon="13.27869">
        <ele>365.924166</ele>
        <time>2020-08-14T14:01:09.884Z</time>
      </trkpt>
      <trkpt lat="66.28348" lon="13.27895">
        <ele>365.426258</ele>
        <time>2020-08-14T14:01:12.903Z</time>
      </trkpt>
      <trkpt lat="66.28354" lon="13.27921">
        <ele>364.939085</ele>
        <time>2020-08-14T14:01:15.893Z</time>
      </trkpt>
      <trkpt lat="66.2836" lon="13.27949">
        <ele>364.417316</ele>
        <time>2020-08-14T14:01:18.926Z</time>
      </trkpt>
      <trkpt lat="66.28366" lon="13.27977">
        <ele>363.898856</ele>
        <time>2020-08-14T14:01:21.899Z</time>
      </trkpt>
      <trkpt lat="66.28372" lon="13.28005">
        <ele>363.380928</ele>
        <time>2020-08-14T14:01:24.891Z</time>
      </trkpt>
      <trkpt lat="66.28377" lon="13.28024">
        <ele>363.009788</ele>
        <time>2020-08-14T14:01:26.913Z</time>
      </trkpt>
      <trkpt lat="66.28382" lon="13.28045">
        <ele>362.638015</ele>
        <time>2020-08-14T14:01:28.880Z</time>
      </trkpt>
      <trkpt lat="66.28387" lon="13.28068">
        <ele>362.281269</ele>
        <time>2020-08-14T14:01:30.887Z</time>
      </trkpt>
      <trkpt lat="66.28393" lon="13.28093">
        <ele>361.908606</ele>
        <time>2020-08-14T14:01:32.920Z</time>
      </trkpt>
      <trkpt lat="66.28399" lon="13.28118">
        <ele>361.504959</ele>
        <time>2020-08-14T14:01:34.913Z</time>
      </trkpt>
      <trkpt lat="66.28405" lon="13.28146">
        <ele>361.084659</ele>
        <time>2020-08-14T14:01:36.893Z</time>
      </trkpt>
      <trkpt lat="66.28411" lon="13.28174">
        <ele>360.649627</ele>
        <time>2020-08-14T14:01:38.887Z</time>
      </trkpt>
      <trkpt lat="66.28418" lon="13.28205">
        <ele>360.184782</ele>
        <time>2020-08-14T14:01:40.918Z</time>
      </trkpt>
      <trkpt lat="66.28425" lon="13.28238">
        <ele>359.679084</ele>
        <time>2020-08-14T14:01:42.886Z</time>
      </trkpt>
      <trkpt lat="66.28434" lon="13.28273">
        <ele>359.146791</ele>
        <time>2020-08-14T14:01:44.913Z</time>
      </trkpt>
      <trkpt lat="66.28441" lon="13.28307">
        <ele>358.62361</ele>
        <time>2020-08-14T14:01:46.887Z</time>
      </trkpt>
      <trkpt lat="66.28449" lon="13.28339">
        <ele>358.121665</ele>
        <time>2020-08-14T14:01:48.881Z</time>
      </trkpt>
      <trkpt lat="66.28457" lon="13.28369">
        <ele>357.64369</ele>
        <time>2020-08-14T14:01:50.895Z</time>
      </trkpt>
      <trkpt lat="66.28464" lon="13.28397">
        <ele>357.20118</ele>
        <time>2020-08-14T14:01:52.915Z</time>
      </trkpt>
      <trkpt lat="66.2847" lon="13.28424">
        <ele>356.790532</ele>
        <time>2020-08-14T14:01:54.887Z</time>
      </trkpt>
      <trkpt lat="66.28476" lon="13.28449">
        <ele>356.456707</ele>
        <time>2020-08-14T14:01:56.894Z</time>
      </trkpt>
      <trkpt lat="66.28481" lon="13.28473">
        <ele>356.131378</ele>
        <time>2020-08-14T14:01:58.916Z</time>
      </trkpt>
      <trkpt lat="66.28487" lon="13.28497">
        <ele>355.809067</ele>
        <time>2020-08-14T14:02:00.896Z</time>
      </trkpt>
      <trkpt lat="66.28492" lon="13.28522">
        <ele>355.481476</ele>
        <time>2020-08-14T14:02:02.899Z</time>
      </trkpt>
      <trkpt lat="66.28497" lon="13.28547">
        <ele>355.161301</ele>
        <time>2020-08-14T14:02:04.878Z</time>
      </trkpt>
      <trkpt lat="66.28502" lon="13.2857">
        <ele>354.85851</ele>
        <time>2020-08-14T14:02:06.935Z</time>
      </trkpt>
      <trkpt lat="66.28507" lon="13.28593">
        <ele>354.549991</ele>
        <time>2020-08-14T14:02:08.882Z</time>
      </trkpt>
      <trkpt lat="66.28513" lon="13.28616">
        <ele>354.243147</ele>
        <time>2020-08-14T14:02:10.894Z</time>
      </trkpt>
      <trkpt lat="66.28519" lon="13.28639">
        <ele>353.922332</ele>
        <time>2020-08-14T14:02:12.902Z</time>
      </trkpt>
      <trkpt lat="66.28525" lon="13.28662">
        <ele>353.59526</ele>
        <time>2020-08-14T14:02:14.889Z</time>
      </trkpt>
      <trkpt lat="66.28532" lon="13.28684">
        <ele>353.269403</ele>
        <time>2020-08-14T14:02:16.897Z</time>
      </trkpt>
      <trkpt lat="66.2854" lon="13.28705">
        <ele>352.937354</ele>
        <time>2020-08-14T14:02:18.894Z</time>
      </trkpt>
      <trkpt lat="66.28548" lon="13.28724">
        <ele>352.61666</ele>
        <time>2020-08-14T14:02:20.923Z</time>
      </trkpt>
      <trkpt lat="66.28556" lon="13.28743">
        <ele>352.298419</ele>
        <time>2020-08-14T14:02:22.928Z</time>
      </trkpt>
      <trkpt lat="66.28565" lon="13.2876">
        <ele>351.977453</ele>
        <time>2020-08-14T14:02:24.892Z</time>
      </trkpt>
      <trkpt lat="66.28574" lon="13.28776">
        <ele>351.662279</ele>
        <time>2020-08-14T14:02:26.920Z</time>
      </trkpt>
      <trkpt lat="66.28583" lon="13.2879">
        <ele>351.029355</ele>
        <time>2020-08-14T14:02:28.937Z</time>
      </trkpt>
      <trkpt lat="66.28594" lon="13.28804">
        <ele>350.259941</ele>
        <time>2020-08-14T14:02:30.912Z</time>
      </trkpt>
      <trkpt lat="66.28605" lon="13.28817">
        <ele>349.437432</ele>
        <time>2020-08-14T14:02:32.907Z</time>
      </trkpt>
      <trkpt lat="66.28619" lon="13.28829">
        <ele>348.512869</ele>
        <time>2020-08-14T14:02:34.888Z</time>
      </trkpt>
      <trkpt lat="66.28633" lon="13.28842">
        <ele>347.522417</ele>
        <time>2020-08-14T14:02:36.893Z</time>
      </trkpt>
      <trkpt lat="66.28649" lon="13.28856">
        <ele>346.449869</ele>
        <time>2020-08-14T14:02:38.913Z</time>
      </trkpt>
      <trkpt lat="66.28665" lon="13.28874">
        <ele>345.308852</ele>
        <time>2020-08-14T14:02:40.888Z</time>
      </trkpt>
      <trkpt lat="66.28674" lon="13.28885">
        <ele>344.705255</ele>
        <time>2020-08-14T14:02:41.894Z</time>
      </trkpt>
      <trkpt lat="66.28682" lon="13.28897">
        <ele>344.079917</ele>
        <time>2020-08-14T14:02:42.909Z</time>
      </trkpt>
      <trkpt lat="66.2869" lon="13.28911">
        <ele>343.428199</ele>
        <time>2020-08-14T14:02:43.898Z</time>
      </trkpt>
      <trkpt lat="66.28699" lon="13.28927">
        <ele>342.751276</ele>
        <time>2020-08-14T14:02:44.891Z</time>
      </trkpt>
      <trkpt lat="66.28707" lon="13.28945">
        <ele>342.059228</ele>
        <time>2020-08-14T14:02:45.889Z</time>
      </trkpt>
      <trkpt lat="66.28714" lon="13.28965">
        <ele>341.353932</ele>
        <time>2020-08-14T14:02:46.959Z</time>
      </trkpt>
      <trkpt lat="66.28721" lon="13.28987">
        <ele>340.622438</ele>
        <time>2020-08-14T14:02:47.902Z</time>
      </trkpt>
      <trkpt lat="66.28728" lon="13.2901">
        <ele>339.849844</ele>
        <time>2020-08-14T14:02:48.886Z</time>
      </trkpt>
      <trkpt lat="66.28735" lon="13.29034">
        <ele>338.958604</ele>
        <time>2020-08-14T14:02:49.896Z</time>
      </trkpt>
      <trkpt lat="66.28742" lon="13.29059">
        <ele>338.049352</ele>
        <time>2020-08-14T14:02:50.877Z</time>
      </trkpt>
      <trkpt lat="66.28748" lon="13.29085">
        <ele>337.129644</ele>
        <time>2020-08-14T14:02:51.902Z</time>
      </trkpt>
      <trkpt lat="66.28754" lon="13.29111">
        <ele>336.21248</ele>
        <time>2020-08-14T14:02:52.886Z</time>
      </trkpt>
      <trkpt lat="66.2876" lon="13.29138">
        <ele>335.305473</ele>
        <time>2020-08-14T14:02:53.888Z</time>
      </trkpt>
      <trkpt lat="66.28765" lon="13.29166">
        <ele>334.394311</ele>
        <time>2020-08-14T14:02:54.908Z</time>
      </trkpt>
      <trkpt lat="66.28769" lon="13.29194">
        <ele>333.4906</ele>
        <time>2020-08-14T14:02:55.916Z</time>
      </trkpt>
      <trkpt lat="66.28772" lon="13.29224">
        <ele>332.574959</ele>
        <time>2020-08-14T14:02:56.893Z</time>
      </trkpt>
      <trkpt lat="66.28774" lon="13.29254">
        <ele>331.634233</ele>
        <time>2020-08-14T14:02:57.909Z</time>
      </trkpt>
      <trkpt lat="66.28775" lon="13.29285">
        <ele>330.688735</ele>
        <time>2020-08-14T14:02:58.881Z</time>
      </trkpt>
      <trkpt lat="66.28774" lon="13.29318">
        <ele>329.706697</ele>
        <time>2020-08-14T14:02:59.888Z</time>
      </trkpt>
      <trkpt lat="66.28773" lon="13.29351">
        <ele>328.709998</ele>
        <time>2020-08-14T14:03:00.885Z</time>
      </trkpt>
      <trkpt lat="66.28772" lon="13.29384">
        <ele>327.700762</ele>
        <time>2020-08-14T14:03:01.877Z</time>
      </trkpt>
      <trkpt lat="66.2877" lon="13.29417">
        <ele>326.681747</ele>
        <time>2020-08-14T14:03:02.890Z</time>
      </trkpt>
      <trkpt lat="66.28768" lon="13.29451">
        <ele>325.619361</ele>
        <time>2020-08-14T14:03:03.897Z</time>
      </trkpt>
      <trkpt lat="66.28766" lon="13.29485">
        <ele>324.52476</ele>
        <time>2020-08-14T14:03:04.900Z</time>
      </trkpt>
      <trkpt lat="66.28764" lon="13.2952">
        <ele>323.416873</ele>
        <time>2020-08-14T14:03:05.915Z</time>
      </trkpt>
      <trkpt lat="66.28764" lon="13.29556">
        <ele>322.300828</ele>
        <time>2020-08-14T14:03:06.881Z</time>
      </trkpt>
      <trkpt lat="66.28765" lon="13.29591">
        <ele>321.174304</ele>
        <time>2020-08-14T14:03:07.900Z</time>
      </trkpt>
      <trkpt lat="66.28768" lon="13.29626">
        <ele>320.052644</ele>
        <time>2020-08-14T14:03:08.910Z</time>
      </trkpt>
      <trkpt lat="66.28772" lon="13.2966">
        <ele>318.933226</ele>
        <time>2020-08-14T14:03:09.897Z</time>
      </trkpt>
      <trkpt lat="66.28777" lon="13.29694">
        <ele>317.795807</ele>
        <time>2020-08-14T14:03:10.891Z</time>
      </trkpt>
      <trkpt lat="66.28783" lon="13.29726">
        <ele>316.682642</ele>
        <time>2020-08-14T14:03:11.905Z</time>
      </trkpt>
      <trkpt lat="66.2879" lon="13.29757">
        <ele>315.557204</ele>
        <time>2020-08-14T14:03:12.908Z</time>
      </trkpt>
      <trkpt lat="66.28798" lon="13.29787">
        <ele>314.405347</ele>
        <time>2020-08-14T14:03:13.905Z</time>
      </trkpt>
      <trkpt lat="66.28806" lon="13.29817">
        <ele>313.286775</ele>
        <time>2020-08-14T14:03:14.898Z</time>
      </trkpt>
      <trkpt lat="66.28813" lon="13.29847">
        <ele>312.282602</ele>
        <time>2020-08-14T14:03:15.904Z</time>
      </trkpt>
      <trkpt lat="66.2882" lon="13.29875">
        <ele>311.610192</ele>
        <time>2020-08-14T14:03:16.941Z</time>
      </trkpt>
      <trkpt lat="66.28826" lon="13.29901">
        <ele>310.973021</ele>
        <time>2020-08-14T14:03:17.881Z</time>
      </trkpt>
      <trkpt lat="66.28832" lon="13.29927">
        <ele>310.359586</ele>
        <time>2020-08-14T14:03:18.902Z</time>
      </trkpt>
      <trkpt lat="66.28838" lon="13.29952">
        <ele>309.753286</ele>
        <time>2020-08-14T14:03:19.894Z</time>
      </trkpt>
      <trkpt lat="66.28844" lon="13.29977">
        <ele>309.158435</ele>
        <time>2020-08-14T14:03:20.895Z</time>
      </trkpt>
      <trkpt lat="66.2885" lon="13.30001">
        <ele>308.582964</ele>
        <time>2020-08-14T14:03:21.890Z</time>
      </trkpt>
      <trkpt lat="66.28856" lon="13.30024">
        <ele>308.026877</ele>
        <time>2020-08-14T14:03:22.903Z</time>
      </trkpt>
      <trkpt lat="66.28861" lon="13.30047">
        <ele>307.47954</ele>
        <time>2020-08-14T14:03:23.887Z</time>
      </trkpt>
      <trkpt lat="66.28867" lon="13.30069">
        <ele>306.942612</ele>
        <time>2020-08-14T14:03:24.908Z</time>
      </trkpt>
      <trkpt lat="66.28872" lon="13.3009">
        <ele>306.42707</ele>
        <time>2020-08-14T14:03:25.892Z</time>
      </trkpt>
      <trkpt lat="66.28877" lon="13.3011">
        <ele>305.930917</ele>
        <time>2020-08-14T14:03:26.889Z</time>
      </trkpt>
      <trkpt lat="66.28882" lon="13.3013">
        <ele>305.455064</ele>
        <time>2020-08-14T14:03:27.893Z</time>
      </trkpt>
      <trkpt lat="66.28887" lon="13.30149">
        <ele>304.995067</ele>
        <time>2020-08-14T14:03:28.903Z</time>
      </trkpt>
      <trkpt lat="66.28896" lon="13.30186">
        <ele>304.118222</ele>
        <time>2020-08-14T14:03:30.891Z</time>
      </trkpt>
      <trkpt lat="66.28903" lon="13.3022">
        <ele>303.326749</ele>
        <time>2020-08-14T14:03:32.900Z</time>
      </trkpt>
      <trkpt lat="66.28909" lon="13.30251">
        <ele>303.162923</ele>
        <time>2020-08-14T14:03:34.884Z</time>
      </trkpt>
      <trkpt lat="66.28916" lon="13.30277">
        <ele>303.104646</ele>
        <time>2020-08-14T14:03:36.887Z</time>
      </trkpt>
      <trkpt lat="66.28921" lon="13.30301">
        <ele>303.051028</ele>
        <time>2020-08-14T14:03:38.896Z</time>
      </trkpt>
      <trkpt lat="66.28926" lon="13.30324">
        <ele>303.000754</ele>
        <time>2020-08-14T14:03:40.887Z</time>
      </trkpt>
      <trkpt lat="66.28931" lon="13.30346">
        <ele>302.95213</ele>
        <time>2020-08-14T14:03:42.904Z</time>
      </trkpt>
      <trkpt lat="66.28936" lon="13.30368">
        <ele>302.903398</ele>
        <time>2020-08-14T14:03:44.899Z</time>
      </trkpt>
      <trkpt lat="66.2894" lon="13.30389">
        <ele>302.856762</ele>
        <time>2020-08-14T14:03:46.909Z</time>
      </trkpt>
      <trkpt lat="66.28945" lon="13.3041">
        <ele>302.811473</ele>
        <time>2020-08-14T14:03:48.930Z</time>
      </trkpt>
      <trkpt lat="66.28949" lon="13.3043">
        <ele>302.767735</ele>
        <time>2020-08-14T14:03:50.908Z</time>
      </trkpt>
      <trkpt lat="66.28954" lon="13.30449">
        <ele>302.723828</ele>
        <time>2020-08-14T14:03:52.896Z</time>
      </trkpt>
      <trkpt lat="66.28959" lon="13.3047">
        <ele>302.678874</ele>
        <time>2020-08-14T14:03:54.878Z</time>
      </trkpt>
      <trkpt lat="66.28965" lon="13.30498">
        <ele>302.616199</ele>
        <time>2020-08-14T14:03:57.890Z</time>
      </trkpt>
      <trkpt lat="66.28972" lon="13.30525">
        <ele>302.554859</ele>
        <time>2020-08-14T14:04:00.886Z</time>
      </trkpt>
      <trkpt lat="66.28979" lon="13.30553">
        <ele>302.49004</ele>
        <time>2020-08-14T14:04:03.923Z</time>
      </trkpt>
      <trkpt lat="66.28984" lon="13.30572">
        <ele>302.446195</ele>
        <time>2020-08-14T14:04:05.896Z</time>
      </trkpt>
      <trkpt lat="66.28988" lon="13.30592">
        <ele>302.401074</ele>
        <time>2020-08-14T14:04:07.888Z</time>
      </trkpt>
      <trkpt lat="66.28994" lon="13.3062">
        <ele>302.629046</ele>
        <time>2020-08-14T14:04:10.931Z</time>
      </trkpt>
      <trkpt lat="66.29" lon="13.30645">
        <ele>303.692296</ele>
        <time>2020-08-14T14:04:13.918Z</time>
      </trkpt>
      <trkpt lat="66.29006" lon="13.30668">
        <ele>304.634439</ele>
        <time>2020-08-14T14:04:16.884Z</time>
      </trkpt>
      <trkpt lat="66.2901" lon="13.30688">
        <ele>305.46057</ele>
        <time>2020-08-14T14:04:19.884Z</time>
      </trkpt>
      <trkpt lat="66.29015" lon="13.30712">
        <ele>306.416289</ele>
        <time>2020-08-14T14:04:23.900Z</time>
      </trkpt>
      <trkpt lat="66.29019" lon="13.30732">
        <ele>307.227626</ele>
        <time>2020-08-14T14:04:27.899Z</time>
      </trkpt>
      <trkpt lat="66.29023" lon="13.30752">
        <ele>308.033137</ele>
        <time>2020-08-14T14:04:31.926Z</time>
      </trkpt>
      <trkpt lat="66.29029" lon="13.30775">
        <ele>308.961326</ele>
        <time>2020-08-14T14:04:37.910Z</time>
      </trkpt>
      <trkpt lat="66.29034" lon="13.30797">
        <ele>309.888436</ele>
        <time>2020-08-14T14:04:43.885Z</time>
      </trkpt>
      <trkpt lat="66.29039" lon="13.30816">
        <ele>310.70376</ele>
        <time>2020-08-14T14:04:48.920Z</time>
      </trkpt>
      <trkpt lat="66.29043" lon="13.30837">
        <ele>311.535037</ele>
        <time>2020-08-14T14:04:53.882Z</time>
      </trkpt>
      <trkpt lat="66.29048" lon="13.30856">
        <ele>312.334506</ele>
        <time>2020-08-14T14:04:58.886Z</time>
      </trkpt>
      <trkpt lat="66.29052" lon="13.30878">
        <ele>313.221469</ele>
        <time>2020-08-14T14:05:04.924Z</time>
      </trkpt>
      <trkpt lat="66.29057" lon="13.30899">
        <ele>314.113197</ele>
        <time>2020-08-14T14:05:10.894Z</time>
      </trkpt>
      <trkpt lat="66.29062" lon="13.30922">
        <ele>315.034872</ele>
        <time>2020-08-14T14:05:17.896Z</time>
      </trkpt>
      <trkpt lat="66.29067" lon="13.30941">
        <ele>315.84537</ele>
        <time>2020-08-14T14:05:23.915Z</time>
      </trkpt>
      <trkpt lat="66.29073" lon="13.3096">
        <ele>316.660278</ele>
        <time>2020-08-14T14:05:29.918Z</time>
      </trkpt>
      <trkpt lat="66.29078" lon="13.30979">
        <ele>317.497323</ele>
        <time>2020-08-14T14:05:36.884Z</time>
      </trkpt>
      <trkpt lat="66.29083" lon="13.31">
        <ele>318.369459</ele>
        <time>2020-08-14T14:05:43.900Z</time>
      </trkpt>
      <trkpt lat="66.29088" lon="13.3102">
        <ele>319.22222</ele>
        <time>2020-08-14T14:05:50.917Z</time>
      </trkpt>
      <trkpt lat="66.29091" lon="13.31043">
        <ele>320.140415</ele>
        <time>2020-08-14T14:05:58.898Z</time>
      </trkpt>
      <trkpt lat="66.29096" lon="13.31063">
        <ele>320.972972</ele>
        <time>2020-08-14T14:06:05.896Z</time>
      </trkpt>
      <trkpt lat="66.291" lon="13.31085">
        <ele>321.870203</ele>
        <time>2020-08-14T14:06:12.895Z</time>
      </trkpt>
      <trkpt lat="66.29105" lon="13.31107">
        <ele>322.785487</ele>
        <time>2020-08-14T14:06:19.918Z</time>
      </trkpt>
      <trkpt lat="66.2911" lon="13.31128">
        <ele>323.692871</ele>
        <time>2020-08-14T14:06:26.908Z</time>
      </trkpt>
      <trkpt lat="66.29116" lon="13.31147">
        <ele>324.546844</ele>
        <time>2020-08-14T14:06:33.935Z</time>
      </trkpt>
      <trkpt lat="66.29121" lon="13.31168">
        <ele>325.457092</ele>
        <time>2020-08-14T14:06:41.883Z</time>
      </trkpt>
      <trkpt lat="66.29127" lon="13.31186">
        <ele>326.355298</ele>
        <time>2020-08-14T14:06:48.929Z</time>
      </trkpt>
      <trkpt lat="66.29133" lon="13.31205">
        <ele>327.223514</ele>
        <time>2020-08-14T14:06:57.908Z</time>
      </trkpt>
      <trkpt lat="66.29138" lon="13.31227">
        <ele>328.154183</ele>
        <time>2020-08-14T14:07:05.898Z</time>
      </trkpt>
      <trkpt lat="66.29143" lon="13.31248">
        <ele>329.021116</ele>
        <time>2020-08-14T14:07:13.895Z</time>
      </trkpt>
      <trkpt lat="66.29146" lon="13.31269">
        <ele>329.858021</ele>
        <time>2020-08-14T14:07:20.893Z</time>
      </trkpt>
      <trkpt lat="66.29149" lon="13.31291">
        <ele>330.689896</ele>
        <time>2020-08-14T14:07:28.914Z</time>
      </trkpt>
      <trkpt lat="66.29152" lon="13.31312">
        <ele>331.532091</ele>
        <time>2020-08-14T14:07:35.921Z</time>
      </trkpt>
      <trkpt lat="66.29155" lon="13.31334">
        <ele>332.363182</ele>
        <time>2020-08-14T14:07:42.915Z</time>
      </trkpt>
      <trkpt lat="66.29157" lon="13.31356">
        <ele>333.204677</ele>
        <time>2020-08-14T14:07:49.907Z</time>
      </trkpt>
      <trkpt lat="66.29159" lon="13.31381">
        <ele>334.124634</ele>
        <time>2020-08-14T14:07:57.881Z</time>
      </trkpt>
      <trkpt lat="66.29161" lon="13.31403">
        <ele>334.981704</ele>
        <time>2020-08-14T14:08:04.922Z</time>
      </trkpt>
      <trkpt lat="66.29162" lon="13.31426">
        <ele>335.988504</ele>
        <time>2020-08-14T14:08:11.897Z</time>
      </trkpt>
      <trkpt lat="66.29163" lon="13.3145">
        <ele>337.022916</ele>
        <time>2020-08-14T14:08:18.892Z</time>
      </trkpt>
      <trkpt lat="66.29164" lon="13.31472">
        <ele>337.985599</ele>
        <time>2020-08-14T14:08:25.885Z</time>
      </trkpt>
      <trkpt lat="66.29165" lon="13.31497">
        <ele>339.029324</ele>
        <time>2020-08-14T14:08:33.927Z</time>
      </trkpt>
      <trkpt lat="66.29166" lon="13.31521">
        <ele>340.073408</ele>
        <time>2020-08-14T14:08:41.877Z</time>
      </trkpt>
      <trkpt lat="66.29165" lon="13.31545">
        <ele>341.107476</ele>
        <time>2020-08-14T14:08:49.885Z</time>
      </trkpt>
      <trkpt lat="66.29167" lon="13.31567">
        <ele>342.066408</ele>
        <time>2020-08-14T14:08:56.899Z</time>
      </trkpt>
      <trkpt lat="66.29165" lon="13.31592">
        <ele>343.136495</ele>
        <time>2020-08-14T14:09:04.882Z</time>
      </trkpt>
      <trkpt lat="66.29164" lon="13.31617">
        <ele>344.215139</ele>
        <time>2020-08-14T14:09:12.920Z</time>
      </trkpt>
      <trkpt lat="66.29163" lon="13.31642">
        <ele>345.31167</ele>
        <time>2020-08-14T14:09:20.914Z</time>
      </trkpt>
      <trkpt lat="66.29163" lon="13.31666">
        <ele>346.323424</ele>
        <time>2020-08-14T14:09:27.886Z</time>
      </trkpt>
      <trkpt lat="66.29162" lon="13.31688">
        <ele>347.288515</ele>
        <time>2020-08-14T14:09:34.936Z</time>
      </trkpt>
      <trkpt lat="66.29161" lon="13.31713">
        <ele>348.374879</ele>
        <time>2020-08-14T14:09:42.903Z</time>
      </trkpt>
      <trkpt lat="66.29161" lon="13.31736">
        <ele>349.35286</ele>
        <time>2020-08-14T14:09:49.890Z</time>
      </trkpt>
      <trkpt lat="66.2916" lon="13.31762">
        <ele>350.44366</ele>
        <time>2020-08-14T14:09:57.896Z</time>
      </trkpt>
      <trkpt lat="66.2916" lon="13.31786">
        <ele>351.507074</ele>
        <time>2020-08-14T14:10:06.894Z</time>
      </trkpt>
      <trkpt lat="66.29161" lon="13.31809">
        <ele>352.493625</ele>
        <time>2020-08-14T14:10:13.892Z</time>
      </trkpt>
      <trkpt lat="66.29162" lon="13.31832">
        <ele>353.490865</ele>
        <time>2020-08-14T14:10:20.938Z</time>
      </trkpt>
      <trkpt lat="66.29164" lon="13.31856">
        <ele>354.215442</ele>
        <time>2020-08-14T14:10:28.880Z</time>
      </trkpt>
      <trkpt lat="66.29168" lon="13.31879">
        <ele>354.693267</ele>
        <time>2020-08-14T14:10:36.891Z</time>
      </trkpt>
      <trkpt lat="66.29169" lon="13.31902">
        <ele>355.154827</ele>
        <time>2020-08-14T14:10:44.889Z</time>
      </trkpt>
      <trkpt lat="66.29172" lon="13.31925">
        <ele>355.629909</ele>
        <time>2020-08-14T14:10:52.908Z</time>
      </trkpt>
      <trkpt lat="66.29177" lon="13.31946">
        <ele>356.103356</ele>
        <time>2020-08-14T14:11:00.901Z</time>
      </trkpt>
      <trkpt lat="66.29181" lon="13.31969">
        <ele>356.592039</ele>
        <time>2020-08-14T14:11:07.902Z</time>
      </trkpt>
      <trkpt lat="66.29184" lon="13.31991">
        <ele>357.048151</ele>
        <time>2020-08-14T14:11:14.892Z</time>
      </trkpt>
      <trkpt lat="66.29186" lon="13.32015">
        <ele>357.536535</ele>
        <time>2020-08-14T14:11:21.917Z</time>
      </trkpt>
      <trkpt lat="66.2919" lon="13.32038">
        <ele>358.021952</ele>
        <time>2020-08-14T14:11:28.891Z</time>
      </trkpt>
      <trkpt lat="66.29193" lon="13.32061">
        <ele>358.501507</ele>
        <time>2020-08-14T14:11:34.917Z</time>
      </trkpt>
      <trkpt lat="66.29197" lon="13.32082">
        <ele>358.959038</ele>
        <time>2020-08-14T14:11:39.899Z</time>
      </trkpt>
      <trkpt lat="66.292" lon="13.32104">
        <ele>359.407555</ele>
        <time>2020-08-14T14:11:44.893Z</time>
      </trkpt>
      <trkpt lat="66.29203" lon="13.32128">
        <ele>359.914185</ele>
        <time>2020-08-14T14:11:50.903Z</time>
      </trkpt>
      <trkpt lat="66.29205" lon="13.32153">
        <ele>360.425826</ele>
        <time>2020-08-14T14:11:56.929Z</time>
      </trkpt>
      <trkpt lat="66.29208" lon="13.32177">
        <ele>360.912593</ele>
        <time>2020-08-14T14:12:02.912Z</time>
      </trkpt>
      <trkpt lat="66.29212" lon="13.32198">
        <ele>361.368634</ele>
        <time>2020-08-14T14:12:07.893Z</time>
      </trkpt>
      <trkpt lat="66.29216" lon="13.3222">
        <ele>361.844496</ele>
        <time>2020-08-14T14:12:13.917Z</time>
      </trkpt>
      <trkpt lat="66.29221" lon="13.32239">
        <ele>362.289007</ele>
        <time>2020-08-14T14:12:18.893Z</time>
      </trkpt>
      <trkpt lat="66.29225" lon="13.32261">
        <ele>362.770937</ele>
        <time>2020-08-14T14:12:23.887Z</time>
      </trkpt>
      <trkpt lat="66.2923" lon="13.32283">
        <ele>363.158908</ele>
        <time>2020-08-14T14:12:28.889Z</time>
      </trkpt>
      <trkpt lat="66.29236" lon="13.32306">
        <ele>363.568021</ele>
        <time>2020-08-14T14:12:33.895Z</time>
      </trkpt>
      <trkpt lat="66.29241" lon="13.32329">
        <ele>363.987006</ele>
        <time>2020-08-14T14:12:38.900Z</time>
      </trkpt>
      <trkpt lat="66.29247" lon="13.3235">
        <ele>364.381803</ele>
        <time>2020-08-14T14:12:43.893Z</time>
      </trkpt>
      <trkpt lat="66.29252" lon="13.32371">
        <ele>364.745358</ele>
        <time>2020-08-14T14:12:48.884Z</time>
      </trkpt>
      <trkpt lat="66.29257" lon="13.3239">
        <ele>365.110676</ele>
        <time>2020-08-14T14:12:53.903Z</time>
      </trkpt>
      <trkpt lat="66.29262" lon="13.32414">
        <ele>365.519291</ele>
        <time>2020-08-14T14:12:59.879Z</time>
      </trkpt>
      <trkpt lat="66.29268" lon="13.32437">
        <ele>365.92973</ele>
        <time>2020-08-14T14:13:05.911Z</time>
      </trkpt>
      <trkpt lat="66.29272" lon="13.32459">
        <ele>366.322244</ele>
        <time>2020-08-14T14:13:11.929Z</time>
      </trkpt>
      <trkpt lat="66.29278" lon="13.32482">
        <ele>366.723509</ele>
        <time>2020-08-14T14:13:17.891Z</time>
      </trkpt>
      <trkpt lat="66.29282" lon="13.32505">
        <ele>367.111593</ele>
        <time>2020-08-14T14:13:23.909Z</time>
      </trkpt>
      <trkpt lat="66.29286" lon="13.32525">
        <ele>367.463814</ele>
        <time>2020-08-14T14:13:29.886Z</time>
      </trkpt>
      <trkpt lat="66.29291" lon="13.32546">
        <ele>367.847819</ele>
        <time>2020-08-14T14:13:36.896Z</time>
      </trkpt>
      <trkpt lat="66.29295" lon="13.32567">
        <ele>368.202454</ele>
        <time>2020-08-14T14:13:42.893Z</time>
      </trkpt>
      <trkpt lat="66.29299" lon="13.32588">
        <ele>368.551544</ele>
        <time>2020-08-14T14:13:47.893Z</time>
      </trkpt>
      <trkpt lat="66.29302" lon="13.32612">
        <ele>368.938534</ele>
        <time>2020-08-14T14:13:52.911Z</time>
      </trkpt>
      <trkpt lat="66.29305" lon="13.32634">
        <ele>369.298861</ele>
        <time>2020-08-14T14:13:57.920Z</time>
      </trkpt>
      <trkpt lat="66.29309" lon="13.32657">
        <ele>369.653982</ele>
        <time>2020-08-14T14:14:02.922Z</time>
      </trkpt>
      <trkpt lat="66.29312" lon="13.3268">
        <ele>369.704505</ele>
        <time>2020-08-14T14:14:06.935Z</time>
      </trkpt>
      <trkpt lat="66.29315" lon="13.32704">
        <ele>369.759208</ele>
        <time>2020-08-14T14:14:10.889Z</time>
      </trkpt>
      <trkpt lat="66.29318" lon="13.32725">
        <ele>369.807914</ele>
        <time>2020-08-14T14:14:14.884Z</time>
      </trkpt>
      <trkpt lat="66.29321" lon="13.32748">
        <ele>369.860785</ele>
        <time>2020-08-14T14:14:18.893Z</time>
      </trkpt>
      <trkpt lat="66.29325" lon="13.32772">
        <ele>369.915662</ele>
        <time>2020-08-14T14:14:22.905Z</time>
      </trkpt>
      <trkpt lat="66.29329" lon="13.32796">
        <ele>369.970945</ele>
        <time>2020-08-14T14:14:26.890Z</time>
      </trkpt>
      <trkpt lat="66.29333" lon="13.32819">
        <ele>370.02523</ele>
        <time>2020-08-14T14:14:30.888Z</time>
      </trkpt>
      <trkpt lat="66.29336" lon="13.32843">
        <ele>370.080413</ele>
        <time>2020-08-14T14:14:34.914Z</time>
      </trkpt>
      <trkpt lat="66.2934" lon="13.3287">
        <ele>370.141095</ele>
        <time>2020-08-14T14:14:38.898Z</time>
      </trkpt>
      <trkpt lat="66.29343" lon="13.32891">
        <ele>370.190208</ele>
        <time>2020-08-14T14:14:41.897Z</time>
      </trkpt>
      <trkpt lat="66.29346" lon="13.32913">
        <ele>370.239525</ele>
        <time>2020-08-14T14:14:44.888Z</time>
      </trkpt>
      <trkpt lat="66.29349" lon="13.32934">
        <ele>370.288639</ele>
        <time>2020-08-14T14:14:47.887Z</time>
      </trkpt>
      <trkpt lat="66.29353" lon="13.32962">
        <ele>370.352588</ele>
        <time>2020-08-14T14:14:51.877Z</time>
      </trkpt>
      <trkpt lat="66.29356" lon="13.3299">
        <ele>370.415614</ele>
        <time>2020-08-14T14:14:55.920Z</time>
      </trkpt>
      <trkpt lat="66.29359" lon="13.33018">
        <ele>370.477617</ele>
        <time>2020-08-14T14:14:59.891Z</time>
      </trkpt>
      <trkpt lat="66.29363" lon="13.33045">
        <ele>370.539044</ele>
        <time>2020-08-14T14:15:03.905Z</time>
      </trkpt>
      <trkpt lat="66.29365" lon="13.33068">
        <ele>370.590905</ele>
        <time>2020-08-14T14:15:07.888Z</time>
      </trkpt>
      <trkpt lat="66.2937" lon="13.33091">
        <ele>370.890674</ele>
        <time>2020-08-14T14:15:12.905Z</time>
      </trkpt>
      <trkpt lat="66.29375" lon="13.33113">
        <ele>371.345191</ele>
        <time>2020-08-14T14:15:17.913Z</time>
      </trkpt>
      <trkpt lat="66.29379" lon="13.33134">
        <ele>371.753854</ele>
        <time>2020-08-14T14:15:22.915Z</time>
      </trkpt>
      <trkpt lat="66.29382" lon="13.33154">
        <ele>372.157359</ele>
        <time>2020-08-14T14:15:27.897Z</time>
      </trkpt>
      <trkpt lat="66.29385" lon="13.33176">
        <ele>372.559788</ele>
        <time>2020-08-14T14:15:32.924Z</time>
      </trkpt>
      <trkpt lat="66.2939" lon="13.33197">
        <ele>372.988323</ele>
        <time>2020-08-14T14:15:38.894Z</time>
      </trkpt>
      <trkpt lat="66.29394" lon="13.33219">
        <ele>373.417389</ele>
        <time>2020-08-14T14:15:44.890Z</time>
      </trkpt>
      <trkpt lat="66.29398" lon="13.33242">
        <ele>373.882282</ele>
        <time>2020-08-14T14:15:51.892Z</time>
      </trkpt>
      <trkpt lat="66.29403" lon="13.33262">
        <ele>374.299931</ele>
        <time>2020-08-14T14:15:57.909Z</time>
      </trkpt>
      <trkpt lat="66.29408" lon="13.33285">
        <ele>374.758028</ele>
        <time>2020-08-14T14:16:04.885Z</time>
      </trkpt>
      <trkpt lat="66.29412" lon="13.33309">
        <ele>375.218239</ele>
        <time>2020-08-14T14:16:11.915Z</time>
      </trkpt>
      <trkpt lat="66.29416" lon="13.3333">
        <ele>375.644066</ele>
        <time>2020-08-14T14:16:17.894Z</time>
      </trkpt>
      <trkpt lat="66.2942" lon="13.33351">
        <ele>376.071006</ele>
        <time>2020-08-14T14:16:23.892Z</time>
      </trkpt>
      <trkpt lat="66.29425" lon="13.33371">
        <ele>376.475288</ele>
        <time>2020-08-14T14:16:29.890Z</time>
      </trkpt>
      <trkpt lat="66.29429" lon="13.33394">
        <ele>376.917037</ele>
        <time>2020-08-14T14:16:35.889Z</time>
      </trkpt>
      <trkpt lat="66.29433" lon="13.33414">
        <ele>377.341559</ele>
        <time>2020-08-14T14:16:41.891Z</time>
      </trkpt>
      <trkpt lat="66.29438" lon="13.33437">
        <ele>377.793842</ele>
        <time>2020-08-14T14:16:47.885Z</time>
      </trkpt>
      <trkpt lat="66.29441" lon="13.33461">
        <ele>378.252138</ele>
        <time>2020-08-14T14:16:53.901Z</time>
      </trkpt>
      <trkpt lat="66.29445" lon="13.33487">
        <ele>378.586387</ele>
        <time>2020-08-14T14:16:58.885Z</time>
      </trkpt>
      <trkpt lat="66.29448" lon="13.33511">
        <ele>378.469493</ele>
        <time>2020-08-14T14:17:02.901Z</time>
      </trkpt>
      <trkpt lat="66.29452" lon="13.33536">
        <ele>378.344929</ele>
        <time>2020-08-14T14:17:06.897Z</time>
      </trkpt>
      <trkpt lat="66.29457" lon="13.33562">
        <ele>378.212176</ele>
        <time>2020-08-14T14:17:10.904Z</time>
      </trkpt>
      <trkpt lat="66.2946" lon="13.33585">
        <ele>378.099212</ele>
        <time>2020-08-14T14:17:13.905Z</time>
      </trkpt>
      <trkpt lat="66.29463" lon="13.33611">
        <ele>377.971672</ele>
        <time>2020-08-14T14:17:16.933Z</time>
      </trkpt>
      <trkpt lat="66.29467" lon="13.33639">
        <ele>377.833682</ele>
        <time>2020-08-14T14:17:19.916Z</time>
      </trkpt>
      <trkpt lat="66.29472" lon="13.3367">
        <ele>377.681889</ele>
        <time>2020-08-14T14:17:22.894Z</time>
      </trkpt>
      <trkpt lat="66.29477" lon="13.337">
        <ele>377.529307</ele>
        <time>2020-08-14T14:17:25.894Z</time>
      </trkpt>
      <trkpt lat="66.29482" lon="13.33732">
        <ele>377.374125</ele>
        <time>2020-08-14T14:17:28.907Z</time>
      </trkpt>
      <trkpt lat="66.29485" lon="13.33752">
        <ele>377.270643</ele>
        <time>2020-08-14T14:17:30.884Z</time>
      </trkpt>
      <trkpt lat="66.29489" lon="13.33783">
        <ele>377.119756</ele>
        <time>2020-08-14T14:17:33.893Z</time>
      </trkpt>
      <trkpt lat="66.29493" lon="13.3381">
        <ele>376.983075</ele>
        <time>2020-08-14T14:17:36.897Z</time>
      </trkpt>
      <trkpt lat="66.29497" lon="13.33837">
        <ele>376.851817</ele>
        <time>2020-08-14T14:17:39.909Z</time>
      </trkpt>
      <trkpt lat="66.29501" lon="13.33863">
        <ele>376.725516</ele>
        <time>2020-08-14T14:17:42.908Z</time>
      </trkpt>
      <trkpt lat="66.29504" lon="13.33889">
        <ele>376.597709</ele>
        <time>2020-08-14T14:17:45.903Z</time>
      </trkpt>
      <trkpt lat="66.29507" lon="13.33915">
        <ele>376.367738</ele>
        <time>2020-08-14T14:17:48.894Z</time>
      </trkpt>
      <trkpt lat="66.2951" lon="13.33942">
        <ele>376.044515</ele>
        <time>2020-08-14T14:17:51.893Z</time>
      </trkpt>
      <trkpt lat="66.29513" lon="13.33972">
        <ele>375.690147</ele>
        <time>2020-08-14T14:17:54.905Z</time>
      </trkpt>
      <trkpt lat="66.29515" lon="13.33994">
        <ele>375.433203</ele>
        <time>2020-08-14T14:17:56.902Z</time>
      </trkpt>
      <trkpt lat="66.29518" lon="13.34018">
        <ele>375.149932</ele>
        <time>2020-08-14T14:17:58.907Z</time>
      </trkpt>
      <trkpt lat="66.2952" lon="13.34044">
        <ele>374.845532</ele>
        <time>2020-08-14T14:18:00.903Z</time>
      </trkpt>
      <trkpt lat="66.29522" lon="13.34071">
        <ele>374.52756</ele>
        <time>2020-08-14T14:18:02.930Z</time>
      </trkpt>
      <trkpt lat="66.29525" lon="13.34098">
        <ele>374.203972</ele>
        <time>2020-08-14T14:18:04.911Z</time>
      </trkpt>
      <trkpt lat="66.29528" lon="13.34126">
        <ele>373.872868</ele>
        <time>2020-08-14T14:18:06.894Z</time>
      </trkpt>
      <trkpt lat="66.2953" lon="13.34154">
        <ele>373.54578</ele>
        <time>2020-08-14T14:18:08.885Z</time>
      </trkpt>
      <trkpt lat="66.29533" lon="13.34181">
        <ele>373.221803</ele>
        <time>2020-08-14T14:18:10.910Z</time>
      </trkpt>
      <trkpt lat="66.29535" lon="13.34209">
        <ele>372.896476</ele>
        <time>2020-08-14T14:18:12.891Z</time>
      </trkpt>
      <trkpt lat="66.29538" lon="13.34237">
        <ele>372.57067</ele>
        <time>2020-08-14T14:18:14.904Z</time>
      </trkpt>
      <trkpt lat="66.2954" lon="13.34264">
        <ele>372.241804</ele>
        <time>2020-08-14T14:18:16.907Z</time>
      </trkpt>
      <trkpt lat="66.29543" lon="13.34292">
        <ele>371.917476</ele>
        <time>2020-08-14T14:18:18.897Z</time>
      </trkpt>
      <trkpt lat="66.29546" lon="13.34319">
        <ele>371.594393</ele>
        <time>2020-08-14T14:18:20.889Z</time>
      </trkpt>
      <trkpt lat="66.29548" lon="13.34345">
        <ele>371.224681</ele>
        <time>2020-08-14T14:18:22.900Z</time>
      </trkpt>
      <trkpt lat="66.2955" lon="13.34372">
        <ele>370.721377</ele>
        <time>2020-08-14T14:18:24.920Z</time>
      </trkpt>
      <trkpt lat="66.29552" lon="13.34397">
        <ele>370.250709</ele>
        <time>2020-08-14T14:18:26.894Z</time>
      </trkpt>
      <trkpt lat="66.29554" lon="13.3442">
        <ele>369.815901</ele>
        <time>2020-08-14T14:18:28.893Z</time>
      </trkpt>
      <trkpt lat="66.29557" lon="13.34444">
        <ele>369.351431</ele>
        <time>2020-08-14T14:18:30.879Z</time>
      </trkpt>
      <trkpt lat="66.2956" lon="13.34471">
        <ele>368.848734</ele>
        <time>2020-08-14T14:18:32.922Z</time>
      </trkpt>
      <trkpt lat="66.29563" lon="13.345">
        <ele>368.290026</ele>
        <time>2020-08-14T14:18:34.887Z</time>
      </trkpt>
      <trkpt lat="66.29567" lon="13.34534">
        <ele>367.660879</ele>
        <time>2020-08-14T14:18:36.898Z</time>
      </trkpt>
      <trkpt lat="66.29571" lon="13.34569">
        <ele>366.98831</ele>
        <time>2020-08-14T14:18:38.936Z</time>
      </trkpt>
      <trkpt lat="66.29574" lon="13.34606">
        <ele>366.290968</ele>
        <time>2020-08-14T14:18:40.883Z</time>
      </trkpt>
      <trkpt lat="66.29578" lon="13.34644">
        <ele>365.579886</ele>
        <time>2020-08-14T14:18:42.900Z</time>
      </trkpt>
      <trkpt lat="66.29582" lon="13.34681">
        <ele>364.869566</ele>
        <time>2020-08-14T14:18:44.904Z</time>
      </trkpt>
      <trkpt lat="66.29586" lon="13.3472">
        <ele>364.131996</ele>
        <time>2020-08-14T14:18:46.885Z</time>
      </trkpt>
      <trkpt lat="66.29589" lon="13.34761">
        <ele>363.374737</ele>
        <time>2020-08-14T14:18:48.902Z</time>
      </trkpt>
      <trkpt lat="66.29593" lon="13.348">
        <ele>362.710182</ele>
        <time>2020-08-14T14:18:50.892Z</time>
      </trkpt>
      <trkpt lat="66.29598" lon="13.34839">
        <ele>362.06388</ele>
        <time>2020-08-14T14:18:52.922Z</time>
      </trkpt>
      <trkpt lat="66.29602" lon="13.34878">
        <ele>361.419939</ele>
        <time>2020-08-14T14:18:54.899Z</time>
      </trkpt>
      <trkpt lat="66.29606" lon="13.34916">
        <ele>360.779081</ele>
        <time>2020-08-14T14:18:56.905Z</time>
      </trkpt>
      <trkpt lat="66.2961" lon="13.34954">
        <ele>360.156674</ele>
        <time>2020-08-14T14:18:58.914Z</time>
      </trkpt>
      <trkpt lat="66.29614" lon="13.3499">
        <ele>359.565593</ele>
        <time>2020-08-14T14:19:00.895Z</time>
      </trkpt>
      <trkpt lat="66.29618" lon="13.35024">
        <ele>359.010445</ele>
        <time>2020-08-14T14:19:02.893Z</time>
      </trkpt>
      <trkpt lat="66.29621" lon="13.35055">
        <ele>358.48552</ele>
        <time>2020-08-14T14:19:04.898Z</time>
      </trkpt>
      <trkpt lat="66.29624" lon="13.35085">
        <ele>357.999222</ele>
        <time>2020-08-14T14:19:06.918Z</time>
      </trkpt>
      <trkpt lat="66.29628" lon="13.35112">
        <ele>357.53845</ele>
        <time>2020-08-14T14:19:08.914Z</time>
      </trkpt>
      <trkpt lat="66.29631" lon="13.3514">
        <ele>357.077257</ele>
        <time>2020-08-14T14:19:10.907Z</time>
      </trkpt>
      <trkpt lat="66.29634" lon="13.35169">
        <ele>356.601596</ele>
        <time>2020-08-14T14:19:12.921Z</time>
      </trkpt>
      <trkpt lat="66.29638" lon="13.35202">
        <ele>356.056956</ele>
        <time>2020-08-14T14:19:14.906Z</time>
      </trkpt>
      <trkpt lat="66.29642" lon="13.35238">
        <ele>355.207598</ele>
        <time>2020-08-14T14:19:16.933Z</time>
      </trkpt>
      <trkpt lat="66.29647" lon="13.35279">
        <ele>354.267986</ele>
        <time>2020-08-14T14:19:18.910Z</time>
      </trkpt>
      <trkpt lat="66.29649" lon="13.35301">
        <ele>353.766789</ele>
        <time>2020-08-14T14:19:19.899Z</time>
      </trkpt>
      <trkpt lat="66.29652" lon="13.35323">
        <ele>353.244862</ele>
        <time>2020-08-14T14:19:20.892Z</time>
      </trkpt>
      <trkpt lat="66.29655" lon="13.35347">
        <ele>352.704917</ele>
        <time>2020-08-14T14:19:21.893Z</time>
      </trkpt>
      <trkpt lat="66.29658" lon="13.3537">
        <ele>352.159121</ele>
        <time>2020-08-14T14:19:22.893Z</time>
      </trkpt>
      <trkpt lat="66.29661" lon="13.35394">
        <ele>351.608531</ele>
        <time>2020-08-14T14:19:23.887Z</time>
      </trkpt>
      <trkpt lat="66.29663" lon="13.35418">
        <ele>351.048776</ele>
        <time>2020-08-14T14:19:24.905Z</time>
      </trkpt>
      <trkpt lat="66.29666" lon="13.35443">
        <ele>350.469505</ele>
        <time>2020-08-14T14:19:25.895Z</time>
      </trkpt>
      <trkpt lat="66.29669" lon="13.35469">
        <ele>349.876392</ele>
        <time>2020-08-14T14:19:26.925Z</time>
      </trkpt>
      <trkpt lat="66.29673" lon="13.35495">
        <ele>349.265124</ele>
        <time>2020-08-14T14:19:27.908Z</time>
      </trkpt>
      <trkpt lat="66.29676" lon="13.35522">
        <ele>348.633143</ele>
        <time>2020-08-14T14:19:28.885Z</time>
      </trkpt>
      <trkpt lat="66.2968" lon="13.3555">
        <ele>347.990102</ele>
        <time>2020-08-14T14:19:29.892Z</time>
      </trkpt>
      <trkpt lat="66.29683" lon="13.35577">
        <ele>347.368796</ele>
        <time>2020-08-14T14:19:30.909Z</time>
      </trkpt>
      <trkpt lat="66.29686" lon="13.35604">
        <ele>346.726668</ele>
        <time>2020-08-14T14:19:31.893Z</time>
      </trkpt>
      <trkpt lat="66.2969" lon="13.35631">
        <ele>346.118133</ele>
        <time>2020-08-14T14:19:32.916Z</time>
      </trkpt>
      <trkpt lat="66.29693" lon="13.35657">
        <ele>345.931777</ele>
        <time>2020-08-14T14:19:33.910Z</time>
      </trkpt>
      <trkpt lat="66.29697" lon="13.35683">
        <ele>345.750819</ele>
        <time>2020-08-14T14:19:34.893Z</time>
      </trkpt>
      <trkpt lat="66.297" lon="13.35708">
        <ele>345.576161</ele>
        <time>2020-08-14T14:19:35.898Z</time>
      </trkpt>
      <trkpt lat="66.29702" lon="13.35731">
        <ele>345.411365</ele>
        <time>2020-08-14T14:19:36.891Z</time>
      </trkpt>
      <trkpt lat="66.29705" lon="13.35754">
        <ele>345.25093</ele>
        <time>2020-08-14T14:19:37.903Z</time>
      </trkpt>
      <trkpt lat="66.29708" lon="13.35776">
        <ele>345.096796</ele>
        <time>2020-08-14T14:19:38.931Z</time>
      </trkpt>
      <trkpt lat="66.2971" lon="13.35797">
        <ele>344.944114</ele>
        <time>2020-08-14T14:19:39.931Z</time>
      </trkpt>
      <trkpt lat="66.29715" lon="13.35839">
        <ele>344.649745</ele>
        <time>2020-08-14T14:19:41.925Z</time>
      </trkpt>
      <trkpt lat="66.2972" lon="13.35879">
        <ele>344.371509</ele>
        <time>2020-08-14T14:19:43.890Z</time>
      </trkpt>
      <trkpt lat="66.29725" lon="13.35914">
        <ele>344.121405</ele>
        <time>2020-08-14T14:19:45.903Z</time>
      </trkpt>
      <trkpt lat="66.29729" lon="13.35945">
        <ele>343.90394</ele>
        <time>2020-08-14T14:19:47.905Z</time>
      </trkpt>
      <trkpt lat="66.29732" lon="13.3597">
        <ele>343.723953</ele>
        <time>2020-08-14T14:19:49.908Z</time>
      </trkpt>
      <trkpt lat="66.29734" lon="13.35993">
        <ele>343.567039</ele>
        <time>2020-08-14T14:19:51.929Z</time>
      </trkpt>
      <trkpt lat="66.29737" lon="13.36021">
        <ele>343.368146</ele>
        <time>2020-08-14T14:19:54.914Z</time>
      </trkpt>
      <trkpt lat="66.2974" lon="13.36044">
        <ele>343.210582</ele>
        <time>2020-08-14T14:19:57.896Z</time>
      </trkpt>
      <trkpt lat="66.29743" lon="13.36069">
        <ele>343.033744</ele>
        <time>2020-08-14T14:20:01.892Z</time>
      </trkpt>
      <trkpt lat="66.29745" lon="13.36093">
        <ele>342.870402</ele>
        <time>2020-08-14T14:20:05.889Z</time>
      </trkpt>
      <trkpt lat="66.29751" lon="13.36126">
        <ele>342.629941</ele>
        <time>2020-08-14T14:21:57.908Z</time>
      </trkpt>
      <trkpt lat="66.29755" lon="13.3615">
        <ele>342.464075</ele>
        <time>2020-08-14T14:22:01.904Z</time>
      </trkpt>
      <trkpt lat="66.2976" lon="13.36174">
        <ele>342.287914</ele>
        <time>2020-08-14T14:22:04.892Z</time>
      </trkpt>
      <trkpt lat="66.29763" lon="13.36195">
        <ele>342.139195</ele>
        <time>2020-08-14T14:22:06.910Z</time>
      </trkpt>
      <trkpt lat="66.29767" lon="13.36219">
        <ele>341.969127</ele>
        <time>2020-08-14T14:22:08.905Z</time>
      </trkpt>
      <trkpt lat="66.29771" lon="13.36247">
        <ele>341.775009</ele>
        <time>2020-08-14T14:22:10.893Z</time>
      </trkpt>
      <trkpt lat="66.29775" lon="13.36278">
        <ele>341.560527</ele>
        <time>2020-08-14T14:22:12.899Z</time>
      </trkpt>
      <trkpt lat="66.29779" lon="13.36313">
        <ele>341.321863</ele>
        <time>2020-08-14T14:22:14.972Z</time>
      </trkpt>
      <trkpt lat="66.29782" lon="13.3635">
        <ele>341.075386</ele>
        <time>2020-08-14T14:22:16.905Z</time>
      </trkpt>
      <trkpt lat="66.29786" lon="13.36389">
        <ele>340.812001</ele>
        <time>2020-08-14T14:22:18.898Z</time>
      </trkpt>
      <trkpt lat="66.29788" lon="13.36429">
        <ele>340.545052</ele>
        <time>2020-08-14T14:22:20.902Z</time>
      </trkpt>
      <trkpt lat="66.2979" lon="13.3647">
        <ele>340.274479</ele>
        <time>2020-08-14T14:22:22.931Z</time>
      </trkpt>
      <trkpt lat="66.29791" lon="13.36511">
        <ele>339.759567</ele>
        <time>2020-08-14T14:22:24.888Z</time>
      </trkpt>
      <trkpt lat="66.29791" lon="13.36549">
        <ele>339.10347</ele>
        <time>2020-08-14T14:22:26.895Z</time>
      </trkpt>
      <trkpt lat="66.2979" lon="13.36587">
        <ele>338.470764</ele>
        <time>2020-08-14T14:22:28.915Z</time>
      </trkpt>
      <trkpt lat="66.29789" lon="13.36623">
        <ele>337.853989</ele>
        <time>2020-08-14T14:22:30.900Z</time>
      </trkpt>
      <trkpt lat="66.29788" lon="13.36658">
        <ele>337.268243</ele>
        <time>2020-08-14T14:22:32.901Z</time>
      </trkpt>
      <trkpt lat="66.29786" lon="13.3669">
        <ele>336.725336</ele>
        <time>2020-08-14T14:22:34.908Z</time>
      </trkpt>
      <trkpt lat="66.29785" lon="13.36721">
        <ele>336.202544</ele>
        <time>2020-08-14T14:22:36.934Z</time>
      </trkpt>
      <trkpt lat="66.29783" lon="13.36753">
        <ele>335.655894</ele>
        <time>2020-08-14T14:22:38.905Z</time>
      </trkpt>
      <trkpt lat="66.29781" lon="13.36789">
        <ele>335.047354</ele>
        <time>2020-08-14T14:22:40.909Z</time>
      </trkpt>
      <trkpt lat="66.29779" lon="13.3683">
        <ele>334.334097</ele>
        <time>2020-08-14T14:22:42.983Z</time>
      </trkpt>
      <trkpt lat="66.29777" lon="13.36854">
        <ele>333.936227</ele>
        <time>2020-08-14T14:22:43.901Z</time>
      </trkpt>
      <trkpt lat="66.29776" lon="13.36879">
        <ele>333.513248</ele>
        <time>2020-08-14T14:22:44.896Z</time>
      </trkpt>
      <trkpt lat="66.29775" lon="13.36905">
        <ele>333.071344</ele>
        <time>2020-08-14T14:22:45.897Z</time>
      </trkpt>
      <trkpt lat="66.29774" lon="13.36932">
        <ele>332.604188</ele>
        <time>2020-08-14T14:22:46.892Z</time>
      </trkpt>
      <trkpt lat="66.29772" lon="13.3696">
        <ele>331.689072</ele>
        <time>2020-08-14T14:22:47.889Z</time>
      </trkpt>
      <trkpt lat="66.29771" lon="13.36989">
        <ele>330.740733</ele>
        <time>2020-08-14T14:22:48.911Z</time>
      </trkpt>
      <trkpt lat="66.2977" lon="13.37018">
        <ele>329.784387</ele>
        <time>2020-08-14T14:22:49.904Z</time>
      </trkpt>
      <trkpt lat="66.29769" lon="13.37048">
        <ele>328.787344</ele>
        <time>2020-08-14T14:22:50.928Z</time>
      </trkpt>
      <trkpt lat="66.29768" lon="13.3708">
        <ele>327.763645</ele>
        <time>2020-08-14T14:22:51.895Z</time>
      </trkpt>
      <trkpt lat="66.29767" lon="13.37112">
        <ele>326.704888</ele>
        <time>2020-08-14T14:22:52.901Z</time>
      </trkpt>
      <trkpt lat="66.29766" lon="13.37145">
        <ele>325.637493</ele>
        <time>2020-08-14T14:22:53.934Z</time>
      </trkpt>
      <trkpt lat="66.29766" lon="13.37178">
        <ele>324.539456</ele>
        <time>2020-08-14T14:22:54.928Z</time>
      </trkpt>
      <trkpt lat="66.29767" lon="13.37212">
        <ele>323.447214</ele>
        <time>2020-08-14T14:22:55.908Z</time>
      </trkpt>
      <trkpt lat="66.29768" lon="13.37246">
        <ele>322.326724</ele>
        <time>2020-08-14T14:22:56.897Z</time>
      </trkpt>
      <trkpt lat="66.29769" lon="13.37282">
        <ele>321.163699</ele>
        <time>2020-08-14T14:22:57.925Z</time>
      </trkpt>
      <trkpt lat="66.29771" lon="13.37316">
        <ele>320.032357</ele>
        <time>2020-08-14T14:22:58.911Z</time>
      </trkpt>
      <trkpt lat="66.29773" lon="13.37352">
        <ele>318.862042</ele>
        <time>2020-08-14T14:22:59.895Z</time>
      </trkpt>
      <trkpt lat="66.29776" lon="13.37388">
        <ele>317.622735</ele>
        <time>2020-08-14T14:23:00.928Z</time>
      </trkpt>
      <trkpt lat="66.29778" lon="13.37425">
        <ele>316.324547</ele>
        <time>2020-08-14T14:23:01.892Z</time>
      </trkpt>
      <trkpt lat="66.2978" lon="13.37463">
        <ele>314.991589</ele>
        <time>2020-08-14T14:23:02.896Z</time>
      </trkpt>
      <trkpt lat="66.29781" lon="13.37501">
        <ele>313.625521</ele>
        <time>2020-08-14T14:23:03.908Z</time>
      </trkpt>
      <trkpt lat="66.29783" lon="13.3754">
        <ele>312.257634</ele>
        <time>2020-08-14T14:23:04.911Z</time>
      </trkpt>
      <trkpt lat="66.29784" lon="13.3758">
        <ele>310.853879</ele>
        <time>2020-08-14T14:23:05.905Z</time>
      </trkpt>
      <trkpt lat="66.29785" lon="13.3762">
        <ele>309.451511</ele>
        <time>2020-08-14T14:23:06.911Z</time>
      </trkpt>
      <trkpt lat="66.29785" lon="13.3766">
        <ele>308.035112</ele>
        <time>2020-08-14T14:23:07.923Z</time>
      </trkpt>
      <trkpt lat="66.29786" lon="13.37701">
        <ele>306.589803</ele>
        <time>2020-08-14T14:23:08.910Z</time>
      </trkpt>
      <trkpt lat="66.29787" lon="13.37743">
        <ele>305.137482</ele>
        <time>2020-08-14T14:23:09.891Z</time>
      </trkpt>
      <trkpt lat="66.29788" lon="13.37785">
        <ele>303.65899</ele>
        <time>2020-08-14T14:23:10.895Z</time>
      </trkpt>
      <trkpt lat="66.29789" lon="13.37827">
        <ele>302.153324</ele>
        <time>2020-08-14T14:23:11.907Z</time>
      </trkpt>
      <trkpt lat="66.2979" lon="13.3787">
        <ele>300.631102</ele>
        <time>2020-08-14T14:23:12.896Z</time>
      </trkpt>
      <trkpt lat="66.2979" lon="13.37912">
        <ele>299.102572</ele>
        <time>2020-08-14T14:23:13.918Z</time>
      </trkpt>
      <trkpt lat="66.2979" lon="13.37955">
        <ele>297.581608</ele>
        <time>2020-08-14T14:23:14.909Z</time>
      </trkpt>
      <trkpt lat="66.2979" lon="13.37997">
        <ele>296.062971</ele>
        <time>2020-08-14T14:23:15.922Z</time>
      </trkpt>
      <trkpt lat="66.29788" lon="13.38039">
        <ele>294.566226</ele>
        <time>2020-08-14T14:23:16.888Z</time>
      </trkpt>
      <trkpt lat="66.29787" lon="13.38079">
        <ele>293.105241</ele>
        <time>2020-08-14T14:23:17.917Z</time>
      </trkpt>
      <trkpt lat="66.29786" lon="13.38119">
        <ele>291.669978</ele>
        <time>2020-08-14T14:23:18.928Z</time>
      </trkpt>
      <trkpt lat="66.29784" lon="13.38158">
        <ele>290.269772</ele>
        <time>2020-08-14T14:23:19.927Z</time>
      </trkpt>
      <trkpt lat="66.29784" lon="13.38197">
        <ele>288.86291</ele>
        <time>2020-08-14T14:23:20.891Z</time>
      </trkpt>
      <trkpt lat="66.29784" lon="13.38236">
        <ele>287.474576</ele>
        <time>2020-08-14T14:23:21.915Z</time>
      </trkpt>
      <trkpt lat="66.29784" lon="13.38274">
        <ele>286.131926</ele>
        <time>2020-08-14T14:23:22.956Z</time>
      </trkpt>
      <trkpt lat="66.29784" lon="13.38311">
        <ele>284.96417</ele>
        <time>2020-08-14T14:23:23.928Z</time>
      </trkpt>
      <trkpt lat="66.29784" lon="13.38347">
        <ele>283.837234</ele>
        <time>2020-08-14T14:23:24.940Z</time>
      </trkpt>
      <trkpt lat="66.29785" lon="13.3838">
        <ele>282.77043</ele>
        <time>2020-08-14T14:23:25.884Z</time>
      </trkpt>
      <trkpt lat="66.29785" lon="13.38413">
        <ele>281.725856</ele>
        <time>2020-08-14T14:23:26.933Z</time>
      </trkpt>
      <trkpt lat="66.29785" lon="13.38445">
        <ele>280.725577</ele>
        <time>2020-08-14T14:23:27.897Z</time>
      </trkpt>
      <trkpt lat="66.29785" lon="13.38476">
        <ele>279.750257</ele>
        <time>2020-08-14T14:23:28.885Z</time>
      </trkpt>
      <trkpt lat="66.29785" lon="13.38507">
        <ele>278.775095</ele>
        <time>2020-08-14T14:23:29.894Z</time>
      </trkpt>
      <trkpt lat="66.29786" lon="13.38537">
        <ele>277.83132</ele>
        <time>2020-08-14T14:23:30.897Z</time>
      </trkpt>
      <trkpt lat="66.29786" lon="13.38567">
        <ele>276.875185</ele>
        <time>2020-08-14T14:23:31.897Z</time>
      </trkpt>
      <trkpt lat="66.29786" lon="13.38597">
        <ele>275.931411</ele>
        <time>2020-08-14T14:23:32.919Z</time>
      </trkpt>
      <trkpt lat="66.29786" lon="13.38627">
        <ele>274.9811</ele>
        <time>2020-08-14T14:23:33.890Z</time>
      </trkpt>
      <trkpt lat="66.29787" lon="13.38658">
        <ele>274.014384</ele>
        <time>2020-08-14T14:23:34.913Z</time>
      </trkpt>
      <trkpt lat="66.29788" lon="13.38689">
        <ele>273.037329</ele>
        <time>2020-08-14T14:23:35.936Z</time>
      </trkpt>
      <trkpt lat="66.29788" lon="13.3872">
        <ele>272.058262</ele>
        <time>2020-08-14T14:23:36.909Z</time>
      </trkpt>
      <trkpt lat="66.29789" lon="13.38752">
        <ele>271.173792</ele>
        <time>2020-08-14T14:23:37.914Z</time>
      </trkpt>
      <trkpt lat="66.29789" lon="13.38785">
        <ele>270.279006</ele>
        <time>2020-08-14T14:23:38.899Z</time>
      </trkpt>
      <trkpt lat="66.2979" lon="13.38818">
        <ele>269.380864</ele>
        <time>2020-08-14T14:23:39.937Z</time>
      </trkpt>
      <trkpt lat="66.2979" lon="13.38851">
        <ele>268.469051</ele>
        <time>2020-08-14T14:23:40.901Z</time>
      </trkpt>
      <trkpt lat="66.2979" lon="13.38884">
        <ele>267.565671</ele>
        <time>2020-08-14T14:23:41.887Z</time>
      </trkpt>
      <trkpt lat="66.29791" lon="13.38918">
        <ele>266.654087</ele>
        <time>2020-08-14T14:23:42.940Z</time>
      </trkpt>
      <trkpt lat="66.29791" lon="13.3895">
        <ele>265.756178</ele>
        <time>2020-08-14T14:23:43.905Z</time>
      </trkpt>
      <trkpt lat="66.29792" lon="13.38983">
        <ele>264.8528</ele>
        <time>2020-08-14T14:23:44.906Z</time>
      </trkpt>
      <trkpt lat="66.29792" lon="13.39016">
        <ele>263.960127</ele>
        <time>2020-08-14T14:23:45.911Z</time>
      </trkpt>
      <trkpt lat="66.29792" lon="13.39049">
        <ele>263.065135</ele>
        <time>2020-08-14T14:23:46.893Z</time>
      </trkpt>
      <trkpt lat="66.29793" lon="13.39081">
        <ele>262.177932</ele>
        <time>2020-08-14T14:23:47.888Z</time>
      </trkpt>
      <trkpt lat="66.29793" lon="13.39114">
        <ele>261.28526</ele>
        <time>2020-08-14T14:23:48.896Z</time>
      </trkpt>
      <trkpt lat="66.29794" lon="13.39147">
        <ele>260.384617</ele>
        <time>2020-08-14T14:23:49.896Z</time>
      </trkpt>
      <trkpt lat="66.29794" lon="13.3918">
        <ele>259.497549</ele>
        <time>2020-08-14T14:23:50.909Z</time>
      </trkpt>
      <trkpt lat="66.29795" lon="13.39213">
        <ele>258.622523</ele>
        <time>2020-08-14T14:23:51.890Z</time>
      </trkpt>
      <trkpt lat="66.29795" lon="13.39247">
        <ele>257.731697</ele>
        <time>2020-08-14T14:23:52.909Z</time>
      </trkpt>
      <trkpt lat="66.29796" lon="13.3928">
        <ele>256.840654</ele>
        <time>2020-08-14T14:23:53.914Z</time>
      </trkpt>
      <trkpt lat="66.29796" lon="13.39314">
        <ele>255.952461</ele>
        <time>2020-08-14T14:23:54.894Z</time>
      </trkpt>
      <trkpt lat="66.29796" lon="13.39348">
        <ele>255.054094</ele>
        <time>2020-08-14T14:23:55.897Z</time>
      </trkpt>
      <trkpt lat="66.29796" lon="13.39382">
        <ele>254.160635</ele>
        <time>2020-08-14T14:23:56.942Z</time>
      </trkpt>
      <trkpt lat="66.29797" lon="13.39415">
        <ele>253.285781</ele>
        <time>2020-08-14T14:23:57.895Z</time>
      </trkpt>
      <trkpt lat="66.29797" lon="13.39449">
        <ele>252.403026</ele>
        <time>2020-08-14T14:23:58.896Z</time>
      </trkpt>
      <trkpt lat="66.29797" lon="13.39482">
        <ele>251.515124</ele>
        <time>2020-08-14T14:23:59.899Z</time>
      </trkpt>
      <trkpt lat="66.29798" lon="13.39515">
        <ele>250.645538</ele>
        <time>2020-08-14T14:24:00.895Z</time>
      </trkpt>
      <trkpt lat="66.29798" lon="13.39549">
        <ele>249.765539</ele>
        <time>2020-08-14T14:24:01.916Z</time>
      </trkpt>
      <trkpt lat="66.29798" lon="13.39582">
        <ele>248.895953</ele>
        <time>2020-08-14T14:24:02.904Z</time>
      </trkpt>
      <trkpt lat="66.29798" lon="13.39616">
        <ele>248.058083</ele>
        <time>2020-08-14T14:24:03.883Z</time>
      </trkpt>
      <trkpt lat="66.29799" lon="13.39649">
        <ele>247.531737</ele>
        <time>2020-08-14T14:24:04.939Z</time>
      </trkpt>
      <trkpt lat="66.29799" lon="13.39682">
        <ele>247.015954</ele>
        <time>2020-08-14T14:24:05.890Z</time>
      </trkpt>
      <trkpt lat="66.298" lon="13.39716">
        <ele>246.490784</ele>
        <time>2020-08-14T14:24:06.895Z</time>
      </trkpt>
      <trkpt lat="66.298" lon="13.39749">
        <ele>245.961207</ele>
        <time>2020-08-14T14:24:07.927Z</time>
      </trkpt>
      <trkpt lat="66.29801" lon="13.39782">
        <ele>245.44433</ele>
        <time>2020-08-14T14:24:08.912Z</time>
      </trkpt>
      <trkpt lat="66.29801" lon="13.39815">
        <ele>244.936175</ele>
        <time>2020-08-14T14:24:09.897Z</time>
      </trkpt>
      <trkpt lat="66.29802" lon="13.39847">
        <ele>244.42525</ele>
        <time>2020-08-14T14:24:10.896Z</time>
      </trkpt>
      <trkpt lat="66.29802" lon="13.39879">
        <ele>243.923714</ele>
        <time>2020-08-14T14:24:11.929Z</time>
      </trkpt>
      <trkpt lat="66.29803" lon="13.3991">
        <ele>243.436403</ele>
        <time>2020-08-14T14:24:12.908Z</time>
      </trkpt>
      <trkpt lat="66.29803" lon="13.39942">
        <ele>242.942692</ele>
        <time>2020-08-14T14:24:13.896Z</time>
      </trkpt>
      <trkpt lat="66.29804" lon="13.39973">
        <ele>242.461641</ele>
        <time>2020-08-14T14:24:14.900Z</time>
      </trkpt>
      <trkpt lat="66.29804" lon="13.40002">
        <ele>241.99949</ele>
        <time>2020-08-14T14:24:15.888Z</time>
      </trkpt>
      <trkpt lat="66.29804" lon="13.40031">
        <ele>241.542035</ele>
        <time>2020-08-14T14:24:16.932Z</time>
      </trkpt>
      <trkpt lat="66.29805" lon="13.4006">
        <ele>241.109168</ele>
        <time>2020-08-14T14:24:17.900Z</time>
      </trkpt>
      <trkpt lat="66.29805" lon="13.40086">
        <ele>240.849091</ele>
        <time>2020-08-14T14:24:18.893Z</time>
      </trkpt>
      <trkpt lat="66.29806" lon="13.40112">
        <ele>240.597697</ele>
        <time>2020-08-14T14:24:19.911Z</time>
      </trkpt>
      <trkpt lat="66.29806" lon="13.40135">
        <ele>240.366016</ele>
        <time>2020-08-14T14:24:20.884Z</time>
      </trkpt>
      <trkpt lat="66.29807" lon="13.40159">
        <ele>240.136959</ele>
        <time>2020-08-14T14:24:21.934Z</time>
      </trkpt>
      <trkpt lat="66.29808" lon="13.40181">
        <ele>239.91845</ele>
        <time>2020-08-14T14:24:22.912Z</time>
      </trkpt>
      <trkpt lat="66.2981" lon="13.40224">
        <ele>239.493503</ele>
        <time>2020-08-14T14:24:24.905Z</time>
      </trkpt>
      <trkpt lat="66.29813" lon="13.40267">
        <ele>239.067587</ele>
        <time>2020-08-14T14:24:26.926Z</time>
      </trkpt>
      <trkpt lat="66.29817" lon="13.40307">
        <ele>238.661223</ele>
        <time>2020-08-14T14:24:28.929Z</time>
      </trkpt>
      <trkpt lat="66.29822" lon="13.40348">
        <ele>238.243526</ele>
        <time>2020-08-14T14:24:30.896Z</time>
      </trkpt>
      <trkpt lat="66.29828" lon="13.4039">
        <ele>237.805735</ele>
        <time>2020-08-14T14:24:32.930Z</time>
      </trkpt>
      <trkpt lat="66.29831" lon="13.40411">
        <ele>237.584652</ele>
        <time>2020-08-14T14:24:33.916Z</time>
      </trkpt>
      <trkpt lat="66.29835" lon="13.40433">
        <ele>237.345261</ele>
        <time>2020-08-14T14:24:34.929Z</time>
      </trkpt>
      <trkpt lat="66.29839" lon="13.40455">
        <ele>237.106122</ele>
        <time>2020-08-14T14:24:35.941Z</time>
      </trkpt>
      <trkpt lat="66.29844" lon="13.40477">
        <ele>236.861269</ele>
        <time>2020-08-14T14:24:36.898Z</time>
      </trkpt>
      <trkpt lat="66.2985" lon="13.40499">
        <ele>236.642583</ele>
        <time>2020-08-14T14:24:37.900Z</time>
      </trkpt>
      <trkpt lat="66.29856" lon="13.40521">
        <ele>236.460466</ele>
        <time>2020-08-14T14:24:38.900Z</time>
      </trkpt>
      <trkpt lat="66.29862" lon="13.40543">
        <ele>236.277121</ele>
        <time>2020-08-14T14:24:39.912Z</time>
      </trkpt>
      <trkpt lat="66.29868" lon="13.40564">
        <ele>236.092387</ele>
        <time>2020-08-14T14:24:40.932Z</time>
      </trkpt>
      <trkpt lat="66.29875" lon="13.40586">
        <ele>235.899629</ele>
        <time>2020-08-14T14:24:41.891Z</time>
      </trkpt>
      <trkpt lat="66.29882" lon="13.40608">
        <ele>235.707958</ele>
        <time>2020-08-14T14:24:42.922Z</time>
      </trkpt>
      <trkpt lat="66.29889" lon="13.40629">
        <ele>235.520063</ele>
        <time>2020-08-14T14:24:43.903Z</time>
      </trkpt>
      <trkpt lat="66.29896" lon="13.4065">
        <ele>235.334304</ele>
        <time>2020-08-14T14:24:44.887Z</time>
      </trkpt>
      <trkpt lat="66.29903" lon="13.4067">
        <ele>235.15072</ele>
        <time>2020-08-14T14:24:45.897Z</time>
      </trkpt>
      <trkpt lat="66.29909" lon="13.40691">
        <ele>234.971981</ele>
        <time>2020-08-14T14:24:46.908Z</time>
      </trkpt>
      <trkpt lat="66.29915" lon="13.4071">
        <ele>234.80131</ele>
        <time>2020-08-14T14:24:47.894Z</time>
      </trkpt>
      <trkpt lat="66.29922" lon="13.40728">
        <ele>234.633295</ele>
        <time>2020-08-14T14:24:48.952Z</time>
      </trkpt>
      <trkpt lat="66.29928" lon="13.40747">
        <ele>234.465863</ele>
        <time>2020-08-14T14:24:49.894Z</time>
      </trkpt>
      <trkpt lat="66.29933" lon="13.40766">
        <ele>234.305335</ele>
        <time>2020-08-14T14:24:50.889Z</time>
      </trkpt>
      <trkpt lat="66.29939" lon="13.40784">
        <ele>234.145833</ele>
        <time>2020-08-14T14:24:51.885Z</time>
      </trkpt>
      <trkpt lat="66.29944" lon="13.40803">
        <ele>233.989018</ele>
        <time>2020-08-14T14:24:52.898Z</time>
      </trkpt>
      <trkpt lat="66.29949" lon="13.40821">
        <ele>233.834776</ele>
        <time>2020-08-14T14:24:53.907Z</time>
      </trkpt>
      <trkpt lat="66.29959" lon="13.40856">
        <ele>233.452766</ele>
        <time>2020-08-14T14:24:55.933Z</time>
      </trkpt>
      <trkpt lat="66.29967" lon="13.40891">
        <ele>232.937103</ele>
        <time>2020-08-14T14:24:57.909Z</time>
      </trkpt>
      <trkpt lat="66.29975" lon="13.40924">
        <ele>232.456495</ele>
        <time>2020-08-14T14:24:59.939Z</time>
      </trkpt>
      <trkpt lat="66.29982" lon="13.40959">
        <ele>231.968961</ele>
        <time>2020-08-14T14:25:01.913Z</time>
      </trkpt>
      <trkpt lat="66.29988" lon="13.40995">
        <ele>231.469481</ele>
        <time>2020-08-14T14:25:03.904Z</time>
      </trkpt>
      <trkpt lat="66.29993" lon="13.41034">
        <ele>230.957439</ele>
        <time>2020-08-14T14:25:05.892Z</time>
      </trkpt>
      <trkpt lat="66.29998" lon="13.41075">
        <ele>230.41223</ele>
        <time>2020-08-14T14:25:07.904Z</time>
      </trkpt>
      <trkpt lat="66.3" lon="13.41097">
        <ele>230.128438</ele>
        <time>2020-08-14T14:25:08.889Z</time>
      </trkpt>
      <trkpt lat="66.30002" lon="13.4112">
        <ele>229.832961</ele>
        <time>2020-08-14T14:25:09.895Z</time>
      </trkpt>
      <trkpt lat="66.30004" lon="13.41144">
        <ele>229.526338</ele>
        <time>2020-08-14T14:25:10.905Z</time>
      </trkpt>
      <trkpt lat="66.30006" lon="13.41169">
        <ele>229.208553</ele>
        <time>2020-08-14T14:25:11.905Z</time>
      </trkpt>
      <trkpt lat="66.30007" lon="13.41194">
        <ele>228.877888</ele>
        <time>2020-08-14T14:25:12.916Z</time>
      </trkpt>
      <trkpt lat="66.30008" lon="13.41221">
        <ele>228.545926</ele>
        <time>2020-08-14T14:25:13.894Z</time>
      </trkpt>
      <trkpt lat="66.30009" lon="13.41248">
        <ele>228.199521</ele>
        <time>2020-08-14T14:25:14.912Z</time>
      </trkpt>
      <trkpt lat="66.3001" lon="13.41275">
        <ele>227.7031</ele>
        <time>2020-08-14T14:25:15.932Z</time>
      </trkpt>
      <trkpt lat="66.3001" lon="13.41302">
        <ele>226.979635</ele>
        <time>2020-08-14T14:25:16.897Z</time>
      </trkpt>
      <trkpt lat="66.3001" lon="13.4133">
        <ele>226.253522</ele>
        <time>2020-08-14T14:25:17.915Z</time>
      </trkpt>
      <trkpt lat="66.3001" lon="13.41357">
        <ele>225.543543</ele>
        <time>2020-08-14T14:25:18.909Z</time>
      </trkpt>
      <trkpt lat="66.3001" lon="13.41383">
        <ele>224.846808</ele>
        <time>2020-08-14T14:25:19.882Z</time>
      </trkpt>
      <trkpt lat="66.30011" lon="13.41409">
        <ele>224.151972</ele>
        <time>2020-08-14T14:25:20.916Z</time>
      </trkpt>
      <trkpt lat="66.30011" lon="13.41436">
        <ele>223.441992</ele>
        <time>2020-08-14T14:25:21.909Z</time>
      </trkpt>
      <trkpt lat="66.30011" lon="13.41463">
        <ele>222.737218</ele>
        <time>2020-08-14T14:25:22.893Z</time>
      </trkpt>
      <trkpt lat="66.30011" lon="13.41489">
        <ele>222.035216</ele>
        <time>2020-08-14T14:25:23.906Z</time>
      </trkpt>
      <trkpt lat="66.30011" lon="13.41517">
        <ele>221.301396</ele>
        <time>2020-08-14T14:25:24.901Z</time>
      </trkpt>
      <trkpt lat="66.30011" lon="13.41544">
        <ele>220.567487</ele>
        <time>2020-08-14T14:25:25.908Z</time>
      </trkpt>
      <trkpt lat="66.3001" lon="13.41573">
        <ele>219.807092</ele>
        <time>2020-08-14T14:25:26.912Z</time>
      </trkpt>
      <trkpt lat="66.3001" lon="13.41602">
        <ele>219.035961</ele>
        <time>2020-08-14T14:25:27.902Z</time>
      </trkpt>
      <trkpt lat="66.3001" lon="13.41631">
        <ele>218.267026</ele>
        <time>2020-08-14T14:25:28.885Z</time>
      </trkpt>
      <trkpt lat="66.30008" lon="13.4166">
        <ele>217.500659</ele>
        <time>2020-08-14T14:25:29.899Z</time>
      </trkpt>
      <trkpt lat="66.30007" lon="13.41688">
        <ele>216.744483</ele>
        <time>2020-08-14T14:25:30.933Z</time>
      </trkpt>
      <trkpt lat="66.30005" lon="13.41717">
        <ele>215.926476</ele>
        <time>2020-08-14T14:25:31.891Z</time>
      </trkpt>
      <trkpt lat="66.30003" lon="13.41746">
        <ele>214.885408</ele>
        <time>2020-08-14T14:25:32.890Z</time>
      </trkpt>
      <trkpt lat="66.30001" lon="13.41775">
        <ele>213.842677</ele>
        <time>2020-08-14T14:25:33.937Z</time>
      </trkpt>
      <trkpt lat="66.29998" lon="13.41804">
        <ele>212.790568</ele>
        <time>2020-08-14T14:25:34.907Z</time>
      </trkpt>
      <trkpt lat="66.29995" lon="13.41832">
        <ele>211.758116</ele>
        <time>2020-08-14T14:25:35.919Z</time>
      </trkpt>
      <trkpt lat="66.29992" lon="13.4186">
        <ele>210.744948</ele>
        <time>2020-08-14T14:25:36.896Z</time>
      </trkpt>
      <trkpt lat="66.29989" lon="13.41887">
        <ele>209.751001</ele>
        <time>2020-08-14T14:25:37.879Z</time>
      </trkpt>
      <trkpt lat="66.29985" lon="13.41914">
        <ele>208.743516</ele>
        <time>2020-08-14T14:25:38.904Z</time>
      </trkpt>
      <trkpt lat="66.29982" lon="13.4194">
        <ele>207.779012</ele>
        <time>2020-08-14T14:25:39.907Z</time>
      </trkpt>
      <trkpt lat="66.29978" lon="13.41965">
        <ele>206.842215</ele>
        <time>2020-08-14T14:25:40.908Z</time>
      </trkpt>
      <trkpt lat="66.29974" lon="13.41989">
        <ele>205.909944</ele>
        <time>2020-08-14T14:25:41.944Z</time>
      </trkpt>
      <trkpt lat="66.29969" lon="13.42012">
        <ele>204.995419</ele>
        <time>2020-08-14T14:25:42.937Z</time>
      </trkpt>
      <trkpt lat="66.29965" lon="13.42035">
        <ele>204.11107</ele>
        <time>2020-08-14T14:25:43.896Z</time>
      </trkpt>
      <trkpt lat="66.29961" lon="13.42058">
        <ele>203.240207</ele>
        <time>2020-08-14T14:25:44.897Z</time>
      </trkpt>
      <trkpt lat="66.29958" lon="13.42081">
        <ele>202.385826</ele>
        <time>2020-08-14T14:25:45.897Z</time>
      </trkpt>
      <trkpt lat="66.29954" lon="13.42104">
        <ele>201.515116</ele>
        <time>2020-08-14T14:25:46.905Z</time>
      </trkpt>
      <trkpt lat="66.2995" lon="13.42127">
        <ele>200.634619</ele>
        <time>2020-08-14T14:25:47.888Z</time>
      </trkpt>
      <trkpt lat="66.29946" lon="13.42151">
        <ele>199.625409</ele>
        <time>2020-08-14T14:25:48.947Z</time>
      </trkpt>
      <trkpt lat="66.29942" lon="13.42175">
        <ele>198.563688</ele>
        <time>2020-08-14T14:25:49.893Z</time>
      </trkpt>
      <trkpt lat="66.29938" lon="13.42201">
        <ele>197.434526</ele>
        <time>2020-08-14T14:25:50.916Z</time>
      </trkpt>
      <trkpt lat="66.29933" lon="13.42228">
        <ele>196.260309</ele>
        <time>2020-08-14T14:25:51.903Z</time>
      </trkpt>
      <trkpt lat="66.29929" lon="13.42255">
        <ele>195.06335</ele>
        <time>2020-08-14T14:25:52.936Z</time>
      </trkpt>
      <trkpt lat="66.29924" lon="13.42283">
        <ele>193.829144</ele>
        <time>2020-08-14T14:25:53.887Z</time>
      </trkpt>
      <trkpt lat="66.29919" lon="13.42312">
        <ele>192.564941</ele>
        <time>2020-08-14T14:25:54.909Z</time>
      </trkpt>
      <trkpt lat="66.29914" lon="13.4234">
        <ele>191.311081</ele>
        <time>2020-08-14T14:25:55.889Z</time>
      </trkpt>
      <trkpt lat="66.29909" lon="13.42367">
        <ele>190.126895</ele>
        <time>2020-08-14T14:25:56.912Z</time>
      </trkpt>
      <trkpt lat="66.29904" lon="13.42391">
        <ele>188.998491</ele>
        <time>2020-08-14T14:25:57.933Z</time>
      </trkpt>
      <trkpt lat="66.29898" lon="13.42415">
        <ele>187.881908</ele>
        <time>2020-08-14T14:25:58.943Z</time>
      </trkpt>
      <trkpt lat="66.29892" lon="13.42437">
        <ele>186.795807</ele>
        <time>2020-08-14T14:25:59.917Z</time>
      </trkpt>
      <trkpt lat="66.29886" lon="13.42459">
        <ele>185.720137</ele>
        <time>2020-08-14T14:26:00.907Z</time>
      </trkpt>
      <trkpt lat="66.29879" lon="13.4248">
        <ele>184.633054</ele>
        <time>2020-08-14T14:26:01.905Z</time>
      </trkpt>
      <trkpt lat="66.29872" lon="13.42499">
        <ele>183.556593</ele>
        <time>2020-08-14T14:26:02.905Z</time>
      </trkpt>
      <trkpt lat="66.29864" lon="13.42518">
        <ele>182.501424</ele>
        <time>2020-08-14T14:26:03.916Z</time>
      </trkpt>
      <trkpt lat="66.29857" lon="13.42535">
        <ele>181.372761</ele>
        <time>2020-08-14T14:26:04.896Z</time>
      </trkpt>
      <trkpt lat="66.29849" lon="13.4255">
        <ele>180.215726</ele>
        <time>2020-08-14T14:26:05.911Z</time>
      </trkpt>
      <trkpt lat="66.29841" lon="13.42564">
        <ele>179.050847</ele>
        <time>2020-08-14T14:26:06.908Z</time>
      </trkpt>
      <trkpt lat="66.29832" lon="13.42577">
        <ele>177.901551</ele>
        <time>2020-08-14T14:26:07.898Z</time>
      </trkpt>
      <trkpt lat="66.29824" lon="13.42588">
        <ele>176.766</ele>
        <time>2020-08-14T14:26:08.919Z</time>
      </trkpt>
      <trkpt lat="66.29815" lon="13.42598">
        <ele>175.671312</ele>
        <time>2020-08-14T14:26:09.893Z</time>
      </trkpt>
      <trkpt lat="66.29807" lon="13.42606">
        <ele>174.614896</ele>
        <time>2020-08-14T14:26:10.900Z</time>
      </trkpt>
      <trkpt lat="66.2979" lon="13.42619">
        <ele>172.599854</ele>
        <time>2020-08-14T14:26:12.920Z</time>
      </trkpt>
      <trkpt lat="66.29774" lon="13.42628">
        <ele>170.694081</ele>
        <time>2020-08-14T14:26:14.893Z</time>
      </trkpt>
      <trkpt lat="66.29757" lon="13.42633">
        <ele>168.702161</ele>
        <time>2020-08-14T14:26:16.906Z</time>
      </trkpt>
      <trkpt lat="66.2974" lon="13.42635">
        <ele>166.626768</ele>
        <time>2020-08-14T14:26:18.908Z</time>
      </trkpt>
      <trkpt lat="66.2973" lon="13.42637">
        <ele>165.54075</ele>
        <time>2020-08-14T14:26:19.912Z</time>
      </trkpt>
      <trkpt lat="66.29721" lon="13.42638">
        <ele>164.433047</ele>
        <time>2020-08-14T14:26:20.937Z</time>
      </trkpt>
      <trkpt lat="66.29711" lon="13.4264">
        <ele>163.313456</ele>
        <time>2020-08-14T14:26:21.892Z</time>
      </trkpt>
      <trkpt lat="66.29701" lon="13.42641">
        <ele>162.159488</ele>
        <time>2020-08-14T14:26:22.916Z</time>
      </trkpt>
      <trkpt lat="66.29691" lon="13.42643">
        <ele>161.061212</ele>
        <time>2020-08-14T14:26:23.909Z</time>
      </trkpt>
      <trkpt lat="66.29682" lon="13.42646">
        <ele>160.137063</ele>
        <time>2020-08-14T14:26:24.912Z</time>
      </trkpt>
      <trkpt lat="66.29673" lon="13.42649">
        <ele>159.201631</ele>
        <time>2020-08-14T14:26:25.933Z</time>
      </trkpt>
      <trkpt lat="66.29663" lon="13.42653">
        <ele>158.270565</ele>
        <time>2020-08-14T14:26:26.898Z</time>
      </trkpt>
      <trkpt lat="66.29654" lon="13.42659">
        <ele>157.293107</ele>
        <time>2020-08-14T14:26:27.913Z</time>
      </trkpt>
      <trkpt lat="66.29644" lon="13.42666">
        <ele>156.295627</ele>
        <time>2020-08-14T14:26:28.894Z</time>
      </trkpt>
      <trkpt lat="66.29634" lon="13.42675">
        <ele>155.208036</ele>
        <time>2020-08-14T14:26:29.890Z</time>
      </trkpt>
      <trkpt lat="66.29623" lon="13.42685">
        <ele>154.114372</ele>
        <time>2020-08-14T14:26:30.888Z</time>
      </trkpt>
      <trkpt lat="66.29613" lon="13.42697">
        <ele>152.988355</ele>
        <time>2020-08-14T14:26:31.933Z</time>
      </trkpt>
      <trkpt lat="66.29603" lon="13.4271">
        <ele>151.850726</ele>
        <time>2020-08-14T14:26:32.903Z</time>
      </trkpt>
      <trkpt lat="66.29593" lon="13.42724">
        <ele>150.719367</ele>
        <time>2020-08-14T14:26:33.909Z</time>
      </trkpt>
      <trkpt lat="66.29584" lon="13.4274">
        <ele>149.6521</ele>
        <time>2020-08-14T14:26:34.898Z</time>
      </trkpt>
      <trkpt lat="66.29575" lon="13.42755">
        <ele>148.591767</ele>
        <time>2020-08-14T14:26:35.897Z</time>
      </trkpt>
      <trkpt lat="66.29567" lon="13.42772">
        <ele>147.58423</ele>
        <time>2020-08-14T14:26:36.912Z</time>
      </trkpt>
      <trkpt lat="66.29561" lon="13.42789">
        <ele>146.640076</ele>
        <time>2020-08-14T14:26:37.904Z</time>
      </trkpt>
      <trkpt lat="66.29554" lon="13.42806">
        <ele>145.707676</ele>
        <time>2020-08-14T14:26:38.890Z</time>
      </trkpt>
      <trkpt lat="66.29548" lon="13.42823">
        <ele>144.784863</ele>
        <time>2020-08-14T14:26:39.897Z</time>
      </trkpt>
      <trkpt lat="66.29542" lon="13.42841">
        <ele>143.865706</ele>
        <time>2020-08-14T14:26:40.891Z</time>
      </trkpt>
      <trkpt lat="66.29536" lon="13.4286">
        <ele>143.373622</ele>
        <time>2020-08-14T14:26:41.951Z</time>
      </trkpt>
      <trkpt lat="66.2953" lon="13.42879">
        <ele>143.079626</ele>
        <time>2020-08-14T14:26:42.918Z</time>
      </trkpt>
      <trkpt lat="66.29525" lon="13.42899">
        <ele>142.795557</ele>
        <time>2020-08-14T14:26:43.887Z</time>
      </trkpt>
      <trkpt lat="66.29517" lon="13.42935">
        <ele>142.30896</ele>
        <time>2020-08-14T14:26:45.907Z</time>
      </trkpt>
      <trkpt lat="66.29511" lon="13.4297">
        <ele>141.844803</ele>
        <time>2020-08-14T14:26:47.911Z</time>
      </trkpt>
      <trkpt lat="66.29504" lon="13.43032">
        <ele>141.0615</ele>
        <time>2020-08-14T14:26:51.008Z</time>
      </trkpt>
      <trkpt lat="66.29502" lon="13.43056">
        <ele>140.76719</ele>
        <time>2020-08-14T14:26:51.924Z</time>
      </trkpt>
      <trkpt lat="66.29501" lon="13.43078">
        <ele>140.494535</ele>
        <time>2020-08-14T14:26:52.928Z</time>
      </trkpt>
      <trkpt lat="66.29499" lon="13.43118">
        <ele>140.010139</ele>
        <time>2020-08-14T14:26:54.930Z</time>
      </trkpt>
      <trkpt lat="66.29499" lon="13.43155">
        <ele>139.565543</ele>
        <time>2020-08-14T14:26:56.950Z</time>
      </trkpt>
      <trkpt lat="66.295" lon="13.43188">
        <ele>139.168591</ele>
        <time>2020-08-14T14:26:58.955Z</time>
      </trkpt>
      <trkpt lat="66.29502" lon="13.43218">
        <ele>138.800202</ele>
        <time>2020-08-14T14:27:00.922Z</time>
      </trkpt>
      <trkpt lat="66.29589" lon="13.43667">
        <ele>138.718178</ele>
        <time>2020-08-14T14:27:26.885Z</time>
      </trkpt>
      <trkpt lat="66.29594" lon="13.43695">
        <ele>137.893162</ele>
        <time>2020-08-14T14:27:28.911Z</time>
      </trkpt>
      <trkpt lat="66.29599" lon="13.43743">
        <ele>136.480296</ele>
        <time>2020-08-14T14:27:30.953Z</time>
      </trkpt>
      <trkpt lat="66.29605" lon="13.43791">
        <ele>135.057889</ele>
        <time>2020-08-14T14:27:31.885Z</time>
      </trkpt>
      <trkpt lat="66.29603" lon="13.43817">
        <ele>134.318767</ele>
        <time>2020-08-14T14:27:33.913Z</time>
      </trkpt>
      <trkpt lat="66.29603" lon="13.43857">
        <ele>133.181245</ele>
        <time>2020-08-14T14:27:35.897Z</time>
      </trkpt>
      <trkpt lat="66.29602" lon="13.4388">
        <ele>132.538258</ele>
        <time>2020-08-14T14:27:36.912Z</time>
      </trkpt>
      <trkpt lat="66.29602" lon="13.43904">
        <ele>131.869444</ele>
        <time>2020-08-14T14:27:37.885Z</time>
      </trkpt>
      <trkpt lat="66.296" lon="13.43929">
        <ele>131.14892</ele>
        <time>2020-08-14T14:27:38.945Z</time>
      </trkpt>
      <trkpt lat="66.29598" lon="13.43955">
        <ele>130.409857</ele>
        <time>2020-08-14T14:27:39.900Z</time>
      </trkpt>
      <trkpt lat="66.29596" lon="13.43982">
        <ele>129.622942</ele>
        <time>2020-08-14T14:27:40.892Z</time>
      </trkpt>
      <trkpt lat="66.29592" lon="13.4401">
        <ele>128.790915</ele>
        <time>2020-08-14T14:27:41.913Z</time>
      </trkpt>
      <trkpt lat="66.29588" lon="13.44037">
        <ele>127.968464</ele>
        <time>2020-08-14T14:27:42.913Z</time>
      </trkpt>
      <trkpt lat="66.29584" lon="13.44065">
        <ele>127.115336</ele>
        <time>2020-08-14T14:27:43.918Z</time>
      </trkpt>
      <trkpt lat="66.29578" lon="13.44093">
        <ele>126.226221</ele>
        <time>2020-08-14T14:27:44.900Z</time>
      </trkpt>
      <trkpt lat="66.29571" lon="13.4412">
        <ele>125.410715</ele>
        <time>2020-08-14T14:27:45.893Z</time>
      </trkpt>
      <trkpt lat="66.29564" lon="13.44147">
        <ele>124.596126</ele>
        <time>2020-08-14T14:27:46.895Z</time>
      </trkpt>
      <trkpt lat="66.29556" lon="13.44173">
        <ele>123.778504</ele>
        <time>2020-08-14T14:27:47.902Z</time>
      </trkpt>
      <trkpt lat="66.29548" lon="13.44199">
        <ele>122.971911</ele>
        <time>2020-08-14T14:27:48.891Z</time>
      </trkpt>
      <trkpt lat="66.2954" lon="13.44224">
        <ele>122.157626</ele>
        <time>2020-08-14T14:27:49.907Z</time>
      </trkpt>
      <trkpt lat="66.29532" lon="13.44248">
        <ele>121.370696</ele>
        <time>2020-08-14T14:27:50.885Z</time>
      </trkpt>
      <trkpt lat="66.29524" lon="13.44273">
        <ele>120.581626</ele>
        <time>2020-08-14T14:27:51.898Z</time>
      </trkpt>
      <trkpt lat="66.29517" lon="13.44299">
        <ele>119.7994</ele>
        <time>2020-08-14T14:27:52.897Z</time>
      </trkpt>
      <trkpt lat="66.29512" lon="13.44327">
        <ele>119.007334</ele>
        <time>2020-08-14T14:27:53.905Z</time>
      </trkpt>
      <trkpt lat="66.29507" lon="13.44357">
        <ele>118.200665</ele>
        <time>2020-08-14T14:27:54.920Z</time>
      </trkpt>
      <trkpt lat="66.29503" lon="13.44389">
        <ele>117.377745</ele>
        <time>2020-08-14T14:27:55.923Z</time>
      </trkpt>
      <trkpt lat="66.29501" lon="13.44421">
        <ele>116.560419</ele>
        <time>2020-08-14T14:27:56.901Z</time>
      </trkpt>
      <trkpt lat="66.295" lon="13.44453">
        <ele>115.75027</ele>
        <time>2020-08-14T14:27:57.896Z</time>
      </trkpt>
      <trkpt lat="66.29501" lon="13.44486">
        <ele>114.943274</ele>
        <time>2020-08-14T14:27:58.908Z</time>
      </trkpt>
      <trkpt lat="66.29502" lon="13.44517">
        <ele>114.036128</ele>
        <time>2020-08-14T14:27:59.925Z</time>
      </trkpt>
      <trkpt lat="66.29505" lon="13.44547">
        <ele>113.149502</ele>
        <time>2020-08-14T14:28:00.908Z</time>
      </trkpt>
      <trkpt lat="66.29509" lon="13.44576">
        <ele>112.283437</ele>
        <time>2020-08-14T14:28:01.907Z</time>
      </trkpt>
      <trkpt lat="66.29514" lon="13.44604">
        <ele>111.403577</ele>
        <time>2020-08-14T14:28:02.912Z</time>
      </trkpt>
      <trkpt lat="66.2952" lon="13.44632">
        <ele>110.501965</ele>
        <time>2020-08-14T14:28:03.909Z</time>
      </trkpt>
      <trkpt lat="66.29527" lon="13.44658">
        <ele>109.598016</ele>
        <time>2020-08-14T14:28:04.893Z</time>
      </trkpt>
      <trkpt lat="66.29534" lon="13.44683">
        <ele>108.700016</ele>
        <time>2020-08-14T14:28:05.917Z</time>
      </trkpt>
      <trkpt lat="66.29543" lon="13.44703">
        <ele>107.830364</ele>
        <time>2020-08-14T14:28:06.890Z</time>
      </trkpt>
      <trkpt lat="66.29553" lon="13.44723">
        <ele>106.93694</ele>
        <time>2020-08-14T14:28:07.897Z</time>
      </trkpt>
      <trkpt lat="66.29563" lon="13.44741">
        <ele>106.042128</ele>
        <time>2020-08-14T14:28:08.910Z</time>
      </trkpt>
      <trkpt lat="66.29573" lon="13.44759">
        <ele>105.156476</ele>
        <time>2020-08-14T14:28:09.931Z</time>
      </trkpt>
      <trkpt lat="66.29583" lon="13.44776">
        <ele>104.287486</ele>
        <time>2020-08-14T14:28:10.916Z</time>
      </trkpt>
      <trkpt lat="66.29593" lon="13.44793">
        <ele>103.437712</ele>
        <time>2020-08-14T14:28:11.881Z</time>
      </trkpt>
      <trkpt lat="66.29602" lon="13.4481">
        <ele>102.628613</ele>
        <time>2020-08-14T14:28:12.893Z</time>
      </trkpt>
      <trkpt lat="66.2961" lon="13.44829">
        <ele>101.812851</ele>
        <time>2020-08-14T14:28:13.889Z</time>
      </trkpt>
      <trkpt lat="66.29618" lon="13.44848">
        <ele>100.93845</ele>
        <time>2020-08-14T14:28:14.915Z</time>
      </trkpt>
      <trkpt lat="66.29626" lon="13.44869">
        <ele>100.06675</ele>
        <time>2020-08-14T14:28:15.903Z</time>
      </trkpt>
      <trkpt lat="66.29633" lon="13.44894">
        <ele>99.0953</ele>
        <time>2020-08-14T14:28:16.897Z</time>
      </trkpt>
      <trkpt lat="66.29639" lon="13.44919">
        <ele>98.191644</ele>
        <time>2020-08-14T14:28:17.933Z</time>
      </trkpt>
      <trkpt lat="66.29644" lon="13.44945">
        <ele>97.292772</ele>
        <time>2020-08-14T14:28:18.926Z</time>
      </trkpt>
      <trkpt lat="66.29648" lon="13.44973">
        <ele>96.323118</ele>
        <time>2020-08-14T14:28:19.897Z</time>
      </trkpt>
      <trkpt lat="66.29652" lon="13.45004">
        <ele>95.31501</ele>
        <time>2020-08-14T14:28:20.912Z</time>
      </trkpt>
      <trkpt lat="66.29655" lon="13.45036">
        <ele>94.270998</ele>
        <time>2020-08-14T14:28:21.888Z</time>
      </trkpt>
      <trkpt lat="66.29658" lon="13.45069">
        <ele>93.22788</ele>
        <time>2020-08-14T14:28:22.925Z</time>
      </trkpt>
      <trkpt lat="66.29661" lon="13.45101">
        <ele>92.192288</ele>
        <time>2020-08-14T14:28:23.903Z</time>
      </trkpt>
      <trkpt lat="66.29664" lon="13.45133">
        <ele>91.152466</ele>
        <time>2020-08-14T14:28:24.900Z</time>
      </trkpt>
      <trkpt lat="66.29668" lon="13.45164">
        <ele>90.142039</ele>
        <time>2020-08-14T14:28:25.892Z</time>
      </trkpt>
      <trkpt lat="66.29673" lon="13.45193">
        <ele>89.146178</ele>
        <time>2020-08-14T14:28:26.915Z</time>
      </trkpt>
      <trkpt lat="66.29679" lon="13.4522">
        <ele>88.178673</ele>
        <time>2020-08-14T14:28:27.926Z</time>
      </trkpt>
      <trkpt lat="66.29686" lon="13.45244">
        <ele>87.383542</ele>
        <time>2020-08-14T14:28:28.893Z</time>
      </trkpt>
      <trkpt lat="66.29694" lon="13.45266">
        <ele>86.637557</ele>
        <time>2020-08-14T14:28:29.909Z</time>
      </trkpt>
      <trkpt lat="66.29703" lon="13.45287">
        <ele>85.86872</ele>
        <time>2020-08-14T14:28:30.930Z</time>
      </trkpt>
      <trkpt lat="66.29712" lon="13.45305">
        <ele>85.105793</ele>
        <time>2020-08-14T14:28:31.892Z</time>
      </trkpt>
      <trkpt lat="66.29722" lon="13.45322">
        <ele>84.366971</ele>
        <time>2020-08-14T14:28:32.895Z</time>
      </trkpt>
      <trkpt lat="66.29732" lon="13.45336">
        <ele>83.651909</ele>
        <time>2020-08-14T14:28:33.923Z</time>
      </trkpt>
      <trkpt lat="66.29742" lon="13.45348">
        <ele>82.923673</ele>
        <time>2020-08-14T14:28:34.919Z</time>
      </trkpt>
      <trkpt lat="66.29753" lon="13.45358">
        <ele>82.170263</ele>
        <time>2020-08-14T14:28:35.911Z</time>
      </trkpt>
      <trkpt lat="66.29765" lon="13.45366">
        <ele>81.405173</ele>
        <time>2020-08-14T14:28:36.899Z</time>
      </trkpt>
      <trkpt lat="66.29777" lon="13.45372">
        <ele>80.623112</ele>
        <time>2020-08-14T14:28:37.917Z</time>
      </trkpt>
      <trkpt lat="66.2979" lon="13.45375">
        <ele>79.800854</ele>
        <time>2020-08-14T14:28:38.896Z</time>
      </trkpt>
      <trkpt lat="66.29803" lon="13.45377">
        <ele>78.956706</ele>
        <time>2020-08-14T14:28:39.904Z</time>
      </trkpt>
      <trkpt lat="66.29816" lon="13.45378">
        <ele>78.119818</ele>
        <time>2020-08-14T14:28:40.936Z</time>
      </trkpt>
      <trkpt lat="66.29829" lon="13.45377">
        <ele>77.289362</ele>
        <time>2020-08-14T14:28:41.906Z</time>
      </trkpt>
      <trkpt lat="66.29842" lon="13.45377">
        <ele>76.456466</ele>
        <time>2020-08-14T14:28:42.928Z</time>
      </trkpt>
      <trkpt lat="66.29856" lon="13.45376">
        <ele>75.546651</ele>
        <time>2020-08-14T14:28:43.917Z</time>
      </trkpt>
      <trkpt lat="66.29868" lon="13.45377">
        <ele>74.68547</ele>
        <time>2020-08-14T14:28:44.889Z</time>
      </trkpt>
      <trkpt lat="66.2988" lon="13.45378">
        <ele>73.816604</ele>
        <time>2020-08-14T14:28:45.911Z</time>
      </trkpt>
      <trkpt lat="66.29892" lon="13.45381">
        <ele>73.006658</ele>
        <time>2020-08-14T14:28:46.887Z</time>
      </trkpt>
      <trkpt lat="66.29903" lon="13.45386">
        <ele>72.210997</ele>
        <time>2020-08-14T14:28:47.896Z</time>
      </trkpt>
      <trkpt lat="66.29914" lon="13.45393">
        <ele>71.441194</ele>
        <time>2020-08-14T14:28:48.918Z</time>
      </trkpt>
      <trkpt lat="66.29924" lon="13.45402">
        <ele>70.712763</ele>
        <time>2020-08-14T14:28:49.897Z</time>
      </trkpt>
      <trkpt lat="66.29933" lon="13.45413">
        <ele>69.983859</ele>
        <time>2020-08-14T14:28:50.923Z</time>
      </trkpt>
      <trkpt lat="66.29943" lon="13.45426">
        <ele>69.240266</ele>
        <time>2020-08-14T14:28:51.913Z</time>
      </trkpt>
      <trkpt lat="66.29951" lon="13.45441">
        <ele>68.526163</ele>
        <time>2020-08-14T14:28:52.907Z</time>
      </trkpt>
      <trkpt lat="66.29958" lon="13.45459">
        <ele>67.830997</ele>
        <time>2020-08-14T14:28:53.895Z</time>
      </trkpt>
      <trkpt lat="66.29965" lon="13.45479">
        <ele>67.09562</ele>
        <time>2020-08-14T14:28:54.931Z</time>
      </trkpt>
      <trkpt lat="66.29971" lon="13.45501">
        <ele>66.354136</ele>
        <time>2020-08-14T14:28:55.907Z</time>
      </trkpt>
      <trkpt lat="66.29976" lon="13.45525">
        <ele>65.603706</ele>
        <time>2020-08-14T14:28:56.915Z</time>
      </trkpt>
      <trkpt lat="66.29981" lon="13.4555">
        <ele>64.820605</ele>
        <time>2020-08-14T14:28:57.896Z</time>
      </trkpt>
      <trkpt lat="66.29984" lon="13.45577">
        <ele>64.014706</ele>
        <time>2020-08-14T14:28:58.911Z</time>
      </trkpt>
      <trkpt lat="66.29987" lon="13.45605">
        <ele>62.962027</ele>
        <time>2020-08-14T14:28:59.902Z</time>
      </trkpt>
      <trkpt lat="66.2999" lon="13.45634">
        <ele>61.861399</ele>
        <time>2020-08-14T14:29:00.911Z</time>
      </trkpt>
      <trkpt lat="66.29993" lon="13.45664">
        <ele>60.7233</ele>
        <time>2020-08-14T14:29:01.890Z</time>
      </trkpt>
      <trkpt lat="66.29995" lon="13.45695">
        <ele>59.576086</ele>
        <time>2020-08-14T14:29:02.897Z</time>
      </trkpt>
      <trkpt lat="66.29998" lon="13.45726">
        <ele>58.418109</ele>
        <time>2020-08-14T14:29:03.907Z</time>
      </trkpt>
      <trkpt lat="66.30001" lon="13.45757">
        <ele>57.2474</ele>
        <time>2020-08-14T14:29:04.904Z</time>
      </trkpt>
      <trkpt lat="66.30004" lon="13.45788">
        <ele>56.066162</ele>
        <time>2020-08-14T14:29:05.927Z</time>
      </trkpt>
      <trkpt lat="66.30006" lon="13.45819">
        <ele>54.926344</ele>
        <time>2020-08-14T14:29:06.904Z</time>
      </trkpt>
      <trkpt lat="66.30008" lon="13.45849">
        <ele>53.786439</ele>
        <time>2020-08-14T14:29:07.916Z</time>
      </trkpt>
      <trkpt lat="66.30011" lon="13.4588">
        <ele>52.61957</ele>
        <time>2020-08-14T14:29:08.894Z</time>
      </trkpt>
      <trkpt lat="66.30013" lon="13.45912">
        <ele>51.449129</ele>
        <time>2020-08-14T14:29:09.890Z</time>
      </trkpt>
      <trkpt lat="66.30016" lon="13.45943">
        <ele>50.285882</ele>
        <time>2020-08-14T14:29:10.895Z</time>
      </trkpt>
      <trkpt lat="66.30019" lon="13.45974">
        <ele>49.115443</ele>
        <time>2020-08-14T14:29:11.892Z</time>
      </trkpt>
      <trkpt lat="66.30021" lon="13.46005">
        <ele>47.930614</ele>
        <time>2020-08-14T14:29:12.909Z</time>
      </trkpt>
      <trkpt lat="66.30023" lon="13.46037">
        <ele>47.366756</ele>
        <time>2020-08-14T14:29:13.919Z</time>
      </trkpt>
      <trkpt lat="66.30026" lon="13.46069">
        <ele>47.022013</ele>
        <time>2020-08-14T14:29:14.905Z</time>
      </trkpt>
      <trkpt lat="66.30028" lon="13.46101">
        <ele>46.671076</ele>
        <time>2020-08-14T14:29:15.914Z</time>
      </trkpt>
      <trkpt lat="66.30029" lon="13.46132">
        <ele>46.328582</ele>
        <time>2020-08-14T14:29:16.909Z</time>
      </trkpt>
      <trkpt lat="66.3003" lon="13.46164">
        <ele>45.986877</ele>
        <time>2020-08-14T14:29:17.899Z</time>
      </trkpt>
      <trkpt lat="66.30031" lon="13.46194">
        <ele>45.656742</ele>
        <time>2020-08-14T14:29:18.944Z</time>
      </trkpt>
      <trkpt lat="66.30032" lon="13.46223">
        <ele>45.341814</ele>
        <time>2020-08-14T14:29:19.898Z</time>
      </trkpt>
      <trkpt lat="66.30032" lon="13.46252">
        <ele>45.030314</ele>
        <time>2020-08-14T14:29:20.907Z</time>
      </trkpt>
      <trkpt lat="66.30032" lon="13.4628">
        <ele>44.727456</ele>
        <time>2020-08-14T14:29:21.896Z</time>
      </trkpt>
      <trkpt lat="66.30031" lon="13.46308">
        <ele>44.428741</ele>
        <time>2020-08-14T14:29:22.928Z</time>
      </trkpt>
      <trkpt lat="66.30031" lon="13.46334">
        <ele>44.145983</ele>
        <time>2020-08-14T14:29:23.943Z</time>
      </trkpt>
      <trkpt lat="66.3003" lon="13.46359">
        <ele>43.872943</ele>
        <time>2020-08-14T14:29:24.912Z</time>
      </trkpt>
      <trkpt lat="66.3003" lon="13.46382">
        <ele>43.61854</ele>
        <time>2020-08-14T14:29:25.930Z</time>
      </trkpt>
      <trkpt lat="66.30029" lon="13.46424">
        <ele>43.165224</ele>
        <time>2020-08-14T14:29:27.936Z</time>
      </trkpt>
      <trkpt lat="66.30029" lon="13.46458">
        <ele>42.795918</ele>
        <time>2020-08-14T14:29:29.949Z</time>
      </trkpt>
      <trkpt lat="66.30029" lon="13.46486">
        <ele>43.475427</ele>
        <time>2020-08-14T14:29:31.929Z</time>
      </trkpt>
      <trkpt lat="66.3003" lon="13.46512">
        <ele>44.135748</ele>
        <time>2020-08-14T14:29:33.936Z</time>
      </trkpt>
      <trkpt lat="66.30032" lon="13.46542">
        <ele>44.922353</ele>
        <time>2020-08-14T14:29:36.924Z</time>
      </trkpt>
      <trkpt lat="66.30034" lon="13.46569">
        <ele>45.623939</ele>
        <time>2020-08-14T14:29:39.909Z</time>
      </trkpt>
      <trkpt lat="66.30037" lon="13.46594">
        <ele>46.282933</ele>
        <time>2020-08-14T14:29:42.906Z</time>
      </trkpt>
      <trkpt lat="66.30041" lon="13.4662">
        <ele>46.967894</ele>
        <time>2020-08-14T14:29:45.899Z</time>
      </trkpt>
      <trkpt lat="66.30044" lon="13.46644">
        <ele>47.628607</ele>
        <time>2020-08-14T14:29:48.911Z</time>
      </trkpt>
      <trkpt lat="66.30049" lon="13.46668">
        <ele>48.301198</ele>
        <time>2020-08-14T14:29:51.896Z</time>
      </trkpt>
      <trkpt lat="66.30052" lon="13.46689">
        <ele>48.872432</ele>
        <time>2020-08-14T14:29:54.900Z</time>
      </trkpt>
      <trkpt lat="66.30057" lon="13.46713">
        <ele>49.570897</ele>
        <time>2020-08-14T14:29:58.926Z</time>
      </trkpt>
      <trkpt lat="66.30062" lon="13.46737">
        <ele>50.229303</ele>
        <time>2020-08-14T14:30:02.953Z</time>
      </trkpt>
      <trkpt lat="66.30065" lon="13.4676">
        <ele>50.861594</ele>
        <time>2020-08-14T14:30:06.909Z</time>
      </trkpt>
      <trkpt lat="66.30069" lon="13.46782">
        <ele>51.460782</ele>
        <time>2020-08-14T14:30:10.904Z</time>
      </trkpt>
      <trkpt lat="66.30073" lon="13.46805">
        <ele>52.109895</ele>
        <time>2020-08-14T14:30:14.907Z</time>
      </trkpt>
      <trkpt lat="66.30076" lon="13.46828">
        <ele>52.718543</ele>
        <time>2020-08-14T14:30:18.915Z</time>
      </trkpt>
      <trkpt lat="66.3008" lon="13.46848">
        <ele>53.292772</ele>
        <time>2020-08-14T14:30:22.899Z</time>
      </trkpt>
      <trkpt lat="66.30084" lon="13.46869">
        <ele>53.865963</ele>
        <time>2020-08-14T14:30:26.934Z</time>
      </trkpt>
      <trkpt lat="66.30087" lon="13.46894">
        <ele>54.359149</ele>
        <time>2020-08-14T14:30:30.890Z</time>
      </trkpt>
      <trkpt lat="66.30091" lon="13.46917">
        <ele>54.703673</ele>
        <time>2020-08-14T14:30:34.908Z</time>
      </trkpt>
      <trkpt lat="66.30095" lon="13.46942">
        <ele>55.065941</ele>
        <time>2020-08-14T14:30:38.895Z</time>
      </trkpt>
      <trkpt lat="66.30097" lon="13.46965">
        <ele>55.390127</ele>
        <time>2020-08-14T14:30:42.920Z</time>
      </trkpt>
      <trkpt lat="66.30101" lon="13.46988">
        <ele>55.724677</ele>
        <time>2020-08-14T14:30:46.925Z</time>
      </trkpt>
      <trkpt lat="66.30105" lon="13.47014">
        <ele>56.093132</ele>
        <time>2020-08-14T14:30:50.892Z</time>
      </trkpt>
      <trkpt lat="66.30108" lon="13.47038">
        <ele>56.44515</ele>
        <time>2020-08-14T14:30:54.939Z</time>
      </trkpt>
      <trkpt lat="66.30112" lon="13.47059">
        <ele>56.761915</ele>
        <time>2020-08-14T14:30:58.925Z</time>
      </trkpt>
      <trkpt lat="66.30115" lon="13.47082">
        <ele>57.09528</ele>
        <time>2020-08-14T14:31:02.912Z</time>
      </trkpt>
      <trkpt lat="66.30118" lon="13.47106">
        <ele>57.428814</ele>
        <time>2020-08-14T14:31:06.903Z</time>
      </trkpt>
      <trkpt lat="66.3012" lon="13.47129">
        <ele>57.752783</ele>
        <time>2020-08-14T14:31:10.903Z</time>
      </trkpt>
      <trkpt lat="66.30122" lon="13.47153">
        <ele>58.090167</ele>
        <time>2020-08-14T14:31:14.901Z</time>
      </trkpt>
      <trkpt lat="66.30125" lon="13.47177">
        <ele>58.428683</ele>
        <time>2020-08-14T14:31:18.912Z</time>
      </trkpt>
      <trkpt lat="66.30127" lon="13.472">
        <ele>58.743914</ele>
        <time>2020-08-14T14:31:22.896Z</time>
      </trkpt>
      <trkpt lat="66.30131" lon="13.47224">
        <ele>59.097854</ele>
        <time>2020-08-14T14:31:26.902Z</time>
      </trkpt>
      <trkpt lat="66.30133" lon="13.4725">
        <ele>59.453981</ele>
        <time>2020-08-14T14:31:30.954Z</time>
      </trkpt>
      <trkpt lat="66.30136" lon="13.47277">
        <ele>59.834504</ele>
        <time>2020-08-14T14:31:34.913Z</time>
      </trkpt>
      <trkpt lat="66.3014" lon="13.47303">
        <ele>60.215647</ele>
        <time>2020-08-14T14:31:38.906Z</time>
      </trkpt>
      <trkpt lat="66.30143" lon="13.47331">
        <ele>60.238857</ele>
        <time>2020-08-14T14:31:42.912Z</time>
      </trkpt>
      <trkpt lat="66.30146" lon="13.47358">
        <ele>60.228947</ele>
        <time>2020-08-14T14:31:46.885Z</time>
      </trkpt>
      <trkpt lat="66.3015" lon="13.47382">
        <ele>60.219384</ele>
        <time>2020-08-14T14:31:50.872Z</time>
      </trkpt>
      <trkpt lat="66.30154" lon="13.47406">
        <ele>60.210045</ele>
        <time>2020-08-14T14:31:54.922Z</time>
      </trkpt>
      <trkpt lat="66.30158" lon="13.47431">
        <ele>60.200582</ele>
        <time>2020-08-14T14:31:58.945Z</time>
      </trkpt>
      <trkpt lat="66.30161" lon="13.47454">
        <ele>60.191631</ele>
        <time>2020-08-14T14:32:02.908Z</time>
      </trkpt>
      <trkpt lat="66.30165" lon="13.47478">
        <ele>60.182434</ele>
        <time>2020-08-14T14:32:06.903Z</time>
      </trkpt>
      <trkpt lat="66.30167" lon="13.475">
        <ele>60.174052</ele>
        <time>2020-08-14T14:32:09.908Z</time>
      </trkpt>
      <trkpt lat="66.30169" lon="13.47523">
        <ele>60.165664</ele>
        <time>2020-08-14T14:32:12.912Z</time>
      </trkpt>
      <trkpt lat="66.30172" lon="13.47551">
        <ele>60.155232</ele>
        <time>2020-08-14T14:32:16.920Z</time>
      </trkpt>
      <trkpt lat="66.30175" lon="13.47579">
        <ele>60.144556</ele>
        <time>2020-08-14T14:32:20.908Z</time>
      </trkpt>
      <trkpt lat="66.30178" lon="13.47604">
        <ele>60.135227</ele>
        <time>2020-08-14T14:32:23.891Z</time>
      </trkpt>
      <trkpt lat="66.30181" lon="13.47634">
        <ele>60.12428</ele>
        <time>2020-08-14T14:32:26.903Z</time>
      </trkpt>
      <trkpt lat="66.30184" lon="13.47665">
        <ele>60.11244</ele>
        <time>2020-08-14T14:32:29.903Z</time>
      </trkpt>
      <trkpt lat="66.30187" lon="13.47697">
        <ele>60.100656</ele>
        <time>2020-08-14T14:32:32.929Z</time>
      </trkpt>
      <trkpt lat="66.30189" lon="13.47719">
        <ele>60.0925</ele>
        <time>2020-08-14T14:32:34.921Z</time>
      </trkpt>
      <trkpt lat="66.30193" lon="13.4775">
        <ele>60.221897</ele>
        <time>2020-08-14T14:32:37.917Z</time>
      </trkpt>
      <trkpt lat="66.30197" lon="13.4778">
        <ele>60.483784</ele>
        <time>2020-08-14T14:32:40.919Z</time>
      </trkpt>
      <trkpt lat="66.302" lon="13.47801">
        <ele>60.666247</ele>
        <time>2020-08-14T14:32:42.898Z</time>
      </trkpt>
      <trkpt lat="66.30203" lon="13.47823">
        <ele>60.853361</ele>
        <time>2020-08-14T14:32:44.889Z</time>
      </trkpt>
      <trkpt lat="66.30207" lon="13.47854">
        <ele>61.121037</ele>
        <time>2020-08-14T14:32:47.901Z</time>
      </trkpt>
      <trkpt lat="66.30211" lon="13.47884">
        <ele>61.3785</ele>
        <time>2020-08-14T14:32:50.910Z</time>
      </trkpt>
      <trkpt lat="66.30215" lon="13.47912">
        <ele>61.620446</ele>
        <time>2020-08-14T14:32:53.919Z</time>
      </trkpt>
      <trkpt lat="66.30219" lon="13.47939">
        <ele>61.862636</ele>
        <time>2020-08-14T14:32:56.927Z</time>
      </trkpt>
      <trkpt lat="66.30223" lon="13.47965">
        <ele>62.088235</ele>
        <time>2020-08-14T14:32:59.894Z</time>
      </trkpt>
      <trkpt lat="66.30227" lon="13.47988">
        <ele>62.290183</ele>
        <time>2020-08-14T14:33:02.918Z</time>
      </trkpt>
      <trkpt lat="66.30231" lon="13.48015">
        <ele>62.527877</ele>
        <time>2020-08-14T14:33:06.894Z</time>
      </trkpt>
      <trkpt lat="66.30235" lon="13.48038">
        <ele>62.729065</ele>
        <time>2020-08-14T14:33:10.907Z</time>
      </trkpt>
      <trkpt lat="66.30238" lon="13.48059">
        <ele>62.912796</ele>
        <time>2020-08-14T14:33:14.939Z</time>
      </trkpt>
      <trkpt lat="66.30241" lon="13.48083">
        <ele>63.122179</ele>
        <time>2020-08-14T14:33:19.902Z</time>
      </trkpt>
      <trkpt lat="66.30244" lon="13.48109">
        <ele>63.343712</ele>
        <time>2020-08-14T14:33:24.937Z</time>
      </trkpt>
      <trkpt lat="66.30248" lon="13.48133">
        <ele>63.551385</ele>
        <time>2020-08-14T14:33:29.898Z</time>
      </trkpt>
      <trkpt lat="66.30249" lon="13.48157">
        <ele>63.748765</ele>
        <time>2020-08-14T14:33:34.932Z</time>
      </trkpt>
      <trkpt lat="66.30251" lon="13.48179">
        <ele>63.824521</ele>
        <time>2020-08-14T14:33:39.907Z</time>
      </trkpt>
      <trkpt lat="66.30254" lon="13.48202">
        <ele>63.905928</ele>
        <time>2020-08-14T14:33:44.895Z</time>
      </trkpt>
      <trkpt lat="66.30257" lon="13.48227">
        <ele>63.988869</ele>
        <time>2020-08-14T14:33:49.910Z</time>
      </trkpt>
      <trkpt lat="66.30259" lon="13.48251">
        <ele>64.072922</ele>
        <time>2020-08-14T14:33:54.894Z</time>
      </trkpt>
      <trkpt lat="66.30262" lon="13.48273">
        <ele>64.149259</ele>
        <time>2020-08-14T14:33:59.911Z</time>
      </trkpt>
      <trkpt lat="66.30263" lon="13.48295">
        <ele>64.22386</ele>
        <time>2020-08-14T14:34:04.893Z</time>
      </trkpt>
      <trkpt lat="66.30266" lon="13.4832">
        <ele>64.308101</ele>
        <time>2020-08-14T14:34:09.928Z</time>
      </trkpt>
      <trkpt lat="66.30268" lon="13.48345">
        <ele>64.391998</ele>
        <time>2020-08-14T14:34:13.909Z</time>
      </trkpt>
      <trkpt lat="66.3027" lon="13.48372">
        <ele>64.486025</ele>
        <time>2020-08-14T14:34:17.892Z</time>
      </trkpt>
      <trkpt lat="66.30272" lon="13.48395">
        <ele>64.56178</ele>
        <time>2020-08-14T14:34:20.905Z</time>
      </trkpt>
      <trkpt lat="66.30274" lon="13.48418">
        <ele>64.643161</ele>
        <time>2020-08-14T14:34:23.937Z</time>
      </trkpt>
      <trkpt lat="66.30276" lon="13.48445">
        <ele>64.733448</ele>
        <time>2020-08-14T14:34:26.906Z</time>
      </trkpt>
      <trkpt lat="66.30278" lon="13.48473">
        <ele>64.827465</ele>
        <time>2020-08-14T14:34:29.925Z</time>
      </trkpt>
      <trkpt lat="66.3028" lon="13.48501">
        <ele>64.922951</ele>
        <time>2020-08-14T14:34:32.948Z</time>
      </trkpt>
      <trkpt lat="66.30282" lon="13.48529">
        <ele>65.017831</ele>
        <time>2020-08-14T14:34:35.892Z</time>
      </trkpt>
      <trkpt lat="66.30285" lon="13.48558">
        <ele>65.115444</ele>
        <time>2020-08-14T14:34:38.888Z</time>
      </trkpt>
      <trkpt lat="66.30287" lon="13.48588">
        <ele>65.217967</ele>
        <time>2020-08-14T14:34:41.905Z</time>
      </trkpt>
      <trkpt lat="66.30289" lon="13.48619">
        <ele>64.878203</ele>
        <time>2020-08-14T14:34:44.920Z</time>
      </trkpt>
      <trkpt lat="66.30291" lon="13.48641">
        <ele>64.565986</ele>
        <time>2020-08-14T14:34:46.907Z</time>
      </trkpt>
      <trkpt lat="66.30293" lon="13.48664">
        <ele>64.236616</ele>
        <time>2020-08-14T14:34:48.890Z</time>
      </trkpt>
      <trkpt lat="66.30295" lon="13.48688">
        <ele>63.887977</ele>
        <time>2020-08-14T14:34:50.897Z</time>
      </trkpt>
      <trkpt lat="66.30298" lon="13.48716">
        <ele>63.490714</ele>
        <time>2020-08-14T14:34:52.915Z</time>
      </trkpt>
      <trkpt lat="66.303" lon="13.48749">
        <ele>63.028275</ele>
        <time>2020-08-14T14:34:54.924Z</time>
      </trkpt>
      <trkpt lat="66.30303" lon="13.48785">
        <ele>62.510942</ele>
        <time>2020-08-14T14:34:56.905Z</time>
      </trkpt>
      <trkpt lat="66.30307" lon="13.48824">
        <ele>61.950866</ele>
        <time>2020-08-14T14:34:58.897Z</time>
      </trkpt>
      <trkpt lat="66.30311" lon="13.48867">
        <ele>61.334471</ele>
        <time>2020-08-14T14:35:00.946Z</time>
      </trkpt>
      <trkpt lat="66.30313" lon="13.48889">
        <ele>61.019344</ele>
        <time>2020-08-14T14:35:01.923Z</time>
      </trkpt>
      <trkpt lat="66.30315" lon="13.48911">
        <ele>60.694397</ele>
        <time>2020-08-14T14:35:02.895Z</time>
      </trkpt>
      <trkpt lat="66.30318" lon="13.48934">
        <ele>60.359947</ele>
        <time>2020-08-14T14:35:03.911Z</time>
      </trkpt>
      <trkpt lat="66.3032" lon="13.48957">
        <ele>60.036357</ele>
        <time>2020-08-14T14:35:04.897Z</time>
      </trkpt>
      <trkpt lat="66.30322" lon="13.48979">
        <ele>59.714971</ele>
        <time>2020-08-14T14:35:05.898Z</time>
      </trkpt>
      <trkpt lat="66.30324" lon="13.49001">
        <ele>59.39902</ele>
        <time>2020-08-14T14:35:06.905Z</time>
      </trkpt>
      <trkpt lat="66.30329" lon="13.49043">
        <ele>58.861509</ele>
        <time>2020-08-14T14:35:08.932Z</time>
      </trkpt>
      <trkpt lat="66.30333" lon="13.49083">
        <ele>58.507131</ele>
        <time>2020-08-14T14:35:10.899Z</time>
      </trkpt>
      <trkpt lat="66.30337" lon="13.4912">
        <ele>58.174113</ele>
        <time>2020-08-14T14:35:12.892Z</time>
      </trkpt>
      <trkpt lat="66.30341" lon="13.49157">
        <ele>57.852294</ele>
        <time>2020-08-14T14:35:14.916Z</time>
      </trkpt>
      <trkpt lat="66.30344" lon="13.49192">
        <ele>57.542329</ele>
        <time>2020-08-14T14:35:16.888Z</time>
      </trkpt>
      <trkpt lat="66.30347" lon="13.49226">
        <ele>57.242678</ele>
        <time>2020-08-14T14:35:18.899Z</time>
      </trkpt>
      <trkpt lat="66.30351" lon="13.49258">
        <ele>56.957393</ele>
        <time>2020-08-14T14:35:20.917Z</time>
      </trkpt>
      <trkpt lat="66.30354" lon="13.4929">
        <ele>56.671952</ele>
        <time>2020-08-14T14:35:22.910Z</time>
      </trkpt>
      <trkpt lat="66.30357" lon="13.49322">
        <ele>56.389688</ele>
        <time>2020-08-14T14:35:24.899Z</time>
      </trkpt>
      <trkpt lat="66.3036" lon="13.49356">
        <ele>56.094411</ele>
        <time>2020-08-14T14:35:26.891Z</time>
      </trkpt>
      <trkpt lat="66.30364" lon="13.49389">
        <ele>55.801113</ele>
        <time>2020-08-14T14:35:28.924Z</time>
      </trkpt>
      <trkpt lat="66.30367" lon="13.49423">
        <ele>55.500324</ele>
        <time>2020-08-14T14:35:30.898Z</time>
      </trkpt>
      <trkpt lat="66.30371" lon="13.49457">
        <ele>55.195684</ele>
        <time>2020-08-14T14:35:32.909Z</time>
      </trkpt>
      <trkpt lat="66.30374" lon="13.49492">
        <ele>55.007673</ele>
        <time>2020-08-14T14:35:34.919Z</time>
      </trkpt>
      <trkpt lat="66.30377" lon="13.49526">
        <ele>54.853734</ele>
        <time>2020-08-14T14:35:36.899Z</time>
      </trkpt>
      <trkpt lat="66.3038" lon="13.49559">
        <ele>54.70738</ele>
        <time>2020-08-14T14:35:38.952Z</time>
      </trkpt>
      <trkpt lat="66.30383" lon="13.49588">
        <ele>54.574389</ele>
        <time>2020-08-14T14:35:40.929Z</time>
      </trkpt>
      <trkpt lat="66.30386" lon="13.49617">
        <ele>54.442859</ele>
        <time>2020-08-14T14:35:42.914Z</time>
      </trkpt>
      <trkpt lat="66.30389" lon="13.49646">
        <ele>54.312346</ele>
        <time>2020-08-14T14:35:44.915Z</time>
      </trkpt>
      <trkpt lat="66.30392" lon="13.49676">
        <ele>54.179111</ele>
        <time>2020-08-14T14:35:46.891Z</time>
      </trkpt>
      <trkpt lat="66.30394" lon="13.49706">
        <ele>54.044839</ele>
        <time>2020-08-14T14:35:48.914Z</time>
      </trkpt>
      <trkpt lat="66.30397" lon="13.49737">
        <ele>53.905382</ele>
        <time>2020-08-14T14:35:50.912Z</time>
      </trkpt>
      <trkpt lat="66.304" lon="13.49769">
        <ele>53.7608</ele>
        <time>2020-08-14T14:35:52.906Z</time>
      </trkpt>
      <trkpt lat="66.30403" lon="13.49804">
        <ele>53.605511</ele>
        <time>2020-08-14T14:35:54.917Z</time>
      </trkpt>
      <trkpt lat="66.30406" lon="13.49838">
        <ele>53.451299</ele>
        <time>2020-08-14T14:35:56.900Z</time>
      </trkpt>
      <trkpt lat="66.30408" lon="13.49871">
        <ele>53.304165</ele>
        <time>2020-08-14T14:35:58.891Z</time>
      </trkpt>
      <trkpt lat="66.30411" lon="13.49902">
        <ele>53.191248</ele>
        <time>2020-08-14T14:36:00.914Z</time>
      </trkpt>
      <trkpt lat="66.30411" lon="13.4993">
        <ele>53.584761</ele>
        <time>2020-08-14T14:36:02.894Z</time>
      </trkpt>
      <trkpt lat="66.30411" lon="13.49957">
        <ele>53.957809</ele>
        <time>2020-08-14T14:36:04.916Z</time>
      </trkpt>
      <trkpt lat="66.3041" lon="13.49981">
        <ele>54.292628</ele>
        <time>2020-08-14T14:36:06.897Z</time>
      </trkpt>
      <trkpt lat="66.30407" lon="13.50011">
        <ele>54.725998</ele>
        <time>2020-08-14T14:36:09.893Z</time>
      </trkpt>
      <trkpt lat="66.30404" lon="13.50039">
        <ele>55.130786</ele>
        <time>2020-08-14T14:36:12.901Z</time>
      </trkpt>
      <trkpt lat="66.30399" lon="13.50064">
        <ele>55.511801</ele>
        <time>2020-08-14T14:36:15.916Z</time>
      </trkpt>
      <trkpt lat="66.30395" lon="13.50089">
        <ele>55.89473</ele>
        <time>2020-08-14T14:36:18.907Z</time>
      </trkpt>
      <trkpt lat="66.3039" lon="13.50114">
        <ele>56.281442</ele>
        <time>2020-08-14T14:36:21.914Z</time>
      </trkpt>
      <trkpt lat="66.30386" lon="13.50138">
        <ele>56.643579</ele>
        <time>2020-08-14T14:36:24.926Z</time>
      </trkpt>
      <trkpt lat="66.30381" lon="13.50162">
        <ele>57.008244</ele>
        <time>2020-08-14T14:36:27.914Z</time>
      </trkpt>
      <trkpt lat="66.30377" lon="13.50186">
        <ele>57.373112</ele>
        <time>2020-08-14T14:36:30.898Z</time>
      </trkpt>
      <trkpt lat="66.30372" lon="13.50209">
        <ele>57.728743</ele>
        <time>2020-08-14T14:36:33.935Z</time>
      </trkpt>
      <trkpt lat="66.30368" lon="13.5023">
        <ele>58.061503</ele>
        <time>2020-08-14T14:36:36.918Z</time>
      </trkpt>
      <trkpt lat="66.30364" lon="13.50251">
        <ele>58.383989</ele>
        <time>2020-08-14T14:36:39.902Z</time>
      </trkpt>
      <trkpt lat="66.30359" lon="13.50277">
        <ele>58.782268</ele>
        <time>2020-08-14T14:36:43.893Z</time>
      </trkpt>
      <trkpt lat="66.30356" lon="13.50298">
        <ele>59.102721</ele>
        <time>2020-08-14T14:36:46.927Z</time>
      </trkpt>
      <trkpt lat="66.3035" lon="13.50325">
        <ele>59.436076</ele>
        <time>2020-08-14T14:36:50.896Z</time>
      </trkpt>
      <trkpt lat="66.30346" lon="13.50345">
        <ele>59.533537</ele>
        <time>2020-08-14T14:36:53.898Z</time>
      </trkpt>
      <trkpt lat="66.30342" lon="13.5037">
        <ele>59.654573</ele>
        <time>2020-08-14T14:36:57.896Z</time>
      </trkpt>
      <trkpt lat="66.30337" lon="13.50395">
        <ele>59.774744</ele>
        <time>2020-08-14T14:37:01.893Z</time>
      </trkpt>
      <trkpt lat="66.30333" lon="13.50419">
        <ele>59.891074</ele>
        <time>2020-08-14T14:37:05.900Z</time>
      </trkpt>
      <trkpt lat="66.30327" lon="13.50446">
        <ele>60.022335</ele>
        <time>2020-08-14T14:37:09.900Z</time>
      </trkpt>
      <trkpt lat="66.30322" lon="13.50469">
        <ele>60.13598</ele>
        <time>2020-08-14T14:37:12.895Z</time>
      </trkpt>
      <trkpt lat="66.30318" lon="13.50496">
        <ele>60.265226</ele>
        <time>2020-08-14T14:37:15.895Z</time>
      </trkpt>
      <trkpt lat="66.30313" lon="13.50521">
        <ele>60.38901</ele>
        <time>2020-08-14T14:37:18.892Z</time>
      </trkpt>
      <trkpt lat="66.30308" lon="13.50545">
        <ele>60.505485</ele>
        <time>2020-08-14T14:37:21.892Z</time>
      </trkpt>
      <trkpt lat="66.30304" lon="13.50568">
        <ele>60.6157</ele>
        <time>2020-08-14T14:37:24.894Z</time>
      </trkpt>
      <trkpt lat="66.303" lon="13.50592">
        <ele>60.724999</ele>
        <time>2020-08-14T14:37:27.900Z</time>
      </trkpt>
      <trkpt lat="66.30297" lon="13.50614">
        <ele>60.830313</ele>
        <time>2020-08-14T14:37:30.901Z</time>
      </trkpt>
      <trkpt lat="66.30294" lon="13.50636">
        <ele>60.927958</ele>
        <time>2020-08-14T14:37:33.887Z</time>
      </trkpt>
      <trkpt lat="66.30291" lon="13.50663">
        <ele>61.052984</ele>
        <time>2020-08-14T14:37:37.925Z</time>
      </trkpt>
      <trkpt lat="66.30287" lon="13.50689">
        <ele>61.174552</ele>
        <time>2020-08-14T14:37:41.929Z</time>
      </trkpt>
      <trkpt lat="66.30284" lon="13.50716">
        <ele>61.295085</ele>
        <time>2020-08-14T14:37:45.917Z</time>
      </trkpt>
      <trkpt lat="66.30282" lon="13.50738">
        <ele>61.355123</ele>
        <time>2020-08-14T14:37:48.898Z</time>
      </trkpt>
      <trkpt lat="66.30279" lon="13.50766">
        <ele>61.359099</ele>
        <time>2020-08-14T14:37:52.921Z</time>
      </trkpt>
      <trkpt lat="66.30276" lon="13.50794">
        <ele>61.363107</ele>
        <time>2020-08-14T14:37:56.934Z</time>
      </trkpt>
      <trkpt lat="66.30274" lon="13.5082">
        <ele>61.366726</ele>
        <time>2020-08-14T14:38:00.920Z</time>
      </trkpt>
      <trkpt lat="66.30272" lon="13.50848">
        <ele>61.370676</ele>
        <time>2020-08-14T14:38:04.909Z</time>
      </trkpt>
      <trkpt lat="66.30269" lon="13.50872">
        <ele>61.373977</ele>
        <time>2020-08-14T14:38:07.906Z</time>
      </trkpt>
      <trkpt lat="66.30267" lon="13.50896">
        <ele>61.377406</ele>
        <time>2020-08-14T14:38:10.900Z</time>
      </trkpt>
      <trkpt lat="66.30265" lon="13.50919">
        <ele>61.380668</ele>
        <time>2020-08-14T14:38:13.911Z</time>
      </trkpt>
      <trkpt lat="66.30262" lon="13.50943">
        <ele>61.384053</ele>
        <time>2020-08-14T14:38:16.926Z</time>
      </trkpt>
      <trkpt lat="66.3026" lon="13.50968">
        <ele>61.387605</ele>
        <time>2020-08-14T14:38:19.889Z</time>
      </trkpt>
      <trkpt lat="66.30257" lon="13.50993">
        <ele>61.391171</ele>
        <time>2020-08-14T14:38:22.905Z</time>
      </trkpt>
      <trkpt lat="66.30254" lon="13.51018">
        <ele>61.394741</ele>
        <time>2020-08-14T14:38:25.898Z</time>
      </trkpt>
      <trkpt lat="66.3025" lon="13.51042">
        <ele>61.398328</ele>
        <time>2020-08-14T14:38:28.914Z</time>
      </trkpt>
      <trkpt lat="66.30247" lon="13.51068">
        <ele>61.402073</ele>
        <time>2020-08-14T14:38:31.908Z</time>
      </trkpt>
      <trkpt lat="66.30243" lon="13.51093">
        <ele>61.405792</ele>
        <time>2020-08-14T14:38:34.906Z</time>
      </trkpt>
      <trkpt lat="66.30238" lon="13.51117">
        <ele>61.409335</ele>
        <time>2020-08-14T14:38:37.905Z</time>
      </trkpt>
      <trkpt lat="66.30234" lon="13.5114">
        <ele>61.412913</ele>
        <time>2020-08-14T14:38:40.936Z</time>
      </trkpt>
      <trkpt lat="66.30229" lon="13.51163">
        <ele>61.44165</ele>
        <time>2020-08-14T14:38:43.922Z</time>
      </trkpt>
      <trkpt lat="66.30224" lon="13.51187">
        <ele>61.527059</ele>
        <time>2020-08-14T14:38:46.906Z</time>
      </trkpt>
      <trkpt lat="66.30219" lon="13.51212">
        <ele>61.615997</ele>
        <time>2020-08-14T14:38:49.911Z</time>
      </trkpt>
      <trkpt lat="66.30213" lon="13.51237">
        <ele>61.703534</ele>
        <time>2020-08-14T14:38:52.902Z</time>
      </trkpt>
      <trkpt lat="66.30208" lon="13.5126">
        <ele>61.789029</ele>
        <time>2020-08-14T14:38:55.905Z</time>
      </trkpt>
      <trkpt lat="66.30203" lon="13.51284">
        <ele>61.876317</ele>
        <time>2020-08-14T14:38:58.916Z</time>
      </trkpt>
      <trkpt lat="66.30198" lon="13.51309">
        <ele>61.963576</ele>
        <time>2020-08-14T14:39:01.907Z</time>
      </trkpt>
      <trkpt lat="66.30193" lon="13.51331">
        <ele>62.043052</ele>
        <time>2020-08-14T14:39:04.895Z</time>
      </trkpt>
      <trkpt lat="66.30188" lon="13.51353">
        <ele>62.122699</ele>
        <time>2020-08-14T14:39:07.920Z</time>
      </trkpt>
      <trkpt lat="66.30182" lon="13.51377">
        <ele>62.211179</ele>
        <time>2020-08-14T14:39:10.903Z</time>
      </trkpt>
      <trkpt lat="66.30176" lon="13.514">
        <ele>62.296668</ele>
        <time>2020-08-14T14:39:13.950Z</time>
      </trkpt>
      <trkpt lat="66.30171" lon="13.5142">
        <ele>62.373422</ele>
        <time>2020-08-14T14:39:16.933Z</time>
      </trkpt>
      <trkpt lat="66.30165" lon="13.51441">
        <ele>62.453048</ele>
        <time>2020-08-14T14:39:19.903Z</time>
      </trkpt>
      <trkpt lat="66.30158" lon="13.51461">
        <ele>62.535554</ele>
        <time>2020-08-14T14:39:22.907Z</time>
      </trkpt>
      <trkpt lat="66.30152" lon="13.5148">
        <ele>62.614422</ele>
        <time>2020-08-14T14:39:25.948Z</time>
      </trkpt>
      <trkpt lat="66.30144" lon="13.51497">
        <ele>62.694772</ele>
        <time>2020-08-14T14:39:28.896Z</time>
      </trkpt>
      <trkpt lat="66.30137" lon="13.51516">
        <ele>62.780362</ele>
        <time>2020-08-14T14:39:31.930Z</time>
      </trkpt>
      <trkpt lat="66.3013" lon="13.51535">
        <ele>62.902542</ele>
        <time>2020-08-14T14:39:34.896Z</time>
      </trkpt>
      <trkpt lat="66.30122" lon="13.51552">
        <ele>63.092037</ele>
        <time>2020-08-14T14:39:37.900Z</time>
      </trkpt>
      <trkpt lat="66.30114" lon="13.51569">
        <ele>63.285403</ele>
        <time>2020-08-14T14:39:40.894Z</time>
      </trkpt>
      <trkpt lat="66.30106" lon="13.51588">
        <ele>63.487569</ele>
        <time>2020-08-14T14:39:43.912Z</time>
      </trkpt>
      <trkpt lat="66.30098" lon="13.51608">
        <ele>63.695203</ele>
        <time>2020-08-14T14:39:46.906Z</time>
      </trkpt>
      <trkpt lat="66.3009" lon="13.51627">
        <ele>63.90395</ele>
        <time>2020-08-14T14:39:49.912Z</time>
      </trkpt>
      <trkpt lat="66.30082" lon="13.51647">
        <ele>64.107912</ele>
        <time>2020-08-14T14:39:52.906Z</time>
      </trkpt>
      <trkpt lat="66.30075" lon="13.51666">
        <ele>64.307793</ele>
        <time>2020-08-14T14:39:55.905Z</time>
      </trkpt>
      <trkpt lat="66.30067" lon="13.51687">
        <ele>64.517438</ele>
        <time>2020-08-14T14:39:58.928Z</time>
      </trkpt>
      <trkpt lat="66.3006" lon="13.51708">
        <ele>64.72943</ele>
        <time>2020-08-14T14:40:01.928Z</time>
      </trkpt>
      <trkpt lat="66.30052" lon="13.5173">
        <ele>64.943207</ele>
        <time>2020-08-14T14:40:04.913Z</time>
      </trkpt>
      <trkpt lat="66.30045" lon="13.51751">
        <ele>65.146124</ele>
        <time>2020-08-14T14:40:07.900Z</time>
      </trkpt>
      <trkpt lat="66.30038" lon="13.51772">
        <ele>65.346623</ele>
        <time>2020-08-14T14:40:10.923Z</time>
      </trkpt>
      <trkpt lat="66.30032" lon="13.51793">
        <ele>65.547669</ele>
        <time>2020-08-14T14:40:13.908Z</time>
      </trkpt>
      <trkpt lat="66.30025" lon="13.51815">
        <ele>65.745939</ele>
        <time>2020-08-14T14:40:16.918Z</time>
      </trkpt>
      <trkpt lat="66.30019" lon="13.51837">
        <ele>65.94566</ele>
        <time>2020-08-14T14:40:19.896Z</time>
      </trkpt>
      <trkpt lat="66.30013" lon="13.51859">
        <ele>66.143896</ele>
        <time>2020-08-14T14:40:22.909Z</time>
      </trkpt>
      <trkpt lat="66.30008" lon="13.51879">
        <ele>66.520882</ele>
        <time>2020-08-14T14:40:25.905Z</time>
      </trkpt>
      <trkpt lat="66.30003" lon="13.51899">
        <ele>66.899744</ele>
        <time>2020-08-14T14:40:28.893Z</time>
      </trkpt>
      <trkpt lat="66.29998" lon="13.51919">
        <ele>67.287749</ele>
        <time>2020-08-14T14:40:31.901Z</time>
      </trkpt>
      <trkpt lat="66.29993" lon="13.51939">
        <ele>67.663854</ele>
        <time>2020-08-14T14:40:34.904Z</time>
      </trkpt>
      <trkpt lat="66.29987" lon="13.51964">
        <ele>68.142454</ele>
        <time>2020-08-14T14:40:38.916Z</time>
      </trkpt>
      <trkpt lat="66.29981" lon="13.51989">
        <ele>68.600981</ele>
        <time>2020-08-14T14:40:42.925Z</time>
      </trkpt>
      <trkpt lat="66.29975" lon="13.52013">
        <ele>69.066543</ele>
        <time>2020-08-14T14:40:46.944Z</time>
      </trkpt>
      <trkpt lat="66.29969" lon="13.52037">
        <ele>69.510024</ele>
        <time>2020-08-14T14:40:50.906Z</time>
      </trkpt>
      <trkpt lat="66.29964" lon="13.52062">
        <ele>69.976239</ele>
        <time>2020-08-14T14:40:54.917Z</time>
      </trkpt>
      <trkpt lat="66.29959" lon="13.52082">
        <ele>70.342199</ele>
        <time>2020-08-14T14:40:57.910Z</time>
      </trkpt>
      <trkpt lat="66.29953" lon="13.52107">
        <ele>70.815966</ele>
        <time>2020-08-14T14:41:01.941Z</time>
      </trkpt>
      <trkpt lat="66.29948" lon="13.52133">
        <ele>71.285048</ele>
        <time>2020-08-14T14:41:05.935Z</time>
      </trkpt>
      <trkpt lat="66.29943" lon="13.52157">
        <ele>71.728533</ele>
        <time>2020-08-14T14:41:09.892Z</time>
      </trkpt>
      <trkpt lat="66.29938" lon="13.5218">
        <ele>72.151666</ele>
        <time>2020-08-14T14:41:13.910Z</time>
      </trkpt>
      <trkpt lat="66.29933" lon="13.52204">
        <ele>72.585281</ele>
        <time>2020-08-14T14:41:17.901Z</time>
      </trkpt>
      <trkpt lat="66.29928" lon="13.52226">
        <ele>72.994685</ele>
        <time>2020-08-14T14:41:21.912Z</time>
      </trkpt>
      <trkpt lat="66.29923" lon="13.5225">
        <ele>73.413615</ele>
        <time>2020-08-14T14:41:25.912Z</time>
      </trkpt>
      <trkpt lat="66.29918" lon="13.52275">
        <ele>73.630691</ele>
        <time>2020-08-14T14:41:29.933Z</time>
      </trkpt>
      <trkpt lat="66.29913" lon="13.52297">
        <ele>73.825599</ele>
        <time>2020-08-14T14:41:33.899Z</time>
      </trkpt>
      <trkpt lat="66.29908" lon="13.52322">
        <ele>74.042234</ele>
        <time>2020-08-14T14:41:37.926Z</time>
      </trkpt>
      <trkpt lat="66.29904" lon="13.52341">
        <ele>74.217559</ele>
        <time>2020-08-14T14:41:40.905Z</time>
      </trkpt>
      <trkpt lat="66.29899" lon="13.52367">
        <ele>74.447348</ele>
        <time>2020-08-14T14:41:44.908Z</time>
      </trkpt>
      <trkpt lat="66.29894" lon="13.52387">
        <ele>74.622933</ele>
        <time>2020-08-14T14:41:47.899Z</time>
      </trkpt>
      <trkpt lat="66.2989" lon="13.52407">
        <ele>74.801023</ele>
        <time>2020-08-14T14:41:50.913Z</time>
      </trkpt>
      <trkpt lat="66.29884" lon="13.52431">
        <ele>75.025335</ele>
        <time>2020-08-14T14:41:54.910Z</time>
      </trkpt>
      <trkpt lat="66.2988" lon="13.52451">
        <ele>75.201351</ele>
        <time>2020-08-14T14:41:57.919Z</time>
      </trkpt>
      <trkpt lat="66.29875" lon="13.52471">
        <ele>75.38258</ele>
        <time>2020-08-14T14:42:00.899Z</time>
      </trkpt>
      <trkpt lat="66.2987" lon="13.52491">
        <ele>75.56515</ele>
        <time>2020-08-14T14:42:03.884Z</time>
      </trkpt>
      <trkpt lat="66.29865" lon="13.5251">
        <ele>75.746385</ele>
        <time>2020-08-14T14:42:06.911Z</time>
      </trkpt>
      <trkpt lat="66.2986" lon="13.52535">
        <ele>75.968656</ele>
        <time>2020-08-14T14:42:10.914Z</time>
      </trkpt>
      <trkpt lat="66.29854" lon="13.52557">
        <ele>76.176757</ele>
        <time>2020-08-14T14:42:14.913Z</time>
      </trkpt>
      <trkpt lat="66.29847" lon="13.52579">
        <ele>76.39897</ele>
        <time>2020-08-14T14:42:18.933Z</time>
      </trkpt>
      <trkpt lat="66.29841" lon="13.52601">
        <ele>76.602729</ele>
        <time>2020-08-14T14:42:22.903Z</time>
      </trkpt>
      <trkpt lat="66.29835" lon="13.52622">
        <ele>76.811641</ele>
        <time>2020-08-14T14:42:26.914Z</time>
      </trkpt>
      <trkpt lat="66.29828" lon="13.52644">
        <ele>76.877511</ele>
        <time>2020-08-14T14:42:30.964Z</time>
      </trkpt>
      <trkpt lat="66.29822" lon="13.52666">
        <ele>76.821972</ele>
        <time>2020-08-14T14:42:34.893Z</time>
      </trkpt>
      <trkpt lat="66.29816" lon="13.52689">
        <ele>76.764085</ele>
        <time>2020-08-14T14:42:38.891Z</time>
      </trkpt>
      <trkpt lat="66.2981" lon="13.52712">
        <ele>76.708987</ele>
        <time>2020-08-14T14:42:42.908Z</time>
      </trkpt>
      <trkpt lat="66.29806" lon="13.52735">
        <ele>76.655483</ele>
        <time>2020-08-14T14:42:46.905Z</time>
      </trkpt>
      <trkpt lat="66.29801" lon="13.52758">
        <ele>76.60092</ele>
        <time>2020-08-14T14:42:50.909Z</time>
      </trkpt>
      <trkpt lat="66.29796" lon="13.52785">
        <ele>76.539786</ele>
        <time>2020-08-14T14:42:54.945Z</time>
      </trkpt>
      <trkpt lat="66.29793" lon="13.52808">
        <ele>76.490902</ele>
        <time>2020-08-14T14:42:57.917Z</time>
      </trkpt>
      <trkpt lat="66.29791" lon="13.52832">
        <ele>76.438802</ele>
        <time>2020-08-14T14:43:00.913Z</time>
      </trkpt>
      <trkpt lat="66.29789" lon="13.52863">
        <ele>76.37501</ele>
        <time>2020-08-14T14:43:03.930Z</time>
      </trkpt>
      <trkpt lat="66.29789" lon="13.52887">
        <ele>76.324293</ele>
        <time>2020-08-14T14:43:05.891Z</time>
      </trkpt>
      <trkpt lat="66.29788" lon="13.52915">
        <ele>76.26687</ele>
        <time>2020-08-14T14:43:07.909Z</time>
      </trkpt>
      <trkpt lat="66.29788" lon="13.52945">
        <ele>76.204716</ele>
        <time>2020-08-14T14:43:09.908Z</time>
      </trkpt>
      <trkpt lat="66.29788" lon="13.52976">
        <ele>76.140071</ele>
        <time>2020-08-14T14:43:11.899Z</time>
      </trkpt>
      <trkpt lat="66.29788" lon="13.53007">
        <ele>76.07584</ele>
        <time>2020-08-14T14:43:13.915Z</time>
      </trkpt>
      <trkpt lat="66.29788" lon="13.5304">
        <ele>76.007425</ele>
        <time>2020-08-14T14:43:15.900Z</time>
      </trkpt>
      <trkpt lat="66.29787" lon="13.53075">
        <ele>75.727092</ele>
        <time>2020-08-14T14:43:17.917Z</time>
      </trkpt>
      <trkpt lat="66.29787" lon="13.5311">
        <ele>75.315389</ele>
        <time>2020-08-14T14:43:19.930Z</time>
      </trkpt>
      <trkpt lat="66.29786" lon="13.53145">
        <ele>74.905924</ele>
        <time>2020-08-14T14:43:21.912Z</time>
      </trkpt>
      <trkpt lat="66.29786" lon="13.53181">
        <ele>74.495458</ele>
        <time>2020-08-14T14:43:23.917Z</time>
      </trkpt>
      <trkpt lat="66.29785" lon="13.53216">
        <ele>74.07876</ele>
        <time>2020-08-14T14:43:25.914Z</time>
      </trkpt>
      <trkpt lat="66.29785" lon="13.53252">
        <ele>73.667128</ele>
        <time>2020-08-14T14:43:27.915Z</time>
      </trkpt>
      <trkpt lat="66.29785" lon="13.53287">
        <ele>73.255578</ele>
        <time>2020-08-14T14:43:29.932Z</time>
      </trkpt>
      <trkpt lat="66.29785" lon="13.53323">
        <ele>72.82989</ele>
        <time>2020-08-14T14:43:31.922Z</time>
      </trkpt>
      <trkpt lat="66.29784" lon="13.53362">
        <ele>72.380107</ele>
        <time>2020-08-14T14:43:33.933Z</time>
      </trkpt>
      <trkpt lat="66.29782" lon="13.53402">
        <ele>71.913492</ele>
        <time>2020-08-14T14:43:35.920Z</time>
      </trkpt>
      <trkpt lat="66.29779" lon="13.53441">
        <ele>71.452122</ele>
        <time>2020-08-14T14:43:37.907Z</time>
      </trkpt>
      <trkpt lat="66.29776" lon="13.53479">
        <ele>70.992426</ele>
        <time>2020-08-14T14:43:39.898Z</time>
      </trkpt>
      <trkpt lat="66.29772" lon="13.53517">
        <ele>70.639685</ele>
        <time>2020-08-14T14:43:41.921Z</time>
      </trkpt>
      <trkpt lat="66.29767" lon="13.53555">
        <ele>70.392005</ele>
        <time>2020-08-14T14:43:43.902Z</time>
      </trkpt>
      <trkpt lat="66.29763" lon="13.53592">
        <ele>70.148871</ele>
        <time>2020-08-14T14:43:45.925Z</time>
      </trkpt>
      <trkpt lat="66.29758" lon="13.53628">
        <ele>69.912466</ele>
        <time>2020-08-14T14:43:47.902Z</time>
      </trkpt>
      <trkpt lat="66.29754" lon="13.53664">
        <ele>69.682172</ele>
        <time>2020-08-14T14:43:49.891Z</time>
      </trkpt>
      <trkpt lat="66.2975" lon="13.53698">
        <ele>69.455251</ele>
        <time>2020-08-14T14:43:51.942Z</time>
      </trkpt>
      <trkpt lat="66.29746" lon="13.53734">
        <ele>69.221708</ele>
        <time>2020-08-14T14:43:53.913Z</time>
      </trkpt>
      <trkpt lat="66.29741" lon="13.5377">
        <ele>68.987883</ele>
        <time>2020-08-14T14:43:55.896Z</time>
      </trkpt>
      <trkpt lat="66.29737" lon="13.53804">
        <ele>68.761117</ele>
        <time>2020-08-14T14:43:57.908Z</time>
      </trkpt>
      <trkpt lat="66.29733" lon="13.53839">
        <ele>68.534493</ele>
        <time>2020-08-14T14:43:59.902Z</time>
      </trkpt>
      <trkpt lat="66.29729" lon="13.53874">
        <ele>68.305008</ele>
        <time>2020-08-14T14:44:01.934Z</time>
      </trkpt>
      <trkpt lat="66.29724" lon="13.53908">
        <ele>68.076953</ele>
        <time>2020-08-14T14:44:03.894Z</time>
      </trkpt>
      <trkpt lat="66.29719" lon="13.53943">
        <ele>67.724654</ele>
        <time>2020-08-14T14:44:05.916Z</time>
      </trkpt>
      <trkpt lat="66.29715" lon="13.53977">
        <ele>67.257</ele>
        <time>2020-08-14T14:44:07.908Z</time>
      </trkpt>
      <trkpt lat="66.29711" lon="13.54011">
        <ele>66.796271</ele>
        <time>2020-08-14T14:44:09.909Z</time>
      </trkpt>
      <trkpt lat="66.29707" lon="13.54044">
        <ele>66.331041</ele>
        <time>2020-08-14T14:44:11.912Z</time>
      </trkpt>
      <trkpt lat="66.29703" lon="13.54079">
        <ele>65.85521</ele>
        <time>2020-08-14T14:44:13.923Z</time>
      </trkpt>
      <trkpt lat="66.29698" lon="13.54114">
        <ele>65.366406</ele>
        <time>2020-08-14T14:44:15.946Z</time>
      </trkpt>
      <trkpt lat="66.29694" lon="13.54151">
        <ele>64.863077</ele>
        <time>2020-08-14T14:44:17.892Z</time>
      </trkpt>
      <trkpt lat="66.29689" lon="13.54188">
        <ele>64.352476</ele>
        <time>2020-08-14T14:44:19.906Z</time>
      </trkpt>
      <trkpt lat="66.29684" lon="13.54225">
        <ele>63.833783</ele>
        <time>2020-08-14T14:44:21.897Z</time>
      </trkpt>
      <trkpt lat="66.29679" lon="13.54263">
        <ele>63.306554</ele>
        <time>2020-08-14T14:44:23.912Z</time>
      </trkpt>
      <trkpt lat="66.29673" lon="13.54301">
        <ele>62.768766</ele>
        <time>2020-08-14T14:44:25.910Z</time>
      </trkpt>
      <trkpt lat="66.29668" lon="13.54339">
        <ele>62.242364</ele>
        <time>2020-08-14T14:44:27.900Z</time>
      </trkpt>
      <trkpt lat="66.29663" lon="13.54377">
        <ele>61.819297</ele>
        <time>2020-08-14T14:44:29.908Z</time>
      </trkpt>
      <trkpt lat="66.29657" lon="13.54413">
        <ele>61.453275</ele>
        <time>2020-08-14T14:44:31.912Z</time>
      </trkpt>
      <trkpt lat="66.29653" lon="13.5445">
        <ele>61.091109</ele>
        <time>2020-08-14T14:44:33.900Z</time>
      </trkpt>
      <trkpt lat="66.29648" lon="13.54486">
        <ele>60.731613</ele>
        <time>2020-08-14T14:44:35.956Z</time>
      </trkpt>
      <trkpt lat="66.29643" lon="13.54522">
        <ele>60.378341</ele>
        <time>2020-08-14T14:44:37.932Z</time>
      </trkpt>
      <trkpt lat="66.29638" lon="13.54557">
        <ele>60.029956</ele>
        <time>2020-08-14T14:44:39.899Z</time>
      </trkpt>
      <trkpt lat="66.29634" lon="13.54592">
        <ele>59.684564</ele>
        <time>2020-08-14T14:44:41.893Z</time>
      </trkpt>
      <trkpt lat="66.29629" lon="13.54628">
        <ele>59.336178</ele>
        <time>2020-08-14T14:44:43.911Z</time>
      </trkpt>
      <trkpt lat="66.29625" lon="13.54662">
        <ele>58.993144</ele>
        <time>2020-08-14T14:44:45.892Z</time>
      </trkpt>
      <trkpt lat="66.2962" lon="13.54696">
        <ele>58.658515</ele>
        <time>2020-08-14T14:44:47.913Z</time>
      </trkpt>
      <trkpt lat="66.29616" lon="13.5473">
        <ele>58.330648</ele>
        <time>2020-08-14T14:44:49.909Z</time>
      </trkpt>
      <trkpt lat="66.29612" lon="13.54762">
        <ele>58.016715</ele>
        <time>2020-08-14T14:44:51.907Z</time>
      </trkpt>
      <trkpt lat="66.29608" lon="13.54793">
        <ele>57.855576</ele>
        <time>2020-08-14T14:44:53.930Z</time>
      </trkpt>
      <trkpt lat="66.29605" lon="13.54825">
        <ele>57.836436</ele>
        <time>2020-08-14T14:44:55.915Z</time>
      </trkpt>
      <trkpt lat="66.29601" lon="13.54855">
        <ele>57.817816</ele>
        <time>2020-08-14T14:44:57.922Z</time>
      </trkpt>
      <trkpt lat="66.29597" lon="13.54885">
        <ele>57.799475</ele>
        <time>2020-08-14T14:44:59.907Z</time>
      </trkpt>
      <trkpt lat="66.29594" lon="13.54915">
        <ele>57.781273</ele>
        <time>2020-08-14T14:45:01.912Z</time>
      </trkpt>
      <trkpt lat="66.29591" lon="13.54944">
        <ele>57.763809</ele>
        <time>2020-08-14T14:45:03.906Z</time>
      </trkpt>
      <trkpt lat="66.29587" lon="13.5497">
        <ele>57.747358</ele>
        <time>2020-08-14T14:45:05.897Z</time>
      </trkpt>
      <trkpt lat="66.29584" lon="13.54997">
        <ele>57.731339</ele>
        <time>2020-08-14T14:45:07.904Z</time>
      </trkpt>
      <trkpt lat="66.29581" lon="13.55024">
        <ele>57.714913</ele>
        <time>2020-08-14T14:45:09.926Z</time>
      </trkpt>
      <trkpt lat="66.29577" lon="13.55051">
        <ele>57.697915</ele>
        <time>2020-08-14T14:45:11.904Z</time>
      </trkpt>
      <trkpt lat="66.29573" lon="13.5508">
        <ele>57.680421</ele>
        <time>2020-08-14T14:45:13.928Z</time>
      </trkpt>
      <trkpt lat="66.2957" lon="13.55108">
        <ele>57.662916</ele>
        <time>2020-08-14T14:45:15.918Z</time>
      </trkpt>
      <trkpt lat="66.29566" lon="13.55136">
        <ele>57.646012</ele>
        <time>2020-08-14T14:45:17.897Z</time>
      </trkpt>
      <trkpt lat="66.29562" lon="13.55163">
        <ele>57.629339</ele>
        <time>2020-08-14T14:45:19.908Z</time>
      </trkpt>
      <trkpt lat="66.29559" lon="13.55189">
        <ele>57.613111</ele>
        <time>2020-08-14T14:45:21.906Z</time>
      </trkpt>
      <trkpt lat="66.29556" lon="13.55216">
        <ele>57.562461</ele>
        <time>2020-08-14T14:45:23.907Z</time>
      </trkpt>
      <trkpt lat="66.29552" lon="13.55245">
        <ele>57.462371</ele>
        <time>2020-08-14T14:45:25.918Z</time>
      </trkpt>
      <trkpt lat="66.29548" lon="13.55275">
        <ele>57.356597</ele>
        <time>2020-08-14T14:45:27.896Z</time>
      </trkpt>
      <trkpt lat="66.29544" lon="13.55303">
        <ele>57.254199</ele>
        <time>2020-08-14T14:45:29.894Z</time>
      </trkpt>
      <trkpt lat="66.2954" lon="13.55331">
        <ele>57.157292</ele>
        <time>2020-08-14T14:45:31.912Z</time>
      </trkpt>
      <trkpt lat="66.29537" lon="13.55357">
        <ele>57.066265</ele>
        <time>2020-08-14T14:45:33.895Z</time>
      </trkpt>
      <trkpt lat="66.29534" lon="13.55383">
        <ele>56.973497</ele>
        <time>2020-08-14T14:45:35.905Z</time>
      </trkpt>
      <trkpt lat="66.29531" lon="13.55408">
        <ele>56.886583</ele>
        <time>2020-08-14T14:45:37.912Z</time>
      </trkpt>
      <trkpt lat="66.29527" lon="13.55432">
        <ele>56.802494</ele>
        <time>2020-08-14T14:45:39.904Z</time>
      </trkpt>
      <trkpt lat="66.29524" lon="13.55455">
        <ele>56.717844</ele>
        <time>2020-08-14T14:45:41.925Z</time>
      </trkpt>
      <trkpt lat="66.29521" lon="13.55479">
        <ele>56.634285</ele>
        <time>2020-08-14T14:45:43.919Z</time>
      </trkpt>
      <trkpt lat="66.29518" lon="13.55503">
        <ele>56.550147</ele>
        <time>2020-08-14T14:45:45.917Z</time>
      </trkpt>
      <trkpt lat="66.29514" lon="13.55527">
        <ele>56.465106</ele>
        <time>2020-08-14T14:45:47.904Z</time>
      </trkpt>
      <trkpt lat="66.29511" lon="13.5555">
        <ele>56.382184</ele>
        <time>2020-08-14T14:45:49.917Z</time>
      </trkpt>
      <trkpt lat="66.29508" lon="13.55573">
        <ele>56.300624</ele>
        <time>2020-08-14T14:45:51.938Z</time>
      </trkpt>
      <trkpt lat="66.29505" lon="13.55596">
        <ele>56.218464</ele>
        <time>2020-08-14T14:45:53.931Z</time>
      </trkpt>
      <trkpt lat="66.29502" lon="13.55618">
        <ele>56.140576</ele>
        <time>2020-08-14T14:45:55.902Z</time>
      </trkpt>
      <trkpt lat="66.29498" lon="13.5564">
        <ele>56.060014</ele>
        <time>2020-08-14T14:45:57.909Z</time>
      </trkpt>
      <trkpt lat="66.29495" lon="13.55661">
        <ele>55.976673</ele>
        <time>2020-08-14T14:45:59.892Z</time>
      </trkpt>
      <trkpt lat="66.29491" lon="13.55682">
        <ele>55.890972</ele>
        <time>2020-08-14T14:46:01.902Z</time>
      </trkpt>
      <trkpt lat="66.29486" lon="13.55703">
        <ele>55.803231</ele>
        <time>2020-08-14T14:46:03.939Z</time>
      </trkpt>
      <trkpt lat="66.2948" lon="13.55723">
        <ele>55.715591</ele>
        <time>2020-08-14T14:46:05.899Z</time>
      </trkpt>
      <trkpt lat="66.29475" lon="13.55743">
        <ele>55.630457</ele>
        <time>2020-08-14T14:46:07.905Z</time>
      </trkpt>
      <trkpt lat="66.2947" lon="13.55761">
        <ele>55.548805</ele>
        <time>2020-08-14T14:46:09.919Z</time>
      </trkpt>
      <trkpt lat="66.29464" lon="13.55779">
        <ele>55.467812</ele>
        <time>2020-08-14T14:46:11.945Z</time>
      </trkpt>
      <trkpt lat="66.29456" lon="13.55805">
        <ele>55.346822</ele>
        <time>2020-08-14T14:46:14.912Z</time>
      </trkpt>
      <trkpt lat="66.29448" lon="13.55831">
        <ele>55.228456</ele>
        <time>2020-08-14T14:46:17.902Z</time>
      </trkpt>
      <trkpt lat="66.29443" lon="13.5585">
        <ele>55.144856</ele>
        <time>2020-08-14T14:46:19.920Z</time>
      </trkpt>
      <trkpt lat="66.29437" lon="13.55869">
        <ele>55.056722</ele>
        <time>2020-08-14T14:46:21.915Z</time>
      </trkpt>
      <trkpt lat="66.29431" lon="13.55889">
        <ele>54.968003</ele>
        <time>2020-08-14T14:46:23.902Z</time>
      </trkpt>
      <trkpt lat="66.29425" lon="13.55909">
        <ele>54.875375</ele>
        <time>2020-08-14T14:46:25.932Z</time>
      </trkpt>
      <trkpt lat="66.29419" lon="13.55929">
        <ele>54.784067</ele>
        <time>2020-08-14T14:46:27.894Z</time>
      </trkpt>
      <trkpt lat="66.29413" lon="13.5595">
        <ele>54.690277</ele>
        <time>2020-08-14T14:46:29.910Z</time>
      </trkpt>
      <trkpt lat="66.29407" lon="13.55971">
        <ele>54.595971</ele>
        <time>2020-08-14T14:46:31.894Z</time>
      </trkpt>
      <trkpt lat="66.294" lon="13.55991">
        <ele>54.501348</ele>
        <time>2020-08-14T14:46:33.909Z</time>
      </trkpt>
      <trkpt lat="66.29394" lon="13.56012">
        <ele>54.380566</ele>
        <time>2020-08-14T14:46:35.924Z</time>
      </trkpt>
      <trkpt lat="66.29387" lon="13.56034">
        <ele>54.245126</ele>
        <time>2020-08-14T14:46:37.895Z</time>
      </trkpt>
      <trkpt lat="66.29381" lon="13.56057">
        <ele>54.10772</ele>
        <time>2020-08-14T14:46:39.899Z</time>
      </trkpt>
      <trkpt lat="66.29374" lon="13.5608">
        <ele>53.96693</ele>
        <time>2020-08-14T14:46:41.909Z</time>
      </trkpt>
      <trkpt lat="66.29367" lon="13.56105">
        <ele>53.82301</ele>
        <time>2020-08-14T14:46:43.930Z</time>
      </trkpt>
      <trkpt lat="66.2936" lon="13.56129">
        <ele>53.672588</ele>
        <time>2020-08-14T14:46:45.963Z</time>
      </trkpt>
      <trkpt lat="66.29353" lon="13.56153">
        <ele>53.523294</ele>
        <time>2020-08-14T14:46:47.895Z</time>
      </trkpt>
      <trkpt lat="66.29345" lon="13.56178">
        <ele>53.374</ele>
        <time>2020-08-14T14:46:49.924Z</time>
      </trkpt>
      <trkpt lat="66.29338" lon="13.56202">
        <ele>53.225361</ele>
        <time>2020-08-14T14:46:51.899Z</time>
      </trkpt>
      <trkpt lat="66.29331" lon="13.56227">
        <ele>53.07257</ele>
        <time>2020-08-14T14:46:53.950Z</time>
      </trkpt>
      <trkpt lat="66.29323" lon="13.56252">
        <ele>52.921015</ele>
        <time>2020-08-14T14:46:55.892Z</time>
      </trkpt>
      <trkpt lat="66.29316" lon="13.56276">
        <ele>52.769741</ele>
        <time>2020-08-14T14:46:57.921Z</time>
      </trkpt>
      <trkpt lat="66.29309" lon="13.56301">
        <ele>52.617741</ele>
        <time>2020-08-14T14:46:59.904Z</time>
      </trkpt>
      <trkpt lat="66.29301" lon="13.56327">
        <ele>52.46224</ele>
        <time>2020-08-14T14:47:01.932Z</time>
      </trkpt>
      <trkpt lat="66.29294" lon="13.56351">
        <ele>52.311686</ele>
        <time>2020-08-14T14:47:03.895Z</time>
      </trkpt>
      <trkpt lat="66.29287" lon="13.56375">
        <ele>52.199238</ele>
        <time>2020-08-14T14:47:05.918Z</time>
      </trkpt>
      <trkpt lat="66.2928" lon="13.56398">
        <ele>52.102887</ele>
        <time>2020-08-14T14:47:07.899Z</time>
      </trkpt>
      <trkpt lat="66.29274" lon="13.56422">
        <ele>52.005571</ele>
        <time>2020-08-14T14:47:09.903Z</time>
      </trkpt>
      <trkpt lat="66.29267" lon="13.56447">
        <ele>51.903247</ele>
        <time>2020-08-14T14:47:11.901Z</time>
      </trkpt>
      <trkpt lat="66.29261" lon="13.56474">
        <ele>51.797624</ele>
        <time>2020-08-14T14:47:13.904Z</time>
      </trkpt>
      <trkpt lat="66.29255" lon="13.56501">
        <ele>51.691579</ele>
        <time>2020-08-14T14:47:15.895Z</time>
      </trkpt>
      <trkpt lat="66.29249" lon="13.5653">
        <ele>51.580766</ele>
        <time>2020-08-14T14:47:17.931Z</time>
      </trkpt>
      <trkpt lat="66.29243" lon="13.5656">
        <ele>51.466517</ele>
        <time>2020-08-14T14:47:19.936Z</time>
      </trkpt>
      <trkpt lat="66.29237" lon="13.5659">
        <ele>51.353251</ele>
        <time>2020-08-14T14:47:21.908Z</time>
      </trkpt>
      <trkpt lat="66.29232" lon="13.56621">
        <ele>51.238544</ele>
        <time>2020-08-14T14:47:23.906Z</time>
      </trkpt>
      <trkpt lat="66.29226" lon="13.5665">
        <ele>51.126876</ele>
        <time>2020-08-14T14:47:25.928Z</time>
      </trkpt>
      <trkpt lat="66.29221" lon="13.5668">
        <ele>51.014955</ele>
        <time>2020-08-14T14:47:27.927Z</time>
      </trkpt>
      <trkpt lat="66.29215" lon="13.5671">
        <ele>50.90253</ele>
        <time>2020-08-14T14:47:29.950Z</time>
      </trkpt>
      <trkpt lat="66.2921" lon="13.56741">
        <ele>50.788565</ele>
        <time>2020-08-14T14:47:31.905Z</time>
      </trkpt>
      <trkpt lat="66.29206" lon="13.56771">
        <ele>50.98413</ele>
        <time>2020-08-14T14:47:33.915Z</time>
      </trkpt>
      <trkpt lat="66.29202" lon="13.56802">
        <ele>51.341289</ele>
        <time>2020-08-14T14:47:35.929Z</time>
      </trkpt>
      <trkpt lat="66.29198" lon="13.56832">
        <ele>51.695781</ele>
        <time>2020-08-14T14:47:37.903Z</time>
      </trkpt>
      <trkpt lat="66.29194" lon="13.56862">
        <ele>52.04772</ele>
        <time>2020-08-14T14:47:39.951Z</time>
      </trkpt>
      <trkpt lat="66.2919" lon="13.56887">
        <ele>52.345965</ele>
        <time>2020-08-14T14:47:41.895Z</time>
      </trkpt>
      <trkpt lat="66.29187" lon="13.56915">
        <ele>52.672433</ele>
        <time>2020-08-14T14:47:44.907Z</time>
      </trkpt>
      <trkpt lat="66.29193" lon="13.56937">
        <ele>52.957182</ele>
        <time>2020-08-14T14:47:47.941Z</time>
      </trkpt>
      <trkpt lat="66.29202" lon="13.56947">
        <ele>53.239097</ele>
        <time>2020-08-14T14:47:51.898Z</time>
      </trkpt>
      <trkpt lat="66.29213" lon="13.56957">
        <ele>53.562114</ele>
        <time>2020-08-14T14:49:14.919Z</time>
      </trkpt>
      <trkpt lat="66.29222" lon="13.56966">
        <ele>53.846279</ele>
        <time>2020-08-14T14:49:21.906Z</time>
      </trkpt>
      <trkpt lat="66.29232" lon="13.56971">
        <ele>54.130105</ele>
        <time>2020-08-14T14:49:28.965Z</time>
      </trkpt>
      <trkpt lat="66.29242" lon="13.56981">
        <ele>54.421034</ele>
        <time>2020-08-14T14:49:35.892Z</time>
      </trkpt>
      <trkpt lat="66.29251" lon="13.56989">
        <ele>54.675135</ele>
        <time>2020-08-14T14:49:42.904Z</time>
      </trkpt>
      <trkpt lat="66.2926" lon="13.56996">
        <ele>54.951389</ele>
        <time>2020-08-14T14:49:49.879Z</time>
      </trkpt>
      <trkpt lat="66.29269" lon="13.57007">
        <ele>55.220127</ele>
        <time>2020-08-14T14:49:56.910Z</time>
      </trkpt>
      <trkpt lat="66.29278" lon="13.57017">
        <ele>55.497719</ele>
        <time>2020-08-14T14:50:03.904Z</time>
      </trkpt>
      <trkpt lat="66.29287" lon="13.57029">
        <ele>55.809514</ele>
        <time>2020-08-14T14:50:10.895Z</time>
      </trkpt>
      <trkpt lat="66.29295" lon="13.57044">
        <ele>56.265114</ele>
        <time>2020-08-14T14:50:18.904Z</time>
      </trkpt>
      <trkpt lat="66.29302" lon="13.5706">
        <ele>56.677873</ele>
        <time>2020-08-14T14:50:24.895Z</time>
      </trkpt>
      <trkpt lat="66.29307" lon="13.57083">
        <ele>57.137085</ele>
        <time>2020-08-14T14:50:30.908Z</time>
      </trkpt>
      <trkpt lat="66.29309" lon="13.57105">
        <ele>57.54293</ele>
        <time>2020-08-14T14:50:35.917Z</time>
      </trkpt>
      <trkpt lat="66.29313" lon="13.57128">
        <ele>57.982152</ele>
        <time>2020-08-14T14:50:41.891Z</time>
      </trkpt>
      <trkpt lat="66.29315" lon="13.5715">
        <ele>58.401737</ele>
        <time>2020-08-14T14:50:46.903Z</time>
      </trkpt>
      <trkpt lat="66.29318" lon="13.57173">
        <ele>58.827635</ele>
        <time>2020-08-14T14:50:51.915Z</time>
      </trkpt>
      <trkpt lat="66.29316" lon="13.57196">
        <ele>59.236223</ele>
        <time>2020-08-14T14:50:55.897Z</time>
      </trkpt>
      <trkpt lat="66.29313" lon="13.57219">
        <ele>59.67644</ele>
        <time>2020-08-14T14:50:59.903Z</time>
      </trkpt>
      <trkpt lat="66.29315" lon="13.57245">
        <ele>60.133049</ele>
        <time>2020-08-14T14:51:06.932Z</time>
      </trkpt>
      <trkpt lat="66.29316" lon="13.5727">
        <ele>60.600872</ele>
        <time>2020-08-14T14:51:12.914Z</time>
      </trkpt>
      <trkpt lat="66.29315" lon="13.57297">
        <ele>61.08468</ele>
        <time>2020-08-14T14:51:18.911Z</time>
      </trkpt>
      <trkpt lat="66.29312" lon="13.57322">
        <ele>61.544652</ele>
        <time>2020-08-14T14:51:23.919Z</time>
      </trkpt>
      <trkpt lat="66.29308" lon="13.57348">
        <ele>62.043615</ele>
        <time>2020-08-14T14:51:28.919Z</time>
      </trkpt>
      <trkpt lat="66.29304" lon="13.57373">
        <ele>62.532756</ele>
        <time>2020-08-14T14:51:33.921Z</time>
      </trkpt>
      <trkpt lat="66.29301" lon="13.57397">
        <ele>62.971487</ele>
        <time>2020-08-14T14:51:37.893Z</time>
      </trkpt>
      <trkpt lat="66.29301" lon="13.57419">
        <ele>63.373192</ele>
        <time>2020-08-14T14:51:40.934Z</time>
      </trkpt>
      <trkpt lat="66.29302" lon="13.57448">
        <ele>63.684232</ele>
        <time>2020-08-14T14:51:44.912Z</time>
      </trkpt>
      <trkpt lat="66.293" lon="13.57477">
        <ele>63.402271</ele>
        <time>2020-08-14T14:51:48.920Z</time>
      </trkpt>
      <trkpt lat="66.29294" lon="13.57495">
        <ele>63.174625</ele>
        <time>2020-08-14T14:51:51.929Z</time>
      </trkpt>
      <trkpt lat="66.29285" lon="13.57504">
        <ele>62.952233</ele>
        <time>2020-08-14T14:51:54.901Z</time>
      </trkpt>
      <trkpt lat="66.29275" lon="13.57518">
        <ele>62.679529</ele>
        <time>2020-08-14T14:51:58.904Z</time>
      </trkpt>
      <trkpt lat="66.29267" lon="13.57536">
        <ele>62.431369</ele>
        <time>2020-08-14T14:52:01.928Z</time>
      </trkpt>
      <trkpt lat="66.29256" lon="13.5755">
        <ele>62.140988</ele>
        <time>2020-08-14T14:52:04.893Z</time>
      </trkpt>
      <trkpt lat="66.29248" lon="13.57561">
        <ele>61.923071</ele>
        <time>2020-08-14T14:52:06.915Z</time>
      </trkpt>
      <trkpt lat="66.2924" lon="13.57574">
        <ele>61.700765</ele>
        <time>2020-08-14T14:52:08.912Z</time>
      </trkpt>
      <trkpt lat="66.29229" lon="13.57592">
        <ele>61.396083</ele>
        <time>2020-08-14T14:52:11.908Z</time>
      </trkpt>
      <trkpt lat="66.29219" lon="13.57608">
        <ele>61.1104</ele>
        <time>2020-08-14T14:52:14.902Z</time>
      </trkpt>
      <trkpt lat="66.29209" lon="13.57624">
        <ele>60.833126</ele>
        <time>2020-08-14T14:52:17.911Z</time>
      </trkpt>
      <trkpt lat="66.292" lon="13.57638">
        <ele>60.578488</ele>
        <time>2020-08-14T14:52:20.892Z</time>
      </trkpt>
      <trkpt lat="66.29191" lon="13.57651">
        <ele>60.342328</ele>
        <time>2020-08-14T14:52:23.920Z</time>
      </trkpt>
      <trkpt lat="66.29184" lon="13.57664">
        <ele>60.124729</ele>
        <time>2020-08-14T14:52:26.942Z</time>
      </trkpt>
      <trkpt lat="66.29174" lon="13.57679">
        <ele>59.859509</ele>
        <time>2020-08-14T14:52:30.930Z</time>
      </trkpt>
      <trkpt lat="66.29165" lon="13.57692">
        <ele>59.615852</ele>
        <time>2020-08-14T14:52:34.965Z</time>
      </trkpt>
      <trkpt lat="66.29157" lon="13.57708">
        <ele>59.519073</ele>
        <time>2020-08-14T14:52:38.914Z</time>
      </trkpt>
      <trkpt lat="66.2915" lon="13.57722">
        <ele>59.519073</ele>
        <time>2020-08-14T14:52:42.908Z</time>
      </trkpt>
      <trkpt lat="66.29141" lon="13.57717">
        <ele>59.519073</ele>
        <time>2020-08-14T14:52:46.882Z</time>
      </trkpt>
      <trkpt lat="66.29135" lon="13.57698">
        <ele>59.519073</ele>
        <time>2020-08-14T14:52:49.878Z</time>
      </trkpt>
      <trkpt lat="66.29132" lon="13.57674">
        <ele>59.519073</ele>
        <time>2020-08-14T14:52:52.877Z</time>
      </trkpt>
      <trkpt lat="66.29132" lon="13.57647">
        <ele>59.519073</ele>
        <time>2020-08-14T14:52:56.932Z</time>
      </trkpt>
      <trkpt lat="66.29135" lon="13.57625">
        <ele>59.519073</ele>
        <time>2020-08-14T14:53:04.910Z</time>
      </trkpt>
      <trkpt lat="66.29141" lon="13.57606">
        <ele>59.519073</ele>
        <time>2020-08-14T14:55:09.916Z</time>
      </trkpt>
      <trkpt lat="66.29144" lon="13.57584">
        <ele>59.519073</ele>
        <time>2020-08-14T14:56:37.902Z</time>
      </trkpt>
      <trkpt lat="66.29149" lon="13.57562">
        <ele>59.519073</ele>
        <time>2020-08-14T14:56:47.901Z</time>
      </trkpt>
      <trkpt lat="66.29154" lon="13.57542">
        <ele>59.519073</ele>
        <time>2020-08-14T14:56:57.907Z</time>
      </trkpt>
      <trkpt lat="66.29163" lon="13.57533">
        <ele>59.519073</ele>
        <time>2020-08-14T14:57:12.901Z</time>
      </trkpt>
      <trkpt lat="66.29169" lon="13.57514">
        <ele>59.519073</ele>
        <time>2020-08-14T14:58:45.897Z</time>
      </trkpt>
      <trkpt lat="66.29176" lon="13.57529">
        <ele>59.519073</ele>
        <time>2020-08-14T15:01:33.911Z</time>
      </trkpt>
      <trkpt lat="66.29169" lon="13.57553">
        <ele>59.519073</ele>
        <time>2020-08-14T15:16:27.422Z</time>
      </trkpt>
      <trkpt lat="66.29169" lon="13.57508">
        <ele>59.519073</ele>
        <time>2020-08-14T15:16:39.068Z</time>
      </trkpt>
      <trkpt lat="66.29172" lon="13.57516">
        <ele>59.519073</ele>
        <time>2020-08-14T15:19:59.745Z</time>
      </trkpt>
    </trkseg>
  </trk>
</gpx>